﻿<?xml version="1.0" encoding="utf-8"?><gpx creator="Garmin Desktop App" version="1.1" xsi:schemaLocation="http://www.topografix.com/GPX/1/1 http://www.topografix.com/GPX/1/1/gpx.xsd http://www.garmin.com/xmlschemas/WaypointExtension/v1 http://www8.garmin.com/xmlschemas/WaypointExtensionv1.xsd http://www.garmin.com/xmlschemas/TrackPointExtension/v1 http://www.garmin.com/xmlschemas/TrackPointExtensionv1.xsd http://www.garmin.com/xmlschemas/GpxExtensions/v3 http://www8.garmin.com/xmlschemas/GpxExtensionsv3.xsd http://www.garmin.com/xmlschemas/ActivityExtension/v1 http://www8.garmin.com/xmlschemas/ActivityExtensionv1.xsd http://www.garmin.com/xmlschemas/AdventuresExtensions/v1 http://www8.garmin.com/xmlschemas/AdventuresExtensionv1.xsd http://www.garmin.com/xmlschemas/PressureExtension/v1 http://www.garmin.com/xmlschemas/PressureExtensionv1.xsd http://www.garmin.com/xmlschemas/TripExtensions/v1 http://www.garmin.com/xmlschemas/TripExtensionsv1.xsd http://www.garmin.com/xmlschemas/TripMetaDataExtensions/v1 http://www.garmin.com/xmlschemas/TripMetaDataExtensionsv1.xsd http://www.garmin.com/xmlschemas/ViaPointTransportationModeExtensions/v1 http://www.garmin.com/xmlschemas/ViaPointTransportationModeExtensionsv1.xsd http://www.garmin.com/xmlschemas/CreationTimeExtension/v1 http://www.garmin.com/xmlschemas/CreationTimeExtensionsv1.xsd http://www.garmin.com/xmlschemas/AccelerationExtension/v1 http://www.garmin.com/xmlschemas/AccelerationExtensionv1.xsd http://www.garmin.com/xmlschemas/PowerExtension/v1 http://www.garmin.com/xmlschemas/PowerExtensionv1.xsd http://www.garmin.com/xmlschemas/VideoExtension/v1 http://www.garmin.com/xmlschemas/VideoExtensionv1.xsd" xmlns="http://www.topografix.com/GPX/1/1" xmlns:xsi="http://www.w3.org/2001/XMLSchema-instance" xmlns:wptx1="http://www.garmin.com/xmlschemas/WaypointExtension/v1" xmlns:gpxtrx="http://www.garmin.com/xmlschemas/GpxExtensions/v3" xmlns:gpxtpx="http://www.garmin.com/xmlschemas/TrackPointExtension/v1" xmlns:gpxx="http://www.garmin.com/xmlschemas/GpxExtensions/v3" xmlns:trp="http://www.garmin.com/xmlschemas/TripExtensions/v1" xmlns:adv="http://www.garmin.com/xmlschemas/AdventuresExtensions/v1" xmlns:prs="http://www.garmin.com/xmlschemas/PressureExtension/v1" xmlns:tmd="http://www.garmin.com/xmlschemas/TripMetaDataExtensions/v1" xmlns:vptm="http://www.garmin.com/xmlschemas/ViaPointTransportationModeExtensions/v1" xmlns:ctx="http://www.garmin.com/xmlschemas/CreationTimeExtension/v1" xmlns:gpxacc="http://www.garmin.com/xmlschemas/AccelerationExtension/v1" xmlns:gpxpx="http://www.garmin.com/xmlschemas/PowerExtension/v1" xmlns:vidx1="http://www.garmin.com/xmlschemas/VideoExtension/v1">

  <metadata>
    <link href="http://www.garmin.com">
      <text>Garmin International</text>
    </link>
    <time>2026-04-25T18:23:42Z</time>
    <bounds maxlat="59.079537391662598" maxlon="30.031664371490479" minlat="59.063272476196289" minlon="30.003082752227783" />
  </metadata>

  <trk>
    <name>Трек 025</name>
    <extensions>
      <gpxx:TrackExtension>
        <gpxx:DisplayColor>DarkGreen</gpxx:DisplayColor>
      </gpxx:TrackExtension>
    </extensions>
    <trkseg>
      <trkpt lat="59.063315391540527" lon="30.030720233917236">
        <time>2026-04-25T08:31:12Z</time>
      </trkpt>
      <trkpt lat="59.063293933868408" lon="30.030741691589355">
        <time>2026-04-25T08:31:14Z</time>
      </trkpt>
      <trkpt lat="59.063293933868408" lon="30.030720233917236">
        <time>2026-04-25T08:31:17Z</time>
      </trkpt>
      <trkpt lat="59.063272476196289" lon="30.030720233917236">
        <time>2026-04-25T08:31:19Z</time>
      </trkpt>
      <trkpt lat="59.063272476196289" lon="30.030720233917236">
        <time>2026-04-25T08:31:22Z</time>
      </trkpt>
      <trkpt lat="59.063293933868408" lon="30.030698776245117">
        <time>2026-04-25T08:31:24Z</time>
      </trkpt>
      <trkpt lat="59.063293933868408" lon="30.030720233917236">
        <time>2026-04-25T08:31:27Z</time>
      </trkpt>
      <trkpt lat="59.063293933868408" lon="30.030698776245117">
        <time>2026-04-25T08:31:29Z</time>
      </trkpt>
      <trkpt lat="59.063293933868408" lon="30.030698776245117">
        <time>2026-04-25T08:31:32Z</time>
      </trkpt>
      <trkpt lat="59.063336849212646" lon="30.030848979949951">
        <time>2026-04-25T08:31:34Z</time>
      </trkpt>
      <trkpt lat="59.063379764556885" lon="30.030977725982666">
        <time>2026-04-25T08:31:37Z</time>
      </trkpt>
      <trkpt lat="59.063401222229004" lon="30.031063556671143">
        <time>2026-04-25T08:31:39Z</time>
      </trkpt>
      <trkpt lat="59.063401222229004" lon="30.031042098999023">
        <time>2026-04-25T08:31:42Z</time>
      </trkpt>
      <trkpt lat="59.063444137573242" lon="30.030977725982666">
        <time>2026-04-25T08:31:47Z</time>
      </trkpt>
      <trkpt lat="59.063444137573242" lon="30.030977725982666">
        <time>2026-04-25T08:31:49Z</time>
      </trkpt>
      <trkpt lat="59.063444137573242" lon="30.030977725982666">
        <time>2026-04-25T08:31:52Z</time>
      </trkpt>
      <trkpt lat="59.063444137573242" lon="30.030977725982666">
        <time>2026-04-25T08:31:54Z</time>
      </trkpt>
      <trkpt lat="59.063444137573242" lon="30.030977725982666">
        <time>2026-04-25T08:31:57Z</time>
      </trkpt>
      <trkpt lat="59.063444137573242" lon="30.030977725982666">
        <time>2026-04-25T08:31:59Z</time>
      </trkpt>
      <trkpt lat="59.063422679901123" lon="30.030956268310547">
        <time>2026-04-25T08:32:02Z</time>
      </trkpt>
      <trkpt lat="59.063422679901123" lon="30.030956268310547">
        <time>2026-04-25T08:32:04Z</time>
      </trkpt>
      <trkpt lat="59.063444137573242" lon="30.030934810638428">
        <time>2026-04-25T08:32:07Z</time>
      </trkpt>
      <trkpt lat="59.063444137573242" lon="30.030934810638428">
        <time>2026-04-25T08:32:09Z</time>
      </trkpt>
      <trkpt lat="59.063444137573242" lon="30.030913352966309">
        <time>2026-04-25T08:32:12Z</time>
      </trkpt>
      <trkpt lat="59.06348705291748" lon="30.030934810638428">
        <time>2026-04-25T08:32:14Z</time>
      </trkpt>
      <trkpt lat="59.0635085105896" lon="30.030956268310547">
        <time>2026-04-25T08:32:17Z</time>
      </trkpt>
      <trkpt lat="59.0635085105896" lon="30.030956268310547">
        <time>2026-04-25T08:32:19Z</time>
      </trkpt>
      <trkpt lat="59.063529968261719" lon="30.030934810638428">
        <time>2026-04-25T08:32:22Z</time>
      </trkpt>
      <trkpt lat="59.063551425933838" lon="30.030913352966309">
        <time>2026-04-25T08:32:24Z</time>
      </trkpt>
      <trkpt lat="59.063551425933838" lon="30.030913352966309">
        <time>2026-04-25T08:32:27Z</time>
      </trkpt>
      <trkpt lat="59.063551425933838" lon="30.030891895294189">
        <time>2026-04-25T08:32:29Z</time>
      </trkpt>
      <trkpt lat="59.063551425933838" lon="30.030913352966309">
        <time>2026-04-25T08:32:32Z</time>
      </trkpt>
      <trkpt lat="59.063572883605957" lon="30.030934810638428">
        <time>2026-04-25T08:32:34Z</time>
      </trkpt>
      <trkpt lat="59.063572883605957" lon="30.030891895294189">
        <time>2026-04-25T08:32:37Z</time>
      </trkpt>
      <trkpt lat="59.063551425933838" lon="30.030913352966309">
        <time>2026-04-25T08:32:39Z</time>
      </trkpt>
      <trkpt lat="59.063551425933838" lon="30.030956268310547">
        <time>2026-04-25T08:32:42Z</time>
      </trkpt>
      <trkpt lat="59.063529968261719" lon="30.030977725982666">
        <time>2026-04-25T08:32:44Z</time>
      </trkpt>
      <trkpt lat="59.063444137573242" lon="30.031020641326904">
        <time>2026-04-25T08:32:47Z</time>
      </trkpt>
      <trkpt lat="59.063444137573242" lon="30.030999183654785">
        <time>2026-04-25T08:32:49Z</time>
      </trkpt>
      <trkpt lat="59.063465595245361" lon="30.030999183654785">
        <time>2026-04-25T08:32:52Z</time>
      </trkpt>
      <trkpt lat="59.063465595245361" lon="30.031042098999023">
        <time>2026-04-25T08:32:54Z</time>
      </trkpt>
      <trkpt lat="59.063465595245361" lon="30.031042098999023">
        <time>2026-04-25T08:32:57Z</time>
      </trkpt>
      <trkpt lat="59.063465595245361" lon="30.031042098999023">
        <time>2026-04-25T08:32:59Z</time>
      </trkpt>
      <trkpt lat="59.063465595245361" lon="30.031042098999023">
        <time>2026-04-25T08:33:02Z</time>
      </trkpt>
      <trkpt lat="59.063465595245361" lon="30.031042098999023">
        <time>2026-04-25T08:33:04Z</time>
      </trkpt>
      <trkpt lat="59.063465595245361" lon="30.031042098999023">
        <time>2026-04-25T08:33:07Z</time>
      </trkpt>
      <trkpt lat="59.063465595245361" lon="30.031042098999023">
        <time>2026-04-25T08:33:09Z</time>
      </trkpt>
      <trkpt lat="59.063465595245361" lon="30.031042098999023">
        <time>2026-04-25T08:33:12Z</time>
      </trkpt>
      <trkpt lat="59.063465595245361" lon="30.031042098999023">
        <time>2026-04-25T08:33:14Z</time>
      </trkpt>
      <trkpt lat="59.063465595245361" lon="30.031042098999023">
        <time>2026-04-25T08:33:17Z</time>
      </trkpt>
      <trkpt lat="59.063465595245361" lon="30.031042098999023">
        <time>2026-04-25T08:33:19Z</time>
      </trkpt>
      <trkpt lat="59.063465595245361" lon="30.031042098999023">
        <time>2026-04-25T08:33:22Z</time>
      </trkpt>
      <trkpt lat="59.063465595245361" lon="30.031042098999023">
        <time>2026-04-25T08:33:24Z</time>
      </trkpt>
      <trkpt lat="59.063465595245361" lon="30.031042098999023">
        <time>2026-04-25T08:33:27Z</time>
      </trkpt>
      <trkpt lat="59.063444137573242" lon="30.031042098999023">
        <time>2026-04-25T08:33:29Z</time>
      </trkpt>
      <trkpt lat="59.063444137573242" lon="30.031042098999023">
        <time>2026-04-25T08:33:32Z</time>
      </trkpt>
      <trkpt lat="59.063444137573242" lon="30.031042098999023">
        <time>2026-04-25T08:33:34Z</time>
      </trkpt>
      <trkpt lat="59.063444137573242" lon="30.031042098999023">
        <time>2026-04-25T08:33:37Z</time>
      </trkpt>
      <trkpt lat="59.063444137573242" lon="30.031042098999023">
        <time>2026-04-25T08:33:39Z</time>
      </trkpt>
      <trkpt lat="59.063444137573242" lon="30.031042098999023">
        <time>2026-04-25T08:33:42Z</time>
      </trkpt>
      <trkpt lat="59.063444137573242" lon="30.031042098999023">
        <time>2026-04-25T08:33:44Z</time>
      </trkpt>
      <trkpt lat="59.063444137573242" lon="30.031042098999023">
        <time>2026-04-25T08:33:47Z</time>
      </trkpt>
      <trkpt lat="59.063444137573242" lon="30.031042098999023">
        <time>2026-04-25T08:33:49Z</time>
      </trkpt>
      <trkpt lat="59.063444137573242" lon="30.031042098999023">
        <time>2026-04-25T08:33:52Z</time>
      </trkpt>
      <trkpt lat="59.063444137573242" lon="30.031042098999023">
        <time>2026-04-25T08:33:54Z</time>
      </trkpt>
      <trkpt lat="59.063444137573242" lon="30.031042098999023">
        <time>2026-04-25T08:33:57Z</time>
      </trkpt>
      <trkpt lat="59.063444137573242" lon="30.031042098999023">
        <time>2026-04-25T08:33:59Z</time>
      </trkpt>
      <trkpt lat="59.063444137573242" lon="30.031042098999023">
        <time>2026-04-25T08:34:02Z</time>
      </trkpt>
      <trkpt lat="59.063444137573242" lon="30.031042098999023">
        <time>2026-04-25T08:34:04Z</time>
      </trkpt>
      <trkpt lat="59.063444137573242" lon="30.031042098999023">
        <time>2026-04-25T08:34:07Z</time>
      </trkpt>
      <trkpt lat="59.063444137573242" lon="30.031042098999023">
        <time>2026-04-25T08:34:09Z</time>
      </trkpt>
      <trkpt lat="59.063444137573242" lon="30.031042098999023">
        <time>2026-04-25T08:34:12Z</time>
      </trkpt>
      <trkpt lat="59.063444137573242" lon="30.031042098999023">
        <time>2026-04-25T08:34:14Z</time>
      </trkpt>
      <trkpt lat="59.063444137573242" lon="30.031042098999023">
        <time>2026-04-25T08:34:17Z</time>
      </trkpt>
      <trkpt lat="59.063444137573242" lon="30.031042098999023">
        <time>2026-04-25T08:34:19Z</time>
      </trkpt>
      <trkpt lat="59.063444137573242" lon="30.031042098999023">
        <time>2026-04-25T08:34:22Z</time>
      </trkpt>
      <trkpt lat="59.063444137573242" lon="30.031042098999023">
        <time>2026-04-25T08:34:24Z</time>
      </trkpt>
      <trkpt lat="59.063444137573242" lon="30.031042098999023">
        <time>2026-04-25T08:34:27Z</time>
      </trkpt>
      <trkpt lat="59.063444137573242" lon="30.031042098999023">
        <time>2026-04-25T08:34:29Z</time>
      </trkpt>
      <trkpt lat="59.063444137573242" lon="30.031042098999023">
        <time>2026-04-25T08:34:32Z</time>
      </trkpt>
      <trkpt lat="59.063444137573242" lon="30.031020641326904">
        <time>2026-04-25T08:34:34Z</time>
      </trkpt>
      <trkpt lat="59.063465595245361" lon="30.031020641326904">
        <time>2026-04-25T08:34:37Z</time>
      </trkpt>
      <trkpt lat="59.06348705291748" lon="30.030999183654785">
        <time>2026-04-25T08:34:39Z</time>
      </trkpt>
      <trkpt lat="59.0635085105896" lon="30.030999183654785">
        <time>2026-04-25T08:34:42Z</time>
      </trkpt>
      <trkpt lat="59.063529968261719" lon="30.030999183654785">
        <time>2026-04-25T08:34:44Z</time>
      </trkpt>
      <trkpt lat="59.063529968261719" lon="30.030999183654785">
        <time>2026-04-25T08:34:47Z</time>
      </trkpt>
      <trkpt lat="59.063529968261719" lon="30.030977725982666">
        <time>2026-04-25T08:34:49Z</time>
      </trkpt>
      <trkpt lat="59.063529968261719" lon="30.030977725982666">
        <time>2026-04-25T08:34:52Z</time>
      </trkpt>
      <trkpt lat="59.063529968261719" lon="30.030977725982666">
        <time>2026-04-25T08:34:54Z</time>
      </trkpt>
      <trkpt lat="59.063529968261719" lon="30.030977725982666">
        <time>2026-04-25T08:34:57Z</time>
      </trkpt>
      <trkpt lat="59.063529968261719" lon="30.030977725982666">
        <time>2026-04-25T08:34:59Z</time>
      </trkpt>
      <trkpt lat="59.063529968261719" lon="30.030977725982666">
        <time>2026-04-25T08:35:02Z</time>
      </trkpt>
      <trkpt lat="59.063529968261719" lon="30.030977725982666">
        <time>2026-04-25T08:35:04Z</time>
      </trkpt>
      <trkpt lat="59.063529968261719" lon="30.030977725982666">
        <time>2026-04-25T08:35:07Z</time>
      </trkpt>
      <trkpt lat="59.063529968261719" lon="30.030977725982666">
        <time>2026-04-25T08:35:09Z</time>
      </trkpt>
      <trkpt lat="59.063529968261719" lon="30.030977725982666">
        <time>2026-04-25T08:35:12Z</time>
      </trkpt>
      <trkpt lat="59.063551425933838" lon="30.030934810638428">
        <time>2026-04-25T08:35:14Z</time>
      </trkpt>
      <trkpt lat="59.063572883605957" lon="30.030891895294189">
        <time>2026-04-25T08:35:17Z</time>
      </trkpt>
      <trkpt lat="59.063594341278076" lon="30.030891895294189">
        <time>2026-04-25T08:35:19Z</time>
      </trkpt>
      <trkpt lat="59.063594341278076" lon="30.030891895294189">
        <time>2026-04-25T08:35:22Z</time>
      </trkpt>
      <trkpt lat="59.063594341278076" lon="30.030891895294189">
        <time>2026-04-25T08:35:24Z</time>
      </trkpt>
      <trkpt lat="59.063594341278076" lon="30.030891895294189">
        <time>2026-04-25T08:35:27Z</time>
      </trkpt>
      <trkpt lat="59.063594341278076" lon="30.030891895294189">
        <time>2026-04-25T08:35:29Z</time>
      </trkpt>
      <trkpt lat="59.063615798950195" lon="30.03087043762207">
        <time>2026-04-25T08:35:32Z</time>
      </trkpt>
      <trkpt lat="59.063615798950195" lon="30.03087043762207">
        <time>2026-04-25T08:35:34Z</time>
      </trkpt>
      <trkpt lat="59.063615798950195" lon="30.03087043762207">
        <time>2026-04-25T08:35:37Z</time>
      </trkpt>
      <trkpt lat="59.063615798950195" lon="30.03087043762207">
        <time>2026-04-25T08:35:39Z</time>
      </trkpt>
      <trkpt lat="59.063594341278076" lon="30.03087043762207">
        <time>2026-04-25T08:35:42Z</time>
      </trkpt>
      <trkpt lat="59.063572883605957" lon="30.03087043762207">
        <time>2026-04-25T08:35:44Z</time>
      </trkpt>
      <trkpt lat="59.063615798950195" lon="30.030848979949951">
        <time>2026-04-25T08:35:47Z</time>
      </trkpt>
      <trkpt lat="59.063658714294434" lon="30.030827522277832">
        <time>2026-04-25T08:35:49Z</time>
      </trkpt>
      <trkpt lat="59.063658714294434" lon="30.030827522277832">
        <time>2026-04-25T08:35:52Z</time>
      </trkpt>
      <trkpt lat="59.063701629638672" lon="30.030827522277832">
        <time>2026-04-25T08:35:54Z</time>
      </trkpt>
      <trkpt lat="59.063701629638672" lon="30.030848979949951">
        <time>2026-04-25T08:35:57Z</time>
      </trkpt>
      <trkpt lat="59.063723087310791" lon="30.030827522277832">
        <time>2026-04-25T08:35:59Z</time>
      </trkpt>
      <trkpt lat="59.063723087310791" lon="30.030827522277832">
        <time>2026-04-25T08:36:02Z</time>
      </trkpt>
      <trkpt lat="59.063701629638672" lon="30.030827522277832">
        <time>2026-04-25T08:36:04Z</time>
      </trkpt>
      <trkpt lat="59.063701629638672" lon="30.030827522277832">
        <time>2026-04-25T08:36:07Z</time>
      </trkpt>
      <trkpt lat="59.063701629638672" lon="30.030827522277832">
        <time>2026-04-25T08:36:09Z</time>
      </trkpt>
      <trkpt lat="59.063680171966553" lon="30.030827522277832">
        <time>2026-04-25T08:36:12Z</time>
      </trkpt>
      <trkpt lat="59.063637256622314" lon="30.030827522277832">
        <time>2026-04-25T08:36:14Z</time>
      </trkpt>
      <trkpt lat="59.063615798950195" lon="30.030848979949951">
        <time>2026-04-25T08:36:17Z</time>
      </trkpt>
      <trkpt lat="59.063615798950195" lon="30.030848979949951">
        <time>2026-04-25T08:36:19Z</time>
      </trkpt>
      <trkpt lat="59.063615798950195" lon="30.030848979949951">
        <time>2026-04-25T08:36:22Z</time>
      </trkpt>
      <trkpt lat="59.063658714294434" lon="30.030827522277832">
        <time>2026-04-25T08:36:24Z</time>
      </trkpt>
      <trkpt lat="59.063658714294434" lon="30.030848979949951">
        <time>2026-04-25T08:36:27Z</time>
      </trkpt>
      <trkpt lat="59.063615798950195" lon="30.030848979949951">
        <time>2026-04-25T08:36:29Z</time>
      </trkpt>
      <trkpt lat="59.063615798950195" lon="30.030848979949951">
        <time>2026-04-25T08:36:32Z</time>
      </trkpt>
      <trkpt lat="59.063637256622314" lon="30.030827522277832">
        <time>2026-04-25T08:36:34Z</time>
      </trkpt>
      <trkpt lat="59.063658714294434" lon="30.030827522277832">
        <time>2026-04-25T08:36:37Z</time>
      </trkpt>
      <trkpt lat="59.063680171966553" lon="30.030784606933594">
        <time>2026-04-25T08:36:39Z</time>
      </trkpt>
      <trkpt lat="59.063680171966553" lon="30.030784606933594">
        <time>2026-04-25T08:36:42Z</time>
      </trkpt>
      <trkpt lat="59.063680171966553" lon="30.030784606933594">
        <time>2026-04-25T08:36:44Z</time>
      </trkpt>
      <trkpt lat="59.063701629638672" lon="30.030784606933594">
        <time>2026-04-25T08:36:47Z</time>
      </trkpt>
      <trkpt lat="59.063723087310791" lon="30.030784606933594">
        <time>2026-04-25T08:36:49Z</time>
      </trkpt>
      <trkpt lat="59.063723087310791" lon="30.030763149261475">
        <time>2026-04-25T08:36:52Z</time>
      </trkpt>
      <trkpt lat="59.06374454498291" lon="30.030720233917236">
        <time>2026-04-25T08:36:54Z</time>
      </trkpt>
      <trkpt lat="59.063766002655029" lon="30.030698776245117">
        <time>2026-04-25T08:36:57Z</time>
      </trkpt>
      <trkpt lat="59.063766002655029" lon="30.030698776245117">
        <time>2026-04-25T08:36:59Z</time>
      </trkpt>
      <trkpt lat="59.063787460327148" lon="30.030720233917236">
        <time>2026-04-25T08:37:02Z</time>
      </trkpt>
      <trkpt lat="59.063808917999268" lon="30.030763149261475">
        <time>2026-04-25T08:37:04Z</time>
      </trkpt>
      <trkpt lat="59.063808917999268" lon="30.030784606933594">
        <time>2026-04-25T08:37:07Z</time>
      </trkpt>
      <trkpt lat="59.063808917999268" lon="30.030806064605713">
        <time>2026-04-25T08:37:09Z</time>
      </trkpt>
      <trkpt lat="59.063808917999268" lon="30.030806064605713">
        <time>2026-04-25T08:37:12Z</time>
      </trkpt>
      <trkpt lat="59.063808917999268" lon="30.030806064605713">
        <time>2026-04-25T08:37:14Z</time>
      </trkpt>
      <trkpt lat="59.063808917999268" lon="30.030806064605713">
        <time>2026-04-25T08:37:17Z</time>
      </trkpt>
      <trkpt lat="59.063830375671387" lon="30.030784606933594">
        <time>2026-04-25T08:37:19Z</time>
      </trkpt>
      <trkpt lat="59.063830375671387" lon="30.030784606933594">
        <time>2026-04-25T08:37:22Z</time>
      </trkpt>
      <trkpt lat="59.063830375671387" lon="30.030784606933594">
        <time>2026-04-25T08:37:24Z</time>
      </trkpt>
      <trkpt lat="59.063830375671387" lon="30.030784606933594">
        <time>2026-04-25T08:37:27Z</time>
      </trkpt>
      <trkpt lat="59.063830375671387" lon="30.030784606933594">
        <time>2026-04-25T08:37:29Z</time>
      </trkpt>
      <trkpt lat="59.063830375671387" lon="30.030784606933594">
        <time>2026-04-25T08:37:32Z</time>
      </trkpt>
      <trkpt lat="59.063873291015625" lon="30.030741691589355">
        <time>2026-04-25T08:37:34Z</time>
      </trkpt>
      <trkpt lat="59.063894748687744" lon="30.030741691589355">
        <time>2026-04-25T08:37:37Z</time>
      </trkpt>
      <trkpt lat="59.063937664031982" lon="30.030720233917236">
        <time>2026-04-25T08:37:39Z</time>
      </trkpt>
      <trkpt lat="59.063959121704102" lon="30.030698776245117">
        <time>2026-04-25T08:37:42Z</time>
      </trkpt>
      <trkpt lat="59.06400203704834" lon="30.030720233917236">
        <time>2026-04-25T08:37:44Z</time>
      </trkpt>
      <trkpt lat="59.06400203704834" lon="30.030763149261475">
        <time>2026-04-25T08:37:47Z</time>
      </trkpt>
      <trkpt lat="59.06400203704834" lon="30.030763149261475">
        <time>2026-04-25T08:37:49Z</time>
      </trkpt>
      <trkpt lat="59.06400203704834" lon="30.030763149261475">
        <time>2026-04-25T08:37:52Z</time>
      </trkpt>
      <trkpt lat="59.06400203704834" lon="30.030784606933594">
        <time>2026-04-25T08:37:54Z</time>
      </trkpt>
      <trkpt lat="59.06400203704834" lon="30.030784606933594">
        <time>2026-04-25T08:37:57Z</time>
      </trkpt>
      <trkpt lat="59.06400203704834" lon="30.030784606933594">
        <time>2026-04-25T08:37:59Z</time>
      </trkpt>
      <trkpt lat="59.064023494720459" lon="30.030720233917236">
        <time>2026-04-25T08:38:02Z</time>
      </trkpt>
      <trkpt lat="59.064023494720459" lon="30.030612945556641">
        <time>2026-04-25T08:38:04Z</time>
      </trkpt>
      <trkpt lat="59.064023494720459" lon="30.030570030212402">
        <time>2026-04-25T08:38:07Z</time>
      </trkpt>
      <trkpt lat="59.064023494720459" lon="30.030527114868164">
        <time>2026-04-25T08:38:09Z</time>
      </trkpt>
      <trkpt lat="59.06400203704834" lon="30.030484199523926">
        <time>2026-04-25T08:38:12Z</time>
      </trkpt>
      <trkpt lat="59.06400203704834" lon="30.030441284179688">
        <time>2026-04-25T08:38:14Z</time>
      </trkpt>
      <trkpt lat="59.06400203704834" lon="30.030441284179688">
        <time>2026-04-25T08:38:17Z</time>
      </trkpt>
      <trkpt lat="59.064066410064697" lon="30.030441284179688">
        <time>2026-04-25T08:38:19Z</time>
      </trkpt>
      <trkpt lat="59.064087867736816" lon="30.030398368835449">
        <time>2026-04-25T08:38:22Z</time>
      </trkpt>
      <trkpt lat="59.064109325408936" lon="30.030312538146973">
        <time>2026-04-25T08:38:24Z</time>
      </trkpt>
      <trkpt lat="59.064152240753174" lon="30.030248165130615">
        <time>2026-04-25T08:38:27Z</time>
      </trkpt>
      <trkpt lat="59.064173698425293" lon="30.030226707458496">
        <time>2026-04-25T08:38:29Z</time>
      </trkpt>
      <trkpt lat="59.064173698425293" lon="30.030226707458496">
        <time>2026-04-25T08:38:32Z</time>
      </trkpt>
      <trkpt lat="59.064173698425293" lon="30.030226707458496">
        <time>2026-04-25T08:38:34Z</time>
      </trkpt>
      <trkpt lat="59.064173698425293" lon="30.030226707458496">
        <time>2026-04-25T08:38:37Z</time>
      </trkpt>
      <trkpt lat="59.064173698425293" lon="30.030226707458496">
        <time>2026-04-25T08:38:39Z</time>
      </trkpt>
      <trkpt lat="59.064173698425293" lon="30.030226707458496">
        <time>2026-04-25T08:38:42Z</time>
      </trkpt>
      <trkpt lat="59.064173698425293" lon="30.030226707458496">
        <time>2026-04-25T08:38:44Z</time>
      </trkpt>
      <trkpt lat="59.064173698425293" lon="30.030205249786377">
        <time>2026-04-25T08:38:47Z</time>
      </trkpt>
      <trkpt lat="59.064173698425293" lon="30.0301194190979">
        <time>2026-04-25T08:38:49Z</time>
      </trkpt>
      <trkpt lat="59.064173698425293" lon="30.030097961425781">
        <time>2026-04-25T08:38:52Z</time>
      </trkpt>
      <trkpt lat="59.064152240753174" lon="30.030033588409424">
        <time>2026-04-25T08:38:54Z</time>
      </trkpt>
      <trkpt lat="59.064152240753174" lon="30.029969215393066">
        <time>2026-04-25T08:38:57Z</time>
      </trkpt>
      <trkpt lat="59.064152240753174" lon="30.02988338470459">
        <time>2026-04-25T08:38:59Z</time>
      </trkpt>
      <trkpt lat="59.064152240753174" lon="30.029861927032471">
        <time>2026-04-25T08:39:02Z</time>
      </trkpt>
      <trkpt lat="59.064173698425293" lon="30.029861927032471">
        <time>2026-04-25T08:39:04Z</time>
      </trkpt>
      <trkpt lat="59.064195156097412" lon="30.029861927032471">
        <time>2026-04-25T08:39:07Z</time>
      </trkpt>
      <trkpt lat="59.064216613769531" lon="30.029754638671875">
        <time>2026-04-25T08:39:09Z</time>
      </trkpt>
      <trkpt lat="59.064216613769531" lon="30.029711723327637">
        <time>2026-04-25T08:39:12Z</time>
      </trkpt>
      <trkpt lat="59.06423807144165" lon="30.029711723327637">
        <time>2026-04-25T08:39:14Z</time>
      </trkpt>
      <trkpt lat="59.06423807144165" lon="30.029733180999756">
        <time>2026-04-25T08:39:17Z</time>
      </trkpt>
      <trkpt lat="59.064216613769531" lon="30.029690265655518">
        <time>2026-04-25T08:39:19Z</time>
      </trkpt>
      <trkpt lat="59.064216613769531" lon="30.02962589263916">
        <time>2026-04-25T08:39:22Z</time>
      </trkpt>
      <trkpt lat="59.06425952911377" lon="30.029711723327637">
        <time>2026-04-25T08:39:24Z</time>
      </trkpt>
      <trkpt lat="59.06423807144165" lon="30.029819011688232">
        <time>2026-04-25T08:39:27Z</time>
      </trkpt>
      <trkpt lat="59.064195156097412" lon="30.029969215393066">
        <time>2026-04-25T08:39:29Z</time>
      </trkpt>
      <trkpt lat="59.06423807144165" lon="30.029904842376709">
        <time>2026-04-25T08:39:32Z</time>
      </trkpt>
      <trkpt lat="59.064280986785889" lon="30.029690265655518">
        <time>2026-04-25T08:39:34Z</time>
      </trkpt>
      <trkpt lat="59.06423807144165" lon="30.029582977294922">
        <time>2026-04-25T08:39:37Z</time>
      </trkpt>
      <trkpt lat="59.064195156097412" lon="30.029540061950684">
        <time>2026-04-25T08:39:39Z</time>
      </trkpt>
      <trkpt lat="59.06423807144165" lon="30.029582977294922">
        <time>2026-04-25T08:39:42Z</time>
      </trkpt>
      <trkpt lat="59.064216613769531" lon="30.029604434967041">
        <time>2026-04-25T08:39:44Z</time>
      </trkpt>
      <trkpt lat="59.064195156097412" lon="30.029582977294922">
        <time>2026-04-25T08:39:47Z</time>
      </trkpt>
      <trkpt lat="59.064216613769531" lon="30.029561519622803">
        <time>2026-04-25T08:39:49Z</time>
      </trkpt>
      <trkpt lat="59.064280986785889" lon="30.029518604278564">
        <time>2026-04-25T08:39:52Z</time>
      </trkpt>
      <trkpt lat="59.064323902130127" lon="30.029432773590088">
        <time>2026-04-25T08:39:54Z</time>
      </trkpt>
      <trkpt lat="59.064345359802246" lon="30.029411315917969">
        <time>2026-04-25T08:39:57Z</time>
      </trkpt>
      <trkpt lat="59.064345359802246" lon="30.02938985824585">
        <time>2026-04-25T08:39:59Z</time>
      </trkpt>
      <trkpt lat="59.064345359802246" lon="30.029432773590088">
        <time>2026-04-25T08:40:02Z</time>
      </trkpt>
      <trkpt lat="59.064366817474365" lon="30.029497146606445">
        <time>2026-04-25T08:40:04Z</time>
      </trkpt>
      <trkpt lat="59.064388275146484" lon="30.029540061950684">
        <time>2026-04-25T08:40:07Z</time>
      </trkpt>
      <trkpt lat="59.064431190490723" lon="30.029561519622803">
        <time>2026-04-25T08:40:09Z</time>
      </trkpt>
      <trkpt lat="59.064452648162842" lon="30.029582977294922">
        <time>2026-04-25T08:40:12Z</time>
      </trkpt>
      <trkpt lat="59.064452648162842" lon="30.029582977294922">
        <time>2026-04-25T08:40:14Z</time>
      </trkpt>
      <trkpt lat="59.064452648162842" lon="30.029582977294922">
        <time>2026-04-25T08:40:17Z</time>
      </trkpt>
      <trkpt lat="59.064474105834961" lon="30.029540061950684">
        <time>2026-04-25T08:40:19Z</time>
      </trkpt>
      <trkpt lat="59.064474105834961" lon="30.029540061950684">
        <time>2026-04-25T08:40:22Z</time>
      </trkpt>
      <trkpt lat="59.064517021179199" lon="30.029582977294922">
        <time>2026-04-25T08:40:24Z</time>
      </trkpt>
      <trkpt lat="59.064538478851318" lon="30.029604434967041">
        <time>2026-04-25T08:40:27Z</time>
      </trkpt>
      <trkpt lat="59.064581394195557" lon="30.029604434967041">
        <time>2026-04-25T08:40:29Z</time>
      </trkpt>
      <trkpt lat="59.064581394195557" lon="30.029604434967041">
        <time>2026-04-25T08:40:32Z</time>
      </trkpt>
      <trkpt lat="59.064581394195557" lon="30.029582977294922">
        <time>2026-04-25T08:40:34Z</time>
      </trkpt>
      <trkpt lat="59.064602851867676" lon="30.029540061950684">
        <time>2026-04-25T08:40:37Z</time>
      </trkpt>
      <trkpt lat="59.064624309539795" lon="30.029497146606445">
        <time>2026-04-25T08:40:39Z</time>
      </trkpt>
      <trkpt lat="59.064624309539795" lon="30.029432773590088">
        <time>2026-04-25T08:40:42Z</time>
      </trkpt>
      <trkpt lat="59.064645767211914" lon="30.02936840057373">
        <time>2026-04-25T08:40:44Z</time>
      </trkpt>
      <trkpt lat="59.064688682556152" lon="30.029346942901611">
        <time>2026-04-25T08:40:47Z</time>
      </trkpt>
      <trkpt lat="59.064710140228271" lon="30.029282569885254">
        <time>2026-04-25T08:40:49Z</time>
      </trkpt>
      <trkpt lat="59.064731597900391" lon="30.029282569885254">
        <time>2026-04-25T08:40:52Z</time>
      </trkpt>
      <trkpt lat="59.064731597900391" lon="30.029282569885254">
        <time>2026-04-25T08:40:54Z</time>
      </trkpt>
      <trkpt lat="59.064731597900391" lon="30.029282569885254">
        <time>2026-04-25T08:40:57Z</time>
      </trkpt>
      <trkpt lat="59.064731597900391" lon="30.029282569885254">
        <time>2026-04-25T08:40:59Z</time>
      </trkpt>
      <trkpt lat="59.06475305557251" lon="30.029239654541016">
        <time>2026-04-25T08:41:02Z</time>
      </trkpt>
      <trkpt lat="59.064774513244629" lon="30.029218196868896">
        <time>2026-04-25T08:41:04Z</time>
      </trkpt>
      <trkpt lat="59.064795970916748" lon="30.029239654541016">
        <time>2026-04-25T08:41:07Z</time>
      </trkpt>
      <trkpt lat="59.064817428588867" lon="30.029239654541016">
        <time>2026-04-25T08:41:09Z</time>
      </trkpt>
      <trkpt lat="59.064838886260986" lon="30.029175281524658">
        <time>2026-04-25T08:41:12Z</time>
      </trkpt>
      <trkpt lat="59.064838886260986" lon="30.02913236618042">
        <time>2026-04-25T08:41:14Z</time>
      </trkpt>
      <trkpt lat="59.064817428588867" lon="30.029110908508301">
        <time>2026-04-25T08:41:17Z</time>
      </trkpt>
      <trkpt lat="59.064817428588867" lon="30.029025077819824">
        <time>2026-04-25T08:41:19Z</time>
      </trkpt>
      <trkpt lat="59.064838886260986" lon="30.028960704803467">
        <time>2026-04-25T08:41:22Z</time>
      </trkpt>
      <trkpt lat="59.064881801605225" lon="30.028917789459229">
        <time>2026-04-25T08:41:24Z</time>
      </trkpt>
      <trkpt lat="59.064903259277344" lon="30.028917789459229">
        <time>2026-04-25T08:41:27Z</time>
      </trkpt>
      <trkpt lat="59.064903259277344" lon="30.028917789459229">
        <time>2026-04-25T08:41:29Z</time>
      </trkpt>
      <trkpt lat="59.064924716949463" lon="30.02887487411499">
        <time>2026-04-25T08:41:32Z</time>
      </trkpt>
      <trkpt lat="59.064924716949463" lon="30.028810501098633">
        <time>2026-04-25T08:41:34Z</time>
      </trkpt>
      <trkpt lat="59.064924716949463" lon="30.028810501098633">
        <time>2026-04-25T08:41:37Z</time>
      </trkpt>
      <trkpt lat="59.064946174621582" lon="30.028810501098633">
        <time>2026-04-25T08:41:39Z</time>
      </trkpt>
      <trkpt lat="59.064967632293701" lon="30.028767585754395">
        <time>2026-04-25T08:41:42Z</time>
      </trkpt>
      <trkpt lat="59.06498908996582" lon="30.028746128082275">
        <time>2026-04-25T08:41:44Z</time>
      </trkpt>
      <trkpt lat="59.06498908996582" lon="30.028724670410156">
        <time>2026-04-25T08:41:47Z</time>
      </trkpt>
      <trkpt lat="59.06498908996582" lon="30.028681755065918">
        <time>2026-04-25T08:41:49Z</time>
      </trkpt>
      <trkpt lat="59.06498908996582" lon="30.028681755065918">
        <time>2026-04-25T08:41:52Z</time>
      </trkpt>
      <trkpt lat="59.064967632293701" lon="30.028746128082275">
        <time>2026-04-25T08:41:54Z</time>
      </trkpt>
      <trkpt lat="59.064946174621582" lon="30.028789043426514">
        <time>2026-04-25T08:41:57Z</time>
      </trkpt>
      <trkpt lat="59.064946174621582" lon="30.028767585754395">
        <time>2026-04-25T08:41:59Z</time>
      </trkpt>
      <trkpt lat="59.064967632293701" lon="30.028767585754395">
        <time>2026-04-25T08:42:02Z</time>
      </trkpt>
      <trkpt lat="59.064967632293701" lon="30.028767585754395">
        <time>2026-04-25T08:42:04Z</time>
      </trkpt>
      <trkpt lat="59.064967632293701" lon="30.028767585754395">
        <time>2026-04-25T08:42:07Z</time>
      </trkpt>
      <trkpt lat="59.064967632293701" lon="30.028767585754395">
        <time>2026-04-25T08:42:09Z</time>
      </trkpt>
      <trkpt lat="59.064967632293701" lon="30.028767585754395">
        <time>2026-04-25T08:42:12Z</time>
      </trkpt>
      <trkpt lat="59.064967632293701" lon="30.028767585754395">
        <time>2026-04-25T08:42:14Z</time>
      </trkpt>
      <trkpt lat="59.064967632293701" lon="30.028767585754395">
        <time>2026-04-25T08:42:17Z</time>
      </trkpt>
      <trkpt lat="59.064967632293701" lon="30.028767585754395">
        <time>2026-04-25T08:42:19Z</time>
      </trkpt>
      <trkpt lat="59.064967632293701" lon="30.028767585754395">
        <time>2026-04-25T08:42:22Z</time>
      </trkpt>
      <trkpt lat="59.06498908996582" lon="30.028767585754395">
        <time>2026-04-25T08:42:24Z</time>
      </trkpt>
      <trkpt lat="59.065032005310059" lon="30.028767585754395">
        <time>2026-04-25T08:42:27Z</time>
      </trkpt>
      <trkpt lat="59.065053462982178" lon="30.028853416442871">
        <time>2026-04-25T08:42:29Z</time>
      </trkpt>
      <trkpt lat="59.065074920654297" lon="30.02887487411499">
        <time>2026-04-25T08:42:32Z</time>
      </trkpt>
      <trkpt lat="59.065096378326416" lon="30.02887487411499">
        <time>2026-04-25T08:42:37Z</time>
      </trkpt>
      <trkpt lat="59.065117835998535" lon="30.028853416442871">
        <time>2026-04-25T08:42:39Z</time>
      </trkpt>
      <trkpt lat="59.065117835998535" lon="30.028853416442871">
        <time>2026-04-25T08:42:42Z</time>
      </trkpt>
      <trkpt lat="59.065117835998535" lon="30.028853416442871">
        <time>2026-04-25T08:42:44Z</time>
      </trkpt>
      <trkpt lat="59.065117835998535" lon="30.02887487411499">
        <time>2026-04-25T08:42:47Z</time>
      </trkpt>
      <trkpt lat="59.065160751342773" lon="30.028810501098633">
        <time>2026-04-25T08:42:49Z</time>
      </trkpt>
      <trkpt lat="59.065182209014893" lon="30.028746128082275">
        <time>2026-04-25T08:42:52Z</time>
      </trkpt>
      <trkpt lat="59.065182209014893" lon="30.028660297393799">
        <time>2026-04-25T08:42:54Z</time>
      </trkpt>
      <trkpt lat="59.065182209014893" lon="30.028617382049561">
        <time>2026-04-25T08:42:57Z</time>
      </trkpt>
      <trkpt lat="59.065182209014893" lon="30.028553009033203">
        <time>2026-04-25T08:42:59Z</time>
      </trkpt>
      <trkpt lat="59.065203666687012" lon="30.028510093688965">
        <time>2026-04-25T08:43:02Z</time>
      </trkpt>
      <trkpt lat="59.065203666687012" lon="30.028467178344727">
        <time>2026-04-25T08:43:04Z</time>
      </trkpt>
      <trkpt lat="59.065225124359131" lon="30.028424263000488">
        <time>2026-04-25T08:43:07Z</time>
      </trkpt>
      <trkpt lat="59.065225124359131" lon="30.02838134765625">
        <time>2026-04-25T08:43:09Z</time>
      </trkpt>
      <trkpt lat="59.065225124359131" lon="30.028338432312012">
        <time>2026-04-25T08:43:12Z</time>
      </trkpt>
      <trkpt lat="59.06524658203125" lon="30.028316974639893">
        <time>2026-04-25T08:43:14Z</time>
      </trkpt>
      <trkpt lat="59.06524658203125" lon="30.028316974639893">
        <time>2026-04-25T08:43:17Z</time>
      </trkpt>
      <trkpt lat="59.065225124359131" lon="30.028338432312012">
        <time>2026-04-25T08:43:19Z</time>
      </trkpt>
      <trkpt lat="59.065203666687012" lon="30.028359889984131">
        <time>2026-04-25T08:43:22Z</time>
      </trkpt>
      <trkpt lat="59.065225124359131" lon="30.028338432312012">
        <time>2026-04-25T08:43:24Z</time>
      </trkpt>
      <trkpt lat="59.065203666687012" lon="30.028338432312012">
        <time>2026-04-25T08:43:27Z</time>
      </trkpt>
      <trkpt lat="59.065203666687012" lon="30.028274059295654">
        <time>2026-04-25T08:43:29Z</time>
      </trkpt>
      <trkpt lat="59.065182209014893" lon="30.028252601623535">
        <time>2026-04-25T08:43:32Z</time>
      </trkpt>
      <trkpt lat="59.065182209014893" lon="30.028252601623535">
        <time>2026-04-25T08:43:34Z</time>
      </trkpt>
      <trkpt lat="59.065182209014893" lon="30.028252601623535">
        <time>2026-04-25T08:43:37Z</time>
      </trkpt>
      <trkpt lat="59.065268039703369" lon="30.028231143951416">
        <time>2026-04-25T08:43:39Z</time>
      </trkpt>
      <trkpt lat="59.065310955047607" lon="30.028209686279297">
        <time>2026-04-25T08:43:42Z</time>
      </trkpt>
      <trkpt lat="59.065353870391846" lon="30.028145313262939">
        <time>2026-04-25T08:43:44Z</time>
      </trkpt>
      <trkpt lat="59.065375328063965" lon="30.028145313262939">
        <time>2026-04-25T08:43:47Z</time>
      </trkpt>
      <trkpt lat="59.065375328063965" lon="30.028102397918701">
        <time>2026-04-25T08:43:49Z</time>
      </trkpt>
      <trkpt lat="59.065375328063965" lon="30.028059482574463">
        <time>2026-04-25T08:43:52Z</time>
      </trkpt>
      <trkpt lat="59.065396785736084" lon="30.027995109558105">
        <time>2026-04-25T08:43:54Z</time>
      </trkpt>
      <trkpt lat="59.065418243408203" lon="30.027952194213867">
        <time>2026-04-25T08:43:57Z</time>
      </trkpt>
      <trkpt lat="59.065482616424561" lon="30.027909278869629">
        <time>2026-04-25T08:43:59Z</time>
      </trkpt>
      <trkpt lat="59.06550407409668" lon="30.02788782119751">
        <time>2026-04-25T08:44:02Z</time>
      </trkpt>
      <trkpt lat="59.065525531768799" lon="30.027801990509033">
        <time>2026-04-25T08:44:04Z</time>
      </trkpt>
      <trkpt lat="59.065525531768799" lon="30.027801990509033">
        <time>2026-04-25T08:44:07Z</time>
      </trkpt>
      <trkpt lat="59.065525531768799" lon="30.027801990509033">
        <time>2026-04-25T08:44:09Z</time>
      </trkpt>
      <trkpt lat="59.065525531768799" lon="30.027801990509033">
        <time>2026-04-25T08:44:12Z</time>
      </trkpt>
      <trkpt lat="59.065525531768799" lon="30.027780532836914">
        <time>2026-04-25T08:44:14Z</time>
      </trkpt>
      <trkpt lat="59.065546989440918" lon="30.027694702148438">
        <time>2026-04-25T08:44:17Z</time>
      </trkpt>
      <trkpt lat="59.065589904785156" lon="30.027587413787842">
        <time>2026-04-25T08:44:19Z</time>
      </trkpt>
      <trkpt lat="59.065568447113037" lon="30.027544498443604">
        <time>2026-04-25T08:44:22Z</time>
      </trkpt>
      <trkpt lat="59.065568447113037" lon="30.027544498443604">
        <time>2026-04-25T08:44:24Z</time>
      </trkpt>
      <trkpt lat="59.065589904785156" lon="30.027587413787842">
        <time>2026-04-25T08:44:27Z</time>
      </trkpt>
      <trkpt lat="59.065589904785156" lon="30.027565956115723">
        <time>2026-04-25T08:44:29Z</time>
      </trkpt>
      <trkpt lat="59.065546989440918" lon="30.027501583099365">
        <time>2026-04-25T08:44:32Z</time>
      </trkpt>
      <trkpt lat="59.06550407409668" lon="30.027415752410889">
        <time>2026-04-25T08:44:34Z</time>
      </trkpt>
      <trkpt lat="59.065546989440918" lon="30.027458667755127">
        <time>2026-04-25T08:44:37Z</time>
      </trkpt>
      <trkpt lat="59.065568447113037" lon="30.027673244476318">
        <time>2026-04-25T08:44:39Z</time>
      </trkpt>
      <trkpt lat="59.065525531768799" lon="30.027844905853271">
        <time>2026-04-25T08:44:42Z</time>
      </trkpt>
      <trkpt lat="59.06550407409668" lon="30.02788782119751">
        <time>2026-04-25T08:44:44Z</time>
      </trkpt>
      <trkpt lat="59.065546989440918" lon="30.027801990509033">
        <time>2026-04-25T08:44:47Z</time>
      </trkpt>
      <trkpt lat="59.065611362457275" lon="30.027587413787842">
        <time>2026-04-25T08:44:49Z</time>
      </trkpt>
      <trkpt lat="59.065654277801514" lon="30.027501583099365">
        <time>2026-04-25T08:44:52Z</time>
      </trkpt>
      <trkpt lat="59.065675735473633" lon="30.02737283706665">
        <time>2026-04-25T08:44:54Z</time>
      </trkpt>
      <trkpt lat="59.065697193145752" lon="30.027287006378174">
        <time>2026-04-25T08:44:57Z</time>
      </trkpt>
      <trkpt lat="59.065718650817871" lon="30.027244091033936">
        <time>2026-04-25T08:44:59Z</time>
      </trkpt>
      <trkpt lat="59.06574010848999" lon="30.027222633361816">
        <time>2026-04-25T08:45:02Z</time>
      </trkpt>
      <trkpt lat="59.065783023834229" lon="30.02713680267334">
        <time>2026-04-25T08:45:04Z</time>
      </trkpt>
      <trkpt lat="59.065804481506348" lon="30.027072429656982">
        <time>2026-04-25T08:45:07Z</time>
      </trkpt>
      <trkpt lat="59.065804481506348" lon="30.027093887329102">
        <time>2026-04-25T08:45:09Z</time>
      </trkpt>
      <trkpt lat="59.065783023834229" lon="30.027093887329102">
        <time>2026-04-25T08:45:12Z</time>
      </trkpt>
      <trkpt lat="59.065825939178467" lon="30.027093887329102">
        <time>2026-04-25T08:45:14Z</time>
      </trkpt>
      <trkpt lat="59.065825939178467" lon="30.027093887329102">
        <time>2026-04-25T08:45:17Z</time>
      </trkpt>
      <trkpt lat="59.065868854522705" lon="30.027093887329102">
        <time>2026-04-25T08:45:19Z</time>
      </trkpt>
      <trkpt lat="59.065890312194824" lon="30.027072429656982">
        <time>2026-04-25T08:45:22Z</time>
      </trkpt>
      <trkpt lat="59.065954685211182" lon="30.027008056640625">
        <time>2026-04-25T08:45:24Z</time>
      </trkpt>
      <trkpt lat="59.065976142883301" lon="30.026986598968506">
        <time>2026-04-25T08:45:27Z</time>
      </trkpt>
      <trkpt lat="59.06599760055542" lon="30.026922225952148">
        <time>2026-04-25T08:45:29Z</time>
      </trkpt>
      <trkpt lat="59.06599760055542" lon="30.026922225952148">
        <time>2026-04-25T08:45:32Z</time>
      </trkpt>
      <trkpt lat="59.066019058227539" lon="30.02687931060791">
        <time>2026-04-25T08:45:34Z</time>
      </trkpt>
      <trkpt lat="59.066040515899658" lon="30.026814937591553">
        <time>2026-04-25T08:45:37Z</time>
      </trkpt>
      <trkpt lat="59.066040515899658" lon="30.026750564575195">
        <time>2026-04-25T08:45:39Z</time>
      </trkpt>
      <trkpt lat="59.066040515899658" lon="30.026750564575195">
        <time>2026-04-25T08:45:42Z</time>
      </trkpt>
      <trkpt lat="59.066040515899658" lon="30.026750564575195">
        <time>2026-04-25T08:45:44Z</time>
      </trkpt>
      <trkpt lat="59.066040515899658" lon="30.026836395263672">
        <time>2026-04-25T08:45:47Z</time>
      </trkpt>
      <trkpt lat="59.065976142883301" lon="30.027008056640625">
        <time>2026-04-25T08:45:49Z</time>
      </trkpt>
      <trkpt lat="59.065911769866943" lon="30.027093887329102">
        <time>2026-04-25T08:45:52Z</time>
      </trkpt>
      <trkpt lat="59.065933227539062" lon="30.027050971984863">
        <time>2026-04-25T08:45:54Z</time>
      </trkpt>
      <trkpt lat="59.066019058227539" lon="30.026965141296387">
        <time>2026-04-25T08:45:57Z</time>
      </trkpt>
      <trkpt lat="59.066083431243896" lon="30.026793479919434">
        <time>2026-04-25T08:45:59Z</time>
      </trkpt>
      <trkpt lat="59.066147804260254" lon="30.026729106903076">
        <time>2026-04-25T08:46:02Z</time>
      </trkpt>
      <trkpt lat="59.066190719604492" lon="30.0266432762146">
        <time>2026-04-25T08:46:04Z</time>
      </trkpt>
      <trkpt lat="59.066190719604492" lon="30.026600360870361">
        <time>2026-04-25T08:46:07Z</time>
      </trkpt>
      <trkpt lat="59.066190719604492" lon="30.026578903198242">
        <time>2026-04-25T08:46:09Z</time>
      </trkpt>
      <trkpt lat="59.066190719604492" lon="30.026578903198242">
        <time>2026-04-25T08:46:12Z</time>
      </trkpt>
      <trkpt lat="59.066212177276611" lon="30.026535987854004">
        <time>2026-04-25T08:46:14Z</time>
      </trkpt>
      <trkpt lat="59.06623363494873" lon="30.026493072509766">
        <time>2026-04-25T08:46:17Z</time>
      </trkpt>
      <trkpt lat="59.066276550292969" lon="30.02638578414917">
        <time>2026-04-25T08:46:19Z</time>
      </trkpt>
      <trkpt lat="59.066276550292969" lon="30.026321411132813">
        <time>2026-04-25T08:46:22Z</time>
      </trkpt>
      <trkpt lat="59.066276550292969" lon="30.026342868804932">
        <time>2026-04-25T08:46:24Z</time>
      </trkpt>
      <trkpt lat="59.066276550292969" lon="30.026342868804932">
        <time>2026-04-25T08:46:27Z</time>
      </trkpt>
      <trkpt lat="59.066276550292969" lon="30.026299953460693">
        <time>2026-04-25T08:46:29Z</time>
      </trkpt>
      <trkpt lat="59.066276550292969" lon="30.026299953460693">
        <time>2026-04-25T08:46:32Z</time>
      </trkpt>
      <trkpt lat="59.066276550292969" lon="30.026257038116455">
        <time>2026-04-25T08:46:34Z</time>
      </trkpt>
      <trkpt lat="59.066276550292969" lon="30.026257038116455">
        <time>2026-04-25T08:46:37Z</time>
      </trkpt>
      <trkpt lat="59.066298007965088" lon="30.026257038116455">
        <time>2026-04-25T08:46:39Z</time>
      </trkpt>
      <trkpt lat="59.066319465637207" lon="30.026257038116455">
        <time>2026-04-25T08:46:42Z</time>
      </trkpt>
      <trkpt lat="59.066362380981445" lon="30.026192665100098">
        <time>2026-04-25T08:46:44Z</time>
      </trkpt>
      <trkpt lat="59.066362380981445" lon="30.026171207427979">
        <time>2026-04-25T08:46:47Z</time>
      </trkpt>
      <trkpt lat="59.066405296325684" lon="30.026149749755859">
        <time>2026-04-25T08:46:49Z</time>
      </trkpt>
      <trkpt lat="59.066426753997803" lon="30.026171207427979">
        <time>2026-04-25T08:46:52Z</time>
      </trkpt>
      <trkpt lat="59.066448211669922" lon="30.026192665100098">
        <time>2026-04-25T08:46:54Z</time>
      </trkpt>
      <trkpt lat="59.066448211669922" lon="30.026171207427979">
        <time>2026-04-25T08:46:57Z</time>
      </trkpt>
      <trkpt lat="59.066469669342041" lon="30.026106834411621">
        <time>2026-04-25T08:46:59Z</time>
      </trkpt>
      <trkpt lat="59.06649112701416" lon="30.026085376739502">
        <time>2026-04-25T08:47:02Z</time>
      </trkpt>
      <trkpt lat="59.066534042358398" lon="30.026021003723145">
        <time>2026-04-25T08:47:04Z</time>
      </trkpt>
      <trkpt lat="59.066534042358398" lon="30.025956630706787">
        <time>2026-04-25T08:47:07Z</time>
      </trkpt>
      <trkpt lat="59.066555500030518" lon="30.025913715362549">
        <time>2026-04-25T08:47:09Z</time>
      </trkpt>
      <trkpt lat="59.066555500030518" lon="30.025913715362549">
        <time>2026-04-25T08:47:12Z</time>
      </trkpt>
      <trkpt lat="59.066598415374756" lon="30.025935173034668">
        <time>2026-04-25T08:47:14Z</time>
      </trkpt>
      <trkpt lat="59.066619873046875" lon="30.02589225769043">
        <time>2026-04-25T08:47:17Z</time>
      </trkpt>
      <trkpt lat="59.066662788391113" lon="30.025870800018311">
        <time>2026-04-25T08:47:19Z</time>
      </trkpt>
      <trkpt lat="59.066662788391113" lon="30.025849342346191">
        <time>2026-04-25T08:47:22Z</time>
      </trkpt>
      <trkpt lat="59.066662788391113" lon="30.025849342346191">
        <time>2026-04-25T08:47:24Z</time>
      </trkpt>
      <trkpt lat="59.066662788391113" lon="30.025849342346191">
        <time>2026-04-25T08:47:27Z</time>
      </trkpt>
      <trkpt lat="59.066662788391113" lon="30.025849342346191">
        <time>2026-04-25T08:47:29Z</time>
      </trkpt>
      <trkpt lat="59.066662788391113" lon="30.025827884674072">
        <time>2026-04-25T08:47:32Z</time>
      </trkpt>
      <trkpt lat="59.066662788391113" lon="30.025784969329834">
        <time>2026-04-25T08:47:34Z</time>
      </trkpt>
      <trkpt lat="59.066662788391113" lon="30.025806427001953">
        <time>2026-04-25T08:47:37Z</time>
      </trkpt>
      <trkpt lat="59.066641330718994" lon="30.025913715362549">
        <time>2026-04-25T08:47:39Z</time>
      </trkpt>
      <trkpt lat="59.066598415374756" lon="30.025978088378906">
        <time>2026-04-25T08:47:42Z</time>
      </trkpt>
      <trkpt lat="59.066619873046875" lon="30.025935173034668">
        <time>2026-04-25T08:47:47Z</time>
      </trkpt>
      <trkpt lat="59.066684246063232" lon="30.025806427001953">
        <time>2026-04-25T08:47:49Z</time>
      </trkpt>
      <trkpt lat="59.066727161407471" lon="30.025699138641357">
        <time>2026-04-25T08:47:52Z</time>
      </trkpt>
      <trkpt lat="59.066791534423828" lon="30.025570392608643">
        <time>2026-04-25T08:47:54Z</time>
      </trkpt>
      <trkpt lat="59.066812992095947" lon="30.025506019592285">
        <time>2026-04-25T08:47:57Z</time>
      </trkpt>
      <trkpt lat="59.066812992095947" lon="30.025420188903809">
        <time>2026-04-25T08:47:59Z</time>
      </trkpt>
      <trkpt lat="59.066812992095947" lon="30.025420188903809">
        <time>2026-04-25T08:48:02Z</time>
      </trkpt>
      <trkpt lat="59.066812992095947" lon="30.025527477264404">
        <time>2026-04-25T08:48:04Z</time>
      </trkpt>
      <trkpt lat="59.066812992095947" lon="30.025506019592285">
        <time>2026-04-25T08:48:07Z</time>
      </trkpt>
      <trkpt lat="59.066834449768066" lon="30.025420188903809">
        <time>2026-04-25T08:48:09Z</time>
      </trkpt>
      <trkpt lat="59.066834449768066" lon="30.025398731231689">
        <time>2026-04-25T08:48:12Z</time>
      </trkpt>
      <trkpt lat="59.066877365112305" lon="30.025420188903809">
        <time>2026-04-25T08:48:14Z</time>
      </trkpt>
      <trkpt lat="59.066898822784424" lon="30.025398731231689">
        <time>2026-04-25T08:48:17Z</time>
      </trkpt>
      <trkpt lat="59.066941738128662" lon="30.025355815887451">
        <time>2026-04-25T08:48:19Z</time>
      </trkpt>
      <trkpt lat="59.066941738128662" lon="30.025355815887451">
        <time>2026-04-25T08:48:22Z</time>
      </trkpt>
      <trkpt lat="59.066920280456543" lon="30.025291442871094">
        <time>2026-04-25T08:48:24Z</time>
      </trkpt>
      <trkpt lat="59.066920280456543" lon="30.025269985198975">
        <time>2026-04-25T08:48:27Z</time>
      </trkpt>
      <trkpt lat="59.066920280456543" lon="30.025269985198975">
        <time>2026-04-25T08:48:29Z</time>
      </trkpt>
      <trkpt lat="59.066920280456543" lon="30.025269985198975">
        <time>2026-04-25T08:48:32Z</time>
      </trkpt>
      <trkpt lat="59.066920280456543" lon="30.025269985198975">
        <time>2026-04-25T08:48:34Z</time>
      </trkpt>
      <trkpt lat="59.066920280456543" lon="30.025269985198975">
        <time>2026-04-25T08:48:37Z</time>
      </trkpt>
      <trkpt lat="59.066941738128662" lon="30.025184154510498">
        <time>2026-04-25T08:48:39Z</time>
      </trkpt>
      <trkpt lat="59.066963195800781" lon="30.025119781494141">
        <time>2026-04-25T08:48:42Z</time>
      </trkpt>
      <trkpt lat="59.0669846534729" lon="30.025055408477783">
        <time>2026-04-25T08:48:44Z</time>
      </trkpt>
      <trkpt lat="59.0669846534729" lon="30.025055408477783">
        <time>2026-04-25T08:48:47Z</time>
      </trkpt>
      <trkpt lat="59.0669846534729" lon="30.025055408477783">
        <time>2026-04-25T08:48:49Z</time>
      </trkpt>
      <trkpt lat="59.0669846534729" lon="30.025033950805664">
        <time>2026-04-25T08:48:52Z</time>
      </trkpt>
      <trkpt lat="59.067027568817139" lon="30.024969577789307">
        <time>2026-04-25T08:48:54Z</time>
      </trkpt>
      <trkpt lat="59.067027568817139" lon="30.024969577789307">
        <time>2026-04-25T08:48:57Z</time>
      </trkpt>
      <trkpt lat="59.067027568817139" lon="30.024905204772949">
        <time>2026-04-25T08:48:59Z</time>
      </trkpt>
      <trkpt lat="59.067049026489258" lon="30.02488374710083">
        <time>2026-04-25T08:49:02Z</time>
      </trkpt>
      <trkpt lat="59.067049026489258" lon="30.024862289428711">
        <time>2026-04-25T08:49:04Z</time>
      </trkpt>
      <trkpt lat="59.067049026489258" lon="30.024840831756592">
        <time>2026-04-25T08:49:07Z</time>
      </trkpt>
      <trkpt lat="59.067049026489258" lon="30.024840831756592">
        <time>2026-04-25T08:49:09Z</time>
      </trkpt>
      <trkpt lat="59.067070484161377" lon="30.024797916412354">
        <time>2026-04-25T08:49:12Z</time>
      </trkpt>
      <trkpt lat="59.067113399505615" lon="30.024755001068115">
        <time>2026-04-25T08:49:14Z</time>
      </trkpt>
      <trkpt lat="59.067113399505615" lon="30.024733543395996">
        <time>2026-04-25T08:49:17Z</time>
      </trkpt>
      <trkpt lat="59.067134857177734" lon="30.024733543395996">
        <time>2026-04-25T08:49:19Z</time>
      </trkpt>
      <trkpt lat="59.067134857177734" lon="30.024733543395996">
        <time>2026-04-25T08:49:22Z</time>
      </trkpt>
      <trkpt lat="59.067134857177734" lon="30.024733543395996">
        <time>2026-04-25T08:49:24Z</time>
      </trkpt>
      <trkpt lat="59.067134857177734" lon="30.024733543395996">
        <time>2026-04-25T08:49:27Z</time>
      </trkpt>
      <trkpt lat="59.067156314849854" lon="30.024712085723877">
        <time>2026-04-25T08:49:29Z</time>
      </trkpt>
      <trkpt lat="59.067156314849854" lon="30.024712085723877">
        <time>2026-04-25T08:49:32Z</time>
      </trkpt>
      <trkpt lat="59.067156314849854" lon="30.024712085723877">
        <time>2026-04-25T08:49:34Z</time>
      </trkpt>
      <trkpt lat="59.067199230194092" lon="30.024669170379639">
        <time>2026-04-25T08:49:37Z</time>
      </trkpt>
      <trkpt lat="59.06724214553833" lon="30.0246262550354">
        <time>2026-04-25T08:49:39Z</time>
      </trkpt>
      <trkpt lat="59.067285060882568" lon="30.024604797363281">
        <time>2026-04-25T08:49:42Z</time>
      </trkpt>
      <trkpt lat="59.067327976226807" lon="30.024604797363281">
        <time>2026-04-25T08:49:44Z</time>
      </trkpt>
      <trkpt lat="59.067327976226807" lon="30.024604797363281">
        <time>2026-04-25T08:49:47Z</time>
      </trkpt>
      <trkpt lat="59.067370891571045" lon="30.024561882019043">
        <time>2026-04-25T08:49:49Z</time>
      </trkpt>
      <trkpt lat="59.067392349243164" lon="30.024561882019043">
        <time>2026-04-25T08:49:52Z</time>
      </trkpt>
      <trkpt lat="59.067392349243164" lon="30.024561882019043">
        <time>2026-04-25T08:49:54Z</time>
      </trkpt>
      <trkpt lat="59.067413806915283" lon="30.024561882019043">
        <time>2026-04-25T08:49:57Z</time>
      </trkpt>
      <trkpt lat="59.067435264587402" lon="30.024540424346924">
        <time>2026-04-25T08:49:59Z</time>
      </trkpt>
      <trkpt lat="59.067456722259521" lon="30.024561882019043">
        <time>2026-04-25T08:50:02Z</time>
      </trkpt>
      <trkpt lat="59.06749963760376" lon="30.024518966674805">
        <time>2026-04-25T08:50:04Z</time>
      </trkpt>
      <trkpt lat="59.06749963760376" lon="30.024540424346924">
        <time>2026-04-25T08:50:07Z</time>
      </trkpt>
      <trkpt lat="59.067521095275879" lon="30.024497509002686">
        <time>2026-04-25T08:50:09Z</time>
      </trkpt>
      <trkpt lat="59.067521095275879" lon="30.024497509002686">
        <time>2026-04-25T08:50:12Z</time>
      </trkpt>
      <trkpt lat="59.067521095275879" lon="30.024454593658447">
        <time>2026-04-25T08:50:14Z</time>
      </trkpt>
      <trkpt lat="59.067542552947998" lon="30.024476051330566">
        <time>2026-04-25T08:50:17Z</time>
      </trkpt>
      <trkpt lat="59.067542552947998" lon="30.024476051330566">
        <time>2026-04-25T08:50:19Z</time>
      </trkpt>
      <trkpt lat="59.067585468292236" lon="30.024497509002686">
        <time>2026-04-25T08:50:22Z</time>
      </trkpt>
      <trkpt lat="59.067628383636475" lon="30.024454593658447">
        <time>2026-04-25T08:50:24Z</time>
      </trkpt>
      <trkpt lat="59.067628383636475" lon="30.024454593658447">
        <time>2026-04-25T08:50:27Z</time>
      </trkpt>
      <trkpt lat="59.067585468292236" lon="30.024518966674805">
        <time>2026-04-25T08:50:29Z</time>
      </trkpt>
      <trkpt lat="59.067542552947998" lon="30.024561882019043">
        <time>2026-04-25T08:50:32Z</time>
      </trkpt>
      <trkpt lat="59.067564010620117" lon="30.024518966674805">
        <time>2026-04-25T08:50:34Z</time>
      </trkpt>
      <trkpt lat="59.067606925964355" lon="30.024518966674805">
        <time>2026-04-25T08:50:37Z</time>
      </trkpt>
      <trkpt lat="59.067671298980713" lon="30.024433135986328">
        <time>2026-04-25T08:50:39Z</time>
      </trkpt>
      <trkpt lat="59.067692756652832" lon="30.02439022064209">
        <time>2026-04-25T08:50:42Z</time>
      </trkpt>
      <trkpt lat="59.067714214324951" lon="30.024304389953613">
        <time>2026-04-25T08:50:44Z</time>
      </trkpt>
      <trkpt lat="59.06773567199707" lon="30.024282932281494">
        <time>2026-04-25T08:50:47Z</time>
      </trkpt>
      <trkpt lat="59.06773567199707" lon="30.024282932281494">
        <time>2026-04-25T08:50:49Z</time>
      </trkpt>
      <trkpt lat="59.06773567199707" lon="30.024240016937256">
        <time>2026-04-25T08:50:52Z</time>
      </trkpt>
      <trkpt lat="59.06773567199707" lon="30.024175643920898">
        <time>2026-04-25T08:50:54Z</time>
      </trkpt>
      <trkpt lat="59.067757129669189" lon="30.024154186248779">
        <time>2026-04-25T08:50:57Z</time>
      </trkpt>
      <trkpt lat="59.067757129669189" lon="30.024154186248779">
        <time>2026-04-25T08:50:59Z</time>
      </trkpt>
      <trkpt lat="59.067778587341309" lon="30.024111270904541">
        <time>2026-04-25T08:51:02Z</time>
      </trkpt>
      <trkpt lat="59.067800045013428" lon="30.024046897888184">
        <time>2026-04-25T08:51:04Z</time>
      </trkpt>
      <trkpt lat="59.067821502685547" lon="30.024003982543945">
        <time>2026-04-25T08:51:07Z</time>
      </trkpt>
      <trkpt lat="59.067821502685547" lon="30.024025440216064">
        <time>2026-04-25T08:51:09Z</time>
      </trkpt>
      <trkpt lat="59.067842960357666" lon="30.024025440216064">
        <time>2026-04-25T08:51:12Z</time>
      </trkpt>
      <trkpt lat="59.067864418029785" lon="30.023939609527588">
        <time>2026-04-25T08:51:14Z</time>
      </trkpt>
      <trkpt lat="59.067864418029785" lon="30.02387523651123">
        <time>2026-04-25T08:51:17Z</time>
      </trkpt>
      <trkpt lat="59.067885875701904" lon="30.02387523651123">
        <time>2026-04-25T08:51:19Z</time>
      </trkpt>
      <trkpt lat="59.067885875701904" lon="30.02389669418335">
        <time>2026-04-25T08:51:22Z</time>
      </trkpt>
      <trkpt lat="59.067842960357666" lon="30.024003982543945">
        <time>2026-04-25T08:51:24Z</time>
      </trkpt>
      <trkpt lat="59.067800045013428" lon="30.024025440216064">
        <time>2026-04-25T08:51:27Z</time>
      </trkpt>
      <trkpt lat="59.067800045013428" lon="30.024068355560303">
        <time>2026-04-25T08:51:29Z</time>
      </trkpt>
      <trkpt lat="59.067821502685547" lon="30.024046897888184">
        <time>2026-04-25T08:51:32Z</time>
      </trkpt>
      <trkpt lat="59.067864418029785" lon="30.023961067199707">
        <time>2026-04-25T08:51:34Z</time>
      </trkpt>
      <trkpt lat="59.067928791046143" lon="30.02389669418335">
        <time>2026-04-25T08:51:37Z</time>
      </trkpt>
      <trkpt lat="59.067950248718262" lon="30.023746490478516">
        <time>2026-04-25T08:51:39Z</time>
      </trkpt>
      <trkpt lat="59.067971706390381" lon="30.023789405822754">
        <time>2026-04-25T08:51:42Z</time>
      </trkpt>
      <trkpt lat="59.067907333374023" lon="30.023918151855469">
        <time>2026-04-25T08:51:44Z</time>
      </trkpt>
      <trkpt lat="59.067821502685547" lon="30.023982524871826">
        <time>2026-04-25T08:51:47Z</time>
      </trkpt>
      <trkpt lat="59.067714214324951" lon="30.024046897888184">
        <time>2026-04-25T08:51:49Z</time>
      </trkpt>
      <trkpt lat="59.067757129669189" lon="30.024025440216064">
        <time>2026-04-25T08:51:52Z</time>
      </trkpt>
      <trkpt lat="59.067800045013428" lon="30.024068355560303">
        <time>2026-04-25T08:51:54Z</time>
      </trkpt>
      <trkpt lat="59.067757129669189" lon="30.02413272857666">
        <time>2026-04-25T08:51:57Z</time>
      </trkpt>
      <trkpt lat="59.067714214324951" lon="30.024197101593018">
        <time>2026-04-25T08:51:59Z</time>
      </trkpt>
      <trkpt lat="59.067757129669189" lon="30.024154186248779">
        <time>2026-04-25T08:52:02Z</time>
      </trkpt>
      <trkpt lat="59.067842960357666" lon="30.024003982543945">
        <time>2026-04-25T08:52:04Z</time>
      </trkpt>
      <trkpt lat="59.067907333374023" lon="30.02387523651123">
        <time>2026-04-25T08:52:07Z</time>
      </trkpt>
      <trkpt lat="59.067971706390381" lon="30.023660659790039">
        <time>2026-04-25T08:52:09Z</time>
      </trkpt>
      <trkpt lat="59.067971706390381" lon="30.023574829101563">
        <time>2026-04-25T08:52:12Z</time>
      </trkpt>
      <trkpt lat="59.067971706390381" lon="30.023596286773682">
        <time>2026-04-25T08:52:14Z</time>
      </trkpt>
      <trkpt lat="59.067971706390381" lon="30.023703575134277">
        <time>2026-04-25T08:52:17Z</time>
      </trkpt>
      <trkpt lat="59.067971706390381" lon="30.023853778839111">
        <time>2026-04-25T08:52:19Z</time>
      </trkpt>
      <trkpt lat="59.067907333374023" lon="30.023918151855469">
        <time>2026-04-25T08:52:22Z</time>
      </trkpt>
      <trkpt lat="59.067778587341309" lon="30.024003982543945">
        <time>2026-04-25T08:52:24Z</time>
      </trkpt>
      <trkpt lat="59.067714214324951" lon="30.024046897888184">
        <time>2026-04-25T08:52:27Z</time>
      </trkpt>
      <trkpt lat="59.067757129669189" lon="30.024025440216064">
        <time>2026-04-25T08:52:29Z</time>
      </trkpt>
      <trkpt lat="59.067821502685547" lon="30.023982524871826">
        <time>2026-04-25T08:52:32Z</time>
      </trkpt>
      <trkpt lat="59.067928791046143" lon="30.02389669418335">
        <time>2026-04-25T08:52:34Z</time>
      </trkpt>
      <trkpt lat="59.0679931640625" lon="30.023832321166992">
        <time>2026-04-25T08:52:37Z</time>
      </trkpt>
      <trkpt lat="59.068014621734619" lon="30.023617744445801">
        <time>2026-04-25T08:52:39Z</time>
      </trkpt>
      <trkpt lat="59.068036079406738" lon="30.023488998413086">
        <time>2026-04-25T08:52:42Z</time>
      </trkpt>
      <trkpt lat="59.068036079406738" lon="30.023446083068848">
        <time>2026-04-25T08:52:44Z</time>
      </trkpt>
      <trkpt lat="59.068014621734619" lon="30.02363920211792">
        <time>2026-04-25T08:52:49Z</time>
      </trkpt>
      <trkpt lat="59.0679931640625" lon="30.023789405822754">
        <time>2026-04-25T08:52:52Z</time>
      </trkpt>
      <trkpt lat="59.067907333374023" lon="30.023918151855469">
        <time>2026-04-25T08:52:54Z</time>
      </trkpt>
      <trkpt lat="59.067864418029785" lon="30.023961067199707">
        <time>2026-04-25T08:52:57Z</time>
      </trkpt>
      <trkpt lat="59.067971706390381" lon="30.02389669418335">
        <time>2026-04-25T08:52:59Z</time>
      </trkpt>
      <trkpt lat="59.068014621734619" lon="30.023810863494873">
        <time>2026-04-25T08:53:02Z</time>
      </trkpt>
      <trkpt lat="59.068057537078857" lon="30.023574829101563">
        <time>2026-04-25T08:53:04Z</time>
      </trkpt>
      <trkpt lat="59.068036079406738" lon="30.023424625396729">
        <time>2026-04-25T08:53:07Z</time>
      </trkpt>
      <trkpt lat="59.067971706390381" lon="30.023317337036133">
        <time>2026-04-25T08:53:09Z</time>
      </trkpt>
      <trkpt lat="59.068036079406738" lon="30.023317337036133">
        <time>2026-04-25T08:53:12Z</time>
      </trkpt>
      <trkpt lat="59.068078994750977" lon="30.023467540740967">
        <time>2026-04-25T08:53:14Z</time>
      </trkpt>
      <trkpt lat="59.068036079406738" lon="30.023660659790039">
        <time>2026-04-25T08:53:17Z</time>
      </trkpt>
      <trkpt lat="59.067971706390381" lon="30.023853778839111">
        <time>2026-04-25T08:53:19Z</time>
      </trkpt>
      <trkpt lat="59.067885875701904" lon="30.023918151855469">
        <time>2026-04-25T08:53:22Z</time>
      </trkpt>
      <trkpt lat="59.067757129669189" lon="30.024003982543945">
        <time>2026-04-25T08:53:24Z</time>
      </trkpt>
      <trkpt lat="59.06773567199707" lon="30.024025440216064">
        <time>2026-04-25T08:53:27Z</time>
      </trkpt>
      <trkpt lat="59.067821502685547" lon="30.023982524871826">
        <time>2026-04-25T08:53:29Z</time>
      </trkpt>
      <trkpt lat="59.067928791046143" lon="30.023918151855469">
        <time>2026-04-25T08:53:32Z</time>
      </trkpt>
      <trkpt lat="59.068036079406738" lon="30.023789405822754">
        <time>2026-04-25T08:53:34Z</time>
      </trkpt>
      <trkpt lat="59.068057537078857" lon="30.02363920211792">
        <time>2026-04-25T08:53:37Z</time>
      </trkpt>
      <trkpt lat="59.068014621734619" lon="30.023488998413086">
        <time>2026-04-25T08:53:39Z</time>
      </trkpt>
      <trkpt lat="59.068014621734619" lon="30.023467540740967">
        <time>2026-04-25T08:53:42Z</time>
      </trkpt>
      <trkpt lat="59.068014621734619" lon="30.023488998413086">
        <time>2026-04-25T08:53:44Z</time>
      </trkpt>
      <trkpt lat="59.068036079406738" lon="30.023510456085205">
        <time>2026-04-25T08:53:47Z</time>
      </trkpt>
      <trkpt lat="59.068057537078857" lon="30.023553371429443">
        <time>2026-04-25T08:53:49Z</time>
      </trkpt>
      <trkpt lat="59.068078994750977" lon="30.023531913757324">
        <time>2026-04-25T08:53:52Z</time>
      </trkpt>
      <trkpt lat="59.068100452423096" lon="30.023531913757324">
        <time>2026-04-25T08:53:54Z</time>
      </trkpt>
      <trkpt lat="59.068078994750977" lon="30.023553371429443">
        <time>2026-04-25T08:53:57Z</time>
      </trkpt>
      <trkpt lat="59.068078994750977" lon="30.023574829101563">
        <time>2026-04-25T08:53:59Z</time>
      </trkpt>
      <trkpt lat="59.068057537078857" lon="30.023574829101563">
        <time>2026-04-25T08:54:02Z</time>
      </trkpt>
      <trkpt lat="59.068036079406738" lon="30.023574829101563">
        <time>2026-04-25T08:54:04Z</time>
      </trkpt>
      <trkpt lat="59.068014621734619" lon="30.023617744445801">
        <time>2026-04-25T08:54:07Z</time>
      </trkpt>
      <trkpt lat="59.068014621734619" lon="30.02363920211792">
        <time>2026-04-25T08:54:09Z</time>
      </trkpt>
      <trkpt lat="59.068014621734619" lon="30.023617744445801">
        <time>2026-04-25T08:54:12Z</time>
      </trkpt>
      <trkpt lat="59.068036079406738" lon="30.023574829101563">
        <time>2026-04-25T08:54:14Z</time>
      </trkpt>
      <trkpt lat="59.068036079406738" lon="30.023510456085205">
        <time>2026-04-25T08:54:17Z</time>
      </trkpt>
      <trkpt lat="59.068057537078857" lon="30.023424625396729">
        <time>2026-04-25T08:54:19Z</time>
      </trkpt>
      <trkpt lat="59.068078994750977" lon="30.023338794708252">
        <time>2026-04-25T08:54:22Z</time>
      </trkpt>
      <trkpt lat="59.068078994750977" lon="30.023274421691895">
        <time>2026-04-25T08:54:24Z</time>
      </trkpt>
      <trkpt lat="59.068078994750977" lon="30.023274421691895">
        <time>2026-04-25T08:54:27Z</time>
      </trkpt>
      <trkpt lat="59.068100452423096" lon="30.023252964019775">
        <time>2026-04-25T08:54:29Z</time>
      </trkpt>
      <trkpt lat="59.068100452423096" lon="30.023231506347656">
        <time>2026-04-25T08:54:32Z</time>
      </trkpt>
      <trkpt lat="59.068100452423096" lon="30.023231506347656">
        <time>2026-04-25T08:54:34Z</time>
      </trkpt>
      <trkpt lat="59.068100452423096" lon="30.023231506347656">
        <time>2026-04-25T08:54:37Z</time>
      </trkpt>
      <trkpt lat="59.068100452423096" lon="30.023231506347656">
        <time>2026-04-25T08:54:39Z</time>
      </trkpt>
      <trkpt lat="59.068100452423096" lon="30.023231506347656">
        <time>2026-04-25T08:54:42Z</time>
      </trkpt>
      <trkpt lat="59.068100452423096" lon="30.023231506347656">
        <time>2026-04-25T08:54:44Z</time>
      </trkpt>
      <trkpt lat="59.068100452423096" lon="30.023231506347656">
        <time>2026-04-25T08:54:47Z</time>
      </trkpt>
      <trkpt lat="59.068100452423096" lon="30.023231506347656">
        <time>2026-04-25T08:54:49Z</time>
      </trkpt>
      <trkpt lat="59.068100452423096" lon="30.023231506347656">
        <time>2026-04-25T08:54:52Z</time>
      </trkpt>
      <trkpt lat="59.068100452423096" lon="30.023231506347656">
        <time>2026-04-25T08:54:54Z</time>
      </trkpt>
      <trkpt lat="59.068100452423096" lon="30.023231506347656">
        <time>2026-04-25T08:54:57Z</time>
      </trkpt>
      <trkpt lat="59.068100452423096" lon="30.023231506347656">
        <time>2026-04-25T08:54:59Z</time>
      </trkpt>
      <trkpt lat="59.068100452423096" lon="30.023231506347656">
        <time>2026-04-25T08:55:02Z</time>
      </trkpt>
      <trkpt lat="59.068100452423096" lon="30.023231506347656">
        <time>2026-04-25T08:55:04Z</time>
      </trkpt>
      <trkpt lat="59.068100452423096" lon="30.023231506347656">
        <time>2026-04-25T08:55:07Z</time>
      </trkpt>
      <trkpt lat="59.068121910095215" lon="30.023167133331299">
        <time>2026-04-25T08:55:09Z</time>
      </trkpt>
      <trkpt lat="59.068121910095215" lon="30.02314567565918">
        <time>2026-04-25T08:55:12Z</time>
      </trkpt>
      <trkpt lat="59.068143367767334" lon="30.02314567565918">
        <time>2026-04-25T08:55:14Z</time>
      </trkpt>
      <trkpt lat="59.068143367767334" lon="30.023102760314941">
        <time>2026-04-25T08:55:17Z</time>
      </trkpt>
      <trkpt lat="59.068164825439453" lon="30.023038387298584">
        <time>2026-04-25T08:55:19Z</time>
      </trkpt>
      <trkpt lat="59.068164825439453" lon="30.023016929626465">
        <time>2026-04-25T08:55:22Z</time>
      </trkpt>
      <trkpt lat="59.068186283111572" lon="30.022974014282227">
        <time>2026-04-25T08:55:24Z</time>
      </trkpt>
      <trkpt lat="59.068186283111572" lon="30.022952556610107">
        <time>2026-04-25T08:55:27Z</time>
      </trkpt>
      <trkpt lat="59.068207740783691" lon="30.022952556610107">
        <time>2026-04-25T08:55:29Z</time>
      </trkpt>
      <trkpt lat="59.068207740783691" lon="30.02288818359375">
        <time>2026-04-25T08:55:32Z</time>
      </trkpt>
      <trkpt lat="59.068207740783691" lon="30.022823810577393">
        <time>2026-04-25T08:55:34Z</time>
      </trkpt>
      <trkpt lat="59.068207740783691" lon="30.022823810577393">
        <time>2026-04-25T08:55:37Z</time>
      </trkpt>
      <trkpt lat="59.068229198455811" lon="30.022845268249512">
        <time>2026-04-25T08:55:39Z</time>
      </trkpt>
      <trkpt lat="59.068229198455811" lon="30.022802352905273">
        <time>2026-04-25T08:55:42Z</time>
      </trkpt>
      <trkpt lat="59.068229198455811" lon="30.022759437561035">
        <time>2026-04-25T08:55:44Z</time>
      </trkpt>
      <trkpt lat="59.06825065612793" lon="30.022673606872559">
        <time>2026-04-25T08:55:49Z</time>
      </trkpt>
      <trkpt lat="59.06825065612793" lon="30.02263069152832">
        <time>2026-04-25T08:55:52Z</time>
      </trkpt>
      <trkpt lat="59.068293571472168" lon="30.022587776184082">
        <time>2026-04-25T08:55:54Z</time>
      </trkpt>
      <trkpt lat="59.068293571472168" lon="30.022566318511963">
        <time>2026-04-25T08:55:57Z</time>
      </trkpt>
      <trkpt lat="59.068293571472168" lon="30.022566318511963">
        <time>2026-04-25T08:55:59Z</time>
      </trkpt>
      <trkpt lat="59.068293571472168" lon="30.022566318511963">
        <time>2026-04-25T08:56:02Z</time>
      </trkpt>
      <trkpt lat="59.068293571472168" lon="30.022566318511963">
        <time>2026-04-25T08:56:04Z</time>
      </trkpt>
      <trkpt lat="59.068272113800049" lon="30.022544860839844">
        <time>2026-04-25T08:56:07Z</time>
      </trkpt>
      <trkpt lat="59.068293571472168" lon="30.022523403167725">
        <time>2026-04-25T08:56:09Z</time>
      </trkpt>
      <trkpt lat="59.068293571472168" lon="30.022523403167725">
        <time>2026-04-25T08:56:12Z</time>
      </trkpt>
      <trkpt lat="59.068272113800049" lon="30.022544860839844">
        <time>2026-04-25T08:56:14Z</time>
      </trkpt>
      <trkpt lat="59.068272113800049" lon="30.022544860839844">
        <time>2026-04-25T08:56:17Z</time>
      </trkpt>
      <trkpt lat="59.068293571472168" lon="30.022480487823486">
        <time>2026-04-25T08:56:19Z</time>
      </trkpt>
      <trkpt lat="59.068315029144287" lon="30.022437572479248">
        <time>2026-04-25T08:56:22Z</time>
      </trkpt>
      <trkpt lat="59.068315029144287" lon="30.022416114807129">
        <time>2026-04-25T08:56:24Z</time>
      </trkpt>
      <trkpt lat="59.068315029144287" lon="30.022416114807129">
        <time>2026-04-25T08:56:27Z</time>
      </trkpt>
      <trkpt lat="59.068315029144287" lon="30.02239465713501">
        <time>2026-04-25T08:56:29Z</time>
      </trkpt>
      <trkpt lat="59.068315029144287" lon="30.022373199462891">
        <time>2026-04-25T08:56:32Z</time>
      </trkpt>
      <trkpt lat="59.068315029144287" lon="30.022373199462891">
        <time>2026-04-25T08:56:34Z</time>
      </trkpt>
      <trkpt lat="59.068315029144287" lon="30.022373199462891">
        <time>2026-04-25T08:56:37Z</time>
      </trkpt>
      <trkpt lat="59.068336486816406" lon="30.02239465713501">
        <time>2026-04-25T08:56:40Z</time>
      </trkpt>
      <trkpt lat="59.068357944488525" lon="30.02239465713501">
        <time>2026-04-25T08:56:42Z</time>
      </trkpt>
      <trkpt lat="59.068379402160645" lon="30.022373199462891">
        <time>2026-04-25T08:56:44Z</time>
      </trkpt>
      <trkpt lat="59.068379402160645" lon="30.022373199462891">
        <time>2026-04-25T08:56:47Z</time>
      </trkpt>
      <trkpt lat="59.068379402160645" lon="30.022351741790771">
        <time>2026-04-25T08:56:49Z</time>
      </trkpt>
      <trkpt lat="59.068400859832764" lon="30.022351741790771">
        <time>2026-04-25T08:56:52Z</time>
      </trkpt>
      <trkpt lat="59.068400859832764" lon="30.022373199462891">
        <time>2026-04-25T08:56:54Z</time>
      </trkpt>
      <trkpt lat="59.068400859832764" lon="30.022373199462891">
        <time>2026-04-25T08:56:57Z</time>
      </trkpt>
      <trkpt lat="59.068400859832764" lon="30.022351741790771">
        <time>2026-04-25T08:56:59Z</time>
      </trkpt>
      <trkpt lat="59.068422317504883" lon="30.022330284118652">
        <time>2026-04-25T08:57:02Z</time>
      </trkpt>
      <trkpt lat="59.068465232849121" lon="30.022308826446533">
        <time>2026-04-25T08:57:04Z</time>
      </trkpt>
      <trkpt lat="59.068465232849121" lon="30.022287368774414">
        <time>2026-04-25T08:57:07Z</time>
      </trkpt>
      <trkpt lat="59.068465232849121" lon="30.022222995758057">
        <time>2026-04-25T08:57:09Z</time>
      </trkpt>
      <trkpt lat="59.06848669052124" lon="30.022180080413818">
        <time>2026-04-25T08:57:12Z</time>
      </trkpt>
      <trkpt lat="59.06848669052124" lon="30.022158622741699">
        <time>2026-04-25T08:57:14Z</time>
      </trkpt>
      <trkpt lat="59.06848669052124" lon="30.022158622741699">
        <time>2026-04-25T08:57:17Z</time>
      </trkpt>
      <trkpt lat="59.068508148193359" lon="30.02213716506958">
        <time>2026-04-25T08:57:19Z</time>
      </trkpt>
      <trkpt lat="59.068529605865479" lon="30.022158622741699">
        <time>2026-04-25T08:57:22Z</time>
      </trkpt>
      <trkpt lat="59.068572521209717" lon="30.022244453430176">
        <time>2026-04-25T08:57:24Z</time>
      </trkpt>
      <trkpt lat="59.068572521209717" lon="30.022265911102295">
        <time>2026-04-25T08:57:27Z</time>
      </trkpt>
      <trkpt lat="59.068572521209717" lon="30.022265911102295">
        <time>2026-04-25T08:57:29Z</time>
      </trkpt>
      <trkpt lat="59.068572521209717" lon="30.022265911102295">
        <time>2026-04-25T08:57:32Z</time>
      </trkpt>
      <trkpt lat="59.068593978881836" lon="30.022201538085937">
        <time>2026-04-25T08:57:34Z</time>
      </trkpt>
      <trkpt lat="59.068615436553955" lon="30.022180080413818">
        <time>2026-04-25T08:57:37Z</time>
      </trkpt>
      <trkpt lat="59.068615436553955" lon="30.022158622741699">
        <time>2026-04-25T08:57:39Z</time>
      </trkpt>
      <trkpt lat="59.068636894226074" lon="30.022115707397461">
        <time>2026-04-25T08:57:42Z</time>
      </trkpt>
      <trkpt lat="59.068658351898193" lon="30.022029876708984">
        <time>2026-04-25T08:57:44Z</time>
      </trkpt>
      <trkpt lat="59.068658351898193" lon="30.021986961364746">
        <time>2026-04-25T08:57:47Z</time>
      </trkpt>
      <trkpt lat="59.068658351898193" lon="30.022051334381104">
        <time>2026-04-25T08:57:52Z</time>
      </trkpt>
      <trkpt lat="59.068636894226074" lon="30.022180080413818">
        <time>2026-04-25T08:57:54Z</time>
      </trkpt>
      <trkpt lat="59.068615436553955" lon="30.022222995758057">
        <time>2026-04-25T08:57:57Z</time>
      </trkpt>
      <trkpt lat="59.068593978881836" lon="30.022244453430176">
        <time>2026-04-25T08:57:59Z</time>
      </trkpt>
      <trkpt lat="59.068615436553955" lon="30.022180080413818">
        <time>2026-04-25T08:58:02Z</time>
      </trkpt>
      <trkpt lat="59.068701267242432" lon="30.022072792053223">
        <time>2026-04-25T08:58:04Z</time>
      </trkpt>
      <trkpt lat="59.06874418258667" lon="30.022008419036865">
        <time>2026-04-25T08:58:07Z</time>
      </trkpt>
      <trkpt lat="59.068787097930908" lon="30.02190113067627">
        <time>2026-04-25T08:58:09Z</time>
      </trkpt>
      <trkpt lat="59.068808555603027" lon="30.021858215332031">
        <time>2026-04-25T08:58:12Z</time>
      </trkpt>
      <trkpt lat="59.068851470947266" lon="30.021772384643555">
        <time>2026-04-25T08:58:14Z</time>
      </trkpt>
      <trkpt lat="59.068894386291504" lon="30.021772384643555">
        <time>2026-04-25T08:58:17Z</time>
      </trkpt>
      <trkpt lat="59.068915843963623" lon="30.021836757659912">
        <time>2026-04-25T08:58:19Z</time>
      </trkpt>
      <trkpt lat="59.068915843963623" lon="30.021836757659912">
        <time>2026-04-25T08:58:22Z</time>
      </trkpt>
      <trkpt lat="59.068937301635742" lon="30.021986961364746">
        <time>2026-04-25T08:58:24Z</time>
      </trkpt>
      <trkpt lat="59.068937301635742" lon="30.022029876708984">
        <time>2026-04-25T08:58:27Z</time>
      </trkpt>
      <trkpt lat="59.068958759307861" lon="30.021858215332031">
        <time>2026-04-25T08:58:29Z</time>
      </trkpt>
      <trkpt lat="59.068937301635742" lon="30.021750926971436">
        <time>2026-04-25T08:58:32Z</time>
      </trkpt>
      <trkpt lat="59.068830013275146" lon="30.02187967300415">
        <time>2026-04-25T08:58:34Z</time>
      </trkpt>
      <trkpt lat="59.068787097930908" lon="30.021965503692627">
        <time>2026-04-25T08:58:37Z</time>
      </trkpt>
      <trkpt lat="59.068765640258789" lon="30.021986961364746">
        <time>2026-04-25T08:58:39Z</time>
      </trkpt>
      <trkpt lat="59.068787097930908" lon="30.02190113067627">
        <time>2026-04-25T08:58:42Z</time>
      </trkpt>
      <trkpt lat="59.068894386291504" lon="30.021750926971436">
        <time>2026-04-25T08:58:44Z</time>
      </trkpt>
      <trkpt lat="59.06898021697998" lon="30.021686553955078">
        <time>2026-04-25T08:58:47Z</time>
      </trkpt>
      <trkpt lat="59.069066047668457" lon="30.021665096282959">
        <time>2026-04-25T08:58:49Z</time>
      </trkpt>
      <trkpt lat="59.069108963012695" lon="30.02164363861084">
        <time>2026-04-25T08:58:52Z</time>
      </trkpt>
      <trkpt lat="59.069130420684814" lon="30.02164363861084">
        <time>2026-04-25T08:58:54Z</time>
      </trkpt>
      <trkpt lat="59.069151878356934" lon="30.021622180938721">
        <time>2026-04-25T08:58:57Z</time>
      </trkpt>
      <trkpt lat="59.069173336029053" lon="30.021557807922363">
        <time>2026-04-25T08:58:59Z</time>
      </trkpt>
      <trkpt lat="59.069194793701172" lon="30.021557807922363">
        <time>2026-04-25T08:59:02Z</time>
      </trkpt>
      <trkpt lat="59.06923770904541" lon="30.021557807922363">
        <time>2026-04-25T08:59:04Z</time>
      </trkpt>
      <trkpt lat="59.069259166717529" lon="30.021536350250244">
        <time>2026-04-25T08:59:07Z</time>
      </trkpt>
      <trkpt lat="59.069302082061768" lon="30.021579265594482">
        <time>2026-04-25T08:59:09Z</time>
      </trkpt>
      <trkpt lat="59.069323539733887" lon="30.021622180938721">
        <time>2026-04-25T08:59:12Z</time>
      </trkpt>
      <trkpt lat="59.069323539733887" lon="30.021665096282959">
        <time>2026-04-25T08:59:14Z</time>
      </trkpt>
      <trkpt lat="59.069323539733887" lon="30.021665096282959">
        <time>2026-04-25T08:59:17Z</time>
      </trkpt>
      <trkpt lat="59.069323539733887" lon="30.021665096282959">
        <time>2026-04-25T08:59:19Z</time>
      </trkpt>
      <trkpt lat="59.069344997406006" lon="30.02164363861084">
        <time>2026-04-25T08:59:22Z</time>
      </trkpt>
      <trkpt lat="59.069366455078125" lon="30.021600723266602">
        <time>2026-04-25T08:59:24Z</time>
      </trkpt>
      <trkpt lat="59.069387912750244" lon="30.021579265594482">
        <time>2026-04-25T08:59:27Z</time>
      </trkpt>
      <trkpt lat="59.069409370422363" lon="30.021514892578125">
        <time>2026-04-25T08:59:29Z</time>
      </trkpt>
      <trkpt lat="59.069430828094482" lon="30.021450519561768">
        <time>2026-04-25T08:59:32Z</time>
      </trkpt>
      <trkpt lat="59.069473743438721" lon="30.021429061889648">
        <time>2026-04-25T08:59:34Z</time>
      </trkpt>
      <trkpt lat="59.069473743438721" lon="30.021471977233887">
        <time>2026-04-25T08:59:37Z</time>
      </trkpt>
      <trkpt lat="59.06949520111084" lon="30.021493434906006">
        <time>2026-04-25T08:59:39Z</time>
      </trkpt>
      <trkpt lat="59.06949520111084" lon="30.021471977233887">
        <time>2026-04-25T08:59:42Z</time>
      </trkpt>
      <trkpt lat="59.06949520111084" lon="30.021471977233887">
        <time>2026-04-25T08:59:44Z</time>
      </trkpt>
      <trkpt lat="59.06949520111084" lon="30.021471977233887">
        <time>2026-04-25T08:59:47Z</time>
      </trkpt>
      <trkpt lat="59.069516658782959" lon="30.021429061889648">
        <time>2026-04-25T08:59:49Z</time>
      </trkpt>
      <trkpt lat="59.069516658782959" lon="30.021364688873291">
        <time>2026-04-25T08:59:52Z</time>
      </trkpt>
      <trkpt lat="59.069538116455078" lon="30.021278858184814">
        <time>2026-04-25T08:59:54Z</time>
      </trkpt>
      <trkpt lat="59.069559574127197" lon="30.021235942840576">
        <time>2026-04-25T08:59:57Z</time>
      </trkpt>
      <trkpt lat="59.069602489471436" lon="30.021214485168457">
        <time>2026-04-25T08:59:59Z</time>
      </trkpt>
      <trkpt lat="59.069623947143555" lon="30.021257400512695">
        <time>2026-04-25T09:00:02Z</time>
      </trkpt>
      <trkpt lat="59.069623947143555" lon="30.021300315856934">
        <time>2026-04-25T09:00:04Z</time>
      </trkpt>
      <trkpt lat="59.069623947143555" lon="30.021235942840576">
        <time>2026-04-25T09:00:07Z</time>
      </trkpt>
      <trkpt lat="59.069581031799316" lon="30.021214485168457">
        <time>2026-04-25T09:00:09Z</time>
      </trkpt>
      <trkpt lat="59.069559574127197" lon="30.021278858184814">
        <time>2026-04-25T09:00:12Z</time>
      </trkpt>
      <trkpt lat="59.06949520111084" lon="30.021407604217529">
        <time>2026-04-25T09:00:14Z</time>
      </trkpt>
      <trkpt lat="59.069452285766602" lon="30.021471977233887">
        <time>2026-04-25T09:00:17Z</time>
      </trkpt>
      <trkpt lat="59.069538116455078" lon="30.021343231201172">
        <time>2026-04-25T09:00:19Z</time>
      </trkpt>
      <trkpt lat="59.069559574127197" lon="30.021278858184814">
        <time>2026-04-25T09:00:22Z</time>
      </trkpt>
      <trkpt lat="59.069581031799316" lon="30.021193027496338">
        <time>2026-04-25T09:00:24Z</time>
      </trkpt>
      <trkpt lat="59.069559574127197" lon="30.021214485168457">
        <time>2026-04-25T09:00:27Z</time>
      </trkpt>
      <trkpt lat="59.069559574127197" lon="30.021214485168457">
        <time>2026-04-25T09:00:29Z</time>
      </trkpt>
      <trkpt lat="59.069581031799316" lon="30.0211501121521">
        <time>2026-04-25T09:00:32Z</time>
      </trkpt>
      <trkpt lat="59.069581031799316" lon="30.0211501121521">
        <time>2026-04-25T09:00:34Z</time>
      </trkpt>
      <trkpt lat="59.069581031799316" lon="30.02112865447998">
        <time>2026-04-25T09:00:37Z</time>
      </trkpt>
      <trkpt lat="59.069581031799316" lon="30.021107196807861">
        <time>2026-04-25T09:00:39Z</time>
      </trkpt>
      <trkpt lat="59.069581031799316" lon="30.021107196807861">
        <time>2026-04-25T09:00:42Z</time>
      </trkpt>
      <trkpt lat="59.069602489471436" lon="30.021085739135742">
        <time>2026-04-25T09:00:44Z</time>
      </trkpt>
      <trkpt lat="59.069623947143555" lon="30.021064281463623">
        <time>2026-04-25T09:00:47Z</time>
      </trkpt>
      <trkpt lat="59.069645404815674" lon="30.021042823791504">
        <time>2026-04-25T09:00:49Z</time>
      </trkpt>
      <trkpt lat="59.069645404815674" lon="30.021042823791504">
        <time>2026-04-25T09:00:52Z</time>
      </trkpt>
      <trkpt lat="59.069645404815674" lon="30.021042823791504">
        <time>2026-04-25T09:00:54Z</time>
      </trkpt>
      <trkpt lat="59.069645404815674" lon="30.021042823791504">
        <time>2026-04-25T09:00:57Z</time>
      </trkpt>
      <trkpt lat="59.069645404815674" lon="30.021042823791504">
        <time>2026-04-25T09:00:59Z</time>
      </trkpt>
      <trkpt lat="59.069645404815674" lon="30.021042823791504">
        <time>2026-04-25T09:01:02Z</time>
      </trkpt>
      <trkpt lat="59.069645404815674" lon="30.021042823791504">
        <time>2026-04-25T09:01:04Z</time>
      </trkpt>
      <trkpt lat="59.069645404815674" lon="30.021042823791504">
        <time>2026-04-25T09:01:07Z</time>
      </trkpt>
      <trkpt lat="59.069645404815674" lon="30.021042823791504">
        <time>2026-04-25T09:01:09Z</time>
      </trkpt>
      <trkpt lat="59.069645404815674" lon="30.021042823791504">
        <time>2026-04-25T09:01:12Z</time>
      </trkpt>
      <trkpt lat="59.069645404815674" lon="30.021042823791504">
        <time>2026-04-25T09:01:14Z</time>
      </trkpt>
      <trkpt lat="59.069623947143555" lon="30.021107196807861">
        <time>2026-04-25T09:01:17Z</time>
      </trkpt>
      <trkpt lat="59.069602489471436" lon="30.02112865447998">
        <time>2026-04-25T09:01:19Z</time>
      </trkpt>
      <trkpt lat="59.069623947143555" lon="30.02112865447998">
        <time>2026-04-25T09:01:22Z</time>
      </trkpt>
      <trkpt lat="59.069645404815674" lon="30.021085739135742">
        <time>2026-04-25T09:01:24Z</time>
      </trkpt>
      <trkpt lat="59.069688320159912" lon="30.021085739135742">
        <time>2026-04-25T09:01:27Z</time>
      </trkpt>
      <trkpt lat="59.069666862487793" lon="30.02112865447998">
        <time>2026-04-25T09:01:29Z</time>
      </trkpt>
      <trkpt lat="59.069666862487793" lon="30.02112865447998">
        <time>2026-04-25T09:01:32Z</time>
      </trkpt>
      <trkpt lat="59.069666862487793" lon="30.02112865447998">
        <time>2026-04-25T09:01:34Z</time>
      </trkpt>
      <trkpt lat="59.069666862487793" lon="30.02112865447998">
        <time>2026-04-25T09:01:37Z</time>
      </trkpt>
      <trkpt lat="59.069666862487793" lon="30.02112865447998">
        <time>2026-04-25T09:01:39Z</time>
      </trkpt>
      <trkpt lat="59.069666862487793" lon="30.02112865447998">
        <time>2026-04-25T09:01:42Z</time>
      </trkpt>
      <trkpt lat="59.069709777832031" lon="30.021064281463623">
        <time>2026-04-25T09:01:44Z</time>
      </trkpt>
      <trkpt lat="59.069709777832031" lon="30.020999908447266">
        <time>2026-04-25T09:01:47Z</time>
      </trkpt>
      <trkpt lat="59.069709777832031" lon="30.020978450775146">
        <time>2026-04-25T09:01:49Z</time>
      </trkpt>
      <trkpt lat="59.069709777832031" lon="30.021021366119385">
        <time>2026-04-25T09:01:52Z</time>
      </trkpt>
      <trkpt lat="59.069645404815674" lon="30.021107196807861">
        <time>2026-04-25T09:01:54Z</time>
      </trkpt>
      <trkpt lat="59.069602489471436" lon="30.02112865447998">
        <time>2026-04-25T09:01:57Z</time>
      </trkpt>
      <trkpt lat="59.069623947143555" lon="30.021107196807861">
        <time>2026-04-25T09:01:59Z</time>
      </trkpt>
      <trkpt lat="59.069645404815674" lon="30.021042823791504">
        <time>2026-04-25T09:02:02Z</time>
      </trkpt>
      <trkpt lat="59.069709777832031" lon="30.02089262008667">
        <time>2026-04-25T09:02:04Z</time>
      </trkpt>
      <trkpt lat="59.06975269317627" lon="30.020763874053955">
        <time>2026-04-25T09:02:07Z</time>
      </trkpt>
      <trkpt lat="59.069795608520508" lon="30.020656585693359">
        <time>2026-04-25T09:02:09Z</time>
      </trkpt>
      <trkpt lat="59.069774150848389" lon="30.02063512802124">
        <time>2026-04-25T09:02:12Z</time>
      </trkpt>
      <trkpt lat="59.069774150848389" lon="30.020613670349121">
        <time>2026-04-25T09:02:14Z</time>
      </trkpt>
      <trkpt lat="59.069774150848389" lon="30.020592212677002">
        <time>2026-04-25T09:02:17Z</time>
      </trkpt>
      <trkpt lat="59.069774150848389" lon="30.020527839660645">
        <time>2026-04-25T09:02:19Z</time>
      </trkpt>
      <trkpt lat="59.069774150848389" lon="30.020527839660645">
        <time>2026-04-25T09:02:22Z</time>
      </trkpt>
      <trkpt lat="59.069774150848389" lon="30.020484924316406">
        <time>2026-04-25T09:02:24Z</time>
      </trkpt>
      <trkpt lat="59.069795608520508" lon="30.02039909362793">
        <time>2026-04-25T09:02:27Z</time>
      </trkpt>
      <trkpt lat="59.069774150848389" lon="30.020313262939453">
        <time>2026-04-25T09:02:29Z</time>
      </trkpt>
      <trkpt lat="59.069774150848389" lon="30.020313262939453">
        <time>2026-04-25T09:02:32Z</time>
      </trkpt>
      <trkpt lat="59.069795608520508" lon="30.020334720611572">
        <time>2026-04-25T09:02:34Z</time>
      </trkpt>
      <trkpt lat="59.069795608520508" lon="30.020442008972168">
        <time>2026-04-25T09:02:37Z</time>
      </trkpt>
      <trkpt lat="59.069838523864746" lon="30.020549297332764">
        <time>2026-04-25T09:02:39Z</time>
      </trkpt>
      <trkpt lat="59.069859981536865" lon="30.020549297332764">
        <time>2026-04-25T09:02:42Z</time>
      </trkpt>
      <trkpt lat="59.069859981536865" lon="30.020549297332764">
        <time>2026-04-25T09:02:44Z</time>
      </trkpt>
      <trkpt lat="59.069838523864746" lon="30.020570755004883">
        <time>2026-04-25T09:02:49Z</time>
      </trkpt>
      <trkpt lat="59.069838523864746" lon="30.020549297332764">
        <time>2026-04-25T09:02:52Z</time>
      </trkpt>
      <trkpt lat="59.069774150848389" lon="30.020549297332764">
        <time>2026-04-25T09:02:54Z</time>
      </trkpt>
      <trkpt lat="59.069774150848389" lon="30.020549297332764">
        <time>2026-04-25T09:02:57Z</time>
      </trkpt>
      <trkpt lat="59.069817066192627" lon="30.020527839660645">
        <time>2026-04-25T09:02:59Z</time>
      </trkpt>
      <trkpt lat="59.069795608520508" lon="30.020463466644287">
        <time>2026-04-25T09:03:02Z</time>
      </trkpt>
      <trkpt lat="59.06973123550415" lon="30.02039909362793">
        <time>2026-04-25T09:03:04Z</time>
      </trkpt>
      <trkpt lat="59.06973123550415" lon="30.02039909362793">
        <time>2026-04-25T09:03:07Z</time>
      </trkpt>
      <trkpt lat="59.069774150848389" lon="30.02039909362793">
        <time>2026-04-25T09:03:09Z</time>
      </trkpt>
      <trkpt lat="59.069795608520508" lon="30.020377635955811">
        <time>2026-04-25T09:03:12Z</time>
      </trkpt>
      <trkpt lat="59.069774150848389" lon="30.020291805267334">
        <time>2026-04-25T09:03:14Z</time>
      </trkpt>
      <trkpt lat="59.069774150848389" lon="30.020248889923096">
        <time>2026-04-25T09:03:17Z</time>
      </trkpt>
      <trkpt lat="59.069795608520508" lon="30.020227432250977">
        <time>2026-04-25T09:03:19Z</time>
      </trkpt>
      <trkpt lat="59.069817066192627" lon="30.020227432250977">
        <time>2026-04-25T09:03:22Z</time>
      </trkpt>
      <trkpt lat="59.06975269317627" lon="30.020227432250977">
        <time>2026-04-25T09:03:24Z</time>
      </trkpt>
      <trkpt lat="59.069709777832031" lon="30.020227432250977">
        <time>2026-04-25T09:03:27Z</time>
      </trkpt>
      <trkpt lat="59.069709777832031" lon="30.020248889923096">
        <time>2026-04-25T09:03:29Z</time>
      </trkpt>
      <trkpt lat="59.069709777832031" lon="30.020270347595215">
        <time>2026-04-25T09:03:32Z</time>
      </trkpt>
      <trkpt lat="59.06973123550415" lon="30.020313262939453">
        <time>2026-04-25T09:03:34Z</time>
      </trkpt>
      <trkpt lat="59.06975269317627" lon="30.020291805267334">
        <time>2026-04-25T09:03:37Z</time>
      </trkpt>
      <trkpt lat="59.06973123550415" lon="30.020227432250977">
        <time>2026-04-25T09:03:39Z</time>
      </trkpt>
      <trkpt lat="59.06975269317627" lon="30.020205974578857">
        <time>2026-04-25T09:03:42Z</time>
      </trkpt>
      <trkpt lat="59.069774150848389" lon="30.020270347595215">
        <time>2026-04-25T09:03:44Z</time>
      </trkpt>
      <trkpt lat="59.069774150848389" lon="30.020313262939453">
        <time>2026-04-25T09:03:47Z</time>
      </trkpt>
      <trkpt lat="59.069774150848389" lon="30.020291805267334">
        <time>2026-04-25T09:03:49Z</time>
      </trkpt>
      <trkpt lat="59.06975269317627" lon="30.020205974578857">
        <time>2026-04-25T09:03:52Z</time>
      </trkpt>
      <trkpt lat="59.069688320159912" lon="30.020227432250977">
        <time>2026-04-25T09:03:54Z</time>
      </trkpt>
      <trkpt lat="59.069623947143555" lon="30.020248889923096">
        <time>2026-04-25T09:03:57Z</time>
      </trkpt>
      <trkpt lat="59.069623947143555" lon="30.020248889923096">
        <time>2026-04-25T09:03:59Z</time>
      </trkpt>
      <trkpt lat="59.069688320159912" lon="30.020205974578857">
        <time>2026-04-25T09:04:02Z</time>
      </trkpt>
      <trkpt lat="59.06975269317627" lon="30.020184516906738">
        <time>2026-04-25T09:04:04Z</time>
      </trkpt>
      <trkpt lat="59.069795608520508" lon="30.020227432250977">
        <time>2026-04-25T09:04:07Z</time>
      </trkpt>
      <trkpt lat="59.069795608520508" lon="30.020356178283691">
        <time>2026-04-25T09:04:09Z</time>
      </trkpt>
      <trkpt lat="59.06975269317627" lon="30.020420551300049">
        <time>2026-04-25T09:04:12Z</time>
      </trkpt>
      <trkpt lat="59.06973123550415" lon="30.020463466644287">
        <time>2026-04-25T09:04:14Z</time>
      </trkpt>
      <trkpt lat="59.06973123550415" lon="30.020463466644287">
        <time>2026-04-25T09:04:17Z</time>
      </trkpt>
      <trkpt lat="59.06973123550415" lon="30.020463466644287">
        <time>2026-04-25T09:04:19Z</time>
      </trkpt>
      <trkpt lat="59.06973123550415" lon="30.020463466644287">
        <time>2026-04-25T09:04:22Z</time>
      </trkpt>
      <trkpt lat="59.06973123550415" lon="30.020463466644287">
        <time>2026-04-25T09:04:24Z</time>
      </trkpt>
      <trkpt lat="59.06973123550415" lon="30.020463466644287">
        <time>2026-04-25T09:04:27Z</time>
      </trkpt>
      <trkpt lat="59.06973123550415" lon="30.020463466644287">
        <time>2026-04-25T09:04:29Z</time>
      </trkpt>
      <trkpt lat="59.06973123550415" lon="30.020484924316406">
        <time>2026-04-25T09:04:32Z</time>
      </trkpt>
      <trkpt lat="59.069795608520508" lon="30.020549297332764">
        <time>2026-04-25T09:04:34Z</time>
      </trkpt>
      <trkpt lat="59.069838523864746" lon="30.02063512802124">
        <time>2026-04-25T09:04:37Z</time>
      </trkpt>
      <trkpt lat="59.069902896881104" lon="30.020699501037598">
        <time>2026-04-25T09:04:39Z</time>
      </trkpt>
      <trkpt lat="59.069924354553223" lon="30.020720958709717">
        <time>2026-04-25T09:04:42Z</time>
      </trkpt>
      <trkpt lat="59.069924354553223" lon="30.020742416381836">
        <time>2026-04-25T09:04:44Z</time>
      </trkpt>
      <trkpt lat="59.069924354553223" lon="30.020763874053955">
        <time>2026-04-25T09:04:47Z</time>
      </trkpt>
      <trkpt lat="59.069859981536865" lon="30.020699501037598">
        <time>2026-04-25T09:04:49Z</time>
      </trkpt>
      <trkpt lat="59.069817066192627" lon="30.020699501037598">
        <time>2026-04-25T09:04:52Z</time>
      </trkpt>
      <trkpt lat="59.069838523864746" lon="30.020656585693359">
        <time>2026-04-25T09:04:54Z</time>
      </trkpt>
      <trkpt lat="59.069817066192627" lon="30.02063512802124">
        <time>2026-04-25T09:04:57Z</time>
      </trkpt>
      <trkpt lat="59.069774150848389" lon="30.020742416381836">
        <time>2026-04-25T09:04:59Z</time>
      </trkpt>
      <trkpt lat="59.06975269317627" lon="30.020763874053955">
        <time>2026-04-25T09:05:02Z</time>
      </trkpt>
      <trkpt lat="59.069774150848389" lon="30.020678043365479">
        <time>2026-04-25T09:05:04Z</time>
      </trkpt>
      <trkpt lat="59.069774150848389" lon="30.020678043365479">
        <time>2026-04-25T09:05:07Z</time>
      </trkpt>
      <trkpt lat="59.069774150848389" lon="30.020678043365479">
        <time>2026-04-25T09:05:09Z</time>
      </trkpt>
      <trkpt lat="59.069774150848389" lon="30.020678043365479">
        <time>2026-04-25T09:05:12Z</time>
      </trkpt>
      <trkpt lat="59.069774150848389" lon="30.020678043365479">
        <time>2026-04-25T09:05:14Z</time>
      </trkpt>
      <trkpt lat="59.069774150848389" lon="30.020678043365479">
        <time>2026-04-25T09:05:17Z</time>
      </trkpt>
      <trkpt lat="59.069838523864746" lon="30.020613670349121">
        <time>2026-04-25T09:05:19Z</time>
      </trkpt>
      <trkpt lat="59.069859981536865" lon="30.020592212677002">
        <time>2026-04-25T09:05:22Z</time>
      </trkpt>
      <trkpt lat="59.069902896881104" lon="30.020527839660645">
        <time>2026-04-25T09:05:24Z</time>
      </trkpt>
      <trkpt lat="59.069902896881104" lon="30.020527839660645">
        <time>2026-04-25T09:05:27Z</time>
      </trkpt>
      <trkpt lat="59.069902896881104" lon="30.020549297332764">
        <time>2026-04-25T09:05:29Z</time>
      </trkpt>
      <trkpt lat="59.069902896881104" lon="30.020549297332764">
        <time>2026-04-25T09:05:32Z</time>
      </trkpt>
      <trkpt lat="59.069924354553223" lon="30.020506381988525">
        <time>2026-04-25T09:05:34Z</time>
      </trkpt>
      <trkpt lat="59.069945812225342" lon="30.020463466644287">
        <time>2026-04-25T09:05:39Z</time>
      </trkpt>
      <trkpt lat="59.069945812225342" lon="30.020463466644287">
        <time>2026-04-25T09:05:42Z</time>
      </trkpt>
      <trkpt lat="59.069967269897461" lon="30.020420551300049">
        <time>2026-04-25T09:05:44Z</time>
      </trkpt>
      <trkpt lat="59.06998872756958" lon="30.020377635955811">
        <time>2026-04-25T09:05:47Z</time>
      </trkpt>
      <trkpt lat="59.06998872756958" lon="30.020377635955811">
        <time>2026-04-25T09:05:49Z</time>
      </trkpt>
      <trkpt lat="59.06998872756958" lon="30.020377635955811">
        <time>2026-04-25T09:05:52Z</time>
      </trkpt>
      <trkpt lat="59.06998872756958" lon="30.020377635955811">
        <time>2026-04-25T09:05:54Z</time>
      </trkpt>
      <trkpt lat="59.06998872756958" lon="30.020356178283691">
        <time>2026-04-25T09:05:57Z</time>
      </trkpt>
      <trkpt lat="59.06998872756958" lon="30.020356178283691">
        <time>2026-04-25T09:05:59Z</time>
      </trkpt>
      <trkpt lat="59.06998872756958" lon="30.020356178283691">
        <time>2026-04-25T09:06:02Z</time>
      </trkpt>
      <trkpt lat="59.06998872756958" lon="30.020356178283691">
        <time>2026-04-25T09:06:04Z</time>
      </trkpt>
      <trkpt lat="59.06998872756958" lon="30.020356178283691">
        <time>2026-04-25T09:06:07Z</time>
      </trkpt>
      <trkpt lat="59.06998872756958" lon="30.020356178283691">
        <time>2026-04-25T09:06:09Z</time>
      </trkpt>
      <trkpt lat="59.06998872756958" lon="30.020356178283691">
        <time>2026-04-25T09:06:12Z</time>
      </trkpt>
      <trkpt lat="59.070031642913818" lon="30.020291805267334">
        <time>2026-04-25T09:06:14Z</time>
      </trkpt>
      <trkpt lat="59.070053100585938" lon="30.020248889923096">
        <time>2026-04-25T09:06:17Z</time>
      </trkpt>
      <trkpt lat="59.070053100585938" lon="30.020098686218262">
        <time>2026-04-25T09:06:19Z</time>
      </trkpt>
      <trkpt lat="59.070053100585938" lon="30.020034313201904">
        <time>2026-04-25T09:06:22Z</time>
      </trkpt>
      <trkpt lat="59.06998872756958" lon="30.019991397857666">
        <time>2026-04-25T09:06:24Z</time>
      </trkpt>
      <trkpt lat="59.069945812225342" lon="30.019948482513428">
        <time>2026-04-25T09:06:27Z</time>
      </trkpt>
      <trkpt lat="59.069902896881104" lon="30.01988410949707">
        <time>2026-04-25T09:06:29Z</time>
      </trkpt>
      <trkpt lat="59.069859981536865" lon="30.019819736480713">
        <time>2026-04-25T09:06:32Z</time>
      </trkpt>
      <trkpt lat="59.069859981536865" lon="30.019669532775879">
        <time>2026-04-25T09:06:34Z</time>
      </trkpt>
      <trkpt lat="59.069859981536865" lon="30.019605159759521">
        <time>2026-04-25T09:06:37Z</time>
      </trkpt>
      <trkpt lat="59.069859981536865" lon="30.019605159759521">
        <time>2026-04-25T09:06:39Z</time>
      </trkpt>
      <trkpt lat="59.069859981536865" lon="30.019605159759521">
        <time>2026-04-25T09:06:42Z</time>
      </trkpt>
      <trkpt lat="59.069859981536865" lon="30.019626617431641">
        <time>2026-04-25T09:06:44Z</time>
      </trkpt>
      <trkpt lat="59.069881439208984" lon="30.019690990447998">
        <time>2026-04-25T09:06:47Z</time>
      </trkpt>
      <trkpt lat="59.069967269897461" lon="30.019712448120117">
        <time>2026-04-25T09:06:49Z</time>
      </trkpt>
      <trkpt lat="59.070031642913818" lon="30.019626617431641">
        <time>2026-04-25T09:06:52Z</time>
      </trkpt>
      <trkpt lat="59.070074558258057" lon="30.019669532775879">
        <time>2026-04-25T09:06:54Z</time>
      </trkpt>
      <trkpt lat="59.070096015930176" lon="30.01964807510376">
        <time>2026-04-25T09:06:57Z</time>
      </trkpt>
      <trkpt lat="59.070203304290771" lon="30.019712448120117">
        <time>2026-04-25T09:06:59Z</time>
      </trkpt>
      <trkpt lat="59.07024621963501" lon="30.019776821136475">
        <time>2026-04-25T09:07:02Z</time>
      </trkpt>
      <trkpt lat="59.070289134979248" lon="30.019862651824951">
        <time>2026-04-25T09:07:04Z</time>
      </trkpt>
      <trkpt lat="59.070332050323486" lon="30.01988410949707">
        <time>2026-04-25T09:07:07Z</time>
      </trkpt>
      <trkpt lat="59.070332050323486" lon="30.020012855529785">
        <time>2026-04-25T09:07:09Z</time>
      </trkpt>
      <trkpt lat="59.070332050323486" lon="30.020055770874023">
        <time>2026-04-25T09:07:12Z</time>
      </trkpt>
      <trkpt lat="59.070332050323486" lon="30.0201416015625">
        <time>2026-04-25T09:07:14Z</time>
      </trkpt>
      <trkpt lat="59.070353507995605" lon="30.020184516906738">
        <time>2026-04-25T09:07:17Z</time>
      </trkpt>
      <trkpt lat="59.070396423339844" lon="30.020291805267334">
        <time>2026-04-25T09:07:19Z</time>
      </trkpt>
      <trkpt lat="59.070396423339844" lon="30.020313262939453">
        <time>2026-04-25T09:07:22Z</time>
      </trkpt>
      <trkpt lat="59.070374965667725" lon="30.020248889923096">
        <time>2026-04-25T09:07:24Z</time>
      </trkpt>
      <trkpt lat="59.070374965667725" lon="30.020184516906738">
        <time>2026-04-25T09:07:27Z</time>
      </trkpt>
      <trkpt lat="59.070353507995605" lon="30.020077228546143">
        <time>2026-04-25T09:07:29Z</time>
      </trkpt>
      <trkpt lat="59.070332050323486" lon="30.020012855529785">
        <time>2026-04-25T09:07:32Z</time>
      </trkpt>
      <trkpt lat="59.070332050323486" lon="30.019927024841309">
        <time>2026-04-25T09:07:34Z</time>
      </trkpt>
      <trkpt lat="59.070332050323486" lon="30.01988410949707">
        <time>2026-04-25T09:07:37Z</time>
      </trkpt>
      <trkpt lat="59.070353507995605" lon="30.01988410949707">
        <time>2026-04-25T09:07:39Z</time>
      </trkpt>
      <trkpt lat="59.070353507995605" lon="30.01988410949707">
        <time>2026-04-25T09:07:42Z</time>
      </trkpt>
      <trkpt lat="59.070353507995605" lon="30.01988410949707">
        <time>2026-04-25T09:07:44Z</time>
      </trkpt>
      <trkpt lat="59.070353507995605" lon="30.019841194152832">
        <time>2026-04-25T09:07:47Z</time>
      </trkpt>
      <trkpt lat="59.070396423339844" lon="30.019776821136475">
        <time>2026-04-25T09:07:49Z</time>
      </trkpt>
      <trkpt lat="59.070439338684082" lon="30.019733905792236">
        <time>2026-04-25T09:07:52Z</time>
      </trkpt>
      <trkpt lat="59.07048225402832" lon="30.019690990447998">
        <time>2026-04-25T09:07:54Z</time>
      </trkpt>
      <trkpt lat="59.07048225402832" lon="30.019690990447998">
        <time>2026-04-25T09:07:57Z</time>
      </trkpt>
      <trkpt lat="59.07048225402832" lon="30.019712448120117">
        <time>2026-04-25T09:07:59Z</time>
      </trkpt>
      <trkpt lat="59.070503711700439" lon="30.019690990447998">
        <time>2026-04-25T09:08:02Z</time>
      </trkpt>
      <trkpt lat="59.070568084716797" lon="30.019626617431641">
        <time>2026-04-25T09:08:04Z</time>
      </trkpt>
      <trkpt lat="59.070568084716797" lon="30.01964807510376">
        <time>2026-04-25T09:08:07Z</time>
      </trkpt>
      <trkpt lat="59.070589542388916" lon="30.019690990447998">
        <time>2026-04-25T09:08:09Z</time>
      </trkpt>
      <trkpt lat="59.070589542388916" lon="30.019690990447998">
        <time>2026-04-25T09:08:12Z</time>
      </trkpt>
      <trkpt lat="59.070611000061035" lon="30.019733905792236">
        <time>2026-04-25T09:08:14Z</time>
      </trkpt>
      <trkpt lat="59.070632457733154" lon="30.019733905792236">
        <time>2026-04-25T09:08:17Z</time>
      </trkpt>
      <trkpt lat="59.070632457733154" lon="30.019733905792236">
        <time>2026-04-25T09:08:19Z</time>
      </trkpt>
      <trkpt lat="59.070632457733154" lon="30.019733905792236">
        <time>2026-04-25T09:08:22Z</time>
      </trkpt>
      <trkpt lat="59.070632457733154" lon="30.019669532775879">
        <time>2026-04-25T09:08:24Z</time>
      </trkpt>
      <trkpt lat="59.070632457733154" lon="30.019626617431641">
        <time>2026-04-25T09:08:27Z</time>
      </trkpt>
      <trkpt lat="59.070653915405273" lon="30.019519329071045">
        <time>2026-04-25T09:08:29Z</time>
      </trkpt>
      <trkpt lat="59.070675373077393" lon="30.019454956054688">
        <time>2026-04-25T09:08:32Z</time>
      </trkpt>
      <trkpt lat="59.070675373077393" lon="30.01939058303833">
        <time>2026-04-25T09:08:34Z</time>
      </trkpt>
      <trkpt lat="59.070675373077393" lon="30.01939058303833">
        <time>2026-04-25T09:08:37Z</time>
      </trkpt>
      <trkpt lat="59.070675373077393" lon="30.01939058303833">
        <time>2026-04-25T09:08:39Z</time>
      </trkpt>
      <trkpt lat="59.070675373077393" lon="30.019326210021973">
        <time>2026-04-25T09:08:42Z</time>
      </trkpt>
      <trkpt lat="59.070696830749512" lon="30.019261837005615">
        <time>2026-04-25T09:08:44Z</time>
      </trkpt>
      <trkpt lat="59.070718288421631" lon="30.019197463989258">
        <time>2026-04-25T09:08:47Z</time>
      </trkpt>
      <trkpt lat="59.070718288421631" lon="30.0191330909729">
        <time>2026-04-25T09:08:49Z</time>
      </trkpt>
      <trkpt lat="59.070718288421631" lon="30.0191330909729">
        <time>2026-04-25T09:08:52Z</time>
      </trkpt>
      <trkpt lat="59.070718288421631" lon="30.0191330909729">
        <time>2026-04-25T09:08:54Z</time>
      </trkpt>
      <trkpt lat="59.07073974609375" lon="30.019090175628662">
        <time>2026-04-25T09:08:57Z</time>
      </trkpt>
      <trkpt lat="59.07073974609375" lon="30.019090175628662">
        <time>2026-04-25T09:08:59Z</time>
      </trkpt>
      <trkpt lat="59.07073974609375" lon="30.019090175628662">
        <time>2026-04-25T09:09:02Z</time>
      </trkpt>
      <trkpt lat="59.070761203765869" lon="30.019047260284424">
        <time>2026-04-25T09:09:04Z</time>
      </trkpt>
      <trkpt lat="59.070761203765869" lon="30.019025802612305">
        <time>2026-04-25T09:09:07Z</time>
      </trkpt>
      <trkpt lat="59.070761203765869" lon="30.019025802612305">
        <time>2026-04-25T09:09:09Z</time>
      </trkpt>
      <trkpt lat="59.070782661437988" lon="30.018982887268066">
        <time>2026-04-25T09:09:12Z</time>
      </trkpt>
      <trkpt lat="59.070804119110107" lon="30.01889705657959">
        <time>2026-04-25T09:09:14Z</time>
      </trkpt>
      <trkpt lat="59.070825576782227" lon="30.018875598907471">
        <time>2026-04-25T09:09:17Z</time>
      </trkpt>
      <trkpt lat="59.070825576782227" lon="30.018875598907471">
        <time>2026-04-25T09:09:19Z</time>
      </trkpt>
      <trkpt lat="59.070825576782227" lon="30.018875598907471">
        <time>2026-04-25T09:09:22Z</time>
      </trkpt>
      <trkpt lat="59.070825576782227" lon="30.018875598907471">
        <time>2026-04-25T09:09:24Z</time>
      </trkpt>
      <trkpt lat="59.070847034454346" lon="30.018832683563232">
        <time>2026-04-25T09:09:27Z</time>
      </trkpt>
      <trkpt lat="59.070868492126465" lon="30.018811225891113">
        <time>2026-04-25T09:09:29Z</time>
      </trkpt>
      <trkpt lat="59.070847034454346" lon="30.018832683563232">
        <time>2026-04-25T09:09:32Z</time>
      </trkpt>
      <trkpt lat="59.070825576782227" lon="30.018854141235352">
        <time>2026-04-25T09:09:34Z</time>
      </trkpt>
      <trkpt lat="59.070825576782227" lon="30.018811225891113">
        <time>2026-04-25T09:09:37Z</time>
      </trkpt>
      <trkpt lat="59.070825576782227" lon="30.018789768218994">
        <time>2026-04-25T09:09:39Z</time>
      </trkpt>
      <trkpt lat="59.070825576782227" lon="30.018789768218994">
        <time>2026-04-25T09:09:42Z</time>
      </trkpt>
      <trkpt lat="59.070825576782227" lon="30.018789768218994">
        <time>2026-04-25T09:09:44Z</time>
      </trkpt>
      <trkpt lat="59.070825576782227" lon="30.018789768218994">
        <time>2026-04-25T09:09:47Z</time>
      </trkpt>
      <trkpt lat="59.070825576782227" lon="30.018789768218994">
        <time>2026-04-25T09:09:49Z</time>
      </trkpt>
      <trkpt lat="59.070825576782227" lon="30.018789768218994">
        <time>2026-04-25T09:09:52Z</time>
      </trkpt>
      <trkpt lat="59.070825576782227" lon="30.018768310546875">
        <time>2026-04-25T09:09:54Z</time>
      </trkpt>
      <trkpt lat="59.070825576782227" lon="30.018725395202637">
        <time>2026-04-25T09:09:57Z</time>
      </trkpt>
      <trkpt lat="59.070804119110107" lon="30.018746852874756">
        <time>2026-04-25T09:09:59Z</time>
      </trkpt>
      <trkpt lat="59.070804119110107" lon="30.018703937530518">
        <time>2026-04-25T09:10:02Z</time>
      </trkpt>
      <trkpt lat="59.070825576782227" lon="30.018682479858398">
        <time>2026-04-25T09:10:04Z</time>
      </trkpt>
      <trkpt lat="59.070825576782227" lon="30.018661022186279">
        <time>2026-04-25T09:10:07Z</time>
      </trkpt>
      <trkpt lat="59.070868492126465" lon="30.018596649169922">
        <time>2026-04-25T09:10:09Z</time>
      </trkpt>
      <trkpt lat="59.070889949798584" lon="30.018575191497803">
        <time>2026-04-25T09:10:12Z</time>
      </trkpt>
      <trkpt lat="59.070911407470703" lon="30.018532276153564">
        <time>2026-04-25T09:10:14Z</time>
      </trkpt>
      <trkpt lat="59.070911407470703" lon="30.018532276153564">
        <time>2026-04-25T09:10:17Z</time>
      </trkpt>
      <trkpt lat="59.070911407470703" lon="30.018532276153564">
        <time>2026-04-25T09:10:19Z</time>
      </trkpt>
      <trkpt lat="59.070932865142822" lon="30.018489360809326">
        <time>2026-04-25T09:10:22Z</time>
      </trkpt>
      <trkpt lat="59.070954322814941" lon="30.018424987792969">
        <time>2026-04-25T09:10:24Z</time>
      </trkpt>
      <trkpt lat="59.070954322814941" lon="30.018424987792969">
        <time>2026-04-25T09:10:27Z</time>
      </trkpt>
      <trkpt lat="59.070954322814941" lon="30.018424987792969">
        <time>2026-04-25T09:10:29Z</time>
      </trkpt>
      <trkpt lat="59.070954322814941" lon="30.018424987792969">
        <time>2026-04-25T09:10:32Z</time>
      </trkpt>
      <trkpt lat="59.070975780487061" lon="30.018424987792969">
        <time>2026-04-25T09:10:34Z</time>
      </trkpt>
      <trkpt lat="59.07099723815918" lon="30.01840353012085">
        <time>2026-04-25T09:10:37Z</time>
      </trkpt>
      <trkpt lat="59.071018695831299" lon="30.01838207244873">
        <time>2026-04-25T09:10:39Z</time>
      </trkpt>
      <trkpt lat="59.071040153503418" lon="30.018339157104492">
        <time>2026-04-25T09:10:42Z</time>
      </trkpt>
      <trkpt lat="59.071061611175537" lon="30.018296241760254">
        <time>2026-04-25T09:10:44Z</time>
      </trkpt>
      <trkpt lat="59.071104526519775" lon="30.018317699432373">
        <time>2026-04-25T09:10:47Z</time>
      </trkpt>
      <trkpt lat="59.071147441864014" lon="30.018339157104492">
        <time>2026-04-25T09:10:49Z</time>
      </trkpt>
      <trkpt lat="59.071190357208252" lon="30.018360614776611">
        <time>2026-04-25T09:10:52Z</time>
      </trkpt>
      <trkpt lat="59.071190357208252" lon="30.018360614776611">
        <time>2026-04-25T09:10:54Z</time>
      </trkpt>
      <trkpt lat="59.071190357208252" lon="30.018360614776611">
        <time>2026-04-25T09:10:57Z</time>
      </trkpt>
      <trkpt lat="59.071190357208252" lon="30.018360614776611">
        <time>2026-04-25T09:10:59Z</time>
      </trkpt>
      <trkpt lat="59.07123327255249" lon="30.018360614776611">
        <time>2026-04-25T09:11:02Z</time>
      </trkpt>
      <trkpt lat="59.071254730224609" lon="30.01840353012085">
        <time>2026-04-25T09:11:04Z</time>
      </trkpt>
      <trkpt lat="59.071254730224609" lon="30.018360614776611">
        <time>2026-04-25T09:11:07Z</time>
      </trkpt>
      <trkpt lat="59.07123327255249" lon="30.018360614776611">
        <time>2026-04-25T09:11:09Z</time>
      </trkpt>
      <trkpt lat="59.071211814880371" lon="30.018339157104492">
        <time>2026-04-25T09:11:12Z</time>
      </trkpt>
      <trkpt lat="59.071125984191895" lon="30.018317699432373">
        <time>2026-04-25T09:11:14Z</time>
      </trkpt>
      <trkpt lat="59.071104526519775" lon="30.018339157104492">
        <time>2026-04-25T09:11:17Z</time>
      </trkpt>
      <trkpt lat="59.071147441864014" lon="30.018317699432373">
        <time>2026-04-25T09:11:19Z</time>
      </trkpt>
      <trkpt lat="59.071190357208252" lon="30.018339157104492">
        <time>2026-04-25T09:11:22Z</time>
      </trkpt>
      <trkpt lat="59.071211814880371" lon="30.018317699432373">
        <time>2026-04-25T09:11:24Z</time>
      </trkpt>
      <trkpt lat="59.071254730224609" lon="30.018317699432373">
        <time>2026-04-25T09:11:27Z</time>
      </trkpt>
      <trkpt lat="59.071297645568848" lon="30.018360614776611">
        <time>2026-04-25T09:11:29Z</time>
      </trkpt>
      <trkpt lat="59.071319103240967" lon="30.018339157104492">
        <time>2026-04-25T09:11:32Z</time>
      </trkpt>
      <trkpt lat="59.071362018585205" lon="30.018339157104492">
        <time>2026-04-25T09:11:34Z</time>
      </trkpt>
      <trkpt lat="59.071404933929443" lon="30.018360614776611">
        <time>2026-04-25T09:11:37Z</time>
      </trkpt>
      <trkpt lat="59.071447849273682" lon="30.018360614776611">
        <time>2026-04-25T09:11:39Z</time>
      </trkpt>
      <trkpt lat="59.071469306945801" lon="30.018360614776611">
        <time>2026-04-25T09:11:42Z</time>
      </trkpt>
      <trkpt lat="59.071512222290039" lon="30.018317699432373">
        <time>2026-04-25T09:11:44Z</time>
      </trkpt>
      <trkpt lat="59.071512222290039" lon="30.018317699432373">
        <time>2026-04-25T09:11:47Z</time>
      </trkpt>
      <trkpt lat="59.071533679962158" lon="30.018274784088135">
        <time>2026-04-25T09:11:49Z</time>
      </trkpt>
      <trkpt lat="59.071533679962158" lon="30.018253326416016">
        <time>2026-04-25T09:11:52Z</time>
      </trkpt>
      <trkpt lat="59.071533679962158" lon="30.018317699432373">
        <time>2026-04-25T09:11:54Z</time>
      </trkpt>
      <trkpt lat="59.071512222290039" lon="30.01840353012085">
        <time>2026-04-25T09:11:57Z</time>
      </trkpt>
      <trkpt lat="59.071447849273682" lon="30.018424987792969">
        <time>2026-04-25T09:11:59Z</time>
      </trkpt>
      <trkpt lat="59.071383476257324" lon="30.018446445465088">
        <time>2026-04-25T09:12:02Z</time>
      </trkpt>
      <trkpt lat="59.071362018585205" lon="30.018467903137207">
        <time>2026-04-25T09:12:04Z</time>
      </trkpt>
      <trkpt lat="59.071362018585205" lon="30.018424987792969">
        <time>2026-04-25T09:12:07Z</time>
      </trkpt>
      <trkpt lat="59.071383476257324" lon="30.018424987792969">
        <time>2026-04-25T09:12:09Z</time>
      </trkpt>
      <trkpt lat="59.071447849273682" lon="30.01838207244873">
        <time>2026-04-25T09:12:12Z</time>
      </trkpt>
      <trkpt lat="59.071469306945801" lon="30.018360614776611">
        <time>2026-04-25T09:12:14Z</time>
      </trkpt>
      <trkpt lat="59.071469306945801" lon="30.018317699432373">
        <time>2026-04-25T09:12:17Z</time>
      </trkpt>
      <trkpt lat="59.071533679962158" lon="30.018210411071777">
        <time>2026-04-25T09:12:19Z</time>
      </trkpt>
      <trkpt lat="59.071555137634277" lon="30.018167495727539">
        <time>2026-04-25T09:12:22Z</time>
      </trkpt>
      <trkpt lat="59.071598052978516" lon="30.018124580383301">
        <time>2026-04-25T09:12:24Z</time>
      </trkpt>
      <trkpt lat="59.071640968322754" lon="30.018103122711182">
        <time>2026-04-25T09:12:27Z</time>
      </trkpt>
      <trkpt lat="59.07172679901123" lon="30.018038749694824">
        <time>2026-04-25T09:12:29Z</time>
      </trkpt>
      <trkpt lat="59.071791172027588" lon="30.018038749694824">
        <time>2026-04-25T09:12:32Z</time>
      </trkpt>
      <trkpt lat="59.071834087371826" lon="30.018081665039063">
        <time>2026-04-25T09:12:34Z</time>
      </trkpt>
      <trkpt lat="59.071834087371826" lon="30.018081665039063">
        <time>2026-04-25T09:12:37Z</time>
      </trkpt>
      <trkpt lat="59.071812629699707" lon="30.018038749694824">
        <time>2026-04-25T09:12:39Z</time>
      </trkpt>
      <trkpt lat="59.071791172027588" lon="30.018060207366943">
        <time>2026-04-25T09:12:42Z</time>
      </trkpt>
      <trkpt lat="59.07172679901123" lon="30.018103122711182">
        <time>2026-04-25T09:12:44Z</time>
      </trkpt>
      <trkpt lat="59.071705341339111" lon="30.018103122711182">
        <time>2026-04-25T09:12:47Z</time>
      </trkpt>
      <trkpt lat="59.071662425994873" lon="30.018124580383301">
        <time>2026-04-25T09:12:49Z</time>
      </trkpt>
      <trkpt lat="59.071683883666992" lon="30.018081665039063">
        <time>2026-04-25T09:12:52Z</time>
      </trkpt>
      <trkpt lat="59.07174825668335" lon="30.017952919006348">
        <time>2026-04-25T09:12:54Z</time>
      </trkpt>
      <trkpt lat="59.071812629699707" lon="30.017845630645752">
        <time>2026-04-25T09:12:57Z</time>
      </trkpt>
      <trkpt lat="59.071855545043945" lon="30.017716884613037">
        <time>2026-04-25T09:12:59Z</time>
      </trkpt>
      <trkpt lat="59.071898460388184" lon="30.017631053924561">
        <time>2026-04-25T09:13:02Z</time>
      </trkpt>
      <trkpt lat="59.071919918060303" lon="30.017566680908203">
        <time>2026-04-25T09:13:04Z</time>
      </trkpt>
      <trkpt lat="59.071941375732422" lon="30.017566680908203">
        <time>2026-04-25T09:13:07Z</time>
      </trkpt>
      <trkpt lat="59.07198429107666" lon="30.017609596252441">
        <time>2026-04-25T09:13:09Z</time>
      </trkpt>
      <trkpt lat="59.071962833404541" lon="30.017588138580322">
        <time>2026-04-25T09:13:12Z</time>
      </trkpt>
      <trkpt lat="59.071962833404541" lon="30.017545223236084">
        <time>2026-04-25T09:13:14Z</time>
      </trkpt>
      <trkpt lat="59.071962833404541" lon="30.017545223236084">
        <time>2026-04-25T09:13:17Z</time>
      </trkpt>
      <trkpt lat="59.071962833404541" lon="30.017480850219727">
        <time>2026-04-25T09:13:19Z</time>
      </trkpt>
      <trkpt lat="59.07198429107666" lon="30.017437934875488">
        <time>2026-04-25T09:13:22Z</time>
      </trkpt>
      <trkpt lat="59.072048664093018" lon="30.017373561859131">
        <time>2026-04-25T09:13:24Z</time>
      </trkpt>
      <trkpt lat="59.072070121765137" lon="30.017330646514893">
        <time>2026-04-25T09:13:27Z</time>
      </trkpt>
      <trkpt lat="59.072113037109375" lon="30.017287731170654">
        <time>2026-04-25T09:13:29Z</time>
      </trkpt>
      <trkpt lat="59.072113037109375" lon="30.017266273498535">
        <time>2026-04-25T09:13:32Z</time>
      </trkpt>
      <trkpt lat="59.072113037109375" lon="30.017266273498535">
        <time>2026-04-25T09:13:34Z</time>
      </trkpt>
      <trkpt lat="59.072113037109375" lon="30.017266273498535">
        <time>2026-04-25T09:13:37Z</time>
      </trkpt>
      <trkpt lat="59.072113037109375" lon="30.017266273498535">
        <time>2026-04-25T09:13:39Z</time>
      </trkpt>
      <trkpt lat="59.072113037109375" lon="30.017266273498535">
        <time>2026-04-25T09:13:42Z</time>
      </trkpt>
      <trkpt lat="59.072113037109375" lon="30.017266273498535">
        <time>2026-04-25T09:13:44Z</time>
      </trkpt>
      <trkpt lat="59.072113037109375" lon="30.017266273498535">
        <time>2026-04-25T09:13:47Z</time>
      </trkpt>
      <trkpt lat="59.072113037109375" lon="30.017201900482178">
        <time>2026-04-25T09:13:49Z</time>
      </trkpt>
      <trkpt lat="59.072113037109375" lon="30.017158985137939">
        <time>2026-04-25T09:13:52Z</time>
      </trkpt>
      <trkpt lat="59.072113037109375" lon="30.017116069793701">
        <time>2026-04-25T09:13:54Z</time>
      </trkpt>
      <trkpt lat="59.072113037109375" lon="30.017116069793701">
        <time>2026-04-25T09:13:57Z</time>
      </trkpt>
      <trkpt lat="59.072113037109375" lon="30.017116069793701">
        <time>2026-04-25T09:13:59Z</time>
      </trkpt>
      <trkpt lat="59.072091579437256" lon="30.017094612121582">
        <time>2026-04-25T09:14:02Z</time>
      </trkpt>
      <trkpt lat="59.072091579437256" lon="30.017094612121582">
        <time>2026-04-25T09:14:04Z</time>
      </trkpt>
      <trkpt lat="59.072091579437256" lon="30.017094612121582">
        <time>2026-04-25T09:14:07Z</time>
      </trkpt>
      <trkpt lat="59.072113037109375" lon="30.017158985137939">
        <time>2026-04-25T09:14:09Z</time>
      </trkpt>
      <trkpt lat="59.072113037109375" lon="30.017266273498535">
        <time>2026-04-25T09:14:12Z</time>
      </trkpt>
      <trkpt lat="59.072113037109375" lon="30.01739501953125">
        <time>2026-04-25T09:14:14Z</time>
      </trkpt>
      <trkpt lat="59.072113037109375" lon="30.017437934875488">
        <time>2026-04-25T09:14:17Z</time>
      </trkpt>
      <trkpt lat="59.072113037109375" lon="30.017416477203369">
        <time>2026-04-25T09:14:19Z</time>
      </trkpt>
      <trkpt lat="59.072113037109375" lon="30.017330646514893">
        <time>2026-04-25T09:14:22Z</time>
      </trkpt>
      <trkpt lat="59.072113037109375" lon="30.017201900482178">
        <time>2026-04-25T09:14:24Z</time>
      </trkpt>
      <trkpt lat="59.072113037109375" lon="30.017116069793701">
        <time>2026-04-25T09:14:27Z</time>
      </trkpt>
      <trkpt lat="59.072134494781494" lon="30.017094612121582">
        <time>2026-04-25T09:14:29Z</time>
      </trkpt>
      <trkpt lat="59.072134494781494" lon="30.017051696777344">
        <time>2026-04-25T09:14:32Z</time>
      </trkpt>
      <trkpt lat="59.072134494781494" lon="30.017051696777344">
        <time>2026-04-25T09:14:34Z</time>
      </trkpt>
      <trkpt lat="59.072113037109375" lon="30.017051696777344">
        <time>2026-04-25T09:14:37Z</time>
      </trkpt>
      <trkpt lat="59.072134494781494" lon="30.017073154449463">
        <time>2026-04-25T09:14:39Z</time>
      </trkpt>
      <trkpt lat="59.072155952453613" lon="30.017094612121582">
        <time>2026-04-25T09:14:42Z</time>
      </trkpt>
      <trkpt lat="59.072177410125732" lon="30.017073154449463">
        <time>2026-04-25T09:14:44Z</time>
      </trkpt>
      <trkpt lat="59.072220325469971" lon="30.017051696777344">
        <time>2026-04-25T09:14:47Z</time>
      </trkpt>
      <trkpt lat="59.07224178314209" lon="30.016965866088867">
        <time>2026-04-25T09:14:49Z</time>
      </trkpt>
      <trkpt lat="59.072284698486328" lon="30.016922950744629">
        <time>2026-04-25T09:14:52Z</time>
      </trkpt>
      <trkpt lat="59.072306156158447" lon="30.016837120056152">
        <time>2026-04-25T09:14:54Z</time>
      </trkpt>
      <trkpt lat="59.072327613830566" lon="30.016815662384033">
        <time>2026-04-25T09:14:57Z</time>
      </trkpt>
      <trkpt lat="59.072349071502686" lon="30.016772747039795">
        <time>2026-04-25T09:14:59Z</time>
      </trkpt>
      <trkpt lat="59.072349071502686" lon="30.016729831695557">
        <time>2026-04-25T09:15:02Z</time>
      </trkpt>
      <trkpt lat="59.072370529174805" lon="30.016729831695557">
        <time>2026-04-25T09:15:04Z</time>
      </trkpt>
      <trkpt lat="59.072391986846924" lon="30.016751289367676">
        <time>2026-04-25T09:15:07Z</time>
      </trkpt>
      <trkpt lat="59.072413444519043" lon="30.016794204711914">
        <time>2026-04-25T09:15:09Z</time>
      </trkpt>
      <trkpt lat="59.072413444519043" lon="30.016815662384033">
        <time>2026-04-25T09:15:12Z</time>
      </trkpt>
      <trkpt lat="59.072434902191162" lon="30.016772747039795">
        <time>2026-04-25T09:15:14Z</time>
      </trkpt>
      <trkpt lat="59.072434902191162" lon="30.016772747039795">
        <time>2026-04-25T09:15:17Z</time>
      </trkpt>
      <trkpt lat="59.072434902191162" lon="30.016729831695557">
        <time>2026-04-25T09:15:19Z</time>
      </trkpt>
      <trkpt lat="59.072456359863281" lon="30.016665458679199">
        <time>2026-04-25T09:15:22Z</time>
      </trkpt>
      <trkpt lat="59.07249927520752" lon="30.016622543334961">
        <time>2026-04-25T09:15:24Z</time>
      </trkpt>
      <trkpt lat="59.07249927520752" lon="30.016622543334961">
        <time>2026-04-25T09:15:27Z</time>
      </trkpt>
      <trkpt lat="59.07249927520752" lon="30.016579627990723">
        <time>2026-04-25T09:15:29Z</time>
      </trkpt>
      <trkpt lat="59.07249927520752" lon="30.016579627990723">
        <time>2026-04-25T09:15:32Z</time>
      </trkpt>
      <trkpt lat="59.07249927520752" lon="30.016579627990723">
        <time>2026-04-25T09:15:34Z</time>
      </trkpt>
      <trkpt lat="59.07249927520752" lon="30.016579627990723">
        <time>2026-04-25T09:15:37Z</time>
      </trkpt>
      <trkpt lat="59.07249927520752" lon="30.016579627990723">
        <time>2026-04-25T09:15:39Z</time>
      </trkpt>
      <trkpt lat="59.07249927520752" lon="30.016579627990723">
        <time>2026-04-25T09:15:42Z</time>
      </trkpt>
      <trkpt lat="59.072542190551758" lon="30.016472339630127">
        <time>2026-04-25T09:15:44Z</time>
      </trkpt>
      <trkpt lat="59.072585105895996" lon="30.016450881958008">
        <time>2026-04-25T09:15:47Z</time>
      </trkpt>
      <trkpt lat="59.072649478912354" lon="30.01640796661377">
        <time>2026-04-25T09:15:49Z</time>
      </trkpt>
      <trkpt lat="59.072670936584473" lon="30.01638650894165">
        <time>2026-04-25T09:15:52Z</time>
      </trkpt>
      <trkpt lat="59.072713851928711" lon="30.016365051269531">
        <time>2026-04-25T09:15:54Z</time>
      </trkpt>
      <trkpt lat="59.072713851928711" lon="30.016365051269531">
        <time>2026-04-25T09:15:57Z</time>
      </trkpt>
      <trkpt lat="59.072713851928711" lon="30.016365051269531">
        <time>2026-04-25T09:15:59Z</time>
      </trkpt>
      <trkpt lat="59.072713851928711" lon="30.016365051269531">
        <time>2026-04-25T09:16:02Z</time>
      </trkpt>
      <trkpt lat="59.072606563568115" lon="30.01640796661377">
        <time>2026-04-25T09:16:04Z</time>
      </trkpt>
      <trkpt lat="59.072606563568115" lon="30.01640796661377">
        <time>2026-04-25T09:16:07Z</time>
      </trkpt>
      <trkpt lat="59.072692394256592" lon="30.016429424285889">
        <time>2026-04-25T09:16:09Z</time>
      </trkpt>
      <trkpt lat="59.072692394256592" lon="30.01638650894165">
        <time>2026-04-25T09:16:12Z</time>
      </trkpt>
      <trkpt lat="59.072713851928711" lon="30.016279220581055">
        <time>2026-04-25T09:16:14Z</time>
      </trkpt>
      <trkpt lat="59.07273530960083" lon="30.016193389892578">
        <time>2026-04-25T09:16:17Z</time>
      </trkpt>
      <trkpt lat="59.072778224945068" lon="30.016064643859863">
        <time>2026-04-25T09:16:19Z</time>
      </trkpt>
      <trkpt lat="59.072778224945068" lon="30.016021728515625">
        <time>2026-04-25T09:16:22Z</time>
      </trkpt>
      <trkpt lat="59.072821140289307" lon="30.015978813171387">
        <time>2026-04-25T09:16:24Z</time>
      </trkpt>
      <trkpt lat="59.072842597961426" lon="30.015935897827148">
        <time>2026-04-25T09:16:27Z</time>
      </trkpt>
      <trkpt lat="59.072842597961426" lon="30.01589298248291">
        <time>2026-04-25T09:16:29Z</time>
      </trkpt>
      <trkpt lat="59.072842597961426" lon="30.015807151794434">
        <time>2026-04-25T09:16:32Z</time>
      </trkpt>
      <trkpt lat="59.072842597961426" lon="30.015807151794434">
        <time>2026-04-25T09:16:34Z</time>
      </trkpt>
      <trkpt lat="59.072778224945068" lon="30.015785694122314">
        <time>2026-04-25T09:16:37Z</time>
      </trkpt>
      <trkpt lat="59.072842597961426" lon="30.015807151794434">
        <time>2026-04-25T09:16:39Z</time>
      </trkpt>
      <trkpt lat="59.072842597961426" lon="30.01589298248291">
        <time>2026-04-25T09:16:42Z</time>
      </trkpt>
      <trkpt lat="59.072778224945068" lon="30.016043186187744">
        <time>2026-04-25T09:16:44Z</time>
      </trkpt>
      <trkpt lat="59.07273530960083" lon="30.016064643859863">
        <time>2026-04-25T09:16:47Z</time>
      </trkpt>
      <trkpt lat="59.072756767272949" lon="30.016021728515625">
        <time>2026-04-25T09:16:49Z</time>
      </trkpt>
      <trkpt lat="59.072842597961426" lon="30.016064643859863">
        <time>2026-04-25T09:16:52Z</time>
      </trkpt>
      <trkpt lat="59.072928428649902" lon="30.015935897827148">
        <time>2026-04-25T09:16:54Z</time>
      </trkpt>
      <trkpt lat="59.072906970977783" lon="30.015850067138672">
        <time>2026-04-25T09:16:57Z</time>
      </trkpt>
      <trkpt lat="59.072906970977783" lon="30.015935897827148">
        <time>2026-04-25T09:16:59Z</time>
      </trkpt>
      <trkpt lat="59.072885513305664" lon="30.016043186187744">
        <time>2026-04-25T09:17:02Z</time>
      </trkpt>
      <trkpt lat="59.072799682617187" lon="30.01615047454834">
        <time>2026-04-25T09:17:04Z</time>
      </trkpt>
      <trkpt lat="59.072821140289307" lon="30.016129016876221">
        <time>2026-04-25T09:17:07Z</time>
      </trkpt>
      <trkpt lat="59.072906970977783" lon="30.016000270843506">
        <time>2026-04-25T09:17:09Z</time>
      </trkpt>
      <trkpt lat="59.072906970977783" lon="30.01589298248291">
        <time>2026-04-25T09:17:12Z</time>
      </trkpt>
      <trkpt lat="59.072971343994141" lon="30.015828609466553">
        <time>2026-04-25T09:17:14Z</time>
      </trkpt>
      <trkpt lat="59.073014259338379" lon="30.015785694122314">
        <time>2026-04-25T09:17:17Z</time>
      </trkpt>
      <trkpt lat="59.073121547698975" lon="30.015742778778076">
        <time>2026-04-25T09:17:19Z</time>
      </trkpt>
      <trkpt lat="59.073143005371094" lon="30.015699863433838">
        <time>2026-04-25T09:17:22Z</time>
      </trkpt>
      <trkpt lat="59.073185920715332" lon="30.015678405761719">
        <time>2026-04-25T09:17:24Z</time>
      </trkpt>
      <trkpt lat="59.07322883605957" lon="30.015721321105957">
        <time>2026-04-25T09:17:27Z</time>
      </trkpt>
      <trkpt lat="59.07322883605957" lon="30.015807151794434">
        <time>2026-04-25T09:17:29Z</time>
      </trkpt>
      <trkpt lat="59.07322883605957" lon="30.015828609466553">
        <time>2026-04-25T09:17:32Z</time>
      </trkpt>
      <trkpt lat="59.07322883605957" lon="30.015721321105957">
        <time>2026-04-25T09:17:34Z</time>
      </trkpt>
      <trkpt lat="59.073185920715332" lon="30.0156569480896">
        <time>2026-04-25T09:17:37Z</time>
      </trkpt>
      <trkpt lat="59.073078632354736" lon="30.015571117401123">
        <time>2026-04-25T09:17:39Z</time>
      </trkpt>
      <trkpt lat="59.073121547698975" lon="30.015614032745361">
        <time>2026-04-25T09:17:42Z</time>
      </trkpt>
      <trkpt lat="59.07322883605957" lon="30.0156569480896">
        <time>2026-04-25T09:17:44Z</time>
      </trkpt>
      <trkpt lat="59.073314666748047" lon="30.01563549041748">
        <time>2026-04-25T09:17:47Z</time>
      </trkpt>
      <trkpt lat="59.073400497436523" lon="30.01563549041748">
        <time>2026-04-25T09:17:49Z</time>
      </trkpt>
      <trkpt lat="59.073400497436523" lon="30.015614032745361">
        <time>2026-04-25T09:17:52Z</time>
      </trkpt>
      <trkpt lat="59.073400497436523" lon="30.015549659729004">
        <time>2026-04-25T09:17:54Z</time>
      </trkpt>
      <trkpt lat="59.073400497436523" lon="30.015549659729004">
        <time>2026-04-25T09:17:57Z</time>
      </trkpt>
      <trkpt lat="59.073421955108643" lon="30.015528202056885">
        <time>2026-04-25T09:17:59Z</time>
      </trkpt>
      <trkpt lat="59.073421955108643" lon="30.015485286712646">
        <time>2026-04-25T09:18:02Z</time>
      </trkpt>
      <trkpt lat="59.073421955108643" lon="30.015463829040527">
        <time>2026-04-25T09:18:04Z</time>
      </trkpt>
      <trkpt lat="59.073379039764404" lon="30.015442371368408">
        <time>2026-04-25T09:18:07Z</time>
      </trkpt>
      <trkpt lat="59.073293209075928" lon="30.015485286712646">
        <time>2026-04-25T09:18:09Z</time>
      </trkpt>
      <trkpt lat="59.073314666748047" lon="30.015463829040527">
        <time>2026-04-25T09:18:12Z</time>
      </trkpt>
      <trkpt lat="59.073400497436523" lon="30.015420913696289">
        <time>2026-04-25T09:18:14Z</time>
      </trkpt>
      <trkpt lat="59.073464870452881" lon="30.015377998352051">
        <time>2026-04-25T09:18:17Z</time>
      </trkpt>
      <trkpt lat="59.073507785797119" lon="30.015292167663574">
        <time>2026-04-25T09:18:19Z</time>
      </trkpt>
      <trkpt lat="59.073529243469238" lon="30.015249252319336">
        <time>2026-04-25T09:18:22Z</time>
      </trkpt>
      <trkpt lat="59.073550701141357" lon="30.015163421630859">
        <time>2026-04-25T09:18:24Z</time>
      </trkpt>
      <trkpt lat="59.073550701141357" lon="30.01514196395874">
        <time>2026-04-25T09:18:27Z</time>
      </trkpt>
      <trkpt lat="59.073550701141357" lon="30.01514196395874">
        <time>2026-04-25T09:18:29Z</time>
      </trkpt>
      <trkpt lat="59.073550701141357" lon="30.01514196395874">
        <time>2026-04-25T09:18:32Z</time>
      </trkpt>
      <trkpt lat="59.073572158813477" lon="30.01514196395874">
        <time>2026-04-25T09:18:34Z</time>
      </trkpt>
      <trkpt lat="59.073572158813477" lon="30.015099048614502">
        <time>2026-04-25T09:18:37Z</time>
      </trkpt>
      <trkpt lat="59.073572158813477" lon="30.015099048614502">
        <time>2026-04-25T09:18:39Z</time>
      </trkpt>
      <trkpt lat="59.073593616485596" lon="30.015056133270264">
        <time>2026-04-25T09:18:42Z</time>
      </trkpt>
      <trkpt lat="59.073615074157715" lon="30.014970302581787">
        <time>2026-04-25T09:18:44Z</time>
      </trkpt>
      <trkpt lat="59.073657989501953" lon="30.014927387237549">
        <time>2026-04-25T09:18:47Z</time>
      </trkpt>
      <trkpt lat="59.073700904846191" lon="30.014863014221191">
        <time>2026-04-25T09:18:49Z</time>
      </trkpt>
      <trkpt lat="59.073722362518311" lon="30.014841556549072">
        <time>2026-04-25T09:18:52Z</time>
      </trkpt>
      <trkpt lat="59.073722362518311" lon="30.014841556549072">
        <time>2026-04-25T09:18:54Z</time>
      </trkpt>
      <trkpt lat="59.073722362518311" lon="30.014841556549072">
        <time>2026-04-25T09:18:57Z</time>
      </trkpt>
      <trkpt lat="59.073722362518311" lon="30.014841556549072">
        <time>2026-04-25T09:18:59Z</time>
      </trkpt>
      <trkpt lat="59.073722362518311" lon="30.014841556549072">
        <time>2026-04-25T09:19:02Z</time>
      </trkpt>
      <trkpt lat="59.07374382019043" lon="30.01490592956543">
        <time>2026-04-25T09:19:04Z</time>
      </trkpt>
      <trkpt lat="59.07374382019043" lon="30.014927387237549">
        <time>2026-04-25T09:19:07Z</time>
      </trkpt>
      <trkpt lat="59.07374382019043" lon="30.014841556549072">
        <time>2026-04-25T09:19:09Z</time>
      </trkpt>
      <trkpt lat="59.073679447174072" lon="30.014884471893311">
        <time>2026-04-25T09:19:12Z</time>
      </trkpt>
      <trkpt lat="59.073593616485596" lon="30.015099048614502">
        <time>2026-04-25T09:19:14Z</time>
      </trkpt>
      <trkpt lat="59.073572158813477" lon="30.015163421630859">
        <time>2026-04-25T09:19:17Z</time>
      </trkpt>
      <trkpt lat="59.073636531829834" lon="30.014991760253906">
        <time>2026-04-25T09:19:19Z</time>
      </trkpt>
      <trkpt lat="59.073700904846191" lon="30.014884471893311">
        <time>2026-04-25T09:19:22Z</time>
      </trkpt>
      <trkpt lat="59.073786735534668" lon="30.014863014221191">
        <time>2026-04-25T09:19:24Z</time>
      </trkpt>
      <trkpt lat="59.073808193206787" lon="30.014798641204834">
        <time>2026-04-25T09:19:27Z</time>
      </trkpt>
      <trkpt lat="59.073829650878906" lon="30.014712810516357">
        <time>2026-04-25T09:19:29Z</time>
      </trkpt>
      <trkpt lat="59.073872566223145" lon="30.014626979827881">
        <time>2026-04-25T09:19:32Z</time>
      </trkpt>
      <trkpt lat="59.073872566223145" lon="30.014605522155762">
        <time>2026-04-25T09:19:34Z</time>
      </trkpt>
      <trkpt lat="59.073851108551025" lon="30.0146484375">
        <time>2026-04-25T09:19:37Z</time>
      </trkpt>
      <trkpt lat="59.073872566223145" lon="30.014626979827881">
        <time>2026-04-25T09:19:39Z</time>
      </trkpt>
      <trkpt lat="59.073936939239502" lon="30.014541149139404">
        <time>2026-04-25T09:19:42Z</time>
      </trkpt>
      <trkpt lat="59.073958396911621" lon="30.014519691467285">
        <time>2026-04-25T09:19:44Z</time>
      </trkpt>
      <trkpt lat="59.074001312255859" lon="30.014498233795166">
        <time>2026-04-25T09:19:47Z</time>
      </trkpt>
      <trkpt lat="59.074001312255859" lon="30.014455318450928">
        <time>2026-04-25T09:19:49Z</time>
      </trkpt>
      <trkpt lat="59.074044227600098" lon="30.014369487762451">
        <time>2026-04-25T09:19:52Z</time>
      </trkpt>
      <trkpt lat="59.074065685272217" lon="30.014369487762451">
        <time>2026-04-25T09:19:54Z</time>
      </trkpt>
      <trkpt lat="59.074130058288574" lon="30.014369487762451">
        <time>2026-04-25T09:19:57Z</time>
      </trkpt>
      <trkpt lat="59.074151515960693" lon="30.014348030090332">
        <time>2026-04-25T09:19:59Z</time>
      </trkpt>
      <trkpt lat="59.074151515960693" lon="30.014326572418213">
        <time>2026-04-25T09:20:02Z</time>
      </trkpt>
      <trkpt lat="59.074130058288574" lon="30.014369487762451">
        <time>2026-04-25T09:20:04Z</time>
      </trkpt>
      <trkpt lat="59.074065685272217" lon="30.01439094543457">
        <time>2026-04-25T09:20:07Z</time>
      </trkpt>
      <trkpt lat="59.074022769927979" lon="30.014412403106689">
        <time>2026-04-25T09:20:09Z</time>
      </trkpt>
      <trkpt lat="59.074022769927979" lon="30.014412403106689">
        <time>2026-04-25T09:20:12Z</time>
      </trkpt>
      <trkpt lat="59.074087142944336" lon="30.01439094543457">
        <time>2026-04-25T09:20:14Z</time>
      </trkpt>
      <trkpt lat="59.074130058288574" lon="30.014369487762451">
        <time>2026-04-25T09:20:17Z</time>
      </trkpt>
      <trkpt lat="59.074087142944336" lon="30.014348030090332">
        <time>2026-04-25T09:20:19Z</time>
      </trkpt>
      <trkpt lat="59.074065685272217" lon="30.014348030090332">
        <time>2026-04-25T09:20:22Z</time>
      </trkpt>
      <trkpt lat="59.074044227600098" lon="30.014348030090332">
        <time>2026-04-25T09:20:24Z</time>
      </trkpt>
      <trkpt lat="59.074044227600098" lon="30.014348030090332">
        <time>2026-04-25T09:20:27Z</time>
      </trkpt>
      <trkpt lat="59.074087142944336" lon="30.014369487762451">
        <time>2026-04-25T09:20:29Z</time>
      </trkpt>
      <trkpt lat="59.074087142944336" lon="30.014455318450928">
        <time>2026-04-25T09:20:32Z</time>
      </trkpt>
      <trkpt lat="59.074087142944336" lon="30.014626979827881">
        <time>2026-04-25T09:20:34Z</time>
      </trkpt>
      <trkpt lat="59.074044227600098" lon="30.0146484375">
        <time>2026-04-25T09:20:37Z</time>
      </trkpt>
      <trkpt lat="59.074087142944336" lon="30.014626979827881">
        <time>2026-04-25T09:20:39Z</time>
      </trkpt>
      <trkpt lat="59.074087142944336" lon="30.014541149139404">
        <time>2026-04-25T09:20:42Z</time>
      </trkpt>
      <trkpt lat="59.074044227600098" lon="30.014498233795166">
        <time>2026-04-25T09:20:44Z</time>
      </trkpt>
      <trkpt lat="59.074001312255859" lon="30.014562606811523">
        <time>2026-04-25T09:20:47Z</time>
      </trkpt>
      <trkpt lat="59.07397985458374" lon="30.014584064483643">
        <time>2026-04-25T09:20:49Z</time>
      </trkpt>
      <trkpt lat="59.074022769927979" lon="30.014541149139404">
        <time>2026-04-25T09:20:52Z</time>
      </trkpt>
      <trkpt lat="59.074044227600098" lon="30.014455318450928">
        <time>2026-04-25T09:20:54Z</time>
      </trkpt>
      <trkpt lat="59.074065685272217" lon="30.014412403106689">
        <time>2026-04-25T09:20:57Z</time>
      </trkpt>
      <trkpt lat="59.074065685272217" lon="30.014348030090332">
        <time>2026-04-25T09:20:59Z</time>
      </trkpt>
      <trkpt lat="59.074065685272217" lon="30.014326572418213">
        <time>2026-04-25T09:21:02Z</time>
      </trkpt>
      <trkpt lat="59.074044227600098" lon="30.014326572418213">
        <time>2026-04-25T09:21:04Z</time>
      </trkpt>
      <trkpt lat="59.074022769927979" lon="30.014305114746094">
        <time>2026-04-25T09:21:07Z</time>
      </trkpt>
      <trkpt lat="59.074001312255859" lon="30.014305114746094">
        <time>2026-04-25T09:21:09Z</time>
      </trkpt>
      <trkpt lat="59.074044227600098" lon="30.014326572418213">
        <time>2026-04-25T09:21:12Z</time>
      </trkpt>
      <trkpt lat="59.074087142944336" lon="30.01439094543457">
        <time>2026-04-25T09:21:14Z</time>
      </trkpt>
      <trkpt lat="59.074108600616455" lon="30.014498233795166">
        <time>2026-04-25T09:21:17Z</time>
      </trkpt>
      <trkpt lat="59.074087142944336" lon="30.014734268188477">
        <time>2026-04-25T09:21:19Z</time>
      </trkpt>
      <trkpt lat="59.074044227600098" lon="30.014863014221191">
        <time>2026-04-25T09:21:22Z</time>
      </trkpt>
      <trkpt lat="59.074001312255859" lon="30.014948844909668">
        <time>2026-04-25T09:21:24Z</time>
      </trkpt>
      <trkpt lat="59.074044227600098" lon="30.01490592956543">
        <time>2026-04-25T09:21:27Z</time>
      </trkpt>
      <trkpt lat="59.074087142944336" lon="30.014691352844238">
        <time>2026-04-25T09:21:29Z</time>
      </trkpt>
      <trkpt lat="59.074087142944336" lon="30.014562606811523">
        <time>2026-04-25T09:21:32Z</time>
      </trkpt>
      <trkpt lat="59.074108600616455" lon="30.014455318450928">
        <time>2026-04-25T09:21:34Z</time>
      </trkpt>
      <trkpt lat="59.074130058288574" lon="30.014412403106689">
        <time>2026-04-25T09:21:37Z</time>
      </trkpt>
      <trkpt lat="59.074130058288574" lon="30.014369487762451">
        <time>2026-04-25T09:21:39Z</time>
      </trkpt>
      <trkpt lat="59.074108600616455" lon="30.014369487762451">
        <time>2026-04-25T09:21:42Z</time>
      </trkpt>
      <trkpt lat="59.074065685272217" lon="30.014326572418213">
        <time>2026-04-25T09:21:44Z</time>
      </trkpt>
      <trkpt lat="59.074022769927979" lon="30.014348030090332">
        <time>2026-04-25T09:21:47Z</time>
      </trkpt>
      <trkpt lat="59.073958396911621" lon="30.014262199401855">
        <time>2026-04-25T09:21:49Z</time>
      </trkpt>
      <trkpt lat="59.073915481567383" lon="30.014240741729736">
        <time>2026-04-25T09:21:52Z</time>
      </trkpt>
      <trkpt lat="59.073915481567383" lon="30.014240741729736">
        <time>2026-04-25T09:21:54Z</time>
      </trkpt>
      <trkpt lat="59.073958396911621" lon="30.014262199401855">
        <time>2026-04-25T09:21:57Z</time>
      </trkpt>
      <trkpt lat="59.074022769927979" lon="30.014326572418213">
        <time>2026-04-25T09:21:59Z</time>
      </trkpt>
      <trkpt lat="59.074044227600098" lon="30.014348030090332">
        <time>2026-04-25T09:22:02Z</time>
      </trkpt>
      <trkpt lat="59.074108600616455" lon="30.014476776123047">
        <time>2026-04-25T09:22:04Z</time>
      </trkpt>
      <trkpt lat="59.074087142944336" lon="30.014605522155762">
        <time>2026-04-25T09:22:07Z</time>
      </trkpt>
      <trkpt lat="59.074022769927979" lon="30.014669895172119">
        <time>2026-04-25T09:22:09Z</time>
      </trkpt>
      <trkpt lat="59.074044227600098" lon="30.0146484375">
        <time>2026-04-25T09:22:12Z</time>
      </trkpt>
      <trkpt lat="59.074108600616455" lon="30.014626979827881">
        <time>2026-04-25T09:22:14Z</time>
      </trkpt>
      <trkpt lat="59.074108600616455" lon="30.014584064483643">
        <time>2026-04-25T09:22:17Z</time>
      </trkpt>
      <trkpt lat="59.074108600616455" lon="30.014498233795166">
        <time>2026-04-25T09:22:19Z</time>
      </trkpt>
      <trkpt lat="59.074108600616455" lon="30.014433860778809">
        <time>2026-04-25T09:22:22Z</time>
      </trkpt>
      <trkpt lat="59.074065685272217" lon="30.014369487762451">
        <time>2026-04-25T09:22:24Z</time>
      </trkpt>
      <trkpt lat="59.074044227600098" lon="30.014412403106689">
        <time>2026-04-25T09:22:27Z</time>
      </trkpt>
      <trkpt lat="59.074022769927979" lon="30.014433860778809">
        <time>2026-04-25T09:22:29Z</time>
      </trkpt>
      <trkpt lat="59.074044227600098" lon="30.01439094543457">
        <time>2026-04-25T09:22:32Z</time>
      </trkpt>
      <trkpt lat="59.074044227600098" lon="30.01439094543457">
        <time>2026-04-25T09:22:34Z</time>
      </trkpt>
      <trkpt lat="59.074044227600098" lon="30.01439094543457">
        <time>2026-04-25T09:22:37Z</time>
      </trkpt>
      <trkpt lat="59.074022769927979" lon="30.014348030090332">
        <time>2026-04-25T09:22:39Z</time>
      </trkpt>
      <trkpt lat="59.07397985458374" lon="30.014283657073975">
        <time>2026-04-25T09:22:42Z</time>
      </trkpt>
      <trkpt lat="59.073894023895264" lon="30.014240741729736">
        <time>2026-04-25T09:22:44Z</time>
      </trkpt>
      <trkpt lat="59.073851108551025" lon="30.014176368713379">
        <time>2026-04-25T09:22:47Z</time>
      </trkpt>
      <trkpt lat="59.073808193206787" lon="30.014090538024902">
        <time>2026-04-25T09:22:49Z</time>
      </trkpt>
      <trkpt lat="59.073851108551025" lon="30.01415491104126">
        <time>2026-04-25T09:22:52Z</time>
      </trkpt>
      <trkpt lat="59.073915481567383" lon="30.014240741729736">
        <time>2026-04-25T09:22:54Z</time>
      </trkpt>
      <trkpt lat="59.07397985458374" lon="30.014262199401855">
        <time>2026-04-25T09:22:57Z</time>
      </trkpt>
      <trkpt lat="59.074044227600098" lon="30.014348030090332">
        <time>2026-04-25T09:22:59Z</time>
      </trkpt>
      <trkpt lat="59.074087142944336" lon="30.01439094543457">
        <time>2026-04-25T09:23:02Z</time>
      </trkpt>
      <trkpt lat="59.074087142944336" lon="30.014584064483643">
        <time>2026-04-25T09:23:04Z</time>
      </trkpt>
      <trkpt lat="59.074065685272217" lon="30.014734268188477">
        <time>2026-04-25T09:23:07Z</time>
      </trkpt>
      <trkpt lat="59.074001312255859" lon="30.014927387237549">
        <time>2026-04-25T09:23:09Z</time>
      </trkpt>
      <trkpt lat="59.074001312255859" lon="30.014927387237549">
        <time>2026-04-25T09:23:12Z</time>
      </trkpt>
      <trkpt lat="59.074065685272217" lon="30.014777183532715">
        <time>2026-04-25T09:23:14Z</time>
      </trkpt>
      <trkpt lat="59.074108600616455" lon="30.014626979827881">
        <time>2026-04-25T09:23:17Z</time>
      </trkpt>
      <trkpt lat="59.074108600616455" lon="30.014433860778809">
        <time>2026-04-25T09:23:19Z</time>
      </trkpt>
      <trkpt lat="59.074108600616455" lon="30.01439094543457">
        <time>2026-04-25T09:23:22Z</time>
      </trkpt>
      <trkpt lat="59.074022769927979" lon="30.014305114746094">
        <time>2026-04-25T09:23:24Z</time>
      </trkpt>
      <trkpt lat="59.073958396911621" lon="30.014240741729736">
        <time>2026-04-25T09:23:27Z</time>
      </trkpt>
      <trkpt lat="59.073851108551025" lon="30.014111995697021">
        <time>2026-04-25T09:23:29Z</time>
      </trkpt>
      <trkpt lat="59.073786735534668" lon="30.014047622680664">
        <time>2026-04-25T09:23:32Z</time>
      </trkpt>
      <trkpt lat="59.073808193206787" lon="30.014090538024902">
        <time>2026-04-25T09:23:34Z</time>
      </trkpt>
      <trkpt lat="59.073872566223145" lon="30.014197826385498">
        <time>2026-04-25T09:23:37Z</time>
      </trkpt>
      <trkpt lat="59.073958396911621" lon="30.014262199401855">
        <time>2026-04-25T09:23:39Z</time>
      </trkpt>
      <trkpt lat="59.074022769927979" lon="30.014197826385498">
        <time>2026-04-25T09:23:42Z</time>
      </trkpt>
      <trkpt lat="59.074130058288574" lon="30.014176368713379">
        <time>2026-04-25T09:23:44Z</time>
      </trkpt>
      <trkpt lat="59.074151515960693" lon="30.014111995697021">
        <time>2026-04-25T09:23:47Z</time>
      </trkpt>
      <trkpt lat="59.074172973632813" lon="30.014047622680664">
        <time>2026-04-25T09:23:49Z</time>
      </trkpt>
      <trkpt lat="59.074215888977051" lon="30.014026165008545">
        <time>2026-04-25T09:23:52Z</time>
      </trkpt>
      <trkpt lat="59.074215888977051" lon="30.013983249664307">
        <time>2026-04-25T09:23:54Z</time>
      </trkpt>
      <trkpt lat="59.074215888977051" lon="30.013983249664307">
        <time>2026-04-25T09:23:57Z</time>
      </trkpt>
      <trkpt lat="59.07423734664917" lon="30.013961791992188">
        <time>2026-04-25T09:23:59Z</time>
      </trkpt>
      <trkpt lat="59.074258804321289" lon="30.013940334320068">
        <time>2026-04-25T09:24:02Z</time>
      </trkpt>
      <trkpt lat="59.074301719665527" lon="30.013961791992188">
        <time>2026-04-25T09:24:04Z</time>
      </trkpt>
      <trkpt lat="59.074323177337646" lon="30.013961791992188">
        <time>2026-04-25T09:24:07Z</time>
      </trkpt>
      <trkpt lat="59.074323177337646" lon="30.013961791992188">
        <time>2026-04-25T09:24:09Z</time>
      </trkpt>
      <trkpt lat="59.074323177337646" lon="30.013961791992188">
        <time>2026-04-25T09:24:12Z</time>
      </trkpt>
      <trkpt lat="59.074323177337646" lon="30.013961791992188">
        <time>2026-04-25T09:24:14Z</time>
      </trkpt>
      <trkpt lat="59.074323177337646" lon="30.013940334320068">
        <time>2026-04-25T09:24:17Z</time>
      </trkpt>
      <trkpt lat="59.074344635009766" lon="30.01389741897583">
        <time>2026-04-25T09:24:19Z</time>
      </trkpt>
      <trkpt lat="59.074344635009766" lon="30.013875961303711">
        <time>2026-04-25T09:24:22Z</time>
      </trkpt>
      <trkpt lat="59.074344635009766" lon="30.013833045959473">
        <time>2026-04-25T09:24:24Z</time>
      </trkpt>
      <trkpt lat="59.074366092681885" lon="30.013790130615234">
        <time>2026-04-25T09:24:27Z</time>
      </trkpt>
      <trkpt lat="59.074387550354004" lon="30.013725757598877">
        <time>2026-04-25T09:24:29Z</time>
      </trkpt>
      <trkpt lat="59.074409008026123" lon="30.013682842254639">
        <time>2026-04-25T09:24:32Z</time>
      </trkpt>
      <trkpt lat="59.074430465698242" lon="30.0136399269104">
        <time>2026-04-25T09:24:34Z</time>
      </trkpt>
      <trkpt lat="59.074430465698242" lon="30.013575553894043">
        <time>2026-04-25T09:24:37Z</time>
      </trkpt>
      <trkpt lat="59.074430465698242" lon="30.013511180877686">
        <time>2026-04-25T09:24:39Z</time>
      </trkpt>
      <trkpt lat="59.074430465698242" lon="30.013468265533447">
        <time>2026-04-25T09:24:42Z</time>
      </trkpt>
      <trkpt lat="59.074430465698242" lon="30.013425350189209">
        <time>2026-04-25T09:24:44Z</time>
      </trkpt>
      <trkpt lat="59.074430465698242" lon="30.013425350189209">
        <time>2026-04-25T09:24:47Z</time>
      </trkpt>
      <trkpt lat="59.074430465698242" lon="30.013425350189209">
        <time>2026-04-25T09:24:49Z</time>
      </trkpt>
      <trkpt lat="59.074430465698242" lon="30.013425350189209">
        <time>2026-04-25T09:24:52Z</time>
      </trkpt>
      <trkpt lat="59.074430465698242" lon="30.013425350189209">
        <time>2026-04-25T09:24:54Z</time>
      </trkpt>
      <trkpt lat="59.074430465698242" lon="30.013425350189209">
        <time>2026-04-25T09:24:57Z</time>
      </trkpt>
      <trkpt lat="59.074451923370361" lon="30.013382434844971">
        <time>2026-04-25T09:24:59Z</time>
      </trkpt>
      <trkpt lat="59.07447338104248" lon="30.013360977172852">
        <time>2026-04-25T09:25:02Z</time>
      </trkpt>
      <trkpt lat="59.0744948387146" lon="30.013296604156494">
        <time>2026-04-25T09:25:04Z</time>
      </trkpt>
      <trkpt lat="59.074516296386719" lon="30.013275146484375">
        <time>2026-04-25T09:25:07Z</time>
      </trkpt>
      <trkpt lat="59.074537754058838" lon="30.013210773468018">
        <time>2026-04-25T09:25:09Z</time>
      </trkpt>
      <trkpt lat="59.074537754058838" lon="30.013167858123779">
        <time>2026-04-25T09:25:12Z</time>
      </trkpt>
      <trkpt lat="59.074516296386719" lon="30.013167858123779">
        <time>2026-04-25T09:25:14Z</time>
      </trkpt>
      <trkpt lat="59.074516296386719" lon="30.013167858123779">
        <time>2026-04-25T09:25:17Z</time>
      </trkpt>
      <trkpt lat="59.074537754058838" lon="30.013167858123779">
        <time>2026-04-25T09:25:19Z</time>
      </trkpt>
      <trkpt lat="59.074559211730957" lon="30.01314640045166">
        <time>2026-04-25T09:25:22Z</time>
      </trkpt>
      <trkpt lat="59.074559211730957" lon="30.01314640045166">
        <time>2026-04-25T09:25:24Z</time>
      </trkpt>
      <trkpt lat="59.074559211730957" lon="30.01314640045166">
        <time>2026-04-25T09:25:27Z</time>
      </trkpt>
      <trkpt lat="59.074580669403076" lon="30.013167858123779">
        <time>2026-04-25T09:25:29Z</time>
      </trkpt>
      <trkpt lat="59.074602127075195" lon="30.013167858123779">
        <time>2026-04-25T09:25:32Z</time>
      </trkpt>
      <trkpt lat="59.074623584747314" lon="30.013124942779541">
        <time>2026-04-25T09:25:34Z</time>
      </trkpt>
      <trkpt lat="59.074645042419434" lon="30.013082027435303">
        <time>2026-04-25T09:25:37Z</time>
      </trkpt>
      <trkpt lat="59.074645042419434" lon="30.013060569763184">
        <time>2026-04-25T09:25:39Z</time>
      </trkpt>
      <trkpt lat="59.074645042419434" lon="30.013060569763184">
        <time>2026-04-25T09:25:42Z</time>
      </trkpt>
      <trkpt lat="59.074645042419434" lon="30.013039112091064">
        <time>2026-04-25T09:25:44Z</time>
      </trkpt>
      <trkpt lat="59.074645042419434" lon="30.012996196746826">
        <time>2026-04-25T09:25:47Z</time>
      </trkpt>
      <trkpt lat="59.074645042419434" lon="30.012953281402588">
        <time>2026-04-25T09:25:49Z</time>
      </trkpt>
      <trkpt lat="59.074645042419434" lon="30.01291036605835">
        <time>2026-04-25T09:25:52Z</time>
      </trkpt>
      <trkpt lat="59.074645042419434" lon="30.012824535369873">
        <time>2026-04-25T09:25:54Z</time>
      </trkpt>
      <trkpt lat="59.074666500091553" lon="30.012824535369873">
        <time>2026-04-25T09:25:57Z</time>
      </trkpt>
      <trkpt lat="59.074666500091553" lon="30.012824535369873">
        <time>2026-04-25T09:25:59Z</time>
      </trkpt>
      <trkpt lat="59.074666500091553" lon="30.012824535369873">
        <time>2026-04-25T09:26:02Z</time>
      </trkpt>
      <trkpt lat="59.074709415435791" lon="30.012867450714111">
        <time>2026-04-25T09:26:04Z</time>
      </trkpt>
      <trkpt lat="59.07473087310791" lon="30.012824535369873">
        <time>2026-04-25T09:26:07Z</time>
      </trkpt>
      <trkpt lat="59.074752330780029" lon="30.012781620025635">
        <time>2026-04-25T09:26:09Z</time>
      </trkpt>
      <trkpt lat="59.074752330780029" lon="30.012760162353516">
        <time>2026-04-25T09:26:12Z</time>
      </trkpt>
      <trkpt lat="59.074795246124268" lon="30.012738704681396">
        <time>2026-04-25T09:26:14Z</time>
      </trkpt>
      <trkpt lat="59.074795246124268" lon="30.012738704681396">
        <time>2026-04-25T09:26:17Z</time>
      </trkpt>
      <trkpt lat="59.074816703796387" lon="30.012738704681396">
        <time>2026-04-25T09:26:19Z</time>
      </trkpt>
      <trkpt lat="59.074838161468506" lon="30.012717247009277">
        <time>2026-04-25T09:26:22Z</time>
      </trkpt>
      <trkpt lat="59.074838161468506" lon="30.012674331665039">
        <time>2026-04-25T09:26:24Z</time>
      </trkpt>
      <trkpt lat="59.074859619140625" lon="30.01265287399292">
        <time>2026-04-25T09:26:27Z</time>
      </trkpt>
      <trkpt lat="59.074859619140625" lon="30.012631416320801">
        <time>2026-04-25T09:26:29Z</time>
      </trkpt>
      <trkpt lat="59.074881076812744" lon="30.012609958648682">
        <time>2026-04-25T09:26:32Z</time>
      </trkpt>
      <trkpt lat="59.074881076812744" lon="30.012609958648682">
        <time>2026-04-25T09:26:34Z</time>
      </trkpt>
      <trkpt lat="59.074881076812744" lon="30.012609958648682">
        <time>2026-04-25T09:26:37Z</time>
      </trkpt>
      <trkpt lat="59.074881076812744" lon="30.012609958648682">
        <time>2026-04-25T09:26:39Z</time>
      </trkpt>
      <trkpt lat="59.074881076812744" lon="30.012609958648682">
        <time>2026-04-25T09:26:42Z</time>
      </trkpt>
      <trkpt lat="59.074859619140625" lon="30.01265287399292">
        <time>2026-04-25T09:26:44Z</time>
      </trkpt>
      <trkpt lat="59.074859619140625" lon="30.01265287399292">
        <time>2026-04-25T09:26:47Z</time>
      </trkpt>
      <trkpt lat="59.074881076812744" lon="30.012631416320801">
        <time>2026-04-25T09:26:49Z</time>
      </trkpt>
      <trkpt lat="59.074902534484863" lon="30.012588500976563">
        <time>2026-04-25T09:26:52Z</time>
      </trkpt>
      <trkpt lat="59.074923992156982" lon="30.012609958648682">
        <time>2026-04-25T09:26:54Z</time>
      </trkpt>
      <trkpt lat="59.074945449829102" lon="30.012588500976563">
        <time>2026-04-25T09:26:57Z</time>
      </trkpt>
      <trkpt lat="59.07498836517334" lon="30.012567043304443">
        <time>2026-04-25T09:26:59Z</time>
      </trkpt>
      <trkpt lat="59.075009822845459" lon="30.012545585632324">
        <time>2026-04-25T09:27:02Z</time>
      </trkpt>
      <trkpt lat="59.075009822845459" lon="30.012545585632324">
        <time>2026-04-25T09:27:04Z</time>
      </trkpt>
      <trkpt lat="59.075031280517578" lon="30.012524127960205">
        <time>2026-04-25T09:27:07Z</time>
      </trkpt>
      <trkpt lat="59.075031280517578" lon="30.012502670288086">
        <time>2026-04-25T09:27:09Z</time>
      </trkpt>
      <trkpt lat="59.075052738189697" lon="30.012481212615967">
        <time>2026-04-25T09:27:12Z</time>
      </trkpt>
      <trkpt lat="59.075074195861816" lon="30.01239538192749">
        <time>2026-04-25T09:27:14Z</time>
      </trkpt>
      <trkpt lat="59.075074195861816" lon="30.012373924255371">
        <time>2026-04-25T09:27:17Z</time>
      </trkpt>
      <trkpt lat="59.075074195861816" lon="30.012352466583252">
        <time>2026-04-25T09:27:19Z</time>
      </trkpt>
      <trkpt lat="59.075074195861816" lon="30.012352466583252">
        <time>2026-04-25T09:27:22Z</time>
      </trkpt>
      <trkpt lat="59.075052738189697" lon="30.012416839599609">
        <time>2026-04-25T09:27:24Z</time>
      </trkpt>
      <trkpt lat="59.07498836517334" lon="30.012524127960205">
        <time>2026-04-25T09:27:27Z</time>
      </trkpt>
      <trkpt lat="59.074881076812744" lon="30.012588500976563">
        <time>2026-04-25T09:27:29Z</time>
      </trkpt>
      <trkpt lat="59.074923992156982" lon="30.012567043304443">
        <time>2026-04-25T09:27:32Z</time>
      </trkpt>
      <trkpt lat="59.075031280517578" lon="30.012502670288086">
        <time>2026-04-25T09:27:34Z</time>
      </trkpt>
      <trkpt lat="59.075074195861816" lon="30.012416839599609">
        <time>2026-04-25T09:27:37Z</time>
      </trkpt>
      <trkpt lat="59.075117111206055" lon="30.012352466583252">
        <time>2026-04-25T09:27:39Z</time>
      </trkpt>
      <trkpt lat="59.075160026550293" lon="30.012309551239014">
        <time>2026-04-25T09:27:42Z</time>
      </trkpt>
      <trkpt lat="59.075202941894531" lon="30.012223720550537">
        <time>2026-04-25T09:27:44Z</time>
      </trkpt>
      <trkpt lat="59.07522439956665" lon="30.012202262878418">
        <time>2026-04-25T09:27:47Z</time>
      </trkpt>
      <trkpt lat="59.07524585723877" lon="30.012116432189941">
        <time>2026-04-25T09:27:52Z</time>
      </trkpt>
      <trkpt lat="59.07524585723877" lon="30.012094974517822">
        <time>2026-04-25T09:27:54Z</time>
      </trkpt>
      <trkpt lat="59.07524585723877" lon="30.012094974517822">
        <time>2026-04-25T09:27:57Z</time>
      </trkpt>
      <trkpt lat="59.07524585723877" lon="30.012094974517822">
        <time>2026-04-25T09:27:59Z</time>
      </trkpt>
      <trkpt lat="59.075267314910889" lon="30.012094974517822">
        <time>2026-04-25T09:28:02Z</time>
      </trkpt>
      <trkpt lat="59.075310230255127" lon="30.012052059173584">
        <time>2026-04-25T09:28:04Z</time>
      </trkpt>
      <trkpt lat="59.075353145599365" lon="30.012030601501465">
        <time>2026-04-25T09:28:07Z</time>
      </trkpt>
      <trkpt lat="59.075353145599365" lon="30.012009143829346">
        <time>2026-04-25T09:28:09Z</time>
      </trkpt>
      <trkpt lat="59.075353145599365" lon="30.012009143829346">
        <time>2026-04-25T09:28:12Z</time>
      </trkpt>
      <trkpt lat="59.075353145599365" lon="30.012009143829346">
        <time>2026-04-25T09:28:14Z</time>
      </trkpt>
      <trkpt lat="59.075353145599365" lon="30.012009143829346">
        <time>2026-04-25T09:28:17Z</time>
      </trkpt>
      <trkpt lat="59.075353145599365" lon="30.011987686157227">
        <time>2026-04-25T09:28:19Z</time>
      </trkpt>
      <trkpt lat="59.075353145599365" lon="30.011987686157227">
        <time>2026-04-25T09:28:22Z</time>
      </trkpt>
      <trkpt lat="59.075374603271484" lon="30.011923313140869">
        <time>2026-04-25T09:28:24Z</time>
      </trkpt>
      <trkpt lat="59.075417518615723" lon="30.011880397796631">
        <time>2026-04-25T09:28:27Z</time>
      </trkpt>
      <trkpt lat="59.075438976287842" lon="30.011794567108154">
        <time>2026-04-25T09:28:29Z</time>
      </trkpt>
      <trkpt lat="59.075438976287842" lon="30.011794567108154">
        <time>2026-04-25T09:28:32Z</time>
      </trkpt>
      <trkpt lat="59.075438976287842" lon="30.011794567108154">
        <time>2026-04-25T09:28:34Z</time>
      </trkpt>
      <trkpt lat="59.075438976287842" lon="30.011794567108154">
        <time>2026-04-25T09:28:37Z</time>
      </trkpt>
      <trkpt lat="59.075438976287842" lon="30.011751651763916">
        <time>2026-04-25T09:28:39Z</time>
      </trkpt>
      <trkpt lat="59.075460433959961" lon="30.011708736419678">
        <time>2026-04-25T09:28:42Z</time>
      </trkpt>
      <trkpt lat="59.07548189163208" lon="30.011687278747559">
        <time>2026-04-25T09:28:44Z</time>
      </trkpt>
      <trkpt lat="59.07548189163208" lon="30.011687278747559">
        <time>2026-04-25T09:28:47Z</time>
      </trkpt>
      <trkpt lat="59.07548189163208" lon="30.011687278747559">
        <time>2026-04-25T09:28:49Z</time>
      </trkpt>
      <trkpt lat="59.075503349304199" lon="30.011687278747559">
        <time>2026-04-25T09:28:52Z</time>
      </trkpt>
      <trkpt lat="59.075524806976318" lon="30.011687278747559">
        <time>2026-04-25T09:28:54Z</time>
      </trkpt>
      <trkpt lat="59.075524806976318" lon="30.011687278747559">
        <time>2026-04-25T09:28:57Z</time>
      </trkpt>
      <trkpt lat="59.075524806976318" lon="30.011665821075439">
        <time>2026-04-25T09:28:59Z</time>
      </trkpt>
      <trkpt lat="59.075524806976318" lon="30.011665821075439">
        <time>2026-04-25T09:29:02Z</time>
      </trkpt>
      <trkpt lat="59.075524806976318" lon="30.011665821075439">
        <time>2026-04-25T09:29:04Z</time>
      </trkpt>
      <trkpt lat="59.075546264648438" lon="30.011665821075439">
        <time>2026-04-25T09:29:07Z</time>
      </trkpt>
      <trkpt lat="59.075589179992676" lon="30.011622905731201">
        <time>2026-04-25T09:29:09Z</time>
      </trkpt>
      <trkpt lat="59.075589179992676" lon="30.011622905731201">
        <time>2026-04-25T09:29:12Z</time>
      </trkpt>
      <trkpt lat="59.075589179992676" lon="30.011622905731201">
        <time>2026-04-25T09:29:17Z</time>
      </trkpt>
      <trkpt lat="59.075610637664795" lon="30.011579990386963">
        <time>2026-04-25T09:29:19Z</time>
      </trkpt>
      <trkpt lat="59.075610637664795" lon="30.011579990386963">
        <time>2026-04-25T09:29:22Z</time>
      </trkpt>
      <trkpt lat="59.075632095336914" lon="30.011558532714844">
        <time>2026-04-25T09:29:24Z</time>
      </trkpt>
      <trkpt lat="59.075653553009033" lon="30.011515617370605">
        <time>2026-04-25T09:29:27Z</time>
      </trkpt>
      <trkpt lat="59.075653553009033" lon="30.011515617370605">
        <time>2026-04-25T09:29:29Z</time>
      </trkpt>
      <trkpt lat="59.075653553009033" lon="30.011494159698486">
        <time>2026-04-25T09:29:32Z</time>
      </trkpt>
      <trkpt lat="59.075675010681152" lon="30.011429786682129">
        <time>2026-04-25T09:29:34Z</time>
      </trkpt>
      <trkpt lat="59.075696468353271" lon="30.01140832901001">
        <time>2026-04-25T09:29:37Z</time>
      </trkpt>
      <trkpt lat="59.075696468353271" lon="30.011386871337891">
        <time>2026-04-25T09:29:39Z</time>
      </trkpt>
      <trkpt lat="59.075675010681152" lon="30.011343955993652">
        <time>2026-04-25T09:29:42Z</time>
      </trkpt>
      <trkpt lat="59.075675010681152" lon="30.011279582977295">
        <time>2026-04-25T09:29:44Z</time>
      </trkpt>
      <trkpt lat="59.075675010681152" lon="30.011258125305176">
        <time>2026-04-25T09:29:47Z</time>
      </trkpt>
      <trkpt lat="59.075696468353271" lon="30.011279582977295">
        <time>2026-04-25T09:29:49Z</time>
      </trkpt>
      <trkpt lat="59.075717926025391" lon="30.011322498321533">
        <time>2026-04-25T09:29:52Z</time>
      </trkpt>
      <trkpt lat="59.075760841369629" lon="30.011343955993652">
        <time>2026-04-25T09:29:54Z</time>
      </trkpt>
      <trkpt lat="59.075803756713867" lon="30.011301040649414">
        <time>2026-04-25T09:29:57Z</time>
      </trkpt>
      <trkpt lat="59.075846672058105" lon="30.011236667633057">
        <time>2026-04-25T09:29:59Z</time>
      </trkpt>
      <trkpt lat="59.075846672058105" lon="30.011193752288818">
        <time>2026-04-25T09:30:02Z</time>
      </trkpt>
      <trkpt lat="59.075868129730225" lon="30.011172294616699">
        <time>2026-04-25T09:30:04Z</time>
      </trkpt>
      <trkpt lat="59.075868129730225" lon="30.011129379272461">
        <time>2026-04-25T09:30:07Z</time>
      </trkpt>
      <trkpt lat="59.075868129730225" lon="30.011086463928223">
        <time>2026-04-25T09:30:09Z</time>
      </trkpt>
      <trkpt lat="59.075868129730225" lon="30.011086463928223">
        <time>2026-04-25T09:30:12Z</time>
      </trkpt>
      <trkpt lat="59.075911045074463" lon="30.011043548583984">
        <time>2026-04-25T09:30:14Z</time>
      </trkpt>
      <trkpt lat="59.075932502746582" lon="30.010979175567627">
        <time>2026-04-25T09:30:17Z</time>
      </trkpt>
      <trkpt lat="59.075932502746582" lon="30.01089334487915">
        <time>2026-04-25T09:30:19Z</time>
      </trkpt>
      <trkpt lat="59.075932502746582" lon="30.010850429534912">
        <time>2026-04-25T09:30:22Z</time>
      </trkpt>
      <trkpt lat="59.075953960418701" lon="30.010850429534912">
        <time>2026-04-25T09:30:24Z</time>
      </trkpt>
      <trkpt lat="59.075953960418701" lon="30.010850429534912">
        <time>2026-04-25T09:30:27Z</time>
      </trkpt>
      <trkpt lat="59.07597541809082" lon="30.010828971862793">
        <time>2026-04-25T09:30:29Z</time>
      </trkpt>
      <trkpt lat="59.076018333435059" lon="30.010828971862793">
        <time>2026-04-25T09:30:32Z</time>
      </trkpt>
      <trkpt lat="59.076039791107178" lon="30.010786056518555">
        <time>2026-04-25T09:30:34Z</time>
      </trkpt>
      <trkpt lat="59.076061248779297" lon="30.010764598846436">
        <time>2026-04-25T09:30:37Z</time>
      </trkpt>
      <trkpt lat="59.076082706451416" lon="30.010743141174316">
        <time>2026-04-25T09:30:39Z</time>
      </trkpt>
      <trkpt lat="59.076082706451416" lon="30.010743141174316">
        <time>2026-04-25T09:30:42Z</time>
      </trkpt>
      <trkpt lat="59.076082706451416" lon="30.010721683502197">
        <time>2026-04-25T09:30:44Z</time>
      </trkpt>
      <trkpt lat="59.076104164123535" lon="30.010721683502197">
        <time>2026-04-25T09:30:47Z</time>
      </trkpt>
      <trkpt lat="59.076125621795654" lon="30.010700225830078">
        <time>2026-04-25T09:30:49Z</time>
      </trkpt>
      <trkpt lat="59.076147079467773" lon="30.010678768157959">
        <time>2026-04-25T09:30:52Z</time>
      </trkpt>
      <trkpt lat="59.076189994812012" lon="30.01065731048584">
        <time>2026-04-25T09:30:54Z</time>
      </trkpt>
      <trkpt lat="59.076189994812012" lon="30.01065731048584">
        <time>2026-04-25T09:30:57Z</time>
      </trkpt>
      <trkpt lat="59.076211452484131" lon="30.01065731048584">
        <time>2026-04-25T09:30:59Z</time>
      </trkpt>
      <trkpt lat="59.076211452484131" lon="30.01065731048584">
        <time>2026-04-25T09:31:02Z</time>
      </trkpt>
      <trkpt lat="59.076211452484131" lon="30.01065731048584">
        <time>2026-04-25T09:31:04Z</time>
      </trkpt>
      <trkpt lat="59.076211452484131" lon="30.01065731048584">
        <time>2026-04-25T09:31:07Z</time>
      </trkpt>
      <trkpt lat="59.076211452484131" lon="30.01065731048584">
        <time>2026-04-25T09:31:09Z</time>
      </trkpt>
      <trkpt lat="59.076211452484131" lon="30.01065731048584">
        <time>2026-04-25T09:31:12Z</time>
      </trkpt>
      <trkpt lat="59.076189994812012" lon="30.01065731048584">
        <time>2026-04-25T09:31:14Z</time>
      </trkpt>
      <trkpt lat="59.076168537139893" lon="30.010678768157959">
        <time>2026-04-25T09:31:17Z</time>
      </trkpt>
      <trkpt lat="59.076147079467773" lon="30.010700225830078">
        <time>2026-04-25T09:31:19Z</time>
      </trkpt>
      <trkpt lat="59.076147079467773" lon="30.010700225830078">
        <time>2026-04-25T09:31:22Z</time>
      </trkpt>
      <trkpt lat="59.076189994812012" lon="30.010678768157959">
        <time>2026-04-25T09:31:24Z</time>
      </trkpt>
      <trkpt lat="59.07623291015625" lon="30.01065731048584">
        <time>2026-04-25T09:31:27Z</time>
      </trkpt>
      <trkpt lat="59.076275825500488" lon="30.010635852813721">
        <time>2026-04-25T09:31:29Z</time>
      </trkpt>
      <trkpt lat="59.076318740844727" lon="30.010635852813721">
        <time>2026-04-25T09:31:32Z</time>
      </trkpt>
      <trkpt lat="59.076340198516846" lon="30.010635852813721">
        <time>2026-04-25T09:31:34Z</time>
      </trkpt>
      <trkpt lat="59.076361656188965" lon="30.010635852813721">
        <time>2026-04-25T09:31:37Z</time>
      </trkpt>
      <trkpt lat="59.076404571533203" lon="30.010614395141602">
        <time>2026-04-25T09:31:39Z</time>
      </trkpt>
      <trkpt lat="59.076426029205322" lon="30.010592937469482">
        <time>2026-04-25T09:31:42Z</time>
      </trkpt>
      <trkpt lat="59.076447486877441" lon="30.010592937469482">
        <time>2026-04-25T09:31:44Z</time>
      </trkpt>
      <trkpt lat="59.076447486877441" lon="30.010592937469482">
        <time>2026-04-25T09:31:47Z</time>
      </trkpt>
      <trkpt lat="59.07649040222168" lon="30.010592937469482">
        <time>2026-04-25T09:31:49Z</time>
      </trkpt>
      <trkpt lat="59.07649040222168" lon="30.010550022125244">
        <time>2026-04-25T09:31:52Z</time>
      </trkpt>
      <trkpt lat="59.076511859893799" lon="30.010571479797363">
        <time>2026-04-25T09:31:54Z</time>
      </trkpt>
      <trkpt lat="59.076533317565918" lon="30.010571479797363">
        <time>2026-04-25T09:31:57Z</time>
      </trkpt>
      <trkpt lat="59.076533317565918" lon="30.010550022125244">
        <time>2026-04-25T09:31:59Z</time>
      </trkpt>
      <trkpt lat="59.076533317565918" lon="30.010550022125244">
        <time>2026-04-25T09:32:02Z</time>
      </trkpt>
      <trkpt lat="59.076511859893799" lon="30.010464191436768">
        <time>2026-04-25T09:32:04Z</time>
      </trkpt>
      <trkpt lat="59.076511859893799" lon="30.010356903076172">
        <time>2026-04-25T09:32:07Z</time>
      </trkpt>
      <trkpt lat="59.07649040222168" lon="30.010271072387695">
        <time>2026-04-25T09:32:09Z</time>
      </trkpt>
      <trkpt lat="59.07649040222168" lon="30.010249614715576">
        <time>2026-04-25T09:32:12Z</time>
      </trkpt>
      <trkpt lat="59.076468944549561" lon="30.010228157043457">
        <time>2026-04-25T09:32:14Z</time>
      </trkpt>
      <trkpt lat="59.076468944549561" lon="30.010228157043457">
        <time>2026-04-25T09:32:17Z</time>
      </trkpt>
      <trkpt lat="59.07649040222168" lon="30.01039981842041">
        <time>2026-04-25T09:32:19Z</time>
      </trkpt>
      <trkpt lat="59.07649040222168" lon="30.010571479797363">
        <time>2026-04-25T09:32:22Z</time>
      </trkpt>
      <trkpt lat="59.076404571533203" lon="30.010614395141602">
        <time>2026-04-25T09:32:24Z</time>
      </trkpt>
      <trkpt lat="59.076447486877441" lon="30.010614395141602">
        <time>2026-04-25T09:32:27Z</time>
      </trkpt>
      <trkpt lat="59.076511859893799" lon="30.010464191436768">
        <time>2026-04-25T09:32:29Z</time>
      </trkpt>
      <trkpt lat="59.076533317565918" lon="30.010335445404053">
        <time>2026-04-25T09:32:32Z</time>
      </trkpt>
      <trkpt lat="59.076554775238037" lon="30.010228157043457">
        <time>2026-04-25T09:32:34Z</time>
      </trkpt>
      <trkpt lat="59.076597690582275" lon="30.010185241699219">
        <time>2026-04-25T09:32:37Z</time>
      </trkpt>
      <trkpt lat="59.076640605926514" lon="30.010120868682861">
        <time>2026-04-25T09:32:39Z</time>
      </trkpt>
      <trkpt lat="59.076662063598633" lon="30.010077953338623">
        <time>2026-04-25T09:32:42Z</time>
      </trkpt>
      <trkpt lat="59.076683521270752" lon="30.009992122650146">
        <time>2026-04-25T09:32:44Z</time>
      </trkpt>
      <trkpt lat="59.076683521270752" lon="30.009927749633789">
        <time>2026-04-25T09:32:47Z</time>
      </trkpt>
      <trkpt lat="59.076662063598633" lon="30.009884834289551">
        <time>2026-04-25T09:32:49Z</time>
      </trkpt>
      <trkpt lat="59.076683521270752" lon="30.009799003601074">
        <time>2026-04-25T09:32:52Z</time>
      </trkpt>
      <trkpt lat="59.076704978942871" lon="30.009691715240479">
        <time>2026-04-25T09:32:54Z</time>
      </trkpt>
      <trkpt lat="59.076704978942871" lon="30.00964879989624">
        <time>2026-04-25T09:32:57Z</time>
      </trkpt>
      <trkpt lat="59.07672643661499" lon="30.00964879989624">
        <time>2026-04-25T09:32:59Z</time>
      </trkpt>
      <trkpt lat="59.07672643661499" lon="30.00964879989624">
        <time>2026-04-25T09:33:02Z</time>
      </trkpt>
      <trkpt lat="59.076769351959229" lon="30.009713172912598">
        <time>2026-04-25T09:33:04Z</time>
      </trkpt>
      <trkpt lat="59.076790809631348" lon="30.009713172912598">
        <time>2026-04-25T09:33:07Z</time>
      </trkpt>
      <trkpt lat="59.076833724975586" lon="30.009670257568359">
        <time>2026-04-25T09:33:09Z</time>
      </trkpt>
      <trkpt lat="59.076855182647705" lon="30.009670257568359">
        <time>2026-04-25T09:33:12Z</time>
      </trkpt>
      <trkpt lat="59.076855182647705" lon="30.009670257568359">
        <time>2026-04-25T09:33:14Z</time>
      </trkpt>
      <trkpt lat="59.076876640319824" lon="30.009670257568359">
        <time>2026-04-25T09:33:17Z</time>
      </trkpt>
      <trkpt lat="59.076919555664063" lon="30.00964879989624">
        <time>2026-04-25T09:33:19Z</time>
      </trkpt>
      <trkpt lat="59.076962471008301" lon="30.009627342224121">
        <time>2026-04-25T09:33:22Z</time>
      </trkpt>
      <trkpt lat="59.077005386352539" lon="30.009605884552002">
        <time>2026-04-25T09:33:24Z</time>
      </trkpt>
      <trkpt lat="59.077026844024658" lon="30.009627342224121">
        <time>2026-04-25T09:33:27Z</time>
      </trkpt>
      <trkpt lat="59.077069759368896" lon="30.009713172912598">
        <time>2026-04-25T09:33:29Z</time>
      </trkpt>
      <trkpt lat="59.077069759368896" lon="30.009777545928955">
        <time>2026-04-25T09:33:32Z</time>
      </trkpt>
      <trkpt lat="59.077048301696777" lon="30.009841918945313">
        <time>2026-04-25T09:33:34Z</time>
      </trkpt>
      <trkpt lat="59.077069759368896" lon="30.009841918945313">
        <time>2026-04-25T09:33:37Z</time>
      </trkpt>
      <trkpt lat="59.077069759368896" lon="30.009713172912598">
        <time>2026-04-25T09:33:39Z</time>
      </trkpt>
      <trkpt lat="59.077069759368896" lon="30.00964879989624">
        <time>2026-04-25T09:33:42Z</time>
      </trkpt>
      <trkpt lat="59.076962471008301" lon="30.009691715240479">
        <time>2026-04-25T09:33:44Z</time>
      </trkpt>
      <trkpt lat="59.076962471008301" lon="30.009670257568359">
        <time>2026-04-25T09:33:47Z</time>
      </trkpt>
      <trkpt lat="59.077026844024658" lon="30.009627342224121">
        <time>2026-04-25T09:33:49Z</time>
      </trkpt>
      <trkpt lat="59.077005386352539" lon="30.009584426879883">
        <time>2026-04-25T09:33:52Z</time>
      </trkpt>
      <trkpt lat="59.077048301696777" lon="30.009584426879883">
        <time>2026-04-25T09:33:54Z</time>
      </trkpt>
      <trkpt lat="59.077091217041016" lon="30.009541511535645">
        <time>2026-04-25T09:33:57Z</time>
      </trkpt>
      <trkpt lat="59.077134132385254" lon="30.009455680847168">
        <time>2026-04-25T09:33:59Z</time>
      </trkpt>
      <trkpt lat="59.077177047729492" lon="30.00941276550293">
        <time>2026-04-25T09:34:02Z</time>
      </trkpt>
      <trkpt lat="59.07721996307373" lon="30.009348392486572">
        <time>2026-04-25T09:34:04Z</time>
      </trkpt>
      <trkpt lat="59.07724142074585" lon="30.009305477142334">
        <time>2026-04-25T09:34:07Z</time>
      </trkpt>
      <trkpt lat="59.077284336090088" lon="30.009219646453857">
        <time>2026-04-25T09:34:09Z</time>
      </trkpt>
      <trkpt lat="59.077284336090088" lon="30.009198188781738">
        <time>2026-04-25T09:34:12Z</time>
      </trkpt>
      <trkpt lat="59.077284336090088" lon="30.009198188781738">
        <time>2026-04-25T09:34:14Z</time>
      </trkpt>
      <trkpt lat="59.077284336090088" lon="30.0091552734375">
        <time>2026-04-25T09:34:17Z</time>
      </trkpt>
      <trkpt lat="59.077262878417969" lon="30.009090900421143">
        <time>2026-04-25T09:34:19Z</time>
      </trkpt>
      <trkpt lat="59.077262878417969" lon="30.009090900421143">
        <time>2026-04-25T09:34:22Z</time>
      </trkpt>
      <trkpt lat="59.077284336090088" lon="30.009090900421143">
        <time>2026-04-25T09:34:24Z</time>
      </trkpt>
      <trkpt lat="59.077284336090088" lon="30.009112358093262">
        <time>2026-04-25T09:34:27Z</time>
      </trkpt>
      <trkpt lat="59.07724142074585" lon="30.009284019470215">
        <time>2026-04-25T09:34:29Z</time>
      </trkpt>
      <trkpt lat="59.077177047729492" lon="30.009369850158691">
        <time>2026-04-25T09:34:32Z</time>
      </trkpt>
      <trkpt lat="59.077134132385254" lon="30.009455680847168">
        <time>2026-04-25T09:34:34Z</time>
      </trkpt>
      <trkpt lat="59.077177047729492" lon="30.00941276550293">
        <time>2026-04-25T09:34:37Z</time>
      </trkpt>
      <trkpt lat="59.077262878417969" lon="30.009305477142334">
        <time>2026-04-25T09:34:39Z</time>
      </trkpt>
      <trkpt lat="59.077305793762207" lon="30.009198188781738">
        <time>2026-04-25T09:34:42Z</time>
      </trkpt>
      <trkpt lat="59.077370166778564" lon="30.009090900421143">
        <time>2026-04-25T09:34:44Z</time>
      </trkpt>
      <trkpt lat="59.077391624450684" lon="30.009005069732666">
        <time>2026-04-25T09:34:47Z</time>
      </trkpt>
      <trkpt lat="59.077413082122803" lon="30.00889778137207">
        <time>2026-04-25T09:34:49Z</time>
      </trkpt>
      <trkpt lat="59.077434539794922" lon="30.008854866027832">
        <time>2026-04-25T09:34:52Z</time>
      </trkpt>
      <trkpt lat="59.077434539794922" lon="30.008811950683594">
        <time>2026-04-25T09:34:54Z</time>
      </trkpt>
      <trkpt lat="59.077434539794922" lon="30.008811950683594">
        <time>2026-04-25T09:34:57Z</time>
      </trkpt>
      <trkpt lat="59.077455997467041" lon="30.008769035339355">
        <time>2026-04-25T09:34:59Z</time>
      </trkpt>
      <trkpt lat="59.077455997467041" lon="30.008747577667236">
        <time>2026-04-25T09:35:02Z</time>
      </trkpt>
      <trkpt lat="59.07747745513916" lon="30.008726119995117">
        <time>2026-04-25T09:35:04Z</time>
      </trkpt>
      <trkpt lat="59.07747745513916" lon="30.00866174697876">
        <time>2026-04-25T09:35:07Z</time>
      </trkpt>
      <trkpt lat="59.077498912811279" lon="30.008618831634521">
        <time>2026-04-25T09:35:09Z</time>
      </trkpt>
      <trkpt lat="59.077520370483398" lon="30.008554458618164">
        <time>2026-04-25T09:35:12Z</time>
      </trkpt>
      <trkpt lat="59.077541828155518" lon="30.008511543273926">
        <time>2026-04-25T09:35:14Z</time>
      </trkpt>
      <trkpt lat="59.077541828155518" lon="30.008511543273926">
        <time>2026-04-25T09:35:17Z</time>
      </trkpt>
      <trkpt lat="59.077541828155518" lon="30.008511543273926">
        <time>2026-04-25T09:35:19Z</time>
      </trkpt>
      <trkpt lat="59.077541828155518" lon="30.008468627929687">
        <time>2026-04-25T09:35:22Z</time>
      </trkpt>
      <trkpt lat="59.077541828155518" lon="30.008447170257568">
        <time>2026-04-25T09:35:24Z</time>
      </trkpt>
      <trkpt lat="59.077541828155518" lon="30.008447170257568">
        <time>2026-04-25T09:35:27Z</time>
      </trkpt>
      <trkpt lat="59.077541828155518" lon="30.008447170257568">
        <time>2026-04-25T09:35:29Z</time>
      </trkpt>
      <trkpt lat="59.077541828155518" lon="30.008447170257568">
        <time>2026-04-25T09:35:32Z</time>
      </trkpt>
      <trkpt lat="59.077584743499756" lon="30.008425712585449">
        <time>2026-04-25T09:35:34Z</time>
      </trkpt>
      <trkpt lat="59.077627658843994" lon="30.008425712585449">
        <time>2026-04-25T09:35:37Z</time>
      </trkpt>
      <trkpt lat="59.077627658843994" lon="30.008425712585449">
        <time>2026-04-25T09:35:39Z</time>
      </trkpt>
      <trkpt lat="59.077606201171875" lon="30.008468627929687">
        <time>2026-04-25T09:35:42Z</time>
      </trkpt>
      <trkpt lat="59.077563285827637" lon="30.008468627929687">
        <time>2026-04-25T09:35:44Z</time>
      </trkpt>
      <trkpt lat="59.077563285827637" lon="30.008575916290283">
        <time>2026-04-25T09:35:47Z</time>
      </trkpt>
      <trkpt lat="59.077541828155518" lon="30.008683204650879">
        <time>2026-04-25T09:35:49Z</time>
      </trkpt>
      <trkpt lat="59.077520370483398" lon="30.008747577667236">
        <time>2026-04-25T09:35:52Z</time>
      </trkpt>
      <trkpt lat="59.077541828155518" lon="30.00866174697876">
        <time>2026-04-25T09:35:54Z</time>
      </trkpt>
      <trkpt lat="59.077584743499756" lon="30.008490085601807">
        <time>2026-04-25T09:35:57Z</time>
      </trkpt>
      <trkpt lat="59.077606201171875" lon="30.008425712585449">
        <time>2026-04-25T09:35:59Z</time>
      </trkpt>
      <trkpt lat="59.077649116516113" lon="30.008382797241211">
        <time>2026-04-25T09:36:02Z</time>
      </trkpt>
      <trkpt lat="59.077670574188232" lon="30.008382797241211">
        <time>2026-04-25T09:36:04Z</time>
      </trkpt>
      <trkpt lat="59.077649116516113" lon="30.008382797241211">
        <time>2026-04-25T09:36:07Z</time>
      </trkpt>
      <trkpt lat="59.077670574188232" lon="30.008361339569092">
        <time>2026-04-25T09:36:09Z</time>
      </trkpt>
      <trkpt lat="59.077713489532471" lon="30.008296966552734">
        <time>2026-04-25T09:36:12Z</time>
      </trkpt>
      <trkpt lat="59.077777862548828" lon="30.008189678192139">
        <time>2026-04-25T09:36:14Z</time>
      </trkpt>
      <trkpt lat="59.077842235565186" lon="30.0081467628479">
        <time>2026-04-25T09:36:17Z</time>
      </trkpt>
      <trkpt lat="59.077885150909424" lon="30.008082389831543">
        <time>2026-04-25T09:36:19Z</time>
      </trkpt>
      <trkpt lat="59.077885150909424" lon="30.008060932159424">
        <time>2026-04-25T09:36:22Z</time>
      </trkpt>
      <trkpt lat="59.077906608581543" lon="30.007996559143066">
        <time>2026-04-25T09:36:24Z</time>
      </trkpt>
      <trkpt lat="59.077928066253662" lon="30.007975101470947">
        <time>2026-04-25T09:36:27Z</time>
      </trkpt>
      <trkpt lat="59.077928066253662" lon="30.007953643798828">
        <time>2026-04-25T09:36:29Z</time>
      </trkpt>
      <trkpt lat="59.077949523925781" lon="30.007932186126709">
        <time>2026-04-25T09:36:32Z</time>
      </trkpt>
      <trkpt lat="59.0779709815979" lon="30.00791072845459">
        <time>2026-04-25T09:36:34Z</time>
      </trkpt>
      <trkpt lat="59.07799243927002" lon="30.00791072845459">
        <time>2026-04-25T09:36:37Z</time>
      </trkpt>
      <trkpt lat="59.07799243927002" lon="30.007889270782471">
        <time>2026-04-25T09:36:39Z</time>
      </trkpt>
      <trkpt lat="59.078013896942139" lon="30.007846355438232">
        <time>2026-04-25T09:36:42Z</time>
      </trkpt>
      <trkpt lat="59.078035354614258" lon="30.007824897766113">
        <time>2026-04-25T09:36:44Z</time>
      </trkpt>
      <trkpt lat="59.078056812286377" lon="30.007781982421875">
        <time>2026-04-25T09:36:47Z</time>
      </trkpt>
      <trkpt lat="59.078078269958496" lon="30.007696151733398">
        <time>2026-04-25T09:36:49Z</time>
      </trkpt>
      <trkpt lat="59.078099727630615" lon="30.00765323638916">
        <time>2026-04-25T09:36:52Z</time>
      </trkpt>
      <trkpt lat="59.078099727630615" lon="30.007631778717041">
        <time>2026-04-25T09:36:54Z</time>
      </trkpt>
      <trkpt lat="59.078121185302734" lon="30.007610321044922">
        <time>2026-04-25T09:36:57Z</time>
      </trkpt>
      <trkpt lat="59.078142642974854" lon="30.007545948028564">
        <time>2026-04-25T09:36:59Z</time>
      </trkpt>
      <trkpt lat="59.078142642974854" lon="30.007567405700684">
        <time>2026-04-25T09:37:02Z</time>
      </trkpt>
      <trkpt lat="59.078142642974854" lon="30.007567405700684">
        <time>2026-04-25T09:37:04Z</time>
      </trkpt>
      <trkpt lat="59.078185558319092" lon="30.007567405700684">
        <time>2026-04-25T09:37:07Z</time>
      </trkpt>
      <trkpt lat="59.078207015991211" lon="30.007503032684326">
        <time>2026-04-25T09:37:09Z</time>
      </trkpt>
      <trkpt lat="59.07822847366333" lon="30.007438659667969">
        <time>2026-04-25T09:37:12Z</time>
      </trkpt>
      <trkpt lat="59.07822847366333" lon="30.00739574432373">
        <time>2026-04-25T09:37:17Z</time>
      </trkpt>
      <trkpt lat="59.078271389007568" lon="30.00739574432373">
        <time>2026-04-25T09:37:19Z</time>
      </trkpt>
      <trkpt lat="59.078292846679688" lon="30.007374286651611">
        <time>2026-04-25T09:37:22Z</time>
      </trkpt>
      <trkpt lat="59.078335762023926" lon="30.007331371307373">
        <time>2026-04-25T09:37:24Z</time>
      </trkpt>
      <trkpt lat="59.078357219696045" lon="30.007331371307373">
        <time>2026-04-25T09:37:27Z</time>
      </trkpt>
      <trkpt lat="59.078378677368164" lon="30.007352828979492">
        <time>2026-04-25T09:37:29Z</time>
      </trkpt>
      <trkpt lat="59.078378677368164" lon="30.007352828979492">
        <time>2026-04-25T09:37:32Z</time>
      </trkpt>
      <trkpt lat="59.078400135040283" lon="30.007352828979492">
        <time>2026-04-25T09:37:34Z</time>
      </trkpt>
      <trkpt lat="59.078421592712402" lon="30.007331371307373">
        <time>2026-04-25T09:37:37Z</time>
      </trkpt>
      <trkpt lat="59.078443050384521" lon="30.007309913635254">
        <time>2026-04-25T09:37:39Z</time>
      </trkpt>
      <trkpt lat="59.07848596572876" lon="30.007288455963135">
        <time>2026-04-25T09:37:42Z</time>
      </trkpt>
      <trkpt lat="59.078528881072998" lon="30.007266998291016">
        <time>2026-04-25T09:37:44Z</time>
      </trkpt>
      <trkpt lat="59.078550338745117" lon="30.007202625274658">
        <time>2026-04-25T09:37:47Z</time>
      </trkpt>
      <trkpt lat="59.078571796417236" lon="30.007138252258301">
        <time>2026-04-25T09:37:49Z</time>
      </trkpt>
      <trkpt lat="59.078571796417236" lon="30.007138252258301">
        <time>2026-04-25T09:37:52Z</time>
      </trkpt>
      <trkpt lat="59.078571796417236" lon="30.007138252258301">
        <time>2026-04-25T09:37:54Z</time>
      </trkpt>
      <trkpt lat="59.078571796417236" lon="30.007138252258301">
        <time>2026-04-25T09:37:57Z</time>
      </trkpt>
      <trkpt lat="59.078571796417236" lon="30.007138252258301">
        <time>2026-04-25T09:37:59Z</time>
      </trkpt>
      <trkpt lat="59.078593254089355" lon="30.00715970993042">
        <time>2026-04-25T09:38:02Z</time>
      </trkpt>
      <trkpt lat="59.078657627105713" lon="30.007181167602539">
        <time>2026-04-25T09:38:04Z</time>
      </trkpt>
      <trkpt lat="59.078679084777832" lon="30.00715970993042">
        <time>2026-04-25T09:38:07Z</time>
      </trkpt>
      <trkpt lat="59.078700542449951" lon="30.007095336914063">
        <time>2026-04-25T09:38:09Z</time>
      </trkpt>
      <trkpt lat="59.07872200012207" lon="30.007052421569824">
        <time>2026-04-25T09:38:12Z</time>
      </trkpt>
      <trkpt lat="59.07872200012207" lon="30.007052421569824">
        <time>2026-04-25T09:38:14Z</time>
      </trkpt>
      <trkpt lat="59.07872200012207" lon="30.007052421569824">
        <time>2026-04-25T09:38:17Z</time>
      </trkpt>
      <trkpt lat="59.07872200012207" lon="30.007052421569824">
        <time>2026-04-25T09:38:19Z</time>
      </trkpt>
      <trkpt lat="59.07872200012207" lon="30.007052421569824">
        <time>2026-04-25T09:38:22Z</time>
      </trkpt>
      <trkpt lat="59.07872200012207" lon="30.007052421569824">
        <time>2026-04-25T09:38:24Z</time>
      </trkpt>
      <trkpt lat="59.078764915466309" lon="30.007030963897705">
        <time>2026-04-25T09:38:27Z</time>
      </trkpt>
      <trkpt lat="59.078786373138428" lon="30.006966590881348">
        <time>2026-04-25T09:38:29Z</time>
      </trkpt>
      <trkpt lat="59.078829288482666" lon="30.006923675537109">
        <time>2026-04-25T09:38:32Z</time>
      </trkpt>
      <trkpt lat="59.078872203826904" lon="30.006837844848633">
        <time>2026-04-25T09:38:34Z</time>
      </trkpt>
      <trkpt lat="59.078915119171143" lon="30.006794929504395">
        <time>2026-04-25T09:38:37Z</time>
      </trkpt>
      <trkpt lat="59.078958034515381" lon="30.006709098815918">
        <time>2026-04-25T09:38:39Z</time>
      </trkpt>
      <trkpt lat="59.0789794921875" lon="30.006709098815918">
        <time>2026-04-25T09:38:42Z</time>
      </trkpt>
      <trkpt lat="59.079022407531738" lon="30.00666618347168">
        <time>2026-04-25T09:38:44Z</time>
      </trkpt>
      <trkpt lat="59.079065322875977" lon="30.006687641143799">
        <time>2026-04-25T09:38:47Z</time>
      </trkpt>
      <trkpt lat="59.079065322875977" lon="30.00666618347168">
        <time>2026-04-25T09:38:49Z</time>
      </trkpt>
      <trkpt lat="59.079043865203857" lon="30.006644725799561">
        <time>2026-04-25T09:38:52Z</time>
      </trkpt>
      <trkpt lat="59.079000949859619" lon="30.00666618347168">
        <time>2026-04-25T09:38:54Z</time>
      </trkpt>
      <trkpt lat="59.078958034515381" lon="30.006730556488037">
        <time>2026-04-25T09:38:57Z</time>
      </trkpt>
      <trkpt lat="59.078893661499023" lon="30.006794929504395">
        <time>2026-04-25T09:38:59Z</time>
      </trkpt>
      <trkpt lat="59.078936576843262" lon="30.006730556488037">
        <time>2026-04-25T09:39:02Z</time>
      </trkpt>
      <trkpt lat="59.079022407531738" lon="30.00666618347168">
        <time>2026-04-25T09:39:04Z</time>
      </trkpt>
      <trkpt lat="59.079043865203857" lon="30.006644725799561">
        <time>2026-04-25T09:39:07Z</time>
      </trkpt>
      <trkpt lat="59.079043865203857" lon="30.006580352783203">
        <time>2026-04-25T09:39:09Z</time>
      </trkpt>
      <trkpt lat="59.079065322875977" lon="30.006558895111084">
        <time>2026-04-25T09:39:12Z</time>
      </trkpt>
      <trkpt lat="59.079065322875977" lon="30.006558895111084">
        <time>2026-04-25T09:39:14Z</time>
      </trkpt>
      <trkpt lat="59.079065322875977" lon="30.006558895111084">
        <time>2026-04-25T09:39:17Z</time>
      </trkpt>
      <trkpt lat="59.079065322875977" lon="30.006558895111084">
        <time>2026-04-25T09:39:19Z</time>
      </trkpt>
      <trkpt lat="59.079065322875977" lon="30.006558895111084">
        <time>2026-04-25T09:39:22Z</time>
      </trkpt>
      <trkpt lat="59.079129695892334" lon="30.006451606750488">
        <time>2026-04-25T09:39:24Z</time>
      </trkpt>
      <trkpt lat="59.079151153564453" lon="30.00640869140625">
        <time>2026-04-25T09:39:27Z</time>
      </trkpt>
      <trkpt lat="59.079151153564453" lon="30.006344318389893">
        <time>2026-04-25T09:39:29Z</time>
      </trkpt>
      <trkpt lat="59.079151153564453" lon="30.006344318389893">
        <time>2026-04-25T09:39:32Z</time>
      </trkpt>
      <trkpt lat="59.079129695892334" lon="30.006344318389893">
        <time>2026-04-25T09:39:34Z</time>
      </trkpt>
      <trkpt lat="59.079151153564453" lon="30.006301403045654">
        <time>2026-04-25T09:39:37Z</time>
      </trkpt>
      <trkpt lat="59.079151153564453" lon="30.006301403045654">
        <time>2026-04-25T09:39:39Z</time>
      </trkpt>
      <trkpt lat="59.079151153564453" lon="30.006301403045654">
        <time>2026-04-25T09:39:42Z</time>
      </trkpt>
      <trkpt lat="59.079194068908691" lon="30.006258487701416">
        <time>2026-04-25T09:39:44Z</time>
      </trkpt>
      <trkpt lat="59.07923698425293" lon="30.006215572357178">
        <time>2026-04-25T09:39:47Z</time>
      </trkpt>
      <trkpt lat="59.079279899597168" lon="30.006129741668701">
        <time>2026-04-25T09:39:49Z</time>
      </trkpt>
      <trkpt lat="59.079279899597168" lon="30.006129741668701">
        <time>2026-04-25T09:39:52Z</time>
      </trkpt>
      <trkpt lat="59.079279899597168" lon="30.006129741668701">
        <time>2026-04-25T09:39:54Z</time>
      </trkpt>
      <trkpt lat="59.079279899597168" lon="30.006129741668701">
        <time>2026-04-25T09:39:57Z</time>
      </trkpt>
      <trkpt lat="59.079279899597168" lon="30.006086826324463">
        <time>2026-04-25T09:39:59Z</time>
      </trkpt>
      <trkpt lat="59.079301357269287" lon="30.006043910980225">
        <time>2026-04-25T09:40:02Z</time>
      </trkpt>
      <trkpt lat="59.079301357269287" lon="30.006043910980225">
        <time>2026-04-25T09:40:04Z</time>
      </trkpt>
      <trkpt lat="59.079301357269287" lon="30.006043910980225">
        <time>2026-04-25T09:40:07Z</time>
      </trkpt>
      <trkpt lat="59.079301357269287" lon="30.006043910980225">
        <time>2026-04-25T09:40:09Z</time>
      </trkpt>
      <trkpt lat="59.079301357269287" lon="30.006022453308105">
        <time>2026-04-25T09:40:12Z</time>
      </trkpt>
      <trkpt lat="59.079301357269287" lon="30.005958080291748">
        <time>2026-04-25T09:40:14Z</time>
      </trkpt>
      <trkpt lat="59.079344272613525" lon="30.00591516494751">
        <time>2026-04-25T09:40:17Z</time>
      </trkpt>
      <trkpt lat="59.079344272613525" lon="30.005872249603271">
        <time>2026-04-25T09:40:19Z</time>
      </trkpt>
      <trkpt lat="59.079365730285645" lon="30.005829334259033">
        <time>2026-04-25T09:40:22Z</time>
      </trkpt>
      <trkpt lat="59.079408645629883" lon="30.005764961242676">
        <time>2026-04-25T09:40:24Z</time>
      </trkpt>
      <trkpt lat="59.079408645629883" lon="30.005743503570557">
        <time>2026-04-25T09:40:27Z</time>
      </trkpt>
      <trkpt lat="59.079408645629883" lon="30.00565767288208">
        <time>2026-04-25T09:40:29Z</time>
      </trkpt>
      <trkpt lat="59.079430103302002" lon="30.005614757537842">
        <time>2026-04-25T09:40:32Z</time>
      </trkpt>
      <trkpt lat="59.079430103302002" lon="30.005614757537842">
        <time>2026-04-25T09:40:34Z</time>
      </trkpt>
      <trkpt lat="59.079430103302002" lon="30.005614757537842">
        <time>2026-04-25T09:40:37Z</time>
      </trkpt>
      <trkpt lat="59.079430103302002" lon="30.005614757537842">
        <time>2026-04-25T09:40:39Z</time>
      </trkpt>
      <trkpt lat="59.079430103302002" lon="30.005614757537842">
        <time>2026-04-25T09:40:42Z</time>
      </trkpt>
      <trkpt lat="59.079451560974121" lon="30.005550384521484">
        <time>2026-04-25T09:40:44Z</time>
      </trkpt>
      <trkpt lat="59.07947301864624" lon="30.005486011505127">
        <time>2026-04-25T09:40:47Z</time>
      </trkpt>
      <trkpt lat="59.07947301864624" lon="30.005443096160889">
        <time>2026-04-25T09:40:49Z</time>
      </trkpt>
      <trkpt lat="59.079494476318359" lon="30.005464553833008">
        <time>2026-04-25T09:40:52Z</time>
      </trkpt>
      <trkpt lat="59.079494476318359" lon="30.005443096160889">
        <time>2026-04-25T09:40:54Z</time>
      </trkpt>
      <trkpt lat="59.079515933990479" lon="30.005443096160889">
        <time>2026-04-25T09:40:57Z</time>
      </trkpt>
      <trkpt lat="59.079515933990479" lon="30.005357265472412">
        <time>2026-04-25T09:40:59Z</time>
      </trkpt>
      <trkpt lat="59.079515933990479" lon="30.005357265472412">
        <time>2026-04-25T09:41:02Z</time>
      </trkpt>
      <trkpt lat="59.079515933990479" lon="30.005357265472412">
        <time>2026-04-25T09:41:04Z</time>
      </trkpt>
      <trkpt lat="59.079515933990479" lon="30.005357265472412">
        <time>2026-04-25T09:41:07Z</time>
      </trkpt>
      <trkpt lat="59.079515933990479" lon="30.005357265472412">
        <time>2026-04-25T09:41:09Z</time>
      </trkpt>
      <trkpt lat="59.079515933990479" lon="30.005357265472412">
        <time>2026-04-25T09:41:12Z</time>
      </trkpt>
      <trkpt lat="59.079515933990479" lon="30.005357265472412">
        <time>2026-04-25T09:41:14Z</time>
      </trkpt>
      <trkpt lat="59.079515933990479" lon="30.005357265472412">
        <time>2026-04-25T09:41:17Z</time>
      </trkpt>
      <trkpt lat="59.079515933990479" lon="30.005357265472412">
        <time>2026-04-25T09:41:19Z</time>
      </trkpt>
      <trkpt lat="59.079515933990479" lon="30.005357265472412">
        <time>2026-04-25T09:41:22Z</time>
      </trkpt>
      <trkpt lat="59.079515933990479" lon="30.005357265472412">
        <time>2026-04-25T09:41:24Z</time>
      </trkpt>
      <trkpt lat="59.079515933990479" lon="30.005357265472412">
        <time>2026-04-25T09:41:27Z</time>
      </trkpt>
      <trkpt lat="59.079515933990479" lon="30.005357265472412">
        <time>2026-04-25T09:41:29Z</time>
      </trkpt>
      <trkpt lat="59.079515933990479" lon="30.005357265472412">
        <time>2026-04-25T09:41:32Z</time>
      </trkpt>
      <trkpt lat="59.079515933990479" lon="30.005357265472412">
        <time>2026-04-25T09:41:34Z</time>
      </trkpt>
      <trkpt lat="59.079515933990479" lon="30.005357265472412">
        <time>2026-04-25T09:41:37Z</time>
      </trkpt>
      <trkpt lat="59.079515933990479" lon="30.005378723144531">
        <time>2026-04-25T09:41:39Z</time>
      </trkpt>
      <trkpt lat="59.079515933990479" lon="30.005378723144531">
        <time>2026-04-25T09:41:42Z</time>
      </trkpt>
      <trkpt lat="59.079515933990479" lon="30.005378723144531">
        <time>2026-04-25T09:41:44Z</time>
      </trkpt>
      <trkpt lat="59.079515933990479" lon="30.005378723144531">
        <time>2026-04-25T09:41:47Z</time>
      </trkpt>
      <trkpt lat="59.079515933990479" lon="30.005378723144531">
        <time>2026-04-25T09:41:49Z</time>
      </trkpt>
      <trkpt lat="59.079515933990479" lon="30.005378723144531">
        <time>2026-04-25T09:41:52Z</time>
      </trkpt>
      <trkpt lat="59.079515933990479" lon="30.005378723144531">
        <time>2026-04-25T09:41:54Z</time>
      </trkpt>
      <trkpt lat="59.079515933990479" lon="30.005378723144531">
        <time>2026-04-25T09:41:57Z</time>
      </trkpt>
      <trkpt lat="59.079515933990479" lon="30.005378723144531">
        <time>2026-04-25T09:41:59Z</time>
      </trkpt>
      <trkpt lat="59.079515933990479" lon="30.005378723144531">
        <time>2026-04-25T09:42:02Z</time>
      </trkpt>
      <trkpt lat="59.079515933990479" lon="30.005378723144531">
        <time>2026-04-25T09:42:04Z</time>
      </trkpt>
      <trkpt lat="59.079515933990479" lon="30.005378723144531">
        <time>2026-04-25T09:42:07Z</time>
      </trkpt>
      <trkpt lat="59.079515933990479" lon="30.005378723144531">
        <time>2026-04-25T09:42:09Z</time>
      </trkpt>
      <trkpt lat="59.079515933990479" lon="30.005378723144531">
        <time>2026-04-25T09:42:12Z</time>
      </trkpt>
      <trkpt lat="59.079537391662598" lon="30.00540018081665">
        <time>2026-04-25T09:42:14Z</time>
      </trkpt>
      <trkpt lat="59.079537391662598" lon="30.00540018081665">
        <time>2026-04-25T09:42:17Z</time>
      </trkpt>
      <trkpt lat="59.079515933990479" lon="30.005443096160889">
        <time>2026-04-25T09:42:19Z</time>
      </trkpt>
      <trkpt lat="59.079494476318359" lon="30.005443096160889">
        <time>2026-04-25T09:42:22Z</time>
      </trkpt>
      <trkpt lat="59.079515933990479" lon="30.00542163848877">
        <time>2026-04-25T09:42:24Z</time>
      </trkpt>
      <trkpt lat="59.079515933990479" lon="30.005378723144531">
        <time>2026-04-25T09:42:27Z</time>
      </trkpt>
      <trkpt lat="59.079537391662598" lon="30.005357265472412">
        <time>2026-04-25T09:42:29Z</time>
      </trkpt>
      <trkpt lat="59.079537391662598" lon="30.005357265472412">
        <time>2026-04-25T09:42:32Z</time>
      </trkpt>
      <trkpt lat="59.079537391662598" lon="30.005357265472412">
        <time>2026-04-25T09:42:34Z</time>
      </trkpt>
      <trkpt lat="59.079537391662598" lon="30.005357265472412">
        <time>2026-04-25T09:42:37Z</time>
      </trkpt>
      <trkpt lat="59.079537391662598" lon="30.005357265472412">
        <time>2026-04-25T09:42:39Z</time>
      </trkpt>
      <trkpt lat="59.079537391662598" lon="30.005357265472412">
        <time>2026-04-25T09:42:42Z</time>
      </trkpt>
      <trkpt lat="59.079537391662598" lon="30.005357265472412">
        <time>2026-04-25T09:42:44Z</time>
      </trkpt>
      <trkpt lat="59.079537391662598" lon="30.005357265472412">
        <time>2026-04-25T09:42:47Z</time>
      </trkpt>
      <trkpt lat="59.079537391662598" lon="30.005357265472412">
        <time>2026-04-25T09:42:49Z</time>
      </trkpt>
      <trkpt lat="59.079537391662598" lon="30.005357265472412">
        <time>2026-04-25T09:42:52Z</time>
      </trkpt>
      <trkpt lat="59.079537391662598" lon="30.005357265472412">
        <time>2026-04-25T09:42:54Z</time>
      </trkpt>
      <trkpt lat="59.079515933990479" lon="30.005378723144531">
        <time>2026-04-25T09:42:57Z</time>
      </trkpt>
      <trkpt lat="59.079515933990479" lon="30.005378723144531">
        <time>2026-04-25T09:42:59Z</time>
      </trkpt>
      <trkpt lat="59.079515933990479" lon="30.005378723144531">
        <time>2026-04-25T09:43:02Z</time>
      </trkpt>
      <trkpt lat="59.079515933990479" lon="30.005378723144531">
        <time>2026-04-25T09:43:04Z</time>
      </trkpt>
      <trkpt lat="59.079515933990479" lon="30.005378723144531">
        <time>2026-04-25T09:43:07Z</time>
      </trkpt>
      <trkpt lat="59.079515933990479" lon="30.005378723144531">
        <time>2026-04-25T09:43:09Z</time>
      </trkpt>
      <trkpt lat="59.079515933990479" lon="30.005378723144531">
        <time>2026-04-25T09:43:12Z</time>
      </trkpt>
      <trkpt lat="59.079515933990479" lon="30.005378723144531">
        <time>2026-04-25T09:43:14Z</time>
      </trkpt>
      <trkpt lat="59.079515933990479" lon="30.005378723144531">
        <time>2026-04-25T09:43:17Z</time>
      </trkpt>
      <trkpt lat="59.079515933990479" lon="30.005378723144531">
        <time>2026-04-25T09:43:19Z</time>
      </trkpt>
      <trkpt lat="59.079515933990479" lon="30.005378723144531">
        <time>2026-04-25T09:43:22Z</time>
      </trkpt>
      <trkpt lat="59.079515933990479" lon="30.005378723144531">
        <time>2026-04-25T09:43:24Z</time>
      </trkpt>
      <trkpt lat="59.079515933990479" lon="30.005378723144531">
        <time>2026-04-25T09:43:27Z</time>
      </trkpt>
      <trkpt lat="59.079515933990479" lon="30.005378723144531">
        <time>2026-04-25T09:43:29Z</time>
      </trkpt>
      <trkpt lat="59.079515933990479" lon="30.005378723144531">
        <time>2026-04-25T09:43:32Z</time>
      </trkpt>
      <trkpt lat="59.079515933990479" lon="30.005378723144531">
        <time>2026-04-25T09:43:34Z</time>
      </trkpt>
      <trkpt lat="59.079515933990479" lon="30.005378723144531">
        <time>2026-04-25T09:43:37Z</time>
      </trkpt>
      <trkpt lat="59.079515933990479" lon="30.005378723144531">
        <time>2026-04-25T09:43:39Z</time>
      </trkpt>
      <trkpt lat="59.079515933990479" lon="30.005378723144531">
        <time>2026-04-25T09:43:42Z</time>
      </trkpt>
      <trkpt lat="59.079515933990479" lon="30.005378723144531">
        <time>2026-04-25T09:43:44Z</time>
      </trkpt>
      <trkpt lat="59.079515933990479" lon="30.005378723144531">
        <time>2026-04-25T09:43:47Z</time>
      </trkpt>
      <trkpt lat="59.079515933990479" lon="30.005378723144531">
        <time>2026-04-25T09:43:49Z</time>
      </trkpt>
      <trkpt lat="59.079515933990479" lon="30.005378723144531">
        <time>2026-04-25T09:43:52Z</time>
      </trkpt>
      <trkpt lat="59.079515933990479" lon="30.005378723144531">
        <time>2026-04-25T09:43:54Z</time>
      </trkpt>
      <trkpt lat="59.079515933990479" lon="30.005378723144531">
        <time>2026-04-25T09:43:57Z</time>
      </trkpt>
      <trkpt lat="59.079515933990479" lon="30.005378723144531">
        <time>2026-04-25T09:43:59Z</time>
      </trkpt>
      <trkpt lat="59.079515933990479" lon="30.005378723144531">
        <time>2026-04-25T09:44:02Z</time>
      </trkpt>
      <trkpt lat="59.079515933990479" lon="30.005378723144531">
        <time>2026-04-25T09:44:04Z</time>
      </trkpt>
      <trkpt lat="59.079515933990479" lon="30.005378723144531">
        <time>2026-04-25T09:44:07Z</time>
      </trkpt>
      <trkpt lat="59.079515933990479" lon="30.005378723144531">
        <time>2026-04-25T09:44:09Z</time>
      </trkpt>
      <trkpt lat="59.079515933990479" lon="30.005378723144531">
        <time>2026-04-25T09:44:12Z</time>
      </trkpt>
      <trkpt lat="59.079515933990479" lon="30.005378723144531">
        <time>2026-04-25T09:44:14Z</time>
      </trkpt>
      <trkpt lat="59.079537391662598" lon="30.005378723144531">
        <time>2026-04-25T09:44:17Z</time>
      </trkpt>
      <trkpt lat="59.079537391662598" lon="30.005378723144531">
        <time>2026-04-25T09:44:19Z</time>
      </trkpt>
      <trkpt lat="59.079537391662598" lon="30.005378723144531">
        <time>2026-04-25T09:44:22Z</time>
      </trkpt>
      <trkpt lat="59.079537391662598" lon="30.005378723144531">
        <time>2026-04-25T09:44:24Z</time>
      </trkpt>
      <trkpt lat="59.079537391662598" lon="30.005378723144531">
        <time>2026-04-25T09:44:27Z</time>
      </trkpt>
      <trkpt lat="59.079537391662598" lon="30.005378723144531">
        <time>2026-04-25T09:44:29Z</time>
      </trkpt>
      <trkpt lat="59.079537391662598" lon="30.005378723144531">
        <time>2026-04-25T09:44:32Z</time>
      </trkpt>
      <trkpt lat="59.079537391662598" lon="30.005378723144531">
        <time>2026-04-25T09:44:34Z</time>
      </trkpt>
      <trkpt lat="59.079537391662598" lon="30.005378723144531">
        <time>2026-04-25T09:44:37Z</time>
      </trkpt>
      <trkpt lat="59.079537391662598" lon="30.005378723144531">
        <time>2026-04-25T09:44:39Z</time>
      </trkpt>
      <trkpt lat="59.079537391662598" lon="30.005378723144531">
        <time>2026-04-25T09:44:42Z</time>
      </trkpt>
      <trkpt lat="59.079537391662598" lon="30.005378723144531">
        <time>2026-04-25T09:44:47Z</time>
      </trkpt>
      <trkpt lat="59.079537391662598" lon="30.005378723144531">
        <time>2026-04-25T09:44:49Z</time>
      </trkpt>
      <trkpt lat="59.079537391662598" lon="30.005378723144531">
        <time>2026-04-25T09:44:52Z</time>
      </trkpt>
      <trkpt lat="59.079537391662598" lon="30.005378723144531">
        <time>2026-04-25T09:44:54Z</time>
      </trkpt>
      <trkpt lat="59.079537391662598" lon="30.005378723144531">
        <time>2026-04-25T09:44:57Z</time>
      </trkpt>
      <trkpt lat="59.079537391662598" lon="30.005378723144531">
        <time>2026-04-25T09:44:59Z</time>
      </trkpt>
      <trkpt lat="59.079537391662598" lon="30.005378723144531">
        <time>2026-04-25T09:45:02Z</time>
      </trkpt>
      <trkpt lat="59.079537391662598" lon="30.005378723144531">
        <time>2026-04-25T09:45:04Z</time>
      </trkpt>
      <trkpt lat="59.079537391662598" lon="30.005378723144531">
        <time>2026-04-25T09:45:07Z</time>
      </trkpt>
      <trkpt lat="59.079537391662598" lon="30.005378723144531">
        <time>2026-04-25T09:45:09Z</time>
      </trkpt>
      <trkpt lat="59.079537391662598" lon="30.005378723144531">
        <time>2026-04-25T09:45:12Z</time>
      </trkpt>
      <trkpt lat="59.079537391662598" lon="30.005378723144531">
        <time>2026-04-25T09:45:14Z</time>
      </trkpt>
      <trkpt lat="59.079537391662598" lon="30.005378723144531">
        <time>2026-04-25T09:45:17Z</time>
      </trkpt>
      <trkpt lat="59.079537391662598" lon="30.005378723144531">
        <time>2026-04-25T09:45:19Z</time>
      </trkpt>
      <trkpt lat="59.079537391662598" lon="30.005378723144531">
        <time>2026-04-25T09:45:22Z</time>
      </trkpt>
      <trkpt lat="59.079537391662598" lon="30.005378723144531">
        <time>2026-04-25T09:45:24Z</time>
      </trkpt>
      <trkpt lat="59.079537391662598" lon="30.005378723144531">
        <time>2026-04-25T09:45:27Z</time>
      </trkpt>
      <trkpt lat="59.079537391662598" lon="30.005378723144531">
        <time>2026-04-25T09:45:29Z</time>
      </trkpt>
      <trkpt lat="59.079537391662598" lon="30.005378723144531">
        <time>2026-04-25T09:45:32Z</time>
      </trkpt>
      <trkpt lat="59.079537391662598" lon="30.005378723144531">
        <time>2026-04-25T09:45:34Z</time>
      </trkpt>
      <trkpt lat="59.079537391662598" lon="30.005378723144531">
        <time>2026-04-25T09:45:37Z</time>
      </trkpt>
      <trkpt lat="59.079537391662598" lon="30.005378723144531">
        <time>2026-04-25T09:45:39Z</time>
      </trkpt>
      <trkpt lat="59.079515933990479" lon="30.005378723144531">
        <time>2026-04-25T09:45:42Z</time>
      </trkpt>
      <trkpt lat="59.079515933990479" lon="30.005378723144531">
        <time>2026-04-25T09:45:44Z</time>
      </trkpt>
      <trkpt lat="59.07947301864624" lon="30.00540018081665">
        <time>2026-04-25T09:45:47Z</time>
      </trkpt>
      <trkpt lat="59.079408645629883" lon="30.005378723144531">
        <time>2026-04-25T09:45:49Z</time>
      </trkpt>
      <trkpt lat="59.079430103302002" lon="30.00540018081665">
        <time>2026-04-25T09:45:52Z</time>
      </trkpt>
      <trkpt lat="59.079494476318359" lon="30.00542163848877">
        <time>2026-04-25T09:45:54Z</time>
      </trkpt>
      <trkpt lat="59.079494476318359" lon="30.005507469177246">
        <time>2026-04-25T09:45:57Z</time>
      </trkpt>
      <trkpt lat="59.079430103302002" lon="30.005636215209961">
        <time>2026-04-25T09:45:59Z</time>
      </trkpt>
      <trkpt lat="59.079451560974121" lon="30.005636215209961">
        <time>2026-04-25T09:46:02Z</time>
      </trkpt>
      <trkpt lat="59.079494476318359" lon="30.005464553833008">
        <time>2026-04-25T09:46:04Z</time>
      </trkpt>
      <trkpt lat="59.079494476318359" lon="30.005335807800293">
        <time>2026-04-25T09:46:07Z</time>
      </trkpt>
      <trkpt lat="59.079494476318359" lon="30.005228519439697">
        <time>2026-04-25T09:46:09Z</time>
      </trkpt>
      <trkpt lat="59.07947301864624" lon="30.005142688751221">
        <time>2026-04-25T09:46:14Z</time>
      </trkpt>
      <trkpt lat="59.079494476318359" lon="30.005099773406982">
        <time>2026-04-25T09:46:17Z</time>
      </trkpt>
      <trkpt lat="59.07947301864624" lon="30.005013942718506">
        <time>2026-04-25T09:46:19Z</time>
      </trkpt>
      <trkpt lat="59.07947301864624" lon="30.004971027374268">
        <time>2026-04-25T09:46:22Z</time>
      </trkpt>
      <trkpt lat="59.07947301864624" lon="30.004971027374268">
        <time>2026-04-25T09:46:24Z</time>
      </trkpt>
      <trkpt lat="59.079451560974121" lon="30.004928112030029">
        <time>2026-04-25T09:46:27Z</time>
      </trkpt>
      <trkpt lat="59.079387187957764" lon="30.004863739013672">
        <time>2026-04-25T09:46:29Z</time>
      </trkpt>
      <trkpt lat="59.079387187957764" lon="30.004842281341553">
        <time>2026-04-25T09:46:32Z</time>
      </trkpt>
      <trkpt lat="59.079430103302002" lon="30.004885196685791">
        <time>2026-04-25T09:46:34Z</time>
      </trkpt>
      <trkpt lat="59.079451560974121" lon="30.004928112030029">
        <time>2026-04-25T09:46:37Z</time>
      </trkpt>
      <trkpt lat="59.07947301864624" lon="30.005056858062744">
        <time>2026-04-25T09:46:39Z</time>
      </trkpt>
      <trkpt lat="59.079515933990479" lon="30.005142688751221">
        <time>2026-04-25T09:46:42Z</time>
      </trkpt>
      <trkpt lat="59.079515933990479" lon="30.00516414642334">
        <time>2026-04-25T09:46:44Z</time>
      </trkpt>
      <trkpt lat="59.079515933990479" lon="30.005142688751221">
        <time>2026-04-25T09:46:47Z</time>
      </trkpt>
      <trkpt lat="59.079494476318359" lon="30.004992485046387">
        <time>2026-04-25T09:46:49Z</time>
      </trkpt>
      <trkpt lat="59.07947301864624" lon="30.004928112030029">
        <time>2026-04-25T09:46:52Z</time>
      </trkpt>
      <trkpt lat="59.079451560974121" lon="30.004820823669434">
        <time>2026-04-25T09:46:54Z</time>
      </trkpt>
      <trkpt lat="59.079430103302002" lon="30.004734992980957">
        <time>2026-04-25T09:46:57Z</time>
      </trkpt>
      <trkpt lat="59.079430103302002" lon="30.004713535308838">
        <time>2026-04-25T09:46:59Z</time>
      </trkpt>
      <trkpt lat="59.079451560974121" lon="30.004713535308838">
        <time>2026-04-25T09:47:02Z</time>
      </trkpt>
      <trkpt lat="59.07947301864624" lon="30.004799365997314">
        <time>2026-04-25T09:47:04Z</time>
      </trkpt>
      <trkpt lat="59.07947301864624" lon="30.004842281341553">
        <time>2026-04-25T09:47:07Z</time>
      </trkpt>
      <trkpt lat="59.079515933990479" lon="30.004928112030029">
        <time>2026-04-25T09:47:09Z</time>
      </trkpt>
      <trkpt lat="59.079537391662598" lon="30.004992485046387">
        <time>2026-04-25T09:47:12Z</time>
      </trkpt>
      <trkpt lat="59.079537391662598" lon="30.005121231079102">
        <time>2026-04-25T09:47:14Z</time>
      </trkpt>
      <trkpt lat="59.079537391662598" lon="30.005142688751221">
        <time>2026-04-25T09:47:17Z</time>
      </trkpt>
      <trkpt lat="59.079537391662598" lon="30.005078315734863">
        <time>2026-04-25T09:47:19Z</time>
      </trkpt>
      <trkpt lat="59.079494476318359" lon="30.005013942718506">
        <time>2026-04-25T09:47:22Z</time>
      </trkpt>
      <trkpt lat="59.079430103302002" lon="30.005013942718506">
        <time>2026-04-25T09:47:24Z</time>
      </trkpt>
      <trkpt lat="59.079430103302002" lon="30.004992485046387">
        <time>2026-04-25T09:47:27Z</time>
      </trkpt>
      <trkpt lat="59.079451560974121" lon="30.004863739013672">
        <time>2026-04-25T09:47:29Z</time>
      </trkpt>
      <trkpt lat="59.079430103302002" lon="30.004734992980957">
        <time>2026-04-25T09:47:32Z</time>
      </trkpt>
      <trkpt lat="59.079430103302002" lon="30.004627704620361">
        <time>2026-04-25T09:47:34Z</time>
      </trkpt>
      <trkpt lat="59.079408645629883" lon="30.004563331604004">
        <time>2026-04-25T09:47:37Z</time>
      </trkpt>
      <trkpt lat="59.079387187957764" lon="30.004520416259766">
        <time>2026-04-25T09:47:39Z</time>
      </trkpt>
      <trkpt lat="59.079365730285645" lon="30.004498958587646">
        <time>2026-04-25T09:47:42Z</time>
      </trkpt>
      <trkpt lat="59.079387187957764" lon="30.004541873931885">
        <time>2026-04-25T09:47:44Z</time>
      </trkpt>
      <trkpt lat="59.079408645629883" lon="30.004606246948242">
        <time>2026-04-25T09:47:47Z</time>
      </trkpt>
      <trkpt lat="59.079430103302002" lon="30.004777908325195">
        <time>2026-04-25T09:47:49Z</time>
      </trkpt>
      <trkpt lat="59.079451560974121" lon="30.004863739013672">
        <time>2026-04-25T09:47:52Z</time>
      </trkpt>
      <trkpt lat="59.079451560974121" lon="30.004949569702148">
        <time>2026-04-25T09:47:54Z</time>
      </trkpt>
      <trkpt lat="59.07947301864624" lon="30.004971027374268">
        <time>2026-04-25T09:47:57Z</time>
      </trkpt>
      <trkpt lat="59.079494476318359" lon="30.004992485046387">
        <time>2026-04-25T09:47:59Z</time>
      </trkpt>
      <trkpt lat="59.079515933990479" lon="30.005035400390625">
        <time>2026-04-25T09:48:02Z</time>
      </trkpt>
      <trkpt lat="59.07947301864624" lon="30.004992485046387">
        <time>2026-04-25T09:48:04Z</time>
      </trkpt>
      <trkpt lat="59.079408645629883" lon="30.004992485046387">
        <time>2026-04-25T09:48:07Z</time>
      </trkpt>
      <trkpt lat="59.079344272613525" lon="30.005013942718506">
        <time>2026-04-25T09:48:09Z</time>
      </trkpt>
      <trkpt lat="59.079322814941406" lon="30.005013942718506">
        <time>2026-04-25T09:48:12Z</time>
      </trkpt>
      <trkpt lat="59.079344272613525" lon="30.004992485046387">
        <time>2026-04-25T09:48:14Z</time>
      </trkpt>
      <trkpt lat="59.079387187957764" lon="30.004928112030029">
        <time>2026-04-25T09:48:17Z</time>
      </trkpt>
      <trkpt lat="59.079387187957764" lon="30.004777908325195">
        <time>2026-04-25T09:48:19Z</time>
      </trkpt>
      <trkpt lat="59.079365730285645" lon="30.0046706199646">
        <time>2026-04-25T09:48:22Z</time>
      </trkpt>
      <trkpt lat="59.079322814941406" lon="30.004541873931885">
        <time>2026-04-25T09:48:24Z</time>
      </trkpt>
      <trkpt lat="59.079279899597168" lon="30.004477500915527">
        <time>2026-04-25T09:48:27Z</time>
      </trkpt>
      <trkpt lat="59.079279899597168" lon="30.004456043243408">
        <time>2026-04-25T09:48:29Z</time>
      </trkpt>
      <trkpt lat="59.079301357269287" lon="30.004477500915527">
        <time>2026-04-25T09:48:32Z</time>
      </trkpt>
      <trkpt lat="59.079365730285645" lon="30.004584789276123">
        <time>2026-04-25T09:48:34Z</time>
      </trkpt>
      <trkpt lat="59.079387187957764" lon="30.004713535308838">
        <time>2026-04-25T09:48:37Z</time>
      </trkpt>
      <trkpt lat="59.079430103302002" lon="30.004885196685791">
        <time>2026-04-25T09:48:39Z</time>
      </trkpt>
      <trkpt lat="59.079451560974121" lon="30.004949569702148">
        <time>2026-04-25T09:48:42Z</time>
      </trkpt>
      <trkpt lat="59.079430103302002" lon="30.004971027374268">
        <time>2026-04-25T09:48:44Z</time>
      </trkpt>
      <trkpt lat="59.079344272613525" lon="30.004992485046387">
        <time>2026-04-25T09:48:47Z</time>
      </trkpt>
      <trkpt lat="59.079258441925049" lon="30.005035400390625">
        <time>2026-04-25T09:48:49Z</time>
      </trkpt>
      <trkpt lat="59.07923698425293" lon="30.005035400390625">
        <time>2026-04-25T09:48:52Z</time>
      </trkpt>
      <trkpt lat="59.079301357269287" lon="30.005035400390625">
        <time>2026-04-25T09:48:54Z</time>
      </trkpt>
      <trkpt lat="59.079387187957764" lon="30.005013942718506">
        <time>2026-04-25T09:48:57Z</time>
      </trkpt>
      <trkpt lat="59.079408645629883" lon="30.00490665435791">
        <time>2026-04-25T09:48:59Z</time>
      </trkpt>
      <trkpt lat="59.079430103302002" lon="30.004692077636719">
        <time>2026-04-25T09:49:02Z</time>
      </trkpt>
      <trkpt lat="59.079408645629883" lon="30.004370212554932">
        <time>2026-04-25T09:49:04Z</time>
      </trkpt>
      <trkpt lat="59.079387187957764" lon="30.004198551177979">
        <time>2026-04-25T09:49:07Z</time>
      </trkpt>
      <trkpt lat="59.079301357269287" lon="30.004091262817383">
        <time>2026-04-25T09:49:09Z</time>
      </trkpt>
      <trkpt lat="59.079279899597168" lon="30.004091262817383">
        <time>2026-04-25T09:49:12Z</time>
      </trkpt>
      <trkpt lat="59.079258441925049" lon="30.004091262817383">
        <time>2026-04-25T09:49:14Z</time>
      </trkpt>
      <trkpt lat="59.079258441925049" lon="30.004091262817383">
        <time>2026-04-25T09:49:17Z</time>
      </trkpt>
      <trkpt lat="59.07923698425293" lon="30.004069805145264">
        <time>2026-04-25T09:49:19Z</time>
      </trkpt>
      <trkpt lat="59.07923698425293" lon="30.004069805145264">
        <time>2026-04-25T09:49:22Z</time>
      </trkpt>
      <trkpt lat="59.079215526580811" lon="30.004069805145264">
        <time>2026-04-25T09:49:24Z</time>
      </trkpt>
      <trkpt lat="59.079194068908691" lon="30.004048347473145">
        <time>2026-04-25T09:49:27Z</time>
      </trkpt>
      <trkpt lat="59.079172611236572" lon="30.003962516784668">
        <time>2026-04-25T09:49:29Z</time>
      </trkpt>
      <trkpt lat="59.079172611236572" lon="30.003898143768311">
        <time>2026-04-25T09:49:32Z</time>
      </trkpt>
      <trkpt lat="59.079151153564453" lon="30.003855228424072">
        <time>2026-04-25T09:49:37Z</time>
      </trkpt>
      <trkpt lat="59.079129695892334" lon="30.003790855407715">
        <time>2026-04-25T09:49:39Z</time>
      </trkpt>
      <trkpt lat="59.079129695892334" lon="30.003726482391357">
        <time>2026-04-25T09:49:42Z</time>
      </trkpt>
      <trkpt lat="59.079108238220215" lon="30.003640651702881">
        <time>2026-04-25T09:49:44Z</time>
      </trkpt>
      <trkpt lat="59.079086780548096" lon="30.003597736358643">
        <time>2026-04-25T09:49:47Z</time>
      </trkpt>
      <trkpt lat="59.079065322875977" lon="30.003597736358643">
        <time>2026-04-25T09:49:49Z</time>
      </trkpt>
      <trkpt lat="59.079065322875977" lon="30.003597736358643">
        <time>2026-04-25T09:49:52Z</time>
      </trkpt>
      <trkpt lat="59.079065322875977" lon="30.003597736358643">
        <time>2026-04-25T09:49:54Z</time>
      </trkpt>
      <trkpt lat="59.079065322875977" lon="30.003597736358643">
        <time>2026-04-25T09:49:57Z</time>
      </trkpt>
      <trkpt lat="59.079065322875977" lon="30.003533363342285">
        <time>2026-04-25T09:49:59Z</time>
      </trkpt>
      <trkpt lat="59.079065322875977" lon="30.003468990325928">
        <time>2026-04-25T09:50:02Z</time>
      </trkpt>
      <trkpt lat="59.079086780548096" lon="30.003383159637451">
        <time>2026-04-25T09:50:04Z</time>
      </trkpt>
      <trkpt lat="59.079108238220215" lon="30.003361701965332">
        <time>2026-04-25T09:50:07Z</time>
      </trkpt>
      <trkpt lat="59.079108238220215" lon="30.003361701965332">
        <time>2026-04-25T09:50:09Z</time>
      </trkpt>
      <trkpt lat="59.079108238220215" lon="30.003361701965332">
        <time>2026-04-25T09:50:12Z</time>
      </trkpt>
      <trkpt lat="59.079108238220215" lon="30.003361701965332">
        <time>2026-04-25T09:50:14Z</time>
      </trkpt>
      <trkpt lat="59.079108238220215" lon="30.003361701965332">
        <time>2026-04-25T09:50:17Z</time>
      </trkpt>
      <trkpt lat="59.079108238220215" lon="30.003361701965332">
        <time>2026-04-25T09:50:19Z</time>
      </trkpt>
      <trkpt lat="59.079108238220215" lon="30.003361701965332">
        <time>2026-04-25T09:50:22Z</time>
      </trkpt>
      <trkpt lat="59.079108238220215" lon="30.003340244293213">
        <time>2026-04-25T09:50:24Z</time>
      </trkpt>
      <trkpt lat="59.079108238220215" lon="30.003340244293213">
        <time>2026-04-25T09:50:27Z</time>
      </trkpt>
      <trkpt lat="59.079129695892334" lon="30.003340244293213">
        <time>2026-04-25T09:50:29Z</time>
      </trkpt>
      <trkpt lat="59.079129695892334" lon="30.003361701965332">
        <time>2026-04-25T09:50:32Z</time>
      </trkpt>
      <trkpt lat="59.079129695892334" lon="30.003361701965332">
        <time>2026-04-25T09:50:34Z</time>
      </trkpt>
      <trkpt lat="59.079151153564453" lon="30.003340244293213">
        <time>2026-04-25T09:50:37Z</time>
      </trkpt>
      <trkpt lat="59.079151153564453" lon="30.003340244293213">
        <time>2026-04-25T09:50:39Z</time>
      </trkpt>
      <trkpt lat="59.079129695892334" lon="30.003318786621094">
        <time>2026-04-25T09:50:42Z</time>
      </trkpt>
      <trkpt lat="59.079086780548096" lon="30.003297328948975">
        <time>2026-04-25T09:50:44Z</time>
      </trkpt>
      <trkpt lat="59.079065322875977" lon="30.003318786621094">
        <time>2026-04-25T09:50:47Z</time>
      </trkpt>
      <trkpt lat="59.079043865203857" lon="30.003275871276855">
        <time>2026-04-25T09:50:49Z</time>
      </trkpt>
      <trkpt lat="59.079022407531738" lon="30.003275871276855">
        <time>2026-04-25T09:50:52Z</time>
      </trkpt>
      <trkpt lat="59.0789794921875" lon="30.003211498260498">
        <time>2026-04-25T09:50:54Z</time>
      </trkpt>
      <trkpt lat="59.0789794921875" lon="30.003190040588379">
        <time>2026-04-25T09:50:57Z</time>
      </trkpt>
      <trkpt lat="59.078958034515381" lon="30.003104209899902">
        <time>2026-04-25T09:50:59Z</time>
      </trkpt>
      <trkpt lat="59.078936576843262" lon="30.003082752227783">
        <time>2026-04-25T09:51:02Z</time>
      </trkpt>
      <trkpt lat="59.078893661499023" lon="30.003125667572021">
        <time>2026-04-25T09:51:04Z</time>
      </trkpt>
      <trkpt lat="59.078872203826904" lon="30.00316858291626">
        <time>2026-04-25T09:51:07Z</time>
      </trkpt>
      <trkpt lat="59.078850746154785" lon="30.003211498260498">
        <time>2026-04-25T09:51:09Z</time>
      </trkpt>
      <trkpt lat="59.078850746154785" lon="30.003211498260498">
        <time>2026-04-25T09:51:12Z</time>
      </trkpt>
      <trkpt lat="59.078850746154785" lon="30.003211498260498">
        <time>2026-04-25T09:51:14Z</time>
      </trkpt>
      <trkpt lat="59.078829288482666" lon="30.003254413604736">
        <time>2026-04-25T09:51:17Z</time>
      </trkpt>
      <trkpt lat="59.078807830810547" lon="30.003254413604736">
        <time>2026-04-25T09:51:19Z</time>
      </trkpt>
      <trkpt lat="59.078807830810547" lon="30.003297328948975">
        <time>2026-04-25T09:51:22Z</time>
      </trkpt>
      <trkpt lat="59.078764915466309" lon="30.003361701965332">
        <time>2026-04-25T09:51:24Z</time>
      </trkpt>
      <trkpt lat="59.07872200012207" lon="30.003426074981689">
        <time>2026-04-25T09:51:27Z</time>
      </trkpt>
      <trkpt lat="59.078700542449951" lon="30.003511905670166">
        <time>2026-04-25T09:51:29Z</time>
      </trkpt>
      <trkpt lat="59.078679084777832" lon="30.003619194030762">
        <time>2026-04-25T09:51:32Z</time>
      </trkpt>
      <trkpt lat="59.078657627105713" lon="30.003683567047119">
        <time>2026-04-25T09:51:34Z</time>
      </trkpt>
      <trkpt lat="59.078614711761475" lon="30.003747940063477">
        <time>2026-04-25T09:51:37Z</time>
      </trkpt>
      <trkpt lat="59.078614711761475" lon="30.003747940063477">
        <time>2026-04-25T09:51:39Z</time>
      </trkpt>
      <trkpt lat="59.078700542449951" lon="30.003726482391357">
        <time>2026-04-25T09:51:42Z</time>
      </trkpt>
      <trkpt lat="59.07872200012207" lon="30.003683567047119">
        <time>2026-04-25T09:51:44Z</time>
      </trkpt>
      <trkpt lat="59.078700542449951" lon="30.003619194030762">
        <time>2026-04-25T09:51:47Z</time>
      </trkpt>
      <trkpt lat="59.078679084777832" lon="30.003554821014404">
        <time>2026-04-25T09:51:49Z</time>
      </trkpt>
      <trkpt lat="59.078679084777832" lon="30.00340461730957">
        <time>2026-04-25T09:51:52Z</time>
      </trkpt>
      <trkpt lat="59.07872200012207" lon="30.003340244293213">
        <time>2026-04-25T09:51:54Z</time>
      </trkpt>
      <trkpt lat="59.078764915466309" lon="30.00340461730957">
        <time>2026-04-25T09:51:57Z</time>
      </trkpt>
      <trkpt lat="59.078786373138428" lon="30.003490447998047">
        <time>2026-04-25T09:51:59Z</time>
      </trkpt>
      <trkpt lat="59.078829288482666" lon="30.003576278686523">
        <time>2026-04-25T09:52:02Z</time>
      </trkpt>
      <trkpt lat="59.078872203826904" lon="30.003554821014404">
        <time>2026-04-25T09:52:04Z</time>
      </trkpt>
      <trkpt lat="59.078893661499023" lon="30.003447532653809">
        <time>2026-04-25T09:52:07Z</time>
      </trkpt>
      <trkpt lat="59.078915119171143" lon="30.00340461730957">
        <time>2026-04-25T09:52:09Z</time>
      </trkpt>
      <trkpt lat="59.078915119171143" lon="30.00340461730957">
        <time>2026-04-25T09:52:12Z</time>
      </trkpt>
      <trkpt lat="59.078893661499023" lon="30.003490447998047">
        <time>2026-04-25T09:52:14Z</time>
      </trkpt>
      <trkpt lat="59.078850746154785" lon="30.003619194030762">
        <time>2026-04-25T09:52:17Z</time>
      </trkpt>
      <trkpt lat="59.078829288482666" lon="30.003576278686523">
        <time>2026-04-25T09:52:19Z</time>
      </trkpt>
      <trkpt lat="59.078786373138428" lon="30.003468990325928">
        <time>2026-04-25T09:52:22Z</time>
      </trkpt>
      <trkpt lat="59.078743457794189" lon="30.003361701965332">
        <time>2026-04-25T09:52:24Z</time>
      </trkpt>
      <trkpt lat="59.078700542449951" lon="30.003297328948975">
        <time>2026-04-25T09:52:27Z</time>
      </trkpt>
      <trkpt lat="59.078657627105713" lon="30.003340244293213">
        <time>2026-04-25T09:52:29Z</time>
      </trkpt>
      <trkpt lat="59.078657627105713" lon="30.003426074981689">
        <time>2026-04-25T09:52:32Z</time>
      </trkpt>
      <trkpt lat="59.078657627105713" lon="30.003468990325928">
        <time>2026-04-25T09:52:34Z</time>
      </trkpt>
      <trkpt lat="59.078657627105713" lon="30.003533363342285">
        <time>2026-04-25T09:52:37Z</time>
      </trkpt>
      <trkpt lat="59.078679084777832" lon="30.003640651702881">
        <time>2026-04-25T09:52:39Z</time>
      </trkpt>
      <trkpt lat="59.078679084777832" lon="30.003726482391357">
        <time>2026-04-25T09:52:42Z</time>
      </trkpt>
      <trkpt lat="59.078700542449951" lon="30.003769397735596">
        <time>2026-04-25T09:52:44Z</time>
      </trkpt>
      <trkpt lat="59.07872200012207" lon="30.003747940063477">
        <time>2026-04-25T09:52:47Z</time>
      </trkpt>
      <trkpt lat="59.078764915466309" lon="30.003747940063477">
        <time>2026-04-25T09:52:49Z</time>
      </trkpt>
      <trkpt lat="59.078743457794189" lon="30.003640651702881">
        <time>2026-04-25T09:52:52Z</time>
      </trkpt>
      <trkpt lat="59.078743457794189" lon="30.003576278686523">
        <time>2026-04-25T09:52:54Z</time>
      </trkpt>
      <trkpt lat="59.078743457794189" lon="30.003597736358643">
        <time>2026-04-25T09:52:57Z</time>
      </trkpt>
      <trkpt lat="59.078764915466309" lon="30.003705024719238">
        <time>2026-04-25T09:52:59Z</time>
      </trkpt>
      <trkpt lat="59.078743457794189" lon="30.003790855407715">
        <time>2026-04-25T09:53:02Z</time>
      </trkpt>
      <trkpt lat="59.07872200012207" lon="30.003898143768311">
        <time>2026-04-25T09:53:04Z</time>
      </trkpt>
      <trkpt lat="59.07872200012207" lon="30.00391960144043">
        <time>2026-04-25T09:53:07Z</time>
      </trkpt>
      <trkpt lat="59.078679084777832" lon="30.003855228424072">
        <time>2026-04-25T09:53:09Z</time>
      </trkpt>
      <trkpt lat="59.078657627105713" lon="30.003790855407715">
        <time>2026-04-25T09:53:12Z</time>
      </trkpt>
      <trkpt lat="59.078636169433594" lon="30.003790855407715">
        <time>2026-04-25T09:53:14Z</time>
      </trkpt>
      <trkpt lat="59.078636169433594" lon="30.003769397735596">
        <time>2026-04-25T09:53:17Z</time>
      </trkpt>
      <trkpt lat="59.078636169433594" lon="30.003662109375">
        <time>2026-04-25T09:53:19Z</time>
      </trkpt>
      <trkpt lat="59.078614711761475" lon="30.003597736358643">
        <time>2026-04-25T09:53:22Z</time>
      </trkpt>
      <trkpt lat="59.078657627105713" lon="30.003490447998047">
        <time>2026-04-25T09:53:24Z</time>
      </trkpt>
      <trkpt lat="59.078657627105713" lon="30.003447532653809">
        <time>2026-04-25T09:53:27Z</time>
      </trkpt>
      <trkpt lat="59.078657627105713" lon="30.003447532653809">
        <time>2026-04-25T09:53:29Z</time>
      </trkpt>
      <trkpt lat="59.078657627105713" lon="30.003447532653809">
        <time>2026-04-25T09:53:32Z</time>
      </trkpt>
      <trkpt lat="59.078657627105713" lon="30.003447532653809">
        <time>2026-04-25T09:53:34Z</time>
      </trkpt>
      <trkpt lat="59.078636169433594" lon="30.003447532653809">
        <time>2026-04-25T09:53:37Z</time>
      </trkpt>
      <trkpt lat="59.078636169433594" lon="30.003447532653809">
        <time>2026-04-25T09:53:39Z</time>
      </trkpt>
      <trkpt lat="59.078636169433594" lon="30.003468990325928">
        <time>2026-04-25T09:53:42Z</time>
      </trkpt>
      <trkpt lat="59.078614711761475" lon="30.003468990325928">
        <time>2026-04-25T09:53:44Z</time>
      </trkpt>
      <trkpt lat="59.078614711761475" lon="30.003490447998047">
        <time>2026-04-25T09:53:47Z</time>
      </trkpt>
      <trkpt lat="59.078593254089355" lon="30.003490447998047">
        <time>2026-04-25T09:53:49Z</time>
      </trkpt>
      <trkpt lat="59.078593254089355" lon="30.003511905670166">
        <time>2026-04-25T09:53:52Z</time>
      </trkpt>
      <trkpt lat="59.078593254089355" lon="30.003490447998047">
        <time>2026-04-25T09:53:54Z</time>
      </trkpt>
      <trkpt lat="59.078636169433594" lon="30.003533363342285">
        <time>2026-04-25T09:53:57Z</time>
      </trkpt>
      <trkpt lat="59.078679084777832" lon="30.003619194030762">
        <time>2026-04-25T09:53:59Z</time>
      </trkpt>
      <trkpt lat="59.078700542449951" lon="30.003662109375">
        <time>2026-04-25T09:54:02Z</time>
      </trkpt>
      <trkpt lat="59.078743457794189" lon="30.003726482391357">
        <time>2026-04-25T09:54:04Z</time>
      </trkpt>
      <trkpt lat="59.078764915466309" lon="30.003790855407715">
        <time>2026-04-25T09:54:07Z</time>
      </trkpt>
      <trkpt lat="59.078764915466309" lon="30.003898143768311">
        <time>2026-04-25T09:54:09Z</time>
      </trkpt>
      <trkpt lat="59.078764915466309" lon="30.003962516784668">
        <time>2026-04-25T09:54:12Z</time>
      </trkpt>
      <trkpt lat="59.078786373138428" lon="30.004048347473145">
        <time>2026-04-25T09:54:14Z</time>
      </trkpt>
      <trkpt lat="59.078807830810547" lon="30.004048347473145">
        <time>2026-04-25T09:54:17Z</time>
      </trkpt>
      <trkpt lat="59.078850746154785" lon="30.004112720489502">
        <time>2026-04-25T09:54:19Z</time>
      </trkpt>
      <trkpt lat="59.078850746154785" lon="30.004220008850098">
        <time>2026-04-25T09:54:22Z</time>
      </trkpt>
      <trkpt lat="59.078850746154785" lon="30.004370212554932">
        <time>2026-04-25T09:54:24Z</time>
      </trkpt>
      <trkpt lat="59.078872203826904" lon="30.004434585571289">
        <time>2026-04-25T09:54:27Z</time>
      </trkpt>
      <trkpt lat="59.078893661499023" lon="30.004606246948242">
        <time>2026-04-25T09:54:29Z</time>
      </trkpt>
      <trkpt lat="59.078893661499023" lon="30.004713535308838">
        <time>2026-04-25T09:54:32Z</time>
      </trkpt>
      <trkpt lat="59.078893661499023" lon="30.004713535308838">
        <time>2026-04-25T09:54:34Z</time>
      </trkpt>
      <trkpt lat="59.078893661499023" lon="30.004606246948242">
        <time>2026-04-25T09:54:37Z</time>
      </trkpt>
      <trkpt lat="59.078872203826904" lon="30.004477500915527">
        <time>2026-04-25T09:54:39Z</time>
      </trkpt>
      <trkpt lat="59.078850746154785" lon="30.004434585571289">
        <time>2026-04-25T09:54:42Z</time>
      </trkpt>
      <trkpt lat="59.078850746154785" lon="30.004262924194336">
        <time>2026-04-25T09:54:44Z</time>
      </trkpt>
      <trkpt lat="59.078850746154785" lon="30.004220008850098">
        <time>2026-04-25T09:54:47Z</time>
      </trkpt>
      <trkpt lat="59.078850746154785" lon="30.004305839538574">
        <time>2026-04-25T09:54:49Z</time>
      </trkpt>
      <trkpt lat="59.078807830810547" lon="30.004348754882813">
        <time>2026-04-25T09:54:52Z</time>
      </trkpt>
      <trkpt lat="59.07872200012207" lon="30.004305839538574">
        <time>2026-04-25T09:54:54Z</time>
      </trkpt>
      <trkpt lat="59.078700542449951" lon="30.004241466522217">
        <time>2026-04-25T09:54:57Z</time>
      </trkpt>
      <trkpt lat="59.078657627105713" lon="30.004134178161621">
        <time>2026-04-25T09:54:59Z</time>
      </trkpt>
      <trkpt lat="59.078614711761475" lon="30.004091262817383">
        <time>2026-04-25T09:55:02Z</time>
      </trkpt>
      <trkpt lat="59.078636169433594" lon="30.004091262817383">
        <time>2026-04-25T09:55:04Z</time>
      </trkpt>
      <trkpt lat="59.078636169433594" lon="30.004134178161621">
        <time>2026-04-25T09:55:07Z</time>
      </trkpt>
      <trkpt lat="59.078679084777832" lon="30.004241466522217">
        <time>2026-04-25T09:55:09Z</time>
      </trkpt>
      <trkpt lat="59.078700542449951" lon="30.004327297210693">
        <time>2026-04-25T09:55:12Z</time>
      </trkpt>
      <trkpt lat="59.078764915466309" lon="30.004370212554932">
        <time>2026-04-25T09:55:14Z</time>
      </trkpt>
      <trkpt lat="59.078786373138428" lon="30.004456043243408">
        <time>2026-04-25T09:55:17Z</time>
      </trkpt>
      <trkpt lat="59.078829288482666" lon="30.004563331604004">
        <time>2026-04-25T09:55:19Z</time>
      </trkpt>
      <trkpt lat="59.078850746154785" lon="30.0046706199646">
        <time>2026-04-25T09:55:22Z</time>
      </trkpt>
      <trkpt lat="59.078850746154785" lon="30.004713535308838">
        <time>2026-04-25T09:55:24Z</time>
      </trkpt>
      <trkpt lat="59.078872203826904" lon="30.004777908325195">
        <time>2026-04-25T09:55:27Z</time>
      </trkpt>
      <trkpt lat="59.078893661499023" lon="30.004863739013672">
        <time>2026-04-25T09:55:29Z</time>
      </trkpt>
      <trkpt lat="59.078893661499023" lon="30.004928112030029">
        <time>2026-04-25T09:55:32Z</time>
      </trkpt>
      <trkpt lat="59.078893661499023" lon="30.005056858062744">
        <time>2026-04-25T09:55:34Z</time>
      </trkpt>
      <trkpt lat="59.078872203826904" lon="30.005078315734863">
        <time>2026-04-25T09:55:37Z</time>
      </trkpt>
      <trkpt lat="59.078872203826904" lon="30.005078315734863">
        <time>2026-04-25T09:55:39Z</time>
      </trkpt>
      <trkpt lat="59.078872203826904" lon="30.005078315734863">
        <time>2026-04-25T09:55:42Z</time>
      </trkpt>
      <trkpt lat="59.078893661499023" lon="30.005099773406982">
        <time>2026-04-25T09:55:44Z</time>
      </trkpt>
      <trkpt lat="59.078893661499023" lon="30.005142688751221">
        <time>2026-04-25T09:55:47Z</time>
      </trkpt>
      <trkpt lat="59.078915119171143" lon="30.005249977111816">
        <time>2026-04-25T09:55:49Z</time>
      </trkpt>
      <trkpt lat="59.078936576843262" lon="30.005314350128174">
        <time>2026-04-25T09:55:52Z</time>
      </trkpt>
      <trkpt lat="59.078958034515381" lon="30.005378723144531">
        <time>2026-04-25T09:55:54Z</time>
      </trkpt>
      <trkpt lat="59.078936576843262" lon="30.00540018081665">
        <time>2026-04-25T09:55:57Z</time>
      </trkpt>
      <trkpt lat="59.078958034515381" lon="30.005486011505127">
        <time>2026-04-25T09:55:59Z</time>
      </trkpt>
      <trkpt lat="59.078958034515381" lon="30.005528926849365">
        <time>2026-04-25T09:56:02Z</time>
      </trkpt>
      <trkpt lat="59.079000949859619" lon="30.005614757537842">
        <time>2026-04-25T09:56:04Z</time>
      </trkpt>
      <trkpt lat="59.079000949859619" lon="30.005679130554199">
        <time>2026-04-25T09:56:07Z</time>
      </trkpt>
      <trkpt lat="59.079022407531738" lon="30.005786418914795">
        <time>2026-04-25T09:56:09Z</time>
      </trkpt>
      <trkpt lat="59.079065322875977" lon="30.005829334259033">
        <time>2026-04-25T09:56:12Z</time>
      </trkpt>
      <trkpt lat="59.079086780548096" lon="30.00591516494751">
        <time>2026-04-25T09:56:14Z</time>
      </trkpt>
      <trkpt lat="59.079108238220215" lon="30.005979537963867">
        <time>2026-04-25T09:56:17Z</time>
      </trkpt>
      <trkpt lat="59.079151153564453" lon="30.006065368652344">
        <time>2026-04-25T09:56:19Z</time>
      </trkpt>
      <trkpt lat="59.079151153564453" lon="30.006129741668701">
        <time>2026-04-25T09:56:22Z</time>
      </trkpt>
      <trkpt lat="59.079172611236572" lon="30.006129741668701">
        <time>2026-04-25T09:56:24Z</time>
      </trkpt>
      <trkpt lat="59.079151153564453" lon="30.006108283996582">
        <time>2026-04-25T09:56:27Z</time>
      </trkpt>
      <trkpt lat="59.079151153564453" lon="30.006086826324463">
        <time>2026-04-25T09:56:29Z</time>
      </trkpt>
      <trkpt lat="59.079151153564453" lon="30.006108283996582">
        <time>2026-04-25T09:56:32Z</time>
      </trkpt>
      <trkpt lat="59.079215526580811" lon="30.006129741668701">
        <time>2026-04-25T09:56:34Z</time>
      </trkpt>
      <trkpt lat="59.079258441925049" lon="30.006108283996582">
        <time>2026-04-25T09:56:37Z</time>
      </trkpt>
      <trkpt lat="59.079258441925049" lon="30.006086826324463">
        <time>2026-04-25T09:56:39Z</time>
      </trkpt>
      <trkpt lat="59.079258441925049" lon="30.006086826324463">
        <time>2026-04-25T09:56:42Z</time>
      </trkpt>
      <trkpt lat="59.07923698425293" lon="30.006172657012939">
        <time>2026-04-25T09:56:44Z</time>
      </trkpt>
      <trkpt lat="59.07923698425293" lon="30.006237030029297">
        <time>2026-04-25T09:56:47Z</time>
      </trkpt>
      <trkpt lat="59.079215526580811" lon="30.006301403045654">
        <time>2026-04-25T09:56:49Z</time>
      </trkpt>
      <trkpt lat="59.079215526580811" lon="30.006301403045654">
        <time>2026-04-25T09:56:52Z</time>
      </trkpt>
      <trkpt lat="59.079194068908691" lon="30.006344318389893">
        <time>2026-04-25T09:56:54Z</time>
      </trkpt>
      <trkpt lat="59.079172611236572" lon="30.006322860717773">
        <time>2026-04-25T09:56:57Z</time>
      </trkpt>
      <trkpt lat="59.079151153564453" lon="30.006258487701416">
        <time>2026-04-25T09:56:59Z</time>
      </trkpt>
      <trkpt lat="59.079129695892334" lon="30.006194114685059">
        <time>2026-04-25T09:57:02Z</time>
      </trkpt>
      <trkpt lat="59.079108238220215" lon="30.006086826324463">
        <time>2026-04-25T09:57:04Z</time>
      </trkpt>
      <trkpt lat="59.079108238220215" lon="30.006043910980225">
        <time>2026-04-25T09:57:07Z</time>
      </trkpt>
      <trkpt lat="59.079086780548096" lon="30.006000995635986">
        <time>2026-04-25T09:57:09Z</time>
      </trkpt>
      <trkpt lat="59.079086780548096" lon="30.006000995635986">
        <time>2026-04-25T09:57:12Z</time>
      </trkpt>
      <trkpt lat="59.079129695892334" lon="30.006086826324463">
        <time>2026-04-25T09:57:14Z</time>
      </trkpt>
      <trkpt lat="59.079129695892334" lon="30.00615119934082">
        <time>2026-04-25T09:57:17Z</time>
      </trkpt>
      <trkpt lat="59.079129695892334" lon="30.006237030029297">
        <time>2026-04-25T09:57:19Z</time>
      </trkpt>
      <trkpt lat="59.079151153564453" lon="30.006279945373535">
        <time>2026-04-25T09:57:22Z</time>
      </trkpt>
      <trkpt lat="59.079172611236572" lon="30.006365776062012">
        <time>2026-04-25T09:57:24Z</time>
      </trkpt>
      <trkpt lat="59.079194068908691" lon="30.006387233734131">
        <time>2026-04-25T09:57:27Z</time>
      </trkpt>
      <trkpt lat="59.07923698425293" lon="30.006344318389893">
        <time>2026-04-25T09:57:29Z</time>
      </trkpt>
      <trkpt lat="59.07923698425293" lon="30.006344318389893">
        <time>2026-04-25T09:57:32Z</time>
      </trkpt>
      <trkpt lat="59.07923698425293" lon="30.006344318389893">
        <time>2026-04-25T09:57:34Z</time>
      </trkpt>
      <trkpt lat="59.07923698425293" lon="30.006344318389893">
        <time>2026-04-25T09:57:37Z</time>
      </trkpt>
      <trkpt lat="59.07923698425293" lon="30.006344318389893">
        <time>2026-04-25T09:57:39Z</time>
      </trkpt>
      <trkpt lat="59.07923698425293" lon="30.006322860717773">
        <time>2026-04-25T09:57:42Z</time>
      </trkpt>
      <trkpt lat="59.079215526580811" lon="30.006258487701416">
        <time>2026-04-25T09:57:44Z</time>
      </trkpt>
      <trkpt lat="59.079194068908691" lon="30.006237030029297">
        <time>2026-04-25T09:57:47Z</time>
      </trkpt>
      <trkpt lat="59.079151153564453" lon="30.006108283996582">
        <time>2026-04-25T09:57:49Z</time>
      </trkpt>
      <trkpt lat="59.079129695892334" lon="30.006000995635986">
        <time>2026-04-25T09:57:52Z</time>
      </trkpt>
      <trkpt lat="59.079129695892334" lon="30.005958080291748">
        <time>2026-04-25T09:57:54Z</time>
      </trkpt>
      <trkpt lat="59.079129695892334" lon="30.005958080291748">
        <time>2026-04-25T09:57:57Z</time>
      </trkpt>
      <trkpt lat="59.079151153564453" lon="30.006043910980225">
        <time>2026-04-25T09:57:59Z</time>
      </trkpt>
      <trkpt lat="59.079172611236572" lon="30.006108283996582">
        <time>2026-04-25T09:58:02Z</time>
      </trkpt>
      <trkpt lat="59.079215526580811" lon="30.006215572357178">
        <time>2026-04-25T09:58:04Z</time>
      </trkpt>
      <trkpt lat="59.07923698425293" lon="30.006301403045654">
        <time>2026-04-25T09:58:07Z</time>
      </trkpt>
      <trkpt lat="59.079215526580811" lon="30.006365776062012">
        <time>2026-04-25T09:58:09Z</time>
      </trkpt>
      <trkpt lat="59.079215526580811" lon="30.006365776062012">
        <time>2026-04-25T09:58:12Z</time>
      </trkpt>
      <trkpt lat="59.07923698425293" lon="30.006344318389893">
        <time>2026-04-25T09:58:14Z</time>
      </trkpt>
      <trkpt lat="59.07923698425293" lon="30.006279945373535">
        <time>2026-04-25T09:58:17Z</time>
      </trkpt>
      <trkpt lat="59.079194068908691" lon="30.006172657012939">
        <time>2026-04-25T09:58:19Z</time>
      </trkpt>
      <trkpt lat="59.079151153564453" lon="30.00615119934082">
        <time>2026-04-25T09:58:22Z</time>
      </trkpt>
      <trkpt lat="59.079172611236572" lon="30.00615119934082">
        <time>2026-04-25T09:58:24Z</time>
      </trkpt>
      <trkpt lat="59.079215526580811" lon="30.006237030029297">
        <time>2026-04-25T09:58:27Z</time>
      </trkpt>
      <trkpt lat="59.07923698425293" lon="30.006387233734131">
        <time>2026-04-25T09:58:29Z</time>
      </trkpt>
      <trkpt lat="59.07923698425293" lon="30.006494522094727">
        <time>2026-04-25T09:58:32Z</time>
      </trkpt>
      <trkpt lat="59.079215526580811" lon="30.006580352783203">
        <time>2026-04-25T09:58:34Z</time>
      </trkpt>
      <trkpt lat="59.07923698425293" lon="30.006494522094727">
        <time>2026-04-25T09:58:37Z</time>
      </trkpt>
      <trkpt lat="59.07923698425293" lon="30.006301403045654">
        <time>2026-04-25T09:58:39Z</time>
      </trkpt>
      <trkpt lat="59.079194068908691" lon="30.006194114685059">
        <time>2026-04-25T09:58:42Z</time>
      </trkpt>
      <trkpt lat="59.079108238220215" lon="30.006129741668701">
        <time>2026-04-25T09:58:44Z</time>
      </trkpt>
      <trkpt lat="59.079065322875977" lon="30.006108283996582">
        <time>2026-04-25T09:58:47Z</time>
      </trkpt>
      <trkpt lat="59.079065322875977" lon="30.006108283996582">
        <time>2026-04-25T09:58:49Z</time>
      </trkpt>
      <trkpt lat="59.079022407531738" lon="30.006065368652344">
        <time>2026-04-25T09:58:52Z</time>
      </trkpt>
      <trkpt lat="59.0789794921875" lon="30.006000995635986">
        <time>2026-04-25T09:58:54Z</time>
      </trkpt>
      <trkpt lat="59.0789794921875" lon="30.005979537963867">
        <time>2026-04-25T09:58:57Z</time>
      </trkpt>
      <trkpt lat="59.0789794921875" lon="30.005979537963867">
        <time>2026-04-25T09:58:59Z</time>
      </trkpt>
      <trkpt lat="59.078958034515381" lon="30.005979537963867">
        <time>2026-04-25T09:59:02Z</time>
      </trkpt>
      <trkpt lat="59.078893661499023" lon="30.006000995635986">
        <time>2026-04-25T09:59:04Z</time>
      </trkpt>
      <trkpt lat="59.078850746154785" lon="30.006022453308105">
        <time>2026-04-25T09:59:07Z</time>
      </trkpt>
      <trkpt lat="59.078807830810547" lon="30.006022453308105">
        <time>2026-04-25T09:59:09Z</time>
      </trkpt>
      <trkpt lat="59.078807830810547" lon="30.006022453308105">
        <time>2026-04-25T09:59:12Z</time>
      </trkpt>
      <trkpt lat="59.078829288482666" lon="30.006000995635986">
        <time>2026-04-25T09:59:14Z</time>
      </trkpt>
      <trkpt lat="59.078829288482666" lon="30.006000995635986">
        <time>2026-04-25T09:59:17Z</time>
      </trkpt>
      <trkpt lat="59.078764915466309" lon="30.006043910980225">
        <time>2026-04-25T09:59:19Z</time>
      </trkpt>
      <trkpt lat="59.078700542449951" lon="30.006043910980225">
        <time>2026-04-25T09:59:22Z</time>
      </trkpt>
      <trkpt lat="59.078657627105713" lon="30.006086826324463">
        <time>2026-04-25T09:59:24Z</time>
      </trkpt>
      <trkpt lat="59.078657627105713" lon="30.006086826324463">
        <time>2026-04-25T09:59:27Z</time>
      </trkpt>
      <trkpt lat="59.078679084777832" lon="30.006065368652344">
        <time>2026-04-25T09:59:29Z</time>
      </trkpt>
      <trkpt lat="59.078679084777832" lon="30.006043910980225">
        <time>2026-04-25T09:59:32Z</time>
      </trkpt>
      <trkpt lat="59.078636169433594" lon="30.006065368652344">
        <time>2026-04-25T09:59:34Z</time>
      </trkpt>
      <trkpt lat="59.078614711761475" lon="30.006065368652344">
        <time>2026-04-25T09:59:37Z</time>
      </trkpt>
      <trkpt lat="59.078528881072998" lon="30.006065368652344">
        <time>2026-04-25T09:59:39Z</time>
      </trkpt>
      <trkpt lat="59.078528881072998" lon="30.006065368652344">
        <time>2026-04-25T09:59:42Z</time>
      </trkpt>
      <trkpt lat="59.078571796417236" lon="30.006065368652344">
        <time>2026-04-25T09:59:44Z</time>
      </trkpt>
      <trkpt lat="59.078614711761475" lon="30.006086826324463">
        <time>2026-04-25T09:59:47Z</time>
      </trkpt>
      <trkpt lat="59.078657627105713" lon="30.006065368652344">
        <time>2026-04-25T09:59:49Z</time>
      </trkpt>
      <trkpt lat="59.078679084777832" lon="30.006043910980225">
        <time>2026-04-25T09:59:52Z</time>
      </trkpt>
      <trkpt lat="59.078700542449951" lon="30.006043910980225">
        <time>2026-04-25T09:59:54Z</time>
      </trkpt>
      <trkpt lat="59.078700542449951" lon="30.006000995635986">
        <time>2026-04-25T09:59:57Z</time>
      </trkpt>
      <trkpt lat="59.078679084777832" lon="30.005958080291748">
        <time>2026-04-25T09:59:59Z</time>
      </trkpt>
      <trkpt lat="59.078679084777832" lon="30.005979537963867">
        <time>2026-04-25T10:00:02Z</time>
      </trkpt>
      <trkpt lat="59.078679084777832" lon="30.005979537963867">
        <time>2026-04-25T10:00:04Z</time>
      </trkpt>
      <trkpt lat="59.078679084777832" lon="30.005979537963867">
        <time>2026-04-25T10:00:07Z</time>
      </trkpt>
      <trkpt lat="59.078679084777832" lon="30.005979537963867">
        <time>2026-04-25T10:00:09Z</time>
      </trkpt>
      <trkpt lat="59.078679084777832" lon="30.005979537963867">
        <time>2026-04-25T10:00:12Z</time>
      </trkpt>
      <trkpt lat="59.078679084777832" lon="30.005979537963867">
        <time>2026-04-25T10:00:14Z</time>
      </trkpt>
      <trkpt lat="59.078679084777832" lon="30.005979537963867">
        <time>2026-04-25T10:00:17Z</time>
      </trkpt>
      <trkpt lat="59.078679084777832" lon="30.005979537963867">
        <time>2026-04-25T10:00:19Z</time>
      </trkpt>
      <trkpt lat="59.078679084777832" lon="30.005979537963867">
        <time>2026-04-25T10:00:22Z</time>
      </trkpt>
      <trkpt lat="59.078679084777832" lon="30.005979537963867">
        <time>2026-04-25T10:00:24Z</time>
      </trkpt>
      <trkpt lat="59.078679084777832" lon="30.005979537963867">
        <time>2026-04-25T10:00:27Z</time>
      </trkpt>
      <trkpt lat="59.078679084777832" lon="30.005979537963867">
        <time>2026-04-25T10:00:29Z</time>
      </trkpt>
      <trkpt lat="59.078679084777832" lon="30.005979537963867">
        <time>2026-04-25T10:00:32Z</time>
      </trkpt>
      <trkpt lat="59.078679084777832" lon="30.005979537963867">
        <time>2026-04-25T10:00:34Z</time>
      </trkpt>
      <trkpt lat="59.078679084777832" lon="30.005979537963867">
        <time>2026-04-25T10:00:37Z</time>
      </trkpt>
      <trkpt lat="59.078679084777832" lon="30.005979537963867">
        <time>2026-04-25T10:00:39Z</time>
      </trkpt>
      <trkpt lat="59.078679084777832" lon="30.005979537963867">
        <time>2026-04-25T10:00:42Z</time>
      </trkpt>
      <trkpt lat="59.078657627105713" lon="30.005958080291748">
        <time>2026-04-25T10:00:44Z</time>
      </trkpt>
      <trkpt lat="59.078636169433594" lon="30.005936622619629">
        <time>2026-04-25T10:00:47Z</time>
      </trkpt>
      <trkpt lat="59.078636169433594" lon="30.00591516494751">
        <time>2026-04-25T10:00:49Z</time>
      </trkpt>
      <trkpt lat="59.078636169433594" lon="30.005850791931152">
        <time>2026-04-25T10:00:52Z</time>
      </trkpt>
      <trkpt lat="59.078593254089355" lon="30.005807876586914">
        <time>2026-04-25T10:00:54Z</time>
      </trkpt>
      <trkpt lat="59.078593254089355" lon="30.005829334259033">
        <time>2026-04-25T10:00:57Z</time>
      </trkpt>
      <trkpt lat="59.078636169433594" lon="30.005893707275391">
        <time>2026-04-25T10:00:59Z</time>
      </trkpt>
      <trkpt lat="59.078657627105713" lon="30.00591516494751">
        <time>2026-04-25T10:01:02Z</time>
      </trkpt>
      <trkpt lat="59.078679084777832" lon="30.005979537963867">
        <time>2026-04-25T10:01:04Z</time>
      </trkpt>
      <trkpt lat="59.078657627105713" lon="30.006043910980225">
        <time>2026-04-25T10:01:07Z</time>
      </trkpt>
      <trkpt lat="59.078679084777832" lon="30.006043910980225">
        <time>2026-04-25T10:01:09Z</time>
      </trkpt>
      <trkpt lat="59.078700542449951" lon="30.005979537963867">
        <time>2026-04-25T10:01:12Z</time>
      </trkpt>
      <trkpt lat="59.078657627105713" lon="30.005807876586914">
        <time>2026-04-25T10:01:14Z</time>
      </trkpt>
      <trkpt lat="59.078657627105713" lon="30.005679130554199">
        <time>2026-04-25T10:01:17Z</time>
      </trkpt>
      <trkpt lat="59.078657627105713" lon="30.005464553833008">
        <time>2026-04-25T10:01:19Z</time>
      </trkpt>
      <trkpt lat="59.078636169433594" lon="30.005357265472412">
        <time>2026-04-25T10:01:22Z</time>
      </trkpt>
      <trkpt lat="59.078614711761475" lon="30.005249977111816">
        <time>2026-04-25T10:01:24Z</time>
      </trkpt>
      <trkpt lat="59.078614711761475" lon="30.005207061767578">
        <time>2026-04-25T10:01:27Z</time>
      </trkpt>
      <trkpt lat="59.078593254089355" lon="30.005142688751221">
        <time>2026-04-25T10:01:29Z</time>
      </trkpt>
      <trkpt lat="59.078571796417236" lon="30.005142688751221">
        <time>2026-04-25T10:01:32Z</time>
      </trkpt>
      <trkpt lat="59.078571796417236" lon="30.005142688751221">
        <time>2026-04-25T10:01:34Z</time>
      </trkpt>
      <trkpt lat="59.078571796417236" lon="30.005121231079102">
        <time>2026-04-25T10:01:37Z</time>
      </trkpt>
      <trkpt lat="59.078550338745117" lon="30.005056858062744">
        <time>2026-04-25T10:01:39Z</time>
      </trkpt>
      <trkpt lat="59.078507423400879" lon="30.005013942718506">
        <time>2026-04-25T10:01:42Z</time>
      </trkpt>
      <trkpt lat="59.078507423400879" lon="30.004992485046387">
        <time>2026-04-25T10:01:44Z</time>
      </trkpt>
      <trkpt lat="59.078507423400879" lon="30.004992485046387">
        <time>2026-04-25T10:01:47Z</time>
      </trkpt>
      <trkpt lat="59.078507423400879" lon="30.004949569702148">
        <time>2026-04-25T10:01:49Z</time>
      </trkpt>
      <trkpt lat="59.078507423400879" lon="30.004949569702148">
        <time>2026-04-25T10:01:52Z</time>
      </trkpt>
      <trkpt lat="59.078464508056641" lon="30.005013942718506">
        <time>2026-04-25T10:01:54Z</time>
      </trkpt>
      <trkpt lat="59.078443050384521" lon="30.005035400390625">
        <time>2026-04-25T10:01:57Z</time>
      </trkpt>
      <trkpt lat="59.078421592712402" lon="30.005056858062744">
        <time>2026-04-25T10:01:59Z</time>
      </trkpt>
      <trkpt lat="59.078421592712402" lon="30.005035400390625">
        <time>2026-04-25T10:02:02Z</time>
      </trkpt>
      <trkpt lat="59.07848596572876" lon="30.004971027374268">
        <time>2026-04-25T10:02:04Z</time>
      </trkpt>
      <trkpt lat="59.078507423400879" lon="30.004885196685791">
        <time>2026-04-25T10:02:07Z</time>
      </trkpt>
      <trkpt lat="59.078507423400879" lon="30.004777908325195">
        <time>2026-04-25T10:02:09Z</time>
      </trkpt>
      <trkpt lat="59.078507423400879" lon="30.004734992980957">
        <time>2026-04-25T10:02:12Z</time>
      </trkpt>
      <trkpt lat="59.078464508056641" lon="30.004627704620361">
        <time>2026-04-25T10:02:14Z</time>
      </trkpt>
      <trkpt lat="59.078464508056641" lon="30.004606246948242">
        <time>2026-04-25T10:02:17Z</time>
      </trkpt>
      <trkpt lat="59.078443050384521" lon="30.004584789276123">
        <time>2026-04-25T10:02:19Z</time>
      </trkpt>
      <trkpt lat="59.078400135040283" lon="30.004584789276123">
        <time>2026-04-25T10:02:22Z</time>
      </trkpt>
      <trkpt lat="59.078378677368164" lon="30.004541873931885">
        <time>2026-04-25T10:02:24Z</time>
      </trkpt>
      <trkpt lat="59.078378677368164" lon="30.004541873931885">
        <time>2026-04-25T10:02:27Z</time>
      </trkpt>
      <trkpt lat="59.078357219696045" lon="30.004456043243408">
        <time>2026-04-25T10:02:29Z</time>
      </trkpt>
      <trkpt lat="59.078357219696045" lon="30.004391670227051">
        <time>2026-04-25T10:02:32Z</time>
      </trkpt>
      <trkpt lat="59.078335762023926" lon="30.004284381866455">
        <time>2026-04-25T10:02:34Z</time>
      </trkpt>
      <trkpt lat="59.078314304351807" lon="30.004198551177979">
        <time>2026-04-25T10:02:37Z</time>
      </trkpt>
      <trkpt lat="59.078292846679688" lon="30.004112720489502">
        <time>2026-04-25T10:02:39Z</time>
      </trkpt>
      <trkpt lat="59.078271389007568" lon="30.004069805145264">
        <time>2026-04-25T10:02:42Z</time>
      </trkpt>
      <trkpt lat="59.078271389007568" lon="30.004069805145264">
        <time>2026-04-25T10:02:44Z</time>
      </trkpt>
      <trkpt lat="59.078249931335449" lon="30.004091262817383">
        <time>2026-04-25T10:02:47Z</time>
      </trkpt>
      <trkpt lat="59.07822847366333" lon="30.004112720489502">
        <time>2026-04-25T10:02:49Z</time>
      </trkpt>
      <trkpt lat="59.078207015991211" lon="30.004069805145264">
        <time>2026-04-25T10:02:52Z</time>
      </trkpt>
      <trkpt lat="59.078185558319092" lon="30.003983974456787">
        <time>2026-04-25T10:02:54Z</time>
      </trkpt>
      <trkpt lat="59.078142642974854" lon="30.003941059112549">
        <time>2026-04-25T10:02:57Z</time>
      </trkpt>
      <trkpt lat="59.078078269958496" lon="30.003898143768311">
        <time>2026-04-25T10:02:59Z</time>
      </trkpt>
      <trkpt lat="59.078078269958496" lon="30.003898143768311">
        <time>2026-04-25T10:03:02Z</time>
      </trkpt>
      <trkpt lat="59.078056812286377" lon="30.003876686096191">
        <time>2026-04-25T10:03:04Z</time>
      </trkpt>
      <trkpt lat="59.078078269958496" lon="30.003876686096191">
        <time>2026-04-25T10:03:07Z</time>
      </trkpt>
      <trkpt lat="59.078099727630615" lon="30.003790855407715">
        <time>2026-04-25T10:03:09Z</time>
      </trkpt>
      <trkpt lat="59.078121185302734" lon="30.003726482391357">
        <time>2026-04-25T10:03:12Z</time>
      </trkpt>
      <trkpt lat="59.078142642974854" lon="30.003662109375">
        <time>2026-04-25T10:03:14Z</time>
      </trkpt>
      <trkpt lat="59.078142642974854" lon="30.003619194030762">
        <time>2026-04-25T10:03:17Z</time>
      </trkpt>
      <trkpt lat="59.078142642974854" lon="30.003619194030762">
        <time>2026-04-25T10:03:19Z</time>
      </trkpt>
      <trkpt lat="59.078121185302734" lon="30.003619194030762">
        <time>2026-04-25T10:03:22Z</time>
      </trkpt>
      <trkpt lat="59.078142642974854" lon="30.003619194030762">
        <time>2026-04-25T10:03:24Z</time>
      </trkpt>
      <trkpt lat="59.078164100646973" lon="30.003597736358643">
        <time>2026-04-25T10:03:27Z</time>
      </trkpt>
      <trkpt lat="59.078185558319092" lon="30.003597736358643">
        <time>2026-04-25T10:03:29Z</time>
      </trkpt>
      <trkpt lat="59.078185558319092" lon="30.003597736358643">
        <time>2026-04-25T10:03:32Z</time>
      </trkpt>
      <trkpt lat="59.07822847366333" lon="30.003511905670166">
        <time>2026-04-25T10:03:34Z</time>
      </trkpt>
      <trkpt lat="59.07822847366333" lon="30.003468990325928">
        <time>2026-04-25T10:03:37Z</time>
      </trkpt>
      <trkpt lat="59.078207015991211" lon="30.003361701965332">
        <time>2026-04-25T10:03:39Z</time>
      </trkpt>
      <trkpt lat="59.078207015991211" lon="30.003318786621094">
        <time>2026-04-25T10:03:42Z</time>
      </trkpt>
      <trkpt lat="59.078207015991211" lon="30.003297328948975">
        <time>2026-04-25T10:03:44Z</time>
      </trkpt>
      <trkpt lat="59.078207015991211" lon="30.003318786621094">
        <time>2026-04-25T10:03:47Z</time>
      </trkpt>
      <trkpt lat="59.07822847366333" lon="30.003383159637451">
        <time>2026-04-25T10:03:49Z</time>
      </trkpt>
      <trkpt lat="59.078249931335449" lon="30.003426074981689">
        <time>2026-04-25T10:03:52Z</time>
      </trkpt>
      <trkpt lat="59.078271389007568" lon="30.003490447998047">
        <time>2026-04-25T10:03:54Z</time>
      </trkpt>
      <trkpt lat="59.078271389007568" lon="30.003511905670166">
        <time>2026-04-25T10:03:57Z</time>
      </trkpt>
      <trkpt lat="59.078249931335449" lon="30.003554821014404">
        <time>2026-04-25T10:03:59Z</time>
      </trkpt>
      <trkpt lat="59.07822847366333" lon="30.003554821014404">
        <time>2026-04-25T10:04:02Z</time>
      </trkpt>
      <trkpt lat="59.078249931335449" lon="30.003619194030762">
        <time>2026-04-25T10:04:04Z</time>
      </trkpt>
      <trkpt lat="59.078292846679688" lon="30.003683567047119">
        <time>2026-04-25T10:04:07Z</time>
      </trkpt>
      <trkpt lat="59.078292846679688" lon="30.003640651702881">
        <time>2026-04-25T10:04:09Z</time>
      </trkpt>
      <trkpt lat="59.078249931335449" lon="30.003576278686523">
        <time>2026-04-25T10:04:12Z</time>
      </trkpt>
      <trkpt lat="59.078249931335449" lon="30.003426074981689">
        <time>2026-04-25T10:04:14Z</time>
      </trkpt>
      <trkpt lat="59.07822847366333" lon="30.003318786621094">
        <time>2026-04-25T10:04:17Z</time>
      </trkpt>
      <trkpt lat="59.078164100646973" lon="30.003211498260498">
        <time>2026-04-25T10:04:19Z</time>
      </trkpt>
      <trkpt lat="59.078164100646973" lon="30.003190040588379">
        <time>2026-04-25T10:04:22Z</time>
      </trkpt>
      <trkpt lat="59.078185558319092" lon="30.003232955932617">
        <time>2026-04-25T10:04:24Z</time>
      </trkpt>
      <trkpt lat="59.078207015991211" lon="30.003297328948975">
        <time>2026-04-25T10:04:27Z</time>
      </trkpt>
      <trkpt lat="59.078249931335449" lon="30.003468990325928">
        <time>2026-04-25T10:04:29Z</time>
      </trkpt>
      <trkpt lat="59.078292846679688" lon="30.003554821014404">
        <time>2026-04-25T10:04:32Z</time>
      </trkpt>
      <trkpt lat="59.078314304351807" lon="30.003662109375">
        <time>2026-04-25T10:04:34Z</time>
      </trkpt>
      <trkpt lat="59.078335762023926" lon="30.003726482391357">
        <time>2026-04-25T10:04:37Z</time>
      </trkpt>
      <trkpt lat="59.078335762023926" lon="30.003812313079834">
        <time>2026-04-25T10:04:39Z</time>
      </trkpt>
      <trkpt lat="59.078314304351807" lon="30.003855228424072">
        <time>2026-04-25T10:04:42Z</time>
      </trkpt>
      <trkpt lat="59.078314304351807" lon="30.003855228424072">
        <time>2026-04-25T10:04:44Z</time>
      </trkpt>
      <trkpt lat="59.078292846679688" lon="30.003812313079834">
        <time>2026-04-25T10:04:47Z</time>
      </trkpt>
      <trkpt lat="59.078271389007568" lon="30.003769397735596">
        <time>2026-04-25T10:04:49Z</time>
      </trkpt>
      <trkpt lat="59.078249931335449" lon="30.003790855407715">
        <time>2026-04-25T10:04:52Z</time>
      </trkpt>
      <trkpt lat="59.07822847366333" lon="30.003726482391357">
        <time>2026-04-25T10:04:54Z</time>
      </trkpt>
      <trkpt lat="59.078185558319092" lon="30.003619194030762">
        <time>2026-04-25T10:04:57Z</time>
      </trkpt>
      <trkpt lat="59.078099727630615" lon="30.003511905670166">
        <time>2026-04-25T10:04:59Z</time>
      </trkpt>
      <trkpt lat="59.078078269958496" lon="30.003468990325928">
        <time>2026-04-25T10:05:02Z</time>
      </trkpt>
      <trkpt lat="59.078013896942139" lon="30.003490447998047">
        <time>2026-04-25T10:05:04Z</time>
      </trkpt>
      <trkpt lat="59.0779709815979" lon="30.003533363342285">
        <time>2026-04-25T10:05:07Z</time>
      </trkpt>
      <trkpt lat="59.077949523925781" lon="30.003597736358643">
        <time>2026-04-25T10:05:09Z</time>
      </trkpt>
      <trkpt lat="59.077906608581543" lon="30.003640651702881">
        <time>2026-04-25T10:05:12Z</time>
      </trkpt>
      <trkpt lat="59.077885150909424" lon="30.003683567047119">
        <time>2026-04-25T10:05:14Z</time>
      </trkpt>
      <trkpt lat="59.077863693237305" lon="30.003726482391357">
        <time>2026-04-25T10:05:17Z</time>
      </trkpt>
      <trkpt lat="59.077842235565186" lon="30.003769397735596">
        <time>2026-04-25T10:05:19Z</time>
      </trkpt>
      <trkpt lat="59.077820777893066" lon="30.003769397735596">
        <time>2026-04-25T10:05:22Z</time>
      </trkpt>
      <trkpt lat="59.077799320220947" lon="30.003769397735596">
        <time>2026-04-25T10:05:24Z</time>
      </trkpt>
      <trkpt lat="59.077799320220947" lon="30.003769397735596">
        <time>2026-04-25T10:05:27Z</time>
      </trkpt>
      <trkpt lat="59.077820777893066" lon="30.003769397735596">
        <time>2026-04-25T10:05:29Z</time>
      </trkpt>
      <trkpt lat="59.077842235565186" lon="30.003747940063477">
        <time>2026-04-25T10:05:32Z</time>
      </trkpt>
      <trkpt lat="59.077842235565186" lon="30.003747940063477">
        <time>2026-04-25T10:05:34Z</time>
      </trkpt>
      <trkpt lat="59.077842235565186" lon="30.003747940063477">
        <time>2026-04-25T10:05:37Z</time>
      </trkpt>
      <trkpt lat="59.077863693237305" lon="30.003705024719238">
        <time>2026-04-25T10:05:39Z</time>
      </trkpt>
      <trkpt lat="59.077863693237305" lon="30.003705024719238">
        <time>2026-04-25T10:05:42Z</time>
      </trkpt>
      <trkpt lat="59.077842235565186" lon="30.003705024719238">
        <time>2026-04-25T10:05:44Z</time>
      </trkpt>
      <trkpt lat="59.077820777893066" lon="30.003705024719238">
        <time>2026-04-25T10:05:47Z</time>
      </trkpt>
      <trkpt lat="59.077820777893066" lon="30.003705024719238">
        <time>2026-04-25T10:05:49Z</time>
      </trkpt>
      <trkpt lat="59.077820777893066" lon="30.003705024719238">
        <time>2026-04-25T10:05:52Z</time>
      </trkpt>
      <trkpt lat="59.077820777893066" lon="30.003705024719238">
        <time>2026-04-25T10:05:54Z</time>
      </trkpt>
      <trkpt lat="59.077820777893066" lon="30.003705024719238">
        <time>2026-04-25T10:05:57Z</time>
      </trkpt>
      <trkpt lat="59.077820777893066" lon="30.003705024719238">
        <time>2026-04-25T10:05:59Z</time>
      </trkpt>
      <trkpt lat="59.077820777893066" lon="30.003705024719238">
        <time>2026-04-25T10:06:02Z</time>
      </trkpt>
      <trkpt lat="59.077863693237305" lon="30.003726482391357">
        <time>2026-04-25T10:06:04Z</time>
      </trkpt>
      <trkpt lat="59.077842235565186" lon="30.003769397735596">
        <time>2026-04-25T10:06:07Z</time>
      </trkpt>
      <trkpt lat="59.077842235565186" lon="30.003812313079834">
        <time>2026-04-25T10:06:09Z</time>
      </trkpt>
      <trkpt lat="59.077842235565186" lon="30.003812313079834">
        <time>2026-04-25T10:06:12Z</time>
      </trkpt>
      <trkpt lat="59.077885150909424" lon="30.003833770751953">
        <time>2026-04-25T10:06:14Z</time>
      </trkpt>
      <trkpt lat="59.077906608581543" lon="30.003876686096191">
        <time>2026-04-25T10:06:17Z</time>
      </trkpt>
      <trkpt lat="59.077928066253662" lon="30.003962516784668">
        <time>2026-04-25T10:06:19Z</time>
      </trkpt>
      <trkpt lat="59.077928066253662" lon="30.003983974456787">
        <time>2026-04-25T10:06:22Z</time>
      </trkpt>
      <trkpt lat="59.0779709815979" lon="30.004026889801025">
        <time>2026-04-25T10:06:24Z</time>
      </trkpt>
      <trkpt lat="59.07799243927002" lon="30.004069805145264">
        <time>2026-04-25T10:06:27Z</time>
      </trkpt>
      <trkpt lat="59.078035354614258" lon="30.004177093505859">
        <time>2026-04-25T10:06:29Z</time>
      </trkpt>
      <trkpt lat="59.078035354614258" lon="30.004177093505859">
        <time>2026-04-25T10:06:32Z</time>
      </trkpt>
      <trkpt lat="59.078035354614258" lon="30.004220008850098">
        <time>2026-04-25T10:06:34Z</time>
      </trkpt>
      <trkpt lat="59.078035354614258" lon="30.004284381866455">
        <time>2026-04-25T10:06:37Z</time>
      </trkpt>
      <trkpt lat="59.078035354614258" lon="30.004327297210693">
        <time>2026-04-25T10:06:39Z</time>
      </trkpt>
      <trkpt lat="59.078035354614258" lon="30.004327297210693">
        <time>2026-04-25T10:06:42Z</time>
      </trkpt>
      <trkpt lat="59.078013896942139" lon="30.004327297210693">
        <time>2026-04-25T10:06:44Z</time>
      </trkpt>
      <trkpt lat="59.078013896942139" lon="30.004348754882813">
        <time>2026-04-25T10:06:47Z</time>
      </trkpt>
      <trkpt lat="59.07799243927002" lon="30.00441312789917">
        <time>2026-04-25T10:06:49Z</time>
      </trkpt>
      <trkpt lat="59.07799243927002" lon="30.00441312789917">
        <time>2026-04-25T10:06:52Z</time>
      </trkpt>
      <trkpt lat="59.07799243927002" lon="30.004434585571289">
        <time>2026-04-25T10:06:54Z</time>
      </trkpt>
      <trkpt lat="59.07799243927002" lon="30.004477500915527">
        <time>2026-04-25T10:06:57Z</time>
      </trkpt>
      <trkpt lat="59.07799243927002" lon="30.004520416259766">
        <time>2026-04-25T10:06:59Z</time>
      </trkpt>
      <trkpt lat="59.07799243927002" lon="30.004541873931885">
        <time>2026-04-25T10:07:02Z</time>
      </trkpt>
      <trkpt lat="59.078013896942139" lon="30.004563331604004">
        <time>2026-04-25T10:07:04Z</time>
      </trkpt>
      <trkpt lat="59.078035354614258" lon="30.004584789276123">
        <time>2026-04-25T10:07:07Z</time>
      </trkpt>
      <trkpt lat="59.078056812286377" lon="30.00464916229248">
        <time>2026-04-25T10:07:09Z</time>
      </trkpt>
      <trkpt lat="59.078056812286377" lon="30.004713535308838">
        <time>2026-04-25T10:07:12Z</time>
      </trkpt>
      <trkpt lat="59.078056812286377" lon="30.004713535308838">
        <time>2026-04-25T10:07:14Z</time>
      </trkpt>
      <trkpt lat="59.078056812286377" lon="30.004713535308838">
        <time>2026-04-25T10:07:17Z</time>
      </trkpt>
      <trkpt lat="59.078035354614258" lon="30.004734992980957">
        <time>2026-04-25T10:07:19Z</time>
      </trkpt>
      <trkpt lat="59.078013896942139" lon="30.004756450653076">
        <time>2026-04-25T10:07:22Z</time>
      </trkpt>
      <trkpt lat="59.078035354614258" lon="30.004756450653076">
        <time>2026-04-25T10:07:24Z</time>
      </trkpt>
      <trkpt lat="59.078035354614258" lon="30.004734992980957">
        <time>2026-04-25T10:07:27Z</time>
      </trkpt>
      <trkpt lat="59.078056812286377" lon="30.004713535308838">
        <time>2026-04-25T10:07:29Z</time>
      </trkpt>
      <trkpt lat="59.078013896942139" lon="30.004584789276123">
        <time>2026-04-25T10:07:32Z</time>
      </trkpt>
      <trkpt lat="59.078013896942139" lon="30.004584789276123">
        <time>2026-04-25T10:07:34Z</time>
      </trkpt>
      <trkpt lat="59.078035354614258" lon="30.00464916229248">
        <time>2026-04-25T10:07:37Z</time>
      </trkpt>
      <trkpt lat="59.078056812286377" lon="30.004777908325195">
        <time>2026-04-25T10:07:39Z</time>
      </trkpt>
      <trkpt lat="59.078078269958496" lon="30.004842281341553">
        <time>2026-04-25T10:07:42Z</time>
      </trkpt>
      <trkpt lat="59.078099727630615" lon="30.004885196685791">
        <time>2026-04-25T10:07:44Z</time>
      </trkpt>
      <trkpt lat="59.078099727630615" lon="30.004949569702148">
        <time>2026-04-25T10:07:47Z</time>
      </trkpt>
      <trkpt lat="59.078078269958496" lon="30.005013942718506">
        <time>2026-04-25T10:07:49Z</time>
      </trkpt>
      <trkpt lat="59.078078269958496" lon="30.005035400390625">
        <time>2026-04-25T10:07:52Z</time>
      </trkpt>
      <trkpt lat="59.078078269958496" lon="30.005035400390625">
        <time>2026-04-25T10:07:54Z</time>
      </trkpt>
      <trkpt lat="59.078078269958496" lon="30.005035400390625">
        <time>2026-04-25T10:07:57Z</time>
      </trkpt>
      <trkpt lat="59.078035354614258" lon="30.005078315734863">
        <time>2026-04-25T10:07:59Z</time>
      </trkpt>
      <trkpt lat="59.078013896942139" lon="30.005099773406982">
        <time>2026-04-25T10:08:02Z</time>
      </trkpt>
      <trkpt lat="59.078099727630615" lon="30.005035400390625">
        <time>2026-04-25T10:08:07Z</time>
      </trkpt>
      <trkpt lat="59.078099727630615" lon="30.004992485046387">
        <time>2026-04-25T10:08:09Z</time>
      </trkpt>
      <trkpt lat="59.078121185302734" lon="30.005013942718506">
        <time>2026-04-25T10:08:12Z</time>
      </trkpt>
      <trkpt lat="59.078142642974854" lon="30.005099773406982">
        <time>2026-04-25T10:08:14Z</time>
      </trkpt>
      <trkpt lat="59.078142642974854" lon="30.005228519439697">
        <time>2026-04-25T10:08:17Z</time>
      </trkpt>
      <trkpt lat="59.078142642974854" lon="30.005314350128174">
        <time>2026-04-25T10:08:19Z</time>
      </trkpt>
      <trkpt lat="59.078142642974854" lon="30.005378723144531">
        <time>2026-04-25T10:08:22Z</time>
      </trkpt>
      <trkpt lat="59.078142642974854" lon="30.00542163848877">
        <time>2026-04-25T10:08:24Z</time>
      </trkpt>
      <trkpt lat="59.078121185302734" lon="30.005486011505127">
        <time>2026-04-25T10:08:27Z</time>
      </trkpt>
      <trkpt lat="59.078121185302734" lon="30.005507469177246">
        <time>2026-04-25T10:08:29Z</time>
      </trkpt>
      <trkpt lat="59.078121185302734" lon="30.005464553833008">
        <time>2026-04-25T10:08:32Z</time>
      </trkpt>
      <trkpt lat="59.078142642974854" lon="30.005443096160889">
        <time>2026-04-25T10:08:34Z</time>
      </trkpt>
      <trkpt lat="59.078164100646973" lon="30.005486011505127">
        <time>2026-04-25T10:08:37Z</time>
      </trkpt>
      <trkpt lat="59.078164100646973" lon="30.005614757537842">
        <time>2026-04-25T10:08:39Z</time>
      </trkpt>
      <trkpt lat="59.078164100646973" lon="30.005679130554199">
        <time>2026-04-25T10:08:42Z</time>
      </trkpt>
      <trkpt lat="59.078164100646973" lon="30.005722045898438">
        <time>2026-04-25T10:08:44Z</time>
      </trkpt>
      <trkpt lat="59.078164100646973" lon="30.005722045898438">
        <time>2026-04-25T10:08:47Z</time>
      </trkpt>
      <trkpt lat="59.078164100646973" lon="30.005722045898438">
        <time>2026-04-25T10:08:49Z</time>
      </trkpt>
      <trkpt lat="59.078185558319092" lon="30.005700588226318">
        <time>2026-04-25T10:08:52Z</time>
      </trkpt>
      <trkpt lat="59.078207015991211" lon="30.005786418914795">
        <time>2026-04-25T10:08:54Z</time>
      </trkpt>
      <trkpt lat="59.078185558319092" lon="30.005829334259033">
        <time>2026-04-25T10:08:57Z</time>
      </trkpt>
      <trkpt lat="59.078185558319092" lon="30.005872249603271">
        <time>2026-04-25T10:08:59Z</time>
      </trkpt>
      <trkpt lat="59.078185558319092" lon="30.005893707275391">
        <time>2026-04-25T10:09:02Z</time>
      </trkpt>
      <trkpt lat="59.07822847366333" lon="30.005958080291748">
        <time>2026-04-25T10:09:04Z</time>
      </trkpt>
      <trkpt lat="59.07822847366333" lon="30.006000995635986">
        <time>2026-04-25T10:09:07Z</time>
      </trkpt>
      <trkpt lat="59.078207015991211" lon="30.006043910980225">
        <time>2026-04-25T10:09:09Z</time>
      </trkpt>
      <trkpt lat="59.078207015991211" lon="30.006043910980225">
        <time>2026-04-25T10:09:12Z</time>
      </trkpt>
      <trkpt lat="59.07822847366333" lon="30.006086826324463">
        <time>2026-04-25T10:09:14Z</time>
      </trkpt>
      <trkpt lat="59.07822847366333" lon="30.00615119934082">
        <time>2026-04-25T10:09:17Z</time>
      </trkpt>
      <trkpt lat="59.07822847366333" lon="30.006237030029297">
        <time>2026-04-25T10:09:19Z</time>
      </trkpt>
      <trkpt lat="59.078207015991211" lon="30.006301403045654">
        <time>2026-04-25T10:09:22Z</time>
      </trkpt>
      <trkpt lat="59.078185558319092" lon="30.006387233734131">
        <time>2026-04-25T10:09:24Z</time>
      </trkpt>
      <trkpt lat="59.078185558319092" lon="30.006387233734131">
        <time>2026-04-25T10:09:27Z</time>
      </trkpt>
      <trkpt lat="59.078207015991211" lon="30.006301403045654">
        <time>2026-04-25T10:09:29Z</time>
      </trkpt>
      <trkpt lat="59.078207015991211" lon="30.006237030029297">
        <time>2026-04-25T10:09:32Z</time>
      </trkpt>
      <trkpt lat="59.078185558319092" lon="30.00615119934082">
        <time>2026-04-25T10:09:34Z</time>
      </trkpt>
      <trkpt lat="59.078142642974854" lon="30.006086826324463">
        <time>2026-04-25T10:09:37Z</time>
      </trkpt>
      <trkpt lat="59.078142642974854" lon="30.006065368652344">
        <time>2026-04-25T10:09:39Z</time>
      </trkpt>
      <trkpt lat="59.078185558319092" lon="30.006129741668701">
        <time>2026-04-25T10:09:42Z</time>
      </trkpt>
      <trkpt lat="59.07822847366333" lon="30.006065368652344">
        <time>2026-04-25T10:09:44Z</time>
      </trkpt>
      <trkpt lat="59.07822847366333" lon="30.006065368652344">
        <time>2026-04-25T10:09:47Z</time>
      </trkpt>
      <trkpt lat="59.07822847366333" lon="30.006065368652344">
        <time>2026-04-25T10:09:49Z</time>
      </trkpt>
      <trkpt lat="59.07822847366333" lon="30.006129741668701">
        <time>2026-04-25T10:09:52Z</time>
      </trkpt>
      <trkpt lat="59.078207015991211" lon="30.006194114685059">
        <time>2026-04-25T10:09:54Z</time>
      </trkpt>
      <trkpt lat="59.078185558319092" lon="30.006215572357178">
        <time>2026-04-25T10:09:57Z</time>
      </trkpt>
      <trkpt lat="59.078185558319092" lon="30.006215572357178">
        <time>2026-04-25T10:09:59Z</time>
      </trkpt>
      <trkpt lat="59.078207015991211" lon="30.006194114685059">
        <time>2026-04-25T10:10:02Z</time>
      </trkpt>
      <trkpt lat="59.07822847366333" lon="30.00615119934082">
        <time>2026-04-25T10:10:04Z</time>
      </trkpt>
      <trkpt lat="59.07822847366333" lon="30.006086826324463">
        <time>2026-04-25T10:10:07Z</time>
      </trkpt>
      <trkpt lat="59.078207015991211" lon="30.006022453308105">
        <time>2026-04-25T10:10:09Z</time>
      </trkpt>
      <trkpt lat="59.07822847366333" lon="30.006065368652344">
        <time>2026-04-25T10:10:12Z</time>
      </trkpt>
      <trkpt lat="59.07822847366333" lon="30.006043910980225">
        <time>2026-04-25T10:10:14Z</time>
      </trkpt>
      <trkpt lat="59.078249931335449" lon="30.006065368652344">
        <time>2026-04-25T10:10:17Z</time>
      </trkpt>
      <trkpt lat="59.078249931335449" lon="30.00615119934082">
        <time>2026-04-25T10:10:19Z</time>
      </trkpt>
      <trkpt lat="59.078271389007568" lon="30.006194114685059">
        <time>2026-04-25T10:10:22Z</time>
      </trkpt>
      <trkpt lat="59.078249931335449" lon="30.006237030029297">
        <time>2026-04-25T10:10:24Z</time>
      </trkpt>
      <trkpt lat="59.078249931335449" lon="30.006237030029297">
        <time>2026-04-25T10:10:27Z</time>
      </trkpt>
      <trkpt lat="59.078249931335449" lon="30.006215572357178">
        <time>2026-04-25T10:10:29Z</time>
      </trkpt>
      <trkpt lat="59.07822847366333" lon="30.006215572357178">
        <time>2026-04-25T10:10:32Z</time>
      </trkpt>
      <trkpt lat="59.078207015991211" lon="30.006215572357178">
        <time>2026-04-25T10:10:34Z</time>
      </trkpt>
      <trkpt lat="59.078207015991211" lon="30.006215572357178">
        <time>2026-04-25T10:10:37Z</time>
      </trkpt>
      <trkpt lat="59.078207015991211" lon="30.006215572357178">
        <time>2026-04-25T10:10:39Z</time>
      </trkpt>
      <trkpt lat="59.078207015991211" lon="30.006215572357178">
        <time>2026-04-25T10:10:42Z</time>
      </trkpt>
      <trkpt lat="59.078207015991211" lon="30.006215572357178">
        <time>2026-04-25T10:10:44Z</time>
      </trkpt>
      <trkpt lat="59.078207015991211" lon="30.006215572357178">
        <time>2026-04-25T10:10:47Z</time>
      </trkpt>
      <trkpt lat="59.078207015991211" lon="30.006215572357178">
        <time>2026-04-25T10:10:49Z</time>
      </trkpt>
      <trkpt lat="59.078207015991211" lon="30.006215572357178">
        <time>2026-04-25T10:10:52Z</time>
      </trkpt>
      <trkpt lat="59.078207015991211" lon="30.006215572357178">
        <time>2026-04-25T10:10:54Z</time>
      </trkpt>
      <trkpt lat="59.078207015991211" lon="30.006215572357178">
        <time>2026-04-25T10:10:57Z</time>
      </trkpt>
      <trkpt lat="59.078207015991211" lon="30.006215572357178">
        <time>2026-04-25T10:10:59Z</time>
      </trkpt>
      <trkpt lat="59.078207015991211" lon="30.006215572357178">
        <time>2026-04-25T10:11:02Z</time>
      </trkpt>
      <trkpt lat="59.078207015991211" lon="30.006215572357178">
        <time>2026-04-25T10:11:04Z</time>
      </trkpt>
      <trkpt lat="59.078207015991211" lon="30.006215572357178">
        <time>2026-04-25T10:11:07Z</time>
      </trkpt>
      <trkpt lat="59.078207015991211" lon="30.006215572357178">
        <time>2026-04-25T10:11:09Z</time>
      </trkpt>
      <trkpt lat="59.078207015991211" lon="30.006215572357178">
        <time>2026-04-25T10:11:12Z</time>
      </trkpt>
      <trkpt lat="59.078207015991211" lon="30.006215572357178">
        <time>2026-04-25T10:11:14Z</time>
      </trkpt>
      <trkpt lat="59.078207015991211" lon="30.006215572357178">
        <time>2026-04-25T10:11:17Z</time>
      </trkpt>
      <trkpt lat="59.078207015991211" lon="30.006215572357178">
        <time>2026-04-25T10:11:19Z</time>
      </trkpt>
      <trkpt lat="59.078207015991211" lon="30.006215572357178">
        <time>2026-04-25T10:11:22Z</time>
      </trkpt>
      <trkpt lat="59.078207015991211" lon="30.006215572357178">
        <time>2026-04-25T10:11:24Z</time>
      </trkpt>
      <trkpt lat="59.07822847366333" lon="30.006215572357178">
        <time>2026-04-25T10:11:27Z</time>
      </trkpt>
      <trkpt lat="59.078207015991211" lon="30.00615119934082">
        <time>2026-04-25T10:11:29Z</time>
      </trkpt>
      <trkpt lat="59.078207015991211" lon="30.00615119934082">
        <time>2026-04-25T10:11:32Z</time>
      </trkpt>
      <trkpt lat="59.07822847366333" lon="30.00615119934082">
        <time>2026-04-25T10:11:34Z</time>
      </trkpt>
      <trkpt lat="59.07822847366333" lon="30.006194114685059">
        <time>2026-04-25T10:11:37Z</time>
      </trkpt>
      <trkpt lat="59.078207015991211" lon="30.006258487701416">
        <time>2026-04-25T10:11:39Z</time>
      </trkpt>
      <trkpt lat="59.078185558319092" lon="30.006215572357178">
        <time>2026-04-25T10:11:42Z</time>
      </trkpt>
      <trkpt lat="59.078142642974854" lon="30.006194114685059">
        <time>2026-04-25T10:11:44Z</time>
      </trkpt>
      <trkpt lat="59.078142642974854" lon="30.00615119934082">
        <time>2026-04-25T10:11:47Z</time>
      </trkpt>
      <trkpt lat="59.078121185302734" lon="30.006129741668701">
        <time>2026-04-25T10:11:49Z</time>
      </trkpt>
      <trkpt lat="59.078099727630615" lon="30.006108283996582">
        <time>2026-04-25T10:11:52Z</time>
      </trkpt>
      <trkpt lat="59.078056812286377" lon="30.006086826324463">
        <time>2026-04-25T10:11:54Z</time>
      </trkpt>
      <trkpt lat="59.078056812286377" lon="30.006065368652344">
        <time>2026-04-25T10:11:57Z</time>
      </trkpt>
      <trkpt lat="59.078035354614258" lon="30.006043910980225">
        <time>2026-04-25T10:11:59Z</time>
      </trkpt>
      <trkpt lat="59.078013896942139" lon="30.006022453308105">
        <time>2026-04-25T10:12:02Z</time>
      </trkpt>
      <trkpt lat="59.07799243927002" lon="30.006022453308105">
        <time>2026-04-25T10:12:04Z</time>
      </trkpt>
      <trkpt lat="59.0779709815979" lon="30.006065368652344">
        <time>2026-04-25T10:12:07Z</time>
      </trkpt>
      <trkpt lat="59.077949523925781" lon="30.006086826324463">
        <time>2026-04-25T10:12:09Z</time>
      </trkpt>
      <trkpt lat="59.077949523925781" lon="30.006043910980225">
        <time>2026-04-25T10:12:12Z</time>
      </trkpt>
      <trkpt lat="59.0779709815979" lon="30.006000995635986">
        <time>2026-04-25T10:12:14Z</time>
      </trkpt>
      <trkpt lat="59.0779709815979" lon="30.005979537963867">
        <time>2026-04-25T10:12:17Z</time>
      </trkpt>
      <trkpt lat="59.077906608581543" lon="30.005936622619629">
        <time>2026-04-25T10:12:19Z</time>
      </trkpt>
      <trkpt lat="59.077906608581543" lon="30.00591516494751">
        <time>2026-04-25T10:12:22Z</time>
      </trkpt>
      <trkpt lat="59.077928066253662" lon="30.00591516494751">
        <time>2026-04-25T10:12:24Z</time>
      </trkpt>
      <trkpt lat="59.077928066253662" lon="30.005979537963867">
        <time>2026-04-25T10:12:27Z</time>
      </trkpt>
      <trkpt lat="59.077928066253662" lon="30.006022453308105">
        <time>2026-04-25T10:12:29Z</time>
      </trkpt>
      <trkpt lat="59.077906608581543" lon="30.006086826324463">
        <time>2026-04-25T10:12:32Z</time>
      </trkpt>
      <trkpt lat="59.077842235565186" lon="30.006172657012939">
        <time>2026-04-25T10:12:34Z</time>
      </trkpt>
      <trkpt lat="59.077820777893066" lon="30.006237030029297">
        <time>2026-04-25T10:12:37Z</time>
      </trkpt>
      <trkpt lat="59.077799320220947" lon="30.006258487701416">
        <time>2026-04-25T10:12:39Z</time>
      </trkpt>
      <trkpt lat="59.077820777893066" lon="30.006237030029297">
        <time>2026-04-25T10:12:42Z</time>
      </trkpt>
      <trkpt lat="59.077820777893066" lon="30.006237030029297">
        <time>2026-04-25T10:12:44Z</time>
      </trkpt>
      <trkpt lat="59.077820777893066" lon="30.006237030029297">
        <time>2026-04-25T10:12:47Z</time>
      </trkpt>
      <trkpt lat="59.077863693237305" lon="30.006194114685059">
        <time>2026-04-25T10:12:49Z</time>
      </trkpt>
      <trkpt lat="59.077885150909424" lon="30.00615119934082">
        <time>2026-04-25T10:12:52Z</time>
      </trkpt>
      <trkpt lat="59.077906608581543" lon="30.006065368652344">
        <time>2026-04-25T10:12:54Z</time>
      </trkpt>
      <trkpt lat="59.077928066253662" lon="30.006000995635986">
        <time>2026-04-25T10:12:57Z</time>
      </trkpt>
      <trkpt lat="59.077906608581543" lon="30.005958080291748">
        <time>2026-04-25T10:12:59Z</time>
      </trkpt>
      <trkpt lat="59.077906608581543" lon="30.005958080291748">
        <time>2026-04-25T10:13:02Z</time>
      </trkpt>
      <trkpt lat="59.077949523925781" lon="30.006022453308105">
        <time>2026-04-25T10:13:04Z</time>
      </trkpt>
      <trkpt lat="59.0779709815979" lon="30.006065368652344">
        <time>2026-04-25T10:13:07Z</time>
      </trkpt>
      <trkpt lat="59.077928066253662" lon="30.006108283996582">
        <time>2026-04-25T10:13:09Z</time>
      </trkpt>
      <trkpt lat="59.077885150909424" lon="30.006108283996582">
        <time>2026-04-25T10:13:12Z</time>
      </trkpt>
      <trkpt lat="59.077885150909424" lon="30.006129741668701">
        <time>2026-04-25T10:13:14Z</time>
      </trkpt>
      <trkpt lat="59.077842235565186" lon="30.006086826324463">
        <time>2026-04-25T10:13:17Z</time>
      </trkpt>
      <trkpt lat="59.077820777893066" lon="30.006065368652344">
        <time>2026-04-25T10:13:19Z</time>
      </trkpt>
      <trkpt lat="59.077842235565186" lon="30.006065368652344">
        <time>2026-04-25T10:13:22Z</time>
      </trkpt>
      <trkpt lat="59.077820777893066" lon="30.006065368652344">
        <time>2026-04-25T10:13:24Z</time>
      </trkpt>
      <trkpt lat="59.077799320220947" lon="30.006022453308105">
        <time>2026-04-25T10:13:27Z</time>
      </trkpt>
      <trkpt lat="59.077777862548828" lon="30.005979537963867">
        <time>2026-04-25T10:13:29Z</time>
      </trkpt>
      <trkpt lat="59.077756404876709" lon="30.005979537963867">
        <time>2026-04-25T10:13:32Z</time>
      </trkpt>
      <trkpt lat="59.07773494720459" lon="30.005958080291748">
        <time>2026-04-25T10:13:34Z</time>
      </trkpt>
      <trkpt lat="59.077756404876709" lon="30.005958080291748">
        <time>2026-04-25T10:13:37Z</time>
      </trkpt>
      <trkpt lat="59.077777862548828" lon="30.005936622619629">
        <time>2026-04-25T10:13:39Z</time>
      </trkpt>
      <trkpt lat="59.077777862548828" lon="30.005936622619629">
        <time>2026-04-25T10:13:42Z</time>
      </trkpt>
      <trkpt lat="59.077777862548828" lon="30.005936622619629">
        <time>2026-04-25T10:13:44Z</time>
      </trkpt>
      <trkpt lat="59.077777862548828" lon="30.005936622619629">
        <time>2026-04-25T10:13:47Z</time>
      </trkpt>
      <trkpt lat="59.077777862548828" lon="30.005872249603271">
        <time>2026-04-25T10:13:49Z</time>
      </trkpt>
      <trkpt lat="59.077777862548828" lon="30.005829334259033">
        <time>2026-04-25T10:13:52Z</time>
      </trkpt>
      <trkpt lat="59.077777862548828" lon="30.005764961242676">
        <time>2026-04-25T10:13:54Z</time>
      </trkpt>
      <trkpt lat="59.077777862548828" lon="30.005722045898438">
        <time>2026-04-25T10:13:57Z</time>
      </trkpt>
      <trkpt lat="59.077756404876709" lon="30.005679130554199">
        <time>2026-04-25T10:13:59Z</time>
      </trkpt>
      <trkpt lat="59.077756404876709" lon="30.005636215209961">
        <time>2026-04-25T10:14:02Z</time>
      </trkpt>
      <trkpt lat="59.07773494720459" lon="30.005593299865723">
        <time>2026-04-25T10:14:04Z</time>
      </trkpt>
      <trkpt lat="59.07773494720459" lon="30.005550384521484">
        <time>2026-04-25T10:14:07Z</time>
      </trkpt>
      <trkpt lat="59.077713489532471" lon="30.005507469177246">
        <time>2026-04-25T10:14:09Z</time>
      </trkpt>
      <trkpt lat="59.077713489532471" lon="30.005507469177246">
        <time>2026-04-25T10:14:12Z</time>
      </trkpt>
      <trkpt lat="59.077713489532471" lon="30.005507469177246">
        <time>2026-04-25T10:14:14Z</time>
      </trkpt>
      <trkpt lat="59.077713489532471" lon="30.005507469177246">
        <time>2026-04-25T10:14:17Z</time>
      </trkpt>
      <trkpt lat="59.077713489532471" lon="30.005507469177246">
        <time>2026-04-25T10:14:19Z</time>
      </trkpt>
      <trkpt lat="59.077713489532471" lon="30.005507469177246">
        <time>2026-04-25T10:14:22Z</time>
      </trkpt>
      <trkpt lat="59.077713489532471" lon="30.005486011505127">
        <time>2026-04-25T10:14:24Z</time>
      </trkpt>
      <trkpt lat="59.077692031860352" lon="30.005443096160889">
        <time>2026-04-25T10:14:27Z</time>
      </trkpt>
      <trkpt lat="59.077649116516113" lon="30.00540018081665">
        <time>2026-04-25T10:14:29Z</time>
      </trkpt>
      <trkpt lat="59.077670574188232" lon="30.00540018081665">
        <time>2026-04-25T10:14:32Z</time>
      </trkpt>
      <trkpt lat="59.077627658843994" lon="30.005378723144531">
        <time>2026-04-25T10:14:34Z</time>
      </trkpt>
      <trkpt lat="59.077563285827637" lon="30.005335807800293">
        <time>2026-04-25T10:14:37Z</time>
      </trkpt>
      <trkpt lat="59.077563285827637" lon="30.005335807800293">
        <time>2026-04-25T10:14:39Z</time>
      </trkpt>
      <trkpt lat="59.077606201171875" lon="30.005357265472412">
        <time>2026-04-25T10:14:42Z</time>
      </trkpt>
      <trkpt lat="59.077692031860352" lon="30.005443096160889">
        <time>2026-04-25T10:14:44Z</time>
      </trkpt>
      <trkpt lat="59.077713489532471" lon="30.005528926849365">
        <time>2026-04-25T10:14:47Z</time>
      </trkpt>
      <trkpt lat="59.07773494720459" lon="30.005528926849365">
        <time>2026-04-25T10:14:49Z</time>
      </trkpt>
      <trkpt lat="59.077713489532471" lon="30.005443096160889">
        <time>2026-04-25T10:14:52Z</time>
      </trkpt>
      <trkpt lat="59.077692031860352" lon="30.005249977111816">
        <time>2026-04-25T10:14:54Z</time>
      </trkpt>
      <trkpt lat="59.077692031860352" lon="30.00516414642334">
        <time>2026-04-25T10:14:57Z</time>
      </trkpt>
      <trkpt lat="59.077649116516113" lon="30.005078315734863">
        <time>2026-04-25T10:14:59Z</time>
      </trkpt>
      <trkpt lat="59.077627658843994" lon="30.005035400390625">
        <time>2026-04-25T10:15:02Z</time>
      </trkpt>
      <trkpt lat="59.077627658843994" lon="30.005056858062744">
        <time>2026-04-25T10:15:04Z</time>
      </trkpt>
      <trkpt lat="59.077606201171875" lon="30.005013942718506">
        <time>2026-04-25T10:15:07Z</time>
      </trkpt>
      <trkpt lat="59.077520370483398" lon="30.004928112030029">
        <time>2026-04-25T10:15:09Z</time>
      </trkpt>
      <trkpt lat="59.077520370483398" lon="30.00490665435791">
        <time>2026-04-25T10:15:12Z</time>
      </trkpt>
      <trkpt lat="59.077584743499756" lon="30.004971027374268">
        <time>2026-04-25T10:15:14Z</time>
      </trkpt>
      <trkpt lat="59.077606201171875" lon="30.004971027374268">
        <time>2026-04-25T10:15:17Z</time>
      </trkpt>
      <trkpt lat="59.077563285827637" lon="30.004949569702148">
        <time>2026-04-25T10:15:19Z</time>
      </trkpt>
      <trkpt lat="59.077520370483398" lon="30.00490665435791">
        <time>2026-04-25T10:15:22Z</time>
      </trkpt>
      <trkpt lat="59.077434539794922" lon="30.004734992980957">
        <time>2026-04-25T10:15:24Z</time>
      </trkpt>
      <trkpt lat="59.077413082122803" lon="30.004734992980957">
        <time>2026-04-25T10:15:27Z</time>
      </trkpt>
      <trkpt lat="59.077498912811279" lon="30.00490665435791">
        <time>2026-04-25T10:15:29Z</time>
      </trkpt>
      <trkpt lat="59.077584743499756" lon="30.004992485046387">
        <time>2026-04-25T10:15:32Z</time>
      </trkpt>
      <trkpt lat="59.077649116516113" lon="30.005078315734863">
        <time>2026-04-25T10:15:34Z</time>
      </trkpt>
      <trkpt lat="59.077649116516113" lon="30.005078315734863">
        <time>2026-04-25T10:15:37Z</time>
      </trkpt>
      <trkpt lat="59.077627658843994" lon="30.004928112030029">
        <time>2026-04-25T10:15:39Z</time>
      </trkpt>
      <trkpt lat="59.077606201171875" lon="30.004820823669434">
        <time>2026-04-25T10:15:42Z</time>
      </trkpt>
      <trkpt lat="59.077563285827637" lon="30.004713535308838">
        <time>2026-04-25T10:15:44Z</time>
      </trkpt>
      <trkpt lat="59.077563285827637" lon="30.004713535308838">
        <time>2026-04-25T10:15:47Z</time>
      </trkpt>
      <trkpt lat="59.077541828155518" lon="30.004692077636719">
        <time>2026-04-25T10:15:49Z</time>
      </trkpt>
      <trkpt lat="59.077498912811279" lon="30.004692077636719">
        <time>2026-04-25T10:15:52Z</time>
      </trkpt>
      <trkpt lat="59.077498912811279" lon="30.0046706199646">
        <time>2026-04-25T10:15:54Z</time>
      </trkpt>
      <trkpt lat="59.077541828155518" lon="30.004584789276123">
        <time>2026-04-25T10:15:57Z</time>
      </trkpt>
      <trkpt lat="59.077563285827637" lon="30.004477500915527">
        <time>2026-04-25T10:15:59Z</time>
      </trkpt>
      <trkpt lat="59.077541828155518" lon="30.00441312789917">
        <time>2026-04-25T10:16:02Z</time>
      </trkpt>
      <trkpt lat="59.077498912811279" lon="30.004348754882813">
        <time>2026-04-25T10:16:04Z</time>
      </trkpt>
      <trkpt lat="59.07747745513916" lon="30.004284381866455">
        <time>2026-04-25T10:16:07Z</time>
      </trkpt>
      <trkpt lat="59.077413082122803" lon="30.004241466522217">
        <time>2026-04-25T10:16:09Z</time>
      </trkpt>
      <trkpt lat="59.077391624450684" lon="30.004241466522217">
        <time>2026-04-25T10:16:12Z</time>
      </trkpt>
      <trkpt lat="59.077370166778564" lon="30.004198551177979">
        <time>2026-04-25T10:16:14Z</time>
      </trkpt>
      <trkpt lat="59.077370166778564" lon="30.004198551177979">
        <time>2026-04-25T10:16:17Z</time>
      </trkpt>
      <trkpt lat="59.077370166778564" lon="30.004198551177979">
        <time>2026-04-25T10:16:19Z</time>
      </trkpt>
      <trkpt lat="59.077391624450684" lon="30.004198551177979">
        <time>2026-04-25T10:16:22Z</time>
      </trkpt>
      <trkpt lat="59.077413082122803" lon="30.004134178161621">
        <time>2026-04-25T10:16:24Z</time>
      </trkpt>
      <trkpt lat="59.077455997467041" lon="30.004091262817383">
        <time>2026-04-25T10:16:27Z</time>
      </trkpt>
      <trkpt lat="59.077498912811279" lon="30.004048347473145">
        <time>2026-04-25T10:16:29Z</time>
      </trkpt>
      <trkpt lat="59.077520370483398" lon="30.004026889801025">
        <time>2026-04-25T10:16:32Z</time>
      </trkpt>
      <trkpt lat="59.077520370483398" lon="30.003941059112549">
        <time>2026-04-25T10:16:34Z</time>
      </trkpt>
      <trkpt lat="59.077498912811279" lon="30.003898143768311">
        <time>2026-04-25T10:16:37Z</time>
      </trkpt>
      <trkpt lat="59.077498912811279" lon="30.003898143768311">
        <time>2026-04-25T10:16:39Z</time>
      </trkpt>
      <trkpt lat="59.07747745513916" lon="30.003898143768311">
        <time>2026-04-25T10:16:42Z</time>
      </trkpt>
      <trkpt lat="59.077455997467041" lon="30.003833770751953">
        <time>2026-04-25T10:16:44Z</time>
      </trkpt>
      <trkpt lat="59.077455997467041" lon="30.003812313079834">
        <time>2026-04-25T10:16:47Z</time>
      </trkpt>
      <trkpt lat="59.077434539794922" lon="30.003812313079834">
        <time>2026-04-25T10:16:49Z</time>
      </trkpt>
      <trkpt lat="59.077455997467041" lon="30.003769397735596">
        <time>2026-04-25T10:16:52Z</time>
      </trkpt>
      <trkpt lat="59.07747745513916" lon="30.003726482391357">
        <time>2026-04-25T10:16:54Z</time>
      </trkpt>
      <trkpt lat="59.077498912811279" lon="30.003705024719238">
        <time>2026-04-25T10:16:57Z</time>
      </trkpt>
      <trkpt lat="59.07747745513916" lon="30.003683567047119">
        <time>2026-04-25T10:16:59Z</time>
      </trkpt>
      <trkpt lat="59.077498912811279" lon="30.003705024719238">
        <time>2026-04-25T10:17:02Z</time>
      </trkpt>
      <trkpt lat="59.077498912811279" lon="30.003726482391357">
        <time>2026-04-25T10:17:04Z</time>
      </trkpt>
      <trkpt lat="59.077498912811279" lon="30.003726482391357">
        <time>2026-04-25T10:17:07Z</time>
      </trkpt>
      <trkpt lat="59.07747745513916" lon="30.003747940063477">
        <time>2026-04-25T10:17:09Z</time>
      </trkpt>
      <trkpt lat="59.07747745513916" lon="30.003747940063477">
        <time>2026-04-25T10:17:12Z</time>
      </trkpt>
      <trkpt lat="59.077455997467041" lon="30.003790855407715">
        <time>2026-04-25T10:17:14Z</time>
      </trkpt>
      <trkpt lat="59.077434539794922" lon="30.003790855407715">
        <time>2026-04-25T10:17:17Z</time>
      </trkpt>
      <trkpt lat="59.077434539794922" lon="30.003790855407715">
        <time>2026-04-25T10:17:19Z</time>
      </trkpt>
      <trkpt lat="59.077434539794922" lon="30.003790855407715">
        <time>2026-04-25T10:17:22Z</time>
      </trkpt>
      <trkpt lat="59.077434539794922" lon="30.003790855407715">
        <time>2026-04-25T10:17:24Z</time>
      </trkpt>
      <trkpt lat="59.077434539794922" lon="30.003790855407715">
        <time>2026-04-25T10:17:27Z</time>
      </trkpt>
      <trkpt lat="59.077434539794922" lon="30.003790855407715">
        <time>2026-04-25T10:17:29Z</time>
      </trkpt>
      <trkpt lat="59.077434539794922" lon="30.003790855407715">
        <time>2026-04-25T10:17:32Z</time>
      </trkpt>
      <trkpt lat="59.077434539794922" lon="30.003790855407715">
        <time>2026-04-25T10:17:34Z</time>
      </trkpt>
      <trkpt lat="59.077434539794922" lon="30.003790855407715">
        <time>2026-04-25T10:17:37Z</time>
      </trkpt>
      <trkpt lat="59.077434539794922" lon="30.003790855407715">
        <time>2026-04-25T10:17:39Z</time>
      </trkpt>
      <trkpt lat="59.077434539794922" lon="30.003790855407715">
        <time>2026-04-25T10:17:42Z</time>
      </trkpt>
      <trkpt lat="59.077434539794922" lon="30.003790855407715">
        <time>2026-04-25T10:17:44Z</time>
      </trkpt>
      <trkpt lat="59.077434539794922" lon="30.003790855407715">
        <time>2026-04-25T10:17:47Z</time>
      </trkpt>
      <trkpt lat="59.077413082122803" lon="30.003769397735596">
        <time>2026-04-25T10:17:49Z</time>
      </trkpt>
      <trkpt lat="59.077413082122803" lon="30.003769397735596">
        <time>2026-04-25T10:17:52Z</time>
      </trkpt>
      <trkpt lat="59.077413082122803" lon="30.003769397735596">
        <time>2026-04-25T10:17:54Z</time>
      </trkpt>
      <trkpt lat="59.077434539794922" lon="30.003812313079834">
        <time>2026-04-25T10:17:57Z</time>
      </trkpt>
      <trkpt lat="59.077413082122803" lon="30.003833770751953">
        <time>2026-04-25T10:17:59Z</time>
      </trkpt>
      <trkpt lat="59.077391624450684" lon="30.003855228424072">
        <time>2026-04-25T10:18:02Z</time>
      </trkpt>
      <trkpt lat="59.077370166778564" lon="30.003833770751953">
        <time>2026-04-25T10:18:04Z</time>
      </trkpt>
      <trkpt lat="59.077348709106445" lon="30.003833770751953">
        <time>2026-04-25T10:18:07Z</time>
      </trkpt>
      <trkpt lat="59.077391624450684" lon="30.003833770751953">
        <time>2026-04-25T10:18:09Z</time>
      </trkpt>
      <trkpt lat="59.077434539794922" lon="30.003833770751953">
        <time>2026-04-25T10:18:12Z</time>
      </trkpt>
      <trkpt lat="59.077455997467041" lon="30.003812313079834">
        <time>2026-04-25T10:18:14Z</time>
      </trkpt>
      <trkpt lat="59.077455997467041" lon="30.003790855407715">
        <time>2026-04-25T10:18:17Z</time>
      </trkpt>
      <trkpt lat="59.07747745513916" lon="30.003769397735596">
        <time>2026-04-25T10:18:19Z</time>
      </trkpt>
      <trkpt lat="59.077498912811279" lon="30.003726482391357">
        <time>2026-04-25T10:18:22Z</time>
      </trkpt>
      <trkpt lat="59.077498912811279" lon="30.003619194030762">
        <time>2026-04-25T10:18:24Z</time>
      </trkpt>
      <trkpt lat="59.077498912811279" lon="30.003576278686523">
        <time>2026-04-25T10:18:27Z</time>
      </trkpt>
      <trkpt lat="59.077520370483398" lon="30.003619194030762">
        <time>2026-04-25T10:18:29Z</time>
      </trkpt>
      <trkpt lat="59.077520370483398" lon="30.003705024719238">
        <time>2026-04-25T10:18:32Z</time>
      </trkpt>
      <trkpt lat="59.077455997467041" lon="30.003769397735596">
        <time>2026-04-25T10:18:34Z</time>
      </trkpt>
      <trkpt lat="59.077391624450684" lon="30.003833770751953">
        <time>2026-04-25T10:18:37Z</time>
      </trkpt>
      <trkpt lat="59.077327251434326" lon="30.003876686096191">
        <time>2026-04-25T10:18:39Z</time>
      </trkpt>
      <trkpt lat="59.077370166778564" lon="30.003855228424072">
        <time>2026-04-25T10:18:42Z</time>
      </trkpt>
      <trkpt lat="59.077434539794922" lon="30.003769397735596">
        <time>2026-04-25T10:18:44Z</time>
      </trkpt>
      <trkpt lat="59.077455997467041" lon="30.003747940063477">
        <time>2026-04-25T10:18:47Z</time>
      </trkpt>
      <trkpt lat="59.077434539794922" lon="30.003726482391357">
        <time>2026-04-25T10:18:49Z</time>
      </trkpt>
      <trkpt lat="59.077413082122803" lon="30.003683567047119">
        <time>2026-04-25T10:18:52Z</time>
      </trkpt>
      <trkpt lat="59.077391624450684" lon="30.003662109375">
        <time>2026-04-25T10:18:54Z</time>
      </trkpt>
      <trkpt lat="59.077413082122803" lon="30.003683567047119">
        <time>2026-04-25T10:18:57Z</time>
      </trkpt>
      <trkpt lat="59.077348709106445" lon="30.003662109375">
        <time>2026-04-25T10:18:59Z</time>
      </trkpt>
      <trkpt lat="59.077284336090088" lon="30.003662109375">
        <time>2026-04-25T10:19:02Z</time>
      </trkpt>
      <trkpt lat="59.077327251434326" lon="30.003640651702881">
        <time>2026-04-25T10:19:04Z</time>
      </trkpt>
      <trkpt lat="59.077370166778564" lon="30.003619194030762">
        <time>2026-04-25T10:19:07Z</time>
      </trkpt>
      <trkpt lat="59.077434539794922" lon="30.003662109375">
        <time>2026-04-25T10:19:09Z</time>
      </trkpt>
      <trkpt lat="59.077434539794922" lon="30.003705024719238">
        <time>2026-04-25T10:19:12Z</time>
      </trkpt>
      <trkpt lat="59.077370166778564" lon="30.003747940063477">
        <time>2026-04-25T10:19:14Z</time>
      </trkpt>
      <trkpt lat="59.077305793762207" lon="30.003769397735596">
        <time>2026-04-25T10:19:17Z</time>
      </trkpt>
      <trkpt lat="59.077262878417969" lon="30.003833770751953">
        <time>2026-04-25T10:19:19Z</time>
      </trkpt>
      <trkpt lat="59.07724142074585" lon="30.003833770751953">
        <time>2026-04-25T10:19:22Z</time>
      </trkpt>
      <trkpt lat="59.07724142074585" lon="30.003833770751953">
        <time>2026-04-25T10:19:24Z</time>
      </trkpt>
      <trkpt lat="59.07721996307373" lon="30.003812313079834">
        <time>2026-04-25T10:19:27Z</time>
      </trkpt>
      <trkpt lat="59.077155590057373" lon="30.003705024719238">
        <time>2026-04-25T10:19:29Z</time>
      </trkpt>
      <trkpt lat="59.077177047729492" lon="30.003705024719238">
        <time>2026-04-25T10:19:32Z</time>
      </trkpt>
      <trkpt lat="59.077177047729492" lon="30.003705024719238">
        <time>2026-04-25T10:19:34Z</time>
      </trkpt>
      <trkpt lat="59.077177047729492" lon="30.003705024719238">
        <time>2026-04-25T10:19:37Z</time>
      </trkpt>
      <trkpt lat="59.077134132385254" lon="30.003683567047119">
        <time>2026-04-25T10:19:39Z</time>
      </trkpt>
      <trkpt lat="59.077091217041016" lon="30.003640651702881">
        <time>2026-04-25T10:19:42Z</time>
      </trkpt>
      <trkpt lat="59.077026844024658" lon="30.003597736358643">
        <time>2026-04-25T10:19:44Z</time>
      </trkpt>
      <trkpt lat="59.077026844024658" lon="30.003619194030762">
        <time>2026-04-25T10:19:47Z</time>
      </trkpt>
      <trkpt lat="59.077155590057373" lon="30.003683567047119">
        <time>2026-04-25T10:19:49Z</time>
      </trkpt>
      <trkpt lat="59.077198505401611" lon="30.003769397735596">
        <time>2026-04-25T10:19:52Z</time>
      </trkpt>
      <trkpt lat="59.077198505401611" lon="30.003833770751953">
        <time>2026-04-25T10:19:54Z</time>
      </trkpt>
      <trkpt lat="59.077177047729492" lon="30.003876686096191">
        <time>2026-04-25T10:19:57Z</time>
      </trkpt>
      <trkpt lat="59.077155590057373" lon="30.00391960144043">
        <time>2026-04-25T10:19:59Z</time>
      </trkpt>
      <trkpt lat="59.077134132385254" lon="30.00391960144043">
        <time>2026-04-25T10:20:02Z</time>
      </trkpt>
      <trkpt lat="59.077091217041016" lon="30.003898143768311">
        <time>2026-04-25T10:20:04Z</time>
      </trkpt>
      <trkpt lat="59.077069759368896" lon="30.003855228424072">
        <time>2026-04-25T10:20:07Z</time>
      </trkpt>
      <trkpt lat="59.077091217041016" lon="30.003876686096191">
        <time>2026-04-25T10:20:09Z</time>
      </trkpt>
      <trkpt lat="59.077026844024658" lon="30.003812313079834">
        <time>2026-04-25T10:20:12Z</time>
      </trkpt>
      <trkpt lat="59.077026844024658" lon="30.003790855407715">
        <time>2026-04-25T10:20:14Z</time>
      </trkpt>
      <trkpt lat="59.077069759368896" lon="30.003855228424072">
        <time>2026-04-25T10:20:17Z</time>
      </trkpt>
      <trkpt lat="59.077112674713135" lon="30.003898143768311">
        <time>2026-04-25T10:20:19Z</time>
      </trkpt>
      <trkpt lat="59.077134132385254" lon="30.003898143768311">
        <time>2026-04-25T10:20:22Z</time>
      </trkpt>
      <trkpt lat="59.077112674713135" lon="30.003962516784668">
        <time>2026-04-25T10:20:24Z</time>
      </trkpt>
      <trkpt lat="59.077091217041016" lon="30.004005432128906">
        <time>2026-04-25T10:20:27Z</time>
      </trkpt>
      <trkpt lat="59.077091217041016" lon="30.004026889801025">
        <time>2026-04-25T10:20:29Z</time>
      </trkpt>
      <trkpt lat="59.077091217041016" lon="30.004026889801025">
        <time>2026-04-25T10:20:32Z</time>
      </trkpt>
      <trkpt lat="59.077091217041016" lon="30.004026889801025">
        <time>2026-04-25T10:20:34Z</time>
      </trkpt>
      <trkpt lat="59.077091217041016" lon="30.004026889801025">
        <time>2026-04-25T10:20:37Z</time>
      </trkpt>
      <trkpt lat="59.077091217041016" lon="30.004026889801025">
        <time>2026-04-25T10:20:39Z</time>
      </trkpt>
      <trkpt lat="59.077091217041016" lon="30.004026889801025">
        <time>2026-04-25T10:20:42Z</time>
      </trkpt>
      <trkpt lat="59.077091217041016" lon="30.004026889801025">
        <time>2026-04-25T10:20:44Z</time>
      </trkpt>
      <trkpt lat="59.077091217041016" lon="30.004026889801025">
        <time>2026-04-25T10:20:47Z</time>
      </trkpt>
      <trkpt lat="59.077069759368896" lon="30.004026889801025">
        <time>2026-04-25T10:20:49Z</time>
      </trkpt>
      <trkpt lat="59.077069759368896" lon="30.004026889801025">
        <time>2026-04-25T10:20:52Z</time>
      </trkpt>
      <trkpt lat="59.077069759368896" lon="30.004048347473145">
        <time>2026-04-25T10:20:54Z</time>
      </trkpt>
      <trkpt lat="59.077091217041016" lon="30.004112720489502">
        <time>2026-04-25T10:20:57Z</time>
      </trkpt>
      <trkpt lat="59.077069759368896" lon="30.004177093505859">
        <time>2026-04-25T10:20:59Z</time>
      </trkpt>
      <trkpt lat="59.077069759368896" lon="30.004177093505859">
        <time>2026-04-25T10:21:02Z</time>
      </trkpt>
      <trkpt lat="59.077091217041016" lon="30.00415563583374">
        <time>2026-04-25T10:21:04Z</time>
      </trkpt>
      <trkpt lat="59.077091217041016" lon="30.004198551177979">
        <time>2026-04-25T10:21:07Z</time>
      </trkpt>
      <trkpt lat="59.077069759368896" lon="30.004241466522217">
        <time>2026-04-25T10:21:09Z</time>
      </trkpt>
      <trkpt lat="59.077091217041016" lon="30.004241466522217">
        <time>2026-04-25T10:21:12Z</time>
      </trkpt>
      <trkpt lat="59.077112674713135" lon="30.004241466522217">
        <time>2026-04-25T10:21:14Z</time>
      </trkpt>
      <trkpt lat="59.077134132385254" lon="30.004305839538574">
        <time>2026-04-25T10:21:17Z</time>
      </trkpt>
      <trkpt lat="59.077112674713135" lon="30.00441312789917">
        <time>2026-04-25T10:21:19Z</time>
      </trkpt>
      <trkpt lat="59.077091217041016" lon="30.004456043243408">
        <time>2026-04-25T10:21:22Z</time>
      </trkpt>
      <trkpt lat="59.077069759368896" lon="30.004498958587646">
        <time>2026-04-25T10:21:24Z</time>
      </trkpt>
      <trkpt lat="59.077069759368896" lon="30.004498958587646">
        <time>2026-04-25T10:21:27Z</time>
      </trkpt>
      <trkpt lat="59.077091217041016" lon="30.004477500915527">
        <time>2026-04-25T10:21:29Z</time>
      </trkpt>
      <trkpt lat="59.077091217041016" lon="30.004520416259766">
        <time>2026-04-25T10:21:32Z</time>
      </trkpt>
      <trkpt lat="59.077091217041016" lon="30.004627704620361">
        <time>2026-04-25T10:21:34Z</time>
      </trkpt>
      <trkpt lat="59.077091217041016" lon="30.004692077636719">
        <time>2026-04-25T10:21:37Z</time>
      </trkpt>
      <trkpt lat="59.077048301696777" lon="30.004777908325195">
        <time>2026-04-25T10:21:39Z</time>
      </trkpt>
      <trkpt lat="59.077048301696777" lon="30.004799365997314">
        <time>2026-04-25T10:21:42Z</time>
      </trkpt>
      <trkpt lat="59.077069759368896" lon="30.004777908325195">
        <time>2026-04-25T10:21:44Z</time>
      </trkpt>
      <trkpt lat="59.077112674713135" lon="30.004799365997314">
        <time>2026-04-25T10:21:47Z</time>
      </trkpt>
      <trkpt lat="59.077134132385254" lon="30.004820823669434">
        <time>2026-04-25T10:21:49Z</time>
      </trkpt>
      <trkpt lat="59.077155590057373" lon="30.004820823669434">
        <time>2026-04-25T10:21:52Z</time>
      </trkpt>
      <trkpt lat="59.077155590057373" lon="30.004820823669434">
        <time>2026-04-25T10:21:54Z</time>
      </trkpt>
      <trkpt lat="59.077155590057373" lon="30.004842281341553">
        <time>2026-04-25T10:21:57Z</time>
      </trkpt>
      <trkpt lat="59.077155590057373" lon="30.004885196685791">
        <time>2026-04-25T10:21:59Z</time>
      </trkpt>
      <trkpt lat="59.077134132385254" lon="30.004885196685791">
        <time>2026-04-25T10:22:02Z</time>
      </trkpt>
      <trkpt lat="59.077134132385254" lon="30.004885196685791">
        <time>2026-04-25T10:22:04Z</time>
      </trkpt>
      <trkpt lat="59.077134132385254" lon="30.004842281341553">
        <time>2026-04-25T10:22:07Z</time>
      </trkpt>
      <trkpt lat="59.077069759368896" lon="30.004756450653076">
        <time>2026-04-25T10:22:09Z</time>
      </trkpt>
      <trkpt lat="59.077091217041016" lon="30.004692077636719">
        <time>2026-04-25T10:22:12Z</time>
      </trkpt>
      <trkpt lat="59.077048301696777" lon="30.004541873931885">
        <time>2026-04-25T10:22:14Z</time>
      </trkpt>
      <trkpt lat="59.077069759368896" lon="30.004584789276123">
        <time>2026-04-25T10:22:17Z</time>
      </trkpt>
      <trkpt lat="59.077091217041016" lon="30.004756450653076">
        <time>2026-04-25T10:22:19Z</time>
      </trkpt>
      <trkpt lat="59.077112674713135" lon="30.004820823669434">
        <time>2026-04-25T10:22:22Z</time>
      </trkpt>
      <trkpt lat="59.077134132385254" lon="30.004971027374268">
        <time>2026-04-25T10:22:24Z</time>
      </trkpt>
      <trkpt lat="59.077177047729492" lon="30.005078315734863">
        <time>2026-04-25T10:22:27Z</time>
      </trkpt>
      <trkpt lat="59.077177047729492" lon="30.005207061767578">
        <time>2026-04-25T10:22:29Z</time>
      </trkpt>
      <trkpt lat="59.077198505401611" lon="30.005271434783936">
        <time>2026-04-25T10:22:32Z</time>
      </trkpt>
      <trkpt lat="59.077177047729492" lon="30.005335807800293">
        <time>2026-04-25T10:22:34Z</time>
      </trkpt>
      <trkpt lat="59.077155590057373" lon="30.005335807800293">
        <time>2026-04-25T10:22:37Z</time>
      </trkpt>
      <trkpt lat="59.077155590057373" lon="30.005314350128174">
        <time>2026-04-25T10:22:39Z</time>
      </trkpt>
      <trkpt lat="59.077155590057373" lon="30.005314350128174">
        <time>2026-04-25T10:22:42Z</time>
      </trkpt>
      <trkpt lat="59.077155590057373" lon="30.005271434783936">
        <time>2026-04-25T10:22:44Z</time>
      </trkpt>
      <trkpt lat="59.077134132385254" lon="30.005292892456055">
        <time>2026-04-25T10:22:47Z</time>
      </trkpt>
      <trkpt lat="59.077134132385254" lon="30.005314350128174">
        <time>2026-04-25T10:22:49Z</time>
      </trkpt>
      <trkpt lat="59.077155590057373" lon="30.005335807800293">
        <time>2026-04-25T10:22:52Z</time>
      </trkpt>
      <trkpt lat="59.077198505401611" lon="30.005378723144531">
        <time>2026-04-25T10:22:54Z</time>
      </trkpt>
      <trkpt lat="59.07721996307373" lon="30.005443096160889">
        <time>2026-04-25T10:22:57Z</time>
      </trkpt>
      <trkpt lat="59.07721996307373" lon="30.005486011505127">
        <time>2026-04-25T10:22:59Z</time>
      </trkpt>
      <trkpt lat="59.07724142074585" lon="30.005507469177246">
        <time>2026-04-25T10:23:02Z</time>
      </trkpt>
      <trkpt lat="59.07724142074585" lon="30.005528926849365">
        <time>2026-04-25T10:23:04Z</time>
      </trkpt>
      <trkpt lat="59.07721996307373" lon="30.005507469177246">
        <time>2026-04-25T10:23:07Z</time>
      </trkpt>
      <trkpt lat="59.07721996307373" lon="30.005357265472412">
        <time>2026-04-25T10:23:09Z</time>
      </trkpt>
      <trkpt lat="59.07721996307373" lon="30.005378723144531">
        <time>2026-04-25T10:23:12Z</time>
      </trkpt>
      <trkpt lat="59.07721996307373" lon="30.005464553833008">
        <time>2026-04-25T10:23:14Z</time>
      </trkpt>
      <trkpt lat="59.07724142074585" lon="30.005507469177246">
        <time>2026-04-25T10:23:17Z</time>
      </trkpt>
      <trkpt lat="59.07724142074585" lon="30.005528926849365">
        <time>2026-04-25T10:23:19Z</time>
      </trkpt>
      <trkpt lat="59.077262878417969" lon="30.005550384521484">
        <time>2026-04-25T10:23:22Z</time>
      </trkpt>
      <trkpt lat="59.07724142074585" lon="30.005528926849365">
        <time>2026-04-25T10:23:24Z</time>
      </trkpt>
      <trkpt lat="59.07721996307373" lon="30.005486011505127">
        <time>2026-04-25T10:23:27Z</time>
      </trkpt>
      <trkpt lat="59.07721996307373" lon="30.005486011505127">
        <time>2026-04-25T10:23:29Z</time>
      </trkpt>
      <trkpt lat="59.077198505401611" lon="30.005486011505127">
        <time>2026-04-25T10:23:32Z</time>
      </trkpt>
      <trkpt lat="59.077177047729492" lon="30.005528926849365">
        <time>2026-04-25T10:23:34Z</time>
      </trkpt>
      <trkpt lat="59.077198505401611" lon="30.005571842193604">
        <time>2026-04-25T10:23:37Z</time>
      </trkpt>
      <trkpt lat="59.07721996307373" lon="30.005614757537842">
        <time>2026-04-25T10:23:39Z</time>
      </trkpt>
      <trkpt lat="59.077262878417969" lon="30.005679130554199">
        <time>2026-04-25T10:23:42Z</time>
      </trkpt>
      <trkpt lat="59.077284336090088" lon="30.005700588226318">
        <time>2026-04-25T10:23:44Z</time>
      </trkpt>
      <trkpt lat="59.077262878417969" lon="30.005679130554199">
        <time>2026-04-25T10:23:47Z</time>
      </trkpt>
      <trkpt lat="59.077198505401611" lon="30.005614757537842">
        <time>2026-04-25T10:23:49Z</time>
      </trkpt>
      <trkpt lat="59.077198505401611" lon="30.005593299865723">
        <time>2026-04-25T10:23:52Z</time>
      </trkpt>
      <trkpt lat="59.07724142074585" lon="30.005636215209961">
        <time>2026-04-25T10:23:54Z</time>
      </trkpt>
      <trkpt lat="59.077262878417969" lon="30.005700588226318">
        <time>2026-04-25T10:23:57Z</time>
      </trkpt>
      <trkpt lat="59.077262878417969" lon="30.005764961242676">
        <time>2026-04-25T10:23:59Z</time>
      </trkpt>
      <trkpt lat="59.07724142074585" lon="30.005807876586914">
        <time>2026-04-25T10:24:02Z</time>
      </trkpt>
      <trkpt lat="59.07724142074585" lon="30.005829334259033">
        <time>2026-04-25T10:24:04Z</time>
      </trkpt>
      <trkpt lat="59.07724142074585" lon="30.005829334259033">
        <time>2026-04-25T10:24:07Z</time>
      </trkpt>
      <trkpt lat="59.07721996307373" lon="30.005936622619629">
        <time>2026-04-25T10:24:09Z</time>
      </trkpt>
      <trkpt lat="59.077198505401611" lon="30.005979537963867">
        <time>2026-04-25T10:24:12Z</time>
      </trkpt>
      <trkpt lat="59.077177047729492" lon="30.006022453308105">
        <time>2026-04-25T10:24:14Z</time>
      </trkpt>
      <trkpt lat="59.077177047729492" lon="30.006000995635986">
        <time>2026-04-25T10:24:17Z</time>
      </trkpt>
      <trkpt lat="59.07721996307373" lon="30.005936622619629">
        <time>2026-04-25T10:24:19Z</time>
      </trkpt>
      <trkpt lat="59.07724142074585" lon="30.005829334259033">
        <time>2026-04-25T10:24:22Z</time>
      </trkpt>
      <trkpt lat="59.07724142074585" lon="30.005807876586914">
        <time>2026-04-25T10:24:24Z</time>
      </trkpt>
      <trkpt lat="59.07724142074585" lon="30.005872249603271">
        <time>2026-04-25T10:24:27Z</time>
      </trkpt>
      <trkpt lat="59.07724142074585" lon="30.006043910980225">
        <time>2026-04-25T10:24:29Z</time>
      </trkpt>
      <trkpt lat="59.077262878417969" lon="30.006043910980225">
        <time>2026-04-25T10:24:32Z</time>
      </trkpt>
      <trkpt lat="59.077305793762207" lon="30.006086826324463">
        <time>2026-04-25T10:24:34Z</time>
      </trkpt>
      <trkpt lat="59.077327251434326" lon="30.006108283996582">
        <time>2026-04-25T10:24:37Z</time>
      </trkpt>
      <trkpt lat="59.077370166778564" lon="30.006194114685059">
        <time>2026-04-25T10:24:39Z</time>
      </trkpt>
      <trkpt lat="59.077391624450684" lon="30.006237030029297">
        <time>2026-04-25T10:24:42Z</time>
      </trkpt>
      <trkpt lat="59.077370166778564" lon="30.006258487701416">
        <time>2026-04-25T10:24:44Z</time>
      </trkpt>
      <trkpt lat="59.077370166778564" lon="30.006258487701416">
        <time>2026-04-25T10:24:47Z</time>
      </trkpt>
      <trkpt lat="59.077391624450684" lon="30.006322860717773">
        <time>2026-04-25T10:24:49Z</time>
      </trkpt>
      <trkpt lat="59.077413082122803" lon="30.006344318389893">
        <time>2026-04-25T10:24:52Z</time>
      </trkpt>
      <trkpt lat="59.077434539794922" lon="30.006365776062012">
        <time>2026-04-25T10:24:54Z</time>
      </trkpt>
      <trkpt lat="59.077434539794922" lon="30.006365776062012">
        <time>2026-04-25T10:24:57Z</time>
      </trkpt>
      <trkpt lat="59.077413082122803" lon="30.006365776062012">
        <time>2026-04-25T10:24:59Z</time>
      </trkpt>
      <trkpt lat="59.077413082122803" lon="30.006365776062012">
        <time>2026-04-25T10:25:02Z</time>
      </trkpt>
      <trkpt lat="59.077413082122803" lon="30.006365776062012">
        <time>2026-04-25T10:25:04Z</time>
      </trkpt>
      <trkpt lat="59.077434539794922" lon="30.006387233734131">
        <time>2026-04-25T10:25:07Z</time>
      </trkpt>
      <trkpt lat="59.077434539794922" lon="30.006387233734131">
        <time>2026-04-25T10:25:09Z</time>
      </trkpt>
      <trkpt lat="59.077434539794922" lon="30.006387233734131">
        <time>2026-04-25T10:25:12Z</time>
      </trkpt>
      <trkpt lat="59.077434539794922" lon="30.006430149078369">
        <time>2026-04-25T10:25:14Z</time>
      </trkpt>
      <trkpt lat="59.077434539794922" lon="30.00640869140625">
        <time>2026-04-25T10:25:17Z</time>
      </trkpt>
      <trkpt lat="59.077455997467041" lon="30.00640869140625">
        <time>2026-04-25T10:25:19Z</time>
      </trkpt>
      <trkpt lat="59.077434539794922" lon="30.00640869140625">
        <time>2026-04-25T10:25:22Z</time>
      </trkpt>
      <trkpt lat="59.077434539794922" lon="30.006430149078369">
        <time>2026-04-25T10:25:24Z</time>
      </trkpt>
      <trkpt lat="59.077434539794922" lon="30.006430149078369">
        <time>2026-04-25T10:25:27Z</time>
      </trkpt>
      <trkpt lat="59.077413082122803" lon="30.006451606750488">
        <time>2026-04-25T10:25:29Z</time>
      </trkpt>
      <trkpt lat="59.077391624450684" lon="30.006473064422607">
        <time>2026-04-25T10:25:32Z</time>
      </trkpt>
      <trkpt lat="59.077413082122803" lon="30.006473064422607">
        <time>2026-04-25T10:25:34Z</time>
      </trkpt>
      <trkpt lat="59.077413082122803" lon="30.006451606750488">
        <time>2026-04-25T10:25:37Z</time>
      </trkpt>
      <trkpt lat="59.077413082122803" lon="30.006365776062012">
        <time>2026-04-25T10:25:39Z</time>
      </trkpt>
      <trkpt lat="59.077413082122803" lon="30.006322860717773">
        <time>2026-04-25T10:25:42Z</time>
      </trkpt>
      <trkpt lat="59.077413082122803" lon="30.006344318389893">
        <time>2026-04-25T10:25:44Z</time>
      </trkpt>
      <trkpt lat="59.077413082122803" lon="30.006387233734131">
        <time>2026-04-25T10:25:47Z</time>
      </trkpt>
      <trkpt lat="59.077413082122803" lon="30.006451606750488">
        <time>2026-04-25T10:25:49Z</time>
      </trkpt>
      <trkpt lat="59.077370166778564" lon="30.006515979766846">
        <time>2026-04-25T10:25:52Z</time>
      </trkpt>
      <trkpt lat="59.077327251434326" lon="30.006580352783203">
        <time>2026-04-25T10:25:54Z</time>
      </trkpt>
      <trkpt lat="59.077327251434326" lon="30.006580352783203">
        <time>2026-04-25T10:25:57Z</time>
      </trkpt>
      <trkpt lat="59.077348709106445" lon="30.006558895111084">
        <time>2026-04-25T10:25:59Z</time>
      </trkpt>
      <trkpt lat="59.077348709106445" lon="30.006580352783203">
        <time>2026-04-25T10:26:02Z</time>
      </trkpt>
      <trkpt lat="59.077262878417969" lon="30.006623268127441">
        <time>2026-04-25T10:26:04Z</time>
      </trkpt>
      <trkpt lat="59.07724142074585" lon="30.006644725799561">
        <time>2026-04-25T10:26:07Z</time>
      </trkpt>
      <trkpt lat="59.077284336090088" lon="30.006623268127441">
        <time>2026-04-25T10:26:09Z</time>
      </trkpt>
      <trkpt lat="59.077305793762207" lon="30.006601810455322">
        <time>2026-04-25T10:26:12Z</time>
      </trkpt>
      <trkpt lat="59.077305793762207" lon="30.006601810455322">
        <time>2026-04-25T10:26:14Z</time>
      </trkpt>
      <trkpt lat="59.077262878417969" lon="30.006601810455322">
        <time>2026-04-25T10:26:17Z</time>
      </trkpt>
      <trkpt lat="59.07721996307373" lon="30.006644725799561">
        <time>2026-04-25T10:26:19Z</time>
      </trkpt>
      <trkpt lat="59.07721996307373" lon="30.006644725799561">
        <time>2026-04-25T10:26:22Z</time>
      </trkpt>
      <trkpt lat="59.07724142074585" lon="30.006601810455322">
        <time>2026-04-25T10:26:24Z</time>
      </trkpt>
      <trkpt lat="59.077262878417969" lon="30.006580352783203">
        <time>2026-04-25T10:26:27Z</time>
      </trkpt>
      <trkpt lat="59.077305793762207" lon="30.006580352783203">
        <time>2026-04-25T10:26:29Z</time>
      </trkpt>
      <trkpt lat="59.077284336090088" lon="30.006580352783203">
        <time>2026-04-25T10:26:32Z</time>
      </trkpt>
      <trkpt lat="59.07724142074585" lon="30.006580352783203">
        <time>2026-04-25T10:26:34Z</time>
      </trkpt>
      <trkpt lat="59.07721996307373" lon="30.006537437438965">
        <time>2026-04-25T10:26:37Z</time>
      </trkpt>
      <trkpt lat="59.077198505401611" lon="30.006515979766846">
        <time>2026-04-25T10:26:39Z</time>
      </trkpt>
      <trkpt lat="59.07721996307373" lon="30.006537437438965">
        <time>2026-04-25T10:26:42Z</time>
      </trkpt>
      <trkpt lat="59.077262878417969" lon="30.006558895111084">
        <time>2026-04-25T10:26:44Z</time>
      </trkpt>
      <trkpt lat="59.077284336090088" lon="30.006558895111084">
        <time>2026-04-25T10:26:47Z</time>
      </trkpt>
      <trkpt lat="59.077305793762207" lon="30.006537437438965">
        <time>2026-04-25T10:26:49Z</time>
      </trkpt>
      <trkpt lat="59.077284336090088" lon="30.006601810455322">
        <time>2026-04-25T10:26:52Z</time>
      </trkpt>
      <trkpt lat="59.077262878417969" lon="30.006623268127441">
        <time>2026-04-25T10:26:54Z</time>
      </trkpt>
      <trkpt lat="59.077262878417969" lon="30.006623268127441">
        <time>2026-04-25T10:26:57Z</time>
      </trkpt>
      <trkpt lat="59.077262878417969" lon="30.006623268127441">
        <time>2026-04-25T10:26:59Z</time>
      </trkpt>
      <trkpt lat="59.077284336090088" lon="30.006623268127441">
        <time>2026-04-25T10:27:02Z</time>
      </trkpt>
      <trkpt lat="59.077262878417969" lon="30.006580352783203">
        <time>2026-04-25T10:27:04Z</time>
      </trkpt>
      <trkpt lat="59.07724142074585" lon="30.006537437438965">
        <time>2026-04-25T10:27:07Z</time>
      </trkpt>
      <trkpt lat="59.077198505401611" lon="30.006473064422607">
        <time>2026-04-25T10:27:09Z</time>
      </trkpt>
      <trkpt lat="59.077198505401611" lon="30.006473064422607">
        <time>2026-04-25T10:27:12Z</time>
      </trkpt>
      <trkpt lat="59.07724142074585" lon="30.006537437438965">
        <time>2026-04-25T10:27:14Z</time>
      </trkpt>
      <trkpt lat="59.077262878417969" lon="30.006558895111084">
        <time>2026-04-25T10:27:17Z</time>
      </trkpt>
      <trkpt lat="59.077262878417969" lon="30.006601810455322">
        <time>2026-04-25T10:27:19Z</time>
      </trkpt>
      <trkpt lat="59.07724142074585" lon="30.006623268127441">
        <time>2026-04-25T10:27:22Z</time>
      </trkpt>
      <trkpt lat="59.07724142074585" lon="30.006623268127441">
        <time>2026-04-25T10:27:24Z</time>
      </trkpt>
      <trkpt lat="59.077262878417969" lon="30.006623268127441">
        <time>2026-04-25T10:27:27Z</time>
      </trkpt>
      <trkpt lat="59.077284336090088" lon="30.006580352783203">
        <time>2026-04-25T10:27:29Z</time>
      </trkpt>
      <trkpt lat="59.077262878417969" lon="30.006537437438965">
        <time>2026-04-25T10:27:32Z</time>
      </trkpt>
      <trkpt lat="59.077198505401611" lon="30.006494522094727">
        <time>2026-04-25T10:27:34Z</time>
      </trkpt>
      <trkpt lat="59.077134132385254" lon="30.006451606750488">
        <time>2026-04-25T10:27:37Z</time>
      </trkpt>
      <trkpt lat="59.077091217041016" lon="30.006451606750488">
        <time>2026-04-25T10:27:39Z</time>
      </trkpt>
      <trkpt lat="59.077112674713135" lon="30.006451606750488">
        <time>2026-04-25T10:27:42Z</time>
      </trkpt>
      <trkpt lat="59.077155590057373" lon="30.006473064422607">
        <time>2026-04-25T10:27:44Z</time>
      </trkpt>
      <trkpt lat="59.077177047729492" lon="30.006473064422607">
        <time>2026-04-25T10:27:47Z</time>
      </trkpt>
      <trkpt lat="59.077177047729492" lon="30.006494522094727">
        <time>2026-04-25T10:27:49Z</time>
      </trkpt>
      <trkpt lat="59.07721996307373" lon="30.006537437438965">
        <time>2026-04-25T10:27:52Z</time>
      </trkpt>
      <trkpt lat="59.077198505401611" lon="30.006601810455322">
        <time>2026-04-25T10:27:54Z</time>
      </trkpt>
      <trkpt lat="59.077155590057373" lon="30.006623268127441">
        <time>2026-04-25T10:27:57Z</time>
      </trkpt>
      <trkpt lat="59.077134132385254" lon="30.006623268127441">
        <time>2026-04-25T10:27:59Z</time>
      </trkpt>
      <trkpt lat="59.077134132385254" lon="30.006601810455322">
        <time>2026-04-25T10:28:02Z</time>
      </trkpt>
      <trkpt lat="59.077112674713135" lon="30.006558895111084">
        <time>2026-04-25T10:28:04Z</time>
      </trkpt>
      <trkpt lat="59.077091217041016" lon="30.006515979766846">
        <time>2026-04-25T10:28:07Z</time>
      </trkpt>
      <trkpt lat="59.077091217041016" lon="30.006494522094727">
        <time>2026-04-25T10:28:09Z</time>
      </trkpt>
      <trkpt lat="59.077048301696777" lon="30.006451606750488">
        <time>2026-04-25T10:28:12Z</time>
      </trkpt>
      <trkpt lat="59.077005386352539" lon="30.00640869140625">
        <time>2026-04-25T10:28:14Z</time>
      </trkpt>
      <trkpt lat="59.077026844024658" lon="30.006387233734131">
        <time>2026-04-25T10:28:17Z</time>
      </trkpt>
      <trkpt lat="59.07698392868042" lon="30.006344318389893">
        <time>2026-04-25T10:28:19Z</time>
      </trkpt>
      <trkpt lat="59.076962471008301" lon="30.006322860717773">
        <time>2026-04-25T10:28:22Z</time>
      </trkpt>
      <trkpt lat="59.07698392868042" lon="30.006344318389893">
        <time>2026-04-25T10:28:24Z</time>
      </trkpt>
      <trkpt lat="59.077005386352539" lon="30.006365776062012">
        <time>2026-04-25T10:28:27Z</time>
      </trkpt>
      <trkpt lat="59.077026844024658" lon="30.006365776062012">
        <time>2026-04-25T10:28:29Z</time>
      </trkpt>
      <trkpt lat="59.077005386352539" lon="30.006322860717773">
        <time>2026-04-25T10:28:32Z</time>
      </trkpt>
      <trkpt lat="59.07698392868042" lon="30.006279945373535">
        <time>2026-04-25T10:28:34Z</time>
      </trkpt>
      <trkpt lat="59.076962471008301" lon="30.006237030029297">
        <time>2026-04-25T10:28:37Z</time>
      </trkpt>
      <trkpt lat="59.076941013336182" lon="30.006215572357178">
        <time>2026-04-25T10:28:39Z</time>
      </trkpt>
      <trkpt lat="59.076962471008301" lon="30.006215572357178">
        <time>2026-04-25T10:28:42Z</time>
      </trkpt>
      <trkpt lat="59.07698392868042" lon="30.006279945373535">
        <time>2026-04-25T10:28:44Z</time>
      </trkpt>
      <trkpt lat="59.077005386352539" lon="30.006322860717773">
        <time>2026-04-25T10:28:47Z</time>
      </trkpt>
      <trkpt lat="59.076962471008301" lon="30.006301403045654">
        <time>2026-04-25T10:28:49Z</time>
      </trkpt>
      <trkpt lat="59.076941013336182" lon="30.006279945373535">
        <time>2026-04-25T10:28:52Z</time>
      </trkpt>
      <trkpt lat="59.076919555664063" lon="30.006215572357178">
        <time>2026-04-25T10:28:54Z</time>
      </trkpt>
      <trkpt lat="59.076898097991943" lon="30.006172657012939">
        <time>2026-04-25T10:28:57Z</time>
      </trkpt>
      <trkpt lat="59.076876640319824" lon="30.006086826324463">
        <time>2026-04-25T10:28:59Z</time>
      </trkpt>
      <trkpt lat="59.076876640319824" lon="30.006086826324463">
        <time>2026-04-25T10:29:02Z</time>
      </trkpt>
      <trkpt lat="59.076898097991943" lon="30.006086826324463">
        <time>2026-04-25T10:29:04Z</time>
      </trkpt>
      <trkpt lat="59.076898097991943" lon="30.006043910980225">
        <time>2026-04-25T10:29:07Z</time>
      </trkpt>
      <trkpt lat="59.076898097991943" lon="30.005979537963867">
        <time>2026-04-25T10:29:09Z</time>
      </trkpt>
      <trkpt lat="59.076876640319824" lon="30.00591516494751">
        <time>2026-04-25T10:29:12Z</time>
      </trkpt>
      <trkpt lat="59.076876640319824" lon="30.00591516494751">
        <time>2026-04-25T10:29:14Z</time>
      </trkpt>
      <trkpt lat="59.076876640319824" lon="30.00591516494751">
        <time>2026-04-25T10:29:17Z</time>
      </trkpt>
      <trkpt lat="59.076876640319824" lon="30.005850791931152">
        <time>2026-04-25T10:29:19Z</time>
      </trkpt>
      <trkpt lat="59.076876640319824" lon="30.005829334259033">
        <time>2026-04-25T10:29:22Z</time>
      </trkpt>
      <trkpt lat="59.076876640319824" lon="30.005829334259033">
        <time>2026-04-25T10:29:24Z</time>
      </trkpt>
      <trkpt lat="59.076876640319824" lon="30.005829334259033">
        <time>2026-04-25T10:29:27Z</time>
      </trkpt>
      <trkpt lat="59.076876640319824" lon="30.005807876586914">
        <time>2026-04-25T10:29:29Z</time>
      </trkpt>
      <trkpt lat="59.076876640319824" lon="30.005807876586914">
        <time>2026-04-25T10:29:32Z</time>
      </trkpt>
      <trkpt lat="59.076876640319824" lon="30.005786418914795">
        <time>2026-04-25T10:29:34Z</time>
      </trkpt>
      <trkpt lat="59.076876640319824" lon="30.005764961242676">
        <time>2026-04-25T10:29:37Z</time>
      </trkpt>
      <trkpt lat="59.076898097991943" lon="30.005679130554199">
        <time>2026-04-25T10:29:39Z</time>
      </trkpt>
      <trkpt lat="59.076898097991943" lon="30.005614757537842">
        <time>2026-04-25T10:29:42Z</time>
      </trkpt>
      <trkpt lat="59.076876640319824" lon="30.005571842193604">
        <time>2026-04-25T10:29:44Z</time>
      </trkpt>
      <trkpt lat="59.076876640319824" lon="30.005550384521484">
        <time>2026-04-25T10:29:47Z</time>
      </trkpt>
      <trkpt lat="59.076898097991943" lon="30.005614757537842">
        <time>2026-04-25T10:29:49Z</time>
      </trkpt>
      <trkpt lat="59.076898097991943" lon="30.005614757537842">
        <time>2026-04-25T10:29:52Z</time>
      </trkpt>
      <trkpt lat="59.076898097991943" lon="30.00565767288208">
        <time>2026-04-25T10:29:54Z</time>
      </trkpt>
      <trkpt lat="59.076898097991943" lon="30.005722045898438">
        <time>2026-04-25T10:29:57Z</time>
      </trkpt>
      <trkpt lat="59.076898097991943" lon="30.005807876586914">
        <time>2026-04-25T10:29:59Z</time>
      </trkpt>
      <trkpt lat="59.076898097991943" lon="30.005850791931152">
        <time>2026-04-25T10:30:02Z</time>
      </trkpt>
      <trkpt lat="59.076876640319824" lon="30.005850791931152">
        <time>2026-04-25T10:30:04Z</time>
      </trkpt>
      <trkpt lat="59.076855182647705" lon="30.005850791931152">
        <time>2026-04-25T10:30:07Z</time>
      </trkpt>
      <trkpt lat="59.076812267303467" lon="30.005872249603271">
        <time>2026-04-25T10:30:09Z</time>
      </trkpt>
      <trkpt lat="59.076833724975586" lon="30.005850791931152">
        <time>2026-04-25T10:30:12Z</time>
      </trkpt>
      <trkpt lat="59.076898097991943" lon="30.005786418914795">
        <time>2026-04-25T10:30:14Z</time>
      </trkpt>
      <trkpt lat="59.076876640319824" lon="30.005722045898438">
        <time>2026-04-25T10:30:17Z</time>
      </trkpt>
      <trkpt lat="59.076898097991943" lon="30.00565767288208">
        <time>2026-04-25T10:30:19Z</time>
      </trkpt>
      <trkpt lat="59.076876640319824" lon="30.005593299865723">
        <time>2026-04-25T10:30:22Z</time>
      </trkpt>
      <trkpt lat="59.076855182647705" lon="30.005528926849365">
        <time>2026-04-25T10:30:24Z</time>
      </trkpt>
      <trkpt lat="59.076855182647705" lon="30.005486011505127">
        <time>2026-04-25T10:30:27Z</time>
      </trkpt>
      <trkpt lat="59.076876640319824" lon="30.00542163848877">
        <time>2026-04-25T10:30:29Z</time>
      </trkpt>
      <trkpt lat="59.076876640319824" lon="30.00542163848877">
        <time>2026-04-25T10:30:32Z</time>
      </trkpt>
      <trkpt lat="59.076876640319824" lon="30.005335807800293">
        <time>2026-04-25T10:30:34Z</time>
      </trkpt>
      <trkpt lat="59.076876640319824" lon="30.005292892456055">
        <time>2026-04-25T10:30:37Z</time>
      </trkpt>
      <trkpt lat="59.076876640319824" lon="30.005357265472412">
        <time>2026-04-25T10:30:39Z</time>
      </trkpt>
      <trkpt lat="59.076876640319824" lon="30.00542163848877">
        <time>2026-04-25T10:30:42Z</time>
      </trkpt>
      <trkpt lat="59.076876640319824" lon="30.005486011505127">
        <time>2026-04-25T10:30:44Z</time>
      </trkpt>
      <trkpt lat="59.076876640319824" lon="30.005528926849365">
        <time>2026-04-25T10:30:47Z</time>
      </trkpt>
      <trkpt lat="59.076876640319824" lon="30.005528926849365">
        <time>2026-04-25T10:30:49Z</time>
      </trkpt>
      <trkpt lat="59.076876640319824" lon="30.005507469177246">
        <time>2026-04-25T10:30:52Z</time>
      </trkpt>
      <trkpt lat="59.076876640319824" lon="30.00540018081665">
        <time>2026-04-25T10:30:54Z</time>
      </trkpt>
      <trkpt lat="59.076898097991943" lon="30.005357265472412">
        <time>2026-04-25T10:30:57Z</time>
      </trkpt>
      <trkpt lat="59.076898097991943" lon="30.005357265472412">
        <time>2026-04-25T10:30:59Z</time>
      </trkpt>
      <trkpt lat="59.076876640319824" lon="30.005314350128174">
        <time>2026-04-25T10:31:02Z</time>
      </trkpt>
      <trkpt lat="59.076876640319824" lon="30.005271434783936">
        <time>2026-04-25T10:31:04Z</time>
      </trkpt>
      <trkpt lat="59.076898097991943" lon="30.005335807800293">
        <time>2026-04-25T10:31:07Z</time>
      </trkpt>
      <trkpt lat="59.076876640319824" lon="30.005443096160889">
        <time>2026-04-25T10:31:09Z</time>
      </trkpt>
      <trkpt lat="59.076876640319824" lon="30.005486011505127">
        <time>2026-04-25T10:31:12Z</time>
      </trkpt>
      <trkpt lat="59.076876640319824" lon="30.005486011505127">
        <time>2026-04-25T10:31:14Z</time>
      </trkpt>
      <trkpt lat="59.076876640319824" lon="30.005486011505127">
        <time>2026-04-25T10:31:17Z</time>
      </trkpt>
      <trkpt lat="59.076898097991943" lon="30.005357265472412">
        <time>2026-04-25T10:31:19Z</time>
      </trkpt>
      <trkpt lat="59.076876640319824" lon="30.005271434783936">
        <time>2026-04-25T10:31:22Z</time>
      </trkpt>
      <trkpt lat="59.076876640319824" lon="30.005142688751221">
        <time>2026-04-25T10:31:24Z</time>
      </trkpt>
      <trkpt lat="59.076876640319824" lon="30.005121231079102">
        <time>2026-04-25T10:31:27Z</time>
      </trkpt>
      <trkpt lat="59.076876640319824" lon="30.005228519439697">
        <time>2026-04-25T10:31:29Z</time>
      </trkpt>
      <trkpt lat="59.076898097991943" lon="30.005292892456055">
        <time>2026-04-25T10:31:32Z</time>
      </trkpt>
      <trkpt lat="59.076876640319824" lon="30.005292892456055">
        <time>2026-04-25T10:31:34Z</time>
      </trkpt>
      <trkpt lat="59.076833724975586" lon="30.005292892456055">
        <time>2026-04-25T10:31:37Z</time>
      </trkpt>
      <trkpt lat="59.076769351959229" lon="30.005271434783936">
        <time>2026-04-25T10:31:39Z</time>
      </trkpt>
      <trkpt lat="59.076769351959229" lon="30.005249977111816">
        <time>2026-04-25T10:31:42Z</time>
      </trkpt>
      <trkpt lat="59.076833724975586" lon="30.005271434783936">
        <time>2026-04-25T10:31:44Z</time>
      </trkpt>
      <trkpt lat="59.076855182647705" lon="30.005249977111816">
        <time>2026-04-25T10:31:47Z</time>
      </trkpt>
      <trkpt lat="59.076855182647705" lon="30.005121231079102">
        <time>2026-04-25T10:31:49Z</time>
      </trkpt>
      <trkpt lat="59.076876640319824" lon="30.005035400390625">
        <time>2026-04-25T10:31:52Z</time>
      </trkpt>
      <trkpt lat="59.076855182647705" lon="30.004928112030029">
        <time>2026-04-25T10:31:54Z</time>
      </trkpt>
      <trkpt lat="59.076855182647705" lon="30.00490665435791">
        <time>2026-04-25T10:31:57Z</time>
      </trkpt>
      <trkpt lat="59.076876640319824" lon="30.004928112030029">
        <time>2026-04-25T10:31:59Z</time>
      </trkpt>
      <trkpt lat="59.076898097991943" lon="30.004971027374268">
        <time>2026-04-25T10:32:02Z</time>
      </trkpt>
      <trkpt lat="59.076919555664063" lon="30.005013942718506">
        <time>2026-04-25T10:32:04Z</time>
      </trkpt>
      <trkpt lat="59.076941013336182" lon="30.005078315734863">
        <time>2026-04-25T10:32:07Z</time>
      </trkpt>
      <trkpt lat="59.076898097991943" lon="30.005099773406982">
        <time>2026-04-25T10:32:09Z</time>
      </trkpt>
      <trkpt lat="59.076855182647705" lon="30.005142688751221">
        <time>2026-04-25T10:32:12Z</time>
      </trkpt>
      <trkpt lat="59.076790809631348" lon="30.00516414642334">
        <time>2026-04-25T10:32:14Z</time>
      </trkpt>
      <trkpt lat="59.076769351959229" lon="30.005142688751221">
        <time>2026-04-25T10:32:17Z</time>
      </trkpt>
      <trkpt lat="59.076769351959229" lon="30.005142688751221">
        <time>2026-04-25T10:32:19Z</time>
      </trkpt>
      <trkpt lat="59.076747894287109" lon="30.005099773406982">
        <time>2026-04-25T10:32:22Z</time>
      </trkpt>
      <trkpt lat="59.076769351959229" lon="30.005121231079102">
        <time>2026-04-25T10:32:24Z</time>
      </trkpt>
      <trkpt lat="59.076812267303467" lon="30.00516414642334">
        <time>2026-04-25T10:32:27Z</time>
      </trkpt>
      <trkpt lat="59.076898097991943" lon="30.005121231079102">
        <time>2026-04-25T10:32:29Z</time>
      </trkpt>
      <trkpt lat="59.076919555664063" lon="30.00516414642334">
        <time>2026-04-25T10:32:32Z</time>
      </trkpt>
      <trkpt lat="59.076962471008301" lon="30.005142688751221">
        <time>2026-04-25T10:32:34Z</time>
      </trkpt>
      <trkpt lat="59.076962471008301" lon="30.005099773406982">
        <time>2026-04-25T10:32:37Z</time>
      </trkpt>
      <trkpt lat="59.076919555664063" lon="30.005035400390625">
        <time>2026-04-25T10:32:39Z</time>
      </trkpt>
      <trkpt lat="59.076919555664063" lon="30.004949569702148">
        <time>2026-04-25T10:32:42Z</time>
      </trkpt>
      <trkpt lat="59.076876640319824" lon="30.004799365997314">
        <time>2026-04-25T10:32:44Z</time>
      </trkpt>
      <trkpt lat="59.076855182647705" lon="30.004713535308838">
        <time>2026-04-25T10:32:47Z</time>
      </trkpt>
      <trkpt lat="59.076812267303467" lon="30.004606246948242">
        <time>2026-04-25T10:32:49Z</time>
      </trkpt>
      <trkpt lat="59.076812267303467" lon="30.004606246948242">
        <time>2026-04-25T10:32:52Z</time>
      </trkpt>
      <trkpt lat="59.076833724975586" lon="30.00464916229248">
        <time>2026-04-25T10:32:54Z</time>
      </trkpt>
      <trkpt lat="59.076855182647705" lon="30.004692077636719">
        <time>2026-04-25T10:32:57Z</time>
      </trkpt>
      <trkpt lat="59.076898097991943" lon="30.004820823669434">
        <time>2026-04-25T10:32:59Z</time>
      </trkpt>
      <trkpt lat="59.076919555664063" lon="30.004928112030029">
        <time>2026-04-25T10:33:02Z</time>
      </trkpt>
      <trkpt lat="59.076855182647705" lon="30.005121231079102">
        <time>2026-04-25T10:33:07Z</time>
      </trkpt>
      <trkpt lat="59.076812267303467" lon="30.00516414642334">
        <time>2026-04-25T10:33:09Z</time>
      </trkpt>
      <trkpt lat="59.076833724975586" lon="30.005142688751221">
        <time>2026-04-25T10:33:12Z</time>
      </trkpt>
      <trkpt lat="59.076812267303467" lon="30.005121231079102">
        <time>2026-04-25T10:33:14Z</time>
      </trkpt>
      <trkpt lat="59.076790809631348" lon="30.005035400390625">
        <time>2026-04-25T10:33:17Z</time>
      </trkpt>
      <trkpt lat="59.076790809631348" lon="30.004842281341553">
        <time>2026-04-25T10:33:19Z</time>
      </trkpt>
      <trkpt lat="59.076769351959229" lon="30.004756450653076">
        <time>2026-04-25T10:33:22Z</time>
      </trkpt>
      <trkpt lat="59.076747894287109" lon="30.004584789276123">
        <time>2026-04-25T10:33:24Z</time>
      </trkpt>
      <trkpt lat="59.076769351959229" lon="30.004456043243408">
        <time>2026-04-25T10:33:27Z</time>
      </trkpt>
      <trkpt lat="59.07672643661499" lon="30.004348754882813">
        <time>2026-04-25T10:33:29Z</time>
      </trkpt>
      <trkpt lat="59.076704978942871" lon="30.004327297210693">
        <time>2026-04-25T10:33:32Z</time>
      </trkpt>
      <trkpt lat="59.076683521270752" lon="30.004284381866455">
        <time>2026-04-25T10:33:34Z</time>
      </trkpt>
      <trkpt lat="59.076662063598633" lon="30.004241466522217">
        <time>2026-04-25T10:33:37Z</time>
      </trkpt>
      <trkpt lat="59.076619148254395" lon="30.004198551177979">
        <time>2026-04-25T10:33:39Z</time>
      </trkpt>
      <trkpt lat="59.076619148254395" lon="30.004198551177979">
        <time>2026-04-25T10:33:42Z</time>
      </trkpt>
      <trkpt lat="59.076619148254395" lon="30.004091262817383">
        <time>2026-04-25T10:33:44Z</time>
      </trkpt>
      <trkpt lat="59.076619148254395" lon="30.004048347473145">
        <time>2026-04-25T10:33:47Z</time>
      </trkpt>
      <trkpt lat="59.076597690582275" lon="30.004005432128906">
        <time>2026-04-25T10:33:49Z</time>
      </trkpt>
      <trkpt lat="59.076576232910156" lon="30.003983974456787">
        <time>2026-04-25T10:33:52Z</time>
      </trkpt>
      <trkpt lat="59.076597690582275" lon="30.004048347473145">
        <time>2026-04-25T10:33:54Z</time>
      </trkpt>
      <trkpt lat="59.076597690582275" lon="30.004112720489502">
        <time>2026-04-25T10:33:57Z</time>
      </trkpt>
      <trkpt lat="59.076640605926514" lon="30.004177093505859">
        <time>2026-04-25T10:33:59Z</time>
      </trkpt>
      <trkpt lat="59.076640605926514" lon="30.004134178161621">
        <time>2026-04-25T10:34:02Z</time>
      </trkpt>
      <trkpt lat="59.076640605926514" lon="30.004112720489502">
        <time>2026-04-25T10:34:04Z</time>
      </trkpt>
      <trkpt lat="59.076662063598633" lon="30.004112720489502">
        <time>2026-04-25T10:34:07Z</time>
      </trkpt>
      <trkpt lat="59.076662063598633" lon="30.004026889801025">
        <time>2026-04-25T10:34:09Z</time>
      </trkpt>
      <trkpt lat="59.076662063598633" lon="30.004048347473145">
        <time>2026-04-25T10:34:12Z</time>
      </trkpt>
      <trkpt lat="59.076640605926514" lon="30.004112720489502">
        <time>2026-04-25T10:34:14Z</time>
      </trkpt>
      <trkpt lat="59.076640605926514" lon="30.004091262817383">
        <time>2026-04-25T10:34:17Z</time>
      </trkpt>
      <trkpt lat="59.076640605926514" lon="30.004091262817383">
        <time>2026-04-25T10:34:19Z</time>
      </trkpt>
      <trkpt lat="59.076619148254395" lon="30.004091262817383">
        <time>2026-04-25T10:34:22Z</time>
      </trkpt>
      <trkpt lat="59.076619148254395" lon="30.004091262817383">
        <time>2026-04-25T10:34:24Z</time>
      </trkpt>
      <trkpt lat="59.076619148254395" lon="30.004091262817383">
        <time>2026-04-25T10:34:27Z</time>
      </trkpt>
      <trkpt lat="59.076576232910156" lon="30.004048347473145">
        <time>2026-04-25T10:34:29Z</time>
      </trkpt>
      <trkpt lat="59.076554775238037" lon="30.004026889801025">
        <time>2026-04-25T10:34:32Z</time>
      </trkpt>
      <trkpt lat="59.076554775238037" lon="30.004026889801025">
        <time>2026-04-25T10:34:34Z</time>
      </trkpt>
      <trkpt lat="59.076554775238037" lon="30.004026889801025">
        <time>2026-04-25T10:34:37Z</time>
      </trkpt>
      <trkpt lat="59.076554775238037" lon="30.004026889801025">
        <time>2026-04-25T10:34:39Z</time>
      </trkpt>
      <trkpt lat="59.076576232910156" lon="30.004048347473145">
        <time>2026-04-25T10:34:42Z</time>
      </trkpt>
      <trkpt lat="59.076640605926514" lon="30.004112720489502">
        <time>2026-04-25T10:34:44Z</time>
      </trkpt>
      <trkpt lat="59.076662063598633" lon="30.004177093505859">
        <time>2026-04-25T10:34:47Z</time>
      </trkpt>
      <trkpt lat="59.076683521270752" lon="30.004241466522217">
        <time>2026-04-25T10:34:49Z</time>
      </trkpt>
      <trkpt lat="59.076683521270752" lon="30.004177093505859">
        <time>2026-04-25T10:34:52Z</time>
      </trkpt>
      <trkpt lat="59.076597690582275" lon="30.004069805145264">
        <time>2026-04-25T10:34:54Z</time>
      </trkpt>
      <trkpt lat="59.076554775238037" lon="30.004026889801025">
        <time>2026-04-25T10:34:57Z</time>
      </trkpt>
      <trkpt lat="59.076468944549561" lon="30.004005432128906">
        <time>2026-04-25T10:34:59Z</time>
      </trkpt>
      <trkpt lat="59.076426029205322" lon="30.003983974456787">
        <time>2026-04-25T10:35:02Z</time>
      </trkpt>
      <trkpt lat="59.076426029205322" lon="30.004005432128906">
        <time>2026-04-25T10:35:04Z</time>
      </trkpt>
      <trkpt lat="59.076468944549561" lon="30.003983974456787">
        <time>2026-04-25T10:35:07Z</time>
      </trkpt>
      <trkpt lat="59.076533317565918" lon="30.004026889801025">
        <time>2026-04-25T10:35:09Z</time>
      </trkpt>
      <trkpt lat="59.076511859893799" lon="30.003983974456787">
        <time>2026-04-25T10:35:12Z</time>
      </trkpt>
      <trkpt lat="59.076404571533203" lon="30.003962516784668">
        <time>2026-04-25T10:35:14Z</time>
      </trkpt>
      <trkpt lat="59.076361656188965" lon="30.00391960144043">
        <time>2026-04-25T10:35:17Z</time>
      </trkpt>
      <trkpt lat="59.076297283172607" lon="30.003898143768311">
        <time>2026-04-25T10:35:19Z</time>
      </trkpt>
      <trkpt lat="59.076297283172607" lon="30.003876686096191">
        <time>2026-04-25T10:35:22Z</time>
      </trkpt>
      <trkpt lat="59.076383113861084" lon="30.003941059112549">
        <time>2026-04-25T10:35:24Z</time>
      </trkpt>
      <trkpt lat="59.076447486877441" lon="30.003983974456787">
        <time>2026-04-25T10:35:27Z</time>
      </trkpt>
      <trkpt lat="59.076468944549561" lon="30.004069805145264">
        <time>2026-04-25T10:35:29Z</time>
      </trkpt>
      <trkpt lat="59.076426029205322" lon="30.00415563583374">
        <time>2026-04-25T10:35:32Z</time>
      </trkpt>
      <trkpt lat="59.076383113861084" lon="30.00415563583374">
        <time>2026-04-25T10:35:34Z</time>
      </trkpt>
      <trkpt lat="59.076404571533203" lon="30.00415563583374">
        <time>2026-04-25T10:35:37Z</time>
      </trkpt>
      <trkpt lat="59.076447486877441" lon="30.004112720489502">
        <time>2026-04-25T10:35:39Z</time>
      </trkpt>
      <trkpt lat="59.076447486877441" lon="30.004048347473145">
        <time>2026-04-25T10:35:42Z</time>
      </trkpt>
      <trkpt lat="59.076426029205322" lon="30.003983974456787">
        <time>2026-04-25T10:35:44Z</time>
      </trkpt>
      <trkpt lat="59.076426029205322" lon="30.004005432128906">
        <time>2026-04-25T10:35:47Z</time>
      </trkpt>
      <trkpt lat="59.076447486877441" lon="30.004069805145264">
        <time>2026-04-25T10:35:49Z</time>
      </trkpt>
      <trkpt lat="59.076426029205322" lon="30.00415563583374">
        <time>2026-04-25T10:35:52Z</time>
      </trkpt>
      <trkpt lat="59.076361656188965" lon="30.00415563583374">
        <time>2026-04-25T10:35:54Z</time>
      </trkpt>
      <trkpt lat="59.076340198516846" lon="30.00415563583374">
        <time>2026-04-25T10:35:57Z</time>
      </trkpt>
      <trkpt lat="59.076340198516846" lon="30.00415563583374">
        <time>2026-04-25T10:35:59Z</time>
      </trkpt>
      <trkpt lat="59.076340198516846" lon="30.00415563583374">
        <time>2026-04-25T10:36:02Z</time>
      </trkpt>
      <trkpt lat="59.076340198516846" lon="30.00415563583374">
        <time>2026-04-25T10:36:04Z</time>
      </trkpt>
      <trkpt lat="59.076340198516846" lon="30.004177093505859">
        <time>2026-04-25T10:36:07Z</time>
      </trkpt>
      <trkpt lat="59.076361656188965" lon="30.004241466522217">
        <time>2026-04-25T10:36:09Z</time>
      </trkpt>
      <trkpt lat="59.076340198516846" lon="30.004262924194336">
        <time>2026-04-25T10:36:12Z</time>
      </trkpt>
      <trkpt lat="59.076340198516846" lon="30.004327297210693">
        <time>2026-04-25T10:36:14Z</time>
      </trkpt>
      <trkpt lat="59.076318740844727" lon="30.004327297210693">
        <time>2026-04-25T10:36:17Z</time>
      </trkpt>
      <trkpt lat="59.076318740844727" lon="30.004284381866455">
        <time>2026-04-25T10:36:19Z</time>
      </trkpt>
      <trkpt lat="59.076297283172607" lon="30.004284381866455">
        <time>2026-04-25T10:36:22Z</time>
      </trkpt>
      <trkpt lat="59.076297283172607" lon="30.004284381866455">
        <time>2026-04-25T10:36:24Z</time>
      </trkpt>
      <trkpt lat="59.076297283172607" lon="30.004284381866455">
        <time>2026-04-25T10:36:27Z</time>
      </trkpt>
      <trkpt lat="59.076297283172607" lon="30.004305839538574">
        <time>2026-04-25T10:36:29Z</time>
      </trkpt>
      <trkpt lat="59.076318740844727" lon="30.004348754882813">
        <time>2026-04-25T10:36:32Z</time>
      </trkpt>
      <trkpt lat="59.076318740844727" lon="30.00441312789917">
        <time>2026-04-25T10:36:34Z</time>
      </trkpt>
      <trkpt lat="59.076340198516846" lon="30.004456043243408">
        <time>2026-04-25T10:36:37Z</time>
      </trkpt>
      <trkpt lat="59.076340198516846" lon="30.004456043243408">
        <time>2026-04-25T10:36:39Z</time>
      </trkpt>
      <trkpt lat="59.076340198516846" lon="30.004456043243408">
        <time>2026-04-25T10:36:42Z</time>
      </trkpt>
      <trkpt lat="59.076318740844727" lon="30.004520416259766">
        <time>2026-04-25T10:36:44Z</time>
      </trkpt>
      <trkpt lat="59.076318740844727" lon="30.004520416259766">
        <time>2026-04-25T10:36:47Z</time>
      </trkpt>
      <trkpt lat="59.076297283172607" lon="30.004520416259766">
        <time>2026-04-25T10:36:49Z</time>
      </trkpt>
      <trkpt lat="59.076318740844727" lon="30.004541873931885">
        <time>2026-04-25T10:36:52Z</time>
      </trkpt>
      <trkpt lat="59.076340198516846" lon="30.004541873931885">
        <time>2026-04-25T10:36:54Z</time>
      </trkpt>
      <trkpt lat="59.076383113861084" lon="30.004563331604004">
        <time>2026-04-25T10:36:57Z</time>
      </trkpt>
      <trkpt lat="59.076383113861084" lon="30.004606246948242">
        <time>2026-04-25T10:36:59Z</time>
      </trkpt>
      <trkpt lat="59.076383113861084" lon="30.004606246948242">
        <time>2026-04-25T10:37:02Z</time>
      </trkpt>
      <trkpt lat="59.076383113861084" lon="30.004563331604004">
        <time>2026-04-25T10:37:04Z</time>
      </trkpt>
      <trkpt lat="59.076361656188965" lon="30.004563331604004">
        <time>2026-04-25T10:37:07Z</time>
      </trkpt>
      <trkpt lat="59.076383113861084" lon="30.004541873931885">
        <time>2026-04-25T10:37:09Z</time>
      </trkpt>
      <trkpt lat="59.076404571533203" lon="30.004541873931885">
        <time>2026-04-25T10:37:12Z</time>
      </trkpt>
      <trkpt lat="59.076426029205322" lon="30.00464916229248">
        <time>2026-04-25T10:37:14Z</time>
      </trkpt>
      <trkpt lat="59.076447486877441" lon="30.004734992980957">
        <time>2026-04-25T10:37:17Z</time>
      </trkpt>
      <trkpt lat="59.076447486877441" lon="30.004863739013672">
        <time>2026-04-25T10:37:19Z</time>
      </trkpt>
      <trkpt lat="59.076447486877441" lon="30.00490665435791">
        <time>2026-04-25T10:37:22Z</time>
      </trkpt>
      <trkpt lat="59.076426029205322" lon="30.00490665435791">
        <time>2026-04-25T10:37:24Z</time>
      </trkpt>
      <trkpt lat="59.076447486877441" lon="30.004863739013672">
        <time>2026-04-25T10:37:27Z</time>
      </trkpt>
      <trkpt lat="59.076447486877441" lon="30.004820823669434">
        <time>2026-04-25T10:37:29Z</time>
      </trkpt>
      <trkpt lat="59.076447486877441" lon="30.004820823669434">
        <time>2026-04-25T10:37:32Z</time>
      </trkpt>
      <trkpt lat="59.076447486877441" lon="30.004863739013672">
        <time>2026-04-25T10:37:34Z</time>
      </trkpt>
      <trkpt lat="59.076447486877441" lon="30.004928112030029">
        <time>2026-04-25T10:37:37Z</time>
      </trkpt>
      <trkpt lat="59.076426029205322" lon="30.005035400390625">
        <time>2026-04-25T10:37:39Z</time>
      </trkpt>
      <trkpt lat="59.076383113861084" lon="30.005056858062744">
        <time>2026-04-25T10:37:42Z</time>
      </trkpt>
      <trkpt lat="59.076383113861084" lon="30.005035400390625">
        <time>2026-04-25T10:37:44Z</time>
      </trkpt>
      <trkpt lat="59.076426029205322" lon="30.005013942718506">
        <time>2026-04-25T10:37:47Z</time>
      </trkpt>
      <trkpt lat="59.076426029205322" lon="30.004949569702148">
        <time>2026-04-25T10:37:49Z</time>
      </trkpt>
      <trkpt lat="59.076426029205322" lon="30.004949569702148">
        <time>2026-04-25T10:37:52Z</time>
      </trkpt>
      <trkpt lat="59.076426029205322" lon="30.005013942718506">
        <time>2026-04-25T10:37:54Z</time>
      </trkpt>
      <trkpt lat="59.076447486877441" lon="30.005099773406982">
        <time>2026-04-25T10:37:57Z</time>
      </trkpt>
      <trkpt lat="59.076447486877441" lon="30.005185604095459">
        <time>2026-04-25T10:37:59Z</time>
      </trkpt>
      <trkpt lat="59.076447486877441" lon="30.005185604095459">
        <time>2026-04-25T10:38:02Z</time>
      </trkpt>
      <trkpt lat="59.076447486877441" lon="30.005078315734863">
        <time>2026-04-25T10:38:04Z</time>
      </trkpt>
      <trkpt lat="59.076447486877441" lon="30.004992485046387">
        <time>2026-04-25T10:38:07Z</time>
      </trkpt>
      <trkpt lat="59.076426029205322" lon="30.00490665435791">
        <time>2026-04-25T10:38:09Z</time>
      </trkpt>
      <trkpt lat="59.076426029205322" lon="30.004928112030029">
        <time>2026-04-25T10:38:12Z</time>
      </trkpt>
      <trkpt lat="59.076447486877441" lon="30.005013942718506">
        <time>2026-04-25T10:38:14Z</time>
      </trkpt>
      <trkpt lat="59.076468944549561" lon="30.005078315734863">
        <time>2026-04-25T10:38:17Z</time>
      </trkpt>
      <trkpt lat="59.07649040222168" lon="30.005207061767578">
        <time>2026-04-25T10:38:19Z</time>
      </trkpt>
      <trkpt lat="59.076468944549561" lon="30.005271434783936">
        <time>2026-04-25T10:38:22Z</time>
      </trkpt>
      <trkpt lat="59.076468944549561" lon="30.005271434783936">
        <time>2026-04-25T10:38:24Z</time>
      </trkpt>
      <trkpt lat="59.076468944549561" lon="30.005228519439697">
        <time>2026-04-25T10:38:27Z</time>
      </trkpt>
      <trkpt lat="59.076468944549561" lon="30.005228519439697">
        <time>2026-04-25T10:38:29Z</time>
      </trkpt>
      <trkpt lat="59.076468944549561" lon="30.005228519439697">
        <time>2026-04-25T10:38:32Z</time>
      </trkpt>
      <trkpt lat="59.076468944549561" lon="30.005228519439697">
        <time>2026-04-25T10:38:34Z</time>
      </trkpt>
      <trkpt lat="59.076468944549561" lon="30.005228519439697">
        <time>2026-04-25T10:38:37Z</time>
      </trkpt>
      <trkpt lat="59.07649040222168" lon="30.005207061767578">
        <time>2026-04-25T10:38:39Z</time>
      </trkpt>
      <trkpt lat="59.07649040222168" lon="30.005249977111816">
        <time>2026-04-25T10:38:42Z</time>
      </trkpt>
      <trkpt lat="59.076511859893799" lon="30.005271434783936">
        <time>2026-04-25T10:38:44Z</time>
      </trkpt>
      <trkpt lat="59.076533317565918" lon="30.005292892456055">
        <time>2026-04-25T10:38:47Z</time>
      </trkpt>
      <trkpt lat="59.076533317565918" lon="30.005292892456055">
        <time>2026-04-25T10:38:49Z</time>
      </trkpt>
      <trkpt lat="59.076533317565918" lon="30.005292892456055">
        <time>2026-04-25T10:38:52Z</time>
      </trkpt>
      <trkpt lat="59.076511859893799" lon="30.005249977111816">
        <time>2026-04-25T10:38:54Z</time>
      </trkpt>
      <trkpt lat="59.07649040222168" lon="30.005228519439697">
        <time>2026-04-25T10:38:57Z</time>
      </trkpt>
      <trkpt lat="59.076511859893799" lon="30.005249977111816">
        <time>2026-04-25T10:38:59Z</time>
      </trkpt>
      <trkpt lat="59.076511859893799" lon="30.005271434783936">
        <time>2026-04-25T10:39:02Z</time>
      </trkpt>
      <trkpt lat="59.07649040222168" lon="30.005271434783936">
        <time>2026-04-25T10:39:04Z</time>
      </trkpt>
      <trkpt lat="59.076447486877441" lon="30.005292892456055">
        <time>2026-04-25T10:39:07Z</time>
      </trkpt>
      <trkpt lat="59.076404571533203" lon="30.005357265472412">
        <time>2026-04-25T10:39:09Z</time>
      </trkpt>
      <trkpt lat="59.076404571533203" lon="30.005357265472412">
        <time>2026-04-25T10:39:12Z</time>
      </trkpt>
      <trkpt lat="59.076447486877441" lon="30.005292892456055">
        <time>2026-04-25T10:39:14Z</time>
      </trkpt>
      <trkpt lat="59.07649040222168" lon="30.005271434783936">
        <time>2026-04-25T10:39:17Z</time>
      </trkpt>
      <trkpt lat="59.076533317565918" lon="30.005357265472412">
        <time>2026-04-25T10:39:19Z</time>
      </trkpt>
      <trkpt lat="59.076511859893799" lon="30.00540018081665">
        <time>2026-04-25T10:39:22Z</time>
      </trkpt>
      <trkpt lat="59.076511859893799" lon="30.005443096160889">
        <time>2026-04-25T10:39:24Z</time>
      </trkpt>
      <trkpt lat="59.076533317565918" lon="30.005507469177246">
        <time>2026-04-25T10:39:27Z</time>
      </trkpt>
      <trkpt lat="59.076533317565918" lon="30.005614757537842">
        <time>2026-04-25T10:39:29Z</time>
      </trkpt>
      <trkpt lat="59.076533317565918" lon="30.005679130554199">
        <time>2026-04-25T10:39:32Z</time>
      </trkpt>
      <trkpt lat="59.076511859893799" lon="30.005764961242676">
        <time>2026-04-25T10:39:34Z</time>
      </trkpt>
      <trkpt lat="59.076511859893799" lon="30.005764961242676">
        <time>2026-04-25T10:39:37Z</time>
      </trkpt>
      <trkpt lat="59.076511859893799" lon="30.005764961242676">
        <time>2026-04-25T10:39:39Z</time>
      </trkpt>
      <trkpt lat="59.076511859893799" lon="30.005764961242676">
        <time>2026-04-25T10:39:42Z</time>
      </trkpt>
      <trkpt lat="59.076511859893799" lon="30.005764961242676">
        <time>2026-04-25T10:39:44Z</time>
      </trkpt>
      <trkpt lat="59.076468944549561" lon="30.005807876586914">
        <time>2026-04-25T10:39:47Z</time>
      </trkpt>
      <trkpt lat="59.076447486877441" lon="30.005829334259033">
        <time>2026-04-25T10:39:49Z</time>
      </trkpt>
      <trkpt lat="59.07649040222168" lon="30.005786418914795">
        <time>2026-04-25T10:39:52Z</time>
      </trkpt>
      <trkpt lat="59.076511859893799" lon="30.005700588226318">
        <time>2026-04-25T10:39:54Z</time>
      </trkpt>
      <trkpt lat="59.076511859893799" lon="30.005700588226318">
        <time>2026-04-25T10:39:57Z</time>
      </trkpt>
      <trkpt lat="59.07649040222168" lon="30.005764961242676">
        <time>2026-04-25T10:39:59Z</time>
      </trkpt>
      <trkpt lat="59.076426029205322" lon="30.005850791931152">
        <time>2026-04-25T10:40:02Z</time>
      </trkpt>
      <trkpt lat="59.076383113861084" lon="30.00591516494751">
        <time>2026-04-25T10:40:04Z</time>
      </trkpt>
      <trkpt lat="59.076383113861084" lon="30.005936622619629">
        <time>2026-04-25T10:40:07Z</time>
      </trkpt>
      <trkpt lat="59.076447486877441" lon="30.005829334259033">
        <time>2026-04-25T10:40:09Z</time>
      </trkpt>
      <trkpt lat="59.07649040222168" lon="30.005786418914795">
        <time>2026-04-25T10:40:12Z</time>
      </trkpt>
      <trkpt lat="59.076511859893799" lon="30.005743503570557">
        <time>2026-04-25T10:40:14Z</time>
      </trkpt>
      <trkpt lat="59.076533317565918" lon="30.005829334259033">
        <time>2026-04-25T10:40:17Z</time>
      </trkpt>
      <trkpt lat="59.076576232910156" lon="30.005936622619629">
        <time>2026-04-25T10:40:19Z</time>
      </trkpt>
      <trkpt lat="59.076597690582275" lon="30.006000995635986">
        <time>2026-04-25T10:40:22Z</time>
      </trkpt>
      <trkpt lat="59.076619148254395" lon="30.006065368652344">
        <time>2026-04-25T10:40:24Z</time>
      </trkpt>
      <trkpt lat="59.076619148254395" lon="30.006108283996582">
        <time>2026-04-25T10:40:27Z</time>
      </trkpt>
      <trkpt lat="59.076619148254395" lon="30.006108283996582">
        <time>2026-04-25T10:40:29Z</time>
      </trkpt>
      <trkpt lat="59.076619148254395" lon="30.006129741668701">
        <time>2026-04-25T10:40:32Z</time>
      </trkpt>
      <trkpt lat="59.076640605926514" lon="30.006215572357178">
        <time>2026-04-25T10:40:34Z</time>
      </trkpt>
      <trkpt lat="59.076640605926514" lon="30.006322860717773">
        <time>2026-04-25T10:40:37Z</time>
      </trkpt>
      <trkpt lat="59.076619148254395" lon="30.006365776062012">
        <time>2026-04-25T10:40:39Z</time>
      </trkpt>
      <trkpt lat="59.076619148254395" lon="30.006365776062012">
        <time>2026-04-25T10:40:42Z</time>
      </trkpt>
      <trkpt lat="59.076619148254395" lon="30.006344318389893">
        <time>2026-04-25T10:40:44Z</time>
      </trkpt>
      <trkpt lat="59.076619148254395" lon="30.006344318389893">
        <time>2026-04-25T10:40:47Z</time>
      </trkpt>
      <trkpt lat="59.076619148254395" lon="30.006387233734131">
        <time>2026-04-25T10:40:49Z</time>
      </trkpt>
      <trkpt lat="59.076597690582275" lon="30.006451606750488">
        <time>2026-04-25T10:40:52Z</time>
      </trkpt>
      <trkpt lat="59.076554775238037" lon="30.006494522094727">
        <time>2026-04-25T10:40:54Z</time>
      </trkpt>
      <trkpt lat="59.076554775238037" lon="30.006494522094727">
        <time>2026-04-25T10:40:57Z</time>
      </trkpt>
      <trkpt lat="59.076597690582275" lon="30.006430149078369">
        <time>2026-04-25T10:40:59Z</time>
      </trkpt>
      <trkpt lat="59.076619148254395" lon="30.006387233734131">
        <time>2026-04-25T10:41:02Z</time>
      </trkpt>
      <trkpt lat="59.076576232910156" lon="30.006322860717773">
        <time>2026-04-25T10:41:04Z</time>
      </trkpt>
      <trkpt lat="59.076597690582275" lon="30.006344318389893">
        <time>2026-04-25T10:41:07Z</time>
      </trkpt>
      <trkpt lat="59.076619148254395" lon="30.006301403045654">
        <time>2026-04-25T10:41:09Z</time>
      </trkpt>
      <trkpt lat="59.076619148254395" lon="30.006215572357178">
        <time>2026-04-25T10:41:12Z</time>
      </trkpt>
      <trkpt lat="59.076597690582275" lon="30.006000995635986">
        <time>2026-04-25T10:41:14Z</time>
      </trkpt>
      <trkpt lat="59.076597690582275" lon="30.006000995635986">
        <time>2026-04-25T10:41:17Z</time>
      </trkpt>
      <trkpt lat="59.076619148254395" lon="30.006215572357178">
        <time>2026-04-25T10:41:19Z</time>
      </trkpt>
      <trkpt lat="59.076640605926514" lon="30.006344318389893">
        <time>2026-04-25T10:41:22Z</time>
      </trkpt>
      <trkpt lat="59.076554775238037" lon="30.006473064422607">
        <time>2026-04-25T10:41:24Z</time>
      </trkpt>
      <trkpt lat="59.076511859893799" lon="30.006473064422607">
        <time>2026-04-25T10:41:27Z</time>
      </trkpt>
      <trkpt lat="59.076511859893799" lon="30.006473064422607">
        <time>2026-04-25T10:41:29Z</time>
      </trkpt>
      <trkpt lat="59.076554775238037" lon="30.006473064422607">
        <time>2026-04-25T10:41:32Z</time>
      </trkpt>
      <trkpt lat="59.076619148254395" lon="30.006430149078369">
        <time>2026-04-25T10:41:34Z</time>
      </trkpt>
      <trkpt lat="59.076619148254395" lon="30.00640869140625">
        <time>2026-04-25T10:41:37Z</time>
      </trkpt>
      <trkpt lat="59.076619148254395" lon="30.006344318389893">
        <time>2026-04-25T10:41:39Z</time>
      </trkpt>
      <trkpt lat="59.076619148254395" lon="30.006237030029297">
        <time>2026-04-25T10:41:42Z</time>
      </trkpt>
      <trkpt lat="59.076597690582275" lon="30.005979537963867">
        <time>2026-04-25T10:41:44Z</time>
      </trkpt>
      <trkpt lat="59.076576232910156" lon="30.00591516494751">
        <time>2026-04-25T10:41:47Z</time>
      </trkpt>
      <trkpt lat="59.076619148254395" lon="30.00615119934082">
        <time>2026-04-25T10:41:49Z</time>
      </trkpt>
      <trkpt lat="59.076640605926514" lon="30.006301403045654">
        <time>2026-04-25T10:41:52Z</time>
      </trkpt>
      <trkpt lat="59.076576232910156" lon="30.006451606750488">
        <time>2026-04-25T10:41:54Z</time>
      </trkpt>
      <trkpt lat="59.076533317565918" lon="30.006451606750488">
        <time>2026-04-25T10:41:57Z</time>
      </trkpt>
      <trkpt lat="59.076468944549561" lon="30.006515979766846">
        <time>2026-04-25T10:41:59Z</time>
      </trkpt>
      <trkpt lat="59.076426029205322" lon="30.006515979766846">
        <time>2026-04-25T10:42:02Z</time>
      </trkpt>
      <trkpt lat="59.076404571533203" lon="30.006515979766846">
        <time>2026-04-25T10:42:04Z</time>
      </trkpt>
      <trkpt lat="59.076383113861084" lon="30.006515979766846">
        <time>2026-04-25T10:42:07Z</time>
      </trkpt>
      <trkpt lat="59.076318740844727" lon="30.006494522094727">
        <time>2026-04-25T10:42:09Z</time>
      </trkpt>
      <trkpt lat="59.076318740844727" lon="30.006494522094727">
        <time>2026-04-25T10:42:12Z</time>
      </trkpt>
      <trkpt lat="59.076361656188965" lon="30.006537437438965">
        <time>2026-04-25T10:42:14Z</time>
      </trkpt>
      <trkpt lat="59.076383113861084" lon="30.006558895111084">
        <time>2026-04-25T10:42:17Z</time>
      </trkpt>
      <trkpt lat="59.076340198516846" lon="30.006601810455322">
        <time>2026-04-25T10:42:19Z</time>
      </trkpt>
      <trkpt lat="59.076318740844727" lon="30.006601810455322">
        <time>2026-04-25T10:42:22Z</time>
      </trkpt>
      <trkpt lat="59.076297283172607" lon="30.006580352783203">
        <time>2026-04-25T10:42:24Z</time>
      </trkpt>
      <trkpt lat="59.076297283172607" lon="30.006558895111084">
        <time>2026-04-25T10:42:27Z</time>
      </trkpt>
      <trkpt lat="59.076340198516846" lon="30.006601810455322">
        <time>2026-04-25T10:42:29Z</time>
      </trkpt>
      <trkpt lat="59.076404571533203" lon="30.006558895111084">
        <time>2026-04-25T10:42:32Z</time>
      </trkpt>
      <trkpt lat="59.076426029205322" lon="30.006515979766846">
        <time>2026-04-25T10:42:34Z</time>
      </trkpt>
      <trkpt lat="59.076426029205322" lon="30.006451606750488">
        <time>2026-04-25T10:42:37Z</time>
      </trkpt>
      <trkpt lat="59.076404571533203" lon="30.00640869140625">
        <time>2026-04-25T10:42:39Z</time>
      </trkpt>
      <trkpt lat="59.076404571533203" lon="30.00640869140625">
        <time>2026-04-25T10:42:42Z</time>
      </trkpt>
      <trkpt lat="59.076404571533203" lon="30.00640869140625">
        <time>2026-04-25T10:42:44Z</time>
      </trkpt>
      <trkpt lat="59.076426029205322" lon="30.006430149078369">
        <time>2026-04-25T10:42:47Z</time>
      </trkpt>
      <trkpt lat="59.076383113861084" lon="30.006473064422607">
        <time>2026-04-25T10:42:49Z</time>
      </trkpt>
      <trkpt lat="59.076361656188965" lon="30.006494522094727">
        <time>2026-04-25T10:42:52Z</time>
      </trkpt>
      <trkpt lat="59.076361656188965" lon="30.006494522094727">
        <time>2026-04-25T10:42:54Z</time>
      </trkpt>
      <trkpt lat="59.076404571533203" lon="30.006473064422607">
        <time>2026-04-25T10:42:57Z</time>
      </trkpt>
      <trkpt lat="59.076447486877441" lon="30.006451606750488">
        <time>2026-04-25T10:42:59Z</time>
      </trkpt>
      <trkpt lat="59.076468944549561" lon="30.00640869140625">
        <time>2026-04-25T10:43:02Z</time>
      </trkpt>
      <trkpt lat="59.076468944549561" lon="30.006387233734131">
        <time>2026-04-25T10:43:04Z</time>
      </trkpt>
      <trkpt lat="59.076468944549561" lon="30.006387233734131">
        <time>2026-04-25T10:43:07Z</time>
      </trkpt>
      <trkpt lat="59.076447486877441" lon="30.006387233734131">
        <time>2026-04-25T10:43:09Z</time>
      </trkpt>
      <trkpt lat="59.076447486877441" lon="30.006387233734131">
        <time>2026-04-25T10:43:12Z</time>
      </trkpt>
      <trkpt lat="59.076447486877441" lon="30.006344318389893">
        <time>2026-04-25T10:43:14Z</time>
      </trkpt>
      <trkpt lat="59.076447486877441" lon="30.006344318389893">
        <time>2026-04-25T10:43:17Z</time>
      </trkpt>
      <trkpt lat="59.076426029205322" lon="30.006322860717773">
        <time>2026-04-25T10:43:19Z</time>
      </trkpt>
      <trkpt lat="59.076383113861084" lon="30.006279945373535">
        <time>2026-04-25T10:43:22Z</time>
      </trkpt>
      <trkpt lat="59.076404571533203" lon="30.006301403045654">
        <time>2026-04-25T10:43:24Z</time>
      </trkpt>
      <trkpt lat="59.076468944549561" lon="30.006365776062012">
        <time>2026-04-25T10:43:27Z</time>
      </trkpt>
      <trkpt lat="59.07649040222168" lon="30.00640869140625">
        <time>2026-04-25T10:43:29Z</time>
      </trkpt>
      <trkpt lat="59.076468944549561" lon="30.006473064422607">
        <time>2026-04-25T10:43:32Z</time>
      </trkpt>
      <trkpt lat="59.076361656188965" lon="30.006494522094727">
        <time>2026-04-25T10:43:34Z</time>
      </trkpt>
      <trkpt lat="59.076318740844727" lon="30.006515979766846">
        <time>2026-04-25T10:43:37Z</time>
      </trkpt>
      <trkpt lat="59.076275825500488" lon="30.006515979766846">
        <time>2026-04-25T10:43:39Z</time>
      </trkpt>
      <trkpt lat="59.076297283172607" lon="30.006515979766846">
        <time>2026-04-25T10:43:42Z</time>
      </trkpt>
      <trkpt lat="59.076318740844727" lon="30.006558895111084">
        <time>2026-04-25T10:43:44Z</time>
      </trkpt>
      <trkpt lat="59.076340198516846" lon="30.006558895111084">
        <time>2026-04-25T10:43:47Z</time>
      </trkpt>
      <trkpt lat="59.076361656188965" lon="30.006580352783203">
        <time>2026-04-25T10:43:49Z</time>
      </trkpt>
      <trkpt lat="59.076383113861084" lon="30.006558895111084">
        <time>2026-04-25T10:43:52Z</time>
      </trkpt>
      <trkpt lat="59.076426029205322" lon="30.006494522094727">
        <time>2026-04-25T10:43:54Z</time>
      </trkpt>
      <trkpt lat="59.076404571533203" lon="30.006387233734131">
        <time>2026-04-25T10:43:57Z</time>
      </trkpt>
      <trkpt lat="59.076383113861084" lon="30.006322860717773">
        <time>2026-04-25T10:43:59Z</time>
      </trkpt>
      <trkpt lat="59.076404571533203" lon="30.006387233734131">
        <time>2026-04-25T10:44:02Z</time>
      </trkpt>
      <trkpt lat="59.076426029205322" lon="30.006494522094727">
        <time>2026-04-25T10:44:04Z</time>
      </trkpt>
      <trkpt lat="59.076383113861084" lon="30.006515979766846">
        <time>2026-04-25T10:44:07Z</time>
      </trkpt>
      <trkpt lat="59.076340198516846" lon="30.006515979766846">
        <time>2026-04-25T10:44:09Z</time>
      </trkpt>
      <trkpt lat="59.076318740844727" lon="30.006537437438965">
        <time>2026-04-25T10:44:12Z</time>
      </trkpt>
      <trkpt lat="59.07623291015625" lon="30.006494522094727">
        <time>2026-04-25T10:44:14Z</time>
      </trkpt>
      <trkpt lat="59.076254367828369" lon="30.006515979766846">
        <time>2026-04-25T10:44:17Z</time>
      </trkpt>
      <trkpt lat="59.076297283172607" lon="30.006558895111084">
        <time>2026-04-25T10:44:19Z</time>
      </trkpt>
      <trkpt lat="59.076340198516846" lon="30.006580352783203">
        <time>2026-04-25T10:44:22Z</time>
      </trkpt>
      <trkpt lat="59.076361656188965" lon="30.006473064422607">
        <time>2026-04-25T10:44:24Z</time>
      </trkpt>
      <trkpt lat="59.076361656188965" lon="30.00640869140625">
        <time>2026-04-25T10:44:27Z</time>
      </trkpt>
      <trkpt lat="59.076361656188965" lon="30.006494522094727">
        <time>2026-04-25T10:44:29Z</time>
      </trkpt>
      <trkpt lat="59.076361656188965" lon="30.006537437438965">
        <time>2026-04-25T10:44:32Z</time>
      </trkpt>
      <trkpt lat="59.076340198516846" lon="30.006558895111084">
        <time>2026-04-25T10:44:34Z</time>
      </trkpt>
      <trkpt lat="59.076275825500488" lon="30.006537437438965">
        <time>2026-04-25T10:44:37Z</time>
      </trkpt>
      <trkpt lat="59.076211452484131" lon="30.006558895111084">
        <time>2026-04-25T10:44:39Z</time>
      </trkpt>
      <trkpt lat="59.076211452484131" lon="30.006558895111084">
        <time>2026-04-25T10:44:42Z</time>
      </trkpt>
      <trkpt lat="59.07623291015625" lon="30.006515979766846">
        <time>2026-04-25T10:44:44Z</time>
      </trkpt>
      <trkpt lat="59.076211452484131" lon="30.006451606750488">
        <time>2026-04-25T10:44:47Z</time>
      </trkpt>
      <trkpt lat="59.076168537139893" lon="30.006322860717773">
        <time>2026-04-25T10:44:49Z</time>
      </trkpt>
      <trkpt lat="59.076189994812012" lon="30.006365776062012">
        <time>2026-04-25T10:44:52Z</time>
      </trkpt>
      <trkpt lat="59.076211452484131" lon="30.006430149078369">
        <time>2026-04-25T10:44:54Z</time>
      </trkpt>
      <trkpt lat="59.07623291015625" lon="30.006494522094727">
        <time>2026-04-25T10:44:57Z</time>
      </trkpt>
      <trkpt lat="59.076275825500488" lon="30.006537437438965">
        <time>2026-04-25T10:44:59Z</time>
      </trkpt>
      <trkpt lat="59.076297283172607" lon="30.006558895111084">
        <time>2026-04-25T10:45:02Z</time>
      </trkpt>
      <trkpt lat="59.076340198516846" lon="30.006580352783203">
        <time>2026-04-25T10:45:04Z</time>
      </trkpt>
      <trkpt lat="59.076383113861084" lon="30.006537437438965">
        <time>2026-04-25T10:45:07Z</time>
      </trkpt>
      <trkpt lat="59.076426029205322" lon="30.006494522094727">
        <time>2026-04-25T10:45:09Z</time>
      </trkpt>
      <trkpt lat="59.076447486877441" lon="30.006473064422607">
        <time>2026-04-25T10:45:12Z</time>
      </trkpt>
      <trkpt lat="59.076426029205322" lon="30.00640869140625">
        <time>2026-04-25T10:45:14Z</time>
      </trkpt>
      <trkpt lat="59.076426029205322" lon="30.006430149078369">
        <time>2026-04-25T10:45:17Z</time>
      </trkpt>
      <trkpt lat="59.076426029205322" lon="30.006451606750488">
        <time>2026-04-25T10:45:19Z</time>
      </trkpt>
      <trkpt lat="59.076426029205322" lon="30.006515979766846">
        <time>2026-04-25T10:45:22Z</time>
      </trkpt>
      <trkpt lat="59.076361656188965" lon="30.006515979766846">
        <time>2026-04-25T10:45:24Z</time>
      </trkpt>
      <trkpt lat="59.076361656188965" lon="30.006515979766846">
        <time>2026-04-25T10:45:27Z</time>
      </trkpt>
      <trkpt lat="59.076361656188965" lon="30.006580352783203">
        <time>2026-04-25T10:45:29Z</time>
      </trkpt>
      <trkpt lat="59.076340198516846" lon="30.006601810455322">
        <time>2026-04-25T10:45:32Z</time>
      </trkpt>
      <trkpt lat="59.076275825500488" lon="30.006644725799561">
        <time>2026-04-25T10:45:34Z</time>
      </trkpt>
      <trkpt lat="59.076254367828369" lon="30.006644725799561">
        <time>2026-04-25T10:45:37Z</time>
      </trkpt>
      <trkpt lat="59.076275825500488" lon="30.006644725799561">
        <time>2026-04-25T10:45:39Z</time>
      </trkpt>
      <trkpt lat="59.076297283172607" lon="30.006623268127441">
        <time>2026-04-25T10:45:42Z</time>
      </trkpt>
      <trkpt lat="59.076254367828369" lon="30.006515979766846">
        <time>2026-04-25T10:45:44Z</time>
      </trkpt>
      <trkpt lat="59.076189994812012" lon="30.006451606750488">
        <time>2026-04-25T10:45:47Z</time>
      </trkpt>
      <trkpt lat="59.076189994812012" lon="30.006451606750488">
        <time>2026-04-25T10:45:49Z</time>
      </trkpt>
      <trkpt lat="59.07623291015625" lon="30.006515979766846">
        <time>2026-04-25T10:45:52Z</time>
      </trkpt>
      <trkpt lat="59.076297283172607" lon="30.006580352783203">
        <time>2026-04-25T10:45:54Z</time>
      </trkpt>
      <trkpt lat="59.076318740844727" lon="30.006601810455322">
        <time>2026-04-25T10:45:57Z</time>
      </trkpt>
      <trkpt lat="59.076361656188965" lon="30.006580352783203">
        <time>2026-04-25T10:45:59Z</time>
      </trkpt>
      <trkpt lat="59.076404571533203" lon="30.006494522094727">
        <time>2026-04-25T10:46:02Z</time>
      </trkpt>
      <trkpt lat="59.076404571533203" lon="30.006494522094727">
        <time>2026-04-25T10:46:04Z</time>
      </trkpt>
      <trkpt lat="59.076404571533203" lon="30.006558895111084">
        <time>2026-04-25T10:46:07Z</time>
      </trkpt>
      <trkpt lat="59.076318740844727" lon="30.006601810455322">
        <time>2026-04-25T10:46:09Z</time>
      </trkpt>
      <trkpt lat="59.07623291015625" lon="30.006644725799561">
        <time>2026-04-25T10:46:12Z</time>
      </trkpt>
      <trkpt lat="59.076168537139893" lon="30.00666618347168">
        <time>2026-04-25T10:46:14Z</time>
      </trkpt>
      <trkpt lat="59.076168537139893" lon="30.00666618347168">
        <time>2026-04-25T10:46:17Z</time>
      </trkpt>
      <trkpt lat="59.07623291015625" lon="30.006644725799561">
        <time>2026-04-25T10:46:19Z</time>
      </trkpt>
      <trkpt lat="59.076254367828369" lon="30.006623268127441">
        <time>2026-04-25T10:46:22Z</time>
      </trkpt>
      <trkpt lat="59.076254367828369" lon="30.006580352783203">
        <time>2026-04-25T10:46:24Z</time>
      </trkpt>
      <trkpt lat="59.076254367828369" lon="30.006580352783203">
        <time>2026-04-25T10:46:27Z</time>
      </trkpt>
      <trkpt lat="59.076254367828369" lon="30.006580352783203">
        <time>2026-04-25T10:46:29Z</time>
      </trkpt>
      <trkpt lat="59.076254367828369" lon="30.006580352783203">
        <time>2026-04-25T10:46:32Z</time>
      </trkpt>
      <trkpt lat="59.076254367828369" lon="30.006580352783203">
        <time>2026-04-25T10:46:34Z</time>
      </trkpt>
      <trkpt lat="59.076254367828369" lon="30.006580352783203">
        <time>2026-04-25T10:46:37Z</time>
      </trkpt>
      <trkpt lat="59.076254367828369" lon="30.006580352783203">
        <time>2026-04-25T10:46:39Z</time>
      </trkpt>
      <trkpt lat="59.076254367828369" lon="30.006580352783203">
        <time>2026-04-25T10:46:42Z</time>
      </trkpt>
      <trkpt lat="59.076254367828369" lon="30.006580352783203">
        <time>2026-04-25T10:46:44Z</time>
      </trkpt>
      <trkpt lat="59.076254367828369" lon="30.006580352783203">
        <time>2026-04-25T10:46:47Z</time>
      </trkpt>
      <trkpt lat="59.076254367828369" lon="30.006580352783203">
        <time>2026-04-25T10:46:49Z</time>
      </trkpt>
      <trkpt lat="59.076254367828369" lon="30.006601810455322">
        <time>2026-04-25T10:46:52Z</time>
      </trkpt>
      <trkpt lat="59.076254367828369" lon="30.006601810455322">
        <time>2026-04-25T10:46:54Z</time>
      </trkpt>
      <trkpt lat="59.076254367828369" lon="30.006601810455322">
        <time>2026-04-25T10:46:57Z</time>
      </trkpt>
      <trkpt lat="59.076254367828369" lon="30.006601810455322">
        <time>2026-04-25T10:46:59Z</time>
      </trkpt>
      <trkpt lat="59.076254367828369" lon="30.006601810455322">
        <time>2026-04-25T10:47:02Z</time>
      </trkpt>
      <trkpt lat="59.076254367828369" lon="30.006601810455322">
        <time>2026-04-25T10:47:04Z</time>
      </trkpt>
      <trkpt lat="59.076254367828369" lon="30.006601810455322">
        <time>2026-04-25T10:47:07Z</time>
      </trkpt>
      <trkpt lat="59.076254367828369" lon="30.006601810455322">
        <time>2026-04-25T10:47:09Z</time>
      </trkpt>
      <trkpt lat="59.076254367828369" lon="30.006601810455322">
        <time>2026-04-25T10:47:12Z</time>
      </trkpt>
      <trkpt lat="59.076254367828369" lon="30.006601810455322">
        <time>2026-04-25T10:47:14Z</time>
      </trkpt>
      <trkpt lat="59.076254367828369" lon="30.006580352783203">
        <time>2026-04-25T10:47:17Z</time>
      </trkpt>
      <trkpt lat="59.07623291015625" lon="30.006580352783203">
        <time>2026-04-25T10:47:19Z</time>
      </trkpt>
      <trkpt lat="59.07623291015625" lon="30.006580352783203">
        <time>2026-04-25T10:47:22Z</time>
      </trkpt>
      <trkpt lat="59.076211452484131" lon="30.006558895111084">
        <time>2026-04-25T10:47:24Z</time>
      </trkpt>
      <trkpt lat="59.076189994812012" lon="30.006537437438965">
        <time>2026-04-25T10:47:27Z</time>
      </trkpt>
      <trkpt lat="59.07623291015625" lon="30.006580352783203">
        <time>2026-04-25T10:47:29Z</time>
      </trkpt>
      <trkpt lat="59.076254367828369" lon="30.006601810455322">
        <time>2026-04-25T10:47:32Z</time>
      </trkpt>
      <trkpt lat="59.07623291015625" lon="30.006644725799561">
        <time>2026-04-25T10:47:34Z</time>
      </trkpt>
      <trkpt lat="59.076168537139893" lon="30.00666618347168">
        <time>2026-04-25T10:47:37Z</time>
      </trkpt>
      <trkpt lat="59.076125621795654" lon="30.00666618347168">
        <time>2026-04-25T10:47:39Z</time>
      </trkpt>
      <trkpt lat="59.076168537139893" lon="30.00666618347168">
        <time>2026-04-25T10:47:42Z</time>
      </trkpt>
      <trkpt lat="59.076254367828369" lon="30.006644725799561">
        <time>2026-04-25T10:47:44Z</time>
      </trkpt>
      <trkpt lat="59.076275825500488" lon="30.006601810455322">
        <time>2026-04-25T10:47:47Z</time>
      </trkpt>
      <trkpt lat="59.076318740844727" lon="30.006494522094727">
        <time>2026-04-25T10:47:49Z</time>
      </trkpt>
      <trkpt lat="59.076318740844727" lon="30.006515979766846">
        <time>2026-04-25T10:47:52Z</time>
      </trkpt>
      <trkpt lat="59.076254367828369" lon="30.006623268127441">
        <time>2026-04-25T10:47:54Z</time>
      </trkpt>
      <trkpt lat="59.076168537139893" lon="30.006644725799561">
        <time>2026-04-25T10:47:57Z</time>
      </trkpt>
      <trkpt lat="59.076061248779297" lon="30.00666618347168">
        <time>2026-04-25T10:47:59Z</time>
      </trkpt>
      <trkpt lat="59.075996875762939" lon="30.00666618347168">
        <time>2026-04-25T10:48:02Z</time>
      </trkpt>
      <trkpt lat="59.076082706451416" lon="30.00666618347168">
        <time>2026-04-25T10:48:04Z</time>
      </trkpt>
      <trkpt lat="59.076147079467773" lon="30.00666618347168">
        <time>2026-04-25T10:48:07Z</time>
      </trkpt>
      <trkpt lat="59.076254367828369" lon="30.006644725799561">
        <time>2026-04-25T10:48:09Z</time>
      </trkpt>
      <trkpt lat="59.076340198516846" lon="30.006451606750488">
        <time>2026-04-25T10:48:14Z</time>
      </trkpt>
      <trkpt lat="59.076361656188965" lon="30.006473064422607">
        <time>2026-04-25T10:48:17Z</time>
      </trkpt>
      <trkpt lat="59.076340198516846" lon="30.006601810455322">
        <time>2026-04-25T10:48:19Z</time>
      </trkpt>
      <trkpt lat="59.076254367828369" lon="30.006644725799561">
        <time>2026-04-25T10:48:22Z</time>
      </trkpt>
      <trkpt lat="59.076104164123535" lon="30.00666618347168">
        <time>2026-04-25T10:48:24Z</time>
      </trkpt>
      <trkpt lat="59.076018333435059" lon="30.00666618347168">
        <time>2026-04-25T10:48:27Z</time>
      </trkpt>
      <trkpt lat="59.075911045074463" lon="30.006644725799561">
        <time>2026-04-25T10:48:29Z</time>
      </trkpt>
      <trkpt lat="59.075932502746582" lon="30.00666618347168">
        <time>2026-04-25T10:48:32Z</time>
      </trkpt>
      <trkpt lat="59.076039791107178" lon="30.006687641143799">
        <time>2026-04-25T10:48:34Z</time>
      </trkpt>
      <trkpt lat="59.076104164123535" lon="30.00666618347168">
        <time>2026-04-25T10:48:37Z</time>
      </trkpt>
      <trkpt lat="59.07623291015625" lon="30.006644725799561">
        <time>2026-04-25T10:48:39Z</time>
      </trkpt>
      <trkpt lat="59.076297283172607" lon="30.006623268127441">
        <time>2026-04-25T10:48:42Z</time>
      </trkpt>
      <trkpt lat="59.076340198516846" lon="30.006537437438965">
        <time>2026-04-25T10:48:44Z</time>
      </trkpt>
      <trkpt lat="59.076340198516846" lon="30.006430149078369">
        <time>2026-04-25T10:48:47Z</time>
      </trkpt>
      <trkpt lat="59.076318740844727" lon="30.006365776062012">
        <time>2026-04-25T10:48:49Z</time>
      </trkpt>
      <trkpt lat="59.076340198516846" lon="30.006451606750488">
        <time>2026-04-25T10:48:52Z</time>
      </trkpt>
      <trkpt lat="59.076340198516846" lon="30.006601810455322">
        <time>2026-04-25T10:48:54Z</time>
      </trkpt>
      <trkpt lat="59.076297283172607" lon="30.006687641143799">
        <time>2026-04-25T10:48:57Z</time>
      </trkpt>
      <trkpt lat="59.076297283172607" lon="30.006687641143799">
        <time>2026-04-25T10:48:59Z</time>
      </trkpt>
      <trkpt lat="59.076318740844727" lon="30.006644725799561">
        <time>2026-04-25T10:49:02Z</time>
      </trkpt>
      <trkpt lat="59.076340198516846" lon="30.006451606750488">
        <time>2026-04-25T10:49:04Z</time>
      </trkpt>
      <trkpt lat="59.076340198516846" lon="30.006279945373535">
        <time>2026-04-25T10:49:07Z</time>
      </trkpt>
      <trkpt lat="59.076340198516846" lon="30.006301403045654">
        <time>2026-04-25T10:49:09Z</time>
      </trkpt>
      <trkpt lat="59.076361656188965" lon="30.006430149078369">
        <time>2026-04-25T10:49:12Z</time>
      </trkpt>
      <trkpt lat="59.076361656188965" lon="30.006644725799561">
        <time>2026-04-25T10:49:14Z</time>
      </trkpt>
      <trkpt lat="59.076318740844727" lon="30.006773471832275">
        <time>2026-04-25T10:49:17Z</time>
      </trkpt>
      <trkpt lat="59.076297283172607" lon="30.006816387176514">
        <time>2026-04-25T10:49:19Z</time>
      </trkpt>
      <trkpt lat="59.076318740844727" lon="30.006730556488037">
        <time>2026-04-25T10:49:22Z</time>
      </trkpt>
      <trkpt lat="59.076361656188965" lon="30.006494522094727">
        <time>2026-04-25T10:49:24Z</time>
      </trkpt>
      <trkpt lat="59.076340198516846" lon="30.006344318389893">
        <time>2026-04-25T10:49:27Z</time>
      </trkpt>
      <trkpt lat="59.076297283172607" lon="30.006322860717773">
        <time>2026-04-25T10:49:29Z</time>
      </trkpt>
      <trkpt lat="59.076318740844727" lon="30.006322860717773">
        <time>2026-04-25T10:49:32Z</time>
      </trkpt>
      <trkpt lat="59.076361656188965" lon="30.006473064422607">
        <time>2026-04-25T10:49:34Z</time>
      </trkpt>
      <trkpt lat="59.076361656188965" lon="30.006623268127441">
        <time>2026-04-25T10:49:37Z</time>
      </trkpt>
      <trkpt lat="59.076318740844727" lon="30.006837844848633">
        <time>2026-04-25T10:49:39Z</time>
      </trkpt>
      <trkpt lat="59.076275825500488" lon="30.006923675537109">
        <time>2026-04-25T10:49:42Z</time>
      </trkpt>
      <trkpt lat="59.076275825500488" lon="30.006923675537109">
        <time>2026-04-25T10:49:44Z</time>
      </trkpt>
      <trkpt lat="59.076254367828369" lon="30.006837844848633">
        <time>2026-04-25T10:49:47Z</time>
      </trkpt>
      <trkpt lat="59.076254367828369" lon="30.006794929504395">
        <time>2026-04-25T10:49:49Z</time>
      </trkpt>
      <trkpt lat="59.076254367828369" lon="30.006794929504395">
        <time>2026-04-25T10:49:52Z</time>
      </trkpt>
      <trkpt lat="59.07623291015625" lon="30.006752014160156">
        <time>2026-04-25T10:49:54Z</time>
      </trkpt>
      <trkpt lat="59.076254367828369" lon="30.006880760192871">
        <time>2026-04-25T10:49:57Z</time>
      </trkpt>
      <trkpt lat="59.076297283172607" lon="30.00690221786499">
        <time>2026-04-25T10:49:59Z</time>
      </trkpt>
      <trkpt lat="59.076340198516846" lon="30.006794929504395">
        <time>2026-04-25T10:50:02Z</time>
      </trkpt>
      <trkpt lat="59.076340198516846" lon="30.006773471832275">
        <time>2026-04-25T10:50:04Z</time>
      </trkpt>
      <trkpt lat="59.076340198516846" lon="30.006773471832275">
        <time>2026-04-25T10:50:07Z</time>
      </trkpt>
      <trkpt lat="59.076297283172607" lon="30.00690221786499">
        <time>2026-04-25T10:50:09Z</time>
      </trkpt>
      <trkpt lat="59.07623291015625" lon="30.006988048553467">
        <time>2026-04-25T10:50:12Z</time>
      </trkpt>
      <trkpt lat="59.076254367828369" lon="30.006923675537109">
        <time>2026-04-25T10:50:17Z</time>
      </trkpt>
      <trkpt lat="59.076147079467773" lon="30.006837844848633">
        <time>2026-04-25T10:50:19Z</time>
      </trkpt>
      <trkpt lat="59.076104164123535" lon="30.006837844848633">
        <time>2026-04-25T10:50:22Z</time>
      </trkpt>
      <trkpt lat="59.076104164123535" lon="30.006837844848633">
        <time>2026-04-25T10:50:24Z</time>
      </trkpt>
      <trkpt lat="59.076082706451416" lon="30.006794929504395">
        <time>2026-04-25T10:50:27Z</time>
      </trkpt>
      <trkpt lat="59.076082706451416" lon="30.006623268127441">
        <time>2026-04-25T10:50:29Z</time>
      </trkpt>
      <trkpt lat="59.076104164123535" lon="30.006494522094727">
        <time>2026-04-25T10:50:32Z</time>
      </trkpt>
      <trkpt lat="59.076082706451416" lon="30.006430149078369">
        <time>2026-04-25T10:50:34Z</time>
      </trkpt>
      <trkpt lat="59.076061248779297" lon="30.006365776062012">
        <time>2026-04-25T10:50:37Z</time>
      </trkpt>
      <trkpt lat="59.076061248779297" lon="30.006237030029297">
        <time>2026-04-25T10:50:39Z</time>
      </trkpt>
      <trkpt lat="59.076061248779297" lon="30.00615119934082">
        <time>2026-04-25T10:50:42Z</time>
      </trkpt>
      <trkpt lat="59.076061248779297" lon="30.006000995635986">
        <time>2026-04-25T10:50:44Z</time>
      </trkpt>
      <trkpt lat="59.076061248779297" lon="30.00591516494751">
        <time>2026-04-25T10:50:47Z</time>
      </trkpt>
      <trkpt lat="59.076039791107178" lon="30.005829334259033">
        <time>2026-04-25T10:50:49Z</time>
      </trkpt>
      <trkpt lat="59.076018333435059" lon="30.005786418914795">
        <time>2026-04-25T10:50:52Z</time>
      </trkpt>
      <trkpt lat="59.075996875762939" lon="30.005700588226318">
        <time>2026-04-25T10:50:54Z</time>
      </trkpt>
      <trkpt lat="59.076018333435059" lon="30.00565767288208">
        <time>2026-04-25T10:50:57Z</time>
      </trkpt>
      <trkpt lat="59.07597541809082" lon="30.005593299865723">
        <time>2026-04-25T10:50:59Z</time>
      </trkpt>
      <trkpt lat="59.07597541809082" lon="30.005571842193604">
        <time>2026-04-25T10:51:02Z</time>
      </trkpt>
      <trkpt lat="59.075953960418701" lon="30.005528926849365">
        <time>2026-04-25T10:51:04Z</time>
      </trkpt>
      <trkpt lat="59.075953960418701" lon="30.005528926849365">
        <time>2026-04-25T10:51:07Z</time>
      </trkpt>
      <trkpt lat="59.075953960418701" lon="30.005528926849365">
        <time>2026-04-25T10:51:09Z</time>
      </trkpt>
      <trkpt lat="59.075953960418701" lon="30.005507469177246">
        <time>2026-04-25T10:51:12Z</time>
      </trkpt>
      <trkpt lat="59.07597541809082" lon="30.005443096160889">
        <time>2026-04-25T10:51:14Z</time>
      </trkpt>
      <trkpt lat="59.07597541809082" lon="30.00542163848877">
        <time>2026-04-25T10:51:17Z</time>
      </trkpt>
      <trkpt lat="59.07597541809082" lon="30.005335807800293">
        <time>2026-04-25T10:51:19Z</time>
      </trkpt>
      <trkpt lat="59.07597541809082" lon="30.005335807800293">
        <time>2026-04-25T10:51:22Z</time>
      </trkpt>
      <trkpt lat="59.07597541809082" lon="30.005292892456055">
        <time>2026-04-25T10:51:24Z</time>
      </trkpt>
      <trkpt lat="59.075996875762939" lon="30.005314350128174">
        <time>2026-04-25T10:51:27Z</time>
      </trkpt>
      <trkpt lat="59.07597541809082" lon="30.005335807800293">
        <time>2026-04-25T10:51:29Z</time>
      </trkpt>
      <trkpt lat="59.07597541809082" lon="30.005335807800293">
        <time>2026-04-25T10:51:32Z</time>
      </trkpt>
      <trkpt lat="59.07597541809082" lon="30.005335807800293">
        <time>2026-04-25T10:51:34Z</time>
      </trkpt>
      <trkpt lat="59.07597541809082" lon="30.005335807800293">
        <time>2026-04-25T10:51:37Z</time>
      </trkpt>
      <trkpt lat="59.075953960418701" lon="30.005335807800293">
        <time>2026-04-25T10:51:39Z</time>
      </trkpt>
      <trkpt lat="59.075953960418701" lon="30.005314350128174">
        <time>2026-04-25T10:51:42Z</time>
      </trkpt>
      <trkpt lat="59.075932502746582" lon="30.005249977111816">
        <time>2026-04-25T10:51:44Z</time>
      </trkpt>
      <trkpt lat="59.075932502746582" lon="30.005228519439697">
        <time>2026-04-25T10:51:47Z</time>
      </trkpt>
      <trkpt lat="59.075953960418701" lon="30.005185604095459">
        <time>2026-04-25T10:51:49Z</time>
      </trkpt>
      <trkpt lat="59.07597541809082" lon="30.005121231079102">
        <time>2026-04-25T10:51:52Z</time>
      </trkpt>
      <trkpt lat="59.076018333435059" lon="30.005035400390625">
        <time>2026-04-25T10:51:54Z</time>
      </trkpt>
      <trkpt lat="59.076018333435059" lon="30.005013942718506">
        <time>2026-04-25T10:51:57Z</time>
      </trkpt>
      <trkpt lat="59.076039791107178" lon="30.004949569702148">
        <time>2026-04-25T10:51:59Z</time>
      </trkpt>
      <trkpt lat="59.076018333435059" lon="30.004928112030029">
        <time>2026-04-25T10:52:02Z</time>
      </trkpt>
      <trkpt lat="59.076018333435059" lon="30.004928112030029">
        <time>2026-04-25T10:52:04Z</time>
      </trkpt>
      <trkpt lat="59.076018333435059" lon="30.004863739013672">
        <time>2026-04-25T10:52:07Z</time>
      </trkpt>
      <trkpt lat="59.076018333435059" lon="30.004777908325195">
        <time>2026-04-25T10:52:09Z</time>
      </trkpt>
      <trkpt lat="59.076018333435059" lon="30.004734992980957">
        <time>2026-04-25T10:52:12Z</time>
      </trkpt>
      <trkpt lat="59.075996875762939" lon="30.004692077636719">
        <time>2026-04-25T10:52:14Z</time>
      </trkpt>
      <trkpt lat="59.075996875762939" lon="30.004692077636719">
        <time>2026-04-25T10:52:17Z</time>
      </trkpt>
      <trkpt lat="59.07597541809082" lon="30.0046706199646">
        <time>2026-04-25T10:52:19Z</time>
      </trkpt>
      <trkpt lat="59.07597541809082" lon="30.0046706199646">
        <time>2026-04-25T10:52:22Z</time>
      </trkpt>
      <trkpt lat="59.07597541809082" lon="30.0046706199646">
        <time>2026-04-25T10:52:24Z</time>
      </trkpt>
      <trkpt lat="59.07597541809082" lon="30.00464916229248">
        <time>2026-04-25T10:52:27Z</time>
      </trkpt>
      <trkpt lat="59.075996875762939" lon="30.004606246948242">
        <time>2026-04-25T10:52:29Z</time>
      </trkpt>
      <trkpt lat="59.075996875762939" lon="30.004584789276123">
        <time>2026-04-25T10:52:32Z</time>
      </trkpt>
      <trkpt lat="59.075996875762939" lon="30.004584789276123">
        <time>2026-04-25T10:52:34Z</time>
      </trkpt>
      <trkpt lat="59.075996875762939" lon="30.004584789276123">
        <time>2026-04-25T10:52:37Z</time>
      </trkpt>
      <trkpt lat="59.075996875762939" lon="30.004584789276123">
        <time>2026-04-25T10:52:39Z</time>
      </trkpt>
      <trkpt lat="59.07597541809082" lon="30.004563331604004">
        <time>2026-04-25T10:52:42Z</time>
      </trkpt>
      <trkpt lat="59.07597541809082" lon="30.004563331604004">
        <time>2026-04-25T10:52:44Z</time>
      </trkpt>
      <trkpt lat="59.07597541809082" lon="30.004563331604004">
        <time>2026-04-25T10:52:47Z</time>
      </trkpt>
      <trkpt lat="59.07597541809082" lon="30.004584789276123">
        <time>2026-04-25T10:52:49Z</time>
      </trkpt>
      <trkpt lat="59.075953960418701" lon="30.004584789276123">
        <time>2026-04-25T10:52:52Z</time>
      </trkpt>
      <trkpt lat="59.075932502746582" lon="30.004563331604004">
        <time>2026-04-25T10:52:54Z</time>
      </trkpt>
      <trkpt lat="59.075932502746582" lon="30.004584789276123">
        <time>2026-04-25T10:52:57Z</time>
      </trkpt>
      <trkpt lat="59.075889587402344" lon="30.004627704620361">
        <time>2026-04-25T10:52:59Z</time>
      </trkpt>
      <trkpt lat="59.075868129730225" lon="30.00464916229248">
        <time>2026-04-25T10:53:02Z</time>
      </trkpt>
      <trkpt lat="59.075868129730225" lon="30.0046706199646">
        <time>2026-04-25T10:53:04Z</time>
      </trkpt>
      <trkpt lat="59.075868129730225" lon="30.0046706199646">
        <time>2026-04-25T10:53:07Z</time>
      </trkpt>
      <trkpt lat="59.075846672058105" lon="30.0046706199646">
        <time>2026-04-25T10:53:09Z</time>
      </trkpt>
      <trkpt lat="59.075846672058105" lon="30.004627704620361">
        <time>2026-04-25T10:53:12Z</time>
      </trkpt>
      <trkpt lat="59.075825214385986" lon="30.004606246948242">
        <time>2026-04-25T10:53:14Z</time>
      </trkpt>
      <trkpt lat="59.075803756713867" lon="30.004584789276123">
        <time>2026-04-25T10:53:17Z</time>
      </trkpt>
      <trkpt lat="59.075803756713867" lon="30.004498958587646">
        <time>2026-04-25T10:53:19Z</time>
      </trkpt>
      <trkpt lat="59.075782299041748" lon="30.004477500915527">
        <time>2026-04-25T10:53:22Z</time>
      </trkpt>
      <trkpt lat="59.075760841369629" lon="30.00441312789917">
        <time>2026-04-25T10:53:24Z</time>
      </trkpt>
      <trkpt lat="59.075760841369629" lon="30.00441312789917">
        <time>2026-04-25T10:53:27Z</time>
      </trkpt>
      <trkpt lat="59.075760841369629" lon="30.00441312789917">
        <time>2026-04-25T10:53:29Z</time>
      </trkpt>
      <trkpt lat="59.075760841369629" lon="30.004370212554932">
        <time>2026-04-25T10:53:32Z</time>
      </trkpt>
      <trkpt lat="59.075760841369629" lon="30.004348754882813">
        <time>2026-04-25T10:53:34Z</time>
      </trkpt>
      <trkpt lat="59.075760841369629" lon="30.004348754882813">
        <time>2026-04-25T10:53:37Z</time>
      </trkpt>
      <trkpt lat="59.075760841369629" lon="30.004348754882813">
        <time>2026-04-25T10:53:39Z</time>
      </trkpt>
      <trkpt lat="59.075760841369629" lon="30.004348754882813">
        <time>2026-04-25T10:53:42Z</time>
      </trkpt>
      <trkpt lat="59.075760841369629" lon="30.004348754882813">
        <time>2026-04-25T10:53:44Z</time>
      </trkpt>
      <trkpt lat="59.075760841369629" lon="30.004348754882813">
        <time>2026-04-25T10:53:47Z</time>
      </trkpt>
      <trkpt lat="59.075760841369629" lon="30.004348754882813">
        <time>2026-04-25T10:53:49Z</time>
      </trkpt>
      <trkpt lat="59.075760841369629" lon="30.004370212554932">
        <time>2026-04-25T10:53:52Z</time>
      </trkpt>
      <trkpt lat="59.075760841369629" lon="30.00441312789917">
        <time>2026-04-25T10:53:54Z</time>
      </trkpt>
      <trkpt lat="59.075760841369629" lon="30.004434585571289">
        <time>2026-04-25T10:53:57Z</time>
      </trkpt>
      <trkpt lat="59.07573938369751" lon="30.004434585571289">
        <time>2026-04-25T10:53:59Z</time>
      </trkpt>
      <trkpt lat="59.075717926025391" lon="30.004434585571289">
        <time>2026-04-25T10:54:02Z</time>
      </trkpt>
      <trkpt lat="59.075675010681152" lon="30.004434585571289">
        <time>2026-04-25T10:54:04Z</time>
      </trkpt>
      <trkpt lat="59.075696468353271" lon="30.004434585571289">
        <time>2026-04-25T10:54:07Z</time>
      </trkpt>
      <trkpt lat="59.075675010681152" lon="30.004434585571289">
        <time>2026-04-25T10:54:09Z</time>
      </trkpt>
      <trkpt lat="59.075653553009033" lon="30.004434585571289">
        <time>2026-04-25T10:54:12Z</time>
      </trkpt>
      <trkpt lat="59.075653553009033" lon="30.004434585571289">
        <time>2026-04-25T10:54:14Z</time>
      </trkpt>
      <trkpt lat="59.075653553009033" lon="30.004477500915527">
        <time>2026-04-25T10:54:17Z</time>
      </trkpt>
      <trkpt lat="59.075632095336914" lon="30.004498958587646">
        <time>2026-04-25T10:54:19Z</time>
      </trkpt>
      <trkpt lat="59.075589179992676" lon="30.004563331604004">
        <time>2026-04-25T10:54:24Z</time>
      </trkpt>
      <trkpt lat="59.075567722320557" lon="30.004563331604004">
        <time>2026-04-25T10:54:27Z</time>
      </trkpt>
      <trkpt lat="59.075546264648438" lon="30.004563331604004">
        <time>2026-04-25T10:54:29Z</time>
      </trkpt>
      <trkpt lat="59.075524806976318" lon="30.004541873931885">
        <time>2026-04-25T10:54:32Z</time>
      </trkpt>
      <trkpt lat="59.075524806976318" lon="30.004520416259766">
        <time>2026-04-25T10:54:34Z</time>
      </trkpt>
      <trkpt lat="59.075546264648438" lon="30.004563331604004">
        <time>2026-04-25T10:54:37Z</time>
      </trkpt>
      <trkpt lat="59.075589179992676" lon="30.004541873931885">
        <time>2026-04-25T10:54:39Z</time>
      </trkpt>
      <trkpt lat="59.075610637664795" lon="30.004477500915527">
        <time>2026-04-25T10:54:42Z</time>
      </trkpt>
      <trkpt lat="59.075632095336914" lon="30.004434585571289">
        <time>2026-04-25T10:54:44Z</time>
      </trkpt>
      <trkpt lat="59.075610637664795" lon="30.004434585571289">
        <time>2026-04-25T10:54:47Z</time>
      </trkpt>
      <trkpt lat="59.075589179992676" lon="30.004434585571289">
        <time>2026-04-25T10:54:49Z</time>
      </trkpt>
      <trkpt lat="59.075589179992676" lon="30.004434585571289">
        <time>2026-04-25T10:54:52Z</time>
      </trkpt>
      <trkpt lat="59.075632095336914" lon="30.004434585571289">
        <time>2026-04-25T10:54:54Z</time>
      </trkpt>
      <trkpt lat="59.075632095336914" lon="30.004370212554932">
        <time>2026-04-25T10:54:57Z</time>
      </trkpt>
      <trkpt lat="59.075653553009033" lon="30.004391670227051">
        <time>2026-04-25T10:54:59Z</time>
      </trkpt>
      <trkpt lat="59.075653553009033" lon="30.004434585571289">
        <time>2026-04-25T10:55:02Z</time>
      </trkpt>
      <trkpt lat="59.075610637664795" lon="30.004541873931885">
        <time>2026-04-25T10:55:04Z</time>
      </trkpt>
      <trkpt lat="59.075546264648438" lon="30.004563331604004">
        <time>2026-04-25T10:55:07Z</time>
      </trkpt>
      <trkpt lat="59.075524806976318" lon="30.004563331604004">
        <time>2026-04-25T10:55:09Z</time>
      </trkpt>
      <trkpt lat="59.075546264648438" lon="30.004563331604004">
        <time>2026-04-25T10:55:12Z</time>
      </trkpt>
      <trkpt lat="59.075589179992676" lon="30.004541873931885">
        <time>2026-04-25T10:55:14Z</time>
      </trkpt>
      <trkpt lat="59.075610637664795" lon="30.004498958587646">
        <time>2026-04-25T10:55:17Z</time>
      </trkpt>
      <trkpt lat="59.075653553009033" lon="30.004391670227051">
        <time>2026-04-25T10:55:19Z</time>
      </trkpt>
      <trkpt lat="59.075632095336914" lon="30.004348754882813">
        <time>2026-04-25T10:55:22Z</time>
      </trkpt>
      <trkpt lat="59.075610637664795" lon="30.004305839538574">
        <time>2026-04-25T10:55:24Z</time>
      </trkpt>
      <trkpt lat="59.075610637664795" lon="30.004305839538574">
        <time>2026-04-25T10:55:27Z</time>
      </trkpt>
      <trkpt lat="59.075632095336914" lon="30.004391670227051">
        <time>2026-04-25T10:55:29Z</time>
      </trkpt>
      <trkpt lat="59.075632095336914" lon="30.004477500915527">
        <time>2026-04-25T10:55:32Z</time>
      </trkpt>
      <trkpt lat="59.075610637664795" lon="30.004563331604004">
        <time>2026-04-25T10:55:34Z</time>
      </trkpt>
      <trkpt lat="59.075610637664795" lon="30.004606246948242">
        <time>2026-04-25T10:55:37Z</time>
      </trkpt>
      <trkpt lat="59.075589179992676" lon="30.00464916229248">
        <time>2026-04-25T10:55:39Z</time>
      </trkpt>
      <trkpt lat="59.075589179992676" lon="30.00464916229248">
        <time>2026-04-25T10:55:42Z</time>
      </trkpt>
      <trkpt lat="59.075524806976318" lon="30.00464916229248">
        <time>2026-04-25T10:55:44Z</time>
      </trkpt>
      <trkpt lat="59.075503349304199" lon="30.0046706199646">
        <time>2026-04-25T10:55:47Z</time>
      </trkpt>
      <trkpt lat="59.075503349304199" lon="30.004692077636719">
        <time>2026-04-25T10:55:49Z</time>
      </trkpt>
      <trkpt lat="59.075503349304199" lon="30.004692077636719">
        <time>2026-04-25T10:55:52Z</time>
      </trkpt>
      <trkpt lat="59.075503349304199" lon="30.004692077636719">
        <time>2026-04-25T10:55:54Z</time>
      </trkpt>
      <trkpt lat="59.075503349304199" lon="30.004692077636719">
        <time>2026-04-25T10:55:57Z</time>
      </trkpt>
      <trkpt lat="59.075503349304199" lon="30.004692077636719">
        <time>2026-04-25T10:55:59Z</time>
      </trkpt>
      <trkpt lat="59.075503349304199" lon="30.004692077636719">
        <time>2026-04-25T10:56:02Z</time>
      </trkpt>
      <trkpt lat="59.075503349304199" lon="30.004692077636719">
        <time>2026-04-25T10:56:04Z</time>
      </trkpt>
      <trkpt lat="59.075503349304199" lon="30.004692077636719">
        <time>2026-04-25T10:56:07Z</time>
      </trkpt>
      <trkpt lat="59.075503349304199" lon="30.004692077636719">
        <time>2026-04-25T10:56:09Z</time>
      </trkpt>
      <trkpt lat="59.075503349304199" lon="30.004692077636719">
        <time>2026-04-25T10:56:12Z</time>
      </trkpt>
      <trkpt lat="59.075503349304199" lon="30.004692077636719">
        <time>2026-04-25T10:56:14Z</time>
      </trkpt>
      <trkpt lat="59.075503349304199" lon="30.004692077636719">
        <time>2026-04-25T10:56:17Z</time>
      </trkpt>
      <trkpt lat="59.075503349304199" lon="30.004692077636719">
        <time>2026-04-25T10:56:19Z</time>
      </trkpt>
      <trkpt lat="59.075503349304199" lon="30.004692077636719">
        <time>2026-04-25T10:56:22Z</time>
      </trkpt>
      <trkpt lat="59.075503349304199" lon="30.004692077636719">
        <time>2026-04-25T10:56:24Z</time>
      </trkpt>
      <trkpt lat="59.075503349304199" lon="30.004692077636719">
        <time>2026-04-25T10:56:27Z</time>
      </trkpt>
      <trkpt lat="59.075546264648438" lon="30.00464916229248">
        <time>2026-04-25T10:56:29Z</time>
      </trkpt>
      <trkpt lat="59.075567722320557" lon="30.00464916229248">
        <time>2026-04-25T10:56:32Z</time>
      </trkpt>
      <trkpt lat="59.075546264648438" lon="30.00464916229248">
        <time>2026-04-25T10:56:34Z</time>
      </trkpt>
      <trkpt lat="59.075524806976318" lon="30.004627704620361">
        <time>2026-04-25T10:56:37Z</time>
      </trkpt>
      <trkpt lat="59.075524806976318" lon="30.00464916229248">
        <time>2026-04-25T10:56:39Z</time>
      </trkpt>
      <trkpt lat="59.07548189163208" lon="30.0046706199646">
        <time>2026-04-25T10:56:42Z</time>
      </trkpt>
      <trkpt lat="59.075438976287842" lon="30.0046706199646">
        <time>2026-04-25T10:56:44Z</time>
      </trkpt>
      <trkpt lat="59.075438976287842" lon="30.0046706199646">
        <time>2026-04-25T10:56:47Z</time>
      </trkpt>
      <trkpt lat="59.075374603271484" lon="30.0046706199646">
        <time>2026-04-25T10:56:49Z</time>
      </trkpt>
      <trkpt lat="59.075396060943604" lon="30.0046706199646">
        <time>2026-04-25T10:56:52Z</time>
      </trkpt>
      <trkpt lat="59.075460433959961" lon="30.004692077636719">
        <time>2026-04-25T10:56:54Z</time>
      </trkpt>
      <trkpt lat="59.075503349304199" lon="30.0046706199646">
        <time>2026-04-25T10:56:57Z</time>
      </trkpt>
      <trkpt lat="59.075589179992676" lon="30.00464916229248">
        <time>2026-04-25T10:57:02Z</time>
      </trkpt>
      <trkpt lat="59.075632095336914" lon="30.004713535308838">
        <time>2026-04-25T10:57:04Z</time>
      </trkpt>
      <trkpt lat="59.075653553009033" lon="30.004799365997314">
        <time>2026-04-25T10:57:07Z</time>
      </trkpt>
      <trkpt lat="59.075632095336914" lon="30.00490665435791">
        <time>2026-04-25T10:57:09Z</time>
      </trkpt>
      <trkpt lat="59.075632095336914" lon="30.00490665435791">
        <time>2026-04-25T10:57:12Z</time>
      </trkpt>
      <trkpt lat="59.075632095336914" lon="30.00490665435791">
        <time>2026-04-25T10:57:14Z</time>
      </trkpt>
      <trkpt lat="59.075653553009033" lon="30.004949569702148">
        <time>2026-04-25T10:57:17Z</time>
      </trkpt>
      <trkpt lat="59.075653553009033" lon="30.005056858062744">
        <time>2026-04-25T10:57:19Z</time>
      </trkpt>
      <trkpt lat="59.075632095336914" lon="30.005121231079102">
        <time>2026-04-25T10:57:22Z</time>
      </trkpt>
      <trkpt lat="59.075632095336914" lon="30.005185604095459">
        <time>2026-04-25T10:57:24Z</time>
      </trkpt>
      <trkpt lat="59.075632095336914" lon="30.005185604095459">
        <time>2026-04-25T10:57:27Z</time>
      </trkpt>
      <trkpt lat="59.075632095336914" lon="30.005185604095459">
        <time>2026-04-25T10:57:29Z</time>
      </trkpt>
      <trkpt lat="59.075610637664795" lon="30.005207061767578">
        <time>2026-04-25T10:57:32Z</time>
      </trkpt>
      <trkpt lat="59.075632095336914" lon="30.005314350128174">
        <time>2026-04-25T10:57:34Z</time>
      </trkpt>
      <trkpt lat="59.075632095336914" lon="30.005357265472412">
        <time>2026-04-25T10:57:37Z</time>
      </trkpt>
      <trkpt lat="59.075632095336914" lon="30.00540018081665">
        <time>2026-04-25T10:57:39Z</time>
      </trkpt>
      <trkpt lat="59.075610637664795" lon="30.00542163848877">
        <time>2026-04-25T10:57:42Z</time>
      </trkpt>
      <trkpt lat="59.075610637664795" lon="30.005486011505127">
        <time>2026-04-25T10:57:44Z</time>
      </trkpt>
      <trkpt lat="59.075632095336914" lon="30.005528926849365">
        <time>2026-04-25T10:57:47Z</time>
      </trkpt>
      <trkpt lat="59.075632095336914" lon="30.005593299865723">
        <time>2026-04-25T10:57:49Z</time>
      </trkpt>
      <trkpt lat="59.075632095336914" lon="30.00565767288208">
        <time>2026-04-25T10:57:52Z</time>
      </trkpt>
      <trkpt lat="59.075632095336914" lon="30.00565767288208">
        <time>2026-04-25T10:57:54Z</time>
      </trkpt>
      <trkpt lat="59.075632095336914" lon="30.00565767288208">
        <time>2026-04-25T10:57:57Z</time>
      </trkpt>
      <trkpt lat="59.075632095336914" lon="30.00565767288208">
        <time>2026-04-25T10:57:59Z</time>
      </trkpt>
      <trkpt lat="59.075632095336914" lon="30.00565767288208">
        <time>2026-04-25T10:58:02Z</time>
      </trkpt>
      <trkpt lat="59.075632095336914" lon="30.00565767288208">
        <time>2026-04-25T10:58:04Z</time>
      </trkpt>
      <trkpt lat="59.075632095336914" lon="30.00565767288208">
        <time>2026-04-25T10:58:07Z</time>
      </trkpt>
      <trkpt lat="59.075632095336914" lon="30.005636215209961">
        <time>2026-04-25T10:58:09Z</time>
      </trkpt>
      <trkpt lat="59.075632095336914" lon="30.005593299865723">
        <time>2026-04-25T10:58:12Z</time>
      </trkpt>
      <trkpt lat="59.075632095336914" lon="30.005550384521484">
        <time>2026-04-25T10:58:14Z</time>
      </trkpt>
      <trkpt lat="59.075632095336914" lon="30.005550384521484">
        <time>2026-04-25T10:58:17Z</time>
      </trkpt>
      <trkpt lat="59.075632095336914" lon="30.005550384521484">
        <time>2026-04-25T10:58:19Z</time>
      </trkpt>
      <trkpt lat="59.075632095336914" lon="30.005571842193604">
        <time>2026-04-25T10:58:22Z</time>
      </trkpt>
      <trkpt lat="59.075632095336914" lon="30.005679130554199">
        <time>2026-04-25T10:58:24Z</time>
      </trkpt>
      <trkpt lat="59.075610637664795" lon="30.005722045898438">
        <time>2026-04-25T10:58:27Z</time>
      </trkpt>
      <trkpt lat="59.075589179992676" lon="30.005829334259033">
        <time>2026-04-25T10:58:29Z</time>
      </trkpt>
      <trkpt lat="59.075589179992676" lon="30.005872249603271">
        <time>2026-04-25T10:58:32Z</time>
      </trkpt>
      <trkpt lat="59.075610637664795" lon="30.005936622619629">
        <time>2026-04-25T10:58:34Z</time>
      </trkpt>
      <trkpt lat="59.075589179992676" lon="30.005979537963867">
        <time>2026-04-25T10:58:37Z</time>
      </trkpt>
      <trkpt lat="59.075589179992676" lon="30.006022453308105">
        <time>2026-04-25T10:58:39Z</time>
      </trkpt>
      <trkpt lat="59.075589179992676" lon="30.006022453308105">
        <time>2026-04-25T10:58:42Z</time>
      </trkpt>
      <trkpt lat="59.075589179992676" lon="30.006022453308105">
        <time>2026-04-25T10:58:44Z</time>
      </trkpt>
      <trkpt lat="59.075610637664795" lon="30.006086826324463">
        <time>2026-04-25T10:58:47Z</time>
      </trkpt>
      <trkpt lat="59.075632095336914" lon="30.006108283996582">
        <time>2026-04-25T10:58:49Z</time>
      </trkpt>
      <trkpt lat="59.075632095336914" lon="30.006129741668701">
        <time>2026-04-25T10:58:52Z</time>
      </trkpt>
      <trkpt lat="59.075653553009033" lon="30.00615119934082">
        <time>2026-04-25T10:58:54Z</time>
      </trkpt>
      <trkpt lat="59.075653553009033" lon="30.006194114685059">
        <time>2026-04-25T10:58:57Z</time>
      </trkpt>
      <trkpt lat="59.075696468353271" lon="30.006237030029297">
        <time>2026-04-25T10:58:59Z</time>
      </trkpt>
      <trkpt lat="59.075717926025391" lon="30.006301403045654">
        <time>2026-04-25T10:59:02Z</time>
      </trkpt>
      <trkpt lat="59.07573938369751" lon="30.006365776062012">
        <time>2026-04-25T10:59:04Z</time>
      </trkpt>
      <trkpt lat="59.07573938369751" lon="30.006365776062012">
        <time>2026-04-25T10:59:07Z</time>
      </trkpt>
      <trkpt lat="59.075760841369629" lon="30.006365776062012">
        <time>2026-04-25T10:59:09Z</time>
      </trkpt>
      <trkpt lat="59.075782299041748" lon="30.00640869140625">
        <time>2026-04-25T10:59:12Z</time>
      </trkpt>
      <trkpt lat="59.075782299041748" lon="30.006430149078369">
        <time>2026-04-25T10:59:14Z</time>
      </trkpt>
      <trkpt lat="59.075803756713867" lon="30.006494522094727">
        <time>2026-04-25T10:59:17Z</time>
      </trkpt>
      <trkpt lat="59.075803756713867" lon="30.006558895111084">
        <time>2026-04-25T10:59:19Z</time>
      </trkpt>
      <trkpt lat="59.075803756713867" lon="30.006601810455322">
        <time>2026-04-25T10:59:22Z</time>
      </trkpt>
      <trkpt lat="59.075803756713867" lon="30.006580352783203">
        <time>2026-04-25T10:59:24Z</time>
      </trkpt>
      <trkpt lat="59.075782299041748" lon="30.006473064422607">
        <time>2026-04-25T10:59:27Z</time>
      </trkpt>
      <trkpt lat="59.075717926025391" lon="30.006279945373535">
        <time>2026-04-25T10:59:29Z</time>
      </trkpt>
      <trkpt lat="59.075696468353271" lon="30.006237030029297">
        <time>2026-04-25T10:59:32Z</time>
      </trkpt>
      <trkpt lat="59.075675010681152" lon="30.006237030029297">
        <time>2026-04-25T10:59:34Z</time>
      </trkpt>
      <trkpt lat="59.075675010681152" lon="30.006194114685059">
        <time>2026-04-25T10:59:37Z</time>
      </trkpt>
      <trkpt lat="59.075675010681152" lon="30.006194114685059">
        <time>2026-04-25T10:59:39Z</time>
      </trkpt>
      <trkpt lat="59.075696468353271" lon="30.006258487701416">
        <time>2026-04-25T10:59:42Z</time>
      </trkpt>
      <trkpt lat="59.075760841369629" lon="30.006344318389893">
        <time>2026-04-25T10:59:44Z</time>
      </trkpt>
      <trkpt lat="59.075782299041748" lon="30.006430149078369">
        <time>2026-04-25T10:59:47Z</time>
      </trkpt>
      <trkpt lat="59.075782299041748" lon="30.006623268127441">
        <time>2026-04-25T10:59:49Z</time>
      </trkpt>
      <trkpt lat="59.075782299041748" lon="30.00666618347168">
        <time>2026-04-25T10:59:52Z</time>
      </trkpt>
      <trkpt lat="59.075782299041748" lon="30.00666618347168">
        <time>2026-04-25T10:59:54Z</time>
      </trkpt>
      <trkpt lat="59.075782299041748" lon="30.00666618347168">
        <time>2026-04-25T10:59:57Z</time>
      </trkpt>
      <trkpt lat="59.075782299041748" lon="30.00666618347168">
        <time>2026-04-25T10:59:59Z</time>
      </trkpt>
      <trkpt lat="59.075782299041748" lon="30.00666618347168">
        <time>2026-04-25T11:00:02Z</time>
      </trkpt>
      <trkpt lat="59.075782299041748" lon="30.00666618347168">
        <time>2026-04-25T11:00:04Z</time>
      </trkpt>
      <trkpt lat="59.075782299041748" lon="30.006709098815918">
        <time>2026-04-25T11:00:07Z</time>
      </trkpt>
      <trkpt lat="59.075782299041748" lon="30.006880760192871">
        <time>2026-04-25T11:00:09Z</time>
      </trkpt>
      <trkpt lat="59.075782299041748" lon="30.006880760192871">
        <time>2026-04-25T11:00:12Z</time>
      </trkpt>
      <trkpt lat="59.075782299041748" lon="30.006880760192871">
        <time>2026-04-25T11:00:14Z</time>
      </trkpt>
      <trkpt lat="59.075782299041748" lon="30.006880760192871">
        <time>2026-04-25T11:00:17Z</time>
      </trkpt>
      <trkpt lat="59.075782299041748" lon="30.006880760192871">
        <time>2026-04-25T11:00:19Z</time>
      </trkpt>
      <trkpt lat="59.075782299041748" lon="30.006880760192871">
        <time>2026-04-25T11:00:22Z</time>
      </trkpt>
      <trkpt lat="59.075782299041748" lon="30.006880760192871">
        <time>2026-04-25T11:00:24Z</time>
      </trkpt>
      <trkpt lat="59.075782299041748" lon="30.006880760192871">
        <time>2026-04-25T11:00:27Z</time>
      </trkpt>
      <trkpt lat="59.075782299041748" lon="30.006880760192871">
        <time>2026-04-25T11:00:29Z</time>
      </trkpt>
      <trkpt lat="59.075782299041748" lon="30.006880760192871">
        <time>2026-04-25T11:00:32Z</time>
      </trkpt>
      <trkpt lat="59.075782299041748" lon="30.006880760192871">
        <time>2026-04-25T11:00:34Z</time>
      </trkpt>
      <trkpt lat="59.075782299041748" lon="30.006880760192871">
        <time>2026-04-25T11:00:37Z</time>
      </trkpt>
      <trkpt lat="59.075782299041748" lon="30.006880760192871">
        <time>2026-04-25T11:00:39Z</time>
      </trkpt>
      <trkpt lat="59.075782299041748" lon="30.006880760192871">
        <time>2026-04-25T11:00:42Z</time>
      </trkpt>
      <trkpt lat="59.075782299041748" lon="30.006880760192871">
        <time>2026-04-25T11:00:44Z</time>
      </trkpt>
      <trkpt lat="59.075782299041748" lon="30.006880760192871">
        <time>2026-04-25T11:00:47Z</time>
      </trkpt>
      <trkpt lat="59.075782299041748" lon="30.006880760192871">
        <time>2026-04-25T11:00:49Z</time>
      </trkpt>
      <trkpt lat="59.075782299041748" lon="30.006880760192871">
        <time>2026-04-25T11:00:52Z</time>
      </trkpt>
      <trkpt lat="59.075782299041748" lon="30.006880760192871">
        <time>2026-04-25T11:00:54Z</time>
      </trkpt>
      <trkpt lat="59.075782299041748" lon="30.006880760192871">
        <time>2026-04-25T11:00:57Z</time>
      </trkpt>
      <trkpt lat="59.075782299041748" lon="30.006880760192871">
        <time>2026-04-25T11:00:59Z</time>
      </trkpt>
      <trkpt lat="59.075782299041748" lon="30.006880760192871">
        <time>2026-04-25T11:01:02Z</time>
      </trkpt>
      <trkpt lat="59.075782299041748" lon="30.006880760192871">
        <time>2026-04-25T11:01:04Z</time>
      </trkpt>
      <trkpt lat="59.075782299041748" lon="30.006880760192871">
        <time>2026-04-25T11:01:07Z</time>
      </trkpt>
      <trkpt lat="59.075782299041748" lon="30.006880760192871">
        <time>2026-04-25T11:01:09Z</time>
      </trkpt>
      <trkpt lat="59.075782299041748" lon="30.006880760192871">
        <time>2026-04-25T11:01:12Z</time>
      </trkpt>
      <trkpt lat="59.075782299041748" lon="30.006880760192871">
        <time>2026-04-25T11:01:14Z</time>
      </trkpt>
      <trkpt lat="59.075782299041748" lon="30.006880760192871">
        <time>2026-04-25T11:01:17Z</time>
      </trkpt>
      <trkpt lat="59.075782299041748" lon="30.006880760192871">
        <time>2026-04-25T11:01:19Z</time>
      </trkpt>
      <trkpt lat="59.075782299041748" lon="30.00690221786499">
        <time>2026-04-25T11:01:22Z</time>
      </trkpt>
      <trkpt lat="59.07573938369751" lon="30.006988048553467">
        <time>2026-04-25T11:01:24Z</time>
      </trkpt>
      <trkpt lat="59.075696468353271" lon="30.007009506225586">
        <time>2026-04-25T11:01:27Z</time>
      </trkpt>
      <trkpt lat="59.075696468353271" lon="30.007030963897705">
        <time>2026-04-25T11:01:29Z</time>
      </trkpt>
      <trkpt lat="59.075675010681152" lon="30.007052421569824">
        <time>2026-04-25T11:01:32Z</time>
      </trkpt>
      <trkpt lat="59.075632095336914" lon="30.007073879241943">
        <time>2026-04-25T11:01:34Z</time>
      </trkpt>
      <trkpt lat="59.075589179992676" lon="30.007095336914063">
        <time>2026-04-25T11:01:37Z</time>
      </trkpt>
      <trkpt lat="59.075567722320557" lon="30.007073879241943">
        <time>2026-04-25T11:01:39Z</time>
      </trkpt>
      <trkpt lat="59.075567722320557" lon="30.007073879241943">
        <time>2026-04-25T11:01:42Z</time>
      </trkpt>
      <trkpt lat="59.075546264648438" lon="30.007073879241943">
        <time>2026-04-25T11:01:44Z</time>
      </trkpt>
      <trkpt lat="59.075503349304199" lon="30.007052421569824">
        <time>2026-04-25T11:01:47Z</time>
      </trkpt>
      <trkpt lat="59.075503349304199" lon="30.007009506225586">
        <time>2026-04-25T11:01:49Z</time>
      </trkpt>
      <trkpt lat="59.075503349304199" lon="30.007009506225586">
        <time>2026-04-25T11:01:52Z</time>
      </trkpt>
      <trkpt lat="59.075503349304199" lon="30.007009506225586">
        <time>2026-04-25T11:01:54Z</time>
      </trkpt>
      <trkpt lat="59.075503349304199" lon="30.007030963897705">
        <time>2026-04-25T11:01:57Z</time>
      </trkpt>
      <trkpt lat="59.075503349304199" lon="30.007052421569824">
        <time>2026-04-25T11:01:59Z</time>
      </trkpt>
      <trkpt lat="59.07548189163208" lon="30.007052421569824">
        <time>2026-04-25T11:02:02Z</time>
      </trkpt>
      <trkpt lat="59.07548189163208" lon="30.007052421569824">
        <time>2026-04-25T11:02:04Z</time>
      </trkpt>
      <trkpt lat="59.07548189163208" lon="30.007052421569824">
        <time>2026-04-25T11:02:07Z</time>
      </trkpt>
      <trkpt lat="59.07548189163208" lon="30.007052421569824">
        <time>2026-04-25T11:02:09Z</time>
      </trkpt>
      <trkpt lat="59.07548189163208" lon="30.007052421569824">
        <time>2026-04-25T11:02:12Z</time>
      </trkpt>
      <trkpt lat="59.07548189163208" lon="30.007052421569824">
        <time>2026-04-25T11:02:14Z</time>
      </trkpt>
      <trkpt lat="59.07548189163208" lon="30.007052421569824">
        <time>2026-04-25T11:02:17Z</time>
      </trkpt>
      <trkpt lat="59.07548189163208" lon="30.007052421569824">
        <time>2026-04-25T11:02:19Z</time>
      </trkpt>
      <trkpt lat="59.07548189163208" lon="30.007052421569824">
        <time>2026-04-25T11:02:22Z</time>
      </trkpt>
      <trkpt lat="59.075460433959961" lon="30.007030963897705">
        <time>2026-04-25T11:02:24Z</time>
      </trkpt>
      <trkpt lat="59.07548189163208" lon="30.007052421569824">
        <time>2026-04-25T11:02:27Z</time>
      </trkpt>
      <trkpt lat="59.075524806976318" lon="30.007073879241943">
        <time>2026-04-25T11:02:29Z</time>
      </trkpt>
      <trkpt lat="59.075524806976318" lon="30.007052421569824">
        <time>2026-04-25T11:02:32Z</time>
      </trkpt>
      <trkpt lat="59.075460433959961" lon="30.006966590881348">
        <time>2026-04-25T11:02:34Z</time>
      </trkpt>
      <trkpt lat="59.075417518615723" lon="30.006945133209229">
        <time>2026-04-25T11:02:37Z</time>
      </trkpt>
      <trkpt lat="59.075417518615723" lon="30.006945133209229">
        <time>2026-04-25T11:02:39Z</time>
      </trkpt>
      <trkpt lat="59.075396060943604" lon="30.006923675537109">
        <time>2026-04-25T11:02:42Z</time>
      </trkpt>
      <trkpt lat="59.075374603271484" lon="30.006880760192871">
        <time>2026-04-25T11:02:44Z</time>
      </trkpt>
      <trkpt lat="59.075374603271484" lon="30.006880760192871">
        <time>2026-04-25T11:02:47Z</time>
      </trkpt>
      <trkpt lat="59.075396060943604" lon="30.006923675537109">
        <time>2026-04-25T11:02:49Z</time>
      </trkpt>
      <trkpt lat="59.075396060943604" lon="30.006923675537109">
        <time>2026-04-25T11:02:52Z</time>
      </trkpt>
      <trkpt lat="59.075396060943604" lon="30.006923675537109">
        <time>2026-04-25T11:02:54Z</time>
      </trkpt>
      <trkpt lat="59.075396060943604" lon="30.006923675537109">
        <time>2026-04-25T11:02:57Z</time>
      </trkpt>
      <trkpt lat="59.075353145599365" lon="30.006859302520752">
        <time>2026-04-25T11:02:59Z</time>
      </trkpt>
      <trkpt lat="59.075331687927246" lon="30.006816387176514">
        <time>2026-04-25T11:03:02Z</time>
      </trkpt>
      <trkpt lat="59.075288772583008" lon="30.006752014160156">
        <time>2026-04-25T11:03:04Z</time>
      </trkpt>
      <trkpt lat="59.075288772583008" lon="30.006752014160156">
        <time>2026-04-25T11:03:07Z</time>
      </trkpt>
      <trkpt lat="59.075267314910889" lon="30.006687641143799">
        <time>2026-04-25T11:03:09Z</time>
      </trkpt>
      <trkpt lat="59.075267314910889" lon="30.006644725799561">
        <time>2026-04-25T11:03:12Z</time>
      </trkpt>
      <trkpt lat="59.07524585723877" lon="30.006644725799561">
        <time>2026-04-25T11:03:14Z</time>
      </trkpt>
      <trkpt lat="59.07524585723877" lon="30.006601810455322">
        <time>2026-04-25T11:03:17Z</time>
      </trkpt>
      <trkpt lat="59.07524585723877" lon="30.006580352783203">
        <time>2026-04-25T11:03:19Z</time>
      </trkpt>
      <trkpt lat="59.07524585723877" lon="30.006558895111084">
        <time>2026-04-25T11:03:22Z</time>
      </trkpt>
      <trkpt lat="59.07524585723877" lon="30.006494522094727">
        <time>2026-04-25T11:03:24Z</time>
      </trkpt>
      <trkpt lat="59.075267314910889" lon="30.006451606750488">
        <time>2026-04-25T11:03:27Z</time>
      </trkpt>
      <trkpt lat="59.075267314910889" lon="30.006430149078369">
        <time>2026-04-25T11:03:29Z</time>
      </trkpt>
      <trkpt lat="59.075288772583008" lon="30.00640869140625">
        <time>2026-04-25T11:03:32Z</time>
      </trkpt>
      <trkpt lat="59.075310230255127" lon="30.006344318389893">
        <time>2026-04-25T11:03:34Z</time>
      </trkpt>
      <trkpt lat="59.075331687927246" lon="30.006322860717773">
        <time>2026-04-25T11:03:37Z</time>
      </trkpt>
      <trkpt lat="59.075353145599365" lon="30.006258487701416">
        <time>2026-04-25T11:03:39Z</time>
      </trkpt>
      <trkpt lat="59.075353145599365" lon="30.006194114685059">
        <time>2026-04-25T11:03:42Z</time>
      </trkpt>
      <trkpt lat="59.075353145599365" lon="30.006194114685059">
        <time>2026-04-25T11:03:44Z</time>
      </trkpt>
      <trkpt lat="59.075353145599365" lon="30.006194114685059">
        <time>2026-04-25T11:03:47Z</time>
      </trkpt>
      <trkpt lat="59.075353145599365" lon="30.006194114685059">
        <time>2026-04-25T11:03:49Z</time>
      </trkpt>
      <trkpt lat="59.075353145599365" lon="30.006172657012939">
        <time>2026-04-25T11:03:52Z</time>
      </trkpt>
      <trkpt lat="59.075331687927246" lon="30.006129741668701">
        <time>2026-04-25T11:03:54Z</time>
      </trkpt>
      <trkpt lat="59.075331687927246" lon="30.006108283996582">
        <time>2026-04-25T11:03:57Z</time>
      </trkpt>
      <trkpt lat="59.075331687927246" lon="30.006086826324463">
        <time>2026-04-25T11:03:59Z</time>
      </trkpt>
      <trkpt lat="59.075331687927246" lon="30.006086826324463">
        <time>2026-04-25T11:04:02Z</time>
      </trkpt>
      <trkpt lat="59.075331687927246" lon="30.006022453308105">
        <time>2026-04-25T11:04:04Z</time>
      </trkpt>
      <trkpt lat="59.075331687927246" lon="30.005979537963867">
        <time>2026-04-25T11:04:07Z</time>
      </trkpt>
      <trkpt lat="59.075310230255127" lon="30.005958080291748">
        <time>2026-04-25T11:04:09Z</time>
      </trkpt>
      <trkpt lat="59.075310230255127" lon="30.005958080291748">
        <time>2026-04-25T11:04:12Z</time>
      </trkpt>
      <trkpt lat="59.075310230255127" lon="30.005958080291748">
        <time>2026-04-25T11:04:14Z</time>
      </trkpt>
      <trkpt lat="59.075310230255127" lon="30.005958080291748">
        <time>2026-04-25T11:04:17Z</time>
      </trkpt>
      <trkpt lat="59.075310230255127" lon="30.00591516494751">
        <time>2026-04-25T11:04:19Z</time>
      </trkpt>
      <trkpt lat="59.075310230255127" lon="30.005893707275391">
        <time>2026-04-25T11:04:22Z</time>
      </trkpt>
      <trkpt lat="59.075310230255127" lon="30.005872249603271">
        <time>2026-04-25T11:04:24Z</time>
      </trkpt>
      <trkpt lat="59.075310230255127" lon="30.005850791931152">
        <time>2026-04-25T11:04:27Z</time>
      </trkpt>
      <trkpt lat="59.075331687927246" lon="30.005807876586914">
        <time>2026-04-25T11:04:29Z</time>
      </trkpt>
      <trkpt lat="59.075331687927246" lon="30.005807876586914">
        <time>2026-04-25T11:04:32Z</time>
      </trkpt>
      <trkpt lat="59.075331687927246" lon="30.005807876586914">
        <time>2026-04-25T11:04:34Z</time>
      </trkpt>
      <trkpt lat="59.075331687927246" lon="30.005807876586914">
        <time>2026-04-25T11:04:37Z</time>
      </trkpt>
      <trkpt lat="59.075331687927246" lon="30.005807876586914">
        <time>2026-04-25T11:04:39Z</time>
      </trkpt>
      <trkpt lat="59.075331687927246" lon="30.005807876586914">
        <time>2026-04-25T11:04:42Z</time>
      </trkpt>
      <trkpt lat="59.075331687927246" lon="30.005807876586914">
        <time>2026-04-25T11:04:44Z</time>
      </trkpt>
      <trkpt lat="59.075331687927246" lon="30.005807876586914">
        <time>2026-04-25T11:04:47Z</time>
      </trkpt>
      <trkpt lat="59.075331687927246" lon="30.005743503570557">
        <time>2026-04-25T11:04:49Z</time>
      </trkpt>
      <trkpt lat="59.075331687927246" lon="30.005743503570557">
        <time>2026-04-25T11:04:52Z</time>
      </trkpt>
      <trkpt lat="59.075310230255127" lon="30.005700588226318">
        <time>2026-04-25T11:04:54Z</time>
      </trkpt>
      <trkpt lat="59.075310230255127" lon="30.005700588226318">
        <time>2026-04-25T11:04:57Z</time>
      </trkpt>
      <trkpt lat="59.075331687927246" lon="30.005614757537842">
        <time>2026-04-25T11:04:59Z</time>
      </trkpt>
      <trkpt lat="59.075331687927246" lon="30.005571842193604">
        <time>2026-04-25T11:05:02Z</time>
      </trkpt>
      <trkpt lat="59.075331687927246" lon="30.005571842193604">
        <time>2026-04-25T11:05:04Z</time>
      </trkpt>
      <trkpt lat="59.075331687927246" lon="30.005571842193604">
        <time>2026-04-25T11:05:07Z</time>
      </trkpt>
      <trkpt lat="59.075331687927246" lon="30.005571842193604">
        <time>2026-04-25T11:05:09Z</time>
      </trkpt>
      <trkpt lat="59.075331687927246" lon="30.005571842193604">
        <time>2026-04-25T11:05:12Z</time>
      </trkpt>
      <trkpt lat="59.075310230255127" lon="30.005464553833008">
        <time>2026-04-25T11:05:14Z</time>
      </trkpt>
      <trkpt lat="59.075288772583008" lon="30.005378723144531">
        <time>2026-04-25T11:05:17Z</time>
      </trkpt>
      <trkpt lat="59.075267314910889" lon="30.005271434783936">
        <time>2026-04-25T11:05:19Z</time>
      </trkpt>
      <trkpt lat="59.075267314910889" lon="30.005249977111816">
        <time>2026-04-25T11:05:22Z</time>
      </trkpt>
      <trkpt lat="59.075267314910889" lon="30.005249977111816">
        <time>2026-04-25T11:05:24Z</time>
      </trkpt>
      <trkpt lat="59.075267314910889" lon="30.005249977111816">
        <time>2026-04-25T11:05:27Z</time>
      </trkpt>
      <trkpt lat="59.07524585723877" lon="30.005185604095459">
        <time>2026-04-25T11:05:29Z</time>
      </trkpt>
      <trkpt lat="59.07524585723877" lon="30.005121231079102">
        <time>2026-04-25T11:05:32Z</time>
      </trkpt>
      <trkpt lat="59.07522439956665" lon="30.005099773406982">
        <time>2026-04-25T11:05:34Z</time>
      </trkpt>
      <trkpt lat="59.07522439956665" lon="30.005099773406982">
        <time>2026-04-25T11:05:37Z</time>
      </trkpt>
      <trkpt lat="59.07522439956665" lon="30.005099773406982">
        <time>2026-04-25T11:05:39Z</time>
      </trkpt>
      <trkpt lat="59.07522439956665" lon="30.005099773406982">
        <time>2026-04-25T11:05:42Z</time>
      </trkpt>
      <trkpt lat="59.075181484222412" lon="30.005099773406982">
        <time>2026-04-25T11:05:44Z</time>
      </trkpt>
      <trkpt lat="59.075160026550293" lon="30.005078315734863">
        <time>2026-04-25T11:05:47Z</time>
      </trkpt>
      <trkpt lat="59.075138568878174" lon="30.005099773406982">
        <time>2026-04-25T11:05:49Z</time>
      </trkpt>
      <trkpt lat="59.075117111206055" lon="30.005056858062744">
        <time>2026-04-25T11:05:52Z</time>
      </trkpt>
      <trkpt lat="59.075117111206055" lon="30.005056858062744">
        <time>2026-04-25T11:05:54Z</time>
      </trkpt>
      <trkpt lat="59.075117111206055" lon="30.005056858062744">
        <time>2026-04-25T11:05:57Z</time>
      </trkpt>
      <trkpt lat="59.075117111206055" lon="30.005035400390625">
        <time>2026-04-25T11:05:59Z</time>
      </trkpt>
      <trkpt lat="59.075117111206055" lon="30.004992485046387">
        <time>2026-04-25T11:06:02Z</time>
      </trkpt>
      <trkpt lat="59.075095653533936" lon="30.00490665435791">
        <time>2026-04-25T11:06:04Z</time>
      </trkpt>
      <trkpt lat="59.075095653533936" lon="30.004885196685791">
        <time>2026-04-25T11:06:07Z</time>
      </trkpt>
      <trkpt lat="59.075074195861816" lon="30.004863739013672">
        <time>2026-04-25T11:06:09Z</time>
      </trkpt>
      <trkpt lat="59.075074195861816" lon="30.004842281341553">
        <time>2026-04-25T11:06:12Z</time>
      </trkpt>
      <trkpt lat="59.075074195861816" lon="30.004842281341553">
        <time>2026-04-25T11:06:14Z</time>
      </trkpt>
      <trkpt lat="59.075074195861816" lon="30.004842281341553">
        <time>2026-04-25T11:06:17Z</time>
      </trkpt>
      <trkpt lat="59.075074195861816" lon="30.004777908325195">
        <time>2026-04-25T11:06:19Z</time>
      </trkpt>
      <trkpt lat="59.075095653533936" lon="30.004692077636719">
        <time>2026-04-25T11:06:22Z</time>
      </trkpt>
      <trkpt lat="59.075117111206055" lon="30.00464916229248">
        <time>2026-04-25T11:06:24Z</time>
      </trkpt>
      <trkpt lat="59.075117111206055" lon="30.004606246948242">
        <time>2026-04-25T11:06:27Z</time>
      </trkpt>
      <trkpt lat="59.075138568878174" lon="30.004541873931885">
        <time>2026-04-25T11:06:29Z</time>
      </trkpt>
      <trkpt lat="59.075160026550293" lon="30.004563331604004">
        <time>2026-04-25T11:06:32Z</time>
      </trkpt>
      <trkpt lat="59.075181484222412" lon="30.004563331604004">
        <time>2026-04-25T11:06:34Z</time>
      </trkpt>
      <trkpt lat="59.075181484222412" lon="30.004563331604004">
        <time>2026-04-25T11:06:37Z</time>
      </trkpt>
      <trkpt lat="59.075138568878174" lon="30.004541873931885">
        <time>2026-04-25T11:06:39Z</time>
      </trkpt>
      <trkpt lat="59.075138568878174" lon="30.004541873931885">
        <time>2026-04-25T11:06:42Z</time>
      </trkpt>
      <trkpt lat="59.075138568878174" lon="30.004541873931885">
        <time>2026-04-25T11:06:44Z</time>
      </trkpt>
      <trkpt lat="59.075117111206055" lon="30.004563331604004">
        <time>2026-04-25T11:06:47Z</time>
      </trkpt>
      <trkpt lat="59.075117111206055" lon="30.004563331604004">
        <time>2026-04-25T11:06:49Z</time>
      </trkpt>
      <trkpt lat="59.075117111206055" lon="30.004584789276123">
        <time>2026-04-25T11:06:52Z</time>
      </trkpt>
      <trkpt lat="59.075117111206055" lon="30.004606246948242">
        <time>2026-04-25T11:06:54Z</time>
      </trkpt>
      <trkpt lat="59.075117111206055" lon="30.004606246948242">
        <time>2026-04-25T11:06:57Z</time>
      </trkpt>
      <trkpt lat="59.075117111206055" lon="30.004606246948242">
        <time>2026-04-25T11:06:59Z</time>
      </trkpt>
      <trkpt lat="59.075117111206055" lon="30.004606246948242">
        <time>2026-04-25T11:07:02Z</time>
      </trkpt>
      <trkpt lat="59.075095653533936" lon="30.004606246948242">
        <time>2026-04-25T11:07:04Z</time>
      </trkpt>
      <trkpt lat="59.075074195861816" lon="30.00464916229248">
        <time>2026-04-25T11:07:07Z</time>
      </trkpt>
      <trkpt lat="59.075095653533936" lon="30.004627704620361">
        <time>2026-04-25T11:07:09Z</time>
      </trkpt>
      <trkpt lat="59.075095653533936" lon="30.004584789276123">
        <time>2026-04-25T11:07:12Z</time>
      </trkpt>
      <trkpt lat="59.075117111206055" lon="30.004563331604004">
        <time>2026-04-25T11:07:14Z</time>
      </trkpt>
      <trkpt lat="59.075117111206055" lon="30.004563331604004">
        <time>2026-04-25T11:07:17Z</time>
      </trkpt>
      <trkpt lat="59.075095653533936" lon="30.004627704620361">
        <time>2026-04-25T11:07:19Z</time>
      </trkpt>
      <trkpt lat="59.075095653533936" lon="30.004627704620361">
        <time>2026-04-25T11:07:22Z</time>
      </trkpt>
      <trkpt lat="59.075095653533936" lon="30.004627704620361">
        <time>2026-04-25T11:07:24Z</time>
      </trkpt>
      <trkpt lat="59.075095653533936" lon="30.004627704620361">
        <time>2026-04-25T11:07:27Z</time>
      </trkpt>
      <trkpt lat="59.075095653533936" lon="30.004627704620361">
        <time>2026-04-25T11:07:29Z</time>
      </trkpt>
      <trkpt lat="59.075074195861816" lon="30.00464916229248">
        <time>2026-04-25T11:07:32Z</time>
      </trkpt>
      <trkpt lat="59.075074195861816" lon="30.0046706199646">
        <time>2026-04-25T11:07:34Z</time>
      </trkpt>
      <trkpt lat="59.075074195861816" lon="30.004692077636719">
        <time>2026-04-25T11:07:37Z</time>
      </trkpt>
      <trkpt lat="59.075052738189697" lon="30.004713535308838">
        <time>2026-04-25T11:07:39Z</time>
      </trkpt>
      <trkpt lat="59.075031280517578" lon="30.0046706199646">
        <time>2026-04-25T11:07:42Z</time>
      </trkpt>
      <trkpt lat="59.07498836517334" lon="30.00464916229248">
        <time>2026-04-25T11:07:44Z</time>
      </trkpt>
      <trkpt lat="59.07498836517334" lon="30.0046706199646">
        <time>2026-04-25T11:07:47Z</time>
      </trkpt>
      <trkpt lat="59.074945449829102" lon="30.004692077636719">
        <time>2026-04-25T11:07:49Z</time>
      </trkpt>
      <trkpt lat="59.074945449829102" lon="30.004692077636719">
        <time>2026-04-25T11:07:52Z</time>
      </trkpt>
      <trkpt lat="59.074902534484863" lon="30.004692077636719">
        <time>2026-04-25T11:07:54Z</time>
      </trkpt>
      <trkpt lat="59.074902534484863" lon="30.004692077636719">
        <time>2026-04-25T11:07:57Z</time>
      </trkpt>
      <trkpt lat="59.074902534484863" lon="30.004692077636719">
        <time>2026-04-25T11:07:59Z</time>
      </trkpt>
      <trkpt lat="59.074902534484863" lon="30.004734992980957">
        <time>2026-04-25T11:08:02Z</time>
      </trkpt>
      <trkpt lat="59.074881076812744" lon="30.004756450653076">
        <time>2026-04-25T11:08:04Z</time>
      </trkpt>
      <trkpt lat="59.074881076812744" lon="30.004756450653076">
        <time>2026-04-25T11:08:07Z</time>
      </trkpt>
      <trkpt lat="59.074859619140625" lon="30.004756450653076">
        <time>2026-04-25T11:08:09Z</time>
      </trkpt>
      <trkpt lat="59.074859619140625" lon="30.004756450653076">
        <time>2026-04-25T11:08:12Z</time>
      </trkpt>
      <trkpt lat="59.074859619140625" lon="30.004756450653076">
        <time>2026-04-25T11:08:14Z</time>
      </trkpt>
      <trkpt lat="59.074859619140625" lon="30.004756450653076">
        <time>2026-04-25T11:08:17Z</time>
      </trkpt>
      <trkpt lat="59.074859619140625" lon="30.004756450653076">
        <time>2026-04-25T11:08:19Z</time>
      </trkpt>
      <trkpt lat="59.074859619140625" lon="30.004756450653076">
        <time>2026-04-25T11:08:22Z</time>
      </trkpt>
      <trkpt lat="59.074859619140625" lon="30.004756450653076">
        <time>2026-04-25T11:08:24Z</time>
      </trkpt>
      <trkpt lat="59.074859619140625" lon="30.004777908325195">
        <time>2026-04-25T11:08:27Z</time>
      </trkpt>
      <trkpt lat="59.074838161468506" lon="30.004799365997314">
        <time>2026-04-25T11:08:29Z</time>
      </trkpt>
      <trkpt lat="59.074816703796387" lon="30.004842281341553">
        <time>2026-04-25T11:08:32Z</time>
      </trkpt>
      <trkpt lat="59.074795246124268" lon="30.004842281341553">
        <time>2026-04-25T11:08:34Z</time>
      </trkpt>
      <trkpt lat="59.074773788452148" lon="30.004863739013672">
        <time>2026-04-25T11:08:37Z</time>
      </trkpt>
      <trkpt lat="59.07473087310791" lon="30.004885196685791">
        <time>2026-04-25T11:08:39Z</time>
      </trkpt>
      <trkpt lat="59.074709415435791" lon="30.004863739013672">
        <time>2026-04-25T11:08:42Z</time>
      </trkpt>
      <trkpt lat="59.074709415435791" lon="30.004863739013672">
        <time>2026-04-25T11:08:44Z</time>
      </trkpt>
      <trkpt lat="59.074709415435791" lon="30.004863739013672">
        <time>2026-04-25T11:08:47Z</time>
      </trkpt>
      <trkpt lat="59.074687957763672" lon="30.004820823669434">
        <time>2026-04-25T11:08:49Z</time>
      </trkpt>
      <trkpt lat="59.074666500091553" lon="30.004842281341553">
        <time>2026-04-25T11:08:52Z</time>
      </trkpt>
      <trkpt lat="59.074645042419434" lon="30.004799365997314">
        <time>2026-04-25T11:08:54Z</time>
      </trkpt>
      <trkpt lat="59.074645042419434" lon="30.004777908325195">
        <time>2026-04-25T11:08:57Z</time>
      </trkpt>
      <trkpt lat="59.074645042419434" lon="30.004777908325195">
        <time>2026-04-25T11:08:59Z</time>
      </trkpt>
      <trkpt lat="59.074645042419434" lon="30.004777908325195">
        <time>2026-04-25T11:09:02Z</time>
      </trkpt>
      <trkpt lat="59.074666500091553" lon="30.004820823669434">
        <time>2026-04-25T11:09:04Z</time>
      </trkpt>
      <trkpt lat="59.074709415435791" lon="30.004842281341553">
        <time>2026-04-25T11:09:07Z</time>
      </trkpt>
      <trkpt lat="59.074752330780029" lon="30.004820823669434">
        <time>2026-04-25T11:09:09Z</time>
      </trkpt>
      <trkpt lat="59.074795246124268" lon="30.004820823669434">
        <time>2026-04-25T11:09:12Z</time>
      </trkpt>
      <trkpt lat="59.074773788452148" lon="30.004863739013672">
        <time>2026-04-25T11:09:14Z</time>
      </trkpt>
      <trkpt lat="59.074773788452148" lon="30.004863739013672">
        <time>2026-04-25T11:09:17Z</time>
      </trkpt>
      <trkpt lat="59.074752330780029" lon="30.00490665435791">
        <time>2026-04-25T11:09:19Z</time>
      </trkpt>
      <trkpt lat="59.074752330780029" lon="30.004885196685791">
        <time>2026-04-25T11:09:22Z</time>
      </trkpt>
      <trkpt lat="59.074687957763672" lon="30.004842281341553">
        <time>2026-04-25T11:09:24Z</time>
      </trkpt>
      <trkpt lat="59.074687957763672" lon="30.004842281341553">
        <time>2026-04-25T11:09:29Z</time>
      </trkpt>
      <trkpt lat="59.07473087310791" lon="30.004863739013672">
        <time>2026-04-25T11:09:32Z</time>
      </trkpt>
      <trkpt lat="59.074773788452148" lon="30.004885196685791">
        <time>2026-04-25T11:09:34Z</time>
      </trkpt>
      <trkpt lat="59.074773788452148" lon="30.004842281341553">
        <time>2026-04-25T11:09:37Z</time>
      </trkpt>
      <trkpt lat="59.074838161468506" lon="30.004799365997314">
        <time>2026-04-25T11:09:39Z</time>
      </trkpt>
      <trkpt lat="59.074838161468506" lon="30.004842281341553">
        <time>2026-04-25T11:09:42Z</time>
      </trkpt>
      <trkpt lat="59.074859619140625" lon="30.005013942718506">
        <time>2026-04-25T11:09:44Z</time>
      </trkpt>
      <trkpt lat="59.074881076812744" lon="30.005121231079102">
        <time>2026-04-25T11:09:47Z</time>
      </trkpt>
      <trkpt lat="59.074881076812744" lon="30.005271434783936">
        <time>2026-04-25T11:09:49Z</time>
      </trkpt>
      <trkpt lat="59.074881076812744" lon="30.005335807800293">
        <time>2026-04-25T11:09:52Z</time>
      </trkpt>
      <trkpt lat="59.074923992156982" lon="30.005443096160889">
        <time>2026-04-25T11:09:54Z</time>
      </trkpt>
      <trkpt lat="59.074923992156982" lon="30.005486011505127">
        <time>2026-04-25T11:09:57Z</time>
      </trkpt>
      <trkpt lat="59.074923992156982" lon="30.005486011505127">
        <time>2026-04-25T11:09:59Z</time>
      </trkpt>
      <trkpt lat="59.074923992156982" lon="30.005507469177246">
        <time>2026-04-25T11:10:02Z</time>
      </trkpt>
      <trkpt lat="59.074923992156982" lon="30.005614757537842">
        <time>2026-04-25T11:10:04Z</time>
      </trkpt>
      <trkpt lat="59.074923992156982" lon="30.005636215209961">
        <time>2026-04-25T11:10:07Z</time>
      </trkpt>
      <trkpt lat="59.074923992156982" lon="30.005614757537842">
        <time>2026-04-25T11:10:09Z</time>
      </trkpt>
      <trkpt lat="59.074902534484863" lon="30.005550384521484">
        <time>2026-04-25T11:10:12Z</time>
      </trkpt>
      <trkpt lat="59.074902534484863" lon="30.005550384521484">
        <time>2026-04-25T11:10:14Z</time>
      </trkpt>
      <trkpt lat="59.074902534484863" lon="30.005593299865723">
        <time>2026-04-25T11:10:17Z</time>
      </trkpt>
      <trkpt lat="59.074923992156982" lon="30.005700588226318">
        <time>2026-04-25T11:10:19Z</time>
      </trkpt>
      <trkpt lat="59.074923992156982" lon="30.005764961242676">
        <time>2026-04-25T11:10:22Z</time>
      </trkpt>
      <trkpt lat="59.074902534484863" lon="30.005807876586914">
        <time>2026-04-25T11:10:24Z</time>
      </trkpt>
      <trkpt lat="59.074902534484863" lon="30.005807876586914">
        <time>2026-04-25T11:10:27Z</time>
      </trkpt>
      <trkpt lat="59.074881076812744" lon="30.005829334259033">
        <time>2026-04-25T11:10:29Z</time>
      </trkpt>
      <trkpt lat="59.074881076812744" lon="30.005872249603271">
        <time>2026-04-25T11:10:32Z</time>
      </trkpt>
      <trkpt lat="59.074838161468506" lon="30.005872249603271">
        <time>2026-04-25T11:10:34Z</time>
      </trkpt>
      <trkpt lat="59.074838161468506" lon="30.005872249603271">
        <time>2026-04-25T11:10:37Z</time>
      </trkpt>
      <trkpt lat="59.074816703796387" lon="30.005850791931152">
        <time>2026-04-25T11:10:39Z</time>
      </trkpt>
      <trkpt lat="59.074816703796387" lon="30.005850791931152">
        <time>2026-04-25T11:10:42Z</time>
      </trkpt>
      <trkpt lat="59.074816703796387" lon="30.005829334259033">
        <time>2026-04-25T11:10:44Z</time>
      </trkpt>
      <trkpt lat="59.074838161468506" lon="30.005872249603271">
        <time>2026-04-25T11:10:47Z</time>
      </trkpt>
      <trkpt lat="59.074881076812744" lon="30.005872249603271">
        <time>2026-04-25T11:10:49Z</time>
      </trkpt>
      <trkpt lat="59.074859619140625" lon="30.005829334259033">
        <time>2026-04-25T11:10:52Z</time>
      </trkpt>
      <trkpt lat="59.074838161468506" lon="30.005786418914795">
        <time>2026-04-25T11:10:54Z</time>
      </trkpt>
      <trkpt lat="59.074859619140625" lon="30.005829334259033">
        <time>2026-04-25T11:10:57Z</time>
      </trkpt>
      <trkpt lat="59.074859619140625" lon="30.005829334259033">
        <time>2026-04-25T11:10:59Z</time>
      </trkpt>
      <trkpt lat="59.074859619140625" lon="30.005829334259033">
        <time>2026-04-25T11:11:02Z</time>
      </trkpt>
      <trkpt lat="59.074859619140625" lon="30.005829334259033">
        <time>2026-04-25T11:11:04Z</time>
      </trkpt>
      <trkpt lat="59.074838161468506" lon="30.005807876586914">
        <time>2026-04-25T11:11:07Z</time>
      </trkpt>
      <trkpt lat="59.074795246124268" lon="30.005764961242676">
        <time>2026-04-25T11:11:09Z</time>
      </trkpt>
      <trkpt lat="59.074838161468506" lon="30.005807876586914">
        <time>2026-04-25T11:11:12Z</time>
      </trkpt>
      <trkpt lat="59.074881076812744" lon="30.005872249603271">
        <time>2026-04-25T11:11:14Z</time>
      </trkpt>
      <trkpt lat="59.074881076812744" lon="30.00591516494751">
        <time>2026-04-25T11:11:17Z</time>
      </trkpt>
      <trkpt lat="59.074838161468506" lon="30.006000995635986">
        <time>2026-04-25T11:11:19Z</time>
      </trkpt>
      <trkpt lat="59.074838161468506" lon="30.006000995635986">
        <time>2026-04-25T11:11:22Z</time>
      </trkpt>
      <trkpt lat="59.074816703796387" lon="30.006000995635986">
        <time>2026-04-25T11:11:24Z</time>
      </trkpt>
      <trkpt lat="59.074838161468506" lon="30.006022453308105">
        <time>2026-04-25T11:11:27Z</time>
      </trkpt>
      <trkpt lat="59.074859619140625" lon="30.006108283996582">
        <time>2026-04-25T11:11:29Z</time>
      </trkpt>
      <trkpt lat="59.074838161468506" lon="30.00615119934082">
        <time>2026-04-25T11:11:32Z</time>
      </trkpt>
      <trkpt lat="59.074838161468506" lon="30.00615119934082">
        <time>2026-04-25T11:11:34Z</time>
      </trkpt>
      <trkpt lat="59.074816703796387" lon="30.00615119934082">
        <time>2026-04-25T11:11:37Z</time>
      </trkpt>
      <trkpt lat="59.074838161468506" lon="30.00615119934082">
        <time>2026-04-25T11:11:39Z</time>
      </trkpt>
      <trkpt lat="59.074838161468506" lon="30.006086826324463">
        <time>2026-04-25T11:11:42Z</time>
      </trkpt>
      <trkpt lat="59.074795246124268" lon="30.005979537963867">
        <time>2026-04-25T11:11:44Z</time>
      </trkpt>
      <trkpt lat="59.074816703796387" lon="30.006000995635986">
        <time>2026-04-25T11:11:47Z</time>
      </trkpt>
      <trkpt lat="59.074859619140625" lon="30.006065368652344">
        <time>2026-04-25T11:11:49Z</time>
      </trkpt>
      <trkpt lat="59.074881076812744" lon="30.006086826324463">
        <time>2026-04-25T11:11:52Z</time>
      </trkpt>
      <trkpt lat="59.074859619140625" lon="30.006194114685059">
        <time>2026-04-25T11:11:54Z</time>
      </trkpt>
      <trkpt lat="59.074859619140625" lon="30.006279945373535">
        <time>2026-04-25T11:11:57Z</time>
      </trkpt>
      <trkpt lat="59.074881076812744" lon="30.00640869140625">
        <time>2026-04-25T11:11:59Z</time>
      </trkpt>
      <trkpt lat="59.074881076812744" lon="30.00640869140625">
        <time>2026-04-25T11:12:02Z</time>
      </trkpt>
      <trkpt lat="59.074881076812744" lon="30.00640869140625">
        <time>2026-04-25T11:12:04Z</time>
      </trkpt>
      <trkpt lat="59.074881076812744" lon="30.00640869140625">
        <time>2026-04-25T11:12:07Z</time>
      </trkpt>
      <trkpt lat="59.074881076812744" lon="30.006515979766846">
        <time>2026-04-25T11:12:09Z</time>
      </trkpt>
      <trkpt lat="59.074881076812744" lon="30.006580352783203">
        <time>2026-04-25T11:12:12Z</time>
      </trkpt>
      <trkpt lat="59.074881076812744" lon="30.006601810455322">
        <time>2026-04-25T11:12:14Z</time>
      </trkpt>
      <trkpt lat="59.074881076812744" lon="30.006601810455322">
        <time>2026-04-25T11:12:17Z</time>
      </trkpt>
      <trkpt lat="59.074881076812744" lon="30.006644725799561">
        <time>2026-04-25T11:12:19Z</time>
      </trkpt>
      <trkpt lat="59.074859619140625" lon="30.006623268127441">
        <time>2026-04-25T11:12:22Z</time>
      </trkpt>
      <trkpt lat="59.074859619140625" lon="30.006644725799561">
        <time>2026-04-25T11:12:24Z</time>
      </trkpt>
      <trkpt lat="59.074881076812744" lon="30.006601810455322">
        <time>2026-04-25T11:12:27Z</time>
      </trkpt>
      <trkpt lat="59.074881076812744" lon="30.006365776062012">
        <time>2026-04-25T11:12:29Z</time>
      </trkpt>
      <trkpt lat="59.074859619140625" lon="30.006237030029297">
        <time>2026-04-25T11:12:32Z</time>
      </trkpt>
      <trkpt lat="59.074881076812744" lon="30.006430149078369">
        <time>2026-04-25T11:12:34Z</time>
      </trkpt>
      <trkpt lat="59.074881076812744" lon="30.006580352783203">
        <time>2026-04-25T11:12:37Z</time>
      </trkpt>
      <trkpt lat="59.074881076812744" lon="30.006730556488037">
        <time>2026-04-25T11:12:39Z</time>
      </trkpt>
      <trkpt lat="59.074881076812744" lon="30.006752014160156">
        <time>2026-04-25T11:12:42Z</time>
      </trkpt>
      <trkpt lat="59.074902534484863" lon="30.006773471832275">
        <time>2026-04-25T11:12:44Z</time>
      </trkpt>
      <trkpt lat="59.074923992156982" lon="30.006859302520752">
        <time>2026-04-25T11:12:47Z</time>
      </trkpt>
      <trkpt lat="59.074902534484863" lon="30.006923675537109">
        <time>2026-04-25T11:12:49Z</time>
      </trkpt>
      <trkpt lat="59.074923992156982" lon="30.006945133209229">
        <time>2026-04-25T11:12:52Z</time>
      </trkpt>
      <trkpt lat="59.074902534484863" lon="30.006773471832275">
        <time>2026-04-25T11:12:54Z</time>
      </trkpt>
      <trkpt lat="59.074859619140625" lon="30.00666618347168">
        <time>2026-04-25T11:12:57Z</time>
      </trkpt>
      <trkpt lat="59.074859619140625" lon="30.006687641143799">
        <time>2026-04-25T11:12:59Z</time>
      </trkpt>
      <trkpt lat="59.074902534484863" lon="30.006709098815918">
        <time>2026-04-25T11:13:02Z</time>
      </trkpt>
      <trkpt lat="59.074902534484863" lon="30.006709098815918">
        <time>2026-04-25T11:13:04Z</time>
      </trkpt>
      <trkpt lat="59.074923992156982" lon="30.006816387176514">
        <time>2026-04-25T11:13:07Z</time>
      </trkpt>
      <trkpt lat="59.074902534484863" lon="30.006966590881348">
        <time>2026-04-25T11:13:09Z</time>
      </trkpt>
      <trkpt lat="59.074881076812744" lon="30.006988048553467">
        <time>2026-04-25T11:13:12Z</time>
      </trkpt>
      <trkpt lat="59.074881076812744" lon="30.006988048553467">
        <time>2026-04-25T11:13:14Z</time>
      </trkpt>
      <trkpt lat="59.074923992156982" lon="30.00690221786499">
        <time>2026-04-25T11:13:17Z</time>
      </trkpt>
      <trkpt lat="59.074881076812744" lon="30.006730556488037">
        <time>2026-04-25T11:13:19Z</time>
      </trkpt>
      <trkpt lat="59.074838161468506" lon="30.006623268127441">
        <time>2026-04-25T11:13:22Z</time>
      </trkpt>
      <trkpt lat="59.074795246124268" lon="30.006580352783203">
        <time>2026-04-25T11:13:24Z</time>
      </trkpt>
      <trkpt lat="59.074838161468506" lon="30.006644725799561">
        <time>2026-04-25T11:13:27Z</time>
      </trkpt>
      <trkpt lat="59.074923992156982" lon="30.006794929504395">
        <time>2026-04-25T11:13:29Z</time>
      </trkpt>
      <trkpt lat="59.074923992156982" lon="30.00690221786499">
        <time>2026-04-25T11:13:32Z</time>
      </trkpt>
      <trkpt lat="59.074902534484863" lon="30.006988048553467">
        <time>2026-04-25T11:13:34Z</time>
      </trkpt>
      <trkpt lat="59.074859619140625" lon="30.006988048553467">
        <time>2026-04-25T11:13:37Z</time>
      </trkpt>
      <trkpt lat="59.074795246124268" lon="30.006945133209229">
        <time>2026-04-25T11:13:39Z</time>
      </trkpt>
      <trkpt lat="59.074838161468506" lon="30.006988048553467">
        <time>2026-04-25T11:13:42Z</time>
      </trkpt>
      <trkpt lat="59.074902534484863" lon="30.006966590881348">
        <time>2026-04-25T11:13:44Z</time>
      </trkpt>
      <trkpt lat="59.074923992156982" lon="30.006859302520752">
        <time>2026-04-25T11:13:47Z</time>
      </trkpt>
      <trkpt lat="59.074859619140625" lon="30.00666618347168">
        <time>2026-04-25T11:13:49Z</time>
      </trkpt>
      <trkpt lat="59.074795246124268" lon="30.006580352783203">
        <time>2026-04-25T11:13:52Z</time>
      </trkpt>
      <trkpt lat="59.07473087310791" lon="30.006473064422607">
        <time>2026-04-25T11:13:54Z</time>
      </trkpt>
      <trkpt lat="59.07473087310791" lon="30.006473064422607">
        <time>2026-04-25T11:13:57Z</time>
      </trkpt>
      <trkpt lat="59.074752330780029" lon="30.006515979766846">
        <time>2026-04-25T11:13:59Z</time>
      </trkpt>
      <trkpt lat="59.074816703796387" lon="30.006623268127441">
        <time>2026-04-25T11:14:02Z</time>
      </trkpt>
      <trkpt lat="59.074902534484863" lon="30.006794929504395">
        <time>2026-04-25T11:14:04Z</time>
      </trkpt>
      <trkpt lat="59.074923992156982" lon="30.00690221786499">
        <time>2026-04-25T11:14:07Z</time>
      </trkpt>
      <trkpt lat="59.074881076812744" lon="30.006966590881348">
        <time>2026-04-25T11:14:09Z</time>
      </trkpt>
      <trkpt lat="59.074795246124268" lon="30.006945133209229">
        <time>2026-04-25T11:14:12Z</time>
      </trkpt>
      <trkpt lat="59.074795246124268" lon="30.006945133209229">
        <time>2026-04-25T11:14:14Z</time>
      </trkpt>
      <trkpt lat="59.074859619140625" lon="30.006988048553467">
        <time>2026-04-25T11:14:17Z</time>
      </trkpt>
      <trkpt lat="59.074923992156982" lon="30.00690221786499">
        <time>2026-04-25T11:14:19Z</time>
      </trkpt>
      <trkpt lat="59.074902534484863" lon="30.006773471832275">
        <time>2026-04-25T11:14:22Z</time>
      </trkpt>
      <trkpt lat="59.074816703796387" lon="30.006601810455322">
        <time>2026-04-25T11:14:24Z</time>
      </trkpt>
      <trkpt lat="59.074752330780029" lon="30.006494522094727">
        <time>2026-04-25T11:14:27Z</time>
      </trkpt>
      <trkpt lat="59.074687957763672" lon="30.00640869140625">
        <time>2026-04-25T11:14:29Z</time>
      </trkpt>
      <trkpt lat="59.074752330780029" lon="30.006494522094727">
        <time>2026-04-25T11:14:32Z</time>
      </trkpt>
      <trkpt lat="59.074859619140625" lon="30.00666618347168">
        <time>2026-04-25T11:14:34Z</time>
      </trkpt>
      <trkpt lat="59.074923992156982" lon="30.006773471832275">
        <time>2026-04-25T11:14:37Z</time>
      </trkpt>
      <trkpt lat="59.074923992156982" lon="30.006966590881348">
        <time>2026-04-25T11:14:39Z</time>
      </trkpt>
      <trkpt lat="59.074881076812744" lon="30.007009506225586">
        <time>2026-04-25T11:14:42Z</time>
      </trkpt>
      <trkpt lat="59.074773788452148" lon="30.00690221786499">
        <time>2026-04-25T11:14:44Z</time>
      </trkpt>
      <trkpt lat="59.07473087310791" lon="30.006859302520752">
        <time>2026-04-25T11:14:47Z</time>
      </trkpt>
      <trkpt lat="59.074752330780029" lon="30.006859302520752">
        <time>2026-04-25T11:14:49Z</time>
      </trkpt>
      <trkpt lat="59.074795246124268" lon="30.006923675537109">
        <time>2026-04-25T11:14:52Z</time>
      </trkpt>
      <trkpt lat="59.074859619140625" lon="30.006988048553467">
        <time>2026-04-25T11:14:54Z</time>
      </trkpt>
      <trkpt lat="59.074902534484863" lon="30.007009506225586">
        <time>2026-04-25T11:14:57Z</time>
      </trkpt>
      <trkpt lat="59.074902534484863" lon="30.007095336914063">
        <time>2026-04-25T11:14:59Z</time>
      </trkpt>
      <trkpt lat="59.074881076812744" lon="30.007181167602539">
        <time>2026-04-25T11:15:02Z</time>
      </trkpt>
      <trkpt lat="59.074838161468506" lon="30.007245540618896">
        <time>2026-04-25T11:15:04Z</time>
      </trkpt>
      <trkpt lat="59.074838161468506" lon="30.007245540618896">
        <time>2026-04-25T11:15:07Z</time>
      </trkpt>
      <trkpt lat="59.074795246124268" lon="30.007266998291016">
        <time>2026-04-25T11:15:09Z</time>
      </trkpt>
      <trkpt lat="59.074752330780029" lon="30.007288455963135">
        <time>2026-04-25T11:15:12Z</time>
      </trkpt>
      <trkpt lat="59.074752330780029" lon="30.007288455963135">
        <time>2026-04-25T11:15:14Z</time>
      </trkpt>
      <trkpt lat="59.074752330780029" lon="30.007266998291016">
        <time>2026-04-25T11:15:17Z</time>
      </trkpt>
      <trkpt lat="59.074773788452148" lon="30.007288455963135">
        <time>2026-04-25T11:15:19Z</time>
      </trkpt>
      <trkpt lat="59.074795246124268" lon="30.007266998291016">
        <time>2026-04-25T11:15:22Z</time>
      </trkpt>
      <trkpt lat="59.074859619140625" lon="30.00715970993042">
        <time>2026-04-25T11:15:24Z</time>
      </trkpt>
      <trkpt lat="59.074881076812744" lon="30.007116794586182">
        <time>2026-04-25T11:15:27Z</time>
      </trkpt>
      <trkpt lat="59.074881076812744" lon="30.007116794586182">
        <time>2026-04-25T11:15:29Z</time>
      </trkpt>
      <trkpt lat="59.074881076812744" lon="30.007116794586182">
        <time>2026-04-25T11:15:32Z</time>
      </trkpt>
      <trkpt lat="59.074859619140625" lon="30.007181167602539">
        <time>2026-04-25T11:15:34Z</time>
      </trkpt>
      <trkpt lat="59.074816703796387" lon="30.007245540618896">
        <time>2026-04-25T11:15:37Z</time>
      </trkpt>
      <trkpt lat="59.074752330780029" lon="30.007224082946777">
        <time>2026-04-25T11:15:39Z</time>
      </trkpt>
      <trkpt lat="59.074752330780029" lon="30.007224082946777">
        <time>2026-04-25T11:15:42Z</time>
      </trkpt>
      <trkpt lat="59.074752330780029" lon="30.007224082946777">
        <time>2026-04-25T11:15:44Z</time>
      </trkpt>
      <trkpt lat="59.074773788452148" lon="30.007245540618896">
        <time>2026-04-25T11:15:47Z</time>
      </trkpt>
      <trkpt lat="59.07473087310791" lon="30.00715970993042">
        <time>2026-04-25T11:15:52Z</time>
      </trkpt>
      <trkpt lat="59.074752330780029" lon="30.007202625274658">
        <time>2026-04-25T11:15:54Z</time>
      </trkpt>
      <trkpt lat="59.074773788452148" lon="30.007266998291016">
        <time>2026-04-25T11:15:57Z</time>
      </trkpt>
      <trkpt lat="59.074838161468506" lon="30.007224082946777">
        <time>2026-04-25T11:15:59Z</time>
      </trkpt>
      <trkpt lat="59.074859619140625" lon="30.00715970993042">
        <time>2026-04-25T11:16:02Z</time>
      </trkpt>
      <trkpt lat="59.074859619140625" lon="30.007030963897705">
        <time>2026-04-25T11:16:04Z</time>
      </trkpt>
      <trkpt lat="59.074859619140625" lon="30.007030963897705">
        <time>2026-04-25T11:16:07Z</time>
      </trkpt>
      <trkpt lat="59.074859619140625" lon="30.007030963897705">
        <time>2026-04-25T11:16:09Z</time>
      </trkpt>
      <trkpt lat="59.074881076812744" lon="30.007095336914063">
        <time>2026-04-25T11:16:12Z</time>
      </trkpt>
      <trkpt lat="59.074838161468506" lon="30.007202625274658">
        <time>2026-04-25T11:16:14Z</time>
      </trkpt>
      <trkpt lat="59.074795246124268" lon="30.007245540618896">
        <time>2026-04-25T11:16:17Z</time>
      </trkpt>
      <trkpt lat="59.07473087310791" lon="30.007309913635254">
        <time>2026-04-25T11:16:19Z</time>
      </trkpt>
      <trkpt lat="59.074709415435791" lon="30.007309913635254">
        <time>2026-04-25T11:16:22Z</time>
      </trkpt>
      <trkpt lat="59.074687957763672" lon="30.007288455963135">
        <time>2026-04-25T11:16:24Z</time>
      </trkpt>
      <trkpt lat="59.074666500091553" lon="30.007288455963135">
        <time>2026-04-25T11:16:27Z</time>
      </trkpt>
      <trkpt lat="59.074645042419434" lon="30.007245540618896">
        <time>2026-04-25T11:16:29Z</time>
      </trkpt>
      <trkpt lat="59.074645042419434" lon="30.007245540618896">
        <time>2026-04-25T11:16:32Z</time>
      </trkpt>
      <trkpt lat="59.074666500091553" lon="30.007266998291016">
        <time>2026-04-25T11:16:34Z</time>
      </trkpt>
      <trkpt lat="59.074666500091553" lon="30.007288455963135">
        <time>2026-04-25T11:16:37Z</time>
      </trkpt>
      <trkpt lat="59.07473087310791" lon="30.007309913635254">
        <time>2026-04-25T11:16:39Z</time>
      </trkpt>
      <trkpt lat="59.074752330780029" lon="30.007288455963135">
        <time>2026-04-25T11:16:42Z</time>
      </trkpt>
      <trkpt lat="59.074752330780029" lon="30.007288455963135">
        <time>2026-04-25T11:16:44Z</time>
      </trkpt>
      <trkpt lat="59.074752330780029" lon="30.007288455963135">
        <time>2026-04-25T11:16:47Z</time>
      </trkpt>
      <trkpt lat="59.074752330780029" lon="30.007288455963135">
        <time>2026-04-25T11:16:49Z</time>
      </trkpt>
      <trkpt lat="59.074752330780029" lon="30.007288455963135">
        <time>2026-04-25T11:16:52Z</time>
      </trkpt>
      <trkpt lat="59.074752330780029" lon="30.007288455963135">
        <time>2026-04-25T11:16:54Z</time>
      </trkpt>
      <trkpt lat="59.074752330780029" lon="30.007288455963135">
        <time>2026-04-25T11:16:57Z</time>
      </trkpt>
      <trkpt lat="59.074752330780029" lon="30.007288455963135">
        <time>2026-04-25T11:16:59Z</time>
      </trkpt>
      <trkpt lat="59.074752330780029" lon="30.007288455963135">
        <time>2026-04-25T11:17:02Z</time>
      </trkpt>
      <trkpt lat="59.074752330780029" lon="30.007288455963135">
        <time>2026-04-25T11:17:04Z</time>
      </trkpt>
      <trkpt lat="59.074752330780029" lon="30.007288455963135">
        <time>2026-04-25T11:17:07Z</time>
      </trkpt>
      <trkpt lat="59.074752330780029" lon="30.007288455963135">
        <time>2026-04-25T11:17:09Z</time>
      </trkpt>
      <trkpt lat="59.07473087310791" lon="30.007245540618896">
        <time>2026-04-25T11:17:12Z</time>
      </trkpt>
      <trkpt lat="59.07473087310791" lon="30.007245540618896">
        <time>2026-04-25T11:17:14Z</time>
      </trkpt>
      <trkpt lat="59.074752330780029" lon="30.007266998291016">
        <time>2026-04-25T11:17:17Z</time>
      </trkpt>
      <trkpt lat="59.07473087310791" lon="30.007309913635254">
        <time>2026-04-25T11:17:19Z</time>
      </trkpt>
      <trkpt lat="59.074666500091553" lon="30.007266998291016">
        <time>2026-04-25T11:17:22Z</time>
      </trkpt>
      <trkpt lat="59.074623584747314" lon="30.007202625274658">
        <time>2026-04-25T11:17:24Z</time>
      </trkpt>
      <trkpt lat="59.074623584747314" lon="30.007202625274658">
        <time>2026-04-25T11:17:27Z</time>
      </trkpt>
      <trkpt lat="59.074666500091553" lon="30.007266998291016">
        <time>2026-04-25T11:17:29Z</time>
      </trkpt>
      <trkpt lat="59.074709415435791" lon="30.007288455963135">
        <time>2026-04-25T11:17:32Z</time>
      </trkpt>
      <trkpt lat="59.074773788452148" lon="30.007266998291016">
        <time>2026-04-25T11:17:34Z</time>
      </trkpt>
      <trkpt lat="59.074795246124268" lon="30.007245540618896">
        <time>2026-04-25T11:17:37Z</time>
      </trkpt>
      <trkpt lat="59.074859619140625" lon="30.007181167602539">
        <time>2026-04-25T11:17:39Z</time>
      </trkpt>
      <trkpt lat="59.074859619140625" lon="30.007116794586182">
        <time>2026-04-25T11:17:42Z</time>
      </trkpt>
      <trkpt lat="59.074859619140625" lon="30.007073879241943">
        <time>2026-04-25T11:17:44Z</time>
      </trkpt>
      <trkpt lat="59.074859619140625" lon="30.007073879241943">
        <time>2026-04-25T11:17:47Z</time>
      </trkpt>
      <trkpt lat="59.074838161468506" lon="30.007202625274658">
        <time>2026-04-25T11:17:49Z</time>
      </trkpt>
      <trkpt lat="59.074795246124268" lon="30.007245540618896">
        <time>2026-04-25T11:17:52Z</time>
      </trkpt>
      <trkpt lat="59.074752330780029" lon="30.007202625274658">
        <time>2026-04-25T11:17:54Z</time>
      </trkpt>
      <trkpt lat="59.07473087310791" lon="30.00715970993042">
        <time>2026-04-25T11:17:57Z</time>
      </trkpt>
      <trkpt lat="59.074709415435791" lon="30.007095336914063">
        <time>2026-04-25T11:17:59Z</time>
      </trkpt>
      <trkpt lat="59.074709415435791" lon="30.007095336914063">
        <time>2026-04-25T11:18:02Z</time>
      </trkpt>
      <trkpt lat="59.074687957763672" lon="30.007073879241943">
        <time>2026-04-25T11:18:04Z</time>
      </trkpt>
      <trkpt lat="59.074687957763672" lon="30.007073879241943">
        <time>2026-04-25T11:18:07Z</time>
      </trkpt>
      <trkpt lat="59.074687957763672" lon="30.007073879241943">
        <time>2026-04-25T11:18:09Z</time>
      </trkpt>
      <trkpt lat="59.074687957763672" lon="30.007073879241943">
        <time>2026-04-25T11:18:12Z</time>
      </trkpt>
      <trkpt lat="59.074687957763672" lon="30.007073879241943">
        <time>2026-04-25T11:18:14Z</time>
      </trkpt>
      <trkpt lat="59.074687957763672" lon="30.007073879241943">
        <time>2026-04-25T11:18:17Z</time>
      </trkpt>
      <trkpt lat="59.074687957763672" lon="30.007073879241943">
        <time>2026-04-25T11:18:19Z</time>
      </trkpt>
      <trkpt lat="59.074687957763672" lon="30.007073879241943">
        <time>2026-04-25T11:18:22Z</time>
      </trkpt>
      <trkpt lat="59.074687957763672" lon="30.007095336914063">
        <time>2026-04-25T11:18:24Z</time>
      </trkpt>
      <trkpt lat="59.074709415435791" lon="30.007095336914063">
        <time>2026-04-25T11:18:27Z</time>
      </trkpt>
      <trkpt lat="59.074687957763672" lon="30.007073879241943">
        <time>2026-04-25T11:18:29Z</time>
      </trkpt>
      <trkpt lat="59.074666500091553" lon="30.007052421569824">
        <time>2026-04-25T11:18:32Z</time>
      </trkpt>
      <trkpt lat="59.074645042419434" lon="30.007009506225586">
        <time>2026-04-25T11:18:34Z</time>
      </trkpt>
      <trkpt lat="59.074645042419434" lon="30.007009506225586">
        <time>2026-04-25T11:18:37Z</time>
      </trkpt>
      <trkpt lat="59.074645042419434" lon="30.007009506225586">
        <time>2026-04-25T11:18:39Z</time>
      </trkpt>
      <trkpt lat="59.074645042419434" lon="30.007030963897705">
        <time>2026-04-25T11:18:42Z</time>
      </trkpt>
      <trkpt lat="59.074645042419434" lon="30.007030963897705">
        <time>2026-04-25T11:18:44Z</time>
      </trkpt>
      <trkpt lat="59.074666500091553" lon="30.007052421569824">
        <time>2026-04-25T11:18:47Z</time>
      </trkpt>
      <trkpt lat="59.074709415435791" lon="30.007073879241943">
        <time>2026-04-25T11:18:49Z</time>
      </trkpt>
      <trkpt lat="59.074709415435791" lon="30.007073879241943">
        <time>2026-04-25T11:18:52Z</time>
      </trkpt>
      <trkpt lat="59.074709415435791" lon="30.007073879241943">
        <time>2026-04-25T11:18:54Z</time>
      </trkpt>
      <trkpt lat="59.074687957763672" lon="30.007073879241943">
        <time>2026-04-25T11:18:57Z</time>
      </trkpt>
      <trkpt lat="59.074666500091553" lon="30.007030963897705">
        <time>2026-04-25T11:18:59Z</time>
      </trkpt>
      <trkpt lat="59.074645042419434" lon="30.007009506225586">
        <time>2026-04-25T11:19:02Z</time>
      </trkpt>
      <trkpt lat="59.074645042419434" lon="30.007030963897705">
        <time>2026-04-25T11:19:04Z</time>
      </trkpt>
      <trkpt lat="59.074645042419434" lon="30.007030963897705">
        <time>2026-04-25T11:19:07Z</time>
      </trkpt>
      <trkpt lat="59.074645042419434" lon="30.007030963897705">
        <time>2026-04-25T11:19:09Z</time>
      </trkpt>
      <trkpt lat="59.074645042419434" lon="30.007030963897705">
        <time>2026-04-25T11:19:12Z</time>
      </trkpt>
      <trkpt lat="59.074645042419434" lon="30.007030963897705">
        <time>2026-04-25T11:19:14Z</time>
      </trkpt>
      <trkpt lat="59.074645042419434" lon="30.007030963897705">
        <time>2026-04-25T11:19:17Z</time>
      </trkpt>
      <trkpt lat="59.074645042419434" lon="30.007030963897705">
        <time>2026-04-25T11:19:19Z</time>
      </trkpt>
      <trkpt lat="59.074645042419434" lon="30.007030963897705">
        <time>2026-04-25T11:19:22Z</time>
      </trkpt>
      <trkpt lat="59.074645042419434" lon="30.007030963897705">
        <time>2026-04-25T11:19:24Z</time>
      </trkpt>
      <trkpt lat="59.074645042419434" lon="30.007030963897705">
        <time>2026-04-25T11:19:27Z</time>
      </trkpt>
      <trkpt lat="59.074645042419434" lon="30.007030963897705">
        <time>2026-04-25T11:19:29Z</time>
      </trkpt>
      <trkpt lat="59.074645042419434" lon="30.007030963897705">
        <time>2026-04-25T11:19:32Z</time>
      </trkpt>
      <trkpt lat="59.074645042419434" lon="30.007030963897705">
        <time>2026-04-25T11:19:34Z</time>
      </trkpt>
      <trkpt lat="59.074645042419434" lon="30.007009506225586">
        <time>2026-04-25T11:19:37Z</time>
      </trkpt>
      <trkpt lat="59.074623584747314" lon="30.006988048553467">
        <time>2026-04-25T11:19:39Z</time>
      </trkpt>
      <trkpt lat="59.074645042419434" lon="30.007009506225586">
        <time>2026-04-25T11:19:42Z</time>
      </trkpt>
      <trkpt lat="59.074645042419434" lon="30.007030963897705">
        <time>2026-04-25T11:19:44Z</time>
      </trkpt>
      <trkpt lat="59.074666500091553" lon="30.007030963897705">
        <time>2026-04-25T11:19:47Z</time>
      </trkpt>
      <trkpt lat="59.074687957763672" lon="30.007073879241943">
        <time>2026-04-25T11:19:49Z</time>
      </trkpt>
      <trkpt lat="59.074687957763672" lon="30.007052421569824">
        <time>2026-04-25T11:19:52Z</time>
      </trkpt>
      <trkpt lat="59.074666500091553" lon="30.007030963897705">
        <time>2026-04-25T11:19:54Z</time>
      </trkpt>
      <trkpt lat="59.074623584747314" lon="30.007030963897705">
        <time>2026-04-25T11:19:57Z</time>
      </trkpt>
      <trkpt lat="59.074645042419434" lon="30.007030963897705">
        <time>2026-04-25T11:19:59Z</time>
      </trkpt>
      <trkpt lat="59.074645042419434" lon="30.007030963897705">
        <time>2026-04-25T11:20:02Z</time>
      </trkpt>
      <trkpt lat="59.074602127075195" lon="30.006988048553467">
        <time>2026-04-25T11:20:04Z</time>
      </trkpt>
      <trkpt lat="59.074623584747314" lon="30.007009506225586">
        <time>2026-04-25T11:20:07Z</time>
      </trkpt>
      <trkpt lat="59.074666500091553" lon="30.007030963897705">
        <time>2026-04-25T11:20:09Z</time>
      </trkpt>
      <trkpt lat="59.074687957763672" lon="30.007073879241943">
        <time>2026-04-25T11:20:12Z</time>
      </trkpt>
      <trkpt lat="59.07473087310791" lon="30.007138252258301">
        <time>2026-04-25T11:20:14Z</time>
      </trkpt>
      <trkpt lat="59.07473087310791" lon="30.007181167602539">
        <time>2026-04-25T11:20:17Z</time>
      </trkpt>
      <trkpt lat="59.07473087310791" lon="30.007202625274658">
        <time>2026-04-25T11:20:19Z</time>
      </trkpt>
      <trkpt lat="59.074709415435791" lon="30.00715970993042">
        <time>2026-04-25T11:20:22Z</time>
      </trkpt>
      <trkpt lat="59.074709415435791" lon="30.007138252258301">
        <time>2026-04-25T11:20:24Z</time>
      </trkpt>
      <trkpt lat="59.074709415435791" lon="30.007116794586182">
        <time>2026-04-25T11:20:27Z</time>
      </trkpt>
      <trkpt lat="59.074645042419434" lon="30.006988048553467">
        <time>2026-04-25T11:20:29Z</time>
      </trkpt>
      <trkpt lat="59.074645042419434" lon="30.006966590881348">
        <time>2026-04-25T11:20:32Z</time>
      </trkpt>
      <trkpt lat="59.074666500091553" lon="30.007030963897705">
        <time>2026-04-25T11:20:34Z</time>
      </trkpt>
      <trkpt lat="59.074709415435791" lon="30.007116794586182">
        <time>2026-04-25T11:20:37Z</time>
      </trkpt>
      <trkpt lat="59.07473087310791" lon="30.007030963897705">
        <time>2026-04-25T11:20:39Z</time>
      </trkpt>
      <trkpt lat="59.07473087310791" lon="30.006988048553467">
        <time>2026-04-25T11:20:42Z</time>
      </trkpt>
      <trkpt lat="59.07473087310791" lon="30.006988048553467">
        <time>2026-04-25T11:20:44Z</time>
      </trkpt>
      <trkpt lat="59.07473087310791" lon="30.007030963897705">
        <time>2026-04-25T11:20:47Z</time>
      </trkpt>
      <trkpt lat="59.074687957763672" lon="30.007073879241943">
        <time>2026-04-25T11:20:49Z</time>
      </trkpt>
      <trkpt lat="59.074645042419434" lon="30.007030963897705">
        <time>2026-04-25T11:20:52Z</time>
      </trkpt>
      <trkpt lat="59.074580669403076" lon="30.006966590881348">
        <time>2026-04-25T11:20:54Z</time>
      </trkpt>
      <trkpt lat="59.074602127075195" lon="30.007009506225586">
        <time>2026-04-25T11:20:57Z</time>
      </trkpt>
      <trkpt lat="59.074666500091553" lon="30.007052421569824">
        <time>2026-04-25T11:20:59Z</time>
      </trkpt>
      <trkpt lat="59.074666500091553" lon="30.007052421569824">
        <time>2026-04-25T11:21:02Z</time>
      </trkpt>
      <trkpt lat="59.074645042419434" lon="30.006945133209229">
        <time>2026-04-25T11:21:04Z</time>
      </trkpt>
      <trkpt lat="59.074623584747314" lon="30.006859302520752">
        <time>2026-04-25T11:21:07Z</time>
      </trkpt>
      <trkpt lat="59.074623584747314" lon="30.006752014160156">
        <time>2026-04-25T11:21:09Z</time>
      </trkpt>
      <trkpt lat="59.074623584747314" lon="30.006752014160156">
        <time>2026-04-25T11:21:12Z</time>
      </trkpt>
      <trkpt lat="59.074580669403076" lon="30.006687641143799">
        <time>2026-04-25T11:21:14Z</time>
      </trkpt>
      <trkpt lat="59.074580669403076" lon="30.006644725799561">
        <time>2026-04-25T11:21:17Z</time>
      </trkpt>
      <trkpt lat="59.074580669403076" lon="30.006644725799561">
        <time>2026-04-25T11:21:19Z</time>
      </trkpt>
      <trkpt lat="59.074580669403076" lon="30.006644725799561">
        <time>2026-04-25T11:21:22Z</time>
      </trkpt>
      <trkpt lat="59.074580669403076" lon="30.00666618347168">
        <time>2026-04-25T11:21:24Z</time>
      </trkpt>
      <trkpt lat="59.074580669403076" lon="30.006644725799561">
        <time>2026-04-25T11:21:27Z</time>
      </trkpt>
      <trkpt lat="59.074537754058838" lon="30.006601810455322">
        <time>2026-04-25T11:21:29Z</time>
      </trkpt>
      <trkpt lat="59.074537754058838" lon="30.006601810455322">
        <time>2026-04-25T11:21:32Z</time>
      </trkpt>
      <trkpt lat="59.074537754058838" lon="30.006558895111084">
        <time>2026-04-25T11:21:34Z</time>
      </trkpt>
      <trkpt lat="59.074559211730957" lon="30.006494522094727">
        <time>2026-04-25T11:21:37Z</time>
      </trkpt>
      <trkpt lat="59.074537754058838" lon="30.006387233734131">
        <time>2026-04-25T11:21:39Z</time>
      </trkpt>
      <trkpt lat="59.074516296386719" lon="30.006322860717773">
        <time>2026-04-25T11:21:42Z</time>
      </trkpt>
      <trkpt lat="59.074516296386719" lon="30.006365776062012">
        <time>2026-04-25T11:21:44Z</time>
      </trkpt>
      <trkpt lat="59.074537754058838" lon="30.006473064422607">
        <time>2026-04-25T11:21:47Z</time>
      </trkpt>
      <trkpt lat="59.074537754058838" lon="30.006601810455322">
        <time>2026-04-25T11:21:49Z</time>
      </trkpt>
      <trkpt lat="59.074537754058838" lon="30.006537437438965">
        <time>2026-04-25T11:21:52Z</time>
      </trkpt>
      <trkpt lat="59.074537754058838" lon="30.00640869140625">
        <time>2026-04-25T11:21:54Z</time>
      </trkpt>
      <trkpt lat="59.074537754058838" lon="30.006322860717773">
        <time>2026-04-25T11:21:57Z</time>
      </trkpt>
      <trkpt lat="59.074516296386719" lon="30.006237030029297">
        <time>2026-04-25T11:21:59Z</time>
      </trkpt>
      <trkpt lat="59.0744948387146" lon="30.006237030029297">
        <time>2026-04-25T11:22:02Z</time>
      </trkpt>
      <trkpt lat="59.0744948387146" lon="30.006237030029297">
        <time>2026-04-25T11:22:04Z</time>
      </trkpt>
      <trkpt lat="59.0744948387146" lon="30.006237030029297">
        <time>2026-04-25T11:22:07Z</time>
      </trkpt>
      <trkpt lat="59.074537754058838" lon="30.006194114685059">
        <time>2026-04-25T11:22:09Z</time>
      </trkpt>
      <trkpt lat="59.074537754058838" lon="30.006129741668701">
        <time>2026-04-25T11:22:12Z</time>
      </trkpt>
      <trkpt lat="59.074537754058838" lon="30.006086826324463">
        <time>2026-04-25T11:22:14Z</time>
      </trkpt>
      <trkpt lat="59.074537754058838" lon="30.006086826324463">
        <time>2026-04-25T11:22:17Z</time>
      </trkpt>
      <trkpt lat="59.074559211730957" lon="30.006086826324463">
        <time>2026-04-25T11:22:19Z</time>
      </trkpt>
      <trkpt lat="59.074537754058838" lon="30.006065368652344">
        <time>2026-04-25T11:22:22Z</time>
      </trkpt>
      <trkpt lat="59.074516296386719" lon="30.006000995635986">
        <time>2026-04-25T11:22:24Z</time>
      </trkpt>
      <trkpt lat="59.074516296386719" lon="30.005958080291748">
        <time>2026-04-25T11:22:27Z</time>
      </trkpt>
      <trkpt lat="59.074516296386719" lon="30.00591516494751">
        <time>2026-04-25T11:22:29Z</time>
      </trkpt>
      <trkpt lat="59.0744948387146" lon="30.005893707275391">
        <time>2026-04-25T11:22:32Z</time>
      </trkpt>
      <trkpt lat="59.07447338104248" lon="30.005850791931152">
        <time>2026-04-25T11:22:34Z</time>
      </trkpt>
      <trkpt lat="59.0744948387146" lon="30.005829334259033">
        <time>2026-04-25T11:22:37Z</time>
      </trkpt>
      <trkpt lat="59.074516296386719" lon="30.005764961242676">
        <time>2026-04-25T11:22:39Z</time>
      </trkpt>
      <trkpt lat="59.074516296386719" lon="30.005722045898438">
        <time>2026-04-25T11:22:42Z</time>
      </trkpt>
      <trkpt lat="59.074537754058838" lon="30.00565767288208">
        <time>2026-04-25T11:22:44Z</time>
      </trkpt>
      <trkpt lat="59.074537754058838" lon="30.005636215209961">
        <time>2026-04-25T11:22:47Z</time>
      </trkpt>
      <trkpt lat="59.074516296386719" lon="30.005614757537842">
        <time>2026-04-25T11:22:49Z</time>
      </trkpt>
      <trkpt lat="59.074516296386719" lon="30.005636215209961">
        <time>2026-04-25T11:22:52Z</time>
      </trkpt>
      <trkpt lat="59.0744948387146" lon="30.00565767288208">
        <time>2026-04-25T11:22:54Z</time>
      </trkpt>
      <trkpt lat="59.0744948387146" lon="30.00565767288208">
        <time>2026-04-25T11:22:57Z</time>
      </trkpt>
      <trkpt lat="59.0744948387146" lon="30.005636215209961">
        <time>2026-04-25T11:22:59Z</time>
      </trkpt>
      <trkpt lat="59.0744948387146" lon="30.005636215209961">
        <time>2026-04-25T11:23:02Z</time>
      </trkpt>
      <trkpt lat="59.0744948387146" lon="30.005636215209961">
        <time>2026-04-25T11:23:04Z</time>
      </trkpt>
      <trkpt lat="59.07447338104248" lon="30.005636215209961">
        <time>2026-04-25T11:23:07Z</time>
      </trkpt>
      <trkpt lat="59.074451923370361" lon="30.005571842193604">
        <time>2026-04-25T11:23:09Z</time>
      </trkpt>
      <trkpt lat="59.074430465698242" lon="30.005550384521484">
        <time>2026-04-25T11:23:12Z</time>
      </trkpt>
      <trkpt lat="59.074409008026123" lon="30.005486011505127">
        <time>2026-04-25T11:23:14Z</time>
      </trkpt>
      <trkpt lat="59.074409008026123" lon="30.005486011505127">
        <time>2026-04-25T11:23:17Z</time>
      </trkpt>
      <trkpt lat="59.074409008026123" lon="30.005486011505127">
        <time>2026-04-25T11:23:19Z</time>
      </trkpt>
      <trkpt lat="59.074409008026123" lon="30.005486011505127">
        <time>2026-04-25T11:23:22Z</time>
      </trkpt>
      <trkpt lat="59.074387550354004" lon="30.005486011505127">
        <time>2026-04-25T11:23:24Z</time>
      </trkpt>
      <trkpt lat="59.074366092681885" lon="30.005464553833008">
        <time>2026-04-25T11:23:27Z</time>
      </trkpt>
      <trkpt lat="59.074366092681885" lon="30.005443096160889">
        <time>2026-04-25T11:23:29Z</time>
      </trkpt>
      <trkpt lat="59.074387550354004" lon="30.00542163848877">
        <time>2026-04-25T11:23:32Z</time>
      </trkpt>
      <trkpt lat="59.074409008026123" lon="30.005314350128174">
        <time>2026-04-25T11:23:34Z</time>
      </trkpt>
      <trkpt lat="59.074409008026123" lon="30.005249977111816">
        <time>2026-04-25T11:23:37Z</time>
      </trkpt>
      <trkpt lat="59.074409008026123" lon="30.005228519439697">
        <time>2026-04-25T11:23:39Z</time>
      </trkpt>
      <trkpt lat="59.074409008026123" lon="30.005228519439697">
        <time>2026-04-25T11:23:42Z</time>
      </trkpt>
      <trkpt lat="59.074387550354004" lon="30.00516414642334">
        <time>2026-04-25T11:23:44Z</time>
      </trkpt>
      <trkpt lat="59.074387550354004" lon="30.005121231079102">
        <time>2026-04-25T11:23:47Z</time>
      </trkpt>
      <trkpt lat="59.074387550354004" lon="30.005078315734863">
        <time>2026-04-25T11:23:49Z</time>
      </trkpt>
      <trkpt lat="59.074387550354004" lon="30.005056858062744">
        <time>2026-04-25T11:23:52Z</time>
      </trkpt>
      <trkpt lat="59.074387550354004" lon="30.005035400390625">
        <time>2026-04-25T11:23:54Z</time>
      </trkpt>
      <trkpt lat="59.074387550354004" lon="30.005035400390625">
        <time>2026-04-25T11:23:57Z</time>
      </trkpt>
      <trkpt lat="59.074387550354004" lon="30.005035400390625">
        <time>2026-04-25T11:23:59Z</time>
      </trkpt>
      <trkpt lat="59.074387550354004" lon="30.005035400390625">
        <time>2026-04-25T11:24:02Z</time>
      </trkpt>
      <trkpt lat="59.074409008026123" lon="30.005013942718506">
        <time>2026-04-25T11:24:04Z</time>
      </trkpt>
      <trkpt lat="59.074430465698242" lon="30.004971027374268">
        <time>2026-04-25T11:24:07Z</time>
      </trkpt>
      <trkpt lat="59.074409008026123" lon="30.004928112030029">
        <time>2026-04-25T11:24:09Z</time>
      </trkpt>
      <trkpt lat="59.074409008026123" lon="30.00490665435791">
        <time>2026-04-25T11:24:12Z</time>
      </trkpt>
      <trkpt lat="59.074409008026123" lon="30.00490665435791">
        <time>2026-04-25T11:24:14Z</time>
      </trkpt>
      <trkpt lat="59.074409008026123" lon="30.00490665435791">
        <time>2026-04-25T11:24:17Z</time>
      </trkpt>
      <trkpt lat="59.074409008026123" lon="30.00490665435791">
        <time>2026-04-25T11:24:19Z</time>
      </trkpt>
      <trkpt lat="59.074409008026123" lon="30.00490665435791">
        <time>2026-04-25T11:24:22Z</time>
      </trkpt>
      <trkpt lat="59.074409008026123" lon="30.00490665435791">
        <time>2026-04-25T11:24:24Z</time>
      </trkpt>
      <trkpt lat="59.074409008026123" lon="30.00490665435791">
        <time>2026-04-25T11:24:27Z</time>
      </trkpt>
      <trkpt lat="59.074409008026123" lon="30.00490665435791">
        <time>2026-04-25T11:24:29Z</time>
      </trkpt>
      <trkpt lat="59.074366092681885" lon="30.00490665435791">
        <time>2026-04-25T11:24:32Z</time>
      </trkpt>
      <trkpt lat="59.074344635009766" lon="30.004885196685791">
        <time>2026-04-25T11:24:34Z</time>
      </trkpt>
      <trkpt lat="59.074344635009766" lon="30.004842281341553">
        <time>2026-04-25T11:24:37Z</time>
      </trkpt>
      <trkpt lat="59.074344635009766" lon="30.004863739013672">
        <time>2026-04-25T11:24:39Z</time>
      </trkpt>
      <trkpt lat="59.074366092681885" lon="30.00490665435791">
        <time>2026-04-25T11:24:42Z</time>
      </trkpt>
      <trkpt lat="59.074409008026123" lon="30.00490665435791">
        <time>2026-04-25T11:24:44Z</time>
      </trkpt>
      <trkpt lat="59.074430465698242" lon="30.004949569702148">
        <time>2026-04-25T11:24:47Z</time>
      </trkpt>
      <trkpt lat="59.074409008026123" lon="30.00490665435791">
        <time>2026-04-25T11:24:49Z</time>
      </trkpt>
      <trkpt lat="59.074409008026123" lon="30.00490665435791">
        <time>2026-04-25T11:24:52Z</time>
      </trkpt>
      <trkpt lat="59.074387550354004" lon="30.00490665435791">
        <time>2026-04-25T11:24:54Z</time>
      </trkpt>
      <trkpt lat="59.074387550354004" lon="30.004928112030029">
        <time>2026-04-25T11:24:57Z</time>
      </trkpt>
      <trkpt lat="59.074366092681885" lon="30.004949569702148">
        <time>2026-04-25T11:24:59Z</time>
      </trkpt>
      <trkpt lat="59.074366092681885" lon="30.004949569702148">
        <time>2026-04-25T11:25:02Z</time>
      </trkpt>
      <trkpt lat="59.074366092681885" lon="30.00490665435791">
        <time>2026-04-25T11:25:04Z</time>
      </trkpt>
      <trkpt lat="59.074344635009766" lon="30.004928112030029">
        <time>2026-04-25T11:25:07Z</time>
      </trkpt>
      <trkpt lat="59.074301719665527" lon="30.004928112030029">
        <time>2026-04-25T11:25:09Z</time>
      </trkpt>
      <trkpt lat="59.074301719665527" lon="30.004949569702148">
        <time>2026-04-25T11:25:12Z</time>
      </trkpt>
      <trkpt lat="59.074280261993408" lon="30.004971027374268">
        <time>2026-04-25T11:25:14Z</time>
      </trkpt>
      <trkpt lat="59.074258804321289" lon="30.005013942718506">
        <time>2026-04-25T11:25:17Z</time>
      </trkpt>
      <trkpt lat="59.074258804321289" lon="30.005035400390625">
        <time>2026-04-25T11:25:19Z</time>
      </trkpt>
      <trkpt lat="59.074258804321289" lon="30.005056858062744">
        <time>2026-04-25T11:25:22Z</time>
      </trkpt>
      <trkpt lat="59.07423734664917" lon="30.005121231079102">
        <time>2026-04-25T11:25:24Z</time>
      </trkpt>
      <trkpt lat="59.074215888977051" lon="30.005142688751221">
        <time>2026-04-25T11:25:27Z</time>
      </trkpt>
      <trkpt lat="59.074215888977051" lon="30.005142688751221">
        <time>2026-04-25T11:25:29Z</time>
      </trkpt>
      <trkpt lat="59.074215888977051" lon="30.005142688751221">
        <time>2026-04-25T11:25:32Z</time>
      </trkpt>
      <trkpt lat="59.074215888977051" lon="30.005142688751221">
        <time>2026-04-25T11:25:34Z</time>
      </trkpt>
      <trkpt lat="59.074215888977051" lon="30.005142688751221">
        <time>2026-04-25T11:25:37Z</time>
      </trkpt>
      <trkpt lat="59.074215888977051" lon="30.005142688751221">
        <time>2026-04-25T11:25:39Z</time>
      </trkpt>
      <trkpt lat="59.074215888977051" lon="30.00516414642334">
        <time>2026-04-25T11:25:42Z</time>
      </trkpt>
      <trkpt lat="59.074215888977051" lon="30.005185604095459">
        <time>2026-04-25T11:25:44Z</time>
      </trkpt>
      <trkpt lat="59.074215888977051" lon="30.005185604095459">
        <time>2026-04-25T11:25:47Z</time>
      </trkpt>
      <trkpt lat="59.074215888977051" lon="30.005185604095459">
        <time>2026-04-25T11:25:49Z</time>
      </trkpt>
      <trkpt lat="59.074215888977051" lon="30.005185604095459">
        <time>2026-04-25T11:25:52Z</time>
      </trkpt>
      <trkpt lat="59.074215888977051" lon="30.005185604095459">
        <time>2026-04-25T11:25:54Z</time>
      </trkpt>
      <trkpt lat="59.074215888977051" lon="30.005185604095459">
        <time>2026-04-25T11:25:57Z</time>
      </trkpt>
      <trkpt lat="59.074215888977051" lon="30.005185604095459">
        <time>2026-04-25T11:25:59Z</time>
      </trkpt>
      <trkpt lat="59.074215888977051" lon="30.005185604095459">
        <time>2026-04-25T11:26:02Z</time>
      </trkpt>
      <trkpt lat="59.074215888977051" lon="30.005185604095459">
        <time>2026-04-25T11:26:04Z</time>
      </trkpt>
      <trkpt lat="59.074215888977051" lon="30.005185604095459">
        <time>2026-04-25T11:26:07Z</time>
      </trkpt>
      <trkpt lat="59.074215888977051" lon="30.005185604095459">
        <time>2026-04-25T11:26:09Z</time>
      </trkpt>
      <trkpt lat="59.074215888977051" lon="30.005185604095459">
        <time>2026-04-25T11:26:12Z</time>
      </trkpt>
      <trkpt lat="59.074215888977051" lon="30.005185604095459">
        <time>2026-04-25T11:26:14Z</time>
      </trkpt>
      <trkpt lat="59.074215888977051" lon="30.005185604095459">
        <time>2026-04-25T11:26:17Z</time>
      </trkpt>
      <trkpt lat="59.074172973632813" lon="30.005207061767578">
        <time>2026-04-25T11:26:19Z</time>
      </trkpt>
      <trkpt lat="59.074151515960693" lon="30.005207061767578">
        <time>2026-04-25T11:26:22Z</time>
      </trkpt>
      <trkpt lat="59.074108600616455" lon="30.00516414642334">
        <time>2026-04-25T11:26:24Z</time>
      </trkpt>
      <trkpt lat="59.074087142944336" lon="30.005142688751221">
        <time>2026-04-25T11:26:27Z</time>
      </trkpt>
      <trkpt lat="59.074087142944336" lon="30.005142688751221">
        <time>2026-04-25T11:26:29Z</time>
      </trkpt>
      <trkpt lat="59.074087142944336" lon="30.005142688751221">
        <time>2026-04-25T11:26:32Z</time>
      </trkpt>
      <trkpt lat="59.074087142944336" lon="30.005142688751221">
        <time>2026-04-25T11:26:34Z</time>
      </trkpt>
      <trkpt lat="59.074087142944336" lon="30.005142688751221">
        <time>2026-04-25T11:26:37Z</time>
      </trkpt>
      <trkpt lat="59.074087142944336" lon="30.005142688751221">
        <time>2026-04-25T11:26:39Z</time>
      </trkpt>
      <trkpt lat="59.074087142944336" lon="30.005142688751221">
        <time>2026-04-25T11:26:42Z</time>
      </trkpt>
      <trkpt lat="59.074087142944336" lon="30.005142688751221">
        <time>2026-04-25T11:26:44Z</time>
      </trkpt>
      <trkpt lat="59.074087142944336" lon="30.005142688751221">
        <time>2026-04-25T11:26:47Z</time>
      </trkpt>
      <trkpt lat="59.074087142944336" lon="30.005142688751221">
        <time>2026-04-25T11:26:49Z</time>
      </trkpt>
      <trkpt lat="59.074087142944336" lon="30.005142688751221">
        <time>2026-04-25T11:26:52Z</time>
      </trkpt>
      <trkpt lat="59.074087142944336" lon="30.005142688751221">
        <time>2026-04-25T11:26:54Z</time>
      </trkpt>
      <trkpt lat="59.074087142944336" lon="30.005142688751221">
        <time>2026-04-25T11:26:57Z</time>
      </trkpt>
      <trkpt lat="59.074087142944336" lon="30.005142688751221">
        <time>2026-04-25T11:26:59Z</time>
      </trkpt>
      <trkpt lat="59.074087142944336" lon="30.005142688751221">
        <time>2026-04-25T11:27:02Z</time>
      </trkpt>
      <trkpt lat="59.074087142944336" lon="30.005142688751221">
        <time>2026-04-25T11:27:04Z</time>
      </trkpt>
      <trkpt lat="59.074087142944336" lon="30.005142688751221">
        <time>2026-04-25T11:27:07Z</time>
      </trkpt>
      <trkpt lat="59.074087142944336" lon="30.005142688751221">
        <time>2026-04-25T11:27:09Z</time>
      </trkpt>
      <trkpt lat="59.074087142944336" lon="30.005142688751221">
        <time>2026-04-25T11:27:12Z</time>
      </trkpt>
      <trkpt lat="59.074087142944336" lon="30.005142688751221">
        <time>2026-04-25T11:27:14Z</time>
      </trkpt>
      <trkpt lat="59.074087142944336" lon="30.005142688751221">
        <time>2026-04-25T11:27:17Z</time>
      </trkpt>
      <trkpt lat="59.074087142944336" lon="30.005142688751221">
        <time>2026-04-25T11:27:19Z</time>
      </trkpt>
      <trkpt lat="59.074087142944336" lon="30.005142688751221">
        <time>2026-04-25T11:27:22Z</time>
      </trkpt>
      <trkpt lat="59.074087142944336" lon="30.005142688751221">
        <time>2026-04-25T11:27:24Z</time>
      </trkpt>
      <trkpt lat="59.074087142944336" lon="30.005121231079102">
        <time>2026-04-25T11:27:27Z</time>
      </trkpt>
      <trkpt lat="59.074087142944336" lon="30.005121231079102">
        <time>2026-04-25T11:27:29Z</time>
      </trkpt>
      <trkpt lat="59.074087142944336" lon="30.005121231079102">
        <time>2026-04-25T11:27:32Z</time>
      </trkpt>
      <trkpt lat="59.074087142944336" lon="30.005121231079102">
        <time>2026-04-25T11:27:34Z</time>
      </trkpt>
      <trkpt lat="59.074087142944336" lon="30.005121231079102">
        <time>2026-04-25T11:27:37Z</time>
      </trkpt>
      <trkpt lat="59.074087142944336" lon="30.005121231079102">
        <time>2026-04-25T11:27:39Z</time>
      </trkpt>
      <trkpt lat="59.074087142944336" lon="30.005121231079102">
        <time>2026-04-25T11:27:42Z</time>
      </trkpt>
      <trkpt lat="59.074108600616455" lon="30.005121231079102">
        <time>2026-04-25T11:27:44Z</time>
      </trkpt>
      <trkpt lat="59.074130058288574" lon="30.005121231079102">
        <time>2026-04-25T11:27:47Z</time>
      </trkpt>
      <trkpt lat="59.074130058288574" lon="30.005121231079102">
        <time>2026-04-25T11:27:49Z</time>
      </trkpt>
      <trkpt lat="59.074130058288574" lon="30.005121231079102">
        <time>2026-04-25T11:27:52Z</time>
      </trkpt>
      <trkpt lat="59.074130058288574" lon="30.005121231079102">
        <time>2026-04-25T11:27:54Z</time>
      </trkpt>
      <trkpt lat="59.074130058288574" lon="30.005121231079102">
        <time>2026-04-25T11:27:57Z</time>
      </trkpt>
      <trkpt lat="59.074194431304932" lon="30.005099773406982">
        <time>2026-04-25T11:27:59Z</time>
      </trkpt>
      <trkpt lat="59.074215888977051" lon="30.005078315734863">
        <time>2026-04-25T11:28:02Z</time>
      </trkpt>
      <trkpt lat="59.074215888977051" lon="30.005078315734863">
        <time>2026-04-25T11:28:04Z</time>
      </trkpt>
      <trkpt lat="59.074215888977051" lon="30.005078315734863">
        <time>2026-04-25T11:28:07Z</time>
      </trkpt>
      <trkpt lat="59.074215888977051" lon="30.005078315734863">
        <time>2026-04-25T11:28:09Z</time>
      </trkpt>
      <trkpt lat="59.074215888977051" lon="30.005099773406982">
        <time>2026-04-25T11:28:12Z</time>
      </trkpt>
      <trkpt lat="59.074172973632813" lon="30.005099773406982">
        <time>2026-04-25T11:28:14Z</time>
      </trkpt>
      <trkpt lat="59.074151515960693" lon="30.005121231079102">
        <time>2026-04-25T11:28:17Z</time>
      </trkpt>
      <trkpt lat="59.074087142944336" lon="30.005142688751221">
        <time>2026-04-25T11:28:19Z</time>
      </trkpt>
      <trkpt lat="59.074087142944336" lon="30.00516414642334">
        <time>2026-04-25T11:28:22Z</time>
      </trkpt>
      <trkpt lat="59.074087142944336" lon="30.00516414642334">
        <time>2026-04-25T11:28:24Z</time>
      </trkpt>
      <trkpt lat="59.074087142944336" lon="30.005142688751221">
        <time>2026-04-25T11:28:27Z</time>
      </trkpt>
      <trkpt lat="59.074065685272217" lon="30.005185604095459">
        <time>2026-04-25T11:28:29Z</time>
      </trkpt>
      <trkpt lat="59.074044227600098" lon="30.005249977111816">
        <time>2026-04-25T11:28:32Z</time>
      </trkpt>
      <trkpt lat="59.074065685272217" lon="30.005357265472412">
        <time>2026-04-25T11:28:34Z</time>
      </trkpt>
      <trkpt lat="59.074065685272217" lon="30.00540018081665">
        <time>2026-04-25T11:28:37Z</time>
      </trkpt>
      <trkpt lat="59.074022769927979" lon="30.00542163848877">
        <time>2026-04-25T11:28:39Z</time>
      </trkpt>
      <trkpt lat="59.074022769927979" lon="30.00542163848877">
        <time>2026-04-25T11:28:42Z</time>
      </trkpt>
      <trkpt lat="59.074001312255859" lon="30.00540018081665">
        <time>2026-04-25T11:28:44Z</time>
      </trkpt>
      <trkpt lat="59.074001312255859" lon="30.00542163848877">
        <time>2026-04-25T11:28:47Z</time>
      </trkpt>
      <trkpt lat="59.074001312255859" lon="30.00542163848877">
        <time>2026-04-25T11:28:49Z</time>
      </trkpt>
      <trkpt lat="59.074001312255859" lon="30.00542163848877">
        <time>2026-04-25T11:28:52Z</time>
      </trkpt>
      <trkpt lat="59.074022769927979" lon="30.00542163848877">
        <time>2026-04-25T11:28:54Z</time>
      </trkpt>
      <trkpt lat="59.074065685272217" lon="30.005378723144531">
        <time>2026-04-25T11:28:57Z</time>
      </trkpt>
      <trkpt lat="59.074065685272217" lon="30.005292892456055">
        <time>2026-04-25T11:28:59Z</time>
      </trkpt>
      <trkpt lat="59.074065685272217" lon="30.005228519439697">
        <time>2026-04-25T11:29:02Z</time>
      </trkpt>
      <trkpt lat="59.074087142944336" lon="30.005142688751221">
        <time>2026-04-25T11:29:04Z</time>
      </trkpt>
      <trkpt lat="59.074087142944336" lon="30.005142688751221">
        <time>2026-04-25T11:29:07Z</time>
      </trkpt>
      <trkpt lat="59.074065685272217" lon="30.005207061767578">
        <time>2026-04-25T11:29:09Z</time>
      </trkpt>
      <trkpt lat="59.074065685272217" lon="30.005271434783936">
        <time>2026-04-25T11:29:12Z</time>
      </trkpt>
      <trkpt lat="59.074065685272217" lon="30.00540018081665">
        <time>2026-04-25T11:29:14Z</time>
      </trkpt>
      <trkpt lat="59.074065685272217" lon="30.005464553833008">
        <time>2026-04-25T11:29:17Z</time>
      </trkpt>
      <trkpt lat="59.074087142944336" lon="30.005528926849365">
        <time>2026-04-25T11:29:19Z</time>
      </trkpt>
      <trkpt lat="59.074108600616455" lon="30.005571842193604">
        <time>2026-04-25T11:29:22Z</time>
      </trkpt>
      <trkpt lat="59.074108600616455" lon="30.005571842193604">
        <time>2026-04-25T11:29:24Z</time>
      </trkpt>
      <trkpt lat="59.074108600616455" lon="30.005593299865723">
        <time>2026-04-25T11:29:27Z</time>
      </trkpt>
      <trkpt lat="59.074108600616455" lon="30.005593299865723">
        <time>2026-04-25T11:29:29Z</time>
      </trkpt>
      <trkpt lat="59.074108600616455" lon="30.005614757537842">
        <time>2026-04-25T11:29:32Z</time>
      </trkpt>
      <trkpt lat="59.074108600616455" lon="30.005636215209961">
        <time>2026-04-25T11:29:34Z</time>
      </trkpt>
      <trkpt lat="59.074108600616455" lon="30.005636215209961">
        <time>2026-04-25T11:29:37Z</time>
      </trkpt>
      <trkpt lat="59.074108600616455" lon="30.005636215209961">
        <time>2026-04-25T11:29:39Z</time>
      </trkpt>
      <trkpt lat="59.074130058288574" lon="30.005614757537842">
        <time>2026-04-25T11:29:42Z</time>
      </trkpt>
      <trkpt lat="59.074130058288574" lon="30.005614757537842">
        <time>2026-04-25T11:29:44Z</time>
      </trkpt>
      <trkpt lat="59.074130058288574" lon="30.005614757537842">
        <time>2026-04-25T11:29:47Z</time>
      </trkpt>
      <trkpt lat="59.074130058288574" lon="30.005593299865723">
        <time>2026-04-25T11:29:49Z</time>
      </trkpt>
      <trkpt lat="59.074130058288574" lon="30.005593299865723">
        <time>2026-04-25T11:29:52Z</time>
      </trkpt>
      <trkpt lat="59.074130058288574" lon="30.005507469177246">
        <time>2026-04-25T11:29:54Z</time>
      </trkpt>
      <trkpt lat="59.074151515960693" lon="30.005464553833008">
        <time>2026-04-25T11:29:57Z</time>
      </trkpt>
      <trkpt lat="59.074172973632813" lon="30.005464553833008">
        <time>2026-04-25T11:29:59Z</time>
      </trkpt>
      <trkpt lat="59.074172973632813" lon="30.005464553833008">
        <time>2026-04-25T11:30:02Z</time>
      </trkpt>
      <trkpt lat="59.074194431304932" lon="30.005464553833008">
        <time>2026-04-25T11:30:04Z</time>
      </trkpt>
      <trkpt lat="59.074194431304932" lon="30.005464553833008">
        <time>2026-04-25T11:30:07Z</time>
      </trkpt>
      <trkpt lat="59.074194431304932" lon="30.005464553833008">
        <time>2026-04-25T11:30:09Z</time>
      </trkpt>
      <trkpt lat="59.074215888977051" lon="30.005443096160889">
        <time>2026-04-25T11:30:12Z</time>
      </trkpt>
      <trkpt lat="59.074215888977051" lon="30.00542163848877">
        <time>2026-04-25T11:30:14Z</time>
      </trkpt>
      <trkpt lat="59.074215888977051" lon="30.005464553833008">
        <time>2026-04-25T11:30:17Z</time>
      </trkpt>
      <trkpt lat="59.074194431304932" lon="30.005464553833008">
        <time>2026-04-25T11:30:19Z</time>
      </trkpt>
      <trkpt lat="59.074172973632813" lon="30.005507469177246">
        <time>2026-04-25T11:30:22Z</time>
      </trkpt>
      <trkpt lat="59.074172973632813" lon="30.005507469177246">
        <time>2026-04-25T11:30:24Z</time>
      </trkpt>
      <trkpt lat="59.074172973632813" lon="30.005486011505127">
        <time>2026-04-25T11:30:27Z</time>
      </trkpt>
      <trkpt lat="59.074172973632813" lon="30.005486011505127">
        <time>2026-04-25T11:30:29Z</time>
      </trkpt>
      <trkpt lat="59.074172973632813" lon="30.005486011505127">
        <time>2026-04-25T11:30:32Z</time>
      </trkpt>
      <trkpt lat="59.074172973632813" lon="30.005486011505127">
        <time>2026-04-25T11:30:34Z</time>
      </trkpt>
      <trkpt lat="59.074172973632813" lon="30.005486011505127">
        <time>2026-04-25T11:30:37Z</time>
      </trkpt>
      <trkpt lat="59.074172973632813" lon="30.005486011505127">
        <time>2026-04-25T11:30:39Z</time>
      </trkpt>
      <trkpt lat="59.074172973632813" lon="30.005486011505127">
        <time>2026-04-25T11:30:42Z</time>
      </trkpt>
      <trkpt lat="59.074172973632813" lon="30.005486011505127">
        <time>2026-04-25T11:30:44Z</time>
      </trkpt>
      <trkpt lat="59.074172973632813" lon="30.005486011505127">
        <time>2026-04-25T11:30:47Z</time>
      </trkpt>
      <trkpt lat="59.074172973632813" lon="30.005486011505127">
        <time>2026-04-25T11:30:49Z</time>
      </trkpt>
      <trkpt lat="59.074172973632813" lon="30.005486011505127">
        <time>2026-04-25T11:30:52Z</time>
      </trkpt>
      <trkpt lat="59.074172973632813" lon="30.005486011505127">
        <time>2026-04-25T11:30:54Z</time>
      </trkpt>
      <trkpt lat="59.074172973632813" lon="30.005464553833008">
        <time>2026-04-25T11:30:57Z</time>
      </trkpt>
      <trkpt lat="59.074172973632813" lon="30.005486011505127">
        <time>2026-04-25T11:30:59Z</time>
      </trkpt>
      <trkpt lat="59.074172973632813" lon="30.005486011505127">
        <time>2026-04-25T11:31:02Z</time>
      </trkpt>
      <trkpt lat="59.074172973632813" lon="30.005507469177246">
        <time>2026-04-25T11:31:04Z</time>
      </trkpt>
      <trkpt lat="59.074151515960693" lon="30.005528926849365">
        <time>2026-04-25T11:31:07Z</time>
      </trkpt>
      <trkpt lat="59.074172973632813" lon="30.005528926849365">
        <time>2026-04-25T11:31:09Z</time>
      </trkpt>
      <trkpt lat="59.074172973632813" lon="30.005464553833008">
        <time>2026-04-25T11:31:12Z</time>
      </trkpt>
      <trkpt lat="59.074194431304932" lon="30.005486011505127">
        <time>2026-04-25T11:31:14Z</time>
      </trkpt>
      <trkpt lat="59.074194431304932" lon="30.005486011505127">
        <time>2026-04-25T11:31:17Z</time>
      </trkpt>
      <trkpt lat="59.074194431304932" lon="30.005486011505127">
        <time>2026-04-25T11:31:19Z</time>
      </trkpt>
      <trkpt lat="59.074194431304932" lon="30.005464553833008">
        <time>2026-04-25T11:31:22Z</time>
      </trkpt>
      <trkpt lat="59.074194431304932" lon="30.005443096160889">
        <time>2026-04-25T11:31:24Z</time>
      </trkpt>
      <trkpt lat="59.074194431304932" lon="30.005464553833008">
        <time>2026-04-25T11:31:27Z</time>
      </trkpt>
      <trkpt lat="59.074194431304932" lon="30.005464553833008">
        <time>2026-04-25T11:31:29Z</time>
      </trkpt>
      <trkpt lat="59.074194431304932" lon="30.005464553833008">
        <time>2026-04-25T11:31:32Z</time>
      </trkpt>
      <trkpt lat="59.074130058288574" lon="30.005486011505127">
        <time>2026-04-25T11:31:34Z</time>
      </trkpt>
      <trkpt lat="59.074130058288574" lon="30.005486011505127">
        <time>2026-04-25T11:31:37Z</time>
      </trkpt>
      <trkpt lat="59.074151515960693" lon="30.005464553833008">
        <time>2026-04-25T11:31:39Z</time>
      </trkpt>
      <trkpt lat="59.074172973632813" lon="30.005464553833008">
        <time>2026-04-25T11:31:42Z</time>
      </trkpt>
      <trkpt lat="59.074172973632813" lon="30.005464553833008">
        <time>2026-04-25T11:31:44Z</time>
      </trkpt>
      <trkpt lat="59.074194431304932" lon="30.005486011505127">
        <time>2026-04-25T11:31:47Z</time>
      </trkpt>
      <trkpt lat="59.074194431304932" lon="30.005507469177246">
        <time>2026-04-25T11:31:49Z</time>
      </trkpt>
      <trkpt lat="59.074194431304932" lon="30.005507469177246">
        <time>2026-04-25T11:31:52Z</time>
      </trkpt>
      <trkpt lat="59.074194431304932" lon="30.005507469177246">
        <time>2026-04-25T11:31:54Z</time>
      </trkpt>
      <trkpt lat="59.074194431304932" lon="30.005507469177246">
        <time>2026-04-25T11:31:57Z</time>
      </trkpt>
      <trkpt lat="59.074194431304932" lon="30.005507469177246">
        <time>2026-04-25T11:31:59Z</time>
      </trkpt>
      <trkpt lat="59.074194431304932" lon="30.005507469177246">
        <time>2026-04-25T11:32:02Z</time>
      </trkpt>
      <trkpt lat="59.074194431304932" lon="30.005507469177246">
        <time>2026-04-25T11:32:04Z</time>
      </trkpt>
      <trkpt lat="59.074194431304932" lon="30.005507469177246">
        <time>2026-04-25T11:32:07Z</time>
      </trkpt>
      <trkpt lat="59.074194431304932" lon="30.005507469177246">
        <time>2026-04-25T11:32:09Z</time>
      </trkpt>
      <trkpt lat="59.074194431304932" lon="30.005507469177246">
        <time>2026-04-25T11:32:12Z</time>
      </trkpt>
      <trkpt lat="59.074194431304932" lon="30.005507469177246">
        <time>2026-04-25T11:32:14Z</time>
      </trkpt>
      <trkpt lat="59.074194431304932" lon="30.005507469177246">
        <time>2026-04-25T11:32:17Z</time>
      </trkpt>
      <trkpt lat="59.074194431304932" lon="30.005507469177246">
        <time>2026-04-25T11:32:19Z</time>
      </trkpt>
      <trkpt lat="59.074194431304932" lon="30.005507469177246">
        <time>2026-04-25T11:32:22Z</time>
      </trkpt>
      <trkpt lat="59.074194431304932" lon="30.005507469177246">
        <time>2026-04-25T11:32:24Z</time>
      </trkpt>
      <trkpt lat="59.074194431304932" lon="30.005507469177246">
        <time>2026-04-25T11:32:27Z</time>
      </trkpt>
      <trkpt lat="59.074215888977051" lon="30.005507469177246">
        <time>2026-04-25T11:32:29Z</time>
      </trkpt>
      <trkpt lat="59.074215888977051" lon="30.005507469177246">
        <time>2026-04-25T11:32:32Z</time>
      </trkpt>
      <trkpt lat="59.074215888977051" lon="30.005507469177246">
        <time>2026-04-25T11:32:34Z</time>
      </trkpt>
      <trkpt lat="59.074215888977051" lon="30.005507469177246">
        <time>2026-04-25T11:32:37Z</time>
      </trkpt>
      <trkpt lat="59.074215888977051" lon="30.005507469177246">
        <time>2026-04-25T11:32:39Z</time>
      </trkpt>
      <trkpt lat="59.074215888977051" lon="30.005507469177246">
        <time>2026-04-25T11:32:42Z</time>
      </trkpt>
      <trkpt lat="59.074215888977051" lon="30.005507469177246">
        <time>2026-04-25T11:32:44Z</time>
      </trkpt>
      <trkpt lat="59.074215888977051" lon="30.005507469177246">
        <time>2026-04-25T11:32:47Z</time>
      </trkpt>
      <trkpt lat="59.074215888977051" lon="30.005507469177246">
        <time>2026-04-25T11:32:49Z</time>
      </trkpt>
      <trkpt lat="59.074215888977051" lon="30.005507469177246">
        <time>2026-04-25T11:32:52Z</time>
      </trkpt>
      <trkpt lat="59.074215888977051" lon="30.005507469177246">
        <time>2026-04-25T11:32:54Z</time>
      </trkpt>
      <trkpt lat="59.074215888977051" lon="30.005507469177246">
        <time>2026-04-25T11:32:57Z</time>
      </trkpt>
      <trkpt lat="59.074194431304932" lon="30.005507469177246">
        <time>2026-04-25T11:32:59Z</time>
      </trkpt>
      <trkpt lat="59.074194431304932" lon="30.005507469177246">
        <time>2026-04-25T11:33:02Z</time>
      </trkpt>
      <trkpt lat="59.074194431304932" lon="30.005507469177246">
        <time>2026-04-25T11:33:04Z</time>
      </trkpt>
      <trkpt lat="59.074194431304932" lon="30.005507469177246">
        <time>2026-04-25T11:33:07Z</time>
      </trkpt>
      <trkpt lat="59.074194431304932" lon="30.005507469177246">
        <time>2026-04-25T11:33:09Z</time>
      </trkpt>
      <trkpt lat="59.074194431304932" lon="30.005507469177246">
        <time>2026-04-25T11:33:12Z</time>
      </trkpt>
      <trkpt lat="59.074194431304932" lon="30.005507469177246">
        <time>2026-04-25T11:33:14Z</time>
      </trkpt>
      <trkpt lat="59.074194431304932" lon="30.005507469177246">
        <time>2026-04-25T11:33:17Z</time>
      </trkpt>
      <trkpt lat="59.074194431304932" lon="30.005507469177246">
        <time>2026-04-25T11:33:19Z</time>
      </trkpt>
      <trkpt lat="59.074194431304932" lon="30.005507469177246">
        <time>2026-04-25T11:33:22Z</time>
      </trkpt>
      <trkpt lat="59.074194431304932" lon="30.005507469177246">
        <time>2026-04-25T11:33:24Z</time>
      </trkpt>
      <trkpt lat="59.074194431304932" lon="30.005507469177246">
        <time>2026-04-25T11:33:27Z</time>
      </trkpt>
      <trkpt lat="59.074194431304932" lon="30.005507469177246">
        <time>2026-04-25T11:33:29Z</time>
      </trkpt>
      <trkpt lat="59.074194431304932" lon="30.005507469177246">
        <time>2026-04-25T11:33:32Z</time>
      </trkpt>
      <trkpt lat="59.074194431304932" lon="30.005507469177246">
        <time>2026-04-25T11:33:34Z</time>
      </trkpt>
      <trkpt lat="59.074194431304932" lon="30.005507469177246">
        <time>2026-04-25T11:33:37Z</time>
      </trkpt>
      <trkpt lat="59.074194431304932" lon="30.005507469177246">
        <time>2026-04-25T11:33:39Z</time>
      </trkpt>
      <trkpt lat="59.074194431304932" lon="30.005507469177246">
        <time>2026-04-25T11:33:42Z</time>
      </trkpt>
      <trkpt lat="59.074194431304932" lon="30.005507469177246">
        <time>2026-04-25T11:33:44Z</time>
      </trkpt>
      <trkpt lat="59.074194431304932" lon="30.005507469177246">
        <time>2026-04-25T11:33:47Z</time>
      </trkpt>
      <trkpt lat="59.074194431304932" lon="30.005507469177246">
        <time>2026-04-25T11:33:49Z</time>
      </trkpt>
      <trkpt lat="59.074194431304932" lon="30.005507469177246">
        <time>2026-04-25T11:33:52Z</time>
      </trkpt>
      <trkpt lat="59.074194431304932" lon="30.005507469177246">
        <time>2026-04-25T11:33:54Z</time>
      </trkpt>
      <trkpt lat="59.074194431304932" lon="30.005507469177246">
        <time>2026-04-25T11:33:57Z</time>
      </trkpt>
      <trkpt lat="59.074194431304932" lon="30.005507469177246">
        <time>2026-04-25T11:33:59Z</time>
      </trkpt>
      <trkpt lat="59.074194431304932" lon="30.005507469177246">
        <time>2026-04-25T11:34:02Z</time>
      </trkpt>
      <trkpt lat="59.074194431304932" lon="30.005507469177246">
        <time>2026-04-25T11:34:04Z</time>
      </trkpt>
      <trkpt lat="59.074194431304932" lon="30.005507469177246">
        <time>2026-04-25T11:34:07Z</time>
      </trkpt>
      <trkpt lat="59.074194431304932" lon="30.005507469177246">
        <time>2026-04-25T11:34:09Z</time>
      </trkpt>
      <trkpt lat="59.074194431304932" lon="30.005507469177246">
        <time>2026-04-25T11:34:12Z</time>
      </trkpt>
      <trkpt lat="59.074194431304932" lon="30.005507469177246">
        <time>2026-04-25T11:34:14Z</time>
      </trkpt>
      <trkpt lat="59.074194431304932" lon="30.005507469177246">
        <time>2026-04-25T11:34:17Z</time>
      </trkpt>
      <trkpt lat="59.074194431304932" lon="30.005507469177246">
        <time>2026-04-25T11:34:19Z</time>
      </trkpt>
      <trkpt lat="59.074194431304932" lon="30.005507469177246">
        <time>2026-04-25T11:34:22Z</time>
      </trkpt>
      <trkpt lat="59.074194431304932" lon="30.005507469177246">
        <time>2026-04-25T11:34:24Z</time>
      </trkpt>
      <trkpt lat="59.074194431304932" lon="30.005507469177246">
        <time>2026-04-25T11:34:27Z</time>
      </trkpt>
      <trkpt lat="59.074194431304932" lon="30.005507469177246">
        <time>2026-04-25T11:34:29Z</time>
      </trkpt>
      <trkpt lat="59.074172973632813" lon="30.005507469177246">
        <time>2026-04-25T11:34:32Z</time>
      </trkpt>
      <trkpt lat="59.074194431304932" lon="30.005507469177246">
        <time>2026-04-25T11:34:34Z</time>
      </trkpt>
      <trkpt lat="59.074215888977051" lon="30.005507469177246">
        <time>2026-04-25T11:34:37Z</time>
      </trkpt>
      <trkpt lat="59.074215888977051" lon="30.005507469177246">
        <time>2026-04-25T11:34:39Z</time>
      </trkpt>
      <trkpt lat="59.074215888977051" lon="30.005507469177246">
        <time>2026-04-25T11:34:42Z</time>
      </trkpt>
      <trkpt lat="59.074215888977051" lon="30.005507469177246">
        <time>2026-04-25T11:34:44Z</time>
      </trkpt>
      <trkpt lat="59.074215888977051" lon="30.005507469177246">
        <time>2026-04-25T11:34:47Z</time>
      </trkpt>
      <trkpt lat="59.074215888977051" lon="30.005507469177246">
        <time>2026-04-25T11:34:49Z</time>
      </trkpt>
      <trkpt lat="59.074215888977051" lon="30.005507469177246">
        <time>2026-04-25T11:34:52Z</time>
      </trkpt>
      <trkpt lat="59.074215888977051" lon="30.005507469177246">
        <time>2026-04-25T11:34:54Z</time>
      </trkpt>
      <trkpt lat="59.074215888977051" lon="30.005507469177246">
        <time>2026-04-25T11:34:57Z</time>
      </trkpt>
      <trkpt lat="59.074215888977051" lon="30.005507469177246">
        <time>2026-04-25T11:34:59Z</time>
      </trkpt>
      <trkpt lat="59.074215888977051" lon="30.005507469177246">
        <time>2026-04-25T11:35:02Z</time>
      </trkpt>
      <trkpt lat="59.074215888977051" lon="30.005507469177246">
        <time>2026-04-25T11:35:04Z</time>
      </trkpt>
      <trkpt lat="59.074215888977051" lon="30.005507469177246">
        <time>2026-04-25T11:35:07Z</time>
      </trkpt>
      <trkpt lat="59.074215888977051" lon="30.005507469177246">
        <time>2026-04-25T11:35:09Z</time>
      </trkpt>
      <trkpt lat="59.074215888977051" lon="30.005507469177246">
        <time>2026-04-25T11:35:12Z</time>
      </trkpt>
      <trkpt lat="59.074215888977051" lon="30.005507469177246">
        <time>2026-04-25T11:35:14Z</time>
      </trkpt>
      <trkpt lat="59.074215888977051" lon="30.005507469177246">
        <time>2026-04-25T11:35:17Z</time>
      </trkpt>
      <trkpt lat="59.074215888977051" lon="30.005507469177246">
        <time>2026-04-25T11:35:19Z</time>
      </trkpt>
      <trkpt lat="59.074215888977051" lon="30.005507469177246">
        <time>2026-04-25T11:35:22Z</time>
      </trkpt>
      <trkpt lat="59.074215888977051" lon="30.005507469177246">
        <time>2026-04-25T11:35:24Z</time>
      </trkpt>
      <trkpt lat="59.074215888977051" lon="30.005507469177246">
        <time>2026-04-25T11:35:27Z</time>
      </trkpt>
      <trkpt lat="59.074215888977051" lon="30.005507469177246">
        <time>2026-04-25T11:35:29Z</time>
      </trkpt>
      <trkpt lat="59.074215888977051" lon="30.005507469177246">
        <time>2026-04-25T11:35:32Z</time>
      </trkpt>
      <trkpt lat="59.074215888977051" lon="30.005507469177246">
        <time>2026-04-25T11:35:34Z</time>
      </trkpt>
      <trkpt lat="59.074215888977051" lon="30.005507469177246">
        <time>2026-04-25T11:35:37Z</time>
      </trkpt>
      <trkpt lat="59.074215888977051" lon="30.005507469177246">
        <time>2026-04-25T11:35:39Z</time>
      </trkpt>
      <trkpt lat="59.074215888977051" lon="30.005507469177246">
        <time>2026-04-25T11:35:42Z</time>
      </trkpt>
      <trkpt lat="59.074215888977051" lon="30.005507469177246">
        <time>2026-04-25T11:35:44Z</time>
      </trkpt>
      <trkpt lat="59.074215888977051" lon="30.005507469177246">
        <time>2026-04-25T11:35:47Z</time>
      </trkpt>
      <trkpt lat="59.074215888977051" lon="30.005507469177246">
        <time>2026-04-25T11:35:49Z</time>
      </trkpt>
      <trkpt lat="59.074215888977051" lon="30.005507469177246">
        <time>2026-04-25T11:35:52Z</time>
      </trkpt>
      <trkpt lat="59.074215888977051" lon="30.005507469177246">
        <time>2026-04-25T11:35:54Z</time>
      </trkpt>
      <trkpt lat="59.074215888977051" lon="30.005507469177246">
        <time>2026-04-25T11:35:57Z</time>
      </trkpt>
      <trkpt lat="59.074215888977051" lon="30.005507469177246">
        <time>2026-04-25T11:35:59Z</time>
      </trkpt>
      <trkpt lat="59.074215888977051" lon="30.005507469177246">
        <time>2026-04-25T11:36:02Z</time>
      </trkpt>
      <trkpt lat="59.074172973632813" lon="30.005528926849365">
        <time>2026-04-25T11:36:04Z</time>
      </trkpt>
      <trkpt lat="59.074172973632813" lon="30.005507469177246">
        <time>2026-04-25T11:36:07Z</time>
      </trkpt>
      <trkpt lat="59.074194431304932" lon="30.00542163848877">
        <time>2026-04-25T11:36:09Z</time>
      </trkpt>
      <trkpt lat="59.074194431304932" lon="30.00540018081665">
        <time>2026-04-25T11:36:12Z</time>
      </trkpt>
      <trkpt lat="59.074194431304932" lon="30.005486011505127">
        <time>2026-04-25T11:36:14Z</time>
      </trkpt>
      <trkpt lat="59.074151515960693" lon="30.005507469177246">
        <time>2026-04-25T11:36:17Z</time>
      </trkpt>
      <trkpt lat="59.074151515960693" lon="30.005507469177246">
        <time>2026-04-25T11:36:19Z</time>
      </trkpt>
      <trkpt lat="59.074130058288574" lon="30.005486011505127">
        <time>2026-04-25T11:36:22Z</time>
      </trkpt>
      <trkpt lat="59.074108600616455" lon="30.005443096160889">
        <time>2026-04-25T11:36:24Z</time>
      </trkpt>
      <trkpt lat="59.074130058288574" lon="30.005486011505127">
        <time>2026-04-25T11:36:27Z</time>
      </trkpt>
      <trkpt lat="59.074130058288574" lon="30.005486011505127">
        <time>2026-04-25T11:36:29Z</time>
      </trkpt>
      <trkpt lat="59.074151515960693" lon="30.005443096160889">
        <time>2026-04-25T11:36:32Z</time>
      </trkpt>
      <trkpt lat="59.074151515960693" lon="30.005292892456055">
        <time>2026-04-25T11:36:34Z</time>
      </trkpt>
      <trkpt lat="59.074151515960693" lon="30.005228519439697">
        <time>2026-04-25T11:36:37Z</time>
      </trkpt>
      <trkpt lat="59.074151515960693" lon="30.005228519439697">
        <time>2026-04-25T11:36:39Z</time>
      </trkpt>
      <trkpt lat="59.074130058288574" lon="30.005335807800293">
        <time>2026-04-25T11:36:42Z</time>
      </trkpt>
      <trkpt lat="59.074065685272217" lon="30.00540018081665">
        <time>2026-04-25T11:36:44Z</time>
      </trkpt>
      <trkpt lat="59.074044227600098" lon="30.005464553833008">
        <time>2026-04-25T11:36:47Z</time>
      </trkpt>
      <trkpt lat="59.074044227600098" lon="30.005593299865723">
        <time>2026-04-25T11:36:49Z</time>
      </trkpt>
      <trkpt lat="59.074022769927979" lon="30.00565767288208">
        <time>2026-04-25T11:36:52Z</time>
      </trkpt>
      <trkpt lat="59.074001312255859" lon="30.005722045898438">
        <time>2026-04-25T11:36:54Z</time>
      </trkpt>
      <trkpt lat="59.074001312255859" lon="30.005700588226318">
        <time>2026-04-25T11:36:57Z</time>
      </trkpt>
      <trkpt lat="59.074022769927979" lon="30.005636215209961">
        <time>2026-04-25T11:36:59Z</time>
      </trkpt>
      <trkpt lat="59.074022769927979" lon="30.005571842193604">
        <time>2026-04-25T11:37:02Z</time>
      </trkpt>
      <trkpt lat="59.074022769927979" lon="30.005550384521484">
        <time>2026-04-25T11:37:04Z</time>
      </trkpt>
      <trkpt lat="59.074022769927979" lon="30.005614757537842">
        <time>2026-04-25T11:37:07Z</time>
      </trkpt>
      <trkpt lat="59.074001312255859" lon="30.005743503570557">
        <time>2026-04-25T11:37:09Z</time>
      </trkpt>
      <trkpt lat="59.074001312255859" lon="30.005807876586914">
        <time>2026-04-25T11:37:12Z</time>
      </trkpt>
      <trkpt lat="59.074001312255859" lon="30.00591516494751">
        <time>2026-04-25T11:37:14Z</time>
      </trkpt>
      <trkpt lat="59.074001312255859" lon="30.005936622619629">
        <time>2026-04-25T11:37:17Z</time>
      </trkpt>
      <trkpt lat="59.074001312255859" lon="30.005958080291748">
        <time>2026-04-25T11:37:19Z</time>
      </trkpt>
      <trkpt lat="59.074022769927979" lon="30.005979537963867">
        <time>2026-04-25T11:37:22Z</time>
      </trkpt>
      <trkpt lat="59.074022769927979" lon="30.006043910980225">
        <time>2026-04-25T11:37:24Z</time>
      </trkpt>
      <trkpt lat="59.074044227600098" lon="30.006043910980225">
        <time>2026-04-25T11:37:27Z</time>
      </trkpt>
      <trkpt lat="59.074065685272217" lon="30.006086826324463">
        <time>2026-04-25T11:37:29Z</time>
      </trkpt>
      <trkpt lat="59.074065685272217" lon="30.006108283996582">
        <time>2026-04-25T11:37:32Z</time>
      </trkpt>
      <trkpt lat="59.074087142944336" lon="30.006129741668701">
        <time>2026-04-25T11:37:34Z</time>
      </trkpt>
      <trkpt lat="59.074108600616455" lon="30.00615119934082">
        <time>2026-04-25T11:37:37Z</time>
      </trkpt>
      <trkpt lat="59.074130058288574" lon="30.00615119934082">
        <time>2026-04-25T11:37:39Z</time>
      </trkpt>
      <trkpt lat="59.074151515960693" lon="30.006172657012939">
        <time>2026-04-25T11:37:42Z</time>
      </trkpt>
      <trkpt lat="59.074172973632813" lon="30.006215572357178">
        <time>2026-04-25T11:37:44Z</time>
      </trkpt>
      <trkpt lat="59.074172973632813" lon="30.006237030029297">
        <time>2026-04-25T11:37:47Z</time>
      </trkpt>
      <trkpt lat="59.074215888977051" lon="30.006237030029297">
        <time>2026-04-25T11:37:49Z</time>
      </trkpt>
      <trkpt lat="59.074215888977051" lon="30.006279945373535">
        <time>2026-04-25T11:37:52Z</time>
      </trkpt>
      <trkpt lat="59.074215888977051" lon="30.006322860717773">
        <time>2026-04-25T11:37:54Z</time>
      </trkpt>
      <trkpt lat="59.074215888977051" lon="30.006322860717773">
        <time>2026-04-25T11:37:57Z</time>
      </trkpt>
      <trkpt lat="59.07423734664917" lon="30.006387233734131">
        <time>2026-04-25T11:37:59Z</time>
      </trkpt>
      <trkpt lat="59.07423734664917" lon="30.006430149078369">
        <time>2026-04-25T11:38:02Z</time>
      </trkpt>
      <trkpt lat="59.07423734664917" lon="30.006473064422607">
        <time>2026-04-25T11:38:04Z</time>
      </trkpt>
      <trkpt lat="59.074258804321289" lon="30.006494522094727">
        <time>2026-04-25T11:38:07Z</time>
      </trkpt>
      <trkpt lat="59.074258804321289" lon="30.006515979766846">
        <time>2026-04-25T11:38:09Z</time>
      </trkpt>
      <trkpt lat="59.074258804321289" lon="30.006515979766846">
        <time>2026-04-25T11:38:12Z</time>
      </trkpt>
      <trkpt lat="59.074258804321289" lon="30.006580352783203">
        <time>2026-04-25T11:38:14Z</time>
      </trkpt>
      <trkpt lat="59.074258804321289" lon="30.006623268127441">
        <time>2026-04-25T11:38:17Z</time>
      </trkpt>
      <trkpt lat="59.074280261993408" lon="30.00666618347168">
        <time>2026-04-25T11:38:19Z</time>
      </trkpt>
      <trkpt lat="59.074280261993408" lon="30.006687641143799">
        <time>2026-04-25T11:38:22Z</time>
      </trkpt>
      <trkpt lat="59.074280261993408" lon="30.006709098815918">
        <time>2026-04-25T11:38:24Z</time>
      </trkpt>
      <trkpt lat="59.074280261993408" lon="30.006752014160156">
        <time>2026-04-25T11:38:27Z</time>
      </trkpt>
      <trkpt lat="59.074280261993408" lon="30.006816387176514">
        <time>2026-04-25T11:38:29Z</time>
      </trkpt>
      <trkpt lat="59.074280261993408" lon="30.006837844848633">
        <time>2026-04-25T11:38:32Z</time>
      </trkpt>
      <trkpt lat="59.074280261993408" lon="30.00690221786499">
        <time>2026-04-25T11:38:34Z</time>
      </trkpt>
      <trkpt lat="59.074280261993408" lon="30.00690221786499">
        <time>2026-04-25T11:38:37Z</time>
      </trkpt>
      <trkpt lat="59.074280261993408" lon="30.006923675537109">
        <time>2026-04-25T11:38:39Z</time>
      </trkpt>
      <trkpt lat="59.074280261993408" lon="30.006923675537109">
        <time>2026-04-25T11:38:42Z</time>
      </trkpt>
      <trkpt lat="59.074280261993408" lon="30.006923675537109">
        <time>2026-04-25T11:38:44Z</time>
      </trkpt>
      <trkpt lat="59.074280261993408" lon="30.006923675537109">
        <time>2026-04-25T11:38:47Z</time>
      </trkpt>
      <trkpt lat="59.074301719665527" lon="30.006966590881348">
        <time>2026-04-25T11:38:49Z</time>
      </trkpt>
      <trkpt lat="59.074301719665527" lon="30.006988048553467">
        <time>2026-04-25T11:38:52Z</time>
      </trkpt>
      <trkpt lat="59.074301719665527" lon="30.007052421569824">
        <time>2026-04-25T11:38:54Z</time>
      </trkpt>
      <trkpt lat="59.074301719665527" lon="30.007073879241943">
        <time>2026-04-25T11:38:57Z</time>
      </trkpt>
      <trkpt lat="59.074301719665527" lon="30.007073879241943">
        <time>2026-04-25T11:38:59Z</time>
      </trkpt>
      <trkpt lat="59.074280261993408" lon="30.007116794586182">
        <time>2026-04-25T11:39:02Z</time>
      </trkpt>
      <trkpt lat="59.074280261993408" lon="30.00715970993042">
        <time>2026-04-25T11:39:04Z</time>
      </trkpt>
      <trkpt lat="59.074280261993408" lon="30.007181167602539">
        <time>2026-04-25T11:39:07Z</time>
      </trkpt>
      <trkpt lat="59.074280261993408" lon="30.007181167602539">
        <time>2026-04-25T11:39:09Z</time>
      </trkpt>
      <trkpt lat="59.074280261993408" lon="30.007181167602539">
        <time>2026-04-25T11:39:12Z</time>
      </trkpt>
      <trkpt lat="59.074280261993408" lon="30.007224082946777">
        <time>2026-04-25T11:39:14Z</time>
      </trkpt>
      <trkpt lat="59.074280261993408" lon="30.007245540618896">
        <time>2026-04-25T11:39:17Z</time>
      </trkpt>
      <trkpt lat="59.074280261993408" lon="30.007266998291016">
        <time>2026-04-25T11:39:19Z</time>
      </trkpt>
      <trkpt lat="59.074280261993408" lon="30.007288455963135">
        <time>2026-04-25T11:39:22Z</time>
      </trkpt>
      <trkpt lat="59.074280261993408" lon="30.007352828979492">
        <time>2026-04-25T11:39:24Z</time>
      </trkpt>
      <trkpt lat="59.074280261993408" lon="30.007352828979492">
        <time>2026-04-25T11:39:27Z</time>
      </trkpt>
      <trkpt lat="59.074280261993408" lon="30.00741720199585">
        <time>2026-04-25T11:39:29Z</time>
      </trkpt>
      <trkpt lat="59.074280261993408" lon="30.007374286651611">
        <time>2026-04-25T11:39:32Z</time>
      </trkpt>
      <trkpt lat="59.074258804321289" lon="30.007309913635254">
        <time>2026-04-25T11:39:34Z</time>
      </trkpt>
      <trkpt lat="59.074280261993408" lon="30.007266998291016">
        <time>2026-04-25T11:39:37Z</time>
      </trkpt>
      <trkpt lat="59.074301719665527" lon="30.007009506225586">
        <time>2026-04-25T11:39:39Z</time>
      </trkpt>
      <trkpt lat="59.074301719665527" lon="30.006966590881348">
        <time>2026-04-25T11:39:42Z</time>
      </trkpt>
      <trkpt lat="59.074280261993408" lon="30.007116794586182">
        <time>2026-04-25T11:39:44Z</time>
      </trkpt>
      <trkpt lat="59.074280261993408" lon="30.007224082946777">
        <time>2026-04-25T11:39:47Z</time>
      </trkpt>
      <trkpt lat="59.07423734664917" lon="30.007266998291016">
        <time>2026-04-25T11:39:49Z</time>
      </trkpt>
      <trkpt lat="59.074215888977051" lon="30.007245540618896">
        <time>2026-04-25T11:39:52Z</time>
      </trkpt>
      <trkpt lat="59.074258804321289" lon="30.007288455963135">
        <time>2026-04-25T11:39:54Z</time>
      </trkpt>
      <trkpt lat="59.074258804321289" lon="30.00715970993042">
        <time>2026-04-25T11:39:57Z</time>
      </trkpt>
      <trkpt lat="59.074280261993408" lon="30.006923675537109">
        <time>2026-04-25T11:39:59Z</time>
      </trkpt>
      <trkpt lat="59.074258804321289" lon="30.006880760192871">
        <time>2026-04-25T11:40:02Z</time>
      </trkpt>
      <trkpt lat="59.074258804321289" lon="30.007030963897705">
        <time>2026-04-25T11:40:04Z</time>
      </trkpt>
      <trkpt lat="59.074258804321289" lon="30.007181167602539">
        <time>2026-04-25T11:40:07Z</time>
      </trkpt>
      <trkpt lat="59.074258804321289" lon="30.007309913635254">
        <time>2026-04-25T11:40:09Z</time>
      </trkpt>
      <trkpt lat="59.074258804321289" lon="30.007309913635254">
        <time>2026-04-25T11:40:12Z</time>
      </trkpt>
      <trkpt lat="59.074194431304932" lon="30.007224082946777">
        <time>2026-04-25T11:40:14Z</time>
      </trkpt>
      <trkpt lat="59.074215888977051" lon="30.007224082946777">
        <time>2026-04-25T11:40:17Z</time>
      </trkpt>
      <trkpt lat="59.074280261993408" lon="30.007073879241943">
        <time>2026-04-25T11:40:19Z</time>
      </trkpt>
      <trkpt lat="59.074323177337646" lon="30.006923675537109">
        <time>2026-04-25T11:40:22Z</time>
      </trkpt>
      <trkpt lat="59.074323177337646" lon="30.006859302520752">
        <time>2026-04-25T11:40:24Z</time>
      </trkpt>
      <trkpt lat="59.074301719665527" lon="30.006966590881348">
        <time>2026-04-25T11:40:27Z</time>
      </trkpt>
      <trkpt lat="59.074280261993408" lon="30.00715970993042">
        <time>2026-04-25T11:40:29Z</time>
      </trkpt>
      <trkpt lat="59.074280261993408" lon="30.007266998291016">
        <time>2026-04-25T11:40:32Z</time>
      </trkpt>
      <trkpt lat="59.074280261993408" lon="30.007374286651611">
        <time>2026-04-25T11:40:34Z</time>
      </trkpt>
      <trkpt lat="59.074280261993408" lon="30.007460117340088">
        <time>2026-04-25T11:40:37Z</time>
      </trkpt>
      <trkpt lat="59.074258804321289" lon="30.007545948028564">
        <time>2026-04-25T11:40:39Z</time>
      </trkpt>
      <trkpt lat="59.074258804321289" lon="30.007545948028564">
        <time>2026-04-25T11:40:42Z</time>
      </trkpt>
      <trkpt lat="59.074258804321289" lon="30.00739574432373">
        <time>2026-04-25T11:40:44Z</time>
      </trkpt>
      <trkpt lat="59.074280261993408" lon="30.00739574432373">
        <time>2026-04-25T11:40:47Z</time>
      </trkpt>
      <trkpt lat="59.07423734664917" lon="30.007331371307373">
        <time>2026-04-25T11:40:49Z</time>
      </trkpt>
      <trkpt lat="59.074215888977051" lon="30.007266998291016">
        <time>2026-04-25T11:40:52Z</time>
      </trkpt>
      <trkpt lat="59.07423734664917" lon="30.007309913635254">
        <time>2026-04-25T11:40:54Z</time>
      </trkpt>
      <trkpt lat="59.074258804321289" lon="30.007352828979492">
        <time>2026-04-25T11:40:57Z</time>
      </trkpt>
      <trkpt lat="59.074258804321289" lon="30.007202625274658">
        <time>2026-04-25T11:40:59Z</time>
      </trkpt>
      <trkpt lat="59.074258804321289" lon="30.007052421569824">
        <time>2026-04-25T11:41:02Z</time>
      </trkpt>
      <trkpt lat="59.074280261993408" lon="30.007266998291016">
        <time>2026-04-25T11:41:07Z</time>
      </trkpt>
      <trkpt lat="59.07423734664917" lon="30.007374286651611">
        <time>2026-04-25T11:41:09Z</time>
      </trkpt>
      <trkpt lat="59.074172973632813" lon="30.007374286651611">
        <time>2026-04-25T11:41:12Z</time>
      </trkpt>
      <trkpt lat="59.074172973632813" lon="30.007374286651611">
        <time>2026-04-25T11:41:14Z</time>
      </trkpt>
      <trkpt lat="59.074130058288574" lon="30.007352828979492">
        <time>2026-04-25T11:41:17Z</time>
      </trkpt>
      <trkpt lat="59.074065685272217" lon="30.007374286651611">
        <time>2026-04-25T11:41:19Z</time>
      </trkpt>
      <trkpt lat="59.074022769927979" lon="30.007438659667969">
        <time>2026-04-25T11:41:22Z</time>
      </trkpt>
      <trkpt lat="59.07397985458374" lon="30.007503032684326">
        <time>2026-04-25T11:41:24Z</time>
      </trkpt>
      <trkpt lat="59.073958396911621" lon="30.007545948028564">
        <time>2026-04-25T11:41:27Z</time>
      </trkpt>
      <trkpt lat="59.073936939239502" lon="30.007545948028564">
        <time>2026-04-25T11:41:29Z</time>
      </trkpt>
      <trkpt lat="59.073936939239502" lon="30.007545948028564">
        <time>2026-04-25T11:41:32Z</time>
      </trkpt>
      <trkpt lat="59.073894023895264" lon="30.007503032684326">
        <time>2026-04-25T11:41:34Z</time>
      </trkpt>
      <trkpt lat="59.073872566223145" lon="30.007503032684326">
        <time>2026-04-25T11:41:37Z</time>
      </trkpt>
      <trkpt lat="59.073894023895264" lon="30.007524490356445">
        <time>2026-04-25T11:41:39Z</time>
      </trkpt>
      <trkpt lat="59.073958396911621" lon="30.007503032684326">
        <time>2026-04-25T11:41:42Z</time>
      </trkpt>
      <trkpt lat="59.074001312255859" lon="30.007438659667969">
        <time>2026-04-25T11:41:44Z</time>
      </trkpt>
      <trkpt lat="59.074001312255859" lon="30.00739574432373">
        <time>2026-04-25T11:41:47Z</time>
      </trkpt>
      <trkpt lat="59.074001312255859" lon="30.007352828979492">
        <time>2026-04-25T11:41:49Z</time>
      </trkpt>
      <trkpt lat="59.074001312255859" lon="30.00741720199585">
        <time>2026-04-25T11:41:52Z</time>
      </trkpt>
      <trkpt lat="59.073936939239502" lon="30.007524490356445">
        <time>2026-04-25T11:41:54Z</time>
      </trkpt>
      <trkpt lat="59.073894023895264" lon="30.007545948028564">
        <time>2026-04-25T11:41:57Z</time>
      </trkpt>
      <trkpt lat="59.073829650878906" lon="30.007524490356445">
        <time>2026-04-25T11:41:59Z</time>
      </trkpt>
      <trkpt lat="59.073808193206787" lon="30.007481575012207">
        <time>2026-04-25T11:42:02Z</time>
      </trkpt>
      <trkpt lat="59.073808193206787" lon="30.007481575012207">
        <time>2026-04-25T11:42:04Z</time>
      </trkpt>
      <trkpt lat="59.073808193206787" lon="30.007481575012207">
        <time>2026-04-25T11:42:07Z</time>
      </trkpt>
      <trkpt lat="59.07374382019043" lon="30.007460117340088">
        <time>2026-04-25T11:42:09Z</time>
      </trkpt>
      <trkpt lat="59.073700904846191" lon="30.007438659667969">
        <time>2026-04-25T11:42:12Z</time>
      </trkpt>
      <trkpt lat="59.073722362518311" lon="30.007481575012207">
        <time>2026-04-25T11:42:14Z</time>
      </trkpt>
      <trkpt lat="59.073786735534668" lon="30.007524490356445">
        <time>2026-04-25T11:42:17Z</time>
      </trkpt>
      <trkpt lat="59.073851108551025" lon="30.007545948028564">
        <time>2026-04-25T11:42:19Z</time>
      </trkpt>
      <trkpt lat="59.073851108551025" lon="30.007481575012207">
        <time>2026-04-25T11:42:22Z</time>
      </trkpt>
      <trkpt lat="59.073829650878906" lon="30.007374286651611">
        <time>2026-04-25T11:42:24Z</time>
      </trkpt>
      <trkpt lat="59.073786735534668" lon="30.007331371307373">
        <time>2026-04-25T11:42:27Z</time>
      </trkpt>
      <trkpt lat="59.073765277862549" lon="30.007245540618896">
        <time>2026-04-25T11:42:29Z</time>
      </trkpt>
      <trkpt lat="59.073765277862549" lon="30.007181167602539">
        <time>2026-04-25T11:42:32Z</time>
      </trkpt>
      <trkpt lat="59.073722362518311" lon="30.007095336914063">
        <time>2026-04-25T11:42:34Z</time>
      </trkpt>
      <trkpt lat="59.073700904846191" lon="30.007073879241943">
        <time>2026-04-25T11:42:37Z</time>
      </trkpt>
      <trkpt lat="59.073679447174072" lon="30.007030963897705">
        <time>2026-04-25T11:42:39Z</time>
      </trkpt>
      <trkpt lat="59.073636531829834" lon="30.007009506225586">
        <time>2026-04-25T11:42:42Z</time>
      </trkpt>
      <trkpt lat="59.073593616485596" lon="30.006988048553467">
        <time>2026-04-25T11:42:44Z</time>
      </trkpt>
      <trkpt lat="59.073593616485596" lon="30.006988048553467">
        <time>2026-04-25T11:42:47Z</time>
      </trkpt>
      <trkpt lat="59.073593616485596" lon="30.006988048553467">
        <time>2026-04-25T11:42:49Z</time>
      </trkpt>
      <trkpt lat="59.073593616485596" lon="30.006988048553467">
        <time>2026-04-25T11:42:52Z</time>
      </trkpt>
      <trkpt lat="59.073507785797119" lon="30.006945133209229">
        <time>2026-04-25T11:42:54Z</time>
      </trkpt>
      <trkpt lat="59.073464870452881" lon="30.006880760192871">
        <time>2026-04-25T11:42:57Z</time>
      </trkpt>
      <trkpt lat="59.073464870452881" lon="30.00690221786499">
        <time>2026-04-25T11:42:59Z</time>
      </trkpt>
      <trkpt lat="59.073550701141357" lon="30.006966590881348">
        <time>2026-04-25T11:43:02Z</time>
      </trkpt>
      <trkpt lat="59.073657989501953" lon="30.007009506225586">
        <time>2026-04-25T11:43:04Z</time>
      </trkpt>
      <trkpt lat="59.073722362518311" lon="30.007052421569824">
        <time>2026-04-25T11:43:07Z</time>
      </trkpt>
      <trkpt lat="59.07374382019043" lon="30.007052421569824">
        <time>2026-04-25T11:43:09Z</time>
      </trkpt>
      <trkpt lat="59.073722362518311" lon="30.006923675537109">
        <time>2026-04-25T11:43:12Z</time>
      </trkpt>
      <trkpt lat="59.073722362518311" lon="30.006752014160156">
        <time>2026-04-25T11:43:14Z</time>
      </trkpt>
      <trkpt lat="59.073722362518311" lon="30.006687641143799">
        <time>2026-04-25T11:43:17Z</time>
      </trkpt>
      <trkpt lat="59.073700904846191" lon="30.006601810455322">
        <time>2026-04-25T11:43:19Z</time>
      </trkpt>
      <trkpt lat="59.073700904846191" lon="30.006537437438965">
        <time>2026-04-25T11:43:22Z</time>
      </trkpt>
      <trkpt lat="59.073722362518311" lon="30.006451606750488">
        <time>2026-04-25T11:43:24Z</time>
      </trkpt>
      <trkpt lat="59.073700904846191" lon="30.006451606750488">
        <time>2026-04-25T11:43:27Z</time>
      </trkpt>
      <trkpt lat="59.073700904846191" lon="30.006387233734131">
        <time>2026-04-25T11:43:29Z</time>
      </trkpt>
      <trkpt lat="59.073679447174072" lon="30.006322860717773">
        <time>2026-04-25T11:43:32Z</time>
      </trkpt>
      <trkpt lat="59.073679447174072" lon="30.006322860717773">
        <time>2026-04-25T11:43:34Z</time>
      </trkpt>
      <trkpt lat="59.073700904846191" lon="30.006344318389893">
        <time>2026-04-25T11:43:37Z</time>
      </trkpt>
      <trkpt lat="59.073679447174072" lon="30.006301403045654">
        <time>2026-04-25T11:43:39Z</time>
      </trkpt>
      <trkpt lat="59.073657989501953" lon="30.006258487701416">
        <time>2026-04-25T11:43:42Z</time>
      </trkpt>
      <trkpt lat="59.073636531829834" lon="30.006172657012939">
        <time>2026-04-25T11:43:44Z</time>
      </trkpt>
      <trkpt lat="59.073636531829834" lon="30.00615119934082">
        <time>2026-04-25T11:43:47Z</time>
      </trkpt>
      <trkpt lat="59.073636531829834" lon="30.006086826324463">
        <time>2026-04-25T11:43:49Z</time>
      </trkpt>
      <trkpt lat="59.073636531829834" lon="30.006108283996582">
        <time>2026-04-25T11:43:52Z</time>
      </trkpt>
      <trkpt lat="59.073657989501953" lon="30.00615119934082">
        <time>2026-04-25T11:43:54Z</time>
      </trkpt>
      <trkpt lat="59.073636531829834" lon="30.00615119934082">
        <time>2026-04-25T11:43:57Z</time>
      </trkpt>
      <trkpt lat="59.073572158813477" lon="30.006108283996582">
        <time>2026-04-25T11:43:59Z</time>
      </trkpt>
      <trkpt lat="59.073550701141357" lon="30.006065368652344">
        <time>2026-04-25T11:44:02Z</time>
      </trkpt>
      <trkpt lat="59.073572158813477" lon="30.006086826324463">
        <time>2026-04-25T11:44:04Z</time>
      </trkpt>
      <trkpt lat="59.073593616485596" lon="30.006043910980225">
        <time>2026-04-25T11:44:07Z</time>
      </trkpt>
      <trkpt lat="59.073593616485596" lon="30.005936622619629">
        <time>2026-04-25T11:44:09Z</time>
      </trkpt>
      <trkpt lat="59.073593616485596" lon="30.005936622619629">
        <time>2026-04-25T11:44:12Z</time>
      </trkpt>
      <trkpt lat="59.073615074157715" lon="30.00591516494751">
        <time>2026-04-25T11:44:14Z</time>
      </trkpt>
      <trkpt lat="59.073636531829834" lon="30.005872249603271">
        <time>2026-04-25T11:44:17Z</time>
      </trkpt>
      <trkpt lat="59.073636531829834" lon="30.005850791931152">
        <time>2026-04-25T11:44:19Z</time>
      </trkpt>
      <trkpt lat="59.073657989501953" lon="30.005807876586914">
        <time>2026-04-25T11:44:22Z</time>
      </trkpt>
      <trkpt lat="59.073657989501953" lon="30.005743503570557">
        <time>2026-04-25T11:44:24Z</time>
      </trkpt>
      <trkpt lat="59.073657989501953" lon="30.005743503570557">
        <time>2026-04-25T11:44:27Z</time>
      </trkpt>
      <trkpt lat="59.073636531829834" lon="30.005679130554199">
        <time>2026-04-25T11:44:29Z</time>
      </trkpt>
      <trkpt lat="59.073636531829834" lon="30.005679130554199">
        <time>2026-04-25T11:44:32Z</time>
      </trkpt>
      <trkpt lat="59.073657989501953" lon="30.005743503570557">
        <time>2026-04-25T11:44:34Z</time>
      </trkpt>
      <trkpt lat="59.073657989501953" lon="30.005829334259033">
        <time>2026-04-25T11:44:37Z</time>
      </trkpt>
      <trkpt lat="59.073657989501953" lon="30.005850791931152">
        <time>2026-04-25T11:44:39Z</time>
      </trkpt>
      <trkpt lat="59.073657989501953" lon="30.005829334259033">
        <time>2026-04-25T11:44:42Z</time>
      </trkpt>
      <trkpt lat="59.073700904846191" lon="30.005743503570557">
        <time>2026-04-25T11:44:44Z</time>
      </trkpt>
      <trkpt lat="59.073722362518311" lon="30.005700588226318">
        <time>2026-04-25T11:44:47Z</time>
      </trkpt>
      <trkpt lat="59.073700904846191" lon="30.005507469177246">
        <time>2026-04-25T11:44:49Z</time>
      </trkpt>
      <trkpt lat="59.073679447174072" lon="30.00542163848877">
        <time>2026-04-25T11:44:52Z</time>
      </trkpt>
      <trkpt lat="59.07374382019043" lon="30.00565767288208">
        <time>2026-04-25T11:44:57Z</time>
      </trkpt>
      <trkpt lat="59.073679447174072" lon="30.005764961242676">
        <time>2026-04-25T11:44:59Z</time>
      </trkpt>
      <trkpt lat="59.073657989501953" lon="30.005786418914795">
        <time>2026-04-25T11:45:02Z</time>
      </trkpt>
      <trkpt lat="59.073657989501953" lon="30.005722045898438">
        <time>2026-04-25T11:45:04Z</time>
      </trkpt>
      <trkpt lat="59.073636531829834" lon="30.00565767288208">
        <time>2026-04-25T11:45:07Z</time>
      </trkpt>
      <trkpt lat="59.073615074157715" lon="30.005528926849365">
        <time>2026-04-25T11:45:09Z</time>
      </trkpt>
      <trkpt lat="59.073615074157715" lon="30.005464553833008">
        <time>2026-04-25T11:45:12Z</time>
      </trkpt>
      <trkpt lat="59.073615074157715" lon="30.00540018081665">
        <time>2026-04-25T11:45:14Z</time>
      </trkpt>
      <trkpt lat="59.073615074157715" lon="30.00540018081665">
        <time>2026-04-25T11:45:17Z</time>
      </trkpt>
      <trkpt lat="59.073572158813477" lon="30.005357265472412">
        <time>2026-04-25T11:45:19Z</time>
      </trkpt>
      <trkpt lat="59.073593616485596" lon="30.005357265472412">
        <time>2026-04-25T11:45:22Z</time>
      </trkpt>
      <trkpt lat="59.073615074157715" lon="30.005464553833008">
        <time>2026-04-25T11:45:24Z</time>
      </trkpt>
      <trkpt lat="59.073615074157715" lon="30.005550384521484">
        <time>2026-04-25T11:45:27Z</time>
      </trkpt>
      <trkpt lat="59.073636531829834" lon="30.005679130554199">
        <time>2026-04-25T11:45:29Z</time>
      </trkpt>
      <trkpt lat="59.073679447174072" lon="30.005722045898438">
        <time>2026-04-25T11:45:32Z</time>
      </trkpt>
      <trkpt lat="59.073657989501953" lon="30.005829334259033">
        <time>2026-04-25T11:45:34Z</time>
      </trkpt>
      <trkpt lat="59.073636531829834" lon="30.005872249603271">
        <time>2026-04-25T11:45:37Z</time>
      </trkpt>
      <trkpt lat="59.073593616485596" lon="30.005872249603271">
        <time>2026-04-25T11:45:39Z</time>
      </trkpt>
      <trkpt lat="59.073593616485596" lon="30.005872249603271">
        <time>2026-04-25T11:45:42Z</time>
      </trkpt>
      <trkpt lat="59.073593616485596" lon="30.005850791931152">
        <time>2026-04-25T11:45:44Z</time>
      </trkpt>
      <trkpt lat="59.073550701141357" lon="30.005850791931152">
        <time>2026-04-25T11:45:47Z</time>
      </trkpt>
      <trkpt lat="59.073507785797119" lon="30.005893707275391">
        <time>2026-04-25T11:45:49Z</time>
      </trkpt>
      <trkpt lat="59.073486328125" lon="30.005850791931152">
        <time>2026-04-25T11:45:52Z</time>
      </trkpt>
      <trkpt lat="59.073486328125" lon="30.005829334259033">
        <time>2026-04-25T11:45:54Z</time>
      </trkpt>
      <trkpt lat="59.073486328125" lon="30.005829334259033">
        <time>2026-04-25T11:45:57Z</time>
      </trkpt>
      <trkpt lat="59.073443412780762" lon="30.005786418914795">
        <time>2026-04-25T11:45:59Z</time>
      </trkpt>
      <trkpt lat="59.073400497436523" lon="30.005743503570557">
        <time>2026-04-25T11:46:02Z</time>
      </trkpt>
      <trkpt lat="59.073400497436523" lon="30.005722045898438">
        <time>2026-04-25T11:46:04Z</time>
      </trkpt>
      <trkpt lat="59.073443412780762" lon="30.005786418914795">
        <time>2026-04-25T11:46:07Z</time>
      </trkpt>
      <trkpt lat="59.073507785797119" lon="30.005872249603271">
        <time>2026-04-25T11:46:09Z</time>
      </trkpt>
      <trkpt lat="59.073507785797119" lon="30.005936622619629">
        <time>2026-04-25T11:46:12Z</time>
      </trkpt>
      <trkpt lat="59.073464870452881" lon="30.005958080291748">
        <time>2026-04-25T11:46:14Z</time>
      </trkpt>
      <trkpt lat="59.073486328125" lon="30.005958080291748">
        <time>2026-04-25T11:46:17Z</time>
      </trkpt>
      <trkpt lat="59.073486328125" lon="30.005872249603271">
        <time>2026-04-25T11:46:19Z</time>
      </trkpt>
      <trkpt lat="59.073464870452881" lon="30.005786418914795">
        <time>2026-04-25T11:46:22Z</time>
      </trkpt>
      <trkpt lat="59.073400497436523" lon="30.005722045898438">
        <time>2026-04-25T11:46:24Z</time>
      </trkpt>
      <trkpt lat="59.073293209075928" lon="30.00565767288208">
        <time>2026-04-25T11:46:29Z</time>
      </trkpt>
      <trkpt lat="59.073293209075928" lon="30.00565767288208">
        <time>2026-04-25T11:46:32Z</time>
      </trkpt>
      <trkpt lat="59.073314666748047" lon="30.005571842193604">
        <time>2026-04-25T11:46:34Z</time>
      </trkpt>
      <trkpt lat="59.073314666748047" lon="30.005486011505127">
        <time>2026-04-25T11:46:37Z</time>
      </trkpt>
      <trkpt lat="59.073293209075928" lon="30.00542163848877">
        <time>2026-04-25T11:46:39Z</time>
      </trkpt>
      <trkpt lat="59.073314666748047" lon="30.005443096160889">
        <time>2026-04-25T11:46:42Z</time>
      </trkpt>
      <trkpt lat="59.073314666748047" lon="30.005550384521484">
        <time>2026-04-25T11:46:44Z</time>
      </trkpt>
      <trkpt lat="59.073336124420166" lon="30.005614757537842">
        <time>2026-04-25T11:46:47Z</time>
      </trkpt>
      <trkpt lat="59.073357582092285" lon="30.00565767288208">
        <time>2026-04-25T11:46:49Z</time>
      </trkpt>
      <trkpt lat="59.073357582092285" lon="30.00565767288208">
        <time>2026-04-25T11:46:52Z</time>
      </trkpt>
      <trkpt lat="59.073421955108643" lon="30.005743503570557">
        <time>2026-04-25T11:46:54Z</time>
      </trkpt>
      <trkpt lat="59.073443412780762" lon="30.005764961242676">
        <time>2026-04-25T11:46:57Z</time>
      </trkpt>
      <trkpt lat="59.073486328125" lon="30.005872249603271">
        <time>2026-04-25T11:46:59Z</time>
      </trkpt>
      <trkpt lat="59.073464870452881" lon="30.005936622619629">
        <time>2026-04-25T11:47:02Z</time>
      </trkpt>
      <trkpt lat="59.073421955108643" lon="30.006022453308105">
        <time>2026-04-25T11:47:04Z</time>
      </trkpt>
      <trkpt lat="59.073379039764404" lon="30.006022453308105">
        <time>2026-04-25T11:47:07Z</time>
      </trkpt>
      <trkpt lat="59.073336124420166" lon="30.005958080291748">
        <time>2026-04-25T11:47:09Z</time>
      </trkpt>
      <trkpt lat="59.073314666748047" lon="30.005958080291748">
        <time>2026-04-25T11:47:12Z</time>
      </trkpt>
      <trkpt lat="59.073357582092285" lon="30.005979537963867">
        <time>2026-04-25T11:47:14Z</time>
      </trkpt>
      <trkpt lat="59.073379039764404" lon="30.006022453308105">
        <time>2026-04-25T11:47:17Z</time>
      </trkpt>
      <trkpt lat="59.073421955108643" lon="30.006000995635986">
        <time>2026-04-25T11:47:19Z</time>
      </trkpt>
      <trkpt lat="59.073421955108643" lon="30.005958080291748">
        <time>2026-04-25T11:47:22Z</time>
      </trkpt>
      <trkpt lat="59.073421955108643" lon="30.005958080291748">
        <time>2026-04-25T11:47:24Z</time>
      </trkpt>
      <trkpt lat="59.073443412780762" lon="30.005979537963867">
        <time>2026-04-25T11:47:27Z</time>
      </trkpt>
      <trkpt lat="59.073464870452881" lon="30.005893707275391">
        <time>2026-04-25T11:47:29Z</time>
      </trkpt>
      <trkpt lat="59.073464870452881" lon="30.005807876586914">
        <time>2026-04-25T11:47:32Z</time>
      </trkpt>
      <trkpt lat="59.073464870452881" lon="30.005850791931152">
        <time>2026-04-25T11:47:34Z</time>
      </trkpt>
      <trkpt lat="59.073486328125" lon="30.00591516494751">
        <time>2026-04-25T11:47:37Z</time>
      </trkpt>
      <trkpt lat="59.073443412780762" lon="30.006000995635986">
        <time>2026-04-25T11:47:39Z</time>
      </trkpt>
      <trkpt lat="59.073400497436523" lon="30.006086826324463">
        <time>2026-04-25T11:47:42Z</time>
      </trkpt>
      <trkpt lat="59.073400497436523" lon="30.006172657012939">
        <time>2026-04-25T11:47:44Z</time>
      </trkpt>
      <trkpt lat="59.073379039764404" lon="30.006194114685059">
        <time>2026-04-25T11:47:47Z</time>
      </trkpt>
      <trkpt lat="59.073379039764404" lon="30.006215572357178">
        <time>2026-04-25T11:47:49Z</time>
      </trkpt>
      <trkpt lat="59.073379039764404" lon="30.006237030029297">
        <time>2026-04-25T11:47:52Z</time>
      </trkpt>
      <trkpt lat="59.073379039764404" lon="30.006279945373535">
        <time>2026-04-25T11:47:54Z</time>
      </trkpt>
      <trkpt lat="59.073379039764404" lon="30.006344318389893">
        <time>2026-04-25T11:47:57Z</time>
      </trkpt>
      <trkpt lat="59.073379039764404" lon="30.006430149078369">
        <time>2026-04-25T11:47:59Z</time>
      </trkpt>
      <trkpt lat="59.073379039764404" lon="30.006473064422607">
        <time>2026-04-25T11:48:02Z</time>
      </trkpt>
      <trkpt lat="59.073379039764404" lon="30.006473064422607">
        <time>2026-04-25T11:48:04Z</time>
      </trkpt>
      <trkpt lat="59.073379039764404" lon="30.006473064422607">
        <time>2026-04-25T11:48:07Z</time>
      </trkpt>
      <trkpt lat="59.073379039764404" lon="30.006515979766846">
        <time>2026-04-25T11:48:09Z</time>
      </trkpt>
      <trkpt lat="59.073400497436523" lon="30.006580352783203">
        <time>2026-04-25T11:48:12Z</time>
      </trkpt>
      <trkpt lat="59.073400497436523" lon="30.00666618347168">
        <time>2026-04-25T11:48:14Z</time>
      </trkpt>
      <trkpt lat="59.073400497436523" lon="30.006709098815918">
        <time>2026-04-25T11:48:17Z</time>
      </trkpt>
      <trkpt lat="59.073400497436523" lon="30.006752014160156">
        <time>2026-04-25T11:48:19Z</time>
      </trkpt>
      <trkpt lat="59.073421955108643" lon="30.006794929504395">
        <time>2026-04-25T11:48:22Z</time>
      </trkpt>
      <trkpt lat="59.073421955108643" lon="30.006837844848633">
        <time>2026-04-25T11:48:24Z</time>
      </trkpt>
      <trkpt lat="59.073443412780762" lon="30.006837844848633">
        <time>2026-04-25T11:48:27Z</time>
      </trkpt>
      <trkpt lat="59.073464870452881" lon="30.006859302520752">
        <time>2026-04-25T11:48:29Z</time>
      </trkpt>
      <trkpt lat="59.073443412780762" lon="30.006880760192871">
        <time>2026-04-25T11:48:32Z</time>
      </trkpt>
      <trkpt lat="59.073443412780762" lon="30.006880760192871">
        <time>2026-04-25T11:48:34Z</time>
      </trkpt>
      <trkpt lat="59.073443412780762" lon="30.006945133209229">
        <time>2026-04-25T11:48:37Z</time>
      </trkpt>
      <trkpt lat="59.073464870452881" lon="30.007030963897705">
        <time>2026-04-25T11:48:39Z</time>
      </trkpt>
      <trkpt lat="59.073486328125" lon="30.007095336914063">
        <time>2026-04-25T11:48:42Z</time>
      </trkpt>
      <trkpt lat="59.073507785797119" lon="30.007138252258301">
        <time>2026-04-25T11:48:44Z</time>
      </trkpt>
      <trkpt lat="59.073507785797119" lon="30.007181167602539">
        <time>2026-04-25T11:48:47Z</time>
      </trkpt>
      <trkpt lat="59.073529243469238" lon="30.007224082946777">
        <time>2026-04-25T11:48:49Z</time>
      </trkpt>
      <trkpt lat="59.073529243469238" lon="30.007245540618896">
        <time>2026-04-25T11:48:52Z</time>
      </trkpt>
      <trkpt lat="59.073529243469238" lon="30.007245540618896">
        <time>2026-04-25T11:48:54Z</time>
      </trkpt>
      <trkpt lat="59.073529243469238" lon="30.007245540618896">
        <time>2026-04-25T11:48:57Z</time>
      </trkpt>
      <trkpt lat="59.073529243469238" lon="30.007266998291016">
        <time>2026-04-25T11:48:59Z</time>
      </trkpt>
      <trkpt lat="59.073529243469238" lon="30.007331371307373">
        <time>2026-04-25T11:49:02Z</time>
      </trkpt>
      <trkpt lat="59.073529243469238" lon="30.007374286651611">
        <time>2026-04-25T11:49:04Z</time>
      </trkpt>
      <trkpt lat="59.073529243469238" lon="30.00739574432373">
        <time>2026-04-25T11:49:07Z</time>
      </trkpt>
      <trkpt lat="59.073529243469238" lon="30.00739574432373">
        <time>2026-04-25T11:49:09Z</time>
      </trkpt>
      <trkpt lat="59.073529243469238" lon="30.00739574432373">
        <time>2026-04-25T11:49:12Z</time>
      </trkpt>
      <trkpt lat="59.073529243469238" lon="30.00739574432373">
        <time>2026-04-25T11:49:14Z</time>
      </trkpt>
      <trkpt lat="59.073529243469238" lon="30.007438659667969">
        <time>2026-04-25T11:49:17Z</time>
      </trkpt>
      <trkpt lat="59.073529243469238" lon="30.007460117340088">
        <time>2026-04-25T11:49:19Z</time>
      </trkpt>
      <trkpt lat="59.073529243469238" lon="30.007460117340088">
        <time>2026-04-25T11:49:22Z</time>
      </trkpt>
      <trkpt lat="59.073529243469238" lon="30.007503032684326">
        <time>2026-04-25T11:49:24Z</time>
      </trkpt>
      <trkpt lat="59.073529243469238" lon="30.007567405700684">
        <time>2026-04-25T11:49:27Z</time>
      </trkpt>
      <trkpt lat="59.073529243469238" lon="30.007610321044922">
        <time>2026-04-25T11:49:29Z</time>
      </trkpt>
      <trkpt lat="59.073529243469238" lon="30.007610321044922">
        <time>2026-04-25T11:49:32Z</time>
      </trkpt>
      <trkpt lat="59.073529243469238" lon="30.007610321044922">
        <time>2026-04-25T11:49:34Z</time>
      </trkpt>
      <trkpt lat="59.073529243469238" lon="30.007610321044922">
        <time>2026-04-25T11:49:37Z</time>
      </trkpt>
      <trkpt lat="59.073550701141357" lon="30.007674694061279">
        <time>2026-04-25T11:49:39Z</time>
      </trkpt>
      <trkpt lat="59.073550701141357" lon="30.007674694061279">
        <time>2026-04-25T11:49:42Z</time>
      </trkpt>
      <trkpt lat="59.073550701141357" lon="30.00765323638916">
        <time>2026-04-25T11:49:44Z</time>
      </trkpt>
      <trkpt lat="59.073529243469238" lon="30.007631778717041">
        <time>2026-04-25T11:49:47Z</time>
      </trkpt>
      <trkpt lat="59.073529243469238" lon="30.007674694061279">
        <time>2026-04-25T11:49:49Z</time>
      </trkpt>
      <trkpt lat="59.073529243469238" lon="30.007674694061279">
        <time>2026-04-25T11:49:52Z</time>
      </trkpt>
      <trkpt lat="59.073529243469238" lon="30.007524490356445">
        <time>2026-04-25T11:49:54Z</time>
      </trkpt>
      <trkpt lat="59.073507785797119" lon="30.007481575012207">
        <time>2026-04-25T11:49:57Z</time>
      </trkpt>
      <trkpt lat="59.073529243469238" lon="30.007610321044922">
        <time>2026-04-25T11:49:59Z</time>
      </trkpt>
      <trkpt lat="59.073507785797119" lon="30.007631778717041">
        <time>2026-04-25T11:50:02Z</time>
      </trkpt>
      <trkpt lat="59.073486328125" lon="30.007631778717041">
        <time>2026-04-25T11:50:04Z</time>
      </trkpt>
      <trkpt lat="59.073486328125" lon="30.007631778717041">
        <time>2026-04-25T11:50:07Z</time>
      </trkpt>
      <trkpt lat="59.073507785797119" lon="30.007610321044922">
        <time>2026-04-25T11:50:09Z</time>
      </trkpt>
      <trkpt lat="59.073507785797119" lon="30.007524490356445">
        <time>2026-04-25T11:50:12Z</time>
      </trkpt>
      <trkpt lat="59.073507785797119" lon="30.007503032684326">
        <time>2026-04-25T11:50:14Z</time>
      </trkpt>
      <trkpt lat="59.073529243469238" lon="30.007588863372803">
        <time>2026-04-25T11:50:17Z</time>
      </trkpt>
      <trkpt lat="59.073507785797119" lon="30.007631778717041">
        <time>2026-04-25T11:50:19Z</time>
      </trkpt>
      <trkpt lat="59.073486328125" lon="30.00765323638916">
        <time>2026-04-25T11:50:22Z</time>
      </trkpt>
      <trkpt lat="59.073443412780762" lon="30.007760524749756">
        <time>2026-04-25T11:50:24Z</time>
      </trkpt>
      <trkpt lat="59.073421955108643" lon="30.007824897766113">
        <time>2026-04-25T11:50:27Z</time>
      </trkpt>
      <trkpt lat="59.073400497436523" lon="30.007824897766113">
        <time>2026-04-25T11:50:29Z</time>
      </trkpt>
      <trkpt lat="59.073400497436523" lon="30.007824897766113">
        <time>2026-04-25T11:50:32Z</time>
      </trkpt>
      <trkpt lat="59.073421955108643" lon="30.007781982421875">
        <time>2026-04-25T11:50:34Z</time>
      </trkpt>
      <trkpt lat="59.073421955108643" lon="30.007717609405518">
        <time>2026-04-25T11:50:37Z</time>
      </trkpt>
      <trkpt lat="59.073443412780762" lon="30.007760524749756">
        <time>2026-04-25T11:50:39Z</time>
      </trkpt>
      <trkpt lat="59.073443412780762" lon="30.007739067077637">
        <time>2026-04-25T11:50:42Z</time>
      </trkpt>
      <trkpt lat="59.073421955108643" lon="30.00765323638916">
        <time>2026-04-25T11:50:44Z</time>
      </trkpt>
      <trkpt lat="59.073421955108643" lon="30.007631778717041">
        <time>2026-04-25T11:50:47Z</time>
      </trkpt>
      <trkpt lat="59.073421955108643" lon="30.007696151733398">
        <time>2026-04-25T11:50:49Z</time>
      </trkpt>
      <trkpt lat="59.073400497436523" lon="30.007803440093994">
        <time>2026-04-25T11:50:52Z</time>
      </trkpt>
      <trkpt lat="59.073336124420166" lon="30.007846355438232">
        <time>2026-04-25T11:50:54Z</time>
      </trkpt>
      <trkpt lat="59.073293209075928" lon="30.007824897766113">
        <time>2026-04-25T11:50:57Z</time>
      </trkpt>
      <trkpt lat="59.073271751403809" lon="30.007824897766113">
        <time>2026-04-25T11:50:59Z</time>
      </trkpt>
      <trkpt lat="59.073250293731689" lon="30.007781982421875">
        <time>2026-04-25T11:51:02Z</time>
      </trkpt>
      <trkpt lat="59.07322883605957" lon="30.007760524749756">
        <time>2026-04-25T11:51:04Z</time>
      </trkpt>
      <trkpt lat="59.073250293731689" lon="30.007803440093994">
        <time>2026-04-25T11:51:07Z</time>
      </trkpt>
      <trkpt lat="59.073336124420166" lon="30.007846355438232">
        <time>2026-04-25T11:51:09Z</time>
      </trkpt>
      <trkpt lat="59.073336124420166" lon="30.007846355438232">
        <time>2026-04-25T11:51:12Z</time>
      </trkpt>
      <trkpt lat="59.073314666748047" lon="30.007781982421875">
        <time>2026-04-25T11:51:14Z</time>
      </trkpt>
      <trkpt lat="59.073314666748047" lon="30.007760524749756">
        <time>2026-04-25T11:51:17Z</time>
      </trkpt>
      <trkpt lat="59.073293209075928" lon="30.007717609405518">
        <time>2026-04-25T11:51:19Z</time>
      </trkpt>
      <trkpt lat="59.073271751403809" lon="30.007696151733398">
        <time>2026-04-25T11:51:22Z</time>
      </trkpt>
      <trkpt lat="59.073250293731689" lon="30.00765323638916">
        <time>2026-04-25T11:51:24Z</time>
      </trkpt>
      <trkpt lat="59.07322883605957" lon="30.007631778717041">
        <time>2026-04-25T11:51:27Z</time>
      </trkpt>
      <trkpt lat="59.073271751403809" lon="30.007674694061279">
        <time>2026-04-25T11:51:29Z</time>
      </trkpt>
      <trkpt lat="59.073314666748047" lon="30.007696151733398">
        <time>2026-04-25T11:51:32Z</time>
      </trkpt>
      <trkpt lat="59.073336124420166" lon="30.007803440093994">
        <time>2026-04-25T11:51:34Z</time>
      </trkpt>
      <trkpt lat="59.073293209075928" lon="30.007846355438232">
        <time>2026-04-25T11:51:37Z</time>
      </trkpt>
      <trkpt lat="59.073250293731689" lon="30.007867813110352">
        <time>2026-04-25T11:51:39Z</time>
      </trkpt>
      <trkpt lat="59.073250293731689" lon="30.007867813110352">
        <time>2026-04-25T11:51:42Z</time>
      </trkpt>
      <trkpt lat="59.073250293731689" lon="30.007867813110352">
        <time>2026-04-25T11:51:44Z</time>
      </trkpt>
      <trkpt lat="59.073250293731689" lon="30.007867813110352">
        <time>2026-04-25T11:51:47Z</time>
      </trkpt>
      <trkpt lat="59.073250293731689" lon="30.007867813110352">
        <time>2026-04-25T11:51:49Z</time>
      </trkpt>
      <trkpt lat="59.073250293731689" lon="30.007867813110352">
        <time>2026-04-25T11:51:52Z</time>
      </trkpt>
      <trkpt lat="59.073250293731689" lon="30.007867813110352">
        <time>2026-04-25T11:51:54Z</time>
      </trkpt>
      <trkpt lat="59.073250293731689" lon="30.007867813110352">
        <time>2026-04-25T11:51:57Z</time>
      </trkpt>
      <trkpt lat="59.073250293731689" lon="30.007867813110352">
        <time>2026-04-25T11:51:59Z</time>
      </trkpt>
      <trkpt lat="59.07322883605957" lon="30.007889270782471">
        <time>2026-04-25T11:52:02Z</time>
      </trkpt>
      <trkpt lat="59.073207378387451" lon="30.007867813110352">
        <time>2026-04-25T11:52:04Z</time>
      </trkpt>
      <trkpt lat="59.073207378387451" lon="30.007867813110352">
        <time>2026-04-25T11:52:07Z</time>
      </trkpt>
      <trkpt lat="59.073207378387451" lon="30.007846355438232">
        <time>2026-04-25T11:52:09Z</time>
      </trkpt>
      <trkpt lat="59.073185920715332" lon="30.007846355438232">
        <time>2026-04-25T11:52:12Z</time>
      </trkpt>
      <trkpt lat="59.073185920715332" lon="30.007846355438232">
        <time>2026-04-25T11:52:14Z</time>
      </trkpt>
      <trkpt lat="59.073164463043213" lon="30.007824897766113">
        <time>2026-04-25T11:52:17Z</time>
      </trkpt>
      <trkpt lat="59.073164463043213" lon="30.007803440093994">
        <time>2026-04-25T11:52:19Z</time>
      </trkpt>
      <trkpt lat="59.073164463043213" lon="30.007803440093994">
        <time>2026-04-25T11:52:22Z</time>
      </trkpt>
      <trkpt lat="59.073164463043213" lon="30.007803440093994">
        <time>2026-04-25T11:52:24Z</time>
      </trkpt>
      <trkpt lat="59.073164463043213" lon="30.007803440093994">
        <time>2026-04-25T11:52:27Z</time>
      </trkpt>
      <trkpt lat="59.073121547698975" lon="30.007739067077637">
        <time>2026-04-25T11:52:29Z</time>
      </trkpt>
      <trkpt lat="59.073121547698975" lon="30.007717609405518">
        <time>2026-04-25T11:52:32Z</time>
      </trkpt>
      <trkpt lat="59.073121547698975" lon="30.007717609405518">
        <time>2026-04-25T11:52:34Z</time>
      </trkpt>
      <trkpt lat="59.073121547698975" lon="30.007739067077637">
        <time>2026-04-25T11:52:37Z</time>
      </trkpt>
      <trkpt lat="59.073185920715332" lon="30.007781982421875">
        <time>2026-04-25T11:52:39Z</time>
      </trkpt>
      <trkpt lat="59.073185920715332" lon="30.007803440093994">
        <time>2026-04-25T11:52:42Z</time>
      </trkpt>
      <trkpt lat="59.073164463043213" lon="30.007781982421875">
        <time>2026-04-25T11:52:44Z</time>
      </trkpt>
      <trkpt lat="59.073121547698975" lon="30.007739067077637">
        <time>2026-04-25T11:52:47Z</time>
      </trkpt>
      <trkpt lat="59.073057174682617" lon="30.007674694061279">
        <time>2026-04-25T11:52:49Z</time>
      </trkpt>
      <trkpt lat="59.073014259338379" lon="30.007631778717041">
        <time>2026-04-25T11:52:52Z</time>
      </trkpt>
      <trkpt lat="59.073014259338379" lon="30.007631778717041">
        <time>2026-04-25T11:52:54Z</time>
      </trkpt>
      <trkpt lat="59.073014259338379" lon="30.007631778717041">
        <time>2026-04-25T11:52:57Z</time>
      </trkpt>
      <trkpt lat="59.073014259338379" lon="30.007588863372803">
        <time>2026-04-25T11:52:59Z</time>
      </trkpt>
      <trkpt lat="59.072971343994141" lon="30.007524490356445">
        <time>2026-04-25T11:53:02Z</time>
      </trkpt>
      <trkpt lat="59.072971343994141" lon="30.007524490356445">
        <time>2026-04-25T11:53:04Z</time>
      </trkpt>
      <trkpt lat="59.073014259338379" lon="30.007610321044922">
        <time>2026-04-25T11:53:07Z</time>
      </trkpt>
      <trkpt lat="59.072971343994141" lon="30.007567405700684">
        <time>2026-04-25T11:53:09Z</time>
      </trkpt>
      <trkpt lat="59.072949886322021" lon="30.007438659667969">
        <time>2026-04-25T11:53:12Z</time>
      </trkpt>
      <trkpt lat="59.072949886322021" lon="30.007352828979492">
        <time>2026-04-25T11:53:14Z</time>
      </trkpt>
      <trkpt lat="59.072971343994141" lon="30.007460117340088">
        <time>2026-04-25T11:53:17Z</time>
      </trkpt>
      <trkpt lat="59.072971343994141" lon="30.007460117340088">
        <time>2026-04-25T11:53:19Z</time>
      </trkpt>
      <trkpt lat="59.072949886322021" lon="30.007309913635254">
        <time>2026-04-25T11:53:22Z</time>
      </trkpt>
      <trkpt lat="59.072906970977783" lon="30.007202625274658">
        <time>2026-04-25T11:53:24Z</time>
      </trkpt>
      <trkpt lat="59.072906970977783" lon="30.007202625274658">
        <time>2026-04-25T11:53:27Z</time>
      </trkpt>
      <trkpt lat="59.072885513305664" lon="30.00715970993042">
        <time>2026-04-25T11:53:29Z</time>
      </trkpt>
      <trkpt lat="59.072864055633545" lon="30.007116794586182">
        <time>2026-04-25T11:53:32Z</time>
      </trkpt>
      <trkpt lat="59.072864055633545" lon="30.007138252258301">
        <time>2026-04-25T11:53:34Z</time>
      </trkpt>
      <trkpt lat="59.072906970977783" lon="30.007224082946777">
        <time>2026-04-25T11:53:37Z</time>
      </trkpt>
      <trkpt lat="59.072949886322021" lon="30.00715970993042">
        <time>2026-04-25T11:53:39Z</time>
      </trkpt>
      <trkpt lat="59.072971343994141" lon="30.007073879241943">
        <time>2026-04-25T11:53:42Z</time>
      </trkpt>
      <trkpt lat="59.072971343994141" lon="30.007030963897705">
        <time>2026-04-25T11:53:44Z</time>
      </trkpt>
      <trkpt lat="59.072971343994141" lon="30.007009506225586">
        <time>2026-04-25T11:53:47Z</time>
      </trkpt>
      <trkpt lat="59.072949886322021" lon="30.00690221786499">
        <time>2026-04-25T11:53:49Z</time>
      </trkpt>
      <trkpt lat="59.072949886322021" lon="30.006859302520752">
        <time>2026-04-25T11:53:52Z</time>
      </trkpt>
      <trkpt lat="59.072949886322021" lon="30.006837844848633">
        <time>2026-04-25T11:53:54Z</time>
      </trkpt>
      <trkpt lat="59.073014259338379" lon="30.006773471832275">
        <time>2026-04-25T11:54:02Z</time>
      </trkpt>
      <trkpt lat="59.073057174682617" lon="30.006687641143799">
        <time>2026-04-25T11:54:04Z</time>
      </trkpt>
      <trkpt lat="59.073057174682617" lon="30.006644725799561">
        <time>2026-04-25T11:54:07Z</time>
      </trkpt>
      <trkpt lat="59.073057174682617" lon="30.006580352783203">
        <time>2026-04-25T11:54:09Z</time>
      </trkpt>
      <trkpt lat="59.073057174682617" lon="30.006580352783203">
        <time>2026-04-25T11:54:12Z</time>
      </trkpt>
      <trkpt lat="59.073057174682617" lon="30.006558895111084">
        <time>2026-04-25T11:54:14Z</time>
      </trkpt>
      <trkpt lat="59.073035717010498" lon="30.006515979766846">
        <time>2026-04-25T11:54:17Z</time>
      </trkpt>
      <trkpt lat="59.073014259338379" lon="30.006473064422607">
        <time>2026-04-25T11:54:19Z</time>
      </trkpt>
      <trkpt lat="59.073014259338379" lon="30.006451606750488">
        <time>2026-04-25T11:54:22Z</time>
      </trkpt>
      <trkpt lat="59.07299280166626" lon="30.006387233734131">
        <time>2026-04-25T11:54:24Z</time>
      </trkpt>
      <trkpt lat="59.072971343994141" lon="30.006322860717773">
        <time>2026-04-25T11:54:27Z</time>
      </trkpt>
      <trkpt lat="59.072971343994141" lon="30.006344318389893">
        <time>2026-04-25T11:54:29Z</time>
      </trkpt>
      <trkpt lat="59.073014259338379" lon="30.006387233734131">
        <time>2026-04-25T11:54:32Z</time>
      </trkpt>
      <trkpt lat="59.073014259338379" lon="30.006430149078369">
        <time>2026-04-25T11:54:34Z</time>
      </trkpt>
      <trkpt lat="59.073014259338379" lon="30.006387233734131">
        <time>2026-04-25T11:54:37Z</time>
      </trkpt>
      <trkpt lat="59.07299280166626" lon="30.006279945373535">
        <time>2026-04-25T11:54:39Z</time>
      </trkpt>
      <trkpt lat="59.072971343994141" lon="30.006194114685059">
        <time>2026-04-25T11:54:42Z</time>
      </trkpt>
      <trkpt lat="59.072949886322021" lon="30.00615119934082">
        <time>2026-04-25T11:54:44Z</time>
      </trkpt>
      <trkpt lat="59.072949886322021" lon="30.006108283996582">
        <time>2026-04-25T11:54:47Z</time>
      </trkpt>
      <trkpt lat="59.072928428649902" lon="30.006022453308105">
        <time>2026-04-25T11:54:49Z</time>
      </trkpt>
      <trkpt lat="59.072928428649902" lon="30.006000995635986">
        <time>2026-04-25T11:54:52Z</time>
      </trkpt>
      <trkpt lat="59.072949886322021" lon="30.006022453308105">
        <time>2026-04-25T11:54:54Z</time>
      </trkpt>
      <trkpt lat="59.072928428649902" lon="30.006000995635986">
        <time>2026-04-25T11:54:57Z</time>
      </trkpt>
      <trkpt lat="59.072906970977783" lon="30.00591516494751">
        <time>2026-04-25T11:54:59Z</time>
      </trkpt>
      <trkpt lat="59.072885513305664" lon="30.005850791931152">
        <time>2026-04-25T11:55:02Z</time>
      </trkpt>
      <trkpt lat="59.072885513305664" lon="30.005850791931152">
        <time>2026-04-25T11:55:04Z</time>
      </trkpt>
      <trkpt lat="59.072885513305664" lon="30.005850791931152">
        <time>2026-04-25T11:55:07Z</time>
      </trkpt>
      <trkpt lat="59.072885513305664" lon="30.005850791931152">
        <time>2026-04-25T11:55:09Z</time>
      </trkpt>
      <trkpt lat="59.072864055633545" lon="30.005850791931152">
        <time>2026-04-25T11:55:12Z</time>
      </trkpt>
      <trkpt lat="59.072885513305664" lon="30.005829334259033">
        <time>2026-04-25T11:55:14Z</time>
      </trkpt>
      <trkpt lat="59.072885513305664" lon="30.005807876586914">
        <time>2026-04-25T11:55:17Z</time>
      </trkpt>
      <trkpt lat="59.072864055633545" lon="30.005743503570557">
        <time>2026-04-25T11:55:19Z</time>
      </trkpt>
      <trkpt lat="59.072842597961426" lon="30.005700588226318">
        <time>2026-04-25T11:55:22Z</time>
      </trkpt>
      <trkpt lat="59.072842597961426" lon="30.005636215209961">
        <time>2026-04-25T11:55:24Z</time>
      </trkpt>
      <trkpt lat="59.072821140289307" lon="30.005636215209961">
        <time>2026-04-25T11:55:27Z</time>
      </trkpt>
      <trkpt lat="59.072842597961426" lon="30.005700588226318">
        <time>2026-04-25T11:55:29Z</time>
      </trkpt>
      <trkpt lat="59.072864055633545" lon="30.005743503570557">
        <time>2026-04-25T11:55:32Z</time>
      </trkpt>
      <trkpt lat="59.072885513305664" lon="30.005764961242676">
        <time>2026-04-25T11:55:34Z</time>
      </trkpt>
      <trkpt lat="59.072928428649902" lon="30.005764961242676">
        <time>2026-04-25T11:55:37Z</time>
      </trkpt>
      <trkpt lat="59.072928428649902" lon="30.005679130554199">
        <time>2026-04-25T11:55:39Z</time>
      </trkpt>
      <trkpt lat="59.072928428649902" lon="30.00565767288208">
        <time>2026-04-25T11:55:42Z</time>
      </trkpt>
      <trkpt lat="59.072928428649902" lon="30.00565767288208">
        <time>2026-04-25T11:55:44Z</time>
      </trkpt>
      <trkpt lat="59.072928428649902" lon="30.00565767288208">
        <time>2026-04-25T11:55:47Z</time>
      </trkpt>
      <trkpt lat="59.072928428649902" lon="30.00565767288208">
        <time>2026-04-25T11:55:49Z</time>
      </trkpt>
      <trkpt lat="59.072928428649902" lon="30.00565767288208">
        <time>2026-04-25T11:55:52Z</time>
      </trkpt>
      <trkpt lat="59.072928428649902" lon="30.005764961242676">
        <time>2026-04-25T11:55:54Z</time>
      </trkpt>
      <trkpt lat="59.072928428649902" lon="30.005764961242676">
        <time>2026-04-25T11:55:57Z</time>
      </trkpt>
      <trkpt lat="59.072906970977783" lon="30.005807876586914">
        <time>2026-04-25T11:55:59Z</time>
      </trkpt>
      <trkpt lat="59.072885513305664" lon="30.005807876586914">
        <time>2026-04-25T11:56:02Z</time>
      </trkpt>
      <trkpt lat="59.072885513305664" lon="30.005807876586914">
        <time>2026-04-25T11:56:04Z</time>
      </trkpt>
      <trkpt lat="59.072885513305664" lon="30.005807876586914">
        <time>2026-04-25T11:56:07Z</time>
      </trkpt>
      <trkpt lat="59.072885513305664" lon="30.005807876586914">
        <time>2026-04-25T11:56:09Z</time>
      </trkpt>
      <trkpt lat="59.072885513305664" lon="30.005807876586914">
        <time>2026-04-25T11:56:12Z</time>
      </trkpt>
      <trkpt lat="59.072885513305664" lon="30.005807876586914">
        <time>2026-04-25T11:56:14Z</time>
      </trkpt>
      <trkpt lat="59.072885513305664" lon="30.005807876586914">
        <time>2026-04-25T11:56:17Z</time>
      </trkpt>
      <trkpt lat="59.072885513305664" lon="30.005807876586914">
        <time>2026-04-25T11:56:19Z</time>
      </trkpt>
      <trkpt lat="59.072885513305664" lon="30.005807876586914">
        <time>2026-04-25T11:56:22Z</time>
      </trkpt>
      <trkpt lat="59.072842597961426" lon="30.005786418914795">
        <time>2026-04-25T11:56:24Z</time>
      </trkpt>
      <trkpt lat="59.072821140289307" lon="30.005807876586914">
        <time>2026-04-25T11:56:27Z</time>
      </trkpt>
      <trkpt lat="59.072756767272949" lon="30.005829334259033">
        <time>2026-04-25T11:56:29Z</time>
      </trkpt>
      <trkpt lat="59.07273530960083" lon="30.005829334259033">
        <time>2026-04-25T11:56:32Z</time>
      </trkpt>
      <trkpt lat="59.072713851928711" lon="30.005764961242676">
        <time>2026-04-25T11:56:34Z</time>
      </trkpt>
      <trkpt lat="59.072692394256592" lon="30.005743503570557">
        <time>2026-04-25T11:56:37Z</time>
      </trkpt>
      <trkpt lat="59.072670936584473" lon="30.005743503570557">
        <time>2026-04-25T11:56:39Z</time>
      </trkpt>
      <trkpt lat="59.072649478912354" lon="30.005722045898438">
        <time>2026-04-25T11:56:42Z</time>
      </trkpt>
      <trkpt lat="59.072628021240234" lon="30.005722045898438">
        <time>2026-04-25T11:56:44Z</time>
      </trkpt>
      <trkpt lat="59.072628021240234" lon="30.005743503570557">
        <time>2026-04-25T11:56:47Z</time>
      </trkpt>
      <trkpt lat="59.072585105895996" lon="30.005743503570557">
        <time>2026-04-25T11:56:49Z</time>
      </trkpt>
      <trkpt lat="59.072542190551758" lon="30.005700588226318">
        <time>2026-04-25T11:56:52Z</time>
      </trkpt>
      <trkpt lat="59.072542190551758" lon="30.005700588226318">
        <time>2026-04-25T11:56:54Z</time>
      </trkpt>
      <trkpt lat="59.072542190551758" lon="30.005700588226318">
        <time>2026-04-25T11:56:57Z</time>
      </trkpt>
      <trkpt lat="59.072585105895996" lon="30.005743503570557">
        <time>2026-04-25T11:56:59Z</time>
      </trkpt>
      <trkpt lat="59.072563648223877" lon="30.005786418914795">
        <time>2026-04-25T11:57:02Z</time>
      </trkpt>
      <trkpt lat="59.072542190551758" lon="30.005786418914795">
        <time>2026-04-25T11:57:04Z</time>
      </trkpt>
      <trkpt lat="59.072542190551758" lon="30.005786418914795">
        <time>2026-04-25T11:57:07Z</time>
      </trkpt>
      <trkpt lat="59.072542190551758" lon="30.005786418914795">
        <time>2026-04-25T11:57:09Z</time>
      </trkpt>
      <trkpt lat="59.072542190551758" lon="30.005786418914795">
        <time>2026-04-25T11:57:12Z</time>
      </trkpt>
      <trkpt lat="59.072563648223877" lon="30.005829334259033">
        <time>2026-04-25T11:57:14Z</time>
      </trkpt>
      <trkpt lat="59.072563648223877" lon="30.005893707275391">
        <time>2026-04-25T11:57:17Z</time>
      </trkpt>
      <trkpt lat="59.072542190551758" lon="30.006000995635986">
        <time>2026-04-25T11:57:19Z</time>
      </trkpt>
      <trkpt lat="59.072520732879639" lon="30.006043910980225">
        <time>2026-04-25T11:57:22Z</time>
      </trkpt>
      <trkpt lat="59.072520732879639" lon="30.006065368652344">
        <time>2026-04-25T11:57:24Z</time>
      </trkpt>
      <trkpt lat="59.072520732879639" lon="30.006065368652344">
        <time>2026-04-25T11:57:27Z</time>
      </trkpt>
      <trkpt lat="59.072520732879639" lon="30.006065368652344">
        <time>2026-04-25T11:57:29Z</time>
      </trkpt>
      <trkpt lat="59.072520732879639" lon="30.006065368652344">
        <time>2026-04-25T11:57:32Z</time>
      </trkpt>
      <trkpt lat="59.072520732879639" lon="30.006065368652344">
        <time>2026-04-25T11:57:34Z</time>
      </trkpt>
      <trkpt lat="59.072520732879639" lon="30.006065368652344">
        <time>2026-04-25T11:57:37Z</time>
      </trkpt>
      <trkpt lat="59.072520732879639" lon="30.006065368652344">
        <time>2026-04-25T11:57:39Z</time>
      </trkpt>
      <trkpt lat="59.072520732879639" lon="30.006065368652344">
        <time>2026-04-25T11:57:42Z</time>
      </trkpt>
      <trkpt lat="59.072520732879639" lon="30.006065368652344">
        <time>2026-04-25T11:57:44Z</time>
      </trkpt>
      <trkpt lat="59.072520732879639" lon="30.006065368652344">
        <time>2026-04-25T11:57:47Z</time>
      </trkpt>
      <trkpt lat="59.072520732879639" lon="30.006065368652344">
        <time>2026-04-25T11:57:49Z</time>
      </trkpt>
      <trkpt lat="59.072520732879639" lon="30.006065368652344">
        <time>2026-04-25T11:57:52Z</time>
      </trkpt>
      <trkpt lat="59.072520732879639" lon="30.006065368652344">
        <time>2026-04-25T11:57:54Z</time>
      </trkpt>
      <trkpt lat="59.072542190551758" lon="30.006022453308105">
        <time>2026-04-25T11:57:57Z</time>
      </trkpt>
      <trkpt lat="59.072542190551758" lon="30.006022453308105">
        <time>2026-04-25T11:57:59Z</time>
      </trkpt>
      <trkpt lat="59.072520732879639" lon="30.006086826324463">
        <time>2026-04-25T11:58:02Z</time>
      </trkpt>
      <trkpt lat="59.0724778175354" lon="30.006129741668701">
        <time>2026-04-25T11:58:04Z</time>
      </trkpt>
      <trkpt lat="59.072456359863281" lon="30.006108283996582">
        <time>2026-04-25T11:58:07Z</time>
      </trkpt>
      <trkpt lat="59.072434902191162" lon="30.006108283996582">
        <time>2026-04-25T11:58:09Z</time>
      </trkpt>
      <trkpt lat="59.072391986846924" lon="30.006108283996582">
        <time>2026-04-25T11:58:12Z</time>
      </trkpt>
      <trkpt lat="59.072391986846924" lon="30.006129741668701">
        <time>2026-04-25T11:58:14Z</time>
      </trkpt>
      <trkpt lat="59.072370529174805" lon="30.006129741668701">
        <time>2026-04-25T11:58:17Z</time>
      </trkpt>
      <trkpt lat="59.072370529174805" lon="30.006129741668701">
        <time>2026-04-25T11:58:19Z</time>
      </trkpt>
      <trkpt lat="59.072370529174805" lon="30.006129741668701">
        <time>2026-04-25T11:58:22Z</time>
      </trkpt>
      <trkpt lat="59.072391986846924" lon="30.006086826324463">
        <time>2026-04-25T11:58:24Z</time>
      </trkpt>
      <trkpt lat="59.072456359863281" lon="30.006086826324463">
        <time>2026-04-25T11:58:27Z</time>
      </trkpt>
      <trkpt lat="59.072456359863281" lon="30.006129741668701">
        <time>2026-04-25T11:58:29Z</time>
      </trkpt>
      <trkpt lat="59.072434902191162" lon="30.006237030029297">
        <time>2026-04-25T11:58:32Z</time>
      </trkpt>
      <trkpt lat="59.072456359863281" lon="30.006322860717773">
        <time>2026-04-25T11:58:34Z</time>
      </trkpt>
      <trkpt lat="59.072456359863281" lon="30.006322860717773">
        <time>2026-04-25T11:58:37Z</time>
      </trkpt>
      <trkpt lat="59.072456359863281" lon="30.006344318389893">
        <time>2026-04-25T11:58:39Z</time>
      </trkpt>
      <trkpt lat="59.072456359863281" lon="30.006387233734131">
        <time>2026-04-25T11:58:42Z</time>
      </trkpt>
      <trkpt lat="59.072434902191162" lon="30.006430149078369">
        <time>2026-04-25T11:58:44Z</time>
      </trkpt>
      <trkpt lat="59.072413444519043" lon="30.006473064422607">
        <time>2026-04-25T11:58:47Z</time>
      </trkpt>
      <trkpt lat="59.072391986846924" lon="30.006537437438965">
        <time>2026-04-25T11:58:49Z</time>
      </trkpt>
      <trkpt lat="59.072391986846924" lon="30.006558895111084">
        <time>2026-04-25T11:58:52Z</time>
      </trkpt>
      <trkpt lat="59.072391986846924" lon="30.006558895111084">
        <time>2026-04-25T11:58:54Z</time>
      </trkpt>
      <trkpt lat="59.072391986846924" lon="30.006623268127441">
        <time>2026-04-25T11:58:57Z</time>
      </trkpt>
      <trkpt lat="59.072413444519043" lon="30.006687641143799">
        <time>2026-04-25T11:58:59Z</time>
      </trkpt>
      <trkpt lat="59.072413444519043" lon="30.006709098815918">
        <time>2026-04-25T11:59:02Z</time>
      </trkpt>
      <trkpt lat="59.072413444519043" lon="30.006709098815918">
        <time>2026-04-25T11:59:04Z</time>
      </trkpt>
      <trkpt lat="59.072413444519043" lon="30.006687641143799">
        <time>2026-04-25T11:59:07Z</time>
      </trkpt>
      <trkpt lat="59.072370529174805" lon="30.006601810455322">
        <time>2026-04-25T11:59:09Z</time>
      </trkpt>
      <trkpt lat="59.072370529174805" lon="30.006580352783203">
        <time>2026-04-25T11:59:12Z</time>
      </trkpt>
      <trkpt lat="59.072370529174805" lon="30.00666618347168">
        <time>2026-04-25T11:59:14Z</time>
      </trkpt>
      <trkpt lat="59.072391986846924" lon="30.006687641143799">
        <time>2026-04-25T11:59:17Z</time>
      </trkpt>
      <trkpt lat="59.072391986846924" lon="30.006687641143799">
        <time>2026-04-25T11:59:19Z</time>
      </trkpt>
      <trkpt lat="59.072391986846924" lon="30.006730556488037">
        <time>2026-04-25T11:59:22Z</time>
      </trkpt>
      <trkpt lat="59.072370529174805" lon="30.006816387176514">
        <time>2026-04-25T11:59:24Z</time>
      </trkpt>
      <trkpt lat="59.072370529174805" lon="30.006837844848633">
        <time>2026-04-25T11:59:27Z</time>
      </trkpt>
      <trkpt lat="59.072370529174805" lon="30.006837844848633">
        <time>2026-04-25T11:59:29Z</time>
      </trkpt>
      <trkpt lat="59.072370529174805" lon="30.006837844848633">
        <time>2026-04-25T11:59:32Z</time>
      </trkpt>
      <trkpt lat="59.072327613830566" lon="30.006773471832275">
        <time>2026-04-25T11:59:34Z</time>
      </trkpt>
      <trkpt lat="59.072327613830566" lon="30.006773471832275">
        <time>2026-04-25T11:59:37Z</time>
      </trkpt>
      <trkpt lat="59.072370529174805" lon="30.006773471832275">
        <time>2026-04-25T11:59:39Z</time>
      </trkpt>
      <trkpt lat="59.072370529174805" lon="30.006730556488037">
        <time>2026-04-25T11:59:42Z</time>
      </trkpt>
      <trkpt lat="59.072391986846924" lon="30.006709098815918">
        <time>2026-04-25T11:59:44Z</time>
      </trkpt>
      <trkpt lat="59.072391986846924" lon="30.006709098815918">
        <time>2026-04-25T11:59:47Z</time>
      </trkpt>
      <trkpt lat="59.072391986846924" lon="30.006709098815918">
        <time>2026-04-25T11:59:49Z</time>
      </trkpt>
      <trkpt lat="59.072391986846924" lon="30.006709098815918">
        <time>2026-04-25T11:59:52Z</time>
      </trkpt>
      <trkpt lat="59.072391986846924" lon="30.006709098815918">
        <time>2026-04-25T11:59:54Z</time>
      </trkpt>
      <trkpt lat="59.072349071502686" lon="30.00666618347168">
        <time>2026-04-25T11:59:57Z</time>
      </trkpt>
      <trkpt lat="59.072370529174805" lon="30.006709098815918">
        <time>2026-04-25T11:59:59Z</time>
      </trkpt>
      <trkpt lat="59.072370529174805" lon="30.006773471832275">
        <time>2026-04-25T12:00:02Z</time>
      </trkpt>
      <trkpt lat="59.072370529174805" lon="30.006923675537109">
        <time>2026-04-25T12:00:04Z</time>
      </trkpt>
      <trkpt lat="59.072370529174805" lon="30.006966590881348">
        <time>2026-04-25T12:00:07Z</time>
      </trkpt>
      <trkpt lat="59.072370529174805" lon="30.006966590881348">
        <time>2026-04-25T12:00:09Z</time>
      </trkpt>
      <trkpt lat="59.072370529174805" lon="30.006966590881348">
        <time>2026-04-25T12:00:12Z</time>
      </trkpt>
      <trkpt lat="59.072327613830566" lon="30.006966590881348">
        <time>2026-04-25T12:00:14Z</time>
      </trkpt>
      <trkpt lat="59.072349071502686" lon="30.006966590881348">
        <time>2026-04-25T12:00:17Z</time>
      </trkpt>
      <trkpt lat="59.072306156158447" lon="30.006945133209229">
        <time>2026-04-25T12:00:19Z</time>
      </trkpt>
      <trkpt lat="59.072306156158447" lon="30.006966590881348">
        <time>2026-04-25T12:00:22Z</time>
      </trkpt>
      <trkpt lat="59.072370529174805" lon="30.006945133209229">
        <time>2026-04-25T12:00:24Z</time>
      </trkpt>
      <trkpt lat="59.072370529174805" lon="30.006880760192871">
        <time>2026-04-25T12:00:27Z</time>
      </trkpt>
      <trkpt lat="59.072306156158447" lon="30.006752014160156">
        <time>2026-04-25T12:00:29Z</time>
      </trkpt>
      <trkpt lat="59.072284698486328" lon="30.006709098815918">
        <time>2026-04-25T12:00:32Z</time>
      </trkpt>
      <trkpt lat="59.072327613830566" lon="30.006752014160156">
        <time>2026-04-25T12:00:34Z</time>
      </trkpt>
      <trkpt lat="59.072349071502686" lon="30.006794929504395">
        <time>2026-04-25T12:00:37Z</time>
      </trkpt>
      <trkpt lat="59.072349071502686" lon="30.006816387176514">
        <time>2026-04-25T12:00:39Z</time>
      </trkpt>
      <trkpt lat="59.072370529174805" lon="30.00690221786499">
        <time>2026-04-25T12:00:42Z</time>
      </trkpt>
      <trkpt lat="59.072391986846924" lon="30.006988048553467">
        <time>2026-04-25T12:00:44Z</time>
      </trkpt>
      <trkpt lat="59.072413444519043" lon="30.007030963897705">
        <time>2026-04-25T12:00:47Z</time>
      </trkpt>
      <trkpt lat="59.072434902191162" lon="30.007073879241943">
        <time>2026-04-25T12:00:49Z</time>
      </trkpt>
      <trkpt lat="59.072434902191162" lon="30.007073879241943">
        <time>2026-04-25T12:00:52Z</time>
      </trkpt>
      <trkpt lat="59.072434902191162" lon="30.007116794586182">
        <time>2026-04-25T12:00:54Z</time>
      </trkpt>
      <trkpt lat="59.072413444519043" lon="30.00715970993042">
        <time>2026-04-25T12:00:57Z</time>
      </trkpt>
      <trkpt lat="59.072434902191162" lon="30.007245540618896">
        <time>2026-04-25T12:00:59Z</time>
      </trkpt>
      <trkpt lat="59.072456359863281" lon="30.007288455963135">
        <time>2026-04-25T12:01:02Z</time>
      </trkpt>
      <trkpt lat="59.0724778175354" lon="30.007331371307373">
        <time>2026-04-25T12:01:04Z</time>
      </trkpt>
      <trkpt lat="59.0724778175354" lon="30.007352828979492">
        <time>2026-04-25T12:01:07Z</time>
      </trkpt>
      <trkpt lat="59.07249927520752" lon="30.007374286651611">
        <time>2026-04-25T12:01:09Z</time>
      </trkpt>
      <trkpt lat="59.07249927520752" lon="30.007374286651611">
        <time>2026-04-25T12:01:12Z</time>
      </trkpt>
      <trkpt lat="59.072520732879639" lon="30.00739574432373">
        <time>2026-04-25T12:01:14Z</time>
      </trkpt>
      <trkpt lat="59.072542190551758" lon="30.00741720199585">
        <time>2026-04-25T12:01:17Z</time>
      </trkpt>
      <trkpt lat="59.072563648223877" lon="30.007460117340088">
        <time>2026-04-25T12:01:19Z</time>
      </trkpt>
      <trkpt lat="59.072585105895996" lon="30.007503032684326">
        <time>2026-04-25T12:01:22Z</time>
      </trkpt>
      <trkpt lat="59.072628021240234" lon="30.007545948028564">
        <time>2026-04-25T12:01:24Z</time>
      </trkpt>
      <trkpt lat="59.072628021240234" lon="30.007545948028564">
        <time>2026-04-25T12:01:27Z</time>
      </trkpt>
      <trkpt lat="59.072628021240234" lon="30.007545948028564">
        <time>2026-04-25T12:01:29Z</time>
      </trkpt>
      <trkpt lat="59.072628021240234" lon="30.007545948028564">
        <time>2026-04-25T12:01:32Z</time>
      </trkpt>
      <trkpt lat="59.072628021240234" lon="30.007545948028564">
        <time>2026-04-25T12:01:34Z</time>
      </trkpt>
      <trkpt lat="59.072628021240234" lon="30.007545948028564">
        <time>2026-04-25T12:01:37Z</time>
      </trkpt>
      <trkpt lat="59.072628021240234" lon="30.007545948028564">
        <time>2026-04-25T12:01:39Z</time>
      </trkpt>
      <trkpt lat="59.072628021240234" lon="30.007545948028564">
        <time>2026-04-25T12:01:42Z</time>
      </trkpt>
      <trkpt lat="59.072606563568115" lon="30.007524490356445">
        <time>2026-04-25T12:01:44Z</time>
      </trkpt>
      <trkpt lat="59.072563648223877" lon="30.007460117340088">
        <time>2026-04-25T12:01:47Z</time>
      </trkpt>
      <trkpt lat="59.072585105895996" lon="30.007481575012207">
        <time>2026-04-25T12:01:49Z</time>
      </trkpt>
      <trkpt lat="59.072606563568115" lon="30.007524490356445">
        <time>2026-04-25T12:01:52Z</time>
      </trkpt>
      <trkpt lat="59.072628021240234" lon="30.007567405700684">
        <time>2026-04-25T12:01:54Z</time>
      </trkpt>
      <trkpt lat="59.072649478912354" lon="30.007567405700684">
        <time>2026-04-25T12:01:57Z</time>
      </trkpt>
      <trkpt lat="59.072649478912354" lon="30.007567405700684">
        <time>2026-04-25T12:01:59Z</time>
      </trkpt>
      <trkpt lat="59.072628021240234" lon="30.007567405700684">
        <time>2026-04-25T12:02:02Z</time>
      </trkpt>
      <trkpt lat="59.072563648223877" lon="30.007481575012207">
        <time>2026-04-25T12:02:04Z</time>
      </trkpt>
      <trkpt lat="59.072520732879639" lon="30.007438659667969">
        <time>2026-04-25T12:02:07Z</time>
      </trkpt>
      <trkpt lat="59.072520732879639" lon="30.007438659667969">
        <time>2026-04-25T12:02:09Z</time>
      </trkpt>
      <trkpt lat="59.072520732879639" lon="30.007438659667969">
        <time>2026-04-25T12:02:12Z</time>
      </trkpt>
      <trkpt lat="59.072520732879639" lon="30.007438659667969">
        <time>2026-04-25T12:02:14Z</time>
      </trkpt>
      <trkpt lat="59.072520732879639" lon="30.007438659667969">
        <time>2026-04-25T12:02:17Z</time>
      </trkpt>
      <trkpt lat="59.072520732879639" lon="30.007460117340088">
        <time>2026-04-25T12:02:19Z</time>
      </trkpt>
      <trkpt lat="59.072563648223877" lon="30.007481575012207">
        <time>2026-04-25T12:02:22Z</time>
      </trkpt>
      <trkpt lat="59.072563648223877" lon="30.007481575012207">
        <time>2026-04-25T12:02:24Z</time>
      </trkpt>
      <trkpt lat="59.072563648223877" lon="30.007481575012207">
        <time>2026-04-25T12:02:27Z</time>
      </trkpt>
      <trkpt lat="59.072606563568115" lon="30.007545948028564">
        <time>2026-04-25T12:02:29Z</time>
      </trkpt>
      <trkpt lat="59.072628021240234" lon="30.007567405700684">
        <time>2026-04-25T12:02:32Z</time>
      </trkpt>
      <trkpt lat="59.072649478912354" lon="30.007588863372803">
        <time>2026-04-25T12:02:34Z</time>
      </trkpt>
      <trkpt lat="59.072649478912354" lon="30.007588863372803">
        <time>2026-04-25T12:02:37Z</time>
      </trkpt>
      <trkpt lat="59.072628021240234" lon="30.007588863372803">
        <time>2026-04-25T12:02:39Z</time>
      </trkpt>
      <trkpt lat="59.072606563568115" lon="30.007588863372803">
        <time>2026-04-25T12:02:42Z</time>
      </trkpt>
      <trkpt lat="59.072563648223877" lon="30.007567405700684">
        <time>2026-04-25T12:02:44Z</time>
      </trkpt>
      <trkpt lat="59.072585105895996" lon="30.007588863372803">
        <time>2026-04-25T12:02:47Z</time>
      </trkpt>
      <trkpt lat="59.072585105895996" lon="30.00765323638916">
        <time>2026-04-25T12:02:49Z</time>
      </trkpt>
      <trkpt lat="59.072585105895996" lon="30.007674694061279">
        <time>2026-04-25T12:02:52Z</time>
      </trkpt>
      <trkpt lat="59.072606563568115" lon="30.007674694061279">
        <time>2026-04-25T12:02:54Z</time>
      </trkpt>
      <trkpt lat="59.072606563568115" lon="30.007674694061279">
        <time>2026-04-25T12:02:57Z</time>
      </trkpt>
      <trkpt lat="59.072585105895996" lon="30.00765323638916">
        <time>2026-04-25T12:02:59Z</time>
      </trkpt>
      <trkpt lat="59.072542190551758" lon="30.007631778717041">
        <time>2026-04-25T12:03:02Z</time>
      </trkpt>
      <trkpt lat="59.072585105895996" lon="30.007674694061279">
        <time>2026-04-25T12:03:04Z</time>
      </trkpt>
      <trkpt lat="59.072606563568115" lon="30.007610321044922">
        <time>2026-04-25T12:03:07Z</time>
      </trkpt>
      <trkpt lat="59.072520732879639" lon="30.007460117340088">
        <time>2026-04-25T12:03:09Z</time>
      </trkpt>
      <trkpt lat="59.072434902191162" lon="30.007352828979492">
        <time>2026-04-25T12:03:12Z</time>
      </trkpt>
      <trkpt lat="59.072456359863281" lon="30.00739574432373">
        <time>2026-04-25T12:03:14Z</time>
      </trkpt>
      <trkpt lat="59.072520732879639" lon="30.007460117340088">
        <time>2026-04-25T12:03:17Z</time>
      </trkpt>
      <trkpt lat="59.072606563568115" lon="30.007588863372803">
        <time>2026-04-25T12:03:19Z</time>
      </trkpt>
      <trkpt lat="59.072606563568115" lon="30.007610321044922">
        <time>2026-04-25T12:03:22Z</time>
      </trkpt>
      <trkpt lat="59.072628021240234" lon="30.007588863372803">
        <time>2026-04-25T12:03:24Z</time>
      </trkpt>
      <trkpt lat="59.072628021240234" lon="30.007588863372803">
        <time>2026-04-25T12:03:27Z</time>
      </trkpt>
      <trkpt lat="59.072628021240234" lon="30.007588863372803">
        <time>2026-04-25T12:03:29Z</time>
      </trkpt>
      <trkpt lat="59.072606563568115" lon="30.00765323638916">
        <time>2026-04-25T12:03:32Z</time>
      </trkpt>
      <trkpt lat="59.072563648223877" lon="30.007696151733398">
        <time>2026-04-25T12:03:34Z</time>
      </trkpt>
      <trkpt lat="59.072520732879639" lon="30.007717609405518">
        <time>2026-04-25T12:03:37Z</time>
      </trkpt>
      <trkpt lat="59.072542190551758" lon="30.007717609405518">
        <time>2026-04-25T12:03:39Z</time>
      </trkpt>
      <trkpt lat="59.072563648223877" lon="30.007674694061279">
        <time>2026-04-25T12:03:42Z</time>
      </trkpt>
      <trkpt lat="59.072520732879639" lon="30.007503032684326">
        <time>2026-04-25T12:03:44Z</time>
      </trkpt>
      <trkpt lat="59.072456359863281" lon="30.00741720199585">
        <time>2026-04-25T12:03:47Z</time>
      </trkpt>
      <trkpt lat="59.072456359863281" lon="30.00741720199585">
        <time>2026-04-25T12:03:49Z</time>
      </trkpt>
      <trkpt lat="59.07249927520752" lon="30.007460117340088">
        <time>2026-04-25T12:03:52Z</time>
      </trkpt>
      <trkpt lat="59.072542190551758" lon="30.007567405700684">
        <time>2026-04-25T12:03:54Z</time>
      </trkpt>
      <trkpt lat="59.072563648223877" lon="30.00765323638916">
        <time>2026-04-25T12:03:57Z</time>
      </trkpt>
      <trkpt lat="59.072585105895996" lon="30.007631778717041">
        <time>2026-04-25T12:03:59Z</time>
      </trkpt>
      <trkpt lat="59.072585105895996" lon="30.007610321044922">
        <time>2026-04-25T12:04:02Z</time>
      </trkpt>
      <trkpt lat="59.072585105895996" lon="30.007610321044922">
        <time>2026-04-25T12:04:04Z</time>
      </trkpt>
      <trkpt lat="59.072585105895996" lon="30.007610321044922">
        <time>2026-04-25T12:04:07Z</time>
      </trkpt>
      <trkpt lat="59.072606563568115" lon="30.007696151733398">
        <time>2026-04-25T12:04:09Z</time>
      </trkpt>
      <trkpt lat="59.072628021240234" lon="30.007781982421875">
        <time>2026-04-25T12:04:12Z</time>
      </trkpt>
      <trkpt lat="59.072628021240234" lon="30.007803440093994">
        <time>2026-04-25T12:04:14Z</time>
      </trkpt>
      <trkpt lat="59.072606563568115" lon="30.007781982421875">
        <time>2026-04-25T12:04:17Z</time>
      </trkpt>
      <trkpt lat="59.072606563568115" lon="30.007781982421875">
        <time>2026-04-25T12:04:19Z</time>
      </trkpt>
      <trkpt lat="59.072606563568115" lon="30.007781982421875">
        <time>2026-04-25T12:04:22Z</time>
      </trkpt>
      <trkpt lat="59.072585105895996" lon="30.007674694061279">
        <time>2026-04-25T12:04:24Z</time>
      </trkpt>
      <trkpt lat="59.072520732879639" lon="30.007545948028564">
        <time>2026-04-25T12:04:27Z</time>
      </trkpt>
      <trkpt lat="59.072520732879639" lon="30.007524490356445">
        <time>2026-04-25T12:04:29Z</time>
      </trkpt>
      <trkpt lat="59.072542190551758" lon="30.007631778717041">
        <time>2026-04-25T12:04:32Z</time>
      </trkpt>
      <trkpt lat="59.072585105895996" lon="30.007717609405518">
        <time>2026-04-25T12:04:34Z</time>
      </trkpt>
      <trkpt lat="59.072628021240234" lon="30.007803440093994">
        <time>2026-04-25T12:04:37Z</time>
      </trkpt>
      <trkpt lat="59.072670936584473" lon="30.007889270782471">
        <time>2026-04-25T12:04:39Z</time>
      </trkpt>
      <trkpt lat="59.072670936584473" lon="30.00791072845459">
        <time>2026-04-25T12:04:42Z</time>
      </trkpt>
      <trkpt lat="59.072670936584473" lon="30.00791072845459">
        <time>2026-04-25T12:04:44Z</time>
      </trkpt>
      <trkpt lat="59.072670936584473" lon="30.007932186126709">
        <time>2026-04-25T12:04:47Z</time>
      </trkpt>
      <trkpt lat="59.072628021240234" lon="30.007953643798828">
        <time>2026-04-25T12:04:49Z</time>
      </trkpt>
      <trkpt lat="59.072628021240234" lon="30.007953643798828">
        <time>2026-04-25T12:04:52Z</time>
      </trkpt>
      <trkpt lat="59.072628021240234" lon="30.007932186126709">
        <time>2026-04-25T12:04:54Z</time>
      </trkpt>
      <trkpt lat="59.072649478912354" lon="30.007846355438232">
        <time>2026-04-25T12:04:57Z</time>
      </trkpt>
      <trkpt lat="59.072649478912354" lon="30.007846355438232">
        <time>2026-04-25T12:04:59Z</time>
      </trkpt>
      <trkpt lat="59.072649478912354" lon="30.007846355438232">
        <time>2026-04-25T12:05:02Z</time>
      </trkpt>
      <trkpt lat="59.072606563568115" lon="30.007696151733398">
        <time>2026-04-25T12:05:04Z</time>
      </trkpt>
      <trkpt lat="59.072542190551758" lon="30.007524490356445">
        <time>2026-04-25T12:05:07Z</time>
      </trkpt>
      <trkpt lat="59.072456359863281" lon="30.007352828979492">
        <time>2026-04-25T12:05:09Z</time>
      </trkpt>
      <trkpt lat="59.072434902191162" lon="30.007352828979492">
        <time>2026-04-25T12:05:12Z</time>
      </trkpt>
      <trkpt lat="59.072520732879639" lon="30.007460117340088">
        <time>2026-04-25T12:05:14Z</time>
      </trkpt>
      <trkpt lat="59.072542190551758" lon="30.007588863372803">
        <time>2026-04-25T12:05:17Z</time>
      </trkpt>
      <trkpt lat="59.072628021240234" lon="30.007760524749756">
        <time>2026-04-25T12:05:19Z</time>
      </trkpt>
      <trkpt lat="59.072649478912354" lon="30.007867813110352">
        <time>2026-04-25T12:05:22Z</time>
      </trkpt>
      <trkpt lat="59.072692394256592" lon="30.00791072845459">
        <time>2026-04-25T12:05:24Z</time>
      </trkpt>
      <trkpt lat="59.072692394256592" lon="30.00791072845459">
        <time>2026-04-25T12:05:27Z</time>
      </trkpt>
      <trkpt lat="59.072649478912354" lon="30.007932186126709">
        <time>2026-04-25T12:05:29Z</time>
      </trkpt>
      <trkpt lat="59.072585105895996" lon="30.007975101470947">
        <time>2026-04-25T12:05:32Z</time>
      </trkpt>
      <trkpt lat="59.072542190551758" lon="30.008060932159424">
        <time>2026-04-25T12:05:34Z</time>
      </trkpt>
      <trkpt lat="59.07249927520752" lon="30.008060932159424">
        <time>2026-04-25T12:05:37Z</time>
      </trkpt>
      <trkpt lat="59.0724778175354" lon="30.008082389831543">
        <time>2026-04-25T12:05:39Z</time>
      </trkpt>
      <trkpt lat="59.0724778175354" lon="30.008082389831543">
        <time>2026-04-25T12:05:42Z</time>
      </trkpt>
      <trkpt lat="59.0724778175354" lon="30.008082389831543">
        <time>2026-04-25T12:05:44Z</time>
      </trkpt>
      <trkpt lat="59.0724778175354" lon="30.008082389831543">
        <time>2026-04-25T12:05:47Z</time>
      </trkpt>
      <trkpt lat="59.0724778175354" lon="30.008082389831543">
        <time>2026-04-25T12:05:49Z</time>
      </trkpt>
      <trkpt lat="59.0724778175354" lon="30.008082389831543">
        <time>2026-04-25T12:05:52Z</time>
      </trkpt>
      <trkpt lat="59.0724778175354" lon="30.008082389831543">
        <time>2026-04-25T12:05:54Z</time>
      </trkpt>
      <trkpt lat="59.0724778175354" lon="30.008082389831543">
        <time>2026-04-25T12:05:57Z</time>
      </trkpt>
      <trkpt lat="59.07249927520752" lon="30.008060932159424">
        <time>2026-04-25T12:05:59Z</time>
      </trkpt>
      <trkpt lat="59.072520732879639" lon="30.008060932159424">
        <time>2026-04-25T12:06:02Z</time>
      </trkpt>
      <trkpt lat="59.072542190551758" lon="30.008060932159424">
        <time>2026-04-25T12:06:04Z</time>
      </trkpt>
      <trkpt lat="59.072542190551758" lon="30.008060932159424">
        <time>2026-04-25T12:06:07Z</time>
      </trkpt>
      <trkpt lat="59.072542190551758" lon="30.008060932159424">
        <time>2026-04-25T12:06:09Z</time>
      </trkpt>
      <trkpt lat="59.072542190551758" lon="30.008060932159424">
        <time>2026-04-25T12:06:12Z</time>
      </trkpt>
      <trkpt lat="59.07249927520752" lon="30.008082389831543">
        <time>2026-04-25T12:06:14Z</time>
      </trkpt>
      <trkpt lat="59.072456359863281" lon="30.008103847503662">
        <time>2026-04-25T12:06:17Z</time>
      </trkpt>
      <trkpt lat="59.072413444519043" lon="30.008125305175781">
        <time>2026-04-25T12:06:19Z</time>
      </trkpt>
      <trkpt lat="59.072391986846924" lon="30.0081467628479">
        <time>2026-04-25T12:06:22Z</time>
      </trkpt>
      <trkpt lat="59.072370529174805" lon="30.00816822052002">
        <time>2026-04-25T12:06:24Z</time>
      </trkpt>
      <trkpt lat="59.072370529174805" lon="30.00816822052002">
        <time>2026-04-25T12:06:27Z</time>
      </trkpt>
      <trkpt lat="59.072370529174805" lon="30.00816822052002">
        <time>2026-04-25T12:06:29Z</time>
      </trkpt>
      <trkpt lat="59.072370529174805" lon="30.00816822052002">
        <time>2026-04-25T12:06:32Z</time>
      </trkpt>
      <trkpt lat="59.072370529174805" lon="30.00816822052002">
        <time>2026-04-25T12:06:34Z</time>
      </trkpt>
      <trkpt lat="59.072391986846924" lon="30.00816822052002">
        <time>2026-04-25T12:06:37Z</time>
      </trkpt>
      <trkpt lat="59.072391986846924" lon="30.0081467628479">
        <time>2026-04-25T12:06:39Z</time>
      </trkpt>
      <trkpt lat="59.072391986846924" lon="30.0081467628479">
        <time>2026-04-25T12:06:42Z</time>
      </trkpt>
      <trkpt lat="59.072391986846924" lon="30.0081467628479">
        <time>2026-04-25T12:06:44Z</time>
      </trkpt>
      <trkpt lat="59.072391986846924" lon="30.0081467628479">
        <time>2026-04-25T12:06:47Z</time>
      </trkpt>
      <trkpt lat="59.072391986846924" lon="30.0081467628479">
        <time>2026-04-25T12:06:49Z</time>
      </trkpt>
      <trkpt lat="59.072391986846924" lon="30.0081467628479">
        <time>2026-04-25T12:06:52Z</time>
      </trkpt>
      <trkpt lat="59.072391986846924" lon="30.0081467628479">
        <time>2026-04-25T12:06:54Z</time>
      </trkpt>
      <trkpt lat="59.072391986846924" lon="30.0081467628479">
        <time>2026-04-25T12:06:57Z</time>
      </trkpt>
      <trkpt lat="59.072391986846924" lon="30.0081467628479">
        <time>2026-04-25T12:06:59Z</time>
      </trkpt>
      <trkpt lat="59.072391986846924" lon="30.0081467628479">
        <time>2026-04-25T12:07:02Z</time>
      </trkpt>
      <trkpt lat="59.072391986846924" lon="30.0081467628479">
        <time>2026-04-25T12:07:04Z</time>
      </trkpt>
      <trkpt lat="59.072391986846924" lon="30.0081467628479">
        <time>2026-04-25T12:07:07Z</time>
      </trkpt>
      <trkpt lat="59.072391986846924" lon="30.0081467628479">
        <time>2026-04-25T12:07:09Z</time>
      </trkpt>
      <trkpt lat="59.072391986846924" lon="30.0081467628479">
        <time>2026-04-25T12:07:12Z</time>
      </trkpt>
      <trkpt lat="59.072391986846924" lon="30.0081467628479">
        <time>2026-04-25T12:07:14Z</time>
      </trkpt>
      <trkpt lat="59.072391986846924" lon="30.0081467628479">
        <time>2026-04-25T12:07:17Z</time>
      </trkpt>
      <trkpt lat="59.072391986846924" lon="30.0081467628479">
        <time>2026-04-25T12:07:19Z</time>
      </trkpt>
      <trkpt lat="59.072391986846924" lon="30.0081467628479">
        <time>2026-04-25T12:07:22Z</time>
      </trkpt>
      <trkpt lat="59.072391986846924" lon="30.0081467628479">
        <time>2026-04-25T12:07:24Z</time>
      </trkpt>
      <trkpt lat="59.072391986846924" lon="30.0081467628479">
        <time>2026-04-25T12:07:27Z</time>
      </trkpt>
      <trkpt lat="59.072391986846924" lon="30.0081467628479">
        <time>2026-04-25T12:07:29Z</time>
      </trkpt>
      <trkpt lat="59.072391986846924" lon="30.0081467628479">
        <time>2026-04-25T12:07:32Z</time>
      </trkpt>
      <trkpt lat="59.072391986846924" lon="30.0081467628479">
        <time>2026-04-25T12:07:34Z</time>
      </trkpt>
      <trkpt lat="59.072391986846924" lon="30.0081467628479">
        <time>2026-04-25T12:07:37Z</time>
      </trkpt>
      <trkpt lat="59.072391986846924" lon="30.0081467628479">
        <time>2026-04-25T12:07:39Z</time>
      </trkpt>
      <trkpt lat="59.072391986846924" lon="30.0081467628479">
        <time>2026-04-25T12:07:42Z</time>
      </trkpt>
      <trkpt lat="59.072391986846924" lon="30.0081467628479">
        <time>2026-04-25T12:07:44Z</time>
      </trkpt>
      <trkpt lat="59.072391986846924" lon="30.0081467628479">
        <time>2026-04-25T12:07:47Z</time>
      </trkpt>
      <trkpt lat="59.072391986846924" lon="30.0081467628479">
        <time>2026-04-25T12:07:49Z</time>
      </trkpt>
      <trkpt lat="59.072391986846924" lon="30.0081467628479">
        <time>2026-04-25T12:07:52Z</time>
      </trkpt>
      <trkpt lat="59.072391986846924" lon="30.0081467628479">
        <time>2026-04-25T12:07:54Z</time>
      </trkpt>
      <trkpt lat="59.072391986846924" lon="30.0081467628479">
        <time>2026-04-25T12:07:57Z</time>
      </trkpt>
      <trkpt lat="59.072370529174805" lon="30.008211135864258">
        <time>2026-04-25T12:07:59Z</time>
      </trkpt>
      <trkpt lat="59.072370529174805" lon="30.008254051208496">
        <time>2026-04-25T12:08:02Z</time>
      </trkpt>
      <trkpt lat="59.072349071502686" lon="30.008296966552734">
        <time>2026-04-25T12:08:04Z</time>
      </trkpt>
      <trkpt lat="59.072349071502686" lon="30.008296966552734">
        <time>2026-04-25T12:08:07Z</time>
      </trkpt>
      <trkpt lat="59.072349071502686" lon="30.008296966552734">
        <time>2026-04-25T12:08:09Z</time>
      </trkpt>
      <trkpt lat="59.072349071502686" lon="30.008296966552734">
        <time>2026-04-25T12:08:12Z</time>
      </trkpt>
      <trkpt lat="59.072349071502686" lon="30.008296966552734">
        <time>2026-04-25T12:08:14Z</time>
      </trkpt>
      <trkpt lat="59.072349071502686" lon="30.008232593536377">
        <time>2026-04-25T12:08:17Z</time>
      </trkpt>
      <trkpt lat="59.072370529174805" lon="30.00816822052002">
        <time>2026-04-25T12:08:19Z</time>
      </trkpt>
      <trkpt lat="59.072370529174805" lon="30.00816822052002">
        <time>2026-04-25T12:08:22Z</time>
      </trkpt>
      <trkpt lat="59.072370529174805" lon="30.00816822052002">
        <time>2026-04-25T12:08:24Z</time>
      </trkpt>
      <trkpt lat="59.072349071502686" lon="30.008189678192139">
        <time>2026-04-25T12:08:27Z</time>
      </trkpt>
      <trkpt lat="59.072327613830566" lon="30.008296966552734">
        <time>2026-04-25T12:08:29Z</time>
      </trkpt>
      <trkpt lat="59.072306156158447" lon="30.008361339569092">
        <time>2026-04-25T12:08:32Z</time>
      </trkpt>
      <trkpt lat="59.072284698486328" lon="30.008425712585449">
        <time>2026-04-25T12:08:34Z</time>
      </trkpt>
      <trkpt lat="59.072284698486328" lon="30.008447170257568">
        <time>2026-04-25T12:08:37Z</time>
      </trkpt>
      <trkpt lat="59.072284698486328" lon="30.008447170257568">
        <time>2026-04-25T12:08:39Z</time>
      </trkpt>
      <trkpt lat="59.072284698486328" lon="30.008382797241211">
        <time>2026-04-25T12:08:42Z</time>
      </trkpt>
      <trkpt lat="59.072327613830566" lon="30.008275508880615">
        <time>2026-04-25T12:08:44Z</time>
      </trkpt>
      <trkpt lat="59.072327613830566" lon="30.008189678192139">
        <time>2026-04-25T12:08:47Z</time>
      </trkpt>
      <trkpt lat="59.072349071502686" lon="30.008125305175781">
        <time>2026-04-25T12:08:49Z</time>
      </trkpt>
      <trkpt lat="59.072327613830566" lon="30.00816822052002">
        <time>2026-04-25T12:08:52Z</time>
      </trkpt>
      <trkpt lat="59.072327613830566" lon="30.008275508880615">
        <time>2026-04-25T12:08:54Z</time>
      </trkpt>
      <trkpt lat="59.072327613830566" lon="30.008275508880615">
        <time>2026-04-25T12:08:57Z</time>
      </trkpt>
      <trkpt lat="59.072306156158447" lon="30.008296966552734">
        <time>2026-04-25T12:08:59Z</time>
      </trkpt>
      <trkpt lat="59.072306156158447" lon="30.008382797241211">
        <time>2026-04-25T12:09:02Z</time>
      </trkpt>
      <trkpt lat="59.072284698486328" lon="30.008447170257568">
        <time>2026-04-25T12:09:04Z</time>
      </trkpt>
      <trkpt lat="59.072284698486328" lon="30.008447170257568">
        <time>2026-04-25T12:09:07Z</time>
      </trkpt>
      <trkpt lat="59.072306156158447" lon="30.008468627929687">
        <time>2026-04-25T12:09:09Z</time>
      </trkpt>
      <trkpt lat="59.072284698486328" lon="30.008468627929687">
        <time>2026-04-25T12:09:12Z</time>
      </trkpt>
      <trkpt lat="59.072284698486328" lon="30.008425712585449">
        <time>2026-04-25T12:09:14Z</time>
      </trkpt>
      <trkpt lat="59.072306156158447" lon="30.008361339569092">
        <time>2026-04-25T12:09:17Z</time>
      </trkpt>
      <trkpt lat="59.072327613830566" lon="30.008232593536377">
        <time>2026-04-25T12:09:19Z</time>
      </trkpt>
      <trkpt lat="59.072349071502686" lon="30.00816822052002">
        <time>2026-04-25T12:09:22Z</time>
      </trkpt>
      <trkpt lat="59.072391986846924" lon="30.008103847503662">
        <time>2026-04-25T12:09:24Z</time>
      </trkpt>
      <trkpt lat="59.072370529174805" lon="30.008103847503662">
        <time>2026-04-25T12:09:27Z</time>
      </trkpt>
      <trkpt lat="59.072349071502686" lon="30.008189678192139">
        <time>2026-04-25T12:09:29Z</time>
      </trkpt>
      <trkpt lat="59.072327613830566" lon="30.008254051208496">
        <time>2026-04-25T12:09:32Z</time>
      </trkpt>
      <trkpt lat="59.072306156158447" lon="30.008361339569092">
        <time>2026-04-25T12:09:34Z</time>
      </trkpt>
      <trkpt lat="59.072284698486328" lon="30.008382797241211">
        <time>2026-04-25T12:09:37Z</time>
      </trkpt>
      <trkpt lat="59.072306156158447" lon="30.008382797241211">
        <time>2026-04-25T12:09:39Z</time>
      </trkpt>
      <trkpt lat="59.072284698486328" lon="30.008382797241211">
        <time>2026-04-25T12:09:42Z</time>
      </trkpt>
      <trkpt lat="59.072284698486328" lon="30.008382797241211">
        <time>2026-04-25T12:09:44Z</time>
      </trkpt>
      <trkpt lat="59.072306156158447" lon="30.008425712585449">
        <time>2026-04-25T12:09:47Z</time>
      </trkpt>
      <trkpt lat="59.072349071502686" lon="30.008511543273926">
        <time>2026-04-25T12:09:49Z</time>
      </trkpt>
      <trkpt lat="59.072327613830566" lon="30.008468627929687">
        <time>2026-04-25T12:09:52Z</time>
      </trkpt>
      <trkpt lat="59.072306156158447" lon="30.008425712585449">
        <time>2026-04-25T12:09:54Z</time>
      </trkpt>
      <trkpt lat="59.072306156158447" lon="30.008361339569092">
        <time>2026-04-25T12:09:57Z</time>
      </trkpt>
      <trkpt lat="59.072306156158447" lon="30.008232593536377">
        <time>2026-04-25T12:09:59Z</time>
      </trkpt>
      <trkpt lat="59.072284698486328" lon="30.0081467628479">
        <time>2026-04-25T12:10:02Z</time>
      </trkpt>
      <trkpt lat="59.072263240814209" lon="30.008039474487305">
        <time>2026-04-25T12:10:04Z</time>
      </trkpt>
      <trkpt lat="59.072263240814209" lon="30.007996559143066">
        <time>2026-04-25T12:10:07Z</time>
      </trkpt>
      <trkpt lat="59.072263240814209" lon="30.007932186126709">
        <time>2026-04-25T12:10:09Z</time>
      </trkpt>
      <trkpt lat="59.072284698486328" lon="30.007889270782471">
        <time>2026-04-25T12:10:12Z</time>
      </trkpt>
      <trkpt lat="59.072284698486328" lon="30.007846355438232">
        <time>2026-04-25T12:10:14Z</time>
      </trkpt>
      <trkpt lat="59.072284698486328" lon="30.007803440093994">
        <time>2026-04-25T12:10:17Z</time>
      </trkpt>
      <trkpt lat="59.072284698486328" lon="30.007739067077637">
        <time>2026-04-25T12:10:19Z</time>
      </trkpt>
      <trkpt lat="59.072284698486328" lon="30.007696151733398">
        <time>2026-04-25T12:10:22Z</time>
      </trkpt>
      <trkpt lat="59.072284698486328" lon="30.00765323638916">
        <time>2026-04-25T12:10:24Z</time>
      </trkpt>
      <trkpt lat="59.072284698486328" lon="30.00765323638916">
        <time>2026-04-25T12:10:27Z</time>
      </trkpt>
      <trkpt lat="59.072306156158447" lon="30.007588863372803">
        <time>2026-04-25T12:10:29Z</time>
      </trkpt>
      <trkpt lat="59.072306156158447" lon="30.007567405700684">
        <time>2026-04-25T12:10:32Z</time>
      </trkpt>
      <trkpt lat="59.072327613830566" lon="30.007524490356445">
        <time>2026-04-25T12:10:34Z</time>
      </trkpt>
      <trkpt lat="59.072349071502686" lon="30.007460117340088">
        <time>2026-04-25T12:10:37Z</time>
      </trkpt>
      <trkpt lat="59.072349071502686" lon="30.00741720199585">
        <time>2026-04-25T12:10:39Z</time>
      </trkpt>
      <trkpt lat="59.072349071502686" lon="30.007352828979492">
        <time>2026-04-25T12:10:42Z</time>
      </trkpt>
      <trkpt lat="59.072306156158447" lon="30.007288455963135">
        <time>2026-04-25T12:10:44Z</time>
      </trkpt>
      <trkpt lat="59.072263240814209" lon="30.007266998291016">
        <time>2026-04-25T12:10:47Z</time>
      </trkpt>
      <trkpt lat="59.072220325469971" lon="30.007245540618896">
        <time>2026-04-25T12:10:49Z</time>
      </trkpt>
      <trkpt lat="59.072198867797852" lon="30.007245540618896">
        <time>2026-04-25T12:10:52Z</time>
      </trkpt>
      <trkpt lat="59.072155952453613" lon="30.007266998291016">
        <time>2026-04-25T12:10:54Z</time>
      </trkpt>
      <trkpt lat="59.072134494781494" lon="30.007266998291016">
        <time>2026-04-25T12:10:57Z</time>
      </trkpt>
      <trkpt lat="59.072113037109375" lon="30.007224082946777">
        <time>2026-04-25T12:10:59Z</time>
      </trkpt>
      <trkpt lat="59.072113037109375" lon="30.007224082946777">
        <time>2026-04-25T12:11:02Z</time>
      </trkpt>
      <trkpt lat="59.072091579437256" lon="30.007095336914063">
        <time>2026-04-25T12:11:04Z</time>
      </trkpt>
      <trkpt lat="59.072070121765137" lon="30.007030963897705">
        <time>2026-04-25T12:11:07Z</time>
      </trkpt>
      <trkpt lat="59.072070121765137" lon="30.007030963897705">
        <time>2026-04-25T12:11:09Z</time>
      </trkpt>
      <trkpt lat="59.072070121765137" lon="30.006988048553467">
        <time>2026-04-25T12:11:12Z</time>
      </trkpt>
      <trkpt lat="59.072091579437256" lon="30.006923675537109">
        <time>2026-04-25T12:11:14Z</time>
      </trkpt>
      <trkpt lat="59.072091579437256" lon="30.00690221786499">
        <time>2026-04-25T12:11:17Z</time>
      </trkpt>
      <trkpt lat="59.072091579437256" lon="30.006816387176514">
        <time>2026-04-25T12:11:19Z</time>
      </trkpt>
      <trkpt lat="59.072091579437256" lon="30.006752014160156">
        <time>2026-04-25T12:11:22Z</time>
      </trkpt>
      <trkpt lat="59.072113037109375" lon="30.006623268127441">
        <time>2026-04-25T12:11:24Z</time>
      </trkpt>
      <trkpt lat="59.072091579437256" lon="30.006580352783203">
        <time>2026-04-25T12:11:27Z</time>
      </trkpt>
      <trkpt lat="59.072091579437256" lon="30.006537437438965">
        <time>2026-04-25T12:11:29Z</time>
      </trkpt>
      <trkpt lat="59.072091579437256" lon="30.006537437438965">
        <time>2026-04-25T12:11:32Z</time>
      </trkpt>
      <trkpt lat="59.072091579437256" lon="30.006537437438965">
        <time>2026-04-25T12:11:34Z</time>
      </trkpt>
      <trkpt lat="59.072091579437256" lon="30.006537437438965">
        <time>2026-04-25T12:11:37Z</time>
      </trkpt>
      <trkpt lat="59.072091579437256" lon="30.006515979766846">
        <time>2026-04-25T12:11:39Z</time>
      </trkpt>
      <trkpt lat="59.072091579437256" lon="30.006515979766846">
        <time>2026-04-25T12:11:42Z</time>
      </trkpt>
      <trkpt lat="59.072091579437256" lon="30.006515979766846">
        <time>2026-04-25T12:11:44Z</time>
      </trkpt>
      <trkpt lat="59.072091579437256" lon="30.006515979766846">
        <time>2026-04-25T12:11:47Z</time>
      </trkpt>
      <trkpt lat="59.072091579437256" lon="30.006515979766846">
        <time>2026-04-25T12:11:49Z</time>
      </trkpt>
      <trkpt lat="59.072091579437256" lon="30.006515979766846">
        <time>2026-04-25T12:11:52Z</time>
      </trkpt>
      <trkpt lat="59.072091579437256" lon="30.006515979766846">
        <time>2026-04-25T12:11:54Z</time>
      </trkpt>
      <trkpt lat="59.072091579437256" lon="30.006515979766846">
        <time>2026-04-25T12:11:57Z</time>
      </trkpt>
      <trkpt lat="59.072091579437256" lon="30.006494522094727">
        <time>2026-04-25T12:11:59Z</time>
      </trkpt>
      <trkpt lat="59.072091579437256" lon="30.006430149078369">
        <time>2026-04-25T12:12:02Z</time>
      </trkpt>
      <trkpt lat="59.072070121765137" lon="30.006387233734131">
        <time>2026-04-25T12:12:04Z</time>
      </trkpt>
      <trkpt lat="59.072070121765137" lon="30.006387233734131">
        <time>2026-04-25T12:12:07Z</time>
      </trkpt>
      <trkpt lat="59.072070121765137" lon="30.006322860717773">
        <time>2026-04-25T12:12:09Z</time>
      </trkpt>
      <trkpt lat="59.072070121765137" lon="30.006322860717773">
        <time>2026-04-25T12:12:12Z</time>
      </trkpt>
      <trkpt lat="59.072070121765137" lon="30.006301403045654">
        <time>2026-04-25T12:12:14Z</time>
      </trkpt>
      <trkpt lat="59.072070121765137" lon="30.006301403045654">
        <time>2026-04-25T12:12:17Z</time>
      </trkpt>
      <trkpt lat="59.072070121765137" lon="30.006301403045654">
        <time>2026-04-25T12:12:19Z</time>
      </trkpt>
      <trkpt lat="59.072070121765137" lon="30.006301403045654">
        <time>2026-04-25T12:12:22Z</time>
      </trkpt>
      <trkpt lat="59.072048664093018" lon="30.006279945373535">
        <time>2026-04-25T12:12:24Z</time>
      </trkpt>
      <trkpt lat="59.072048664093018" lon="30.006194114685059">
        <time>2026-04-25T12:12:27Z</time>
      </trkpt>
      <trkpt lat="59.072048664093018" lon="30.006108283996582">
        <time>2026-04-25T12:12:29Z</time>
      </trkpt>
      <trkpt lat="59.072048664093018" lon="30.006065368652344">
        <time>2026-04-25T12:12:32Z</time>
      </trkpt>
      <trkpt lat="59.072070121765137" lon="30.005958080291748">
        <time>2026-04-25T12:12:34Z</time>
      </trkpt>
      <trkpt lat="59.072091579437256" lon="30.00591516494751">
        <time>2026-04-25T12:12:37Z</time>
      </trkpt>
      <trkpt lat="59.072134494781494" lon="30.005872249603271">
        <time>2026-04-25T12:12:39Z</time>
      </trkpt>
      <trkpt lat="59.072155952453613" lon="30.005850791931152">
        <time>2026-04-25T12:12:42Z</time>
      </trkpt>
      <trkpt lat="59.072155952453613" lon="30.005829334259033">
        <time>2026-04-25T12:12:44Z</time>
      </trkpt>
      <trkpt lat="59.072155952453613" lon="30.005829334259033">
        <time>2026-04-25T12:12:47Z</time>
      </trkpt>
      <trkpt lat="59.072155952453613" lon="30.005829334259033">
        <time>2026-04-25T12:12:49Z</time>
      </trkpt>
      <trkpt lat="59.072155952453613" lon="30.005829334259033">
        <time>2026-04-25T12:12:52Z</time>
      </trkpt>
      <trkpt lat="59.072155952453613" lon="30.005829334259033">
        <time>2026-04-25T12:12:54Z</time>
      </trkpt>
      <trkpt lat="59.072155952453613" lon="30.005829334259033">
        <time>2026-04-25T12:12:57Z</time>
      </trkpt>
      <trkpt lat="59.072155952453613" lon="30.005829334259033">
        <time>2026-04-25T12:12:59Z</time>
      </trkpt>
      <trkpt lat="59.072155952453613" lon="30.005829334259033">
        <time>2026-04-25T12:13:02Z</time>
      </trkpt>
      <trkpt lat="59.072155952453613" lon="30.005829334259033">
        <time>2026-04-25T12:13:04Z</time>
      </trkpt>
      <trkpt lat="59.072155952453613" lon="30.005829334259033">
        <time>2026-04-25T12:13:07Z</time>
      </trkpt>
      <trkpt lat="59.072155952453613" lon="30.005829334259033">
        <time>2026-04-25T12:13:09Z</time>
      </trkpt>
      <trkpt lat="59.072134494781494" lon="30.005850791931152">
        <time>2026-04-25T12:13:12Z</time>
      </trkpt>
      <trkpt lat="59.072155952453613" lon="30.005850791931152">
        <time>2026-04-25T12:13:14Z</time>
      </trkpt>
      <trkpt lat="59.072134494781494" lon="30.005872249603271">
        <time>2026-04-25T12:13:17Z</time>
      </trkpt>
      <trkpt lat="59.072091579437256" lon="30.00591516494751">
        <time>2026-04-25T12:13:19Z</time>
      </trkpt>
      <trkpt lat="59.072091579437256" lon="30.00591516494751">
        <time>2026-04-25T12:13:22Z</time>
      </trkpt>
      <trkpt lat="59.072113037109375" lon="30.005872249603271">
        <time>2026-04-25T12:13:24Z</time>
      </trkpt>
      <trkpt lat="59.072134494781494" lon="30.005829334259033">
        <time>2026-04-25T12:13:27Z</time>
      </trkpt>
      <trkpt lat="59.072134494781494" lon="30.005807876586914">
        <time>2026-04-25T12:13:29Z</time>
      </trkpt>
      <trkpt lat="59.072113037109375" lon="30.005829334259033">
        <time>2026-04-25T12:13:32Z</time>
      </trkpt>
      <trkpt lat="59.072091579437256" lon="30.005893707275391">
        <time>2026-04-25T12:13:34Z</time>
      </trkpt>
      <trkpt lat="59.072070121765137" lon="30.005936622619629">
        <time>2026-04-25T12:13:37Z</time>
      </trkpt>
      <trkpt lat="59.072070121765137" lon="30.005936622619629">
        <time>2026-04-25T12:13:39Z</time>
      </trkpt>
      <trkpt lat="59.072070121765137" lon="30.005936622619629">
        <time>2026-04-25T12:13:42Z</time>
      </trkpt>
      <trkpt lat="59.072070121765137" lon="30.005936622619629">
        <time>2026-04-25T12:13:44Z</time>
      </trkpt>
      <trkpt lat="59.072070121765137" lon="30.005936622619629">
        <time>2026-04-25T12:13:47Z</time>
      </trkpt>
      <trkpt lat="59.072070121765137" lon="30.005936622619629">
        <time>2026-04-25T12:13:49Z</time>
      </trkpt>
      <trkpt lat="59.072070121765137" lon="30.005936622619629">
        <time>2026-04-25T12:13:52Z</time>
      </trkpt>
      <trkpt lat="59.072070121765137" lon="30.005936622619629">
        <time>2026-04-25T12:13:54Z</time>
      </trkpt>
      <trkpt lat="59.072070121765137" lon="30.005936622619629">
        <time>2026-04-25T12:13:57Z</time>
      </trkpt>
      <trkpt lat="59.072070121765137" lon="30.005936622619629">
        <time>2026-04-25T12:13:59Z</time>
      </trkpt>
      <trkpt lat="59.072070121765137" lon="30.005936622619629">
        <time>2026-04-25T12:14:02Z</time>
      </trkpt>
      <trkpt lat="59.072070121765137" lon="30.005936622619629">
        <time>2026-04-25T12:14:04Z</time>
      </trkpt>
      <trkpt lat="59.072070121765137" lon="30.005936622619629">
        <time>2026-04-25T12:14:07Z</time>
      </trkpt>
      <trkpt lat="59.072070121765137" lon="30.005936622619629">
        <time>2026-04-25T12:14:09Z</time>
      </trkpt>
      <trkpt lat="59.072070121765137" lon="30.005936622619629">
        <time>2026-04-25T12:14:12Z</time>
      </trkpt>
      <trkpt lat="59.072070121765137" lon="30.005936622619629">
        <time>2026-04-25T12:14:14Z</time>
      </trkpt>
      <trkpt lat="59.072070121765137" lon="30.005936622619629">
        <time>2026-04-25T12:14:17Z</time>
      </trkpt>
      <trkpt lat="59.072070121765137" lon="30.005936622619629">
        <time>2026-04-25T12:14:19Z</time>
      </trkpt>
      <trkpt lat="59.072070121765137" lon="30.005936622619629">
        <time>2026-04-25T12:14:22Z</time>
      </trkpt>
      <trkpt lat="59.072070121765137" lon="30.005936622619629">
        <time>2026-04-25T12:14:24Z</time>
      </trkpt>
      <trkpt lat="59.072070121765137" lon="30.005936622619629">
        <time>2026-04-25T12:14:27Z</time>
      </trkpt>
      <trkpt lat="59.072070121765137" lon="30.005936622619629">
        <time>2026-04-25T12:14:29Z</time>
      </trkpt>
      <trkpt lat="59.072070121765137" lon="30.005936622619629">
        <time>2026-04-25T12:14:32Z</time>
      </trkpt>
      <trkpt lat="59.072070121765137" lon="30.005936622619629">
        <time>2026-04-25T12:14:34Z</time>
      </trkpt>
      <trkpt lat="59.072070121765137" lon="30.005936622619629">
        <time>2026-04-25T12:14:37Z</time>
      </trkpt>
      <trkpt lat="59.072070121765137" lon="30.005936622619629">
        <time>2026-04-25T12:14:39Z</time>
      </trkpt>
      <trkpt lat="59.072070121765137" lon="30.005936622619629">
        <time>2026-04-25T12:14:42Z</time>
      </trkpt>
      <trkpt lat="59.072070121765137" lon="30.005936622619629">
        <time>2026-04-25T12:14:44Z</time>
      </trkpt>
      <trkpt lat="59.072070121765137" lon="30.005936622619629">
        <time>2026-04-25T12:14:47Z</time>
      </trkpt>
      <trkpt lat="59.072070121765137" lon="30.005936622619629">
        <time>2026-04-25T12:14:49Z</time>
      </trkpt>
      <trkpt lat="59.072070121765137" lon="30.005936622619629">
        <time>2026-04-25T12:14:52Z</time>
      </trkpt>
      <trkpt lat="59.072070121765137" lon="30.005936622619629">
        <time>2026-04-25T12:14:54Z</time>
      </trkpt>
      <trkpt lat="59.072048664093018" lon="30.005936622619629">
        <time>2026-04-25T12:14:57Z</time>
      </trkpt>
      <trkpt lat="59.072027206420898" lon="30.005958080291748">
        <time>2026-04-25T12:14:59Z</time>
      </trkpt>
      <trkpt lat="59.072027206420898" lon="30.005958080291748">
        <time>2026-04-25T12:15:02Z</time>
      </trkpt>
      <trkpt lat="59.072048664093018" lon="30.005958080291748">
        <time>2026-04-25T12:15:04Z</time>
      </trkpt>
      <trkpt lat="59.072048664093018" lon="30.005958080291748">
        <time>2026-04-25T12:15:07Z</time>
      </trkpt>
      <trkpt lat="59.072048664093018" lon="30.005958080291748">
        <time>2026-04-25T12:15:09Z</time>
      </trkpt>
      <trkpt lat="59.072048664093018" lon="30.005958080291748">
        <time>2026-04-25T12:15:12Z</time>
      </trkpt>
      <trkpt lat="59.072070121765137" lon="30.005872249603271">
        <time>2026-04-25T12:15:14Z</time>
      </trkpt>
      <trkpt lat="59.072091579437256" lon="30.005850791931152">
        <time>2026-04-25T12:15:17Z</time>
      </trkpt>
      <trkpt lat="59.072091579437256" lon="30.005872249603271">
        <time>2026-04-25T12:15:19Z</time>
      </trkpt>
      <trkpt lat="59.072070121765137" lon="30.00591516494751">
        <time>2026-04-25T12:15:22Z</time>
      </trkpt>
      <trkpt lat="59.072027206420898" lon="30.005936622619629">
        <time>2026-04-25T12:15:24Z</time>
      </trkpt>
      <trkpt lat="59.072027206420898" lon="30.005936622619629">
        <time>2026-04-25T12:15:27Z</time>
      </trkpt>
      <trkpt lat="59.07198429107666" lon="30.005979537963867">
        <time>2026-04-25T12:15:29Z</time>
      </trkpt>
      <trkpt lat="59.071962833404541" lon="30.005979537963867">
        <time>2026-04-25T12:15:32Z</time>
      </trkpt>
      <trkpt lat="59.071962833404541" lon="30.006000995635986">
        <time>2026-04-25T12:15:34Z</time>
      </trkpt>
      <trkpt lat="59.071919918060303" lon="30.006022453308105">
        <time>2026-04-25T12:15:39Z</time>
      </trkpt>
      <trkpt lat="59.071919918060303" lon="30.006022453308105">
        <time>2026-04-25T12:15:42Z</time>
      </trkpt>
      <trkpt lat="59.071919918060303" lon="30.006022453308105">
        <time>2026-04-25T12:15:44Z</time>
      </trkpt>
      <trkpt lat="59.071919918060303" lon="30.006022453308105">
        <time>2026-04-25T12:15:47Z</time>
      </trkpt>
      <trkpt lat="59.071919918060303" lon="30.006022453308105">
        <time>2026-04-25T12:15:49Z</time>
      </trkpt>
      <trkpt lat="59.071919918060303" lon="30.006022453308105">
        <time>2026-04-25T12:15:52Z</time>
      </trkpt>
      <trkpt lat="59.071919918060303" lon="30.006022453308105">
        <time>2026-04-25T12:15:54Z</time>
      </trkpt>
      <trkpt lat="59.071919918060303" lon="30.006022453308105">
        <time>2026-04-25T12:15:57Z</time>
      </trkpt>
      <trkpt lat="59.071919918060303" lon="30.006022453308105">
        <time>2026-04-25T12:15:59Z</time>
      </trkpt>
      <trkpt lat="59.071919918060303" lon="30.006022453308105">
        <time>2026-04-25T12:16:02Z</time>
      </trkpt>
      <trkpt lat="59.07198429107666" lon="30.005958080291748">
        <time>2026-04-25T12:16:07Z</time>
      </trkpt>
      <trkpt lat="59.07198429107666" lon="30.005958080291748">
        <time>2026-04-25T12:16:09Z</time>
      </trkpt>
      <trkpt lat="59.07198429107666" lon="30.005958080291748">
        <time>2026-04-25T12:16:12Z</time>
      </trkpt>
      <trkpt lat="59.071919918060303" lon="30.006000995635986">
        <time>2026-04-25T12:16:14Z</time>
      </trkpt>
      <trkpt lat="59.071898460388184" lon="30.006000995635986">
        <time>2026-04-25T12:16:17Z</time>
      </trkpt>
      <trkpt lat="59.071898460388184" lon="30.006000995635986">
        <time>2026-04-25T12:16:19Z</time>
      </trkpt>
      <trkpt lat="59.071898460388184" lon="30.006000995635986">
        <time>2026-04-25T12:16:22Z</time>
      </trkpt>
      <trkpt lat="59.071877002716064" lon="30.006065368652344">
        <time>2026-04-25T12:16:24Z</time>
      </trkpt>
      <trkpt lat="59.071877002716064" lon="30.006086826324463">
        <time>2026-04-25T12:16:27Z</time>
      </trkpt>
      <trkpt lat="59.071877002716064" lon="30.006086826324463">
        <time>2026-04-25T12:16:29Z</time>
      </trkpt>
      <trkpt lat="59.071877002716064" lon="30.006086826324463">
        <time>2026-04-25T12:16:32Z</time>
      </trkpt>
      <trkpt lat="59.071877002716064" lon="30.006086826324463">
        <time>2026-04-25T12:16:34Z</time>
      </trkpt>
      <trkpt lat="59.071877002716064" lon="30.006086826324463">
        <time>2026-04-25T12:16:37Z</time>
      </trkpt>
      <trkpt lat="59.071877002716064" lon="30.006086826324463">
        <time>2026-04-25T12:16:39Z</time>
      </trkpt>
      <trkpt lat="59.071877002716064" lon="30.006086826324463">
        <time>2026-04-25T12:16:42Z</time>
      </trkpt>
      <trkpt lat="59.071877002716064" lon="30.006086826324463">
        <time>2026-04-25T12:16:44Z</time>
      </trkpt>
      <trkpt lat="59.071898460388184" lon="30.006043910980225">
        <time>2026-04-25T12:16:47Z</time>
      </trkpt>
      <trkpt lat="59.071898460388184" lon="30.006022453308105">
        <time>2026-04-25T12:16:49Z</time>
      </trkpt>
      <trkpt lat="59.071877002716064" lon="30.006065368652344">
        <time>2026-04-25T12:16:52Z</time>
      </trkpt>
      <trkpt lat="59.071855545043945" lon="30.00615119934082">
        <time>2026-04-25T12:16:54Z</time>
      </trkpt>
      <trkpt lat="59.071855545043945" lon="30.006172657012939">
        <time>2026-04-25T12:16:57Z</time>
      </trkpt>
      <trkpt lat="59.071855545043945" lon="30.006172657012939">
        <time>2026-04-25T12:16:59Z</time>
      </trkpt>
      <trkpt lat="59.071855545043945" lon="30.006172657012939">
        <time>2026-04-25T12:17:02Z</time>
      </trkpt>
      <trkpt lat="59.071855545043945" lon="30.006172657012939">
        <time>2026-04-25T12:17:04Z</time>
      </trkpt>
      <trkpt lat="59.071855545043945" lon="30.00615119934082">
        <time>2026-04-25T12:17:07Z</time>
      </trkpt>
      <trkpt lat="59.071855545043945" lon="30.00615119934082">
        <time>2026-04-25T12:17:09Z</time>
      </trkpt>
      <trkpt lat="59.071855545043945" lon="30.00615119934082">
        <time>2026-04-25T12:17:12Z</time>
      </trkpt>
      <trkpt lat="59.071855545043945" lon="30.00615119934082">
        <time>2026-04-25T12:17:14Z</time>
      </trkpt>
      <trkpt lat="59.071855545043945" lon="30.00615119934082">
        <time>2026-04-25T12:17:17Z</time>
      </trkpt>
      <trkpt lat="59.071855545043945" lon="30.00615119934082">
        <time>2026-04-25T12:17:19Z</time>
      </trkpt>
      <trkpt lat="59.071855545043945" lon="30.00615119934082">
        <time>2026-04-25T12:17:22Z</time>
      </trkpt>
      <trkpt lat="59.071855545043945" lon="30.00615119934082">
        <time>2026-04-25T12:17:24Z</time>
      </trkpt>
      <trkpt lat="59.071855545043945" lon="30.006129741668701">
        <time>2026-04-25T12:17:27Z</time>
      </trkpt>
      <trkpt lat="59.071855545043945" lon="30.006129741668701">
        <time>2026-04-25T12:17:29Z</time>
      </trkpt>
      <trkpt lat="59.071855545043945" lon="30.006129741668701">
        <time>2026-04-25T12:17:32Z</time>
      </trkpt>
      <trkpt lat="59.071855545043945" lon="30.006129741668701">
        <time>2026-04-25T12:17:34Z</time>
      </trkpt>
      <trkpt lat="59.071855545043945" lon="30.006129741668701">
        <time>2026-04-25T12:17:37Z</time>
      </trkpt>
      <trkpt lat="59.071834087371826" lon="30.00615119934082">
        <time>2026-04-25T12:17:39Z</time>
      </trkpt>
      <trkpt lat="59.071834087371826" lon="30.006172657012939">
        <time>2026-04-25T12:17:42Z</time>
      </trkpt>
      <trkpt lat="59.071834087371826" lon="30.006258487701416">
        <time>2026-04-25T12:17:44Z</time>
      </trkpt>
      <trkpt lat="59.071834087371826" lon="30.006258487701416">
        <time>2026-04-25T12:17:47Z</time>
      </trkpt>
      <trkpt lat="59.071812629699707" lon="30.006279945373535">
        <time>2026-04-25T12:17:49Z</time>
      </trkpt>
      <trkpt lat="59.071812629699707" lon="30.006279945373535">
        <time>2026-04-25T12:17:52Z</time>
      </trkpt>
      <trkpt lat="59.071812629699707" lon="30.006279945373535">
        <time>2026-04-25T12:17:54Z</time>
      </trkpt>
      <trkpt lat="59.071834087371826" lon="30.006258487701416">
        <time>2026-04-25T12:17:57Z</time>
      </trkpt>
      <trkpt lat="59.071834087371826" lon="30.006194114685059">
        <time>2026-04-25T12:17:59Z</time>
      </trkpt>
      <trkpt lat="59.071834087371826" lon="30.00615119934082">
        <time>2026-04-25T12:18:02Z</time>
      </trkpt>
      <trkpt lat="59.071834087371826" lon="30.006129741668701">
        <time>2026-04-25T12:18:04Z</time>
      </trkpt>
      <trkpt lat="59.071834087371826" lon="30.006129741668701">
        <time>2026-04-25T12:18:07Z</time>
      </trkpt>
      <trkpt lat="59.071834087371826" lon="30.00615119934082">
        <time>2026-04-25T12:18:09Z</time>
      </trkpt>
      <trkpt lat="59.071834087371826" lon="30.006194114685059">
        <time>2026-04-25T12:18:12Z</time>
      </trkpt>
      <trkpt lat="59.071834087371826" lon="30.006194114685059">
        <time>2026-04-25T12:18:14Z</time>
      </trkpt>
      <trkpt lat="59.071855545043945" lon="30.00615119934082">
        <time>2026-04-25T12:18:17Z</time>
      </trkpt>
      <trkpt lat="59.071812629699707" lon="30.006129741668701">
        <time>2026-04-25T12:18:19Z</time>
      </trkpt>
      <trkpt lat="59.071791172027588" lon="30.006086826324463">
        <time>2026-04-25T12:18:22Z</time>
      </trkpt>
      <trkpt lat="59.07174825668335" lon="30.006108283996582">
        <time>2026-04-25T12:18:24Z</time>
      </trkpt>
      <trkpt lat="59.07172679901123" lon="30.006065368652344">
        <time>2026-04-25T12:18:27Z</time>
      </trkpt>
      <trkpt lat="59.071662425994873" lon="30.006043910980225">
        <time>2026-04-25T12:18:29Z</time>
      </trkpt>
      <trkpt lat="59.071662425994873" lon="30.006065368652344">
        <time>2026-04-25T12:18:32Z</time>
      </trkpt>
      <trkpt lat="59.071640968322754" lon="30.006129741668701">
        <time>2026-04-25T12:18:34Z</time>
      </trkpt>
      <trkpt lat="59.071619510650635" lon="30.00615119934082">
        <time>2026-04-25T12:18:37Z</time>
      </trkpt>
      <trkpt lat="59.071619510650635" lon="30.00615119934082">
        <time>2026-04-25T12:18:39Z</time>
      </trkpt>
      <trkpt lat="59.071640968322754" lon="30.006086826324463">
        <time>2026-04-25T12:18:42Z</time>
      </trkpt>
      <trkpt lat="59.071683883666992" lon="30.006022453308105">
        <time>2026-04-25T12:18:44Z</time>
      </trkpt>
      <trkpt lat="59.071705341339111" lon="30.006043910980225">
        <time>2026-04-25T12:18:47Z</time>
      </trkpt>
      <trkpt lat="59.07174825668335" lon="30.006022453308105">
        <time>2026-04-25T12:18:49Z</time>
      </trkpt>
      <trkpt lat="59.07174825668335" lon="30.006043910980225">
        <time>2026-04-25T12:18:52Z</time>
      </trkpt>
      <trkpt lat="59.071705341339111" lon="30.006043910980225">
        <time>2026-04-25T12:18:54Z</time>
      </trkpt>
      <trkpt lat="59.071662425994873" lon="30.006043910980225">
        <time>2026-04-25T12:18:57Z</time>
      </trkpt>
      <trkpt lat="59.071619510650635" lon="30.006065368652344">
        <time>2026-04-25T12:18:59Z</time>
      </trkpt>
      <trkpt lat="59.071598052978516" lon="30.006129741668701">
        <time>2026-04-25T12:19:02Z</time>
      </trkpt>
      <trkpt lat="59.071576595306396" lon="30.006215572357178">
        <time>2026-04-25T12:19:04Z</time>
      </trkpt>
      <trkpt lat="59.071598052978516" lon="30.006279945373535">
        <time>2026-04-25T12:19:07Z</time>
      </trkpt>
      <trkpt lat="59.071576595306396" lon="30.006365776062012">
        <time>2026-04-25T12:19:09Z</time>
      </trkpt>
      <trkpt lat="59.071576595306396" lon="30.006365776062012">
        <time>2026-04-25T12:19:12Z</time>
      </trkpt>
      <trkpt lat="59.071576595306396" lon="30.006387233734131">
        <time>2026-04-25T12:19:14Z</time>
      </trkpt>
      <trkpt lat="59.071576595306396" lon="30.006430149078369">
        <time>2026-04-25T12:19:17Z</time>
      </trkpt>
      <trkpt lat="59.071598052978516" lon="30.006494522094727">
        <time>2026-04-25T12:19:19Z</time>
      </trkpt>
      <trkpt lat="59.071619510650635" lon="30.006537437438965">
        <time>2026-04-25T12:19:22Z</time>
      </trkpt>
      <trkpt lat="59.071640968322754" lon="30.006623268127441">
        <time>2026-04-25T12:19:24Z</time>
      </trkpt>
      <trkpt lat="59.071640968322754" lon="30.00666618347168">
        <time>2026-04-25T12:19:27Z</time>
      </trkpt>
      <trkpt lat="59.071662425994873" lon="30.006773471832275">
        <time>2026-04-25T12:19:29Z</time>
      </trkpt>
      <trkpt lat="59.071662425994873" lon="30.006837844848633">
        <time>2026-04-25T12:19:32Z</time>
      </trkpt>
      <trkpt lat="59.071640968322754" lon="30.006880760192871">
        <time>2026-04-25T12:19:34Z</time>
      </trkpt>
      <trkpt lat="59.071619510650635" lon="30.006880760192871">
        <time>2026-04-25T12:19:37Z</time>
      </trkpt>
      <trkpt lat="59.071619510650635" lon="30.006880760192871">
        <time>2026-04-25T12:19:39Z</time>
      </trkpt>
      <trkpt lat="59.071619510650635" lon="30.006880760192871">
        <time>2026-04-25T12:19:42Z</time>
      </trkpt>
      <trkpt lat="59.071619510650635" lon="30.006880760192871">
        <time>2026-04-25T12:19:44Z</time>
      </trkpt>
      <trkpt lat="59.071640968322754" lon="30.006945133209229">
        <time>2026-04-25T12:19:47Z</time>
      </trkpt>
      <trkpt lat="59.071662425994873" lon="30.007009506225586">
        <time>2026-04-25T12:19:49Z</time>
      </trkpt>
      <trkpt lat="59.071683883666992" lon="30.007052421569824">
        <time>2026-04-25T12:19:52Z</time>
      </trkpt>
      <trkpt lat="59.071683883666992" lon="30.00715970993042">
        <time>2026-04-25T12:19:54Z</time>
      </trkpt>
      <trkpt lat="59.071662425994873" lon="30.007224082946777">
        <time>2026-04-25T12:19:57Z</time>
      </trkpt>
      <trkpt lat="59.071662425994873" lon="30.007224082946777">
        <time>2026-04-25T12:19:59Z</time>
      </trkpt>
      <trkpt lat="59.071662425994873" lon="30.007288455963135">
        <time>2026-04-25T12:20:02Z</time>
      </trkpt>
      <trkpt lat="59.071662425994873" lon="30.007309913635254">
        <time>2026-04-25T12:20:04Z</time>
      </trkpt>
      <trkpt lat="59.071662425994873" lon="30.007309913635254">
        <time>2026-04-25T12:20:07Z</time>
      </trkpt>
      <trkpt lat="59.071662425994873" lon="30.007309913635254">
        <time>2026-04-25T12:20:09Z</time>
      </trkpt>
      <trkpt lat="59.071662425994873" lon="30.007309913635254">
        <time>2026-04-25T12:20:12Z</time>
      </trkpt>
      <trkpt lat="59.071662425994873" lon="30.007309913635254">
        <time>2026-04-25T12:20:14Z</time>
      </trkpt>
      <trkpt lat="59.071662425994873" lon="30.007309913635254">
        <time>2026-04-25T12:20:17Z</time>
      </trkpt>
      <trkpt lat="59.071662425994873" lon="30.007331371307373">
        <time>2026-04-25T12:20:19Z</time>
      </trkpt>
      <trkpt lat="59.071662425994873" lon="30.007374286651611">
        <time>2026-04-25T12:20:22Z</time>
      </trkpt>
      <trkpt lat="59.071640968322754" lon="30.00741720199585">
        <time>2026-04-25T12:20:24Z</time>
      </trkpt>
      <trkpt lat="59.071640968322754" lon="30.00741720199585">
        <time>2026-04-25T12:20:27Z</time>
      </trkpt>
      <trkpt lat="59.071640968322754" lon="30.007460117340088">
        <time>2026-04-25T12:20:29Z</time>
      </trkpt>
      <trkpt lat="59.071640968322754" lon="30.007545948028564">
        <time>2026-04-25T12:20:32Z</time>
      </trkpt>
      <trkpt lat="59.071619510650635" lon="30.00765323638916">
        <time>2026-04-25T12:20:34Z</time>
      </trkpt>
      <trkpt lat="59.071598052978516" lon="30.007717609405518">
        <time>2026-04-25T12:20:37Z</time>
      </trkpt>
      <trkpt lat="59.071598052978516" lon="30.007846355438232">
        <time>2026-04-25T12:20:39Z</time>
      </trkpt>
      <trkpt lat="59.071598052978516" lon="30.007867813110352">
        <time>2026-04-25T12:20:42Z</time>
      </trkpt>
      <trkpt lat="59.071598052978516" lon="30.007867813110352">
        <time>2026-04-25T12:20:44Z</time>
      </trkpt>
      <trkpt lat="59.071598052978516" lon="30.007889270782471">
        <time>2026-04-25T12:20:47Z</time>
      </trkpt>
      <trkpt lat="59.071619510650635" lon="30.007932186126709">
        <time>2026-04-25T12:20:49Z</time>
      </trkpt>
      <trkpt lat="59.071640968322754" lon="30.007953643798828">
        <time>2026-04-25T12:20:52Z</time>
      </trkpt>
      <trkpt lat="59.071683883666992" lon="30.007975101470947">
        <time>2026-04-25T12:20:54Z</time>
      </trkpt>
      <trkpt lat="59.071683883666992" lon="30.008039474487305">
        <time>2026-04-25T12:20:57Z</time>
      </trkpt>
      <trkpt lat="59.071683883666992" lon="30.008125305175781">
        <time>2026-04-25T12:20:59Z</time>
      </trkpt>
      <trkpt lat="59.071683883666992" lon="30.008125305175781">
        <time>2026-04-25T12:21:02Z</time>
      </trkpt>
      <trkpt lat="59.071683883666992" lon="30.008125305175781">
        <time>2026-04-25T12:21:04Z</time>
      </trkpt>
      <trkpt lat="59.071705341339111" lon="30.0081467628479">
        <time>2026-04-25T12:21:07Z</time>
      </trkpt>
      <trkpt lat="59.071705341339111" lon="30.008211135864258">
        <time>2026-04-25T12:21:09Z</time>
      </trkpt>
      <trkpt lat="59.071705341339111" lon="30.008254051208496">
        <time>2026-04-25T12:21:12Z</time>
      </trkpt>
      <trkpt lat="59.071662425994873" lon="30.008275508880615">
        <time>2026-04-25T12:21:14Z</time>
      </trkpt>
      <trkpt lat="59.071662425994873" lon="30.008275508880615">
        <time>2026-04-25T12:21:17Z</time>
      </trkpt>
      <trkpt lat="59.071662425994873" lon="30.008296966552734">
        <time>2026-04-25T12:21:19Z</time>
      </trkpt>
      <trkpt lat="59.071662425994873" lon="30.008361339569092">
        <time>2026-04-25T12:21:22Z</time>
      </trkpt>
      <trkpt lat="59.071683883666992" lon="30.00840425491333">
        <time>2026-04-25T12:21:24Z</time>
      </trkpt>
      <trkpt lat="59.071683883666992" lon="30.008425712585449">
        <time>2026-04-25T12:21:27Z</time>
      </trkpt>
      <trkpt lat="59.071683883666992" lon="30.008425712585449">
        <time>2026-04-25T12:21:29Z</time>
      </trkpt>
      <trkpt lat="59.071683883666992" lon="30.008425712585449">
        <time>2026-04-25T12:21:32Z</time>
      </trkpt>
      <trkpt lat="59.071662425994873" lon="30.008382797241211">
        <time>2026-04-25T12:21:34Z</time>
      </trkpt>
      <trkpt lat="59.071640968322754" lon="30.008339881896973">
        <time>2026-04-25T12:21:37Z</time>
      </trkpt>
      <trkpt lat="59.071640968322754" lon="30.008275508880615">
        <time>2026-04-25T12:21:39Z</time>
      </trkpt>
      <trkpt lat="59.071619510650635" lon="30.008254051208496">
        <time>2026-04-25T12:21:42Z</time>
      </trkpt>
      <trkpt lat="59.071598052978516" lon="30.008254051208496">
        <time>2026-04-25T12:21:44Z</time>
      </trkpt>
      <trkpt lat="59.071598052978516" lon="30.008275508880615">
        <time>2026-04-25T12:21:47Z</time>
      </trkpt>
      <trkpt lat="59.071555137634277" lon="30.008318424224854">
        <time>2026-04-25T12:21:49Z</time>
      </trkpt>
      <trkpt lat="59.071555137634277" lon="30.008318424224854">
        <time>2026-04-25T12:21:52Z</time>
      </trkpt>
      <trkpt lat="59.071576595306396" lon="30.008296966552734">
        <time>2026-04-25T12:21:54Z</time>
      </trkpt>
      <trkpt lat="59.071576595306396" lon="30.008296966552734">
        <time>2026-04-25T12:21:57Z</time>
      </trkpt>
      <trkpt lat="59.071576595306396" lon="30.008296966552734">
        <time>2026-04-25T12:21:59Z</time>
      </trkpt>
      <trkpt lat="59.071619510650635" lon="30.008296966552734">
        <time>2026-04-25T12:22:02Z</time>
      </trkpt>
      <trkpt lat="59.071640968322754" lon="30.008318424224854">
        <time>2026-04-25T12:22:04Z</time>
      </trkpt>
      <trkpt lat="59.071619510650635" lon="30.008296966552734">
        <time>2026-04-25T12:22:07Z</time>
      </trkpt>
      <trkpt lat="59.071619510650635" lon="30.008296966552734">
        <time>2026-04-25T12:22:09Z</time>
      </trkpt>
      <trkpt lat="59.071640968322754" lon="30.008339881896973">
        <time>2026-04-25T12:22:12Z</time>
      </trkpt>
      <trkpt lat="59.071683883666992" lon="30.00840425491333">
        <time>2026-04-25T12:22:14Z</time>
      </trkpt>
      <trkpt lat="59.071705341339111" lon="30.00840425491333">
        <time>2026-04-25T12:22:17Z</time>
      </trkpt>
      <trkpt lat="59.07172679901123" lon="30.00840425491333">
        <time>2026-04-25T12:22:19Z</time>
      </trkpt>
      <trkpt lat="59.071705341339111" lon="30.008425712585449">
        <time>2026-04-25T12:22:22Z</time>
      </trkpt>
      <trkpt lat="59.071640968322754" lon="30.008361339569092">
        <time>2026-04-25T12:22:24Z</time>
      </trkpt>
      <trkpt lat="59.071640968322754" lon="30.008361339569092">
        <time>2026-04-25T12:22:27Z</time>
      </trkpt>
      <trkpt lat="59.071662425994873" lon="30.00840425491333">
        <time>2026-04-25T12:22:29Z</time>
      </trkpt>
      <trkpt lat="59.071640968322754" lon="30.008318424224854">
        <time>2026-04-25T12:22:32Z</time>
      </trkpt>
      <trkpt lat="59.071619510650635" lon="30.008232593536377">
        <time>2026-04-25T12:22:34Z</time>
      </trkpt>
      <trkpt lat="59.071619510650635" lon="30.008232593536377">
        <time>2026-04-25T12:22:37Z</time>
      </trkpt>
      <trkpt lat="59.071640968322754" lon="30.008318424224854">
        <time>2026-04-25T12:22:39Z</time>
      </trkpt>
      <trkpt lat="59.071683883666992" lon="30.00840425491333">
        <time>2026-04-25T12:22:42Z</time>
      </trkpt>
      <trkpt lat="59.071705341339111" lon="30.008425712585449">
        <time>2026-04-25T12:22:44Z</time>
      </trkpt>
      <trkpt lat="59.071662425994873" lon="30.008382797241211">
        <time>2026-04-25T12:22:47Z</time>
      </trkpt>
      <trkpt lat="59.071619510650635" lon="30.008254051208496">
        <time>2026-04-25T12:22:49Z</time>
      </trkpt>
      <trkpt lat="59.071598052978516" lon="30.008189678192139">
        <time>2026-04-25T12:22:52Z</time>
      </trkpt>
      <trkpt lat="59.071619510650635" lon="30.008232593536377">
        <time>2026-04-25T12:22:54Z</time>
      </trkpt>
      <trkpt lat="59.071640968322754" lon="30.008275508880615">
        <time>2026-04-25T12:22:57Z</time>
      </trkpt>
      <trkpt lat="59.071619510650635" lon="30.008296966552734">
        <time>2026-04-25T12:22:59Z</time>
      </trkpt>
      <trkpt lat="59.071598052978516" lon="30.008232593536377">
        <time>2026-04-25T12:23:02Z</time>
      </trkpt>
      <trkpt lat="59.071555137634277" lon="30.00816822052002">
        <time>2026-04-25T12:23:04Z</time>
      </trkpt>
      <trkpt lat="59.071533679962158" lon="30.008189678192139">
        <time>2026-04-25T12:23:07Z</time>
      </trkpt>
      <trkpt lat="59.071533679962158" lon="30.008189678192139">
        <time>2026-04-25T12:23:09Z</time>
      </trkpt>
      <trkpt lat="59.071533679962158" lon="30.008189678192139">
        <time>2026-04-25T12:23:12Z</time>
      </trkpt>
      <trkpt lat="59.071533679962158" lon="30.008211135864258">
        <time>2026-04-25T12:23:14Z</time>
      </trkpt>
      <trkpt lat="59.071533679962158" lon="30.008211135864258">
        <time>2026-04-25T12:23:17Z</time>
      </trkpt>
      <trkpt lat="59.071512222290039" lon="30.008211135864258">
        <time>2026-04-25T12:23:19Z</time>
      </trkpt>
      <trkpt lat="59.071512222290039" lon="30.008254051208496">
        <time>2026-04-25T12:23:22Z</time>
      </trkpt>
      <trkpt lat="59.071512222290039" lon="30.008339881896973">
        <time>2026-04-25T12:23:24Z</time>
      </trkpt>
      <trkpt lat="59.07149076461792" lon="30.008339881896973">
        <time>2026-04-25T12:23:27Z</time>
      </trkpt>
      <trkpt lat="59.07149076461792" lon="30.008339881896973">
        <time>2026-04-25T12:23:29Z</time>
      </trkpt>
      <trkpt lat="59.07149076461792" lon="30.008339881896973">
        <time>2026-04-25T12:23:32Z</time>
      </trkpt>
      <trkpt lat="59.07149076461792" lon="30.008339881896973">
        <time>2026-04-25T12:23:34Z</time>
      </trkpt>
      <trkpt lat="59.07149076461792" lon="30.008339881896973">
        <time>2026-04-25T12:23:37Z</time>
      </trkpt>
      <trkpt lat="59.071469306945801" lon="30.008361339569092">
        <time>2026-04-25T12:23:39Z</time>
      </trkpt>
      <trkpt lat="59.071469306945801" lon="30.008382797241211">
        <time>2026-04-25T12:23:42Z</time>
      </trkpt>
      <trkpt lat="59.071469306945801" lon="30.008382797241211">
        <time>2026-04-25T12:23:44Z</time>
      </trkpt>
      <trkpt lat="59.071447849273682" lon="30.008361339569092">
        <time>2026-04-25T12:23:47Z</time>
      </trkpt>
      <trkpt lat="59.071447849273682" lon="30.008361339569092">
        <time>2026-04-25T12:23:49Z</time>
      </trkpt>
      <trkpt lat="59.07149076461792" lon="30.008318424224854">
        <time>2026-04-25T12:23:52Z</time>
      </trkpt>
      <trkpt lat="59.07149076461792" lon="30.008296966552734">
        <time>2026-04-25T12:23:54Z</time>
      </trkpt>
      <trkpt lat="59.071469306945801" lon="30.008339881896973">
        <time>2026-04-25T12:23:57Z</time>
      </trkpt>
      <trkpt lat="59.071404933929443" lon="30.00840425491333">
        <time>2026-04-25T12:23:59Z</time>
      </trkpt>
      <trkpt lat="59.071383476257324" lon="30.008447170257568">
        <time>2026-04-25T12:24:02Z</time>
      </trkpt>
      <trkpt lat="59.071362018585205" lon="30.008511543273926">
        <time>2026-04-25T12:24:04Z</time>
      </trkpt>
      <trkpt lat="59.071319103240967" lon="30.008511543273926">
        <time>2026-04-25T12:24:07Z</time>
      </trkpt>
      <trkpt lat="59.071254730224609" lon="30.008511543273926">
        <time>2026-04-25T12:24:09Z</time>
      </trkpt>
      <trkpt lat="59.071254730224609" lon="30.008490085601807">
        <time>2026-04-25T12:24:12Z</time>
      </trkpt>
      <trkpt lat="59.071254730224609" lon="30.008468627929687">
        <time>2026-04-25T12:24:14Z</time>
      </trkpt>
      <trkpt lat="59.071254730224609" lon="30.008490085601807">
        <time>2026-04-25T12:24:17Z</time>
      </trkpt>
      <trkpt lat="59.071254730224609" lon="30.008575916290283">
        <time>2026-04-25T12:24:19Z</time>
      </trkpt>
      <trkpt lat="59.071254730224609" lon="30.008575916290283">
        <time>2026-04-25T12:24:22Z</time>
      </trkpt>
      <trkpt lat="59.071254730224609" lon="30.008468627929687">
        <time>2026-04-25T12:24:24Z</time>
      </trkpt>
      <trkpt lat="59.071254730224609" lon="30.008382797241211">
        <time>2026-04-25T12:24:27Z</time>
      </trkpt>
      <trkpt lat="59.071254730224609" lon="30.008254051208496">
        <time>2026-04-25T12:24:29Z</time>
      </trkpt>
      <trkpt lat="59.07123327255249" lon="30.00816822052002">
        <time>2026-04-25T12:24:32Z</time>
      </trkpt>
      <trkpt lat="59.07123327255249" lon="30.008103847503662">
        <time>2026-04-25T12:24:34Z</time>
      </trkpt>
      <trkpt lat="59.071211814880371" lon="30.008103847503662">
        <time>2026-04-25T12:24:37Z</time>
      </trkpt>
      <trkpt lat="59.071211814880371" lon="30.008103847503662">
        <time>2026-04-25T12:24:39Z</time>
      </trkpt>
      <trkpt lat="59.071211814880371" lon="30.008103847503662">
        <time>2026-04-25T12:24:42Z</time>
      </trkpt>
      <trkpt lat="59.071211814880371" lon="30.008103847503662">
        <time>2026-04-25T12:24:44Z</time>
      </trkpt>
      <trkpt lat="59.071211814880371" lon="30.007996559143066">
        <time>2026-04-25T12:24:47Z</time>
      </trkpt>
      <trkpt lat="59.071190357208252" lon="30.007824897766113">
        <time>2026-04-25T12:24:49Z</time>
      </trkpt>
      <trkpt lat="59.071190357208252" lon="30.007803440093994">
        <time>2026-04-25T12:24:52Z</time>
      </trkpt>
      <trkpt lat="59.071168899536133" lon="30.007631778717041">
        <time>2026-04-25T12:24:54Z</time>
      </trkpt>
      <trkpt lat="59.071168899536133" lon="30.007588863372803">
        <time>2026-04-25T12:24:57Z</time>
      </trkpt>
      <trkpt lat="59.071147441864014" lon="30.00741720199585">
        <time>2026-04-25T12:24:59Z</time>
      </trkpt>
      <trkpt lat="59.071147441864014" lon="30.007352828979492">
        <time>2026-04-25T12:25:02Z</time>
      </trkpt>
      <trkpt lat="59.071147441864014" lon="30.00715970993042">
        <time>2026-04-25T12:25:04Z</time>
      </trkpt>
      <trkpt lat="59.071125984191895" lon="30.007095336914063">
        <time>2026-04-25T12:25:07Z</time>
      </trkpt>
      <trkpt lat="59.071147441864014" lon="30.007331371307373">
        <time>2026-04-25T12:25:09Z</time>
      </trkpt>
      <trkpt lat="59.071125984191895" lon="30.007331371307373">
        <time>2026-04-25T12:25:12Z</time>
      </trkpt>
      <trkpt lat="59.071125984191895" lon="30.007009506225586">
        <time>2026-04-25T12:25:14Z</time>
      </trkpt>
      <trkpt lat="59.071125984191895" lon="30.006794929504395">
        <time>2026-04-25T12:25:17Z</time>
      </trkpt>
      <trkpt lat="59.071125984191895" lon="30.006794929504395">
        <time>2026-04-25T12:25:19Z</time>
      </trkpt>
      <trkpt lat="59.071125984191895" lon="30.006773471832275">
        <time>2026-04-25T12:25:22Z</time>
      </trkpt>
      <trkpt lat="59.071104526519775" lon="30.006515979766846">
        <time>2026-04-25T12:25:24Z</time>
      </trkpt>
      <trkpt lat="59.071125984191895" lon="30.006580352783203">
        <time>2026-04-25T12:25:27Z</time>
      </trkpt>
      <trkpt lat="59.071125984191895" lon="30.006837844848633">
        <time>2026-04-25T12:25:29Z</time>
      </trkpt>
      <trkpt lat="59.071104526519775" lon="30.006709098815918">
        <time>2026-04-25T12:25:32Z</time>
      </trkpt>
      <trkpt lat="59.071125984191895" lon="30.006322860717773">
        <time>2026-04-25T12:25:34Z</time>
      </trkpt>
      <trkpt lat="59.071125984191895" lon="30.006215572357178">
        <time>2026-04-25T12:25:37Z</time>
      </trkpt>
      <trkpt lat="59.071125984191895" lon="30.006537437438965">
        <time>2026-04-25T12:25:39Z</time>
      </trkpt>
      <trkpt lat="59.071104526519775" lon="30.006601810455322">
        <time>2026-04-25T12:25:42Z</time>
      </trkpt>
      <trkpt lat="59.071125984191895" lon="30.006279945373535">
        <time>2026-04-25T12:25:44Z</time>
      </trkpt>
      <trkpt lat="59.071147441864014" lon="30.006000995635986">
        <time>2026-04-25T12:25:47Z</time>
      </trkpt>
      <trkpt lat="59.071168899536133" lon="30.005700588226318">
        <time>2026-04-25T12:25:49Z</time>
      </trkpt>
      <trkpt lat="59.071168899536133" lon="30.005850791931152">
        <time>2026-04-25T12:25:52Z</time>
      </trkpt>
      <trkpt lat="59.071125984191895" lon="30.006279945373535">
        <time>2026-04-25T12:25:54Z</time>
      </trkpt>
      <trkpt lat="59.071125984191895" lon="30.006515979766846">
        <time>2026-04-25T12:25:57Z</time>
      </trkpt>
      <trkpt lat="59.071125984191895" lon="30.006644725799561">
        <time>2026-04-25T12:25:59Z</time>
      </trkpt>
      <trkpt lat="59.071104526519775" lon="30.006644725799561">
        <time>2026-04-25T12:26:02Z</time>
      </trkpt>
      <trkpt lat="59.071040153503418" lon="30.006687641143799">
        <time>2026-04-25T12:26:04Z</time>
      </trkpt>
      <trkpt lat="59.071018695831299" lon="30.006687641143799">
        <time>2026-04-25T12:26:07Z</time>
      </trkpt>
      <trkpt lat="59.070975780487061" lon="30.006709098815918">
        <time>2026-04-25T12:26:09Z</time>
      </trkpt>
      <trkpt lat="59.070954322814941" lon="30.006730556488037">
        <time>2026-04-25T12:26:12Z</time>
      </trkpt>
      <trkpt lat="59.070911407470703" lon="30.006709098815918">
        <time>2026-04-25T12:26:14Z</time>
      </trkpt>
      <trkpt lat="59.070889949798584" lon="30.006687641143799">
        <time>2026-04-25T12:26:17Z</time>
      </trkpt>
      <trkpt lat="59.070868492126465" lon="30.006644725799561">
        <time>2026-04-25T12:26:19Z</time>
      </trkpt>
      <trkpt lat="59.070868492126465" lon="30.00666618347168">
        <time>2026-04-25T12:26:22Z</time>
      </trkpt>
      <trkpt lat="59.070868492126465" lon="30.00666618347168">
        <time>2026-04-25T12:26:24Z</time>
      </trkpt>
      <trkpt lat="59.070847034454346" lon="30.006644725799561">
        <time>2026-04-25T12:26:27Z</time>
      </trkpt>
      <trkpt lat="59.070847034454346" lon="30.006644725799561">
        <time>2026-04-25T12:26:29Z</time>
      </trkpt>
      <trkpt lat="59.070825576782227" lon="30.00666618347168">
        <time>2026-04-25T12:26:32Z</time>
      </trkpt>
      <trkpt lat="59.070825576782227" lon="30.006687641143799">
        <time>2026-04-25T12:26:34Z</time>
      </trkpt>
      <trkpt lat="59.070825576782227" lon="30.006687641143799">
        <time>2026-04-25T12:26:37Z</time>
      </trkpt>
      <trkpt lat="59.070825576782227" lon="30.006687641143799">
        <time>2026-04-25T12:26:39Z</time>
      </trkpt>
      <trkpt lat="59.070825576782227" lon="30.006687641143799">
        <time>2026-04-25T12:26:42Z</time>
      </trkpt>
      <trkpt lat="59.070825576782227" lon="30.006687641143799">
        <time>2026-04-25T12:26:44Z</time>
      </trkpt>
      <trkpt lat="59.070825576782227" lon="30.006730556488037">
        <time>2026-04-25T12:26:47Z</time>
      </trkpt>
      <trkpt lat="59.070782661437988" lon="30.006752014160156">
        <time>2026-04-25T12:26:49Z</time>
      </trkpt>
      <trkpt lat="59.070782661437988" lon="30.006752014160156">
        <time>2026-04-25T12:26:52Z</time>
      </trkpt>
      <trkpt lat="59.070782661437988" lon="30.006773471832275">
        <time>2026-04-25T12:26:54Z</time>
      </trkpt>
      <trkpt lat="59.07073974609375" lon="30.006816387176514">
        <time>2026-04-25T12:26:57Z</time>
      </trkpt>
      <trkpt lat="59.070696830749512" lon="30.006794929504395">
        <time>2026-04-25T12:26:59Z</time>
      </trkpt>
      <trkpt lat="59.070696830749512" lon="30.006794929504395">
        <time>2026-04-25T12:27:02Z</time>
      </trkpt>
      <trkpt lat="59.070696830749512" lon="30.006794929504395">
        <time>2026-04-25T12:27:04Z</time>
      </trkpt>
      <trkpt lat="59.070675373077393" lon="30.006837844848633">
        <time>2026-04-25T12:27:07Z</time>
      </trkpt>
      <trkpt lat="59.070632457733154" lon="30.006923675537109">
        <time>2026-04-25T12:27:09Z</time>
      </trkpt>
      <trkpt lat="59.070653915405273" lon="30.006966590881348">
        <time>2026-04-25T12:27:12Z</time>
      </trkpt>
      <trkpt lat="59.070632457733154" lon="30.007052421569824">
        <time>2026-04-25T12:27:14Z</time>
      </trkpt>
      <trkpt lat="59.070632457733154" lon="30.007052421569824">
        <time>2026-04-25T12:27:17Z</time>
      </trkpt>
      <trkpt lat="59.070632457733154" lon="30.007116794586182">
        <time>2026-04-25T12:27:19Z</time>
      </trkpt>
      <trkpt lat="59.070653915405273" lon="30.007181167602539">
        <time>2026-04-25T12:27:22Z</time>
      </trkpt>
      <trkpt lat="59.070632457733154" lon="30.007266998291016">
        <time>2026-04-25T12:27:24Z</time>
      </trkpt>
      <trkpt lat="59.070632457733154" lon="30.007266998291016">
        <time>2026-04-25T12:27:27Z</time>
      </trkpt>
      <trkpt lat="59.070632457733154" lon="30.007374286651611">
        <time>2026-04-25T12:27:29Z</time>
      </trkpt>
      <trkpt lat="59.070632457733154" lon="30.007438659667969">
        <time>2026-04-25T12:27:32Z</time>
      </trkpt>
      <trkpt lat="59.070653915405273" lon="30.007481575012207">
        <time>2026-04-25T12:27:34Z</time>
      </trkpt>
      <trkpt lat="59.070653915405273" lon="30.007481575012207">
        <time>2026-04-25T12:27:37Z</time>
      </trkpt>
      <trkpt lat="59.070653915405273" lon="30.007481575012207">
        <time>2026-04-25T12:27:39Z</time>
      </trkpt>
      <trkpt lat="59.070653915405273" lon="30.007524490356445">
        <time>2026-04-25T12:27:42Z</time>
      </trkpt>
      <trkpt lat="59.070675373077393" lon="30.007567405700684">
        <time>2026-04-25T12:27:44Z</time>
      </trkpt>
      <trkpt lat="59.070696830749512" lon="30.007631778717041">
        <time>2026-04-25T12:27:47Z</time>
      </trkpt>
      <trkpt lat="59.070696830749512" lon="30.007717609405518">
        <time>2026-04-25T12:27:49Z</time>
      </trkpt>
      <trkpt lat="59.070696830749512" lon="30.007760524749756">
        <time>2026-04-25T12:27:52Z</time>
      </trkpt>
      <trkpt lat="59.070696830749512" lon="30.007803440093994">
        <time>2026-04-25T12:27:54Z</time>
      </trkpt>
      <trkpt lat="59.070696830749512" lon="30.007803440093994">
        <time>2026-04-25T12:27:57Z</time>
      </trkpt>
      <trkpt lat="59.070696830749512" lon="30.007803440093994">
        <time>2026-04-25T12:27:59Z</time>
      </trkpt>
      <trkpt lat="59.070696830749512" lon="30.007803440093994">
        <time>2026-04-25T12:28:02Z</time>
      </trkpt>
      <trkpt lat="59.070675373077393" lon="30.007803440093994">
        <time>2026-04-25T12:28:04Z</time>
      </trkpt>
      <trkpt lat="59.070696830749512" lon="30.007824897766113">
        <time>2026-04-25T12:28:07Z</time>
      </trkpt>
      <trkpt lat="59.070675373077393" lon="30.007846355438232">
        <time>2026-04-25T12:28:09Z</time>
      </trkpt>
      <trkpt lat="59.070696830749512" lon="30.007824897766113">
        <time>2026-04-25T12:28:12Z</time>
      </trkpt>
      <trkpt lat="59.070696830749512" lon="30.007824897766113">
        <time>2026-04-25T12:28:14Z</time>
      </trkpt>
      <trkpt lat="59.070675373077393" lon="30.007824897766113">
        <time>2026-04-25T12:28:17Z</time>
      </trkpt>
      <trkpt lat="59.070675373077393" lon="30.007846355438232">
        <time>2026-04-25T12:28:19Z</time>
      </trkpt>
      <trkpt lat="59.070675373077393" lon="30.007867813110352">
        <time>2026-04-25T12:28:22Z</time>
      </trkpt>
      <trkpt lat="59.070675373077393" lon="30.00791072845459">
        <time>2026-04-25T12:28:24Z</time>
      </trkpt>
      <trkpt lat="59.070675373077393" lon="30.007889270782471">
        <time>2026-04-25T12:28:27Z</time>
      </trkpt>
      <trkpt lat="59.070718288421631" lon="30.007889270782471">
        <time>2026-04-25T12:28:29Z</time>
      </trkpt>
      <trkpt lat="59.07073974609375" lon="30.00791072845459">
        <time>2026-04-25T12:28:32Z</time>
      </trkpt>
      <trkpt lat="59.07073974609375" lon="30.008039474487305">
        <time>2026-04-25T12:28:34Z</time>
      </trkpt>
      <trkpt lat="59.07073974609375" lon="30.008103847503662">
        <time>2026-04-25T12:28:37Z</time>
      </trkpt>
      <trkpt lat="59.070696830749512" lon="30.008189678192139">
        <time>2026-04-25T12:28:39Z</time>
      </trkpt>
      <trkpt lat="59.070675373077393" lon="30.008211135864258">
        <time>2026-04-25T12:28:42Z</time>
      </trkpt>
      <trkpt lat="59.070675373077393" lon="30.008211135864258">
        <time>2026-04-25T12:28:44Z</time>
      </trkpt>
      <trkpt lat="59.070632457733154" lon="30.008189678192139">
        <time>2026-04-25T12:28:47Z</time>
      </trkpt>
      <trkpt lat="59.070632457733154" lon="30.00816822052002">
        <time>2026-04-25T12:28:49Z</time>
      </trkpt>
      <trkpt lat="59.070632457733154" lon="30.008211135864258">
        <time>2026-04-25T12:28:52Z</time>
      </trkpt>
      <trkpt lat="59.070653915405273" lon="30.008211135864258">
        <time>2026-04-25T12:28:54Z</time>
      </trkpt>
      <trkpt lat="59.070696830749512" lon="30.00816822052002">
        <time>2026-04-25T12:28:57Z</time>
      </trkpt>
      <trkpt lat="59.07073974609375" lon="30.008103847503662">
        <time>2026-04-25T12:28:59Z</time>
      </trkpt>
      <trkpt lat="59.070718288421631" lon="30.008211135864258">
        <time>2026-04-25T12:29:02Z</time>
      </trkpt>
      <trkpt lat="59.070675373077393" lon="30.008382797241211">
        <time>2026-04-25T12:29:04Z</time>
      </trkpt>
      <trkpt lat="59.070653915405273" lon="30.008447170257568">
        <time>2026-04-25T12:29:07Z</time>
      </trkpt>
      <trkpt lat="59.070653915405273" lon="30.008468627929687">
        <time>2026-04-25T12:29:09Z</time>
      </trkpt>
      <trkpt lat="59.070675373077393" lon="30.008511543273926">
        <time>2026-04-25T12:29:12Z</time>
      </trkpt>
      <trkpt lat="59.070696830749512" lon="30.008575916290283">
        <time>2026-04-25T12:29:17Z</time>
      </trkpt>
      <trkpt lat="59.070675373077393" lon="30.008618831634521">
        <time>2026-04-25T12:29:19Z</time>
      </trkpt>
      <trkpt lat="59.070696830749512" lon="30.00866174697876">
        <time>2026-04-25T12:29:22Z</time>
      </trkpt>
      <trkpt lat="59.070696830749512" lon="30.008769035339355">
        <time>2026-04-25T12:29:24Z</time>
      </trkpt>
      <trkpt lat="59.070718288421631" lon="30.008833408355713">
        <time>2026-04-25T12:29:27Z</time>
      </trkpt>
      <trkpt lat="59.070718288421631" lon="30.008876323699951">
        <time>2026-04-25T12:29:29Z</time>
      </trkpt>
      <trkpt lat="59.070718288421631" lon="30.008876323699951">
        <time>2026-04-25T12:29:32Z</time>
      </trkpt>
      <trkpt lat="59.070718288421631" lon="30.00889778137207">
        <time>2026-04-25T12:29:34Z</time>
      </trkpt>
      <trkpt lat="59.070718288421631" lon="30.008983612060547">
        <time>2026-04-25T12:29:37Z</time>
      </trkpt>
      <trkpt lat="59.070718288421631" lon="30.009005069732666">
        <time>2026-04-25T12:29:39Z</time>
      </trkpt>
      <trkpt lat="59.070718288421631" lon="30.008983612060547">
        <time>2026-04-25T12:29:42Z</time>
      </trkpt>
      <trkpt lat="59.070718288421631" lon="30.008919239044189">
        <time>2026-04-25T12:29:44Z</time>
      </trkpt>
      <trkpt lat="59.070696830749512" lon="30.008811950683594">
        <time>2026-04-25T12:29:47Z</time>
      </trkpt>
      <trkpt lat="59.070718288421631" lon="30.008854866027832">
        <time>2026-04-25T12:29:49Z</time>
      </trkpt>
      <trkpt lat="59.070718288421631" lon="30.00889778137207">
        <time>2026-04-25T12:29:52Z</time>
      </trkpt>
      <trkpt lat="59.070718288421631" lon="30.008940696716309">
        <time>2026-04-25T12:29:54Z</time>
      </trkpt>
      <trkpt lat="59.070718288421631" lon="30.008940696716309">
        <time>2026-04-25T12:29:57Z</time>
      </trkpt>
      <trkpt lat="59.070718288421631" lon="30.008940696716309">
        <time>2026-04-25T12:29:59Z</time>
      </trkpt>
      <trkpt lat="59.070718288421631" lon="30.008940696716309">
        <time>2026-04-25T12:30:02Z</time>
      </trkpt>
      <trkpt lat="59.070718288421631" lon="30.008940696716309">
        <time>2026-04-25T12:30:04Z</time>
      </trkpt>
      <trkpt lat="59.07073974609375" lon="30.009005069732666">
        <time>2026-04-25T12:30:07Z</time>
      </trkpt>
      <trkpt lat="59.070761203765869" lon="30.009112358093262">
        <time>2026-04-25T12:30:09Z</time>
      </trkpt>
      <trkpt lat="59.07073974609375" lon="30.009047985076904">
        <time>2026-04-25T12:30:12Z</time>
      </trkpt>
      <trkpt lat="59.07073974609375" lon="30.009069442749023">
        <time>2026-04-25T12:30:14Z</time>
      </trkpt>
      <trkpt lat="59.070761203765869" lon="30.009219646453857">
        <time>2026-04-25T12:30:17Z</time>
      </trkpt>
      <trkpt lat="59.070761203765869" lon="30.009262561798096">
        <time>2026-04-25T12:30:19Z</time>
      </trkpt>
      <trkpt lat="59.07073974609375" lon="30.009026527404785">
        <time>2026-04-25T12:30:24Z</time>
      </trkpt>
      <trkpt lat="59.070718288421631" lon="30.008811950683594">
        <time>2026-04-25T12:30:27Z</time>
      </trkpt>
      <trkpt lat="59.070718288421631" lon="30.008833408355713">
        <time>2026-04-25T12:30:29Z</time>
      </trkpt>
      <trkpt lat="59.070761203765869" lon="30.008983612060547">
        <time>2026-04-25T12:30:32Z</time>
      </trkpt>
      <trkpt lat="59.070782661437988" lon="30.009133815765381">
        <time>2026-04-25T12:30:37Z</time>
      </trkpt>
      <trkpt lat="59.070761203765869" lon="30.008811950683594">
        <time>2026-04-25T12:30:39Z</time>
      </trkpt>
      <trkpt lat="59.07073974609375" lon="30.008597373962402">
        <time>2026-04-25T12:30:42Z</time>
      </trkpt>
      <trkpt lat="59.070718288421631" lon="30.008575916290283">
        <time>2026-04-25T12:30:44Z</time>
      </trkpt>
      <trkpt lat="59.07073974609375" lon="30.008704662322998">
        <time>2026-04-25T12:30:47Z</time>
      </trkpt>
      <trkpt lat="59.070782661437988" lon="30.008854866027832">
        <time>2026-04-25T12:30:49Z</time>
      </trkpt>
      <trkpt lat="59.070825576782227" lon="30.008876323699951">
        <time>2026-04-25T12:30:52Z</time>
      </trkpt>
      <trkpt lat="59.070868492126465" lon="30.008940696716309">
        <time>2026-04-25T12:30:54Z</time>
      </trkpt>
      <trkpt lat="59.070868492126465" lon="30.008983612060547">
        <time>2026-04-25T12:30:57Z</time>
      </trkpt>
      <trkpt lat="59.070868492126465" lon="30.008983612060547">
        <time>2026-04-25T12:30:59Z</time>
      </trkpt>
      <trkpt lat="59.070868492126465" lon="30.009005069732666">
        <time>2026-04-25T12:31:02Z</time>
      </trkpt>
      <trkpt lat="59.070868492126465" lon="30.008983612060547">
        <time>2026-04-25T12:31:04Z</time>
      </trkpt>
      <trkpt lat="59.070804119110107" lon="30.008919239044189">
        <time>2026-04-25T12:31:07Z</time>
      </trkpt>
      <trkpt lat="59.07073974609375" lon="30.00889778137207">
        <time>2026-04-25T12:31:09Z</time>
      </trkpt>
      <trkpt lat="59.070782661437988" lon="30.008940696716309">
        <time>2026-04-25T12:31:12Z</time>
      </trkpt>
      <trkpt lat="59.070825576782227" lon="30.009026527404785">
        <time>2026-04-25T12:31:14Z</time>
      </trkpt>
      <trkpt lat="59.070847034454346" lon="30.009047985076904">
        <time>2026-04-25T12:31:17Z</time>
      </trkpt>
      <trkpt lat="59.070911407470703" lon="30.009090900421143">
        <time>2026-04-25T12:31:19Z</time>
      </trkpt>
      <trkpt lat="59.070954322814941" lon="30.009112358093262">
        <time>2026-04-25T12:31:22Z</time>
      </trkpt>
      <trkpt lat="59.07099723815918" lon="30.009112358093262">
        <time>2026-04-25T12:31:24Z</time>
      </trkpt>
      <trkpt lat="59.071018695831299" lon="30.009112358093262">
        <time>2026-04-25T12:31:27Z</time>
      </trkpt>
      <trkpt lat="59.071104526519775" lon="30.009069442749023">
        <time>2026-04-25T12:31:29Z</time>
      </trkpt>
      <trkpt lat="59.071104526519775" lon="30.009069442749023">
        <time>2026-04-25T12:31:32Z</time>
      </trkpt>
      <trkpt lat="59.071125984191895" lon="30.009026527404785">
        <time>2026-04-25T12:31:34Z</time>
      </trkpt>
      <trkpt lat="59.071125984191895" lon="30.008983612060547">
        <time>2026-04-25T12:31:37Z</time>
      </trkpt>
      <trkpt lat="59.071147441864014" lon="30.008962154388428">
        <time>2026-04-25T12:31:39Z</time>
      </trkpt>
      <trkpt lat="59.071168899536133" lon="30.008983612060547">
        <time>2026-04-25T12:31:42Z</time>
      </trkpt>
      <trkpt lat="59.071190357208252" lon="30.009005069732666">
        <time>2026-04-25T12:31:44Z</time>
      </trkpt>
      <trkpt lat="59.071211814880371" lon="30.009026527404785">
        <time>2026-04-25T12:31:47Z</time>
      </trkpt>
      <trkpt lat="59.071276187896729" lon="30.009069442749023">
        <time>2026-04-25T12:31:49Z</time>
      </trkpt>
      <trkpt lat="59.071297645568848" lon="30.009112358093262">
        <time>2026-04-25T12:31:52Z</time>
      </trkpt>
      <trkpt lat="59.071319103240967" lon="30.009262561798096">
        <time>2026-04-25T12:31:54Z</time>
      </trkpt>
      <trkpt lat="59.071340560913086" lon="30.009326934814453">
        <time>2026-04-25T12:31:57Z</time>
      </trkpt>
      <trkpt lat="59.071340560913086" lon="30.009326934814453">
        <time>2026-04-25T12:31:59Z</time>
      </trkpt>
      <trkpt lat="59.071362018585205" lon="30.009434223175049">
        <time>2026-04-25T12:32:02Z</time>
      </trkpt>
      <trkpt lat="59.071362018585205" lon="30.009562969207764">
        <time>2026-04-25T12:32:04Z</time>
      </trkpt>
      <trkpt lat="59.071362018585205" lon="30.009605884552002">
        <time>2026-04-25T12:32:07Z</time>
      </trkpt>
      <trkpt lat="59.071362018585205" lon="30.00964879989624">
        <time>2026-04-25T12:32:09Z</time>
      </trkpt>
      <trkpt lat="59.071362018585205" lon="30.00964879989624">
        <time>2026-04-25T12:32:12Z</time>
      </trkpt>
      <trkpt lat="59.071362018585205" lon="30.00964879989624">
        <time>2026-04-25T12:32:14Z</time>
      </trkpt>
      <trkpt lat="59.071362018585205" lon="30.00964879989624">
        <time>2026-04-25T12:32:17Z</time>
      </trkpt>
      <trkpt lat="59.071362018585205" lon="30.00964879989624">
        <time>2026-04-25T12:32:19Z</time>
      </trkpt>
      <trkpt lat="59.071362018585205" lon="30.00964879989624">
        <time>2026-04-25T12:32:22Z</time>
      </trkpt>
      <trkpt lat="59.071362018585205" lon="30.00964879989624">
        <time>2026-04-25T12:32:24Z</time>
      </trkpt>
      <trkpt lat="59.071362018585205" lon="30.009777545928955">
        <time>2026-04-25T12:32:27Z</time>
      </trkpt>
      <trkpt lat="59.071404933929443" lon="30.009992122650146">
        <time>2026-04-25T12:32:29Z</time>
      </trkpt>
      <trkpt lat="59.071426391601563" lon="30.01014232635498">
        <time>2026-04-25T12:32:32Z</time>
      </trkpt>
      <trkpt lat="59.071469306945801" lon="30.010292530059814">
        <time>2026-04-25T12:32:34Z</time>
      </trkpt>
      <trkpt lat="59.071469306945801" lon="30.010313987731934">
        <time>2026-04-25T12:32:37Z</time>
      </trkpt>
      <trkpt lat="59.071469306945801" lon="30.010356903076172">
        <time>2026-04-25T12:32:39Z</time>
      </trkpt>
      <trkpt lat="59.07149076461792" lon="30.010442733764648">
        <time>2026-04-25T12:32:42Z</time>
      </trkpt>
      <trkpt lat="59.071469306945801" lon="30.010507106781006">
        <time>2026-04-25T12:32:44Z</time>
      </trkpt>
      <trkpt lat="59.071469306945801" lon="30.010528564453125">
        <time>2026-04-25T12:32:47Z</time>
      </trkpt>
      <trkpt lat="59.071469306945801" lon="30.010528564453125">
        <time>2026-04-25T12:32:49Z</time>
      </trkpt>
      <trkpt lat="59.071469306945801" lon="30.010528564453125">
        <time>2026-04-25T12:32:52Z</time>
      </trkpt>
      <trkpt lat="59.071469306945801" lon="30.010528564453125">
        <time>2026-04-25T12:32:54Z</time>
      </trkpt>
      <trkpt lat="59.07149076461792" lon="30.010507106781006">
        <time>2026-04-25T12:32:57Z</time>
      </trkpt>
      <trkpt lat="59.07149076461792" lon="30.010442733764648">
        <time>2026-04-25T12:33:02Z</time>
      </trkpt>
      <trkpt lat="59.07149076461792" lon="30.010442733764648">
        <time>2026-04-25T12:33:04Z</time>
      </trkpt>
      <trkpt lat="59.07149076461792" lon="30.010442733764648">
        <time>2026-04-25T12:33:07Z</time>
      </trkpt>
      <trkpt lat="59.07149076461792" lon="30.010442733764648">
        <time>2026-04-25T12:33:09Z</time>
      </trkpt>
      <trkpt lat="59.07149076461792" lon="30.010442733764648">
        <time>2026-04-25T12:33:12Z</time>
      </trkpt>
      <trkpt lat="59.07149076461792" lon="30.010464191436768">
        <time>2026-04-25T12:33:14Z</time>
      </trkpt>
      <trkpt lat="59.071512222290039" lon="30.010550022125244">
        <time>2026-04-25T12:33:17Z</time>
      </trkpt>
      <trkpt lat="59.07149076461792" lon="30.01065731048584">
        <time>2026-04-25T12:33:19Z</time>
      </trkpt>
      <trkpt lat="59.071512222290039" lon="30.010721683502197">
        <time>2026-04-25T12:33:22Z</time>
      </trkpt>
      <trkpt lat="59.071512222290039" lon="30.010828971862793">
        <time>2026-04-25T12:33:24Z</time>
      </trkpt>
      <trkpt lat="59.071533679962158" lon="30.010828971862793">
        <time>2026-04-25T12:33:27Z</time>
      </trkpt>
      <trkpt lat="59.071533679962158" lon="30.010871887207031">
        <time>2026-04-25T12:33:29Z</time>
      </trkpt>
      <trkpt lat="59.071555137634277" lon="30.010957717895508">
        <time>2026-04-25T12:33:32Z</time>
      </trkpt>
      <trkpt lat="59.071555137634277" lon="30.011107921600342">
        <time>2026-04-25T12:33:34Z</time>
      </trkpt>
      <trkpt lat="59.071555137634277" lon="30.011215209960938">
        <time>2026-04-25T12:33:37Z</time>
      </trkpt>
      <trkpt lat="59.071555137634277" lon="30.011215209960938">
        <time>2026-04-25T12:33:39Z</time>
      </trkpt>
      <trkpt lat="59.071576595306396" lon="30.011258125305176">
        <time>2026-04-25T12:33:42Z</time>
      </trkpt>
      <trkpt lat="59.071598052978516" lon="30.01140832901001">
        <time>2026-04-25T12:33:44Z</time>
      </trkpt>
      <trkpt lat="59.071576595306396" lon="30.01140832901001">
        <time>2026-04-25T12:33:47Z</time>
      </trkpt>
      <trkpt lat="59.071576595306396" lon="30.011236667633057">
        <time>2026-04-25T12:33:49Z</time>
      </trkpt>
      <trkpt lat="59.071555137634277" lon="30.011043548583984">
        <time>2026-04-25T12:33:52Z</time>
      </trkpt>
      <trkpt lat="59.071533679962158" lon="30.010592937469482">
        <time>2026-04-25T12:33:54Z</time>
      </trkpt>
      <trkpt lat="59.071533679962158" lon="30.010442733764648">
        <time>2026-04-25T12:33:57Z</time>
      </trkpt>
      <trkpt lat="59.071555137634277" lon="30.010764598846436">
        <time>2026-04-25T12:33:59Z</time>
      </trkpt>
      <trkpt lat="59.071576595306396" lon="30.011043548583984">
        <time>2026-04-25T12:34:02Z</time>
      </trkpt>
      <trkpt lat="59.071619510650635" lon="30.01140832901001">
        <time>2026-04-25T12:34:04Z</time>
      </trkpt>
      <trkpt lat="59.071640968322754" lon="30.011515617370605">
        <time>2026-04-25T12:34:07Z</time>
      </trkpt>
      <trkpt lat="59.071619510650635" lon="30.011537075042725">
        <time>2026-04-25T12:34:09Z</time>
      </trkpt>
      <trkpt lat="59.071619510650635" lon="30.01164436340332">
        <time>2026-04-25T12:34:12Z</time>
      </trkpt>
      <trkpt lat="59.071640968322754" lon="30.011816024780273">
        <time>2026-04-25T12:34:14Z</time>
      </trkpt>
      <trkpt lat="59.071640968322754" lon="30.01190185546875">
        <time>2026-04-25T12:34:17Z</time>
      </trkpt>
      <trkpt lat="59.071662425994873" lon="30.012030601501465">
        <time>2026-04-25T12:34:19Z</time>
      </trkpt>
      <trkpt lat="59.071662425994873" lon="30.011987686157227">
        <time>2026-04-25T12:34:22Z</time>
      </trkpt>
      <trkpt lat="59.071619510650635" lon="30.011665821075439">
        <time>2026-04-25T12:34:24Z</time>
      </trkpt>
      <trkpt lat="59.071576595306396" lon="30.011343955993652">
        <time>2026-04-25T12:34:27Z</time>
      </trkpt>
      <trkpt lat="59.071576595306396" lon="30.011193752288818">
        <time>2026-04-25T12:34:29Z</time>
      </trkpt>
      <trkpt lat="59.071598052978516" lon="30.011451244354248">
        <time>2026-04-25T12:34:32Z</time>
      </trkpt>
      <trkpt lat="59.071662425994873" lon="30.011816024780273">
        <time>2026-04-25T12:34:34Z</time>
      </trkpt>
      <trkpt lat="59.071683883666992" lon="30.012052059173584">
        <time>2026-04-25T12:34:37Z</time>
      </trkpt>
      <trkpt lat="59.071705341339111" lon="30.012266635894775">
        <time>2026-04-25T12:34:39Z</time>
      </trkpt>
      <trkpt lat="59.07172679901123" lon="30.012288093566895">
        <time>2026-04-25T12:34:42Z</time>
      </trkpt>
      <trkpt lat="59.07172679901123" lon="30.012373924255371">
        <time>2026-04-25T12:34:44Z</time>
      </trkpt>
      <trkpt lat="59.07172679901123" lon="30.012373924255371">
        <time>2026-04-25T12:34:47Z</time>
      </trkpt>
      <trkpt lat="59.07172679901123" lon="30.012373924255371">
        <time>2026-04-25T12:34:49Z</time>
      </trkpt>
      <trkpt lat="59.07172679901123" lon="30.012416839599609">
        <time>2026-04-25T12:34:52Z</time>
      </trkpt>
      <trkpt lat="59.07172679901123" lon="30.012438297271729">
        <time>2026-04-25T12:34:54Z</time>
      </trkpt>
      <trkpt lat="59.07172679901123" lon="30.012481212615967">
        <time>2026-04-25T12:34:57Z</time>
      </trkpt>
      <trkpt lat="59.07172679901123" lon="30.012609958648682">
        <time>2026-04-25T12:34:59Z</time>
      </trkpt>
      <trkpt lat="59.07172679901123" lon="30.012695789337158">
        <time>2026-04-25T12:35:02Z</time>
      </trkpt>
      <trkpt lat="59.07172679901123" lon="30.012760162353516">
        <time>2026-04-25T12:35:04Z</time>
      </trkpt>
      <trkpt lat="59.07172679901123" lon="30.012760162353516">
        <time>2026-04-25T12:35:07Z</time>
      </trkpt>
      <trkpt lat="59.071769714355469" lon="30.012845993041992">
        <time>2026-04-25T12:35:09Z</time>
      </trkpt>
      <trkpt lat="59.071791172027588" lon="30.012931823730469">
        <time>2026-04-25T12:35:12Z</time>
      </trkpt>
      <trkpt lat="59.071812629699707" lon="30.012931823730469">
        <time>2026-04-25T12:35:14Z</time>
      </trkpt>
      <trkpt lat="59.071812629699707" lon="30.012931823730469">
        <time>2026-04-25T12:35:17Z</time>
      </trkpt>
      <trkpt lat="59.071812629699707" lon="30.012931823730469">
        <time>2026-04-25T12:35:19Z</time>
      </trkpt>
      <trkpt lat="59.071812629699707" lon="30.012931823730469">
        <time>2026-04-25T12:35:22Z</time>
      </trkpt>
      <trkpt lat="59.071812629699707" lon="30.012931823730469">
        <time>2026-04-25T12:35:24Z</time>
      </trkpt>
      <trkpt lat="59.071812629699707" lon="30.012931823730469">
        <time>2026-04-25T12:35:27Z</time>
      </trkpt>
      <trkpt lat="59.071812629699707" lon="30.012931823730469">
        <time>2026-04-25T12:35:29Z</time>
      </trkpt>
      <trkpt lat="59.071812629699707" lon="30.012931823730469">
        <time>2026-04-25T12:35:32Z</time>
      </trkpt>
      <trkpt lat="59.071812629699707" lon="30.012931823730469">
        <time>2026-04-25T12:35:34Z</time>
      </trkpt>
      <trkpt lat="59.071812629699707" lon="30.012931823730469">
        <time>2026-04-25T12:35:37Z</time>
      </trkpt>
      <trkpt lat="59.071812629699707" lon="30.012931823730469">
        <time>2026-04-25T12:35:39Z</time>
      </trkpt>
      <trkpt lat="59.071812629699707" lon="30.012931823730469">
        <time>2026-04-25T12:35:42Z</time>
      </trkpt>
      <trkpt lat="59.071834087371826" lon="30.013060569763184">
        <time>2026-04-25T12:35:44Z</time>
      </trkpt>
      <trkpt lat="59.071834087371826" lon="30.013124942779541">
        <time>2026-04-25T12:35:47Z</time>
      </trkpt>
      <trkpt lat="59.071855545043945" lon="30.013189315795898">
        <time>2026-04-25T12:35:49Z</time>
      </trkpt>
      <trkpt lat="59.071855545043945" lon="30.013275146484375">
        <time>2026-04-25T12:35:52Z</time>
      </trkpt>
      <trkpt lat="59.071855545043945" lon="30.013296604156494">
        <time>2026-04-25T12:35:54Z</time>
      </trkpt>
      <trkpt lat="59.071855545043945" lon="30.01340389251709">
        <time>2026-04-25T12:35:57Z</time>
      </trkpt>
      <trkpt lat="59.071877002716064" lon="30.013468265533447">
        <time>2026-04-25T12:35:59Z</time>
      </trkpt>
      <trkpt lat="59.071877002716064" lon="30.013468265533447">
        <time>2026-04-25T12:36:02Z</time>
      </trkpt>
      <trkpt lat="59.071855545043945" lon="30.013253688812256">
        <time>2026-04-25T12:36:04Z</time>
      </trkpt>
      <trkpt lat="59.071812629699707" lon="30.013039112091064">
        <time>2026-04-25T12:36:07Z</time>
      </trkpt>
      <trkpt lat="59.071791172027588" lon="30.012760162353516">
        <time>2026-04-25T12:36:09Z</time>
      </trkpt>
      <trkpt lat="59.071791172027588" lon="30.01288890838623">
        <time>2026-04-25T12:36:12Z</time>
      </trkpt>
      <trkpt lat="59.071834087371826" lon="30.013210773468018">
        <time>2026-04-25T12:36:14Z</time>
      </trkpt>
      <trkpt lat="59.071877002716064" lon="30.01340389251709">
        <time>2026-04-25T12:36:17Z</time>
      </trkpt>
      <trkpt lat="59.071898460388184" lon="30.013618469238281">
        <time>2026-04-25T12:36:19Z</time>
      </trkpt>
      <trkpt lat="59.071919918060303" lon="30.013747215270996">
        <time>2026-04-25T12:36:22Z</time>
      </trkpt>
      <trkpt lat="59.071941375732422" lon="30.013940334320068">
        <time>2026-04-25T12:36:24Z</time>
      </trkpt>
      <trkpt lat="59.071941375732422" lon="30.014047622680664">
        <time>2026-04-25T12:36:27Z</time>
      </trkpt>
      <trkpt lat="59.071941375732422" lon="30.014197826385498">
        <time>2026-04-25T12:36:29Z</time>
      </trkpt>
      <trkpt lat="59.071941375732422" lon="30.014197826385498">
        <time>2026-04-25T12:36:32Z</time>
      </trkpt>
      <trkpt lat="59.071941375732422" lon="30.014240741729736">
        <time>2026-04-25T12:36:34Z</time>
      </trkpt>
      <trkpt lat="59.071941375732422" lon="30.014326572418213">
        <time>2026-04-25T12:36:37Z</time>
      </trkpt>
      <trkpt lat="59.071941375732422" lon="30.014455318450928">
        <time>2026-04-25T12:36:39Z</time>
      </trkpt>
      <trkpt lat="59.071919918060303" lon="30.014476776123047">
        <time>2026-04-25T12:36:42Z</time>
      </trkpt>
      <trkpt lat="59.071919918060303" lon="30.014348030090332">
        <time>2026-04-25T12:36:44Z</time>
      </trkpt>
      <trkpt lat="59.071919918060303" lon="30.014133453369141">
        <time>2026-04-25T12:36:47Z</time>
      </trkpt>
      <trkpt lat="59.071898460388184" lon="30.013747215270996">
        <time>2026-04-25T12:36:49Z</time>
      </trkpt>
      <trkpt lat="59.071898460388184" lon="30.013790130615234">
        <time>2026-04-25T12:36:52Z</time>
      </trkpt>
      <trkpt lat="59.071919918060303" lon="30.014133453369141">
        <time>2026-04-25T12:36:54Z</time>
      </trkpt>
      <trkpt lat="59.071919918060303" lon="30.014369487762451">
        <time>2026-04-25T12:36:57Z</time>
      </trkpt>
      <trkpt lat="59.071941375732422" lon="30.014626979827881">
        <time>2026-04-25T12:36:59Z</time>
      </trkpt>
      <trkpt lat="59.071941375732422" lon="30.0146484375">
        <time>2026-04-25T12:37:02Z</time>
      </trkpt>
      <trkpt lat="59.071941375732422" lon="30.014734268188477">
        <time>2026-04-25T12:37:04Z</time>
      </trkpt>
      <trkpt lat="59.071941375732422" lon="30.014820098876953">
        <time>2026-04-25T12:37:07Z</time>
      </trkpt>
      <trkpt lat="59.071941375732422" lon="30.014970302581787">
        <time>2026-04-25T12:37:09Z</time>
      </trkpt>
      <trkpt lat="59.071941375732422" lon="30.015077590942383">
        <time>2026-04-25T12:37:12Z</time>
      </trkpt>
      <trkpt lat="59.07198429107666" lon="30.015313625335693">
        <time>2026-04-25T12:37:17Z</time>
      </trkpt>
      <trkpt lat="59.072005748748779" lon="30.015463829040527">
        <time>2026-04-25T12:37:19Z</time>
      </trkpt>
      <trkpt lat="59.07198429107666" lon="30.015506744384766">
        <time>2026-04-25T12:37:22Z</time>
      </trkpt>
      <trkpt lat="59.071962833404541" lon="30.015485286712646">
        <time>2026-04-25T12:37:24Z</time>
      </trkpt>
      <trkpt lat="59.071941375732422" lon="30.015463829040527">
        <time>2026-04-25T12:37:27Z</time>
      </trkpt>
      <trkpt lat="59.071919918060303" lon="30.015485286712646">
        <time>2026-04-25T12:37:29Z</time>
      </trkpt>
      <trkpt lat="59.071962833404541" lon="30.015463829040527">
        <time>2026-04-25T12:37:32Z</time>
      </trkpt>
      <trkpt lat="59.071941375732422" lon="30.015163421630859">
        <time>2026-04-25T12:37:34Z</time>
      </trkpt>
      <trkpt lat="59.071941375732422" lon="30.014820098876953">
        <time>2026-04-25T12:37:37Z</time>
      </trkpt>
      <trkpt lat="59.071919918060303" lon="30.014283657073975">
        <time>2026-04-25T12:37:39Z</time>
      </trkpt>
      <trkpt lat="59.071919918060303" lon="30.014069080352783">
        <time>2026-04-25T12:37:42Z</time>
      </trkpt>
      <trkpt lat="59.071941375732422" lon="30.014369487762451">
        <time>2026-04-25T12:37:44Z</time>
      </trkpt>
      <trkpt lat="59.071941375732422" lon="30.014712810516357">
        <time>2026-04-25T12:37:47Z</time>
      </trkpt>
      <trkpt lat="59.071962833404541" lon="30.015227794647217">
        <time>2026-04-25T12:37:49Z</time>
      </trkpt>
      <trkpt lat="59.07198429107666" lon="30.015506744384766">
        <time>2026-04-25T12:37:52Z</time>
      </trkpt>
      <trkpt lat="59.072070121765137" lon="30.015850067138672">
        <time>2026-04-25T12:37:54Z</time>
      </trkpt>
      <trkpt lat="59.072070121765137" lon="30.015957355499268">
        <time>2026-04-25T12:37:57Z</time>
      </trkpt>
      <trkpt lat="59.072091579437256" lon="30.016129016876221">
        <time>2026-04-25T12:37:59Z</time>
      </trkpt>
      <trkpt lat="59.072091579437256" lon="30.016214847564697">
        <time>2026-04-25T12:38:02Z</time>
      </trkpt>
      <trkpt lat="59.072091579437256" lon="30.01615047454834">
        <time>2026-04-25T12:38:04Z</time>
      </trkpt>
      <trkpt lat="59.072070121765137" lon="30.016021728515625">
        <time>2026-04-25T12:38:07Z</time>
      </trkpt>
      <trkpt lat="59.072048664093018" lon="30.015850067138672">
        <time>2026-04-25T12:38:09Z</time>
      </trkpt>
      <trkpt lat="59.072048664093018" lon="30.015978813171387">
        <time>2026-04-25T12:38:12Z</time>
      </trkpt>
      <trkpt lat="59.072070121765137" lon="30.016214847564697">
        <time>2026-04-25T12:38:14Z</time>
      </trkpt>
      <trkpt lat="59.072091579437256" lon="30.016343593597412">
        <time>2026-04-25T12:38:17Z</time>
      </trkpt>
      <trkpt lat="59.072113037109375" lon="30.016536712646484">
        <time>2026-04-25T12:38:19Z</time>
      </trkpt>
      <trkpt lat="59.072113037109375" lon="30.016622543334961">
        <time>2026-04-25T12:38:22Z</time>
      </trkpt>
      <trkpt lat="59.072113037109375" lon="30.016579627990723">
        <time>2026-04-25T12:38:24Z</time>
      </trkpt>
      <trkpt lat="59.072091579437256" lon="30.016493797302246">
        <time>2026-04-25T12:38:27Z</time>
      </trkpt>
      <trkpt lat="59.072091579437256" lon="30.016365051269531">
        <time>2026-04-25T12:38:29Z</time>
      </trkpt>
      <trkpt lat="59.072070121765137" lon="30.016193389892578">
        <time>2026-04-25T12:38:32Z</time>
      </trkpt>
      <trkpt lat="59.072027206420898" lon="30.015850067138672">
        <time>2026-04-25T12:38:34Z</time>
      </trkpt>
      <trkpt lat="59.07198429107666" lon="30.015614032745361">
        <time>2026-04-25T12:38:37Z</time>
      </trkpt>
      <trkpt lat="59.071941375732422" lon="30.015356540679932">
        <time>2026-04-25T12:38:39Z</time>
      </trkpt>
      <trkpt lat="59.071962833404541" lon="30.015463829040527">
        <time>2026-04-25T12:38:42Z</time>
      </trkpt>
      <trkpt lat="59.072048664093018" lon="30.01589298248291">
        <time>2026-04-25T12:38:44Z</time>
      </trkpt>
      <trkpt lat="59.072070121765137" lon="30.016193389892578">
        <time>2026-04-25T12:38:47Z</time>
      </trkpt>
      <trkpt lat="59.072113037109375" lon="30.016601085662842">
        <time>2026-04-25T12:38:49Z</time>
      </trkpt>
      <trkpt lat="59.072134494781494" lon="30.016815662384033">
        <time>2026-04-25T12:38:52Z</time>
      </trkpt>
      <trkpt lat="59.072134494781494" lon="30.01690149307251">
        <time>2026-04-25T12:38:54Z</time>
      </trkpt>
      <trkpt lat="59.072155952453613" lon="30.016944408416748">
        <time>2026-04-25T12:38:57Z</time>
      </trkpt>
      <trkpt lat="59.072134494781494" lon="30.017073154449463">
        <time>2026-04-25T12:38:59Z</time>
      </trkpt>
      <trkpt lat="59.072134494781494" lon="30.017094612121582">
        <time>2026-04-25T12:39:02Z</time>
      </trkpt>
      <trkpt lat="59.072134494781494" lon="30.01713752746582">
        <time>2026-04-25T12:39:04Z</time>
      </trkpt>
      <trkpt lat="59.072134494781494" lon="30.017223358154297">
        <time>2026-04-25T12:39:07Z</time>
      </trkpt>
      <trkpt lat="59.072134494781494" lon="30.017352104187012">
        <time>2026-04-25T12:39:09Z</time>
      </trkpt>
      <trkpt lat="59.072134494781494" lon="30.01739501953125">
        <time>2026-04-25T12:39:12Z</time>
      </trkpt>
      <trkpt lat="59.072134494781494" lon="30.017437934875488">
        <time>2026-04-25T12:39:14Z</time>
      </trkpt>
      <trkpt lat="59.072134494781494" lon="30.017480850219727">
        <time>2026-04-25T12:39:17Z</time>
      </trkpt>
      <trkpt lat="59.072134494781494" lon="30.017545223236084">
        <time>2026-04-25T12:39:19Z</time>
      </trkpt>
      <trkpt lat="59.072155952453613" lon="30.017609596252441">
        <time>2026-04-25T12:39:22Z</time>
      </trkpt>
      <trkpt lat="59.072155952453613" lon="30.017759799957275">
        <time>2026-04-25T12:39:24Z</time>
      </trkpt>
      <trkpt lat="59.072155952453613" lon="30.017824172973633">
        <time>2026-04-25T12:39:27Z</time>
      </trkpt>
      <trkpt lat="59.072155952453613" lon="30.017824172973633">
        <time>2026-04-25T12:39:29Z</time>
      </trkpt>
      <trkpt lat="59.072155952453613" lon="30.017802715301514">
        <time>2026-04-25T12:39:32Z</time>
      </trkpt>
      <trkpt lat="59.072155952453613" lon="30.017802715301514">
        <time>2026-04-25T12:39:34Z</time>
      </trkpt>
      <trkpt lat="59.072155952453613" lon="30.017824172973633">
        <time>2026-04-25T12:39:37Z</time>
      </trkpt>
      <trkpt lat="59.072155952453613" lon="30.017974376678467">
        <time>2026-04-25T12:39:39Z</time>
      </trkpt>
      <trkpt lat="59.072177410125732" lon="30.018081665039063">
        <time>2026-04-25T12:39:42Z</time>
      </trkpt>
      <trkpt lat="59.072177410125732" lon="30.018124580383301">
        <time>2026-04-25T12:39:44Z</time>
      </trkpt>
      <trkpt lat="59.072177410125732" lon="30.018103122711182">
        <time>2026-04-25T12:39:47Z</time>
      </trkpt>
      <trkpt lat="59.072177410125732" lon="30.018103122711182">
        <time>2026-04-25T12:39:49Z</time>
      </trkpt>
      <trkpt lat="59.072155952453613" lon="30.018038749694824">
        <time>2026-04-25T12:39:52Z</time>
      </trkpt>
      <trkpt lat="59.072134494781494" lon="30.017931461334229">
        <time>2026-04-25T12:39:54Z</time>
      </trkpt>
      <trkpt lat="59.072134494781494" lon="30.017910003662109">
        <time>2026-04-25T12:39:57Z</time>
      </trkpt>
      <trkpt lat="59.072155952453613" lon="30.017974376678467">
        <time>2026-04-25T12:39:59Z</time>
      </trkpt>
      <trkpt lat="59.072155952453613" lon="30.017995834350586">
        <time>2026-04-25T12:40:02Z</time>
      </trkpt>
      <trkpt lat="59.072155952453613" lon="30.018081665039063">
        <time>2026-04-25T12:40:04Z</time>
      </trkpt>
      <trkpt lat="59.072177410125732" lon="30.018188953399658">
        <time>2026-04-25T12:40:07Z</time>
      </trkpt>
      <trkpt lat="59.072177410125732" lon="30.018317699432373">
        <time>2026-04-25T12:40:09Z</time>
      </trkpt>
      <trkpt lat="59.072177410125732" lon="30.018296241760254">
        <time>2026-04-25T12:40:12Z</time>
      </trkpt>
      <trkpt lat="59.072155952453613" lon="30.01814603805542">
        <time>2026-04-25T12:40:14Z</time>
      </trkpt>
      <trkpt lat="59.072155952453613" lon="30.018038749694824">
        <time>2026-04-25T12:40:17Z</time>
      </trkpt>
      <trkpt lat="59.072134494781494" lon="30.017867088317871">
        <time>2026-04-25T12:40:19Z</time>
      </trkpt>
      <trkpt lat="59.072134494781494" lon="30.01788854598999">
        <time>2026-04-25T12:40:22Z</time>
      </trkpt>
      <trkpt lat="59.072155952453613" lon="30.018060207366943">
        <time>2026-04-25T12:40:24Z</time>
      </trkpt>
      <trkpt lat="59.072155952453613" lon="30.018210411071777">
        <time>2026-04-25T12:40:27Z</time>
      </trkpt>
      <trkpt lat="59.072177410125732" lon="30.01840353012085">
        <time>2026-04-25T12:40:29Z</time>
      </trkpt>
      <trkpt lat="59.072198867797852" lon="30.018489360809326">
        <time>2026-04-25T12:40:32Z</time>
      </trkpt>
      <trkpt lat="59.072198867797852" lon="30.018575191497803">
        <time>2026-04-25T12:40:34Z</time>
      </trkpt>
      <trkpt lat="59.072198867797852" lon="30.018532276153564">
        <time>2026-04-25T12:40:37Z</time>
      </trkpt>
      <trkpt lat="59.072177410125732" lon="30.018360614776611">
        <time>2026-04-25T12:40:39Z</time>
      </trkpt>
      <trkpt lat="59.072177410125732" lon="30.018231868743896">
        <time>2026-04-25T12:40:42Z</time>
      </trkpt>
      <trkpt lat="59.072155952453613" lon="30.018060207366943">
        <time>2026-04-25T12:40:44Z</time>
      </trkpt>
      <trkpt lat="59.072155952453613" lon="30.01814603805542">
        <time>2026-04-25T12:40:47Z</time>
      </trkpt>
      <trkpt lat="59.072198867797852" lon="30.01838207244873">
        <time>2026-04-25T12:40:49Z</time>
      </trkpt>
      <trkpt lat="59.072198867797852" lon="30.018510818481445">
        <time>2026-04-25T12:40:52Z</time>
      </trkpt>
      <trkpt lat="59.072220325469971" lon="30.018703937530518">
        <time>2026-04-25T12:40:54Z</time>
      </trkpt>
      <trkpt lat="59.07224178314209" lon="30.018789768218994">
        <time>2026-04-25T12:40:57Z</time>
      </trkpt>
      <trkpt lat="59.07224178314209" lon="30.018832683563232">
        <time>2026-04-25T12:40:59Z</time>
      </trkpt>
      <trkpt lat="59.07224178314209" lon="30.018832683563232">
        <time>2026-04-25T12:41:02Z</time>
      </trkpt>
      <trkpt lat="59.07224178314209" lon="30.018854141235352">
        <time>2026-04-25T12:41:04Z</time>
      </trkpt>
      <trkpt lat="59.072263240814209" lon="30.018939971923828">
        <time>2026-04-25T12:41:07Z</time>
      </trkpt>
      <trkpt lat="59.072284698486328" lon="30.019025802612305">
        <time>2026-04-25T12:41:09Z</time>
      </trkpt>
      <trkpt lat="59.072284698486328" lon="30.019025802612305">
        <time>2026-04-25T12:41:12Z</time>
      </trkpt>
      <trkpt lat="59.072284698486328" lon="30.019025802612305">
        <time>2026-04-25T12:41:14Z</time>
      </trkpt>
      <trkpt lat="59.072284698486328" lon="30.019068717956543">
        <time>2026-04-25T12:41:17Z</time>
      </trkpt>
      <trkpt lat="59.072327613830566" lon="30.019218921661377">
        <time>2026-04-25T12:41:19Z</time>
      </trkpt>
      <trkpt lat="59.072349071502686" lon="30.019283294677734">
        <time>2026-04-25T12:41:22Z</time>
      </trkpt>
      <trkpt lat="59.072370529174805" lon="30.019347667694092">
        <time>2026-04-25T12:41:24Z</time>
      </trkpt>
      <trkpt lat="59.072391986846924" lon="30.019412040710449">
        <time>2026-04-25T12:41:27Z</time>
      </trkpt>
      <trkpt lat="59.072434902191162" lon="30.019497871398926">
        <time>2026-04-25T12:41:29Z</time>
      </trkpt>
      <trkpt lat="59.072434902191162" lon="30.019583702087402">
        <time>2026-04-25T12:41:32Z</time>
      </trkpt>
      <trkpt lat="59.072456359863281" lon="30.019605159759521">
        <time>2026-04-25T12:41:34Z</time>
      </trkpt>
      <trkpt lat="59.072456359863281" lon="30.019626617431641">
        <time>2026-04-25T12:41:37Z</time>
      </trkpt>
      <trkpt lat="59.072434902191162" lon="30.019626617431641">
        <time>2026-04-25T12:41:39Z</time>
      </trkpt>
      <trkpt lat="59.072434902191162" lon="30.01964807510376">
        <time>2026-04-25T12:41:42Z</time>
      </trkpt>
      <trkpt lat="59.072434902191162" lon="30.01964807510376">
        <time>2026-04-25T12:41:44Z</time>
      </trkpt>
      <trkpt lat="59.072413444519043" lon="30.01964807510376">
        <time>2026-04-25T12:41:47Z</time>
      </trkpt>
      <trkpt lat="59.072434902191162" lon="30.019669532775879">
        <time>2026-04-25T12:41:49Z</time>
      </trkpt>
      <trkpt lat="59.072456359863281" lon="30.019755363464355">
        <time>2026-04-25T12:41:52Z</time>
      </trkpt>
      <trkpt lat="59.07249927520752" lon="30.019927024841309">
        <time>2026-04-25T12:41:54Z</time>
      </trkpt>
      <trkpt lat="59.072520732879639" lon="30.020012855529785">
        <time>2026-04-25T12:41:57Z</time>
      </trkpt>
      <trkpt lat="59.072542190551758" lon="30.020098686218262">
        <time>2026-04-25T12:41:59Z</time>
      </trkpt>
      <trkpt lat="59.072542190551758" lon="30.0201416015625">
        <time>2026-04-25T12:42:02Z</time>
      </trkpt>
      <trkpt lat="59.072585105895996" lon="30.020227432250977">
        <time>2026-04-25T12:42:04Z</time>
      </trkpt>
      <trkpt lat="59.072585105895996" lon="30.020270347595215">
        <time>2026-04-25T12:42:07Z</time>
      </trkpt>
      <trkpt lat="59.072585105895996" lon="30.020270347595215">
        <time>2026-04-25T12:42:09Z</time>
      </trkpt>
      <trkpt lat="59.072563648223877" lon="30.020291805267334">
        <time>2026-04-25T12:42:12Z</time>
      </trkpt>
      <trkpt lat="59.072585105895996" lon="30.020356178283691">
        <time>2026-04-25T12:42:14Z</time>
      </trkpt>
      <trkpt lat="59.072585105895996" lon="30.020442008972168">
        <time>2026-04-25T12:42:17Z</time>
      </trkpt>
      <trkpt lat="59.072606563568115" lon="30.020570755004883">
        <time>2026-04-25T12:42:19Z</time>
      </trkpt>
      <trkpt lat="59.072628021240234" lon="30.02063512802124">
        <time>2026-04-25T12:42:22Z</time>
      </trkpt>
      <trkpt lat="59.072649478912354" lon="30.020656585693359">
        <time>2026-04-25T12:42:24Z</time>
      </trkpt>
      <trkpt lat="59.072649478912354" lon="30.020678043365479">
        <time>2026-04-25T12:42:27Z</time>
      </trkpt>
      <trkpt lat="59.072628021240234" lon="30.020742416381836">
        <time>2026-04-25T12:42:29Z</time>
      </trkpt>
      <trkpt lat="59.072628021240234" lon="30.020828247070313">
        <time>2026-04-25T12:42:32Z</time>
      </trkpt>
      <trkpt lat="59.072628021240234" lon="30.02089262008667">
        <time>2026-04-25T12:42:34Z</time>
      </trkpt>
      <trkpt lat="59.072628021240234" lon="30.020914077758789">
        <time>2026-04-25T12:42:37Z</time>
      </trkpt>
      <trkpt lat="59.072628021240234" lon="30.020914077758789">
        <time>2026-04-25T12:42:39Z</time>
      </trkpt>
      <trkpt lat="59.072628021240234" lon="30.020914077758789">
        <time>2026-04-25T12:42:42Z</time>
      </trkpt>
      <trkpt lat="59.072606563568115" lon="30.021042823791504">
        <time>2026-04-25T12:42:44Z</time>
      </trkpt>
      <trkpt lat="59.072606563568115" lon="30.021107196807861">
        <time>2026-04-25T12:42:47Z</time>
      </trkpt>
      <trkpt lat="59.072606563568115" lon="30.021214485168457">
        <time>2026-04-25T12:42:49Z</time>
      </trkpt>
      <trkpt lat="59.072606563568115" lon="30.021257400512695">
        <time>2026-04-25T12:42:52Z</time>
      </trkpt>
      <trkpt lat="59.072628021240234" lon="30.021300315856934">
        <time>2026-04-25T12:42:54Z</time>
      </trkpt>
      <trkpt lat="59.072628021240234" lon="30.021214485168457">
        <time>2026-04-25T12:42:57Z</time>
      </trkpt>
      <trkpt lat="59.072628021240234" lon="30.021021366119385">
        <time>2026-04-25T12:42:59Z</time>
      </trkpt>
      <trkpt lat="59.072628021240234" lon="30.020828247070313">
        <time>2026-04-25T12:43:02Z</time>
      </trkpt>
      <trkpt lat="59.072606563568115" lon="30.020570755004883">
        <time>2026-04-25T12:43:04Z</time>
      </trkpt>
      <trkpt lat="59.072628021240234" lon="30.02063512802124">
        <time>2026-04-25T12:43:07Z</time>
      </trkpt>
      <trkpt lat="59.072649478912354" lon="30.020935535430908">
        <time>2026-04-25T12:43:09Z</time>
      </trkpt>
      <trkpt lat="59.072628021240234" lon="30.021107196807861">
        <time>2026-04-25T12:43:12Z</time>
      </trkpt>
      <trkpt lat="59.072628021240234" lon="30.021235942840576">
        <time>2026-04-25T12:43:14Z</time>
      </trkpt>
      <trkpt lat="59.072628021240234" lon="30.021300315856934">
        <time>2026-04-25T12:43:17Z</time>
      </trkpt>
      <trkpt lat="59.072628021240234" lon="30.021407604217529">
        <time>2026-04-25T12:43:19Z</time>
      </trkpt>
      <trkpt lat="59.072628021240234" lon="30.021493434906006">
        <time>2026-04-25T12:43:22Z</time>
      </trkpt>
      <trkpt lat="59.072628021240234" lon="30.021600723266602">
        <time>2026-04-25T12:43:24Z</time>
      </trkpt>
      <trkpt lat="59.072585105895996" lon="30.021600723266602">
        <time>2026-04-25T12:43:27Z</time>
      </trkpt>
      <trkpt lat="59.072585105895996" lon="30.021600723266602">
        <time>2026-04-25T12:43:29Z</time>
      </trkpt>
      <trkpt lat="59.072606563568115" lon="30.021600723266602">
        <time>2026-04-25T12:43:32Z</time>
      </trkpt>
      <trkpt lat="59.072606563568115" lon="30.02164363861084">
        <time>2026-04-25T12:43:34Z</time>
      </trkpt>
      <trkpt lat="59.072606563568115" lon="30.021729469299316">
        <time>2026-04-25T12:43:37Z</time>
      </trkpt>
      <trkpt lat="59.072606563568115" lon="30.021965503692627">
        <time>2026-04-25T12:43:42Z</time>
      </trkpt>
      <trkpt lat="59.072606563568115" lon="30.022115707397461">
        <time>2026-04-25T12:43:44Z</time>
      </trkpt>
      <trkpt lat="59.072585105895996" lon="30.02213716506958">
        <time>2026-04-25T12:43:47Z</time>
      </trkpt>
      <trkpt lat="59.072563648223877" lon="30.02213716506958">
        <time>2026-04-25T12:43:49Z</time>
      </trkpt>
      <trkpt lat="59.072520732879639" lon="30.022094249725342">
        <time>2026-04-25T12:43:52Z</time>
      </trkpt>
      <trkpt lat="59.072520732879639" lon="30.022072792053223">
        <time>2026-04-25T12:43:54Z</time>
      </trkpt>
      <trkpt lat="59.072520732879639" lon="30.022094249725342">
        <time>2026-04-25T12:43:57Z</time>
      </trkpt>
      <trkpt lat="59.072585105895996" lon="30.022072792053223">
        <time>2026-04-25T12:43:59Z</time>
      </trkpt>
      <trkpt lat="59.072606563568115" lon="30.021858215332031">
        <time>2026-04-25T12:44:02Z</time>
      </trkpt>
      <trkpt lat="59.072606563568115" lon="30.021450519561768">
        <time>2026-04-25T12:44:04Z</time>
      </trkpt>
      <trkpt lat="59.072606563568115" lon="30.021235942840576">
        <time>2026-04-25T12:44:07Z</time>
      </trkpt>
      <trkpt lat="59.072606563568115" lon="30.021429061889648">
        <time>2026-04-25T12:44:09Z</time>
      </trkpt>
      <trkpt lat="59.072606563568115" lon="30.021686553955078">
        <time>2026-04-25T12:44:12Z</time>
      </trkpt>
      <trkpt lat="59.072606563568115" lon="30.022072792053223">
        <time>2026-04-25T12:44:14Z</time>
      </trkpt>
      <trkpt lat="59.072585105895996" lon="30.022287368774414">
        <time>2026-04-25T12:44:17Z</time>
      </trkpt>
      <trkpt lat="59.072585105895996" lon="30.022566318511963">
        <time>2026-04-25T12:44:19Z</time>
      </trkpt>
      <trkpt lat="59.072585105895996" lon="30.022673606872559">
        <time>2026-04-25T12:44:22Z</time>
      </trkpt>
      <trkpt lat="59.072585105895996" lon="30.022802352905273">
        <time>2026-04-25T12:44:24Z</time>
      </trkpt>
      <trkpt lat="59.072585105895996" lon="30.022866725921631">
        <time>2026-04-25T12:44:27Z</time>
      </trkpt>
      <trkpt lat="59.072585105895996" lon="30.022931098937988">
        <time>2026-04-25T12:44:29Z</time>
      </trkpt>
      <trkpt lat="59.072585105895996" lon="30.022995471954346">
        <time>2026-04-25T12:44:32Z</time>
      </trkpt>
      <trkpt lat="59.072585105895996" lon="30.022952556610107">
        <time>2026-04-25T12:44:34Z</time>
      </trkpt>
      <trkpt lat="59.072585105895996" lon="30.022909641265869">
        <time>2026-04-25T12:44:37Z</time>
      </trkpt>
      <trkpt lat="59.072585105895996" lon="30.022909641265869">
        <time>2026-04-25T12:44:39Z</time>
      </trkpt>
      <trkpt lat="59.072563648223877" lon="30.022909641265869">
        <time>2026-04-25T12:44:42Z</time>
      </trkpt>
      <trkpt lat="59.072563648223877" lon="30.022909641265869">
        <time>2026-04-25T12:44:44Z</time>
      </trkpt>
      <trkpt lat="59.072563648223877" lon="30.022909641265869">
        <time>2026-04-25T12:44:47Z</time>
      </trkpt>
      <trkpt lat="59.072563648223877" lon="30.022909641265869">
        <time>2026-04-25T12:44:49Z</time>
      </trkpt>
      <trkpt lat="59.072563648223877" lon="30.022909641265869">
        <time>2026-04-25T12:44:52Z</time>
      </trkpt>
      <trkpt lat="59.072563648223877" lon="30.022909641265869">
        <time>2026-04-25T12:44:54Z</time>
      </trkpt>
      <trkpt lat="59.072563648223877" lon="30.022909641265869">
        <time>2026-04-25T12:44:57Z</time>
      </trkpt>
      <trkpt lat="59.072563648223877" lon="30.022909641265869">
        <time>2026-04-25T12:44:59Z</time>
      </trkpt>
      <trkpt lat="59.072563648223877" lon="30.022909641265869">
        <time>2026-04-25T12:45:02Z</time>
      </trkpt>
      <trkpt lat="59.072563648223877" lon="30.022909641265869">
        <time>2026-04-25T12:45:04Z</time>
      </trkpt>
      <trkpt lat="59.072563648223877" lon="30.022909641265869">
        <time>2026-04-25T12:45:07Z</time>
      </trkpt>
      <trkpt lat="59.072563648223877" lon="30.022909641265869">
        <time>2026-04-25T12:45:09Z</time>
      </trkpt>
      <trkpt lat="59.072563648223877" lon="30.022909641265869">
        <time>2026-04-25T12:45:12Z</time>
      </trkpt>
      <trkpt lat="59.072563648223877" lon="30.022909641265869">
        <time>2026-04-25T12:45:14Z</time>
      </trkpt>
      <trkpt lat="59.072563648223877" lon="30.022866725921631">
        <time>2026-04-25T12:45:17Z</time>
      </trkpt>
      <trkpt lat="59.072563648223877" lon="30.022866725921631">
        <time>2026-04-25T12:45:19Z</time>
      </trkpt>
      <trkpt lat="59.072563648223877" lon="30.022866725921631">
        <time>2026-04-25T12:45:22Z</time>
      </trkpt>
      <trkpt lat="59.072563648223877" lon="30.022909641265869">
        <time>2026-04-25T12:45:24Z</time>
      </trkpt>
      <trkpt lat="59.072542190551758" lon="30.023016929626465">
        <time>2026-04-25T12:45:27Z</time>
      </trkpt>
      <trkpt lat="59.072542190551758" lon="30.023210048675537">
        <time>2026-04-25T12:45:29Z</time>
      </trkpt>
      <trkpt lat="59.072542190551758" lon="30.023295879364014">
        <time>2026-04-25T12:45:32Z</time>
      </trkpt>
      <trkpt lat="59.072563648223877" lon="30.023403167724609">
        <time>2026-04-25T12:45:34Z</time>
      </trkpt>
      <trkpt lat="59.072585105895996" lon="30.023510456085205">
        <time>2026-04-25T12:45:37Z</time>
      </trkpt>
      <trkpt lat="59.072606563568115" lon="30.023596286773682">
        <time>2026-04-25T12:45:39Z</time>
      </trkpt>
      <trkpt lat="59.072606563568115" lon="30.023682117462158">
        <time>2026-04-25T12:45:42Z</time>
      </trkpt>
      <trkpt lat="59.072606563568115" lon="30.023725032806396">
        <time>2026-04-25T12:45:44Z</time>
      </trkpt>
      <trkpt lat="59.072628021240234" lon="30.023725032806396">
        <time>2026-04-25T12:45:47Z</time>
      </trkpt>
      <trkpt lat="59.072628021240234" lon="30.023810863494873">
        <time>2026-04-25T12:45:49Z</time>
      </trkpt>
      <trkpt lat="59.072628021240234" lon="30.023832321166992">
        <time>2026-04-25T12:45:52Z</time>
      </trkpt>
      <trkpt lat="59.072649478912354" lon="30.023918151855469">
        <time>2026-04-25T12:45:54Z</time>
      </trkpt>
      <trkpt lat="59.072649478912354" lon="30.023939609527588">
        <time>2026-04-25T12:45:57Z</time>
      </trkpt>
      <trkpt lat="59.072628021240234" lon="30.023939609527588">
        <time>2026-04-25T12:45:59Z</time>
      </trkpt>
      <trkpt lat="59.072628021240234" lon="30.023939609527588">
        <time>2026-04-25T12:46:02Z</time>
      </trkpt>
      <trkpt lat="59.072628021240234" lon="30.023939609527588">
        <time>2026-04-25T12:46:04Z</time>
      </trkpt>
      <trkpt lat="59.072628021240234" lon="30.023939609527588">
        <time>2026-04-25T12:46:07Z</time>
      </trkpt>
      <trkpt lat="59.072628021240234" lon="30.023939609527588">
        <time>2026-04-25T12:46:09Z</time>
      </trkpt>
      <trkpt lat="59.072628021240234" lon="30.023939609527588">
        <time>2026-04-25T12:46:12Z</time>
      </trkpt>
      <trkpt lat="59.072649478912354" lon="30.024089813232422">
        <time>2026-04-25T12:46:14Z</time>
      </trkpt>
      <trkpt lat="59.072670936584473" lon="30.024197101593018">
        <time>2026-04-25T12:46:17Z</time>
      </trkpt>
      <trkpt lat="59.072670936584473" lon="30.024304389953613">
        <time>2026-04-25T12:46:19Z</time>
      </trkpt>
      <trkpt lat="59.072692394256592" lon="30.024347305297852">
        <time>2026-04-25T12:46:22Z</time>
      </trkpt>
      <trkpt lat="59.072692394256592" lon="30.02439022064209">
        <time>2026-04-25T12:46:24Z</time>
      </trkpt>
      <trkpt lat="59.072692394256592" lon="30.02439022064209">
        <time>2026-04-25T12:46:27Z</time>
      </trkpt>
      <trkpt lat="59.072692394256592" lon="30.024433135986328">
        <time>2026-04-25T12:46:29Z</time>
      </trkpt>
      <trkpt lat="59.072692394256592" lon="30.024476051330566">
        <time>2026-04-25T12:46:32Z</time>
      </trkpt>
      <trkpt lat="59.072692394256592" lon="30.024518966674805">
        <time>2026-04-25T12:46:34Z</time>
      </trkpt>
      <trkpt lat="59.072692394256592" lon="30.024561882019043">
        <time>2026-04-25T12:46:37Z</time>
      </trkpt>
      <trkpt lat="59.072692394256592" lon="30.024690628051758">
        <time>2026-04-25T12:46:39Z</time>
      </trkpt>
      <trkpt lat="59.072713851928711" lon="30.024776458740234">
        <time>2026-04-25T12:46:42Z</time>
      </trkpt>
      <trkpt lat="59.07273530960083" lon="30.024905204772949">
        <time>2026-04-25T12:46:44Z</time>
      </trkpt>
      <trkpt lat="59.072756767272949" lon="30.024969577789307">
        <time>2026-04-25T12:46:47Z</time>
      </trkpt>
      <trkpt lat="59.072756767272949" lon="30.025055408477783">
        <time>2026-04-25T12:46:49Z</time>
      </trkpt>
      <trkpt lat="59.072778224945068" lon="30.025098323822021">
        <time>2026-04-25T12:46:52Z</time>
      </trkpt>
      <trkpt lat="59.072778224945068" lon="30.025098323822021">
        <time>2026-04-25T12:46:54Z</time>
      </trkpt>
      <trkpt lat="59.072778224945068" lon="30.025098323822021">
        <time>2026-04-25T12:46:57Z</time>
      </trkpt>
      <trkpt lat="59.072778224945068" lon="30.02514123916626">
        <time>2026-04-25T12:46:59Z</time>
      </trkpt>
      <trkpt lat="59.072799682617187" lon="30.025227069854736">
        <time>2026-04-25T12:47:02Z</time>
      </trkpt>
      <trkpt lat="59.072799682617187" lon="30.025269985198975">
        <time>2026-04-25T12:47:04Z</time>
      </trkpt>
      <trkpt lat="59.072799682617187" lon="30.025291442871094">
        <time>2026-04-25T12:47:07Z</time>
      </trkpt>
      <trkpt lat="59.072821140289307" lon="30.025334358215332">
        <time>2026-04-25T12:47:09Z</time>
      </trkpt>
      <trkpt lat="59.072821140289307" lon="30.025355815887451">
        <time>2026-04-25T12:47:12Z</time>
      </trkpt>
      <trkpt lat="59.072842597961426" lon="30.025441646575928">
        <time>2026-04-25T12:47:14Z</time>
      </trkpt>
      <trkpt lat="59.072842597961426" lon="30.025506019592285">
        <time>2026-04-25T12:47:17Z</time>
      </trkpt>
      <trkpt lat="59.072864055633545" lon="30.025613307952881">
        <time>2026-04-25T12:47:19Z</time>
      </trkpt>
      <trkpt lat="59.072864055633545" lon="30.025656223297119">
        <time>2026-04-25T12:47:22Z</time>
      </trkpt>
      <trkpt lat="59.072864055633545" lon="30.025656223297119">
        <time>2026-04-25T12:47:24Z</time>
      </trkpt>
      <trkpt lat="59.072864055633545" lon="30.025677680969238">
        <time>2026-04-25T12:47:27Z</time>
      </trkpt>
      <trkpt lat="59.072864055633545" lon="30.025763511657715">
        <time>2026-04-25T12:47:29Z</time>
      </trkpt>
      <trkpt lat="59.072885513305664" lon="30.025849342346191">
        <time>2026-04-25T12:47:32Z</time>
      </trkpt>
      <trkpt lat="59.072885513305664" lon="30.025935173034668">
        <time>2026-04-25T12:47:34Z</time>
      </trkpt>
      <trkpt lat="59.072906970977783" lon="30.025999546051025">
        <time>2026-04-25T12:47:37Z</time>
      </trkpt>
      <trkpt lat="59.072906970977783" lon="30.026085376739502">
        <time>2026-04-25T12:47:39Z</time>
      </trkpt>
      <trkpt lat="59.072906970977783" lon="30.02612829208374">
        <time>2026-04-25T12:47:42Z</time>
      </trkpt>
      <trkpt lat="59.072906970977783" lon="30.02612829208374">
        <time>2026-04-25T12:47:44Z</time>
      </trkpt>
      <trkpt lat="59.072885513305664" lon="30.026042461395264">
        <time>2026-04-25T12:47:47Z</time>
      </trkpt>
      <trkpt lat="59.072842597961426" lon="30.025806427001953">
        <time>2026-04-25T12:47:49Z</time>
      </trkpt>
      <trkpt lat="59.072799682617187" lon="30.025548934936523">
        <time>2026-04-25T12:47:52Z</time>
      </trkpt>
      <trkpt lat="59.072799682617187" lon="30.025398731231689">
        <time>2026-04-25T12:47:54Z</time>
      </trkpt>
      <trkpt lat="59.072821140289307" lon="30.025548934936523">
        <time>2026-04-25T12:47:57Z</time>
      </trkpt>
      <trkpt lat="59.072842597961426" lon="30.025827884674072">
        <time>2026-04-25T12:47:59Z</time>
      </trkpt>
      <trkpt lat="59.072864055633545" lon="30.025978088378906">
        <time>2026-04-25T12:48:02Z</time>
      </trkpt>
      <trkpt lat="59.072885513305664" lon="30.026171207427979">
        <time>2026-04-25T12:48:04Z</time>
      </trkpt>
      <trkpt lat="59.072906970977783" lon="30.026278495788574">
        <time>2026-04-25T12:48:07Z</time>
      </trkpt>
      <trkpt lat="59.072928428649902" lon="30.026450157165527">
        <time>2026-04-25T12:48:09Z</time>
      </trkpt>
      <trkpt lat="59.072949886322021" lon="30.026557445526123">
        <time>2026-04-25T12:48:12Z</time>
      </trkpt>
      <trkpt lat="59.072971343994141" lon="30.02662181854248">
        <time>2026-04-25T12:48:14Z</time>
      </trkpt>
      <trkpt lat="59.072971343994141" lon="30.02662181854248">
        <time>2026-04-25T12:48:17Z</time>
      </trkpt>
      <trkpt lat="59.07299280166626" lon="30.026772022247314">
        <time>2026-04-25T12:48:19Z</time>
      </trkpt>
      <trkpt lat="59.07299280166626" lon="30.02687931060791">
        <time>2026-04-25T12:48:22Z</time>
      </trkpt>
      <trkpt lat="59.073035717010498" lon="30.027029514312744">
        <time>2026-04-25T12:48:24Z</time>
      </trkpt>
      <trkpt lat="59.073035717010498" lon="30.027115345001221">
        <time>2026-04-25T12:48:27Z</time>
      </trkpt>
      <trkpt lat="59.073035717010498" lon="30.02713680267334">
        <time>2026-04-25T12:48:29Z</time>
      </trkpt>
      <trkpt lat="59.073057174682617" lon="30.027158260345459">
        <time>2026-04-25T12:48:32Z</time>
      </trkpt>
      <trkpt lat="59.073057174682617" lon="30.027287006378174">
        <time>2026-04-25T12:48:34Z</time>
      </trkpt>
      <trkpt lat="59.073078632354736" lon="30.02737283706665">
        <time>2026-04-25T12:48:37Z</time>
      </trkpt>
      <trkpt lat="59.073078632354736" lon="30.02739429473877">
        <time>2026-04-25T12:48:39Z</time>
      </trkpt>
      <trkpt lat="59.073078632354736" lon="30.02739429473877">
        <time>2026-04-25T12:48:42Z</time>
      </trkpt>
      <trkpt lat="59.073078632354736" lon="30.02739429473877">
        <time>2026-04-25T12:48:44Z</time>
      </trkpt>
      <trkpt lat="59.073078632354736" lon="30.027458667755127">
        <time>2026-04-25T12:48:47Z</time>
      </trkpt>
      <trkpt lat="59.073057174682617" lon="30.027501583099365">
        <time>2026-04-25T12:48:49Z</time>
      </trkpt>
      <trkpt lat="59.073057174682617" lon="30.027544498443604">
        <time>2026-04-25T12:48:52Z</time>
      </trkpt>
      <trkpt lat="59.073014259338379" lon="30.027587413787842">
        <time>2026-04-25T12:48:54Z</time>
      </trkpt>
      <trkpt lat="59.072971343994141" lon="30.02763032913208">
        <time>2026-04-25T12:48:57Z</time>
      </trkpt>
      <trkpt lat="59.072928428649902" lon="30.027651786804199">
        <time>2026-04-25T12:48:59Z</time>
      </trkpt>
      <trkpt lat="59.072885513305664" lon="30.027694702148438">
        <time>2026-04-25T12:49:02Z</time>
      </trkpt>
      <trkpt lat="59.072799682617187" lon="30.027737617492676">
        <time>2026-04-25T12:49:04Z</time>
      </trkpt>
      <trkpt lat="59.072778224945068" lon="30.027759075164795">
        <time>2026-04-25T12:49:07Z</time>
      </trkpt>
      <trkpt lat="59.07273530960083" lon="30.027780532836914">
        <time>2026-04-25T12:49:09Z</time>
      </trkpt>
      <trkpt lat="59.072670936584473" lon="30.027801990509033">
        <time>2026-04-25T12:49:12Z</time>
      </trkpt>
      <trkpt lat="59.072670936584473" lon="30.027801990509033">
        <time>2026-04-25T12:49:14Z</time>
      </trkpt>
      <trkpt lat="59.072606563568115" lon="30.027780532836914">
        <time>2026-04-25T12:49:17Z</time>
      </trkpt>
      <trkpt lat="59.072542190551758" lon="30.027759075164795">
        <time>2026-04-25T12:49:19Z</time>
      </trkpt>
      <trkpt lat="59.072563648223877" lon="30.027801990509033">
        <time>2026-04-25T12:49:22Z</time>
      </trkpt>
      <trkpt lat="59.072563648223877" lon="30.027801990509033">
        <time>2026-04-25T12:49:24Z</time>
      </trkpt>
      <trkpt lat="59.072563648223877" lon="30.027823448181152">
        <time>2026-04-25T12:49:27Z</time>
      </trkpt>
      <trkpt lat="59.072520732879639" lon="30.027844905853271">
        <time>2026-04-25T12:49:29Z</time>
      </trkpt>
      <trkpt lat="59.07249927520752" lon="30.027844905853271">
        <time>2026-04-25T12:49:32Z</time>
      </trkpt>
      <trkpt lat="59.0724778175354" lon="30.027801990509033">
        <time>2026-04-25T12:49:34Z</time>
      </trkpt>
      <trkpt lat="59.072456359863281" lon="30.027801990509033">
        <time>2026-04-25T12:49:37Z</time>
      </trkpt>
      <trkpt lat="59.072456359863281" lon="30.027823448181152">
        <time>2026-04-25T12:49:39Z</time>
      </trkpt>
      <trkpt lat="59.0724778175354" lon="30.027823448181152">
        <time>2026-04-25T12:49:42Z</time>
      </trkpt>
      <trkpt lat="59.0724778175354" lon="30.02788782119751">
        <time>2026-04-25T12:49:44Z</time>
      </trkpt>
      <trkpt lat="59.072456359863281" lon="30.027909278869629">
        <time>2026-04-25T12:49:47Z</time>
      </trkpt>
      <trkpt lat="59.072413444519043" lon="30.027930736541748">
        <time>2026-04-25T12:49:49Z</time>
      </trkpt>
      <trkpt lat="59.072370529174805" lon="30.027952194213867">
        <time>2026-04-25T12:49:52Z</time>
      </trkpt>
      <trkpt lat="59.072306156158447" lon="30.027973651885986">
        <time>2026-04-25T12:49:54Z</time>
      </trkpt>
      <trkpt lat="59.072263240814209" lon="30.028016567230225">
        <time>2026-04-25T12:49:57Z</time>
      </trkpt>
      <trkpt lat="59.072220325469971" lon="30.028059482574463">
        <time>2026-04-25T12:49:59Z</time>
      </trkpt>
      <trkpt lat="59.07224178314209" lon="30.028059482574463">
        <time>2026-04-25T12:50:02Z</time>
      </trkpt>
      <trkpt lat="59.072177410125732" lon="30.028016567230225">
        <time>2026-04-25T12:50:04Z</time>
      </trkpt>
      <trkpt lat="59.072155952453613" lon="30.027995109558105">
        <time>2026-04-25T12:50:07Z</time>
      </trkpt>
      <trkpt lat="59.072155952453613" lon="30.027995109558105">
        <time>2026-04-25T12:50:09Z</time>
      </trkpt>
      <trkpt lat="59.072155952453613" lon="30.027995109558105">
        <time>2026-04-25T12:50:12Z</time>
      </trkpt>
      <trkpt lat="59.072113037109375" lon="30.028016567230225">
        <time>2026-04-25T12:50:14Z</time>
      </trkpt>
      <trkpt lat="59.072048664093018" lon="30.028038024902344">
        <time>2026-04-25T12:50:17Z</time>
      </trkpt>
      <trkpt lat="59.071962833404541" lon="30.028038024902344">
        <time>2026-04-25T12:50:19Z</time>
      </trkpt>
      <trkpt lat="59.07198429107666" lon="30.028038024902344">
        <time>2026-04-25T12:50:22Z</time>
      </trkpt>
      <trkpt lat="59.072048664093018" lon="30.028038024902344">
        <time>2026-04-25T12:50:24Z</time>
      </trkpt>
      <trkpt lat="59.072113037109375" lon="30.028016567230225">
        <time>2026-04-25T12:50:27Z</time>
      </trkpt>
      <trkpt lat="59.072198867797852" lon="30.028059482574463">
        <time>2026-04-25T12:50:29Z</time>
      </trkpt>
      <trkpt lat="59.072155952453613" lon="30.028080940246582">
        <time>2026-04-25T12:50:32Z</time>
      </trkpt>
      <trkpt lat="59.072091579437256" lon="30.028059482574463">
        <time>2026-04-25T12:50:34Z</time>
      </trkpt>
      <trkpt lat="59.072048664093018" lon="30.028038024902344">
        <time>2026-04-25T12:50:37Z</time>
      </trkpt>
      <trkpt lat="59.071962833404541" lon="30.028102397918701">
        <time>2026-04-25T12:50:39Z</time>
      </trkpt>
      <trkpt lat="59.071898460388184" lon="30.028145313262939">
        <time>2026-04-25T12:50:42Z</time>
      </trkpt>
      <trkpt lat="59.071855545043945" lon="30.02812385559082">
        <time>2026-04-25T12:50:44Z</time>
      </trkpt>
      <trkpt lat="59.071834087371826" lon="30.028102397918701">
        <time>2026-04-25T12:50:47Z</time>
      </trkpt>
      <trkpt lat="59.071812629699707" lon="30.028080940246582">
        <time>2026-04-25T12:50:49Z</time>
      </trkpt>
      <trkpt lat="59.071769714355469" lon="30.028080940246582">
        <time>2026-04-25T12:50:52Z</time>
      </trkpt>
      <trkpt lat="59.071791172027588" lon="30.028080940246582">
        <time>2026-04-25T12:50:54Z</time>
      </trkpt>
      <trkpt lat="59.071812629699707" lon="30.028102397918701">
        <time>2026-04-25T12:50:57Z</time>
      </trkpt>
      <trkpt lat="59.07172679901123" lon="30.02812385559082">
        <time>2026-04-25T12:50:59Z</time>
      </trkpt>
      <trkpt lat="59.071640968322754" lon="30.028145313262939">
        <time>2026-04-25T12:51:02Z</time>
      </trkpt>
      <trkpt lat="59.071619510650635" lon="30.02812385559082">
        <time>2026-04-25T12:51:04Z</time>
      </trkpt>
      <trkpt lat="59.071640968322754" lon="30.028059482574463">
        <time>2026-04-25T12:51:07Z</time>
      </trkpt>
      <trkpt lat="59.071640968322754" lon="30.028059482574463">
        <time>2026-04-25T12:51:09Z</time>
      </trkpt>
      <trkpt lat="59.071640968322754" lon="30.028102397918701">
        <time>2026-04-25T12:51:12Z</time>
      </trkpt>
      <trkpt lat="59.071640968322754" lon="30.028102397918701">
        <time>2026-04-25T12:51:14Z</time>
      </trkpt>
      <trkpt lat="59.071640968322754" lon="30.028102397918701">
        <time>2026-04-25T12:51:17Z</time>
      </trkpt>
      <trkpt lat="59.071640968322754" lon="30.028102397918701">
        <time>2026-04-25T12:51:19Z</time>
      </trkpt>
      <trkpt lat="59.071640968322754" lon="30.028102397918701">
        <time>2026-04-25T12:51:22Z</time>
      </trkpt>
      <trkpt lat="59.071619510650635" lon="30.02812385559082">
        <time>2026-04-25T12:51:24Z</time>
      </trkpt>
      <trkpt lat="59.071619510650635" lon="30.02812385559082">
        <time>2026-04-25T12:51:27Z</time>
      </trkpt>
      <trkpt lat="59.071619510650635" lon="30.02812385559082">
        <time>2026-04-25T12:51:29Z</time>
      </trkpt>
      <trkpt lat="59.071619510650635" lon="30.02812385559082">
        <time>2026-04-25T12:51:32Z</time>
      </trkpt>
      <trkpt lat="59.071619510650635" lon="30.02812385559082">
        <time>2026-04-25T12:51:34Z</time>
      </trkpt>
      <trkpt lat="59.071619510650635" lon="30.02812385559082">
        <time>2026-04-25T12:51:37Z</time>
      </trkpt>
      <trkpt lat="59.071619510650635" lon="30.02812385559082">
        <time>2026-04-25T12:51:39Z</time>
      </trkpt>
      <trkpt lat="59.071619510650635" lon="30.02812385559082">
        <time>2026-04-25T12:51:42Z</time>
      </trkpt>
      <trkpt lat="59.071619510650635" lon="30.02812385559082">
        <time>2026-04-25T12:51:44Z</time>
      </trkpt>
      <trkpt lat="59.071619510650635" lon="30.02812385559082">
        <time>2026-04-25T12:51:47Z</time>
      </trkpt>
      <trkpt lat="59.071619510650635" lon="30.02812385559082">
        <time>2026-04-25T12:51:49Z</time>
      </trkpt>
      <trkpt lat="59.071619510650635" lon="30.02812385559082">
        <time>2026-04-25T12:51:52Z</time>
      </trkpt>
      <trkpt lat="59.071619510650635" lon="30.02812385559082">
        <time>2026-04-25T12:51:54Z</time>
      </trkpt>
      <trkpt lat="59.071619510650635" lon="30.02812385559082">
        <time>2026-04-25T12:51:57Z</time>
      </trkpt>
      <trkpt lat="59.071619510650635" lon="30.02812385559082">
        <time>2026-04-25T12:51:59Z</time>
      </trkpt>
      <trkpt lat="59.071619510650635" lon="30.02812385559082">
        <time>2026-04-25T12:52:02Z</time>
      </trkpt>
      <trkpt lat="59.071640968322754" lon="30.02812385559082">
        <time>2026-04-25T12:52:04Z</time>
      </trkpt>
      <trkpt lat="59.071619510650635" lon="30.028145313262939">
        <time>2026-04-25T12:52:07Z</time>
      </trkpt>
      <trkpt lat="59.071576595306396" lon="30.028145313262939">
        <time>2026-04-25T12:52:09Z</time>
      </trkpt>
      <trkpt lat="59.071555137634277" lon="30.02812385559082">
        <time>2026-04-25T12:52:12Z</time>
      </trkpt>
      <trkpt lat="59.071533679962158" lon="30.02812385559082">
        <time>2026-04-25T12:52:14Z</time>
      </trkpt>
      <trkpt lat="59.071533679962158" lon="30.028166770935059">
        <time>2026-04-25T12:52:17Z</time>
      </trkpt>
      <trkpt lat="59.071469306945801" lon="30.028231143951416">
        <time>2026-04-25T12:52:19Z</time>
      </trkpt>
      <trkpt lat="59.071447849273682" lon="30.028252601623535">
        <time>2026-04-25T12:52:22Z</time>
      </trkpt>
      <trkpt lat="59.071404933929443" lon="30.028209686279297">
        <time>2026-04-25T12:52:24Z</time>
      </trkpt>
      <trkpt lat="59.071383476257324" lon="30.028231143951416">
        <time>2026-04-25T12:52:27Z</time>
      </trkpt>
      <trkpt lat="59.071319103240967" lon="30.028209686279297">
        <time>2026-04-25T12:52:29Z</time>
      </trkpt>
      <trkpt lat="59.071319103240967" lon="30.028209686279297">
        <time>2026-04-25T12:52:32Z</time>
      </trkpt>
      <trkpt lat="59.071319103240967" lon="30.028231143951416">
        <time>2026-04-25T12:52:34Z</time>
      </trkpt>
      <trkpt lat="59.071276187896729" lon="30.028252601623535">
        <time>2026-04-25T12:52:37Z</time>
      </trkpt>
      <trkpt lat="59.071211814880371" lon="30.028316974639893">
        <time>2026-04-25T12:52:39Z</time>
      </trkpt>
      <trkpt lat="59.071147441864014" lon="30.028338432312012">
        <time>2026-04-25T12:52:42Z</time>
      </trkpt>
      <trkpt lat="59.071104526519775" lon="30.028359889984131">
        <time>2026-04-25T12:52:44Z</time>
      </trkpt>
      <trkpt lat="59.071061611175537" lon="30.028359889984131">
        <time>2026-04-25T12:52:47Z</time>
      </trkpt>
      <trkpt lat="59.071040153503418" lon="30.02838134765625">
        <time>2026-04-25T12:52:49Z</time>
      </trkpt>
      <trkpt lat="59.070975780487061" lon="30.028402805328369">
        <time>2026-04-25T12:52:52Z</time>
      </trkpt>
      <trkpt lat="59.070954322814941" lon="30.028402805328369">
        <time>2026-04-25T12:52:54Z</time>
      </trkpt>
      <trkpt lat="59.07099723815918" lon="30.028338432312012">
        <time>2026-04-25T12:52:57Z</time>
      </trkpt>
      <trkpt lat="59.070975780487061" lon="30.028252601623535">
        <time>2026-04-25T12:52:59Z</time>
      </trkpt>
      <trkpt lat="59.070954322814941" lon="30.028295516967773">
        <time>2026-04-25T12:53:02Z</time>
      </trkpt>
      <trkpt lat="59.070954322814941" lon="30.028359889984131">
        <time>2026-04-25T12:53:04Z</time>
      </trkpt>
      <trkpt lat="59.070889949798584" lon="30.028402805328369">
        <time>2026-04-25T12:53:07Z</time>
      </trkpt>
      <trkpt lat="59.070761203765869" lon="30.028445720672607">
        <time>2026-04-25T12:53:09Z</time>
      </trkpt>
      <trkpt lat="59.070675373077393" lon="30.028488636016846">
        <time>2026-04-25T12:53:12Z</time>
      </trkpt>
      <trkpt lat="59.070632457733154" lon="30.028510093688965">
        <time>2026-04-25T12:53:14Z</time>
      </trkpt>
      <trkpt lat="59.070632457733154" lon="30.028531551361084">
        <time>2026-04-25T12:53:17Z</time>
      </trkpt>
      <trkpt lat="59.070589542388916" lon="30.028531551361084">
        <time>2026-04-25T12:53:19Z</time>
      </trkpt>
      <trkpt lat="59.070503711700439" lon="30.028574466705322">
        <time>2026-04-25T12:53:22Z</time>
      </trkpt>
      <trkpt lat="59.07048225402832" lon="30.028595924377441">
        <time>2026-04-25T12:53:24Z</time>
      </trkpt>
      <trkpt lat="59.070525169372559" lon="30.028553009033203">
        <time>2026-04-25T12:53:27Z</time>
      </trkpt>
      <trkpt lat="59.070525169372559" lon="30.028445720672607">
        <time>2026-04-25T12:53:29Z</time>
      </trkpt>
      <trkpt lat="59.070525169372559" lon="30.028424263000488">
        <time>2026-04-25T12:53:32Z</time>
      </trkpt>
      <trkpt lat="59.07048225402832" lon="30.028531551361084">
        <time>2026-04-25T12:53:34Z</time>
      </trkpt>
      <trkpt lat="59.070439338684082" lon="30.028574466705322">
        <time>2026-04-25T12:53:37Z</time>
      </trkpt>
      <trkpt lat="59.070289134979248" lon="30.028617382049561">
        <time>2026-04-25T12:53:39Z</time>
      </trkpt>
      <trkpt lat="59.07024621963501" lon="30.02863883972168">
        <time>2026-04-25T12:53:42Z</time>
      </trkpt>
      <trkpt lat="59.070332050323486" lon="30.02863883972168">
        <time>2026-04-25T12:53:44Z</time>
      </trkpt>
      <trkpt lat="59.070417881011963" lon="30.028595924377441">
        <time>2026-04-25T12:53:47Z</time>
      </trkpt>
      <trkpt lat="59.070396423339844" lon="30.028574466705322">
        <time>2026-04-25T12:53:49Z</time>
      </trkpt>
      <trkpt lat="59.070289134979248" lon="30.028617382049561">
        <time>2026-04-25T12:53:52Z</time>
      </trkpt>
      <trkpt lat="59.070096015930176" lon="30.028681755065918">
        <time>2026-04-25T12:53:54Z</time>
      </trkpt>
      <trkpt lat="59.070010185241699" lon="30.028724670410156">
        <time>2026-04-25T12:53:57Z</time>
      </trkpt>
      <trkpt lat="59.070053100585938" lon="30.028724670410156">
        <time>2026-04-25T12:53:59Z</time>
      </trkpt>
      <trkpt lat="59.070138931274414" lon="30.028660297393799">
        <time>2026-04-25T12:54:02Z</time>
      </trkpt>
      <trkpt lat="59.070203304290771" lon="30.02863883972168">
        <time>2026-04-25T12:54:04Z</time>
      </trkpt>
      <trkpt lat="59.070138931274414" lon="30.028660297393799">
        <time>2026-04-25T12:54:07Z</time>
      </trkpt>
      <trkpt lat="59.069967269897461" lon="30.028703212738037">
        <time>2026-04-25T12:54:09Z</time>
      </trkpt>
      <trkpt lat="59.069902896881104" lon="30.028681755065918">
        <time>2026-04-25T12:54:12Z</time>
      </trkpt>
      <trkpt lat="59.069924354553223" lon="30.028724670410156">
        <time>2026-04-25T12:54:14Z</time>
      </trkpt>
      <trkpt lat="59.06998872756958" lon="30.028703212738037">
        <time>2026-04-25T12:54:17Z</time>
      </trkpt>
      <trkpt lat="59.070053100585938" lon="30.028681755065918">
        <time>2026-04-25T12:54:19Z</time>
      </trkpt>
      <trkpt lat="59.070053100585938" lon="30.028681755065918">
        <time>2026-04-25T12:54:22Z</time>
      </trkpt>
      <trkpt lat="59.069967269897461" lon="30.028703212738037">
        <time>2026-04-25T12:54:24Z</time>
      </trkpt>
      <trkpt lat="59.069881439208984" lon="30.028746128082275">
        <time>2026-04-25T12:54:27Z</time>
      </trkpt>
      <trkpt lat="59.069838523864746" lon="30.028810501098633">
        <time>2026-04-25T12:54:29Z</time>
      </trkpt>
      <trkpt lat="59.069774150848389" lon="30.028810501098633">
        <time>2026-04-25T12:54:32Z</time>
      </trkpt>
      <trkpt lat="59.06975269317627" lon="30.028767585754395">
        <time>2026-04-25T12:54:34Z</time>
      </trkpt>
      <trkpt lat="59.06975269317627" lon="30.028789043426514">
        <time>2026-04-25T12:54:37Z</time>
      </trkpt>
      <trkpt lat="59.069795608520508" lon="30.028810501098633">
        <time>2026-04-25T12:54:39Z</time>
      </trkpt>
      <trkpt lat="59.069795608520508" lon="30.028767585754395">
        <time>2026-04-25T12:54:42Z</time>
      </trkpt>
      <trkpt lat="59.069774150848389" lon="30.028681755065918">
        <time>2026-04-25T12:54:44Z</time>
      </trkpt>
      <trkpt lat="59.06975269317627" lon="30.028681755065918">
        <time>2026-04-25T12:54:47Z</time>
      </trkpt>
      <trkpt lat="59.06975269317627" lon="30.028660297393799">
        <time>2026-04-25T12:54:49Z</time>
      </trkpt>
      <trkpt lat="59.06973123550415" lon="30.028681755065918">
        <time>2026-04-25T12:54:52Z</time>
      </trkpt>
      <trkpt lat="59.069688320159912" lon="30.028681755065918">
        <time>2026-04-25T12:54:54Z</time>
      </trkpt>
      <trkpt lat="59.069709777832031" lon="30.028681755065918">
        <time>2026-04-25T12:54:57Z</time>
      </trkpt>
      <trkpt lat="59.069795608520508" lon="30.028703212738037">
        <time>2026-04-25T12:54:59Z</time>
      </trkpt>
      <trkpt lat="59.069817066192627" lon="30.028767585754395">
        <time>2026-04-25T12:55:02Z</time>
      </trkpt>
      <trkpt lat="59.06975269317627" lon="30.02887487411499">
        <time>2026-04-25T12:55:04Z</time>
      </trkpt>
      <trkpt lat="59.06973123550415" lon="30.028810501098633">
        <time>2026-04-25T12:55:07Z</time>
      </trkpt>
      <trkpt lat="59.069645404815674" lon="30.028831958770752">
        <time>2026-04-25T12:55:09Z</time>
      </trkpt>
      <trkpt lat="59.069581031799316" lon="30.028853416442871">
        <time>2026-04-25T12:55:12Z</time>
      </trkpt>
      <trkpt lat="59.069452285766602" lon="30.028917789459229">
        <time>2026-04-25T12:55:14Z</time>
      </trkpt>
      <trkpt lat="59.069409370422363" lon="30.028939247131348">
        <time>2026-04-25T12:55:17Z</time>
      </trkpt>
      <trkpt lat="59.069387912750244" lon="30.028939247131348">
        <time>2026-04-25T12:55:19Z</time>
      </trkpt>
      <trkpt lat="59.069302082061768" lon="30.028982162475586">
        <time>2026-04-25T12:55:22Z</time>
      </trkpt>
      <trkpt lat="59.069173336029053" lon="30.029025077819824">
        <time>2026-04-25T12:55:24Z</time>
      </trkpt>
      <trkpt lat="59.069130420684814" lon="30.029046535491943">
        <time>2026-04-25T12:55:27Z</time>
      </trkpt>
      <trkpt lat="59.069108963012695" lon="30.029046535491943">
        <time>2026-04-25T12:55:29Z</time>
      </trkpt>
      <trkpt lat="59.069130420684814" lon="30.029046535491943">
        <time>2026-04-25T12:55:32Z</time>
      </trkpt>
      <trkpt lat="59.069194793701172" lon="30.028982162475586">
        <time>2026-04-25T12:55:34Z</time>
      </trkpt>
      <trkpt lat="59.069194793701172" lon="30.028982162475586">
        <time>2026-04-25T12:55:37Z</time>
      </trkpt>
      <trkpt lat="59.069151878356934" lon="30.029025077819824">
        <time>2026-04-25T12:55:39Z</time>
      </trkpt>
      <trkpt lat="59.069066047668457" lon="30.029046535491943">
        <time>2026-04-25T12:55:42Z</time>
      </trkpt>
      <trkpt lat="59.068915843963623" lon="30.029089450836182">
        <time>2026-04-25T12:55:44Z</time>
      </trkpt>
      <trkpt lat="59.068830013275146" lon="30.02913236618042">
        <time>2026-04-25T12:55:47Z</time>
      </trkpt>
      <trkpt lat="59.068830013275146" lon="30.029110908508301">
        <time>2026-04-25T12:55:49Z</time>
      </trkpt>
      <trkpt lat="59.068915843963623" lon="30.029046535491943">
        <time>2026-04-25T12:55:52Z</time>
      </trkpt>
      <trkpt lat="59.0690016746521" lon="30.029003620147705">
        <time>2026-04-25T12:55:54Z</time>
      </trkpt>
      <trkpt lat="59.0690016746521" lon="30.029025077819824">
        <time>2026-04-25T12:55:57Z</time>
      </trkpt>
      <trkpt lat="59.068830013275146" lon="30.029110908508301">
        <time>2026-04-25T12:55:59Z</time>
      </trkpt>
      <trkpt lat="59.068722724914551" lon="30.029153823852539">
        <time>2026-04-25T12:56:02Z</time>
      </trkpt>
      <trkpt lat="59.068572521209717" lon="30.029239654541016">
        <time>2026-04-25T12:56:04Z</time>
      </trkpt>
      <trkpt lat="59.06848669052124" lon="30.029261112213135">
        <time>2026-04-25T12:56:07Z</time>
      </trkpt>
      <trkpt lat="59.068465232849121" lon="30.029261112213135">
        <time>2026-04-25T12:56:09Z</time>
      </trkpt>
      <trkpt lat="59.068529605865479" lon="30.029218196868896">
        <time>2026-04-25T12:56:12Z</time>
      </trkpt>
      <trkpt lat="59.068636894226074" lon="30.02913236618042">
        <time>2026-04-25T12:56:14Z</time>
      </trkpt>
      <trkpt lat="59.068701267242432" lon="30.029110908508301">
        <time>2026-04-25T12:56:17Z</time>
      </trkpt>
      <trkpt lat="59.068722724914551" lon="30.029089450836182">
        <time>2026-04-25T12:56:19Z</time>
      </trkpt>
      <trkpt lat="59.068636894226074" lon="30.029153823852539">
        <time>2026-04-25T12:56:22Z</time>
      </trkpt>
      <trkpt lat="59.068443775177002" lon="30.029239654541016">
        <time>2026-04-25T12:56:24Z</time>
      </trkpt>
      <trkpt lat="59.068357944488525" lon="30.029261112213135">
        <time>2026-04-25T12:56:27Z</time>
      </trkpt>
      <trkpt lat="59.068336486816406" lon="30.029261112213135">
        <time>2026-04-25T12:56:29Z</time>
      </trkpt>
      <trkpt lat="59.068400859832764" lon="30.029261112213135">
        <time>2026-04-25T12:56:32Z</time>
      </trkpt>
      <trkpt lat="59.068443775177002" lon="30.029218196868896">
        <time>2026-04-25T12:56:34Z</time>
      </trkpt>
      <trkpt lat="59.068422317504883" lon="30.029218196868896">
        <time>2026-04-25T12:56:37Z</time>
      </trkpt>
      <trkpt lat="59.068422317504883" lon="30.029218196868896">
        <time>2026-04-25T12:56:39Z</time>
      </trkpt>
      <trkpt lat="59.068422317504883" lon="30.029218196868896">
        <time>2026-04-25T12:56:42Z</time>
      </trkpt>
      <trkpt lat="59.068422317504883" lon="30.029239654541016">
        <time>2026-04-25T12:56:44Z</time>
      </trkpt>
      <trkpt lat="59.068422317504883" lon="30.029239654541016">
        <time>2026-04-25T12:56:47Z</time>
      </trkpt>
      <trkpt lat="59.068400859832764" lon="30.029239654541016">
        <time>2026-04-25T12:56:49Z</time>
      </trkpt>
      <trkpt lat="59.068379402160645" lon="30.029261112213135">
        <time>2026-04-25T12:56:52Z</time>
      </trkpt>
      <trkpt lat="59.068336486816406" lon="30.029282569885254">
        <time>2026-04-25T12:56:54Z</time>
      </trkpt>
      <trkpt lat="59.068336486816406" lon="30.029304027557373">
        <time>2026-04-25T12:56:57Z</time>
      </trkpt>
      <trkpt lat="59.068357944488525" lon="30.029282569885254">
        <time>2026-04-25T12:56:59Z</time>
      </trkpt>
      <trkpt lat="59.068336486816406" lon="30.029282569885254">
        <time>2026-04-25T12:57:02Z</time>
      </trkpt>
      <trkpt lat="59.068272113800049" lon="30.029282569885254">
        <time>2026-04-25T12:57:04Z</time>
      </trkpt>
      <trkpt lat="59.068229198455811" lon="30.029304027557373">
        <time>2026-04-25T12:57:07Z</time>
      </trkpt>
      <trkpt lat="59.068186283111572" lon="30.029304027557373">
        <time>2026-04-25T12:57:09Z</time>
      </trkpt>
      <trkpt lat="59.068186283111572" lon="30.029325485229492">
        <time>2026-04-25T12:57:12Z</time>
      </trkpt>
      <trkpt lat="59.068143367767334" lon="30.029304027557373">
        <time>2026-04-25T12:57:14Z</time>
      </trkpt>
      <trkpt lat="59.068100452423096" lon="30.029282569885254">
        <time>2026-04-25T12:57:17Z</time>
      </trkpt>
      <trkpt lat="59.068121910095215" lon="30.029325485229492">
        <time>2026-04-25T12:57:19Z</time>
      </trkpt>
      <trkpt lat="59.068121910095215" lon="30.029304027557373">
        <time>2026-04-25T12:57:22Z</time>
      </trkpt>
      <trkpt lat="59.068121910095215" lon="30.029282569885254">
        <time>2026-04-25T12:57:24Z</time>
      </trkpt>
      <trkpt lat="59.068121910095215" lon="30.029325485229492">
        <time>2026-04-25T12:57:27Z</time>
      </trkpt>
      <trkpt lat="59.068057537078857" lon="30.02938985824585">
        <time>2026-04-25T12:57:29Z</time>
      </trkpt>
      <trkpt lat="59.068014621734619" lon="30.02938985824585">
        <time>2026-04-25T12:57:32Z</time>
      </trkpt>
      <trkpt lat="59.067950248718262" lon="30.02938985824585">
        <time>2026-04-25T12:57:34Z</time>
      </trkpt>
      <trkpt lat="59.067928791046143" lon="30.029411315917969">
        <time>2026-04-25T12:57:37Z</time>
      </trkpt>
      <trkpt lat="59.067907333374023" lon="30.029454231262207">
        <time>2026-04-25T12:57:39Z</time>
      </trkpt>
      <trkpt lat="59.067864418029785" lon="30.029475688934326">
        <time>2026-04-25T12:57:42Z</time>
      </trkpt>
      <trkpt lat="59.067821502685547" lon="30.029475688934326">
        <time>2026-04-25T12:57:44Z</time>
      </trkpt>
      <trkpt lat="59.067821502685547" lon="30.029475688934326">
        <time>2026-04-25T12:57:47Z</time>
      </trkpt>
      <trkpt lat="59.067800045013428" lon="30.029411315917969">
        <time>2026-04-25T12:57:49Z</time>
      </trkpt>
      <trkpt lat="59.067757129669189" lon="30.02936840057373">
        <time>2026-04-25T12:57:52Z</time>
      </trkpt>
      <trkpt lat="59.067778587341309" lon="30.02938985824585">
        <time>2026-04-25T12:57:54Z</time>
      </trkpt>
      <trkpt lat="59.067821502685547" lon="30.029411315917969">
        <time>2026-04-25T12:57:57Z</time>
      </trkpt>
      <trkpt lat="59.067778587341309" lon="30.029475688934326">
        <time>2026-04-25T12:57:59Z</time>
      </trkpt>
      <trkpt lat="59.06773567199707" lon="30.029518604278564">
        <time>2026-04-25T12:58:02Z</time>
      </trkpt>
      <trkpt lat="59.067671298980713" lon="30.029518604278564">
        <time>2026-04-25T12:58:04Z</time>
      </trkpt>
      <trkpt lat="59.067628383636475" lon="30.029497146606445">
        <time>2026-04-25T12:58:07Z</time>
      </trkpt>
      <trkpt lat="59.067628383636475" lon="30.029454231262207">
        <time>2026-04-25T12:58:09Z</time>
      </trkpt>
      <trkpt lat="59.067628383636475" lon="30.029411315917969">
        <time>2026-04-25T12:58:12Z</time>
      </trkpt>
      <trkpt lat="59.067628383636475" lon="30.029411315917969">
        <time>2026-04-25T12:58:14Z</time>
      </trkpt>
      <trkpt lat="59.067628383636475" lon="30.029411315917969">
        <time>2026-04-25T12:58:17Z</time>
      </trkpt>
      <trkpt lat="59.067606925964355" lon="30.029454231262207">
        <time>2026-04-25T12:58:19Z</time>
      </trkpt>
      <trkpt lat="59.067564010620117" lon="30.029475688934326">
        <time>2026-04-25T12:58:22Z</time>
      </trkpt>
      <trkpt lat="59.067521095275879" lon="30.029497146606445">
        <time>2026-04-25T12:58:24Z</time>
      </trkpt>
      <trkpt lat="59.067456722259521" lon="30.029540061950684">
        <time>2026-04-25T12:58:27Z</time>
      </trkpt>
      <trkpt lat="59.067413806915283" lon="30.029582977294922">
        <time>2026-04-25T12:58:29Z</time>
      </trkpt>
      <trkpt lat="59.067370891571045" lon="30.029582977294922">
        <time>2026-04-25T12:58:32Z</time>
      </trkpt>
      <trkpt lat="59.067285060882568" lon="30.029604434967041">
        <time>2026-04-25T12:58:34Z</time>
      </trkpt>
      <trkpt lat="59.06724214553833" lon="30.029582977294922">
        <time>2026-04-25T12:58:37Z</time>
      </trkpt>
      <trkpt lat="59.06724214553833" lon="30.029540061950684">
        <time>2026-04-25T12:58:39Z</time>
      </trkpt>
      <trkpt lat="59.067263603210449" lon="30.029582977294922">
        <time>2026-04-25T12:58:42Z</time>
      </trkpt>
      <trkpt lat="59.067263603210449" lon="30.029604434967041">
        <time>2026-04-25T12:58:44Z</time>
      </trkpt>
      <trkpt lat="59.067263603210449" lon="30.029604434967041">
        <time>2026-04-25T12:58:47Z</time>
      </trkpt>
      <trkpt lat="59.067220687866211" lon="30.029647350311279">
        <time>2026-04-25T12:58:49Z</time>
      </trkpt>
      <trkpt lat="59.067177772521973" lon="30.02962589263916">
        <time>2026-04-25T12:58:52Z</time>
      </trkpt>
      <trkpt lat="59.067156314849854" lon="30.02962589263916">
        <time>2026-04-25T12:58:54Z</time>
      </trkpt>
      <trkpt lat="59.067134857177734" lon="30.029582977294922">
        <time>2026-04-25T12:58:57Z</time>
      </trkpt>
      <trkpt lat="59.067134857177734" lon="30.029582977294922">
        <time>2026-04-25T12:58:59Z</time>
      </trkpt>
      <trkpt lat="59.067134857177734" lon="30.029561519622803">
        <time>2026-04-25T12:59:02Z</time>
      </trkpt>
      <trkpt lat="59.067113399505615" lon="30.029604434967041">
        <time>2026-04-25T12:59:04Z</time>
      </trkpt>
      <trkpt lat="59.067091941833496" lon="30.02962589263916">
        <time>2026-04-25T12:59:07Z</time>
      </trkpt>
      <trkpt lat="59.067070484161377" lon="30.029690265655518">
        <time>2026-04-25T12:59:09Z</time>
      </trkpt>
      <trkpt lat="59.067049026489258" lon="30.029711723327637">
        <time>2026-04-25T12:59:12Z</time>
      </trkpt>
      <trkpt lat="59.0669846534729" lon="30.029733180999756">
        <time>2026-04-25T12:59:14Z</time>
      </trkpt>
      <trkpt lat="59.0669846534729" lon="30.029711723327637">
        <time>2026-04-25T12:59:17Z</time>
      </trkpt>
      <trkpt lat="59.0669846534729" lon="30.029711723327637">
        <time>2026-04-25T12:59:19Z</time>
      </trkpt>
      <trkpt lat="59.066963195800781" lon="30.029711723327637">
        <time>2026-04-25T12:59:22Z</time>
      </trkpt>
      <trkpt lat="59.066963195800781" lon="30.029711723327637">
        <time>2026-04-25T12:59:24Z</time>
      </trkpt>
      <trkpt lat="59.066941738128662" lon="30.029711723327637">
        <time>2026-04-25T12:59:27Z</time>
      </trkpt>
      <trkpt lat="59.066898822784424" lon="30.029776096343994">
        <time>2026-04-25T12:59:29Z</time>
      </trkpt>
      <trkpt lat="59.066877365112305" lon="30.029797554016113">
        <time>2026-04-25T12:59:32Z</time>
      </trkpt>
      <trkpt lat="59.066812992095947" lon="30.029840469360352">
        <time>2026-04-25T12:59:34Z</time>
      </trkpt>
      <trkpt lat="59.066791534423828" lon="30.029861927032471">
        <time>2026-04-25T12:59:37Z</time>
      </trkpt>
      <trkpt lat="59.066770076751709" lon="30.029904842376709">
        <time>2026-04-25T12:59:39Z</time>
      </trkpt>
      <trkpt lat="59.06674861907959" lon="30.029904842376709">
        <time>2026-04-25T12:59:42Z</time>
      </trkpt>
      <trkpt lat="59.066727161407471" lon="30.029904842376709">
        <time>2026-04-25T12:59:44Z</time>
      </trkpt>
      <trkpt lat="59.066727161407471" lon="30.029904842376709">
        <time>2026-04-25T12:59:47Z</time>
      </trkpt>
      <trkpt lat="59.066727161407471" lon="30.029904842376709">
        <time>2026-04-25T12:59:49Z</time>
      </trkpt>
      <trkpt lat="59.066727161407471" lon="30.029904842376709">
        <time>2026-04-25T12:59:52Z</time>
      </trkpt>
      <trkpt lat="59.066705703735352" lon="30.029904842376709">
        <time>2026-04-25T12:59:54Z</time>
      </trkpt>
      <trkpt lat="59.066684246063232" lon="30.02988338470459">
        <time>2026-04-25T12:59:57Z</time>
      </trkpt>
      <trkpt lat="59.066641330718994" lon="30.02988338470459">
        <time>2026-04-25T13:00:02Z</time>
      </trkpt>
      <trkpt lat="59.066619873046875" lon="30.02988338470459">
        <time>2026-04-25T13:00:04Z</time>
      </trkpt>
      <trkpt lat="59.066619873046875" lon="30.02988338470459">
        <time>2026-04-25T13:00:07Z</time>
      </trkpt>
      <trkpt lat="59.066576957702637" lon="30.02988338470459">
        <time>2026-04-25T13:00:09Z</time>
      </trkpt>
      <trkpt lat="59.066534042358398" lon="30.029904842376709">
        <time>2026-04-25T13:00:12Z</time>
      </trkpt>
      <trkpt lat="59.066512584686279" lon="30.029904842376709">
        <time>2026-04-25T13:00:14Z</time>
      </trkpt>
      <trkpt lat="59.066534042358398" lon="30.02988338470459">
        <time>2026-04-25T13:00:17Z</time>
      </trkpt>
      <trkpt lat="59.06649112701416" lon="30.02988338470459">
        <time>2026-04-25T13:00:19Z</time>
      </trkpt>
      <trkpt lat="59.066448211669922" lon="30.029904842376709">
        <time>2026-04-25T13:00:22Z</time>
      </trkpt>
      <trkpt lat="59.066405296325684" lon="30.029926300048828">
        <time>2026-04-25T13:00:24Z</time>
      </trkpt>
      <trkpt lat="59.066405296325684" lon="30.029904842376709">
        <time>2026-04-25T13:00:27Z</time>
      </trkpt>
      <trkpt lat="59.066405296325684" lon="30.02988338470459">
        <time>2026-04-25T13:00:29Z</time>
      </trkpt>
      <trkpt lat="59.066405296325684" lon="30.029861927032471">
        <time>2026-04-25T13:00:32Z</time>
      </trkpt>
      <trkpt lat="59.066405296325684" lon="30.029861927032471">
        <time>2026-04-25T13:00:34Z</time>
      </trkpt>
      <trkpt lat="59.066405296325684" lon="30.029861927032471">
        <time>2026-04-25T13:00:37Z</time>
      </trkpt>
      <trkpt lat="59.066362380981445" lon="30.02988338470459">
        <time>2026-04-25T13:00:39Z</time>
      </trkpt>
      <trkpt lat="59.066362380981445" lon="30.029904842376709">
        <time>2026-04-25T13:00:42Z</time>
      </trkpt>
      <trkpt lat="59.066362380981445" lon="30.029947757720947">
        <time>2026-04-25T13:00:44Z</time>
      </trkpt>
      <trkpt lat="59.066340923309326" lon="30.029990673065186">
        <time>2026-04-25T13:00:47Z</time>
      </trkpt>
      <trkpt lat="59.066319465637207" lon="30.030033588409424">
        <time>2026-04-25T13:00:49Z</time>
      </trkpt>
      <trkpt lat="59.066319465637207" lon="30.030033588409424">
        <time>2026-04-25T13:00:52Z</time>
      </trkpt>
      <trkpt lat="59.066319465637207" lon="30.030033588409424">
        <time>2026-04-25T13:00:54Z</time>
      </trkpt>
      <trkpt lat="59.066319465637207" lon="30.030033588409424">
        <time>2026-04-25T13:00:57Z</time>
      </trkpt>
      <trkpt lat="59.066298007965088" lon="30.030033588409424">
        <time>2026-04-25T13:00:59Z</time>
      </trkpt>
      <trkpt lat="59.06625509262085" lon="30.030033588409424">
        <time>2026-04-25T13:01:02Z</time>
      </trkpt>
      <trkpt lat="59.06623363494873" lon="30.030033588409424">
        <time>2026-04-25T13:01:04Z</time>
      </trkpt>
      <trkpt lat="59.066212177276611" lon="30.030033588409424">
        <time>2026-04-25T13:01:07Z</time>
      </trkpt>
      <trkpt lat="59.066212177276611" lon="30.030033588409424">
        <time>2026-04-25T13:01:09Z</time>
      </trkpt>
      <trkpt lat="59.066190719604492" lon="30.029990673065186">
        <time>2026-04-25T13:01:12Z</time>
      </trkpt>
      <trkpt lat="59.066147804260254" lon="30.030033588409424">
        <time>2026-04-25T13:01:14Z</time>
      </trkpt>
      <trkpt lat="59.066126346588135" lon="30.030033588409424">
        <time>2026-04-25T13:01:17Z</time>
      </trkpt>
      <trkpt lat="59.066126346588135" lon="30.030033588409424">
        <time>2026-04-25T13:01:19Z</time>
      </trkpt>
      <trkpt lat="59.066126346588135" lon="30.030033588409424">
        <time>2026-04-25T13:01:22Z</time>
      </trkpt>
      <trkpt lat="59.066126346588135" lon="30.030033588409424">
        <time>2026-04-25T13:01:24Z</time>
      </trkpt>
      <trkpt lat="59.066126346588135" lon="30.030033588409424">
        <time>2026-04-25T13:01:27Z</time>
      </trkpt>
      <trkpt lat="59.066126346588135" lon="30.030033588409424">
        <time>2026-04-25T13:01:29Z</time>
      </trkpt>
      <trkpt lat="59.066126346588135" lon="30.030033588409424">
        <time>2026-04-25T13:01:32Z</time>
      </trkpt>
      <trkpt lat="59.066126346588135" lon="30.030012130737305">
        <time>2026-04-25T13:01:34Z</time>
      </trkpt>
      <trkpt lat="59.066104888916016" lon="30.030033588409424">
        <time>2026-04-25T13:01:37Z</time>
      </trkpt>
      <trkpt lat="59.066104888916016" lon="30.030033588409424">
        <time>2026-04-25T13:01:39Z</time>
      </trkpt>
      <trkpt lat="59.066104888916016" lon="30.030055046081543">
        <time>2026-04-25T13:01:42Z</time>
      </trkpt>
      <trkpt lat="59.066083431243896" lon="30.030033588409424">
        <time>2026-04-25T13:01:44Z</time>
      </trkpt>
      <trkpt lat="59.066083431243896" lon="30.030033588409424">
        <time>2026-04-25T13:01:47Z</time>
      </trkpt>
      <trkpt lat="59.066061973571777" lon="30.030055046081543">
        <time>2026-04-25T13:01:49Z</time>
      </trkpt>
      <trkpt lat="59.066061973571777" lon="30.030055046081543">
        <time>2026-04-25T13:01:52Z</time>
      </trkpt>
      <trkpt lat="59.066040515899658" lon="30.030055046081543">
        <time>2026-04-25T13:01:54Z</time>
      </trkpt>
      <trkpt lat="59.066019058227539" lon="30.030076503753662">
        <time>2026-04-25T13:01:57Z</time>
      </trkpt>
      <trkpt lat="59.06599760055542" lon="30.030033588409424">
        <time>2026-04-25T13:01:59Z</time>
      </trkpt>
      <trkpt lat="59.06599760055542" lon="30.030012130737305">
        <time>2026-04-25T13:02:02Z</time>
      </trkpt>
      <trkpt lat="59.06599760055542" lon="30.030033588409424">
        <time>2026-04-25T13:02:04Z</time>
      </trkpt>
      <trkpt lat="59.065976142883301" lon="30.030055046081543">
        <time>2026-04-25T13:02:07Z</time>
      </trkpt>
      <trkpt lat="59.065933227539062" lon="30.030097961425781">
        <time>2026-04-25T13:02:09Z</time>
      </trkpt>
      <trkpt lat="59.065933227539062" lon="30.030076503753662">
        <time>2026-04-25T13:02:12Z</time>
      </trkpt>
      <trkpt lat="59.065933227539062" lon="30.030033588409424">
        <time>2026-04-25T13:02:14Z</time>
      </trkpt>
      <trkpt lat="59.065933227539062" lon="30.030033588409424">
        <time>2026-04-25T13:02:17Z</time>
      </trkpt>
      <trkpt lat="59.065933227539062" lon="30.030033588409424">
        <time>2026-04-25T13:02:19Z</time>
      </trkpt>
      <trkpt lat="59.065933227539062" lon="30.030033588409424">
        <time>2026-04-25T13:02:22Z</time>
      </trkpt>
      <trkpt lat="59.065933227539062" lon="30.030033588409424">
        <time>2026-04-25T13:02:24Z</time>
      </trkpt>
      <trkpt lat="59.065933227539062" lon="30.030033588409424">
        <time>2026-04-25T13:02:27Z</time>
      </trkpt>
      <trkpt lat="59.065933227539062" lon="30.030033588409424">
        <time>2026-04-25T13:02:29Z</time>
      </trkpt>
      <trkpt lat="59.065933227539062" lon="30.030033588409424">
        <time>2026-04-25T13:02:32Z</time>
      </trkpt>
      <trkpt lat="59.065933227539062" lon="30.030033588409424">
        <time>2026-04-25T13:02:34Z</time>
      </trkpt>
      <trkpt lat="59.065933227539062" lon="30.030055046081543">
        <time>2026-04-25T13:02:37Z</time>
      </trkpt>
      <trkpt lat="59.065933227539062" lon="30.030055046081543">
        <time>2026-04-25T13:02:39Z</time>
      </trkpt>
      <trkpt lat="59.065933227539062" lon="30.030055046081543">
        <time>2026-04-25T13:02:42Z</time>
      </trkpt>
      <trkpt lat="59.065933227539062" lon="30.030055046081543">
        <time>2026-04-25T13:02:44Z</time>
      </trkpt>
      <trkpt lat="59.065933227539062" lon="30.030055046081543">
        <time>2026-04-25T13:02:47Z</time>
      </trkpt>
      <trkpt lat="59.065933227539062" lon="30.030055046081543">
        <time>2026-04-25T13:02:49Z</time>
      </trkpt>
      <trkpt lat="59.065933227539062" lon="30.030055046081543">
        <time>2026-04-25T13:02:52Z</time>
      </trkpt>
      <trkpt lat="59.065933227539062" lon="30.030055046081543">
        <time>2026-04-25T13:02:54Z</time>
      </trkpt>
      <trkpt lat="59.065911769866943" lon="30.030055046081543">
        <time>2026-04-25T13:02:57Z</time>
      </trkpt>
      <trkpt lat="59.065933227539062" lon="30.030097961425781">
        <time>2026-04-25T13:02:59Z</time>
      </trkpt>
      <trkpt lat="59.06599760055542" lon="30.030097961425781">
        <time>2026-04-25T13:03:02Z</time>
      </trkpt>
      <trkpt lat="59.06599760055542" lon="30.030097961425781">
        <time>2026-04-25T13:03:04Z</time>
      </trkpt>
      <trkpt lat="59.065976142883301" lon="30.030097961425781">
        <time>2026-04-25T13:03:07Z</time>
      </trkpt>
      <trkpt lat="59.065954685211182" lon="30.030076503753662">
        <time>2026-04-25T13:03:09Z</time>
      </trkpt>
      <trkpt lat="59.065954685211182" lon="30.030076503753662">
        <time>2026-04-25T13:03:12Z</time>
      </trkpt>
      <trkpt lat="59.065954685211182" lon="30.030076503753662">
        <time>2026-04-25T13:03:14Z</time>
      </trkpt>
      <trkpt lat="59.065954685211182" lon="30.030076503753662">
        <time>2026-04-25T13:03:17Z</time>
      </trkpt>
      <trkpt lat="59.065933227539062" lon="30.030097961425781">
        <time>2026-04-25T13:03:19Z</time>
      </trkpt>
      <trkpt lat="59.065933227539062" lon="30.030097961425781">
        <time>2026-04-25T13:03:22Z</time>
      </trkpt>
      <trkpt lat="59.065933227539062" lon="30.030097961425781">
        <time>2026-04-25T13:03:24Z</time>
      </trkpt>
      <trkpt lat="59.065933227539062" lon="30.030097961425781">
        <time>2026-04-25T13:03:27Z</time>
      </trkpt>
      <trkpt lat="59.065933227539062" lon="30.030097961425781">
        <time>2026-04-25T13:03:29Z</time>
      </trkpt>
      <trkpt lat="59.065933227539062" lon="30.030097961425781">
        <time>2026-04-25T13:03:32Z</time>
      </trkpt>
      <trkpt lat="59.065933227539062" lon="30.030055046081543">
        <time>2026-04-25T13:03:34Z</time>
      </trkpt>
      <trkpt lat="59.065911769866943" lon="30.030055046081543">
        <time>2026-04-25T13:03:37Z</time>
      </trkpt>
      <trkpt lat="59.065911769866943" lon="30.030033588409424">
        <time>2026-04-25T13:03:39Z</time>
      </trkpt>
      <trkpt lat="59.065911769866943" lon="30.030033588409424">
        <time>2026-04-25T13:03:42Z</time>
      </trkpt>
      <trkpt lat="59.065933227539062" lon="30.030033588409424">
        <time>2026-04-25T13:03:44Z</time>
      </trkpt>
      <trkpt lat="59.065933227539062" lon="30.030012130737305">
        <time>2026-04-25T13:03:47Z</time>
      </trkpt>
      <trkpt lat="59.065933227539062" lon="30.030012130737305">
        <time>2026-04-25T13:03:49Z</time>
      </trkpt>
      <trkpt lat="59.065933227539062" lon="30.030012130737305">
        <time>2026-04-25T13:03:52Z</time>
      </trkpt>
      <trkpt lat="59.065933227539062" lon="30.030012130737305">
        <time>2026-04-25T13:03:54Z</time>
      </trkpt>
      <trkpt lat="59.065933227539062" lon="30.029990673065186">
        <time>2026-04-25T13:03:57Z</time>
      </trkpt>
      <trkpt lat="59.065933227539062" lon="30.029990673065186">
        <time>2026-04-25T13:03:59Z</time>
      </trkpt>
      <trkpt lat="59.065933227539062" lon="30.029990673065186">
        <time>2026-04-25T13:04:02Z</time>
      </trkpt>
      <trkpt lat="59.065911769866943" lon="30.029990673065186">
        <time>2026-04-25T13:04:04Z</time>
      </trkpt>
      <trkpt lat="59.065911769866943" lon="30.029990673065186">
        <time>2026-04-25T13:04:07Z</time>
      </trkpt>
      <trkpt lat="59.065911769866943" lon="30.029990673065186">
        <time>2026-04-25T13:04:09Z</time>
      </trkpt>
      <trkpt lat="59.065911769866943" lon="30.029990673065186">
        <time>2026-04-25T13:04:12Z</time>
      </trkpt>
      <trkpt lat="59.065911769866943" lon="30.029990673065186">
        <time>2026-04-25T13:04:14Z</time>
      </trkpt>
      <trkpt lat="59.065911769866943" lon="30.029990673065186">
        <time>2026-04-25T13:04:17Z</time>
      </trkpt>
      <trkpt lat="59.065911769866943" lon="30.029990673065186">
        <time>2026-04-25T13:04:19Z</time>
      </trkpt>
      <trkpt lat="59.065911769866943" lon="30.029990673065186">
        <time>2026-04-25T13:04:22Z</time>
      </trkpt>
      <trkpt lat="59.065911769866943" lon="30.029990673065186">
        <time>2026-04-25T13:04:24Z</time>
      </trkpt>
      <trkpt lat="59.065911769866943" lon="30.029990673065186">
        <time>2026-04-25T13:04:27Z</time>
      </trkpt>
      <trkpt lat="59.065911769866943" lon="30.029990673065186">
        <time>2026-04-25T13:04:29Z</time>
      </trkpt>
      <trkpt lat="59.065911769866943" lon="30.029990673065186">
        <time>2026-04-25T13:04:32Z</time>
      </trkpt>
      <trkpt lat="59.065911769866943" lon="30.029990673065186">
        <time>2026-04-25T13:04:34Z</time>
      </trkpt>
      <trkpt lat="59.065911769866943" lon="30.029990673065186">
        <time>2026-04-25T13:04:37Z</time>
      </trkpt>
      <trkpt lat="59.065911769866943" lon="30.029990673065186">
        <time>2026-04-25T13:04:39Z</time>
      </trkpt>
      <trkpt lat="59.065911769866943" lon="30.029990673065186">
        <time>2026-04-25T13:04:42Z</time>
      </trkpt>
      <trkpt lat="59.065911769866943" lon="30.029990673065186">
        <time>2026-04-25T13:04:44Z</time>
      </trkpt>
      <trkpt lat="59.065911769866943" lon="30.029990673065186">
        <time>2026-04-25T13:04:47Z</time>
      </trkpt>
      <trkpt lat="59.065911769866943" lon="30.029990673065186">
        <time>2026-04-25T13:04:49Z</time>
      </trkpt>
      <trkpt lat="59.065911769866943" lon="30.029990673065186">
        <time>2026-04-25T13:04:52Z</time>
      </trkpt>
      <trkpt lat="59.065911769866943" lon="30.029990673065186">
        <time>2026-04-25T13:04:54Z</time>
      </trkpt>
      <trkpt lat="59.065911769866943" lon="30.029990673065186">
        <time>2026-04-25T13:04:57Z</time>
      </trkpt>
      <trkpt lat="59.065911769866943" lon="30.029990673065186">
        <time>2026-04-25T13:04:59Z</time>
      </trkpt>
      <trkpt lat="59.065911769866943" lon="30.029990673065186">
        <time>2026-04-25T13:05:02Z</time>
      </trkpt>
      <trkpt lat="59.065911769866943" lon="30.029990673065186">
        <time>2026-04-25T13:05:04Z</time>
      </trkpt>
      <trkpt lat="59.065911769866943" lon="30.029990673065186">
        <time>2026-04-25T13:05:07Z</time>
      </trkpt>
      <trkpt lat="59.065911769866943" lon="30.029990673065186">
        <time>2026-04-25T13:05:09Z</time>
      </trkpt>
      <trkpt lat="59.065911769866943" lon="30.029990673065186">
        <time>2026-04-25T13:05:12Z</time>
      </trkpt>
      <trkpt lat="59.065911769866943" lon="30.029990673065186">
        <time>2026-04-25T13:05:14Z</time>
      </trkpt>
      <trkpt lat="59.065911769866943" lon="30.029990673065186">
        <time>2026-04-25T13:05:17Z</time>
      </trkpt>
      <trkpt lat="59.065911769866943" lon="30.029990673065186">
        <time>2026-04-25T13:05:19Z</time>
      </trkpt>
      <trkpt lat="59.065933227539062" lon="30.030012130737305">
        <time>2026-04-25T13:05:22Z</time>
      </trkpt>
      <trkpt lat="59.065933227539062" lon="30.030012130737305">
        <time>2026-04-25T13:05:24Z</time>
      </trkpt>
      <trkpt lat="59.065933227539062" lon="30.030012130737305">
        <time>2026-04-25T13:05:27Z</time>
      </trkpt>
      <trkpt lat="59.065933227539062" lon="30.030012130737305">
        <time>2026-04-25T13:05:29Z</time>
      </trkpt>
      <trkpt lat="59.065933227539062" lon="30.030012130737305">
        <time>2026-04-25T13:05:32Z</time>
      </trkpt>
      <trkpt lat="59.065933227539062" lon="30.030012130737305">
        <time>2026-04-25T13:05:34Z</time>
      </trkpt>
      <trkpt lat="59.065933227539062" lon="30.030012130737305">
        <time>2026-04-25T13:05:37Z</time>
      </trkpt>
      <trkpt lat="59.065911769866943" lon="30.030012130737305">
        <time>2026-04-25T13:05:39Z</time>
      </trkpt>
      <trkpt lat="59.065911769866943" lon="30.030012130737305">
        <time>2026-04-25T13:05:42Z</time>
      </trkpt>
      <trkpt lat="59.065911769866943" lon="30.030012130737305">
        <time>2026-04-25T13:05:44Z</time>
      </trkpt>
      <trkpt lat="59.065911769866943" lon="30.030012130737305">
        <time>2026-04-25T13:05:47Z</time>
      </trkpt>
      <trkpt lat="59.065911769866943" lon="30.030012130737305">
        <time>2026-04-25T13:05:49Z</time>
      </trkpt>
      <trkpt lat="59.065911769866943" lon="30.030012130737305">
        <time>2026-04-25T13:05:52Z</time>
      </trkpt>
      <trkpt lat="59.065911769866943" lon="30.030012130737305">
        <time>2026-04-25T13:05:54Z</time>
      </trkpt>
      <trkpt lat="59.065911769866943" lon="30.030012130737305">
        <time>2026-04-25T13:05:57Z</time>
      </trkpt>
      <trkpt lat="59.065911769866943" lon="30.030012130737305">
        <time>2026-04-25T13:05:59Z</time>
      </trkpt>
      <trkpt lat="59.065911769866943" lon="30.030012130737305">
        <time>2026-04-25T13:06:02Z</time>
      </trkpt>
      <trkpt lat="59.065911769866943" lon="30.030012130737305">
        <time>2026-04-25T13:06:04Z</time>
      </trkpt>
      <trkpt lat="59.065911769866943" lon="30.030012130737305">
        <time>2026-04-25T13:06:07Z</time>
      </trkpt>
      <trkpt lat="59.065911769866943" lon="30.030012130737305">
        <time>2026-04-25T13:06:09Z</time>
      </trkpt>
      <trkpt lat="59.065911769866943" lon="30.030012130737305">
        <time>2026-04-25T13:06:12Z</time>
      </trkpt>
      <trkpt lat="59.065911769866943" lon="30.030012130737305">
        <time>2026-04-25T13:06:14Z</time>
      </trkpt>
      <trkpt lat="59.065911769866943" lon="30.030012130737305">
        <time>2026-04-25T13:06:17Z</time>
      </trkpt>
      <trkpt lat="59.065911769866943" lon="30.030012130737305">
        <time>2026-04-25T13:06:19Z</time>
      </trkpt>
      <trkpt lat="59.065911769866943" lon="30.030012130737305">
        <time>2026-04-25T13:06:22Z</time>
      </trkpt>
      <trkpt lat="59.065911769866943" lon="30.030012130737305">
        <time>2026-04-25T13:06:24Z</time>
      </trkpt>
      <trkpt lat="59.065911769866943" lon="30.030012130737305">
        <time>2026-04-25T13:06:27Z</time>
      </trkpt>
      <trkpt lat="59.065911769866943" lon="30.030012130737305">
        <time>2026-04-25T13:06:29Z</time>
      </trkpt>
      <trkpt lat="59.065911769866943" lon="30.030012130737305">
        <time>2026-04-25T13:06:32Z</time>
      </trkpt>
      <trkpt lat="59.065911769866943" lon="30.030012130737305">
        <time>2026-04-25T13:06:34Z</time>
      </trkpt>
      <trkpt lat="59.065911769866943" lon="30.030012130737305">
        <time>2026-04-25T13:06:37Z</time>
      </trkpt>
      <trkpt lat="59.065911769866943" lon="30.030012130737305">
        <time>2026-04-25T13:06:39Z</time>
      </trkpt>
      <trkpt lat="59.065911769866943" lon="30.030012130737305">
        <time>2026-04-25T13:06:42Z</time>
      </trkpt>
      <trkpt lat="59.065911769866943" lon="30.030012130737305">
        <time>2026-04-25T13:06:44Z</time>
      </trkpt>
      <trkpt lat="59.065911769866943" lon="30.030012130737305">
        <time>2026-04-25T13:06:47Z</time>
      </trkpt>
      <trkpt lat="59.065911769866943" lon="30.030012130737305">
        <time>2026-04-25T13:06:49Z</time>
      </trkpt>
      <trkpt lat="59.065911769866943" lon="30.030012130737305">
        <time>2026-04-25T13:06:52Z</time>
      </trkpt>
      <trkpt lat="59.065911769866943" lon="30.030012130737305">
        <time>2026-04-25T13:06:54Z</time>
      </trkpt>
      <trkpt lat="59.065933227539062" lon="30.030012130737305">
        <time>2026-04-25T13:06:59Z</time>
      </trkpt>
      <trkpt lat="59.065933227539062" lon="30.030012130737305">
        <time>2026-04-25T13:07:02Z</time>
      </trkpt>
      <trkpt lat="59.065933227539062" lon="30.030012130737305">
        <time>2026-04-25T13:07:04Z</time>
      </trkpt>
      <trkpt lat="59.065933227539062" lon="30.030012130737305">
        <time>2026-04-25T13:07:07Z</time>
      </trkpt>
      <trkpt lat="59.065933227539062" lon="30.030012130737305">
        <time>2026-04-25T13:07:09Z</time>
      </trkpt>
      <trkpt lat="59.065933227539062" lon="30.030012130737305">
        <time>2026-04-25T13:07:12Z</time>
      </trkpt>
      <trkpt lat="59.065933227539062" lon="30.030012130737305">
        <time>2026-04-25T13:07:14Z</time>
      </trkpt>
      <trkpt lat="59.065933227539062" lon="30.030012130737305">
        <time>2026-04-25T13:07:17Z</time>
      </trkpt>
      <trkpt lat="59.065933227539062" lon="30.030012130737305">
        <time>2026-04-25T13:07:19Z</time>
      </trkpt>
      <trkpt lat="59.065933227539062" lon="30.030012130737305">
        <time>2026-04-25T13:07:22Z</time>
      </trkpt>
      <trkpt lat="59.065933227539062" lon="30.030012130737305">
        <time>2026-04-25T13:07:24Z</time>
      </trkpt>
      <trkpt lat="59.065933227539062" lon="30.030012130737305">
        <time>2026-04-25T13:07:27Z</time>
      </trkpt>
      <trkpt lat="59.065933227539062" lon="30.030012130737305">
        <time>2026-04-25T13:07:29Z</time>
      </trkpt>
      <trkpt lat="59.065933227539062" lon="30.030012130737305">
        <time>2026-04-25T13:07:32Z</time>
      </trkpt>
      <trkpt lat="59.065933227539062" lon="30.030012130737305">
        <time>2026-04-25T13:07:34Z</time>
      </trkpt>
      <trkpt lat="59.065933227539062" lon="30.030012130737305">
        <time>2026-04-25T13:07:37Z</time>
      </trkpt>
      <trkpt lat="59.065933227539062" lon="30.030012130737305">
        <time>2026-04-25T13:07:39Z</time>
      </trkpt>
      <trkpt lat="59.065933227539062" lon="30.030012130737305">
        <time>2026-04-25T13:07:42Z</time>
      </trkpt>
      <trkpt lat="59.065933227539062" lon="30.030012130737305">
        <time>2026-04-25T13:07:44Z</time>
      </trkpt>
      <trkpt lat="59.065933227539062" lon="30.030012130737305">
        <time>2026-04-25T13:07:47Z</time>
      </trkpt>
      <trkpt lat="59.065933227539062" lon="30.030012130737305">
        <time>2026-04-25T13:07:49Z</time>
      </trkpt>
      <trkpt lat="59.065933227539062" lon="30.030012130737305">
        <time>2026-04-25T13:07:52Z</time>
      </trkpt>
      <trkpt lat="59.065933227539062" lon="30.030012130737305">
        <time>2026-04-25T13:07:54Z</time>
      </trkpt>
      <trkpt lat="59.065933227539062" lon="30.030012130737305">
        <time>2026-04-25T13:07:57Z</time>
      </trkpt>
      <trkpt lat="59.065933227539062" lon="30.030012130737305">
        <time>2026-04-25T13:07:59Z</time>
      </trkpt>
      <trkpt lat="59.065933227539062" lon="30.030012130737305">
        <time>2026-04-25T13:08:02Z</time>
      </trkpt>
      <trkpt lat="59.065933227539062" lon="30.030012130737305">
        <time>2026-04-25T13:08:04Z</time>
      </trkpt>
      <trkpt lat="59.065933227539062" lon="30.030012130737305">
        <time>2026-04-25T13:08:07Z</time>
      </trkpt>
      <trkpt lat="59.065933227539062" lon="30.030012130737305">
        <time>2026-04-25T13:08:09Z</time>
      </trkpt>
      <trkpt lat="59.065933227539062" lon="30.030012130737305">
        <time>2026-04-25T13:08:12Z</time>
      </trkpt>
      <trkpt lat="59.065933227539062" lon="30.030012130737305">
        <time>2026-04-25T13:08:14Z</time>
      </trkpt>
      <trkpt lat="59.065933227539062" lon="30.030012130737305">
        <time>2026-04-25T13:08:17Z</time>
      </trkpt>
      <trkpt lat="59.065933227539062" lon="30.029990673065186">
        <time>2026-04-25T13:08:19Z</time>
      </trkpt>
      <trkpt lat="59.065933227539062" lon="30.029990673065186">
        <time>2026-04-25T13:08:22Z</time>
      </trkpt>
      <trkpt lat="59.065933227539062" lon="30.029990673065186">
        <time>2026-04-25T13:08:24Z</time>
      </trkpt>
      <trkpt lat="59.065933227539062" lon="30.029990673065186">
        <time>2026-04-25T13:08:27Z</time>
      </trkpt>
      <trkpt lat="59.065933227539062" lon="30.029990673065186">
        <time>2026-04-25T13:08:29Z</time>
      </trkpt>
      <trkpt lat="59.065933227539062" lon="30.029990673065186">
        <time>2026-04-25T13:08:32Z</time>
      </trkpt>
      <trkpt lat="59.065933227539062" lon="30.029990673065186">
        <time>2026-04-25T13:08:34Z</time>
      </trkpt>
      <trkpt lat="59.065933227539062" lon="30.029990673065186">
        <time>2026-04-25T13:08:37Z</time>
      </trkpt>
      <trkpt lat="59.065933227539062" lon="30.029990673065186">
        <time>2026-04-25T13:08:39Z</time>
      </trkpt>
      <trkpt lat="59.065933227539062" lon="30.029990673065186">
        <time>2026-04-25T13:08:42Z</time>
      </trkpt>
      <trkpt lat="59.065933227539062" lon="30.029990673065186">
        <time>2026-04-25T13:08:44Z</time>
      </trkpt>
      <trkpt lat="59.065933227539062" lon="30.029990673065186">
        <time>2026-04-25T13:08:47Z</time>
      </trkpt>
      <trkpt lat="59.065933227539062" lon="30.029990673065186">
        <time>2026-04-25T13:08:49Z</time>
      </trkpt>
      <trkpt lat="59.065933227539062" lon="30.029990673065186">
        <time>2026-04-25T13:08:52Z</time>
      </trkpt>
      <trkpt lat="59.065933227539062" lon="30.029990673065186">
        <time>2026-04-25T13:08:54Z</time>
      </trkpt>
      <trkpt lat="59.065933227539062" lon="30.029990673065186">
        <time>2026-04-25T13:08:57Z</time>
      </trkpt>
      <trkpt lat="59.065933227539062" lon="30.029990673065186">
        <time>2026-04-25T13:08:59Z</time>
      </trkpt>
      <trkpt lat="59.065933227539062" lon="30.029990673065186">
        <time>2026-04-25T13:09:02Z</time>
      </trkpt>
      <trkpt lat="59.065933227539062" lon="30.029990673065186">
        <time>2026-04-25T13:09:04Z</time>
      </trkpt>
      <trkpt lat="59.065933227539062" lon="30.029990673065186">
        <time>2026-04-25T13:09:07Z</time>
      </trkpt>
      <trkpt lat="59.065933227539062" lon="30.029990673065186">
        <time>2026-04-25T13:09:09Z</time>
      </trkpt>
      <trkpt lat="59.065933227539062" lon="30.029990673065186">
        <time>2026-04-25T13:09:12Z</time>
      </trkpt>
      <trkpt lat="59.065933227539062" lon="30.029990673065186">
        <time>2026-04-25T13:09:14Z</time>
      </trkpt>
      <trkpt lat="59.065933227539062" lon="30.029990673065186">
        <time>2026-04-25T13:09:17Z</time>
      </trkpt>
      <trkpt lat="59.065933227539062" lon="30.029990673065186">
        <time>2026-04-25T13:09:19Z</time>
      </trkpt>
      <trkpt lat="59.065933227539062" lon="30.029990673065186">
        <time>2026-04-25T13:09:22Z</time>
      </trkpt>
      <trkpt lat="59.065933227539062" lon="30.029990673065186">
        <time>2026-04-25T13:09:24Z</time>
      </trkpt>
      <trkpt lat="59.065933227539062" lon="30.029990673065186">
        <time>2026-04-25T13:09:27Z</time>
      </trkpt>
      <trkpt lat="59.065933227539062" lon="30.029990673065186">
        <time>2026-04-25T13:09:29Z</time>
      </trkpt>
      <trkpt lat="59.065933227539062" lon="30.029990673065186">
        <time>2026-04-25T13:09:32Z</time>
      </trkpt>
      <trkpt lat="59.065933227539062" lon="30.029990673065186">
        <time>2026-04-25T13:09:34Z</time>
      </trkpt>
      <trkpt lat="59.065933227539062" lon="30.029990673065186">
        <time>2026-04-25T13:09:37Z</time>
      </trkpt>
      <trkpt lat="59.065933227539062" lon="30.029990673065186">
        <time>2026-04-25T13:09:39Z</time>
      </trkpt>
      <trkpt lat="59.065933227539062" lon="30.029990673065186">
        <time>2026-04-25T13:09:42Z</time>
      </trkpt>
      <trkpt lat="59.065933227539062" lon="30.029990673065186">
        <time>2026-04-25T13:09:44Z</time>
      </trkpt>
      <trkpt lat="59.065933227539062" lon="30.029990673065186">
        <time>2026-04-25T13:09:47Z</time>
      </trkpt>
      <trkpt lat="59.065933227539062" lon="30.029990673065186">
        <time>2026-04-25T13:09:49Z</time>
      </trkpt>
      <trkpt lat="59.065933227539062" lon="30.029990673065186">
        <time>2026-04-25T13:09:52Z</time>
      </trkpt>
      <trkpt lat="59.065933227539062" lon="30.029990673065186">
        <time>2026-04-25T13:09:54Z</time>
      </trkpt>
      <trkpt lat="59.065933227539062" lon="30.029990673065186">
        <time>2026-04-25T13:09:57Z</time>
      </trkpt>
      <trkpt lat="59.065911769866943" lon="30.030033588409424">
        <time>2026-04-25T13:09:59Z</time>
      </trkpt>
      <trkpt lat="59.065911769866943" lon="30.030012130737305">
        <time>2026-04-25T13:10:02Z</time>
      </trkpt>
      <trkpt lat="59.065911769866943" lon="30.030033588409424">
        <time>2026-04-25T13:10:04Z</time>
      </trkpt>
      <trkpt lat="59.065890312194824" lon="30.030055046081543">
        <time>2026-04-25T13:10:07Z</time>
      </trkpt>
      <trkpt lat="59.065868854522705" lon="30.030097961425781">
        <time>2026-04-25T13:10:09Z</time>
      </trkpt>
      <trkpt lat="59.065847396850586" lon="30.0301194190979">
        <time>2026-04-25T13:10:12Z</time>
      </trkpt>
      <trkpt lat="59.065847396850586" lon="30.0301194190979">
        <time>2026-04-25T13:10:14Z</time>
      </trkpt>
      <trkpt lat="59.065847396850586" lon="30.030097961425781">
        <time>2026-04-25T13:10:17Z</time>
      </trkpt>
      <trkpt lat="59.065825939178467" lon="30.030055046081543">
        <time>2026-04-25T13:10:19Z</time>
      </trkpt>
      <trkpt lat="59.065804481506348" lon="30.030055046081543">
        <time>2026-04-25T13:10:22Z</time>
      </trkpt>
      <trkpt lat="59.065783023834229" lon="30.030055046081543">
        <time>2026-04-25T13:10:24Z</time>
      </trkpt>
      <trkpt lat="59.065783023834229" lon="30.030097961425781">
        <time>2026-04-25T13:10:27Z</time>
      </trkpt>
      <trkpt lat="59.065783023834229" lon="30.030076503753662">
        <time>2026-04-25T13:10:29Z</time>
      </trkpt>
      <trkpt lat="59.065783023834229" lon="30.030076503753662">
        <time>2026-04-25T13:10:32Z</time>
      </trkpt>
      <trkpt lat="59.06574010848999" lon="30.030097961425781">
        <time>2026-04-25T13:10:34Z</time>
      </trkpt>
      <trkpt lat="59.065718650817871" lon="30.0301194190979">
        <time>2026-04-25T13:10:37Z</time>
      </trkpt>
      <trkpt lat="59.065697193145752" lon="30.03014087677002">
        <time>2026-04-25T13:10:39Z</time>
      </trkpt>
      <trkpt lat="59.065675735473633" lon="30.03014087677002">
        <time>2026-04-25T13:10:42Z</time>
      </trkpt>
      <trkpt lat="59.065654277801514" lon="30.030162334442139">
        <time>2026-04-25T13:10:44Z</time>
      </trkpt>
      <trkpt lat="59.065632820129395" lon="30.030162334442139">
        <time>2026-04-25T13:10:47Z</time>
      </trkpt>
      <trkpt lat="59.065589904785156" lon="30.030205249786377">
        <time>2026-04-25T13:10:49Z</time>
      </trkpt>
      <trkpt lat="59.065568447113037" lon="30.030226707458496">
        <time>2026-04-25T13:10:52Z</time>
      </trkpt>
      <trkpt lat="59.065546989440918" lon="30.030269622802734">
        <time>2026-04-25T13:10:54Z</time>
      </trkpt>
      <trkpt lat="59.065546989440918" lon="30.030269622802734">
        <time>2026-04-25T13:10:57Z</time>
      </trkpt>
      <trkpt lat="59.065568447113037" lon="30.030269622802734">
        <time>2026-04-25T13:10:59Z</time>
      </trkpt>
      <trkpt lat="59.065546989440918" lon="30.030269622802734">
        <time>2026-04-25T13:11:02Z</time>
      </trkpt>
      <trkpt lat="59.06550407409668" lon="30.030291080474854">
        <time>2026-04-25T13:11:04Z</time>
      </trkpt>
      <trkpt lat="59.065482616424561" lon="30.030269622802734">
        <time>2026-04-25T13:11:07Z</time>
      </trkpt>
      <trkpt lat="59.065461158752441" lon="30.030248165130615">
        <time>2026-04-25T13:11:09Z</time>
      </trkpt>
      <trkpt lat="59.065461158752441" lon="30.030226707458496">
        <time>2026-04-25T13:11:12Z</time>
      </trkpt>
      <trkpt lat="59.065461158752441" lon="30.030226707458496">
        <time>2026-04-25T13:11:14Z</time>
      </trkpt>
      <trkpt lat="59.065461158752441" lon="30.030226707458496">
        <time>2026-04-25T13:11:17Z</time>
      </trkpt>
      <trkpt lat="59.065439701080322" lon="30.030269622802734">
        <time>2026-04-25T13:11:19Z</time>
      </trkpt>
      <trkpt lat="59.065418243408203" lon="30.030291080474854">
        <time>2026-04-25T13:11:22Z</time>
      </trkpt>
      <trkpt lat="59.065332412719727" lon="30.030312538146973">
        <time>2026-04-25T13:11:24Z</time>
      </trkpt>
      <trkpt lat="59.065310955047607" lon="30.030333995819092">
        <time>2026-04-25T13:11:27Z</time>
      </trkpt>
      <trkpt lat="59.065268039703369" lon="30.030333995819092">
        <time>2026-04-25T13:11:29Z</time>
      </trkpt>
      <trkpt lat="59.065225124359131" lon="30.030355453491211">
        <time>2026-04-25T13:11:32Z</time>
      </trkpt>
      <trkpt lat="59.065182209014893" lon="30.030355453491211">
        <time>2026-04-25T13:11:34Z</time>
      </trkpt>
      <trkpt lat="59.065160751342773" lon="30.030355453491211">
        <time>2026-04-25T13:11:37Z</time>
      </trkpt>
      <trkpt lat="59.065117835998535" lon="30.03037691116333">
        <time>2026-04-25T13:11:39Z</time>
      </trkpt>
      <trkpt lat="59.065096378326416" lon="30.030398368835449">
        <time>2026-04-25T13:11:42Z</time>
      </trkpt>
      <trkpt lat="59.065032005310059" lon="30.030398368835449">
        <time>2026-04-25T13:11:44Z</time>
      </trkpt>
      <trkpt lat="59.065010547637939" lon="30.030419826507568">
        <time>2026-04-25T13:11:47Z</time>
      </trkpt>
      <trkpt lat="59.064967632293701" lon="30.030441284179688">
        <time>2026-04-25T13:11:49Z</time>
      </trkpt>
      <trkpt lat="59.064946174621582" lon="30.030441284179688">
        <time>2026-04-25T13:11:52Z</time>
      </trkpt>
      <trkpt lat="59.064924716949463" lon="30.030441284179688">
        <time>2026-04-25T13:11:54Z</time>
      </trkpt>
      <trkpt lat="59.064924716949463" lon="30.030441284179688">
        <time>2026-04-25T13:11:57Z</time>
      </trkpt>
      <trkpt lat="59.064924716949463" lon="30.030441284179688">
        <time>2026-04-25T13:11:59Z</time>
      </trkpt>
      <trkpt lat="59.064924716949463" lon="30.030441284179688">
        <time>2026-04-25T13:12:02Z</time>
      </trkpt>
      <trkpt lat="59.064924716949463" lon="30.030441284179688">
        <time>2026-04-25T13:12:04Z</time>
      </trkpt>
      <trkpt lat="59.064903259277344" lon="30.030441284179688">
        <time>2026-04-25T13:12:07Z</time>
      </trkpt>
      <trkpt lat="59.064860343933105" lon="30.030462741851807">
        <time>2026-04-25T13:12:09Z</time>
      </trkpt>
      <trkpt lat="59.064817428588867" lon="30.030462741851807">
        <time>2026-04-25T13:12:12Z</time>
      </trkpt>
      <trkpt lat="59.064774513244629" lon="30.030484199523926">
        <time>2026-04-25T13:12:14Z</time>
      </trkpt>
      <trkpt lat="59.064731597900391" lon="30.030484199523926">
        <time>2026-04-25T13:12:17Z</time>
      </trkpt>
      <trkpt lat="59.064710140228271" lon="30.030484199523926">
        <time>2026-04-25T13:12:19Z</time>
      </trkpt>
      <trkpt lat="59.064688682556152" lon="30.030505657196045">
        <time>2026-04-25T13:12:22Z</time>
      </trkpt>
      <trkpt lat="59.064667224884033" lon="30.030505657196045">
        <time>2026-04-25T13:12:24Z</time>
      </trkpt>
      <trkpt lat="59.064667224884033" lon="30.030505657196045">
        <time>2026-04-25T13:12:27Z</time>
      </trkpt>
      <trkpt lat="59.064624309539795" lon="30.030527114868164">
        <time>2026-04-25T13:12:29Z</time>
      </trkpt>
      <trkpt lat="59.064581394195557" lon="30.030548572540283">
        <time>2026-04-25T13:12:32Z</time>
      </trkpt>
      <trkpt lat="59.064517021179199" lon="30.030570030212402">
        <time>2026-04-25T13:12:34Z</time>
      </trkpt>
      <trkpt lat="59.06449556350708" lon="30.030570030212402">
        <time>2026-04-25T13:12:37Z</time>
      </trkpt>
      <trkpt lat="59.064452648162842" lon="30.030591487884521">
        <time>2026-04-25T13:12:39Z</time>
      </trkpt>
      <trkpt lat="59.064452648162842" lon="30.030570030212402">
        <time>2026-04-25T13:12:42Z</time>
      </trkpt>
      <trkpt lat="59.064409732818604" lon="30.030591487884521">
        <time>2026-04-25T13:12:44Z</time>
      </trkpt>
      <trkpt lat="59.064388275146484" lon="30.030591487884521">
        <time>2026-04-25T13:12:47Z</time>
      </trkpt>
      <trkpt lat="59.064388275146484" lon="30.030591487884521">
        <time>2026-04-25T13:12:49Z</time>
      </trkpt>
      <trkpt lat="59.064366817474365" lon="30.030612945556641">
        <time>2026-04-25T13:12:52Z</time>
      </trkpt>
      <trkpt lat="59.064366817474365" lon="30.030655860900879">
        <time>2026-04-25T13:12:54Z</time>
      </trkpt>
      <trkpt lat="59.064366817474365" lon="30.030655860900879">
        <time>2026-04-25T13:12:57Z</time>
      </trkpt>
      <trkpt lat="59.064345359802246" lon="30.030655860900879">
        <time>2026-04-25T13:12:59Z</time>
      </trkpt>
      <trkpt lat="59.064323902130127" lon="30.030677318572998">
        <time>2026-04-25T13:13:02Z</time>
      </trkpt>
      <trkpt lat="59.06425952911377" lon="30.030677318572998">
        <time>2026-04-25T13:13:04Z</time>
      </trkpt>
      <trkpt lat="59.064216613769531" lon="30.030677318572998">
        <time>2026-04-25T13:13:07Z</time>
      </trkpt>
      <trkpt lat="59.064173698425293" lon="30.030741691589355">
        <time>2026-04-25T13:13:09Z</time>
      </trkpt>
      <trkpt lat="59.064130783081055" lon="30.030763149261475">
        <time>2026-04-25T13:13:12Z</time>
      </trkpt>
      <trkpt lat="59.064109325408936" lon="30.030720233917236">
        <time>2026-04-25T13:13:14Z</time>
      </trkpt>
      <trkpt lat="59.064087867736816" lon="30.030720233917236">
        <time>2026-04-25T13:13:17Z</time>
      </trkpt>
      <trkpt lat="59.064066410064697" lon="30.030720233917236">
        <time>2026-04-25T13:13:19Z</time>
      </trkpt>
      <trkpt lat="59.064066410064697" lon="30.030741691589355">
        <time>2026-04-25T13:13:22Z</time>
      </trkpt>
      <trkpt lat="59.064066410064697" lon="30.030806064605713">
        <time>2026-04-25T13:13:24Z</time>
      </trkpt>
      <trkpt lat="59.064044952392578" lon="30.030763149261475">
        <time>2026-04-25T13:13:27Z</time>
      </trkpt>
      <trkpt lat="59.064023494720459" lon="30.030784606933594">
        <time>2026-04-25T13:13:29Z</time>
      </trkpt>
      <trkpt lat="59.064023494720459" lon="30.030784606933594">
        <time>2026-04-25T13:13:32Z</time>
      </trkpt>
      <trkpt lat="59.064023494720459" lon="30.030806064605713">
        <time>2026-04-25T13:13:34Z</time>
      </trkpt>
      <trkpt lat="59.064023494720459" lon="30.030827522277832">
        <time>2026-04-25T13:13:37Z</time>
      </trkpt>
      <trkpt lat="59.064023494720459" lon="30.030827522277832">
        <time>2026-04-25T13:13:39Z</time>
      </trkpt>
      <trkpt lat="59.06400203704834" lon="30.030784606933594">
        <time>2026-04-25T13:13:42Z</time>
      </trkpt>
      <trkpt lat="59.063937664031982" lon="30.030806064605713">
        <time>2026-04-25T13:13:44Z</time>
      </trkpt>
      <trkpt lat="59.063894748687744" lon="30.030806064605713">
        <time>2026-04-25T13:13:47Z</time>
      </trkpt>
      <trkpt lat="59.063873291015625" lon="30.030827522277832">
        <time>2026-04-25T13:13:49Z</time>
      </trkpt>
      <trkpt lat="59.063851833343506" lon="30.030827522277832">
        <time>2026-04-25T13:13:52Z</time>
      </trkpt>
      <trkpt lat="59.063851833343506" lon="30.030827522277832">
        <time>2026-04-25T13:13:54Z</time>
      </trkpt>
      <trkpt lat="59.063851833343506" lon="30.030827522277832">
        <time>2026-04-25T13:13:57Z</time>
      </trkpt>
      <trkpt lat="59.063851833343506" lon="30.030827522277832">
        <time>2026-04-25T13:13:59Z</time>
      </trkpt>
      <trkpt lat="59.063851833343506" lon="30.030827522277832">
        <time>2026-04-25T13:14:02Z</time>
      </trkpt>
      <trkpt lat="59.063851833343506" lon="30.030827522277832">
        <time>2026-04-25T13:14:04Z</time>
      </trkpt>
      <trkpt lat="59.063830375671387" lon="30.030827522277832">
        <time>2026-04-25T13:14:07Z</time>
      </trkpt>
      <trkpt lat="59.063808917999268" lon="30.030848979949951">
        <time>2026-04-25T13:14:09Z</time>
      </trkpt>
      <trkpt lat="59.063787460327148" lon="30.030848979949951">
        <time>2026-04-25T13:14:12Z</time>
      </trkpt>
      <trkpt lat="59.06374454498291" lon="30.030848979949951">
        <time>2026-04-25T13:14:14Z</time>
      </trkpt>
      <trkpt lat="59.063723087310791" lon="30.030848979949951">
        <time>2026-04-25T13:14:17Z</time>
      </trkpt>
      <trkpt lat="59.063701629638672" lon="30.030848979949951">
        <time>2026-04-25T13:14:19Z</time>
      </trkpt>
      <trkpt lat="59.063680171966553" lon="30.030848979949951">
        <time>2026-04-25T13:14:22Z</time>
      </trkpt>
      <trkpt lat="59.063658714294434" lon="30.030848979949951">
        <time>2026-04-25T13:14:24Z</time>
      </trkpt>
      <trkpt lat="59.063658714294434" lon="30.03087043762207">
        <time>2026-04-25T13:14:27Z</time>
      </trkpt>
      <trkpt lat="59.063637256622314" lon="30.03087043762207">
        <time>2026-04-25T13:14:29Z</time>
      </trkpt>
      <trkpt lat="59.063637256622314" lon="30.03087043762207">
        <time>2026-04-25T13:14:32Z</time>
      </trkpt>
      <trkpt lat="59.063615798950195" lon="30.030891895294189">
        <time>2026-04-25T13:14:34Z</time>
      </trkpt>
      <trkpt lat="59.063594341278076" lon="30.030913352966309">
        <time>2026-04-25T13:14:37Z</time>
      </trkpt>
      <trkpt lat="59.063551425933838" lon="30.030934810638428">
        <time>2026-04-25T13:14:39Z</time>
      </trkpt>
      <trkpt lat="59.063529968261719" lon="30.030934810638428">
        <time>2026-04-25T13:14:42Z</time>
      </trkpt>
      <trkpt lat="59.0635085105896" lon="30.030934810638428">
        <time>2026-04-25T13:14:44Z</time>
      </trkpt>
      <trkpt lat="59.06348705291748" lon="30.030934810638428">
        <time>2026-04-25T13:14:47Z</time>
      </trkpt>
      <trkpt lat="59.06348705291748" lon="30.030934810638428">
        <time>2026-04-25T13:14:49Z</time>
      </trkpt>
      <trkpt lat="59.06348705291748" lon="30.030934810638428">
        <time>2026-04-25T13:14:52Z</time>
      </trkpt>
      <trkpt lat="59.063465595245361" lon="30.030999183654785">
        <time>2026-04-25T13:14:54Z</time>
      </trkpt>
      <trkpt lat="59.063465595245361" lon="30.031042098999023">
        <time>2026-04-25T13:14:57Z</time>
      </trkpt>
      <trkpt lat="59.06348705291748" lon="30.0311279296875">
        <time>2026-04-25T13:14:59Z</time>
      </trkpt>
      <trkpt lat="59.06348705291748" lon="30.031192302703857">
        <time>2026-04-25T13:15:02Z</time>
      </trkpt>
      <trkpt lat="59.06348705291748" lon="30.031278133392334">
        <time>2026-04-25T13:15:04Z</time>
      </trkpt>
      <trkpt lat="59.06348705291748" lon="30.031342506408691">
        <time>2026-04-25T13:15:07Z</time>
      </trkpt>
      <trkpt lat="59.06348705291748" lon="30.031406879425049">
        <time>2026-04-25T13:15:09Z</time>
      </trkpt>
      <trkpt lat="59.0635085105896" lon="30.031449794769287">
        <time>2026-04-25T13:15:12Z</time>
      </trkpt>
      <trkpt lat="59.0635085105896" lon="30.031514167785645">
        <time>2026-04-25T13:15:14Z</time>
      </trkpt>
      <trkpt lat="59.0635085105896" lon="30.031557083129883">
        <time>2026-04-25T13:15:17Z</time>
      </trkpt>
      <trkpt lat="59.06348705291748" lon="30.03162145614624">
        <time>2026-04-25T13:15:19Z</time>
      </trkpt>
      <trkpt lat="59.06348705291748" lon="30.031664371490479">
        <time>2026-04-25T13:15:22Z</time>
      </trkpt>
      <trkpt lat="59.06348705291748" lon="30.031664371490479">
        <time>2026-04-25T13:15:24Z</time>
      </trkpt>
      <trkpt lat="59.06348705291748" lon="30.031664371490479">
        <time>2026-04-25T13:15:27Z</time>
      </trkpt>
      <trkpt lat="59.06348705291748" lon="30.031664371490479">
        <time>2026-04-25T13:15:29Z</time>
      </trkpt>
      <trkpt lat="59.06348705291748" lon="30.031664371490479">
        <time>2026-04-25T13:15:32Z</time>
      </trkpt>
      <trkpt lat="59.063465595245361" lon="30.031664371490479">
        <time>2026-04-25T13:15:34Z</time>
      </trkpt>
      <trkpt lat="59.063465595245361" lon="30.031664371490479">
        <time>2026-04-25T13:15:37Z</time>
      </trkpt>
      <trkpt lat="59.063465595245361" lon="30.031664371490479">
        <time>2026-04-25T13:15:39Z</time>
      </trkpt>
      <trkpt lat="59.063465595245361" lon="30.03162145614624">
        <time>2026-04-25T13:15:42Z</time>
      </trkpt>
      <trkpt lat="59.06348705291748" lon="30.03162145614624">
        <time>2026-04-25T13:15:44Z</time>
      </trkpt>
      <trkpt lat="59.06348705291748" lon="30.03162145614624">
        <time>2026-04-25T13:15:47Z</time>
      </trkpt>
      <trkpt lat="59.06348705291748" lon="30.03162145614624">
        <time>2026-04-25T13:15:49Z</time>
      </trkpt>
      <trkpt lat="59.06348705291748" lon="30.03162145614624">
        <time>2026-04-25T13:15:52Z</time>
      </trkpt>
      <trkpt lat="59.06348705291748" lon="30.03162145614624">
        <time>2026-04-25T13:15:54Z</time>
      </trkpt>
      <trkpt lat="59.06348705291748" lon="30.03162145614624">
        <time>2026-04-25T13:15:57Z</time>
      </trkpt>
      <trkpt lat="59.06348705291748" lon="30.03162145614624">
        <time>2026-04-25T13:15:59Z</time>
      </trkpt>
      <trkpt lat="59.06348705291748" lon="30.03162145614624">
        <time>2026-04-25T13:16:02Z</time>
      </trkpt>
      <trkpt lat="59.06348705291748" lon="30.03162145614624">
        <time>2026-04-25T13:16:04Z</time>
      </trkpt>
    </trkseg>
  </trk>

</gpx>